<?xml version="1.0" encoding="UTF-8" ?>
<gpx version="1.1" creator="TomTom" xmlns="http://www.topografix.com/GPX/1/1" xmlns:xsi="http://www.w3.org/2001/XMLSchema-instance" xsi:schemaLocation="http://www.topografix.com/GPX/1/1 http://www.topografix.com/GPX/1/1/gpx.xsd">
    <trk>
        <name>Jul 15 18:40</name>
        <trkseg>
            <trkpt lat="46.477250" lon="11.765650">
                <time>2017-07-15T06:14:39Z</time>
            </trkpt>
            <trkpt lat="46.477250" lon="11.765650">
                <time>2017-07-15T06:14:40Z</time>
            </trkpt>
            <trkpt lat="46.477250" lon="11.765650">
                <time>2017-07-15T06:14:41Z</time>
            </trkpt>
            <trkpt lat="46.477250" lon="11.765650">
                <time>2017-07-15T06:14:42Z</time>
            </trkpt>
            <trkpt lat="46.477250" lon="11.765650">
                <time>2017-07-15T06:14:43Z</time>
            </trkpt>
            <trkpt lat="46.477250" lon="11.765650">
                <time>2017-07-15T06:14:44Z</time>
            </trkpt>
            <trkpt lat="46.477250" lon="11.765650">
                <time>2017-07-15T06:14:45Z</time>
            </trkpt>
            <trkpt lat="46.477250" lon="11.765650">
                <time>2017-07-15T06:14:46Z</time>
            </trkpt>
            <trkpt lat="46.477250" lon="11.765650">
                <time>2017-07-15T06:14:47Z</time>
            </trkpt>
            <trkpt lat="46.477250" lon="11.765650">
                <time>2017-07-15T06:14:48Z</time>
            </trkpt>
            <trkpt lat="46.477250" lon="11.765650">
                <time>2017-07-15T06:14:49Z</time>
            </trkpt>
            <trkpt lat="46.477250" lon="11.765650">
                <time>2017-07-15T06:14:50Z</time>
            </trkpt>
            <trkpt lat="46.477250" lon="11.765650">
                <time>2017-07-15T06:14:51Z</time>
            </trkpt>
            <trkpt lat="46.477250" lon="11.765650">
                <time>2017-07-15T06:14:52Z</time>
            </trkpt>
            <trkpt lat="46.477250" lon="11.765650">
                <time>2017-07-15T06:14:53Z</time>
            </trkpt>
            <trkpt lat="46.477250" lon="11.765650">
                <time>2017-07-15T06:14:54Z</time>
            </trkpt>
            <trkpt lat="46.477250" lon="11.765650">
                <time>2017-07-15T06:14:55Z</time>
            </trkpt>
            <trkpt lat="46.477250" lon="11.765650">
                <time>2017-07-15T06:14:56Z</time>
            </trkpt>
            <trkpt lat="46.477250" lon="11.765650">
                <time>2017-07-15T06:14:57Z</time>
            </trkpt>
            <trkpt lat="46.477250" lon="11.765650">
                <time>2017-07-15T06:14:58Z</time>
            </trkpt>
            <trkpt lat="46.477250" lon="11.765650">
                <time>2017-07-15T06:14:59Z</time>
            </trkpt>
            <trkpt lat="46.477250" lon="11.765650">
                <time>2017-07-15T06:15:00Z</time>
            </trkpt>
            <trkpt lat="46.477250" lon="11.765650">
                <time>2017-07-15T06:15:01Z</time>
            </trkpt>
            <trkpt lat="46.477250" lon="11.765650">
                <time>2017-07-15T06:15:02Z</time>
            </trkpt>
            <trkpt lat="46.477250" lon="11.765650">
                <time>2017-07-15T06:15:03Z</time>
            </trkpt>
            <trkpt lat="46.477250" lon="11.765650">
                <time>2017-07-15T06:15:04Z</time>
            </trkpt>
            <trkpt lat="46.477120" lon="11.765690">
                <time>2017-07-15T06:15:05Z</time>
            </trkpt>
            <trkpt lat="46.477120" lon="11.765690">
                <time>2017-07-15T06:15:06Z</time>
            </trkpt>
            <trkpt lat="46.477120" lon="11.765690">
                <time>2017-07-15T06:15:07Z</time>
            </trkpt>
            <trkpt lat="46.477120" lon="11.765690">
                <time>2017-07-15T06:15:08Z</time>
            </trkpt>
            <trkpt lat="46.477120" lon="11.765690">
                <time>2017-07-15T06:15:09Z</time>
            </trkpt>
            <trkpt lat="46.477120" lon="11.765690">
                <time>2017-07-15T06:15:10Z</time>
            </trkpt>
            <trkpt lat="46.477120" lon="11.765690">
                <time>2017-07-15T06:15:11Z</time>
            </trkpt>
            <trkpt lat="46.477120" lon="11.765690">
                <time>2017-07-15T06:15:12Z</time>
            </trkpt>
            <trkpt lat="46.477120" lon="11.765690">
                <time>2017-07-15T06:15:13Z</time>
            </trkpt>
            <trkpt lat="46.477120" lon="11.765690">
                <time>2017-07-15T06:15:14Z</time>
            </trkpt>
            <trkpt lat="46.477120" lon="11.765690">
                <time>2017-07-15T06:15:15Z</time>
            </trkpt>
            <trkpt lat="46.477120" lon="11.765690">
                <time>2017-07-15T06:15:16Z</time>
            </trkpt>
            <trkpt lat="46.477120" lon="11.765690">
                <time>2017-07-15T06:15:17Z</time>
            </trkpt>
            <trkpt lat="46.477120" lon="11.765690">
                <time>2017-07-15T06:15:18Z</time>
            </trkpt>
            <trkpt lat="46.477120" lon="11.765690">
                <time>2017-07-15T06:15:19Z</time>
            </trkpt>
            <trkpt lat="46.477120" lon="11.765690">
                <time>2017-07-15T06:15:20Z</time>
            </trkpt>
            <trkpt lat="46.477120" lon="11.765690">
                <time>2017-07-15T06:15:21Z</time>
            </trkpt>
            <trkpt lat="46.477120" lon="11.765690">
                <time>2017-07-15T06:15:22Z</time>
            </trkpt>
            <trkpt lat="46.477120" lon="11.765690">
                <time>2017-07-15T06:15:23Z</time>
            </trkpt>
            <trkpt lat="46.477120" lon="11.765690">
                <time>2017-07-15T06:15:24Z</time>
            </trkpt>
            <trkpt lat="46.477120" lon="11.765690">
                <time>2017-07-15T06:15:25Z</time>
            </trkpt>
            <trkpt lat="46.477120" lon="11.765690">
                <time>2017-07-15T06:15:26Z</time>
            </trkpt>
            <trkpt lat="46.477120" lon="11.765690">
                <time>2017-07-15T06:15:27Z</time>
            </trkpt>
            <trkpt lat="46.477120" lon="11.765690">
                <time>2017-07-15T06:15:28Z</time>
            </trkpt>
            <trkpt lat="46.477120" lon="11.765690">
                <time>2017-07-15T06:15:29Z</time>
            </trkpt>
            <trkpt lat="46.477120" lon="11.765690">
                <time>2017-07-15T06:15:30Z</time>
            </trkpt>
            <trkpt lat="46.477120" lon="11.765690">
                <time>2017-07-15T06:15:31Z</time>
            </trkpt>
            <trkpt lat="46.477120" lon="11.765690">
                <time>2017-07-15T06:15:32Z</time>
            </trkpt>
            <trkpt lat="46.477120" lon="11.765690">
                <time>2017-07-15T06:15:33Z</time>
            </trkpt>
            <trkpt lat="46.477120" lon="11.765690">
                <time>2017-07-15T06:15:34Z</time>
            </trkpt>
            <trkpt lat="46.477120" lon="11.765690">
                <time>2017-07-15T06:15:35Z</time>
            </trkpt>
            <trkpt lat="46.477120" lon="11.765690">
                <time>2017-07-15T06:15:36Z</time>
            </trkpt>
            <trkpt lat="46.477120" lon="11.765690">
                <time>2017-07-15T06:15:37Z</time>
            </trkpt>
            <trkpt lat="46.477120" lon="11.765690">
                <time>2017-07-15T06:15:38Z</time>
            </trkpt>
            <trkpt lat="46.477120" lon="11.765690">
                <time>2017-07-15T06:15:39Z</time>
            </trkpt>
            <trkpt lat="46.477120" lon="11.765690">
                <time>2017-07-15T06:15:40Z</time>
            </trkpt>
            <trkpt lat="46.477120" lon="11.765690">
                <time>2017-07-15T06:15:41Z</time>
            </trkpt>
            <trkpt lat="46.477120" lon="11.765690">
                <time>2017-07-15T06:15:42Z</time>
            </trkpt>
            <trkpt lat="46.477120" lon="11.765690">
                <time>2017-07-15T06:15:43Z</time>
            </trkpt>
            <trkpt lat="46.477120" lon="11.765690">
                <time>2017-07-15T06:15:44Z</time>
            </trkpt>
            <trkpt lat="46.477120" lon="11.765690">
                <time>2017-07-15T06:15:45Z</time>
            </trkpt>
            <trkpt lat="46.477120" lon="11.765690">
                <time>2017-07-15T06:15:46Z</time>
            </trkpt>
            <trkpt lat="46.477120" lon="11.765690">
                <time>2017-07-15T06:15:47Z</time>
            </trkpt>
            <trkpt lat="46.477120" lon="11.765690">
                <time>2017-07-15T06:15:48Z</time>
            </trkpt>
            <trkpt lat="46.477120" lon="11.765690">
                <time>2017-07-15T06:15:49Z</time>
            </trkpt>
            <trkpt lat="46.477120" lon="11.765690">
                <time>2017-07-15T06:15:50Z</time>
            </trkpt>
            <trkpt lat="46.477120" lon="11.765690">
                <time>2017-07-15T06:15:51Z</time>
            </trkpt>
            <trkpt lat="46.477120" lon="11.765690">
                <time>2017-07-15T06:15:52Z</time>
            </trkpt>
            <trkpt lat="46.477120" lon="11.765690">
                <time>2017-07-15T06:15:53Z</time>
            </trkpt>
            <trkpt lat="46.477120" lon="11.765690">
                <time>2017-07-15T06:15:54Z</time>
            </trkpt>
            <trkpt lat="46.477120" lon="11.765690">
                <time>2017-07-15T06:15:55Z</time>
            </trkpt>
            <trkpt lat="46.477120" lon="11.765690">
                <time>2017-07-15T06:15:56Z</time>
            </trkpt>
            <trkpt lat="46.477120" lon="11.765690">
                <time>2017-07-15T06:15:57Z</time>
            </trkpt>
            <trkpt lat="46.477120" lon="11.765690">
                <time>2017-07-15T06:15:58Z</time>
            </trkpt>
            <trkpt lat="46.477120" lon="11.765690">
                <time>2017-07-15T06:15:59Z</time>
            </trkpt>
            <trkpt lat="46.477120" lon="11.765690">
                <time>2017-07-15T06:16:00Z</time>
            </trkpt>
            <trkpt lat="46.477120" lon="11.765690">
                <time>2017-07-15T06:16:01Z</time>
            </trkpt>
            <trkpt lat="46.477120" lon="11.765690">
                <time>2017-07-15T06:16:02Z</time>
            </trkpt>
            <trkpt lat="46.477120" lon="11.765690">
                <time>2017-07-15T06:16:03Z</time>
            </trkpt>
            <trkpt lat="46.477120" lon="11.765690">
                <time>2017-07-15T06:16:04Z</time>
            </trkpt>
            <trkpt lat="46.477120" lon="11.765690">
                <time>2017-07-15T06:16:05Z</time>
            </trkpt>
            <trkpt lat="46.477120" lon="11.765690">
                <time>2017-07-15T06:16:06Z</time>
            </trkpt>
            <trkpt lat="46.477120" lon="11.765690">
                <time>2017-07-15T06:16:07Z</time>
            </trkpt>
            <trkpt lat="46.477120" lon="11.765690">
                <time>2017-07-15T06:16:08Z</time>
            </trkpt>
            <trkpt lat="46.477120" lon="11.765690">
                <time>2017-07-15T06:16:09Z</time>
            </trkpt>
            <trkpt lat="46.477120" lon="11.765690">
                <time>2017-07-15T06:16:10Z</time>
            </trkpt>
            <trkpt lat="46.477120" lon="11.765690">
                <time>2017-07-15T06:16:11Z</time>
            </trkpt>
            <trkpt lat="46.477120" lon="11.765690">
                <time>2017-07-15T06:16:12Z</time>
            </trkpt>
            <trkpt lat="46.477120" lon="11.765690">
                <time>2017-07-15T06:16:13Z</time>
            </trkpt>
            <trkpt lat="46.477120" lon="11.765690">
                <time>2017-07-15T06:16:14Z</time>
            </trkpt>
            <trkpt lat="46.477120" lon="11.765690">
                <time>2017-07-15T06:16:15Z</time>
            </trkpt>
            <trkpt lat="46.477120" lon="11.765690">
                <time>2017-07-15T06:16:16Z</time>
            </trkpt>
            <trkpt lat="46.477120" lon="11.765690">
                <time>2017-07-15T06:16:17Z</time>
            </trkpt>
            <trkpt lat="46.477120" lon="11.765690">
                <time>2017-07-15T06:16:18Z</time>
            </trkpt>
            <trkpt lat="46.477120" lon="11.765690">
                <time>2017-07-15T06:16:19Z</time>
            </trkpt>
            <trkpt lat="46.477120" lon="11.765690">
                <time>2017-07-15T06:16:20Z</time>
            </trkpt>
            <trkpt lat="46.477120" lon="11.765690">
                <time>2017-07-15T06:16:21Z</time>
            </trkpt>
            <trkpt lat="46.477120" lon="11.765690">
                <time>2017-07-15T06:16:22Z</time>
            </trkpt>
            <trkpt lat="46.477120" lon="11.765690">
                <time>2017-07-15T06:16:23Z</time>
            </trkpt>
            <trkpt lat="46.477120" lon="11.765690">
                <time>2017-07-15T06:16:24Z</time>
            </trkpt>
            <trkpt lat="46.477120" lon="11.765690">
                <time>2017-07-15T06:16:25Z</time>
            </trkpt>
            <trkpt lat="46.477120" lon="11.765690">
                <time>2017-07-15T06:16:26Z</time>
            </trkpt>
            <trkpt lat="46.477120" lon="11.765690">
                <time>2017-07-15T06:16:27Z</time>
            </trkpt>
            <trkpt lat="46.477120" lon="11.765690">
                <time>2017-07-15T06:16:28Z</time>
            </trkpt>
            <trkpt lat="46.477120" lon="11.765690">
                <time>2017-07-15T06:16:29Z</time>
            </trkpt>
            <trkpt lat="46.477120" lon="11.765690">
                <time>2017-07-15T06:16:30Z</time>
            </trkpt>
            <trkpt lat="46.477120" lon="11.765690">
                <time>2017-07-15T06:16:31Z</time>
            </trkpt>
            <trkpt lat="46.477120" lon="11.765690">
                <time>2017-07-15T06:16:32Z</time>
            </trkpt>
            <trkpt lat="46.477120" lon="11.765690">
                <time>2017-07-15T06:16:33Z</time>
            </trkpt>
            <trkpt lat="46.477120" lon="11.765690">
                <time>2017-07-15T06:16:34Z</time>
            </trkpt>
            <trkpt lat="46.477120" lon="11.765690">
                <time>2017-07-15T06:16:35Z</time>
            </trkpt>
            <trkpt lat="46.477120" lon="11.765690">
                <time>2017-07-15T06:16:36Z</time>
            </trkpt>
            <trkpt lat="46.477120" lon="11.765690">
                <time>2017-07-15T06:16:37Z</time>
            </trkpt>
            <trkpt lat="46.477120" lon="11.765690">
                <time>2017-07-15T06:16:38Z</time>
            </trkpt>
            <trkpt lat="46.477120" lon="11.765690">
                <time>2017-07-15T06:16:39Z</time>
            </trkpt>
            <trkpt lat="46.477120" lon="11.765690">
                <time>2017-07-15T06:16:40Z</time>
            </trkpt>
            <trkpt lat="46.477120" lon="11.765690">
                <time>2017-07-15T06:16:41Z</time>
            </trkpt>
            <trkpt lat="46.477120" lon="11.765690">
                <time>2017-07-15T06:16:42Z</time>
            </trkpt>
            <trkpt lat="46.477120" lon="11.765690">
                <time>2017-07-15T06:16:43Z</time>
            </trkpt>
            <trkpt lat="46.477120" lon="11.765690">
                <time>2017-07-15T06:16:44Z</time>
            </trkpt>
            <trkpt lat="46.477120" lon="11.765690">
                <time>2017-07-15T06:16:45Z</time>
            </trkpt>
            <trkpt lat="46.477120" lon="11.765690">
                <time>2017-07-15T06:16:46Z</time>
            </trkpt>
            <trkpt lat="46.477120" lon="11.765690">
                <time>2017-07-15T06:16:47Z</time>
            </trkpt>
            <trkpt lat="46.477120" lon="11.765690">
                <time>2017-07-15T06:16:48Z</time>
            </trkpt>
            <trkpt lat="46.477120" lon="11.765690">
                <time>2017-07-15T06:16:49Z</time>
            </trkpt>
            <trkpt lat="46.477120" lon="11.765690">
                <time>2017-07-15T06:16:50Z</time>
            </trkpt>
            <trkpt lat="46.477120" lon="11.765690">
                <time>2017-07-15T06:16:51Z</time>
            </trkpt>
            <trkpt lat="46.477120" lon="11.765690">
                <time>2017-07-15T06:16:52Z</time>
            </trkpt>
            <trkpt lat="46.477120" lon="11.765690">
                <time>2017-07-15T06:16:53Z</time>
            </trkpt>
            <trkpt lat="46.477120" lon="11.765690">
                <time>2017-07-15T06:16:54Z</time>
            </trkpt>
            <trkpt lat="46.477120" lon="11.765690">
                <time>2017-07-15T06:16:55Z</time>
            </trkpt>
            <trkpt lat="46.477120" lon="11.765690">
                <time>2017-07-15T06:16:56Z</time>
            </trkpt>
            <trkpt lat="46.477120" lon="11.765690">
                <time>2017-07-15T06:16:57Z</time>
            </trkpt>
            <trkpt lat="46.477120" lon="11.765690">
                <time>2017-07-15T06:16:58Z</time>
            </trkpt>
            <trkpt lat="46.477120" lon="11.765690">
                <time>2017-07-15T06:16:59Z</time>
            </trkpt>
            <trkpt lat="46.477120" lon="11.765690">
                <time>2017-07-15T06:17:00Z</time>
            </trkpt>
            <trkpt lat="46.477120" lon="11.765690">
                <time>2017-07-15T06:17:01Z</time>
            </trkpt>
            <trkpt lat="46.477120" lon="11.765690">
                <time>2017-07-15T06:17:02Z</time>
            </trkpt>
            <trkpt lat="46.477120" lon="11.765690">
                <time>2017-07-15T06:17:03Z</time>
            </trkpt>
            <trkpt lat="46.477120" lon="11.765690">
                <time>2017-07-15T06:17:04Z</time>
            </trkpt>
            <trkpt lat="46.477120" lon="11.765690">
                <time>2017-07-15T06:17:05Z</time>
            </trkpt>
            <trkpt lat="46.477120" lon="11.765690">
                <time>2017-07-15T06:17:06Z</time>
            </trkpt>
            <trkpt lat="46.477120" lon="11.765690">
                <time>2017-07-15T06:17:07Z</time>
            </trkpt>
            <trkpt lat="46.477120" lon="11.765690">
                <time>2017-07-15T06:17:08Z</time>
            </trkpt>
            <trkpt lat="46.477120" lon="11.765690">
                <time>2017-07-15T06:17:09Z</time>
            </trkpt>
            <trkpt lat="46.477120" lon="11.765690">
                <time>2017-07-15T06:17:10Z</time>
            </trkpt>
            <trkpt lat="46.477120" lon="11.765690">
                <time>2017-07-15T06:17:11Z</time>
            </trkpt>
            <trkpt lat="46.477120" lon="11.765690">
                <time>2017-07-15T06:17:12Z</time>
            </trkpt>
            <trkpt lat="46.477120" lon="11.765690">
                <time>2017-07-15T06:17:13Z</time>
            </trkpt>
            <trkpt lat="46.477120" lon="11.765690">
                <time>2017-07-15T06:17:14Z</time>
            </trkpt>
            <trkpt lat="46.477120" lon="11.765690">
                <time>2017-07-15T06:17:15Z</time>
            </trkpt>
            <trkpt lat="46.477120" lon="11.765690">
                <time>2017-07-15T06:17:16Z</time>
            </trkpt>
            <trkpt lat="46.477120" lon="11.765690">
                <time>2017-07-15T06:17:17Z</time>
            </trkpt>
            <trkpt lat="46.477120" lon="11.765690">
                <time>2017-07-15T06:17:18Z</time>
            </trkpt>
            <trkpt lat="46.477120" lon="11.765690">
                <time>2017-07-15T06:17:19Z</time>
            </trkpt>
            <trkpt lat="46.477120" lon="11.765690">
                <time>2017-07-15T06:17:20Z</time>
            </trkpt>
            <trkpt lat="46.477120" lon="11.765690">
                <time>2017-07-15T06:17:21Z</time>
            </trkpt>
            <trkpt lat="46.477120" lon="11.765690">
                <time>2017-07-15T06:17:22Z</time>
            </trkpt>
            <trkpt lat="46.477120" lon="11.765690">
                <time>2017-07-15T06:17:23Z</time>
            </trkpt>
            <trkpt lat="46.477120" lon="11.765690">
                <time>2017-07-15T06:17:24Z</time>
            </trkpt>
            <trkpt lat="46.477120" lon="11.765690">
                <time>2017-07-15T06:17:25Z</time>
            </trkpt>
            <trkpt lat="46.477120" lon="11.765690">
                <time>2017-07-15T06:17:26Z</time>
            </trkpt>
            <trkpt lat="46.477120" lon="11.765690">
                <time>2017-07-15T06:17:27Z</time>
            </trkpt>
            <trkpt lat="46.477120" lon="11.765690">
                <time>2017-07-15T06:17:28Z</time>
            </trkpt>
            <trkpt lat="46.477120" lon="11.765690">
                <time>2017-07-15T06:17:29Z</time>
            </trkpt>
            <trkpt lat="46.477120" lon="11.765690">
                <time>2017-07-15T06:17:30Z</time>
            </trkpt>
            <trkpt lat="46.477190" lon="11.765700">
                <time>2017-07-15T06:17:31Z</time>
            </trkpt>
            <trkpt lat="46.477190" lon="11.765700">
                <time>2017-07-15T06:17:32Z</time>
            </trkpt>
            <trkpt lat="46.477190" lon="11.765700">
                <time>2017-07-15T06:17:33Z</time>
            </trkpt>
            <trkpt lat="46.477190" lon="11.765700">
                <time>2017-07-15T06:17:34Z</time>
            </trkpt>
            <trkpt lat="46.477190" lon="11.765700">
                <time>2017-07-15T06:17:35Z</time>
            </trkpt>
            <trkpt lat="46.477190" lon="11.765700">
                <time>2017-07-15T06:17:36Z</time>
            </trkpt>
            <trkpt lat="46.477190" lon="11.765700">
                <time>2017-07-15T06:17:37Z</time>
            </trkpt>
            <trkpt lat="46.477190" lon="11.765700">
                <time>2017-07-15T06:17:38Z</time>
            </trkpt>
            <trkpt lat="46.477190" lon="11.765700">
                <time>2017-07-15T06:17:39Z</time>
            </trkpt>
            <trkpt lat="46.477190" lon="11.765700">
                <time>2017-07-15T06:17:40Z</time>
            </trkpt>
            <trkpt lat="46.477190" lon="11.765700">
                <time>2017-07-15T06:17:41Z</time>
            </trkpt>
            <trkpt lat="46.477190" lon="11.765700">
                <time>2017-07-15T06:17:42Z</time>
            </trkpt>
            <trkpt lat="46.477190" lon="11.765700">
                <time>2017-07-15T06:17:43Z</time>
            </trkpt>
            <trkpt lat="46.477190" lon="11.765700">
                <time>2017-07-15T06:17:44Z</time>
            </trkpt>
            <trkpt lat="46.477190" lon="11.765700">
                <time>2017-07-15T06:17:45Z</time>
            </trkpt>
            <trkpt lat="46.477190" lon="11.765700">
                <time>2017-07-15T06:17:46Z</time>
            </trkpt>
            <trkpt lat="46.477190" lon="11.765700">
                <time>2017-07-15T06:17:47Z</time>
            </trkpt>
            <trkpt lat="46.477190" lon="11.765700">
                <time>2017-07-15T06:17:48Z</time>
            </trkpt>
            <trkpt lat="46.477190" lon="11.765700">
                <time>2017-07-15T06:17:49Z</time>
            </trkpt>
            <trkpt lat="46.477190" lon="11.765700">
                <time>2017-07-15T06:17:50Z</time>
            </trkpt>
            <trkpt lat="46.477190" lon="11.765700">
                <time>2017-07-15T06:17:51Z</time>
            </trkpt>
            <trkpt lat="46.477190" lon="11.765700">
                <time>2017-07-15T06:17:52Z</time>
            </trkpt>
            <trkpt lat="46.477190" lon="11.765700">
                <time>2017-07-15T06:17:53Z</time>
            </trkpt>
            <trkpt lat="46.477190" lon="11.765700">
                <time>2017-07-15T06:17:54Z</time>
            </trkpt>
            <trkpt lat="46.477190" lon="11.765700">
                <time>2017-07-15T06:17:55Z</time>
            </trkpt>
            <trkpt lat="46.477190" lon="11.765700">
                <time>2017-07-15T06:17:56Z</time>
            </trkpt>
            <trkpt lat="46.477190" lon="11.765700">
                <time>2017-07-15T06:17:57Z</time>
            </trkpt>
            <trkpt lat="46.477190" lon="11.765700">
                <time>2017-07-15T06:17:58Z</time>
            </trkpt>
            <trkpt lat="46.477190" lon="11.765700">
                <time>2017-07-15T06:17:59Z</time>
            </trkpt>
            <trkpt lat="46.477190" lon="11.765700">
                <time>2017-07-15T06:18:00Z</time>
            </trkpt>
            <trkpt lat="46.477190" lon="11.765700">
                <time>2017-07-15T06:18:01Z</time>
            </trkpt>
            <trkpt lat="46.477190" lon="11.765700">
                <time>2017-07-15T06:18:02Z</time>
            </trkpt>
            <trkpt lat="46.477190" lon="11.765700">
                <time>2017-07-15T06:18:03Z</time>
            </trkpt>
            <trkpt lat="46.477190" lon="11.765700">
                <time>2017-07-15T06:18:04Z</time>
            </trkpt>
            <trkpt lat="46.477190" lon="11.765700">
                <time>2017-07-15T06:18:05Z</time>
            </trkpt>
            <trkpt lat="46.477190" lon="11.765700">
                <time>2017-07-15T06:18:06Z</time>
            </trkpt>
            <trkpt lat="46.477190" lon="11.765700">
                <time>2017-07-15T06:18:07Z</time>
            </trkpt>
            <trkpt lat="46.477190" lon="11.765700">
                <time>2017-07-15T06:18:08Z</time>
            </trkpt>
            <trkpt lat="46.477190" lon="11.765700">
                <time>2017-07-15T06:18:09Z</time>
            </trkpt>
            <trkpt lat="46.477190" lon="11.765700">
                <time>2017-07-15T06:18:10Z</time>
            </trkpt>
            <trkpt lat="46.477190" lon="11.765700">
                <time>2017-07-15T06:18:11Z</time>
            </trkpt>
            <trkpt lat="46.477190" lon="11.765700">
                <time>2017-07-15T06:18:12Z</time>
            </trkpt>
            <trkpt lat="46.477190" lon="11.765700">
                <time>2017-07-15T06:18:13Z</time>
            </trkpt>
            <trkpt lat="46.477190" lon="11.765700">
                <time>2017-07-15T06:18:14Z</time>
            </trkpt>
            <trkpt lat="46.477190" lon="11.765700">
                <time>2017-07-15T06:18:15Z</time>
            </trkpt>
            <trkpt lat="46.477190" lon="11.765700">
                <time>2017-07-15T06:18:16Z</time>
            </trkpt>
            <trkpt lat="46.477190" lon="11.765700">
                <time>2017-07-15T06:18:17Z</time>
            </trkpt>
            <trkpt lat="46.477190" lon="11.765700">
                <time>2017-07-15T06:18:18Z</time>
            </trkpt>
            <trkpt lat="46.477190" lon="11.765700">
                <time>2017-07-15T06:18:19Z</time>
            </trkpt>
            <trkpt lat="46.477190" lon="11.765700">
                <time>2017-07-15T06:18:20Z</time>
            </trkpt>
            <trkpt lat="46.477190" lon="11.765700">
                <time>2017-07-15T06:18:21Z</time>
            </trkpt>
            <trkpt lat="46.477190" lon="11.765700">
                <time>2017-07-15T06:18:22Z</time>
            </trkpt>
            <trkpt lat="46.477190" lon="11.765700">
                <time>2017-07-15T06:18:23Z</time>
            </trkpt>
            <trkpt lat="46.477190" lon="11.765700">
                <time>2017-07-15T06:18:24Z</time>
            </trkpt>
            <trkpt lat="46.477190" lon="11.765700">
                <time>2017-07-15T06:18:25Z</time>
            </trkpt>
            <trkpt lat="46.477190" lon="11.765700">
                <time>2017-07-15T06:18:26Z</time>
            </trkpt>
            <trkpt lat="46.477190" lon="11.765700">
                <time>2017-07-15T06:18:27Z</time>
            </trkpt>
            <trkpt lat="46.477190" lon="11.765700">
                <time>2017-07-15T06:18:28Z</time>
            </trkpt>
            <trkpt lat="46.477190" lon="11.765700">
                <time>2017-07-15T06:18:29Z</time>
            </trkpt>
            <trkpt lat="46.477190" lon="11.765700">
                <time>2017-07-15T06:18:30Z</time>
            </trkpt>
            <trkpt lat="46.477190" lon="11.765700">
                <time>2017-07-15T06:18:31Z</time>
            </trkpt>
            <trkpt lat="46.477190" lon="11.765700">
                <time>2017-07-15T06:18:32Z</time>
            </trkpt>
            <trkpt lat="46.477190" lon="11.765700">
                <time>2017-07-15T06:18:33Z</time>
            </trkpt>
            <trkpt lat="46.477190" lon="11.765700">
                <time>2017-07-15T06:18:34Z</time>
            </trkpt>
            <trkpt lat="46.477190" lon="11.765700">
                <time>2017-07-15T06:18:35Z</time>
            </trkpt>
            <trkpt lat="46.477190" lon="11.765700">
                <time>2017-07-15T06:18:36Z</time>
            </trkpt>
            <trkpt lat="46.477190" lon="11.765700">
                <time>2017-07-15T06:18:37Z</time>
            </trkpt>
            <trkpt lat="46.477190" lon="11.765700">
                <time>2017-07-15T06:18:38Z</time>
            </trkpt>
            <trkpt lat="46.477190" lon="11.765700">
                <time>2017-07-15T06:18:39Z</time>
            </trkpt>
            <trkpt lat="46.477190" lon="11.765700">
                <time>2017-07-15T06:18:40Z</time>
            </trkpt>
            <trkpt lat="46.477190" lon="11.765700">
                <time>2017-07-15T06:18:41Z</time>
            </trkpt>
            <trkpt lat="46.477190" lon="11.765700">
                <time>2017-07-15T06:18:42Z</time>
            </trkpt>
            <trkpt lat="46.477190" lon="11.765700">
                <time>2017-07-15T06:18:43Z</time>
            </trkpt>
            <trkpt lat="46.477190" lon="11.765700">
                <time>2017-07-15T06:18:44Z</time>
            </trkpt>
            <trkpt lat="46.477190" lon="11.765700">
                <time>2017-07-15T06:18:45Z</time>
            </trkpt>
            <trkpt lat="46.477190" lon="11.765700">
                <time>2017-07-15T06:18:46Z</time>
            </trkpt>
            <trkpt lat="46.477190" lon="11.765700">
                <time>2017-07-15T06:18:47Z</time>
            </trkpt>
            <trkpt lat="46.477190" lon="11.765700">
                <time>2017-07-15T06:18:48Z</time>
            </trkpt>
            <trkpt lat="46.477190" lon="11.765700">
                <time>2017-07-15T06:18:49Z</time>
            </trkpt>
            <trkpt lat="46.477190" lon="11.765700">
                <time>2017-07-15T06:18:50Z</time>
            </trkpt>
            <trkpt lat="46.477190" lon="11.765700">
                <time>2017-07-15T06:18:51Z</time>
            </trkpt>
            <trkpt lat="46.477190" lon="11.765700">
                <time>2017-07-15T06:18:52Z</time>
            </trkpt>
            <trkpt lat="46.477190" lon="11.765700">
                <time>2017-07-15T06:18:53Z</time>
            </trkpt>
            <trkpt lat="46.477190" lon="11.765700">
                <time>2017-07-15T06:18:54Z</time>
            </trkpt>
            <trkpt lat="46.477190" lon="11.765700">
                <time>2017-07-15T06:18:55Z</time>
            </trkpt>
            <trkpt lat="46.477190" lon="11.765700">
                <time>2017-07-15T06:18:56Z</time>
            </trkpt>
            <trkpt lat="46.477190" lon="11.765700">
                <time>2017-07-15T06:18:57Z</time>
            </trkpt>
            <trkpt lat="46.477190" lon="11.765700">
                <time>2017-07-15T06:18:58Z</time>
            </trkpt>
            <trkpt lat="46.477190" lon="11.765700">
                <time>2017-07-15T06:18:59Z</time>
            </trkpt>
            <trkpt lat="46.477190" lon="11.765700">
                <time>2017-07-15T06:19:00Z</time>
            </trkpt>
            <trkpt lat="46.477190" lon="11.765700">
                <time>2017-07-15T06:19:01Z</time>
            </trkpt>
            <trkpt lat="46.477190" lon="11.765700">
                <time>2017-07-15T06:19:02Z</time>
            </trkpt>
            <trkpt lat="46.477190" lon="11.765700">
                <time>2017-07-15T06:19:03Z</time>
            </trkpt>
            <trkpt lat="46.477190" lon="11.765700">
                <time>2017-07-15T06:19:04Z</time>
            </trkpt>
            <trkpt lat="46.477190" lon="11.765700">
                <time>2017-07-15T06:19:05Z</time>
            </trkpt>
            <trkpt lat="46.477190" lon="11.765700">
                <time>2017-07-15T06:19:06Z</time>
            </trkpt>
            <trkpt lat="46.477190" lon="11.765700">
                <time>2017-07-15T06:19:07Z</time>
            </trkpt>
            <trkpt lat="46.477190" lon="11.765700">
                <time>2017-07-15T06:19:08Z</time>
            </trkpt>
            <trkpt lat="46.477190" lon="11.765700">
                <time>2017-07-15T06:19:09Z</time>
            </trkpt>
            <trkpt lat="46.477190" lon="11.765700">
                <time>2017-07-15T06:19:10Z</time>
            </trkpt>
            <trkpt lat="46.477190" lon="11.765700">
                <time>2017-07-15T06:19:11Z</time>
            </trkpt>
            <trkpt lat="46.477190" lon="11.765700">
                <time>2017-07-15T06:19:12Z</time>
            </trkpt>
            <trkpt lat="46.477190" lon="11.765700">
                <time>2017-07-15T06:19:13Z</time>
            </trkpt>
            <trkpt lat="46.477190" lon="11.765700">
                <time>2017-07-15T06:19:14Z</time>
            </trkpt>
            <trkpt lat="46.477190" lon="11.765700">
                <time>2017-07-15T06:19:15Z</time>
            </trkpt>
            <trkpt lat="46.477190" lon="11.765700">
                <time>2017-07-15T06:19:16Z</time>
            </trkpt>
            <trkpt lat="46.477190" lon="11.765700">
                <time>2017-07-15T06:19:17Z</time>
            </trkpt>
            <trkpt lat="46.477190" lon="11.765700">
                <time>2017-07-15T06:19:18Z</time>
            </trkpt>
            <trkpt lat="46.477190" lon="11.765700">
                <time>2017-07-15T06:19:19Z</time>
            </trkpt>
            <trkpt lat="46.477190" lon="11.765700">
                <time>2017-07-15T06:19:20Z</time>
            </trkpt>
            <trkpt lat="46.477190" lon="11.765700">
                <time>2017-07-15T06:19:21Z</time>
            </trkpt>
            <trkpt lat="46.477190" lon="11.765700">
                <time>2017-07-15T06:19:22Z</time>
            </trkpt>
            <trkpt lat="46.477190" lon="11.765700">
                <time>2017-07-15T06:19:23Z</time>
            </trkpt>
            <trkpt lat="46.477190" lon="11.765700">
                <time>2017-07-15T06:19:24Z</time>
            </trkpt>
            <trkpt lat="46.477190" lon="11.765700">
                <time>2017-07-15T06:19:25Z</time>
            </trkpt>
            <trkpt lat="46.477190" lon="11.765700">
                <time>2017-07-15T06:19:26Z</time>
            </trkpt>
            <trkpt lat="46.477190" lon="11.765700">
                <time>2017-07-15T06:19:27Z</time>
            </trkpt>
            <trkpt lat="46.477190" lon="11.765700">
                <time>2017-07-15T06:19:28Z</time>
            </trkpt>
            <trkpt lat="46.477190" lon="11.765700">
                <time>2017-07-15T06:19:29Z</time>
            </trkpt>
            <trkpt lat="46.477190" lon="11.765700">
                <time>2017-07-15T06:19:30Z</time>
            </trkpt>
            <trkpt lat="46.477190" lon="11.765700">
                <time>2017-07-15T06:19:31Z</time>
            </trkpt>
            <trkpt lat="46.477190" lon="11.765700">
                <time>2017-07-15T06:19:32Z</time>
            </trkpt>
            <trkpt lat="46.477190" lon="11.765700">
                <time>2017-07-15T06:19:33Z</time>
            </trkpt>
            <trkpt lat="46.477190" lon="11.765700">
                <time>2017-07-15T06:19:34Z</time>
            </trkpt>
            <trkpt lat="46.477190" lon="11.765700">
                <time>2017-07-15T06:19:35Z</time>
            </trkpt>
            <trkpt lat="46.477190" lon="11.765700">
                <time>2017-07-15T06:19:36Z</time>
            </trkpt>
            <trkpt lat="46.477190" lon="11.765700">
                <time>2017-07-15T06:19:37Z</time>
            </trkpt>
            <trkpt lat="46.477190" lon="11.765700">
                <time>2017-07-15T06:19:38Z</time>
            </trkpt>
            <trkpt lat="46.477190" lon="11.765700">
                <time>2017-07-15T06:19:39Z</time>
            </trkpt>
            <trkpt lat="46.477190" lon="11.765700">
                <time>2017-07-15T06:19:40Z</time>
            </trkpt>
            <trkpt lat="46.477190" lon="11.765700">
                <time>2017-07-15T06:19:41Z</time>
            </trkpt>
            <trkpt lat="46.477190" lon="11.765700">
                <time>2017-07-15T06:19:42Z</time>
            </trkpt>
            <trkpt lat="46.477190" lon="11.765700">
                <time>2017-07-15T06:19:43Z</time>
            </trkpt>
            <trkpt lat="46.477190" lon="11.765700">
                <time>2017-07-15T06:19:44Z</time>
            </trkpt>
            <trkpt lat="46.477190" lon="11.765700">
                <time>2017-07-15T06:19:45Z</time>
            </trkpt>
            <trkpt lat="46.477190" lon="11.765700">
                <time>2017-07-15T06:19:46Z</time>
            </trkpt>
            <trkpt lat="46.477190" lon="11.765700">
                <time>2017-07-15T06:19:47Z</time>
            </trkpt>
            <trkpt lat="46.477190" lon="11.765700">
                <time>2017-07-15T06:19:48Z</time>
            </trkpt>
            <trkpt lat="46.477190" lon="11.765700">
                <time>2017-07-15T06:19:49Z</time>
            </trkpt>
            <trkpt lat="46.477190" lon="11.765700">
                <time>2017-07-15T06:19:50Z</time>
            </trkpt>
            <trkpt lat="46.477190" lon="11.765700">
                <time>2017-07-15T06:19:51Z</time>
            </trkpt>
            <trkpt lat="46.477190" lon="11.765700">
                <time>2017-07-15T06:19:52Z</time>
            </trkpt>
            <trkpt lat="46.477190" lon="11.765700">
                <time>2017-07-15T06:19:53Z</time>
            </trkpt>
            <trkpt lat="46.477190" lon="11.765700">
                <time>2017-07-15T06:19:54Z</time>
            </trkpt>
            <trkpt lat="46.477190" lon="11.765700">
                <time>2017-07-15T06:19:55Z</time>
            </trkpt>
            <trkpt lat="46.477190" lon="11.765700">
                <time>2017-07-15T06:19:56Z</time>
            </trkpt>
            <trkpt lat="46.477190" lon="11.765700">
                <time>2017-07-15T06:19:57Z</time>
            </trkpt>
            <trkpt lat="46.477190" lon="11.765700">
                <time>2017-07-15T06:19:58Z</time>
            </trkpt>
            <trkpt lat="46.477190" lon="11.765700">
                <time>2017-07-15T06:19:59Z</time>
            </trkpt>
            <trkpt lat="46.477190" lon="11.765700">
                <time>2017-07-15T06:20:00Z</time>
            </trkpt>
            <trkpt lat="46.477190" lon="11.765700">
                <time>2017-07-15T06:20:01Z</time>
            </trkpt>
            <trkpt lat="46.477190" lon="11.765700">
                <time>2017-07-15T06:20:02Z</time>
            </trkpt>
            <trkpt lat="46.477190" lon="11.765700">
                <time>2017-07-15T06:20:03Z</time>
            </trkpt>
            <trkpt lat="46.477190" lon="11.765700">
                <time>2017-07-15T06:20:04Z</time>
            </trkpt>
            <trkpt lat="46.477190" lon="11.765700">
                <time>2017-07-15T06:20:05Z</time>
            </trkpt>
            <trkpt lat="46.477190" lon="11.765700">
                <time>2017-07-15T06:20:06Z</time>
            </trkpt>
            <trkpt lat="46.477190" lon="11.765700">
                <time>2017-07-15T06:20:07Z</time>
            </trkpt>
            <trkpt lat="46.477190" lon="11.765700">
                <time>2017-07-15T06:20:08Z</time>
            </trkpt>
            <trkpt lat="46.477190" lon="11.765700">
                <time>2017-07-15T06:20:09Z</time>
            </trkpt>
            <trkpt lat="46.477190" lon="11.765700">
                <time>2017-07-15T06:20:10Z</time>
            </trkpt>
            <trkpt lat="46.477190" lon="11.765700">
                <time>2017-07-15T06:20:11Z</time>
            </trkpt>
            <trkpt lat="46.477190" lon="11.765700">
                <time>2017-07-15T06:20:12Z</time>
            </trkpt>
            <trkpt lat="46.477190" lon="11.765700">
                <time>2017-07-15T06:20:13Z</time>
            </trkpt>
            <trkpt lat="46.477190" lon="11.765700">
                <time>2017-07-15T06:20:14Z</time>
            </trkpt>
            <trkpt lat="46.477190" lon="11.765700">
                <time>2017-07-15T06:20:15Z</time>
            </trkpt>
            <trkpt lat="46.477190" lon="11.765700">
                <time>2017-07-15T06:20:16Z</time>
            </trkpt>
            <trkpt lat="46.477190" lon="11.765700">
                <time>2017-07-15T06:20:17Z</time>
            </trkpt>
            <trkpt lat="46.477190" lon="11.765700">
                <time>2017-07-15T06:20:18Z</time>
            </trkpt>
            <trkpt lat="46.477190" lon="11.765700">
                <time>2017-07-15T06:20:19Z</time>
            </trkpt>
            <trkpt lat="46.477190" lon="11.765700">
                <time>2017-07-15T06:20:20Z</time>
            </trkpt>
            <trkpt lat="46.477190" lon="11.765700">
                <time>2017-07-15T06:20:21Z</time>
            </trkpt>
            <trkpt lat="46.477190" lon="11.765700">
                <time>2017-07-15T06:20:22Z</time>
            </trkpt>
            <trkpt lat="46.477190" lon="11.765700">
                <time>2017-07-15T06:20:23Z</time>
            </trkpt>
            <trkpt lat="46.477190" lon="11.765700">
                <time>2017-07-15T06:20:24Z</time>
            </trkpt>
            <trkpt lat="46.477190" lon="11.765700">
                <time>2017-07-15T06:20:25Z</time>
            </trkpt>
            <trkpt lat="46.477190" lon="11.765700">
                <time>2017-07-15T06:20:26Z</time>
            </trkpt>
            <trkpt lat="46.477190" lon="11.765700">
                <time>2017-07-15T06:20:27Z</time>
            </trkpt>
            <trkpt lat="46.477190" lon="11.765700">
                <time>2017-07-15T06:20:28Z</time>
            </trkpt>
            <trkpt lat="46.477190" lon="11.765700">
                <time>2017-07-15T06:20:29Z</time>
            </trkpt>
            <trkpt lat="46.477190" lon="11.765700">
                <time>2017-07-15T06:20:30Z</time>
            </trkpt>
            <trkpt lat="46.477190" lon="11.765700">
                <time>2017-07-15T06:20:31Z</time>
            </trkpt>
            <trkpt lat="46.477190" lon="11.765700">
                <time>2017-07-15T06:20:32Z</time>
            </trkpt>
            <trkpt lat="46.477190" lon="11.765700">
                <time>2017-07-15T06:20:33Z</time>
            </trkpt>
            <trkpt lat="46.477190" lon="11.765700">
                <time>2017-07-15T06:20:34Z</time>
            </trkpt>
            <trkpt lat="46.477190" lon="11.765700">
                <time>2017-07-15T06:20:35Z</time>
            </trkpt>
            <trkpt lat="46.477190" lon="11.765700">
                <time>2017-07-15T06:20:36Z</time>
            </trkpt>
            <trkpt lat="46.477190" lon="11.765700">
                <time>2017-07-15T06:20:37Z</time>
            </trkpt>
            <trkpt lat="46.477190" lon="11.765700">
                <time>2017-07-15T06:20:38Z</time>
            </trkpt>
            <trkpt lat="46.477190" lon="11.765700">
                <time>2017-07-15T06:20:39Z</time>
            </trkpt>
            <trkpt lat="46.477190" lon="11.765700">
                <time>2017-07-15T06:20:40Z</time>
            </trkpt>
            <trkpt lat="46.477190" lon="11.765700">
                <time>2017-07-15T06:20:41Z</time>
            </trkpt>
            <trkpt lat="46.477190" lon="11.765700">
                <time>2017-07-15T06:20:42Z</time>
            </trkpt>
            <trkpt lat="46.477190" lon="11.765700">
                <time>2017-07-15T06:20:43Z</time>
            </trkpt>
            <trkpt lat="46.477190" lon="11.765700">
                <time>2017-07-15T06:20:44Z</time>
            </trkpt>
            <trkpt lat="46.477190" lon="11.765700">
                <time>2017-07-15T06:20:45Z</time>
            </trkpt>
            <trkpt lat="46.477190" lon="11.765700">
                <time>2017-07-15T06:20:46Z</time>
            </trkpt>
            <trkpt lat="46.477190" lon="11.765700">
                <time>2017-07-15T06:20:47Z</time>
            </trkpt>
            <trkpt lat="46.477190" lon="11.765700">
                <time>2017-07-15T06:20:48Z</time>
            </trkpt>
            <trkpt lat="46.477190" lon="11.765700">
                <time>2017-07-15T06:20:49Z</time>
            </trkpt>
            <trkpt lat="46.477190" lon="11.765700">
                <time>2017-07-15T06:20:50Z</time>
            </trkpt>
            <trkpt lat="46.477190" lon="11.765700">
                <time>2017-07-15T06:20:51Z</time>
            </trkpt>
            <trkpt lat="46.477190" lon="11.765700">
                <time>2017-07-15T06:20:52Z</time>
            </trkpt>
            <trkpt lat="46.477190" lon="11.765700">
                <time>2017-07-15T06:20:53Z</time>
            </trkpt>
            <trkpt lat="46.477190" lon="11.765700">
                <time>2017-07-15T06:20:54Z</time>
            </trkpt>
            <trkpt lat="46.477190" lon="11.765700">
                <time>2017-07-15T06:20:55Z</time>
            </trkpt>
            <trkpt lat="46.477190" lon="11.765700">
                <time>2017-07-15T06:20:56Z</time>
            </trkpt>
            <trkpt lat="46.477190" lon="11.765700">
                <time>2017-07-15T06:20:57Z</time>
            </trkpt>
            <trkpt lat="46.477190" lon="11.765700">
                <time>2017-07-15T06:20:58Z</time>
            </trkpt>
            <trkpt lat="46.477190" lon="11.765700">
                <time>2017-07-15T06:20:59Z</time>
            </trkpt>
            <trkpt lat="46.477190" lon="11.765700">
                <time>2017-07-15T06:21:00Z</time>
            </trkpt>
            <trkpt lat="46.477190" lon="11.765700">
                <time>2017-07-15T06:21:01Z</time>
            </trkpt>
            <trkpt lat="46.477190" lon="11.765700">
                <time>2017-07-15T06:21:02Z</time>
            </trkpt>
            <trkpt lat="46.477190" lon="11.765700">
                <time>2017-07-15T06:21:03Z</time>
            </trkpt>
            <trkpt lat="46.477190" lon="11.765700">
                <time>2017-07-15T06:21:04Z</time>
            </trkpt>
            <trkpt lat="46.477190" lon="11.765700">
                <time>2017-07-15T06:21:05Z</time>
            </trkpt>
            <trkpt lat="46.477190" lon="11.765700">
                <time>2017-07-15T06:21:06Z</time>
            </trkpt>
            <trkpt lat="46.477190" lon="11.765700">
                <time>2017-07-15T06:21:07Z</time>
            </trkpt>
            <trkpt lat="46.477190" lon="11.765700">
                <time>2017-07-15T06:21:08Z</time>
            </trkpt>
            <trkpt lat="46.477190" lon="11.765700">
                <time>2017-07-15T06:21:09Z</time>
            </trkpt>
            <trkpt lat="46.477190" lon="11.765700">
                <time>2017-07-15T06:21:10Z</time>
            </trkpt>
            <trkpt lat="46.477190" lon="11.765700">
                <time>2017-07-15T06:21:11Z</time>
            </trkpt>
            <trkpt lat="46.477190" lon="11.765700">
                <time>2017-07-15T06:21:12Z</time>
            </trkpt>
            <trkpt lat="46.477190" lon="11.765700">
                <time>2017-07-15T06:21:13Z</time>
            </trkpt>
            <trkpt lat="46.477190" lon="11.765700">
                <time>2017-07-15T06:21:14Z</time>
            </trkpt>
            <trkpt lat="46.477190" lon="11.765700">
                <time>2017-07-15T06:21:15Z</time>
            </trkpt>
            <trkpt lat="46.477190" lon="11.765700">
                <time>2017-07-15T06:21:16Z</time>
            </trkpt>
            <trkpt lat="46.477190" lon="11.765700">
                <time>2017-07-15T06:21:17Z</time>
            </trkpt>
            <trkpt lat="46.477190" lon="11.765700">
                <time>2017-07-15T06:21:18Z</time>
            </trkpt>
            <trkpt lat="46.477190" lon="11.765700">
                <time>2017-07-15T06:21:19Z</time>
            </trkpt>
            <trkpt lat="46.477190" lon="11.765700">
                <time>2017-07-15T06:21:20Z</time>
            </trkpt>
            <trkpt lat="46.477190" lon="11.765700">
                <time>2017-07-15T06:21:21Z</time>
            </trkpt>
            <trkpt lat="46.477190" lon="11.765700">
                <time>2017-07-15T06:21:22Z</time>
            </trkpt>
            <trkpt lat="46.477190" lon="11.765700">
                <time>2017-07-15T06:21:23Z</time>
            </trkpt>
            <trkpt lat="46.477190" lon="11.765700">
                <time>2017-07-15T06:21:24Z</time>
            </trkpt>
            <trkpt lat="46.477190" lon="11.765700">
                <time>2017-07-15T06:21:25Z</time>
            </trkpt>
            <trkpt lat="46.477190" lon="11.765700">
                <time>2017-07-15T06:21:26Z</time>
            </trkpt>
            <trkpt lat="46.477190" lon="11.765700">
                <time>2017-07-15T06:21:27Z</time>
            </trkpt>
            <trkpt lat="46.477190" lon="11.765700">
                <time>2017-07-15T06:21:28Z</time>
            </trkpt>
            <trkpt lat="46.477190" lon="11.765700">
                <time>2017-07-15T06:21:29Z</time>
            </trkpt>
            <trkpt lat="46.477190" lon="11.765700">
                <time>2017-07-15T06:21:30Z</time>
            </trkpt>
            <trkpt lat="46.477190" lon="11.765700">
                <time>2017-07-15T06:21:31Z</time>
            </trkpt>
            <trkpt lat="46.477190" lon="11.765700">
                <time>2017-07-15T06:21:32Z</time>
            </trkpt>
            <trkpt lat="46.477190" lon="11.765700">
                <time>2017-07-15T06:21:33Z</time>
            </trkpt>
            <trkpt lat="46.477190" lon="11.765700">
                <time>2017-07-15T06:21:34Z</time>
            </trkpt>
            <trkpt lat="46.477190" lon="11.765700">
                <time>2017-07-15T06:21:35Z</time>
            </trkpt>
            <trkpt lat="46.477190" lon="11.765700">
                <time>2017-07-15T06:21:36Z</time>
            </trkpt>
            <trkpt lat="46.477190" lon="11.765700">
                <time>2017-07-15T06:21:37Z</time>
            </trkpt>
            <trkpt lat="46.477190" lon="11.765700">
                <time>2017-07-15T06:21:38Z</time>
            </trkpt>
            <trkpt lat="46.477190" lon="11.765700">
                <time>2017-07-15T06:21:39Z</time>
            </trkpt>
            <trkpt lat="46.477190" lon="11.765700">
                <time>2017-07-15T06:21:40Z</time>
            </trkpt>
            <trkpt lat="46.477190" lon="11.765700">
                <time>2017-07-15T06:21:41Z</time>
            </trkpt>
            <trkpt lat="46.477190" lon="11.765700">
                <time>2017-07-15T06:21:42Z</time>
            </trkpt>
            <trkpt lat="46.477190" lon="11.765700">
                <time>2017-07-15T06:21:43Z</time>
            </trkpt>
            <trkpt lat="46.477190" lon="11.765700">
                <time>2017-07-15T06:21:44Z</time>
            </trkpt>
            <trkpt lat="46.477190" lon="11.765700">
                <time>2017-07-15T06:21:45Z</time>
            </trkpt>
            <trkpt lat="46.477190" lon="11.765700">
                <time>2017-07-15T06:21:46Z</time>
            </trkpt>
            <trkpt lat="46.477190" lon="11.765700">
                <time>2017-07-15T06:21:47Z</time>
            </trkpt>
            <trkpt lat="46.477190" lon="11.765700">
                <time>2017-07-15T06:21:48Z</time>
            </trkpt>
            <trkpt lat="46.477190" lon="11.765700">
                <time>2017-07-15T06:21:49Z</time>
            </trkpt>
            <trkpt lat="46.477190" lon="11.765700">
                <time>2017-07-15T06:21:50Z</time>
            </trkpt>
            <trkpt lat="46.477190" lon="11.765700">
                <time>2017-07-15T06:21:51Z</time>
            </trkpt>
            <trkpt lat="46.477190" lon="11.765700">
                <time>2017-07-15T06:21:52Z</time>
            </trkpt>
            <trkpt lat="46.477190" lon="11.765700">
                <time>2017-07-15T06:21:53Z</time>
            </trkpt>
            <trkpt lat="46.477190" lon="11.765700">
                <time>2017-07-15T06:21:54Z</time>
            </trkpt>
            <trkpt lat="46.477190" lon="11.765700">
                <time>2017-07-15T06:21:55Z</time>
            </trkpt>
            <trkpt lat="46.477190" lon="11.765700">
                <time>2017-07-15T06:21:56Z</time>
            </trkpt>
            <trkpt lat="46.477190" lon="11.765700">
                <time>2017-07-15T06:21:57Z</time>
            </trkpt>
            <trkpt lat="46.477190" lon="11.765700">
                <time>2017-07-15T06:21:58Z</time>
            </trkpt>
            <trkpt lat="46.477190" lon="11.765700">
                <time>2017-07-15T06:21:59Z</time>
            </trkpt>
            <trkpt lat="46.477190" lon="11.765700">
                <time>2017-07-15T06:22:00Z</time>
            </trkpt>
            <trkpt lat="46.477190" lon="11.765700">
                <time>2017-07-15T06:22:01Z</time>
            </trkpt>
            <trkpt lat="46.477190" lon="11.765700">
                <time>2017-07-15T06:22:02Z</time>
            </trkpt>
            <trkpt lat="46.477190" lon="11.765700">
                <time>2017-07-15T06:22:03Z</time>
            </trkpt>
            <trkpt lat="46.477190" lon="11.765700">
                <time>2017-07-15T06:22:04Z</time>
            </trkpt>
            <trkpt lat="46.477190" lon="11.765700">
                <time>2017-07-15T06:22:05Z</time>
            </trkpt>
            <trkpt lat="46.477190" lon="11.765700">
                <time>2017-07-15T06:22:06Z</time>
            </trkpt>
            <trkpt lat="46.477190" lon="11.765700">
                <time>2017-07-15T06:22:07Z</time>
            </trkpt>
            <trkpt lat="46.477190" lon="11.765700">
                <time>2017-07-15T06:22:08Z</time>
            </trkpt>
            <trkpt lat="46.477190" lon="11.765700">
                <time>2017-07-15T06:22:09Z</time>
            </trkpt>
            <trkpt lat="46.477190" lon="11.765700">
                <time>2017-07-15T06:22:10Z</time>
            </trkpt>
            <trkpt lat="46.477190" lon="11.765700">
                <time>2017-07-15T06:22:11Z</time>
            </trkpt>
            <trkpt lat="46.477190" lon="11.765700">
                <time>2017-07-15T06:22:12Z</time>
            </trkpt>
            <trkpt lat="46.477190" lon="11.765700">
                <time>2017-07-15T06:22:13Z</time>
            </trkpt>
            <trkpt lat="46.477190" lon="11.765700">
                <time>2017-07-15T06:22:14Z</time>
            </trkpt>
            <trkpt lat="46.477190" lon="11.765700">
                <time>2017-07-15T06:22:15Z</time>
            </trkpt>
            <trkpt lat="46.477190" lon="11.765700">
                <time>2017-07-15T06:22:16Z</time>
            </trkpt>
            <trkpt lat="46.477190" lon="11.765700">
                <time>2017-07-15T06:22:17Z</time>
            </trkpt>
            <trkpt lat="46.477190" lon="11.765700">
                <time>2017-07-15T06:22:18Z</time>
            </trkpt>
            <trkpt lat="46.477190" lon="11.765700">
                <time>2017-07-15T06:22:19Z</time>
            </trkpt>
            <trkpt lat="46.477190" lon="11.765700">
                <time>2017-07-15T06:22:20Z</time>
            </trkpt>
            <trkpt lat="46.477190" lon="11.765700">
                <time>2017-07-15T06:22:21Z</time>
            </trkpt>
            <trkpt lat="46.477190" lon="11.765700">
                <time>2017-07-15T06:22:22Z</time>
            </trkpt>
            <trkpt lat="46.477190" lon="11.765700">
                <time>2017-07-15T06:22:23Z</time>
            </trkpt>
            <trkpt lat="46.477190" lon="11.765700">
                <time>2017-07-15T06:22:24Z</time>
            </trkpt>
            <trkpt lat="46.477190" lon="11.765700">
                <time>2017-07-15T06:22:25Z</time>
            </trkpt>
            <trkpt lat="46.477190" lon="11.765700">
                <time>2017-07-15T06:22:26Z</time>
            </trkpt>
            <trkpt lat="46.477190" lon="11.765700">
                <time>2017-07-15T06:22:27Z</time>
            </trkpt>
            <trkpt lat="46.477190" lon="11.765700">
                <time>2017-07-15T06:22:28Z</time>
            </trkpt>
            <trkpt lat="46.477190" lon="11.765700">
                <time>2017-07-15T06:22:29Z</time>
            </trkpt>
            <trkpt lat="46.477190" lon="11.765700">
                <time>2017-07-15T06:22:30Z</time>
            </trkpt>
            <trkpt lat="46.477190" lon="11.765700">
                <time>2017-07-15T06:22:31Z</time>
            </trkpt>
            <trkpt lat="46.477190" lon="11.765700">
                <time>2017-07-15T06:22:32Z</time>
            </trkpt>
            <trkpt lat="46.477190" lon="11.765700">
                <time>2017-07-15T06:22:33Z</time>
            </trkpt>
            <trkpt lat="46.477190" lon="11.765700">
                <time>2017-07-15T06:22:34Z</time>
            </trkpt>
            <trkpt lat="46.477190" lon="11.765700">
                <time>2017-07-15T06:22:35Z</time>
            </trkpt>
            <trkpt lat="46.477190" lon="11.765700">
                <time>2017-07-15T06:22:36Z</time>
            </trkpt>
            <trkpt lat="46.477190" lon="11.765700">
                <time>2017-07-15T06:22:37Z</time>
            </trkpt>
            <trkpt lat="46.477190" lon="11.765700">
                <time>2017-07-15T06:22:38Z</time>
            </trkpt>
            <trkpt lat="46.477190" lon="11.765700">
                <time>2017-07-15T06:22:39Z</time>
            </trkpt>
            <trkpt lat="46.477190" lon="11.765700">
                <time>2017-07-15T06:22:40Z</time>
            </trkpt>
            <trkpt lat="46.477190" lon="11.765700">
                <time>2017-07-15T06:22:41Z</time>
            </trkpt>
            <trkpt lat="46.477190" lon="11.765700">
                <time>2017-07-15T06:22:42Z</time>
            </trkpt>
            <trkpt lat="46.477190" lon="11.765700">
                <time>2017-07-15T06:22:43Z</time>
            </trkpt>
            <trkpt lat="46.477190" lon="11.765700">
                <time>2017-07-15T06:22:44Z</time>
            </trkpt>
            <trkpt lat="46.477190" lon="11.765700">
                <time>2017-07-15T06:22:45Z</time>
            </trkpt>
            <trkpt lat="46.477190" lon="11.765700">
                <time>2017-07-15T06:22:46Z</time>
            </trkpt>
            <trkpt lat="46.477190" lon="11.765700">
                <time>2017-07-15T06:22:47Z</time>
            </trkpt>
            <trkpt lat="46.477190" lon="11.765700">
                <time>2017-07-15T06:22:48Z</time>
            </trkpt>
            <trkpt lat="46.477190" lon="11.765700">
                <time>2017-07-15T06:22:49Z</time>
            </trkpt>
            <trkpt lat="46.477190" lon="11.765700">
                <time>2017-07-15T06:22:50Z</time>
            </trkpt>
            <trkpt lat="46.477190" lon="11.765700">
                <time>2017-07-15T06:22:51Z</time>
            </trkpt>
            <trkpt lat="46.477190" lon="11.765700">
                <time>2017-07-15T06:22:52Z</time>
            </trkpt>
            <trkpt lat="46.477190" lon="11.765700">
                <time>2017-07-15T06:22:53Z</time>
            </trkpt>
            <trkpt lat="46.477190" lon="11.765700">
                <time>2017-07-15T06:22:54Z</time>
            </trkpt>
            <trkpt lat="46.477190" lon="11.765700">
                <time>2017-07-15T06:22:55Z</time>
            </trkpt>
            <trkpt lat="46.477190" lon="11.765700">
                <time>2017-07-15T06:22:56Z</time>
            </trkpt>
            <trkpt lat="46.477190" lon="11.765700">
                <time>2017-07-15T06:22:57Z</time>
            </trkpt>
            <trkpt lat="46.477190" lon="11.765700">
                <time>2017-07-15T06:22:58Z</time>
            </trkpt>
            <trkpt lat="46.477190" lon="11.765700">
                <time>2017-07-15T06:22:59Z</time>
            </trkpt>
            <trkpt lat="46.477190" lon="11.765700">
                <time>2017-07-15T06:23:00Z</time>
            </trkpt>
            <trkpt lat="46.477190" lon="11.765700">
                <time>2017-07-15T06:23:01Z</time>
            </trkpt>
            <trkpt lat="46.477190" lon="11.765700">
                <time>2017-07-15T06:23:02Z</time>
            </trkpt>
            <trkpt lat="46.477190" lon="11.765700">
                <time>2017-07-15T06:23:03Z</time>
            </trkpt>
            <trkpt lat="46.477190" lon="11.765700">
                <time>2017-07-15T06:23:04Z</time>
            </trkpt>
            <trkpt lat="46.477190" lon="11.765700">
                <time>2017-07-15T06:23:05Z</time>
            </trkpt>
            <trkpt lat="46.477190" lon="11.765700">
                <time>2017-07-15T06:23:06Z</time>
            </trkpt>
            <trkpt lat="46.477190" lon="11.765700">
                <time>2017-07-15T06:23:07Z</time>
            </trkpt>
            <trkpt lat="46.477190" lon="11.765700">
                <time>2017-07-15T06:23:08Z</time>
            </trkpt>
            <trkpt lat="46.477190" lon="11.765700">
                <time>2017-07-15T06:23:09Z</time>
            </trkpt>
            <trkpt lat="46.477190" lon="11.765700">
                <time>2017-07-15T06:23:10Z</time>
            </trkpt>
            <trkpt lat="46.477190" lon="11.765700">
                <time>2017-07-15T06:23:11Z</time>
            </trkpt>
            <trkpt lat="46.477190" lon="11.765700">
                <time>2017-07-15T06:23:12Z</time>
            </trkpt>
            <trkpt lat="46.477190" lon="11.765700">
                <time>2017-07-15T06:23:13Z</time>
            </trkpt>
            <trkpt lat="46.477190" lon="11.765700">
                <time>2017-07-15T06:23:14Z</time>
            </trkpt>
            <trkpt lat="46.477190" lon="11.765700">
                <time>2017-07-15T06:23:15Z</time>
            </trkpt>
            <trkpt lat="46.477190" lon="11.765700">
                <time>2017-07-15T06:23:16Z</time>
            </trkpt>
            <trkpt lat="46.477190" lon="11.765700">
                <time>2017-07-15T06:23:17Z</time>
            </trkpt>
            <trkpt lat="46.477190" lon="11.765700">
                <time>2017-07-15T06:23:18Z</time>
            </trkpt>
            <trkpt lat="46.477190" lon="11.765700">
                <time>2017-07-15T06:23:19Z</time>
            </trkpt>
            <trkpt lat="46.477190" lon="11.765700">
                <time>2017-07-15T06:23:20Z</time>
            </trkpt>
            <trkpt lat="46.477190" lon="11.765700">
                <time>2017-07-15T06:23:21Z</time>
            </trkpt>
            <trkpt lat="46.477190" lon="11.765700">
                <time>2017-07-15T06:23:22Z</time>
            </trkpt>
            <trkpt lat="46.477190" lon="11.765700">
                <time>2017-07-15T06:23:23Z</time>
            </trkpt>
            <trkpt lat="46.477190" lon="11.765700">
                <time>2017-07-15T06:23:24Z</time>
            </trkpt>
            <trkpt lat="46.477190" lon="11.765700">
                <time>2017-07-15T06:23:25Z</time>
            </trkpt>
            <trkpt lat="46.477190" lon="11.765700">
                <time>2017-07-15T06:23:26Z</time>
            </trkpt>
            <trkpt lat="46.477190" lon="11.765700">
                <time>2017-07-15T06:23:27Z</time>
            </trkpt>
            <trkpt lat="46.477190" lon="11.765700">
                <time>2017-07-15T06:23:28Z</time>
            </trkpt>
            <trkpt lat="46.477190" lon="11.765700">
                <time>2017-07-15T06:23:29Z</time>
            </trkpt>
            <trkpt lat="46.477190" lon="11.765700">
                <time>2017-07-15T06:23:30Z</time>
            </trkpt>
            <trkpt lat="46.477190" lon="11.765700">
                <time>2017-07-15T06:23:31Z</time>
            </trkpt>
            <trkpt lat="46.477190" lon="11.765700">
                <time>2017-07-15T06:23:32Z</time>
            </trkpt>
            <trkpt lat="46.477190" lon="11.765700">
                <time>2017-07-15T06:23:33Z</time>
            </trkpt>
            <trkpt lat="46.477190" lon="11.765700">
                <time>2017-07-15T06:23:34Z</time>
            </trkpt>
            <trkpt lat="46.477190" lon="11.765700">
                <time>2017-07-15T06:23:35Z</time>
            </trkpt>
            <trkpt lat="46.477190" lon="11.765700">
                <time>2017-07-15T06:23:36Z</time>
            </trkpt>
            <trkpt lat="46.477190" lon="11.765700">
                <time>2017-07-15T06:23:37Z</time>
            </trkpt>
            <trkpt lat="46.477190" lon="11.765700">
                <time>2017-07-15T06:23:38Z</time>
            </trkpt>
            <trkpt lat="46.477190" lon="11.765700">
                <time>2017-07-15T06:23:39Z</time>
            </trkpt>
            <trkpt lat="46.477190" lon="11.765700">
                <time>2017-07-15T06:23:40Z</time>
            </trkpt>
            <trkpt lat="46.477190" lon="11.765700">
                <time>2017-07-15T06:23:41Z</time>
            </trkpt>
            <trkpt lat="46.477190" lon="11.765700">
                <time>2017-07-15T06:23:42Z</time>
            </trkpt>
            <trkpt lat="46.477190" lon="11.765700">
                <time>2017-07-15T06:23:43Z</time>
            </trkpt>
            <trkpt lat="46.477190" lon="11.765700">
                <time>2017-07-15T06:23:44Z</time>
            </trkpt>
            <trkpt lat="46.477190" lon="11.765700">
                <time>2017-07-15T06:23:45Z</time>
            </trkpt>
            <trkpt lat="46.477190" lon="11.765700">
                <time>2017-07-15T06:23:46Z</time>
            </trkpt>
            <trkpt lat="46.477190" lon="11.765700">
                <time>2017-07-15T06:23:47Z</time>
            </trkpt>
            <trkpt lat="46.477190" lon="11.765700">
                <time>2017-07-15T06:23:48Z</time>
            </trkpt>
            <trkpt lat="46.477190" lon="11.765700">
                <time>2017-07-15T06:23:49Z</time>
            </trkpt>
            <trkpt lat="46.477190" lon="11.765700">
                <time>2017-07-15T06:23:50Z</time>
            </trkpt>
            <trkpt lat="46.477190" lon="11.765700">
                <time>2017-07-15T06:23:51Z</time>
            </trkpt>
            <trkpt lat="46.477190" lon="11.765700">
                <time>2017-07-15T06:23:52Z</time>
            </trkpt>
            <trkpt lat="46.477190" lon="11.765700">
                <time>2017-07-15T06:23:53Z</time>
            </trkpt>
            <trkpt lat="46.477190" lon="11.765700">
                <time>2017-07-15T06:23:54Z</time>
            </trkpt>
            <trkpt lat="46.477190" lon="11.765700">
                <time>2017-07-15T06:23:55Z</time>
            </trkpt>
            <trkpt lat="46.477190" lon="11.765700">
                <time>2017-07-15T06:23:56Z</time>
            </trkpt>
            <trkpt lat="46.477190" lon="11.765700">
                <time>2017-07-15T06:23:57Z</time>
            </trkpt>
            <trkpt lat="46.477190" lon="11.765700">
                <time>2017-07-15T06:23:58Z</time>
            </trkpt>
            <trkpt lat="46.477190" lon="11.765700">
                <time>2017-07-15T06:23:59Z</time>
            </trkpt>
            <trkpt lat="46.477190" lon="11.765700">
                <time>2017-07-15T06:24:00Z</time>
            </trkpt>
            <trkpt lat="46.477190" lon="11.765700">
                <time>2017-07-15T06:24:01Z</time>
            </trkpt>
            <trkpt lat="46.477190" lon="11.765700">
                <time>2017-07-15T06:24:02Z</time>
            </trkpt>
            <trkpt lat="46.477190" lon="11.765700">
                <time>2017-07-15T06:24:03Z</time>
            </trkpt>
            <trkpt lat="46.477190" lon="11.765700">
                <time>2017-07-15T06:24:04Z</time>
            </trkpt>
            <trkpt lat="46.477190" lon="11.765700">
                <time>2017-07-15T06:24:05Z</time>
            </trkpt>
            <trkpt lat="46.477190" lon="11.765700">
                <time>2017-07-15T06:24:06Z</time>
            </trkpt>
            <trkpt lat="46.477190" lon="11.765700">
                <time>2017-07-15T06:24:07Z</time>
            </trkpt>
            <trkpt lat="46.477190" lon="11.765700">
                <time>2017-07-15T06:24:08Z</time>
            </trkpt>
            <trkpt lat="46.477190" lon="11.765700">
                <time>2017-07-15T06:24:09Z</time>
            </trkpt>
            <trkpt lat="46.477190" lon="11.765700">
                <time>2017-07-15T06:24:10Z</time>
            </trkpt>
            <trkpt lat="46.477190" lon="11.765700">
                <time>2017-07-15T06:24:11Z</time>
            </trkpt>
            <trkpt lat="46.477190" lon="11.765700">
                <time>2017-07-15T06:24:12Z</time>
            </trkpt>
            <trkpt lat="46.477190" lon="11.765700">
                <time>2017-07-15T06:24:13Z</time>
            </trkpt>
            <trkpt lat="46.477190" lon="11.765700">
                <time>2017-07-15T06:24:14Z</time>
            </trkpt>
            <trkpt lat="46.477190" lon="11.765700">
                <time>2017-07-15T06:24:15Z</time>
            </trkpt>
            <trkpt lat="46.477190" lon="11.765700">
                <time>2017-07-15T06:24:16Z</time>
            </trkpt>
            <trkpt lat="46.477190" lon="11.765700">
                <time>2017-07-15T06:24:17Z</time>
            </trkpt>
            <trkpt lat="46.477190" lon="11.765700">
                <time>2017-07-15T06:24:18Z</time>
            </trkpt>
            <trkpt lat="46.477190" lon="11.765700">
                <time>2017-07-15T06:24:19Z</time>
            </trkpt>
            <trkpt lat="46.477190" lon="11.765700">
                <time>2017-07-15T06:24:20Z</time>
            </trkpt>
            <trkpt lat="46.477190" lon="11.765700">
                <time>2017-07-15T06:24:21Z</time>
            </trkpt>
            <trkpt lat="46.477190" lon="11.765700">
                <time>2017-07-15T06:24:22Z</time>
            </trkpt>
            <trkpt lat="46.477190" lon="11.765700">
                <time>2017-07-15T06:24:23Z</time>
            </trkpt>
            <trkpt lat="46.477190" lon="11.765700">
                <time>2017-07-15T06:24:24Z</time>
            </trkpt>
            <trkpt lat="46.477190" lon="11.765700">
                <time>2017-07-15T06:24:25Z</time>
            </trkpt>
            <trkpt lat="46.477190" lon="11.765700">
                <time>2017-07-15T06:24:26Z</time>
            </trkpt>
            <trkpt lat="46.477190" lon="11.765700">
                <time>2017-07-15T06:24:27Z</time>
            </trkpt>
            <trkpt lat="46.477190" lon="11.765700">
                <time>2017-07-15T06:24:28Z</time>
            </trkpt>
            <trkpt lat="46.477190" lon="11.765700">
                <time>2017-07-15T06:24:29Z</time>
            </trkpt>
            <trkpt lat="46.477190" lon="11.765700">
                <time>2017-07-15T06:24:30Z</time>
            </trkpt>
            <trkpt lat="46.477190" lon="11.765700">
                <time>2017-07-15T06:24:31Z</time>
            </trkpt>
            <trkpt lat="46.477190" lon="11.765700">
                <time>2017-07-15T06:24:32Z</time>
            </trkpt>
            <trkpt lat="46.477190" lon="11.765700">
                <time>2017-07-15T06:24:33Z</time>
            </trkpt>
            <trkpt lat="46.477190" lon="11.765700">
                <time>2017-07-15T06:24:34Z</time>
            </trkpt>
            <trkpt lat="46.477190" lon="11.765700">
                <time>2017-07-15T06:24:35Z</time>
            </trkpt>
            <trkpt lat="46.477190" lon="11.765700">
                <time>2017-07-15T06:24:36Z</time>
            </trkpt>
            <trkpt lat="46.477190" lon="11.765700">
                <time>2017-07-15T06:24:37Z</time>
            </trkpt>
            <trkpt lat="46.477190" lon="11.765700">
                <time>2017-07-15T06:24:38Z</time>
            </trkpt>
            <trkpt lat="46.477190" lon="11.765700">
                <time>2017-07-15T06:24:39Z</time>
            </trkpt>
            <trkpt lat="46.477190" lon="11.765700">
                <time>2017-07-15T06:24:40Z</time>
            </trkpt>
            <trkpt lat="46.477190" lon="11.765700">
                <time>2017-07-15T06:24:41Z</time>
            </trkpt>
            <trkpt lat="46.477190" lon="11.765700">
                <time>2017-07-15T06:24:42Z</time>
            </trkpt>
            <trkpt lat="46.477190" lon="11.765700">
                <time>2017-07-15T06:24:43Z</time>
            </trkpt>
            <trkpt lat="46.477190" lon="11.765700">
                <time>2017-07-15T06:24:44Z</time>
            </trkpt>
            <trkpt lat="46.477190" lon="11.765700">
                <time>2017-07-15T06:24:45Z</time>
            </trkpt>
            <trkpt lat="46.477190" lon="11.765700">
                <time>2017-07-15T06:24:46Z</time>
            </trkpt>
            <trkpt lat="46.477190" lon="11.765700">
                <time>2017-07-15T06:24:47Z</time>
            </trkpt>
            <trkpt lat="46.477190" lon="11.765700">
                <time>2017-07-15T06:24:48Z</time>
            </trkpt>
            <trkpt lat="46.477190" lon="11.765700">
                <time>2017-07-15T06:24:49Z</time>
            </trkpt>
            <trkpt lat="46.477190" lon="11.765700">
                <time>2017-07-15T06:24:50Z</time>
            </trkpt>
            <trkpt lat="46.477190" lon="11.765700">
                <time>2017-07-15T06:24:51Z</time>
            </trkpt>
            <trkpt lat="46.477190" lon="11.765700">
                <time>2017-07-15T06:24:52Z</time>
            </trkpt>
            <trkpt lat="46.477190" lon="11.765700">
                <time>2017-07-15T06:24:53Z</time>
            </trkpt>
            <trkpt lat="46.477190" lon="11.765700">
                <time>2017-07-15T06:24:54Z</time>
            </trkpt>
            <trkpt lat="46.477190" lon="11.765700">
                <time>2017-07-15T06:24:55Z</time>
            </trkpt>
            <trkpt lat="46.477190" lon="11.765700">
                <time>2017-07-15T06:24:56Z</time>
            </trkpt>
            <trkpt lat="46.477190" lon="11.765700">
                <time>2017-07-15T06:24:57Z</time>
            </trkpt>
            <trkpt lat="46.477190" lon="11.765700">
                <time>2017-07-15T06:24:58Z</time>
            </trkpt>
            <trkpt lat="46.477190" lon="11.765700">
                <time>2017-07-15T06:24:59Z</time>
            </trkpt>
            <trkpt lat="46.477190" lon="11.765700">
                <time>2017-07-15T06:25:00Z</time>
            </trkpt>
            <trkpt lat="46.477190" lon="11.765700">
                <time>2017-07-15T06:25:01Z</time>
            </trkpt>
            <trkpt lat="46.477190" lon="11.765700">
                <time>2017-07-15T06:25:02Z</time>
            </trkpt>
            <trkpt lat="46.477190" lon="11.765700">
                <time>2017-07-15T06:25:03Z</time>
            </trkpt>
            <trkpt lat="46.477190" lon="11.765700">
                <time>2017-07-15T06:25:04Z</time>
            </trkpt>
            <trkpt lat="46.477190" lon="11.765700">
                <time>2017-07-15T06:25:05Z</time>
            </trkpt>
            <trkpt lat="46.477190" lon="11.765700">
                <time>2017-07-15T06:25:06Z</time>
            </trkpt>
            <trkpt lat="46.477190" lon="11.765700">
                <time>2017-07-15T06:25:07Z</time>
            </trkpt>
            <trkpt lat="46.477190" lon="11.765700">
                <time>2017-07-15T06:25:08Z</time>
            </trkpt>
            <trkpt lat="46.477190" lon="11.765700">
                <time>2017-07-15T06:25:09Z</time>
            </trkpt>
            <trkpt lat="46.477190" lon="11.765700">
                <time>2017-07-15T06:25:10Z</time>
            </trkpt>
            <trkpt lat="46.477190" lon="11.765700">
                <time>2017-07-15T06:25:11Z</time>
            </trkpt>
            <trkpt lat="46.477190" lon="11.765700">
                <time>2017-07-15T06:25:12Z</time>
            </trkpt>
            <trkpt lat="46.477190" lon="11.765700">
                <time>2017-07-15T06:25:13Z</time>
            </trkpt>
            <trkpt lat="46.477190" lon="11.765700">
                <time>2017-07-15T06:25:14Z</time>
            </trkpt>
            <trkpt lat="46.477190" lon="11.765700">
                <time>2017-07-15T06:25:15Z</time>
            </trkpt>
            <trkpt lat="46.477190" lon="11.765700">
                <time>2017-07-15T06:25:16Z</time>
            </trkpt>
            <trkpt lat="46.477190" lon="11.765700">
                <time>2017-07-15T06:25:17Z</time>
            </trkpt>
            <trkpt lat="46.477190" lon="11.765700">
                <time>2017-07-15T06:25:18Z</time>
            </trkpt>
            <trkpt lat="46.477190" lon="11.765700">
                <time>2017-07-15T06:25:19Z</time>
            </trkpt>
            <trkpt lat="46.477190" lon="11.765700">
                <time>2017-07-15T06:25:20Z</time>
            </trkpt>
            <trkpt lat="46.477190" lon="11.765700">
                <time>2017-07-15T06:25:21Z</time>
            </trkpt>
            <trkpt lat="46.477190" lon="11.765700">
                <time>2017-07-15T06:25:22Z</time>
            </trkpt>
            <trkpt lat="46.477190" lon="11.765700">
                <time>2017-07-15T06:25:23Z</time>
            </trkpt>
            <trkpt lat="46.477190" lon="11.765700">
                <time>2017-07-15T06:25:24Z</time>
            </trkpt>
            <trkpt lat="46.477190" lon="11.765700">
                <time>2017-07-15T06:25:25Z</time>
            </trkpt>
            <trkpt lat="46.477190" lon="11.765700">
                <time>2017-07-15T06:25:26Z</time>
            </trkpt>
            <trkpt lat="46.477190" lon="11.765700">
                <time>2017-07-15T06:25:27Z</time>
            </trkpt>
            <trkpt lat="46.477190" lon="11.765700">
                <time>2017-07-15T06:25:28Z</time>
            </trkpt>
            <trkpt lat="46.477190" lon="11.765700">
                <time>2017-07-15T06:25:29Z</time>
            </trkpt>
            <trkpt lat="46.477190" lon="11.765700">
                <time>2017-07-15T06:25:30Z</time>
            </trkpt>
            <trkpt lat="46.477190" lon="11.765700">
                <time>2017-07-15T06:25:31Z</time>
            </trkpt>
            <trkpt lat="46.477190" lon="11.765700">
                <time>2017-07-15T06:25:32Z</time>
            </trkpt>
            <trkpt lat="46.477190" lon="11.765700">
                <time>2017-07-15T06:25:33Z</time>
            </trkpt>
            <trkpt lat="46.477190" lon="11.765700">
                <time>2017-07-15T06:25:34Z</time>
            </trkpt>
            <trkpt lat="46.477190" lon="11.765700">
                <time>2017-07-15T06:25:35Z</time>
            </trkpt>
            <trkpt lat="46.477190" lon="11.765700">
                <time>2017-07-15T06:25:36Z</time>
            </trkpt>
            <trkpt lat="46.477190" lon="11.765700">
                <time>2017-07-15T06:25:37Z</time>
            </trkpt>
            <trkpt lat="46.477190" lon="11.765700">
                <time>2017-07-15T06:25:38Z</time>
            </trkpt>
            <trkpt lat="46.477190" lon="11.765700">
                <time>2017-07-15T06:25:39Z</time>
            </trkpt>
            <trkpt lat="46.477190" lon="11.765700">
                <time>2017-07-15T06:25:40Z</time>
            </trkpt>
            <trkpt lat="46.477190" lon="11.765700">
                <time>2017-07-15T06:25:41Z</time>
            </trkpt>
            <trkpt lat="46.477190" lon="11.765700">
                <time>2017-07-15T06:25:42Z</time>
            </trkpt>
            <trkpt lat="46.477190" lon="11.765700">
                <time>2017-07-15T06:25:43Z</time>
            </trkpt>
            <trkpt lat="46.477190" lon="11.765700">
                <time>2017-07-15T06:25:44Z</time>
            </trkpt>
            <trkpt lat="46.477190" lon="11.765700">
                <time>2017-07-15T06:25:45Z</time>
            </trkpt>
            <trkpt lat="46.477190" lon="11.765700">
                <time>2017-07-15T06:25:46Z</time>
            </trkpt>
            <trkpt lat="46.477190" lon="11.765700">
                <time>2017-07-15T06:25:47Z</time>
            </trkpt>
            <trkpt lat="46.477190" lon="11.765700">
                <time>2017-07-15T06:25:48Z</time>
            </trkpt>
            <trkpt lat="46.477190" lon="11.765700">
                <time>2017-07-15T06:25:49Z</time>
            </trkpt>
            <trkpt lat="46.477190" lon="11.765700">
                <time>2017-07-15T06:25:50Z</time>
            </trkpt>
            <trkpt lat="46.477190" lon="11.765700">
                <time>2017-07-15T06:25:51Z</time>
            </trkpt>
            <trkpt lat="46.477190" lon="11.765700">
                <time>2017-07-15T06:25:52Z</time>
            </trkpt>
            <trkpt lat="46.477190" lon="11.765700">
                <time>2017-07-15T06:25:53Z</time>
            </trkpt>
            <trkpt lat="46.477190" lon="11.765700">
                <time>2017-07-15T06:25:54Z</time>
            </trkpt>
            <trkpt lat="46.477190" lon="11.765700">
                <time>2017-07-15T06:25:55Z</time>
            </trkpt>
            <trkpt lat="46.477190" lon="11.765700">
                <time>2017-07-15T06:25:56Z</time>
            </trkpt>
            <trkpt lat="46.477190" lon="11.765700">
                <time>2017-07-15T06:25:57Z</time>
            </trkpt>
            <trkpt lat="46.477190" lon="11.765700">
                <time>2017-07-15T06:25:58Z</time>
            </trkpt>
            <trkpt lat="46.477190" lon="11.765700">
                <time>2017-07-15T06:25:59Z</time>
            </trkpt>
            <trkpt lat="46.477190" lon="11.765700">
                <time>2017-07-15T06:26:00Z</time>
            </trkpt>
            <trkpt lat="46.477190" lon="11.765700">
                <time>2017-07-15T06:26:01Z</time>
            </trkpt>
            <trkpt lat="46.477190" lon="11.765700">
                <time>2017-07-15T06:26:02Z</time>
            </trkpt>
            <trkpt lat="46.477190" lon="11.765700">
                <time>2017-07-15T06:26:03Z</time>
            </trkpt>
            <trkpt lat="46.477190" lon="11.765700">
                <time>2017-07-15T06:26:04Z</time>
            </trkpt>
            <trkpt lat="46.477190" lon="11.765700">
                <time>2017-07-15T06:26:05Z</time>
            </trkpt>
            <trkpt lat="46.477190" lon="11.765700">
                <time>2017-07-15T06:26:06Z</time>
            </trkpt>
            <trkpt lat="46.477190" lon="11.765700">
                <time>2017-07-15T06:26:07Z</time>
            </trkpt>
            <trkpt lat="46.477190" lon="11.765700">
                <time>2017-07-15T06:26:08Z</time>
            </trkpt>
            <trkpt lat="46.477190" lon="11.765700">
                <time>2017-07-15T06:26:09Z</time>
            </trkpt>
            <trkpt lat="46.477190" lon="11.765700">
                <time>2017-07-15T06:26:10Z</time>
            </trkpt>
            <trkpt lat="46.477190" lon="11.765700">
                <time>2017-07-15T06:26:11Z</time>
            </trkpt>
            <trkpt lat="46.477190" lon="11.765700">
                <time>2017-07-15T06:26:12Z</time>
            </trkpt>
            <trkpt lat="46.477190" lon="11.765700">
                <time>2017-07-15T06:26:13Z</time>
            </trkpt>
            <trkpt lat="46.477190" lon="11.765700">
                <time>2017-07-15T06:26:14Z</time>
            </trkpt>
            <trkpt lat="46.477190" lon="11.765700">
                <time>2017-07-15T06:26:15Z</time>
            </trkpt>
            <trkpt lat="46.477190" lon="11.765700">
                <time>2017-07-15T06:26:16Z</time>
            </trkpt>
            <trkpt lat="46.477190" lon="11.765700">
                <time>2017-07-15T06:26:17Z</time>
            </trkpt>
            <trkpt lat="46.477190" lon="11.765700">
                <time>2017-07-15T06:26:18Z</time>
            </trkpt>
            <trkpt lat="46.477190" lon="11.765700">
                <time>2017-07-15T06:26:19Z</time>
            </trkpt>
            <trkpt lat="46.477190" lon="11.765700">
                <time>2017-07-15T06:26:20Z</time>
            </trkpt>
            <trkpt lat="46.477190" lon="11.765700">
                <time>2017-07-15T06:26:21Z</time>
            </trkpt>
            <trkpt lat="46.477190" lon="11.765700">
                <time>2017-07-15T06:26:22Z</time>
            </trkpt>
            <trkpt lat="46.477190" lon="11.765700">
                <time>2017-07-15T06:26:23Z</time>
            </trkpt>
            <trkpt lat="46.477190" lon="11.765700">
                <time>2017-07-15T06:26:24Z</time>
            </trkpt>
            <trkpt lat="46.477190" lon="11.765700">
                <time>2017-07-15T06:26:25Z</time>
            </trkpt>
            <trkpt lat="46.477190" lon="11.765700">
                <time>2017-07-15T06:26:26Z</time>
            </trkpt>
            <trkpt lat="46.477190" lon="11.765700">
                <time>2017-07-15T06:26:27Z</time>
            </trkpt>
            <trkpt lat="46.477190" lon="11.765700">
                <time>2017-07-15T06:26:28Z</time>
            </trkpt>
            <trkpt lat="46.477190" lon="11.765700">
                <time>2017-07-15T06:26:29Z</time>
            </trkpt>
            <trkpt lat="46.477190" lon="11.765700">
                <time>2017-07-15T06:26:30Z</time>
            </trkpt>
            <trkpt lat="46.477190" lon="11.765700">
                <time>2017-07-15T06:26:31Z</time>
            </trkpt>
            <trkpt lat="46.477190" lon="11.765700">
                <time>2017-07-15T06:26:32Z</time>
            </trkpt>
            <trkpt lat="46.477190" lon="11.765700">
                <time>2017-07-15T06:26:33Z</time>
            </trkpt>
            <trkpt lat="46.477190" lon="11.765700">
                <time>2017-07-15T06:26:34Z</time>
            </trkpt>
            <trkpt lat="46.477190" lon="11.765700">
                <time>2017-07-15T06:26:35Z</time>
            </trkpt>
            <trkpt lat="46.477190" lon="11.765700">
                <time>2017-07-15T06:26:36Z</time>
            </trkpt>
            <trkpt lat="46.477190" lon="11.765700">
                <time>2017-07-15T06:26:37Z</time>
            </trkpt>
            <trkpt lat="46.477190" lon="11.765700">
                <time>2017-07-15T06:26:38Z</time>
            </trkpt>
            <trkpt lat="46.477190" lon="11.765700">
                <time>2017-07-15T06:26:39Z</time>
            </trkpt>
            <trkpt lat="46.477190" lon="11.765700">
                <time>2017-07-15T06:26:40Z</time>
            </trkpt>
            <trkpt lat="46.477190" lon="11.765700">
                <time>2017-07-15T06:26:41Z</time>
            </trkpt>
            <trkpt lat="46.477190" lon="11.765700">
                <time>2017-07-15T06:26:42Z</time>
            </trkpt>
            <trkpt lat="46.477190" lon="11.765700">
                <time>2017-07-15T06:26:43Z</time>
            </trkpt>
            <trkpt lat="46.477190" lon="11.765700">
                <time>2017-07-15T06:26:44Z</time>
            </trkpt>
            <trkpt lat="46.477190" lon="11.765700">
                <time>2017-07-15T06:26:45Z</time>
            </trkpt>
            <trkpt lat="46.477190" lon="11.765700">
                <time>2017-07-15T06:26:46Z</time>
            </trkpt>
            <trkpt lat="46.477190" lon="11.765700">
                <time>2017-07-15T06:26:47Z</time>
            </trkpt>
            <trkpt lat="46.477190" lon="11.765700">
                <time>2017-07-15T06:26:48Z</time>
            </trkpt>
            <trkpt lat="46.477190" lon="11.765700">
                <time>2017-07-15T06:26:49Z</time>
            </trkpt>
            <trkpt lat="46.477190" lon="11.765700">
                <time>2017-07-15T06:26:50Z</time>
            </trkpt>
            <trkpt lat="46.477190" lon="11.765700">
                <time>2017-07-15T06:26:51Z</time>
            </trkpt>
            <trkpt lat="46.477190" lon="11.765700">
                <time>2017-07-15T06:26:52Z</time>
            </trkpt>
            <trkpt lat="46.477190" lon="11.765700">
                <time>2017-07-15T06:26:53Z</time>
            </trkpt>
            <trkpt lat="46.477190" lon="11.765700">
                <time>2017-07-15T06:26:54Z</time>
            </trkpt>
            <trkpt lat="46.477190" lon="11.765700">
                <time>2017-07-15T06:26:55Z</time>
            </trkpt>
            <trkpt lat="46.477190" lon="11.765700">
                <time>2017-07-15T06:26:56Z</time>
            </trkpt>
            <trkpt lat="46.477190" lon="11.765700">
                <time>2017-07-15T06:26:57Z</time>
            </trkpt>
            <trkpt lat="46.477190" lon="11.765700">
                <time>2017-07-15T06:26:58Z</time>
            </trkpt>
            <trkpt lat="46.477190" lon="11.765700">
                <time>2017-07-15T06:26:59Z</time>
            </trkpt>
            <trkpt lat="46.477190" lon="11.765700">
                <time>2017-07-15T06:27:00Z</time>
            </trkpt>
            <trkpt lat="46.477190" lon="11.765700">
                <time>2017-07-15T06:27:01Z</time>
            </trkpt>
            <trkpt lat="46.477190" lon="11.765700">
                <time>2017-07-15T06:27:02Z</time>
            </trkpt>
            <trkpt lat="46.477190" lon="11.765700">
                <time>2017-07-15T06:27:03Z</time>
            </trkpt>
            <trkpt lat="46.477190" lon="11.765700">
                <time>2017-07-15T06:27:04Z</time>
            </trkpt>
            <trkpt lat="46.477190" lon="11.765700">
                <time>2017-07-15T06:27:05Z</time>
            </trkpt>
            <trkpt lat="46.477190" lon="11.765700">
                <time>2017-07-15T06:27:06Z</time>
            </trkpt>
            <trkpt lat="46.477190" lon="11.765700">
                <time>2017-07-15T06:27:07Z</time>
            </trkpt>
            <trkpt lat="46.477190" lon="11.765700">
                <time>2017-07-15T06:27:08Z</time>
            </trkpt>
            <trkpt lat="46.477190" lon="11.765700">
                <time>2017-07-15T06:27:09Z</time>
            </trkpt>
            <trkpt lat="46.477190" lon="11.765700">
                <time>2017-07-15T06:27:10Z</time>
            </trkpt>
            <trkpt lat="46.477190" lon="11.765700">
                <time>2017-07-15T06:27:11Z</time>
            </trkpt>
            <trkpt lat="46.477190" lon="11.765700">
                <time>2017-07-15T06:27:12Z</time>
            </trkpt>
            <trkpt lat="46.477190" lon="11.765700">
                <time>2017-07-15T06:27:13Z</time>
            </trkpt>
            <trkpt lat="46.477190" lon="11.765700">
                <time>2017-07-15T06:27:14Z</time>
            </trkpt>
            <trkpt lat="46.477190" lon="11.765700">
                <time>2017-07-15T06:27:15Z</time>
            </trkpt>
            <trkpt lat="46.477190" lon="11.765700">
                <time>2017-07-15T06:27:16Z</time>
            </trkpt>
            <trkpt lat="46.477190" lon="11.765700">
                <time>2017-07-15T06:27:17Z</time>
            </trkpt>
            <trkpt lat="46.477190" lon="11.765700">
                <time>2017-07-15T06:27:18Z</time>
            </trkpt>
            <trkpt lat="46.477190" lon="11.765700">
                <time>2017-07-15T06:27:19Z</time>
            </trkpt>
            <trkpt lat="46.477190" lon="11.765700">
                <time>2017-07-15T06:27:20Z</time>
            </trkpt>
            <trkpt lat="46.477190" lon="11.765700">
                <time>2017-07-15T06:27:21Z</time>
            </trkpt>
            <trkpt lat="46.477190" lon="11.765700">
                <time>2017-07-15T06:27:22Z</time>
            </trkpt>
            <trkpt lat="46.477190" lon="11.765700">
                <time>2017-07-15T06:27:23Z</time>
            </trkpt>
            <trkpt lat="46.477190" lon="11.765700">
                <time>2017-07-15T06:27:24Z</time>
            </trkpt>
            <trkpt lat="46.477190" lon="11.765700">
                <time>2017-07-15T06:27:25Z</time>
            </trkpt>
            <trkpt lat="46.477190" lon="11.765700">
                <time>2017-07-15T06:27:26Z</time>
            </trkpt>
            <trkpt lat="46.477190" lon="11.765700">
                <time>2017-07-15T06:27:27Z</time>
            </trkpt>
            <trkpt lat="46.477190" lon="11.765700">
                <time>2017-07-15T06:27:28Z</time>
            </trkpt>
            <trkpt lat="46.477190" lon="11.765700">
                <time>2017-07-15T06:27:29Z</time>
            </trkpt>
            <trkpt lat="46.477190" lon="11.765700">
                <time>2017-07-15T06:27:30Z</time>
            </trkpt>
            <trkpt lat="46.477190" lon="11.765700">
                <time>2017-07-15T06:27:31Z</time>
            </trkpt>
            <trkpt lat="46.477190" lon="11.765700">
                <time>2017-07-15T06:27:32Z</time>
            </trkpt>
            <trkpt lat="46.477190" lon="11.765700">
                <time>2017-07-15T06:27:33Z</time>
            </trkpt>
            <trkpt lat="46.477190" lon="11.765700">
                <time>2017-07-15T06:27:34Z</time>
            </trkpt>
            <trkpt lat="46.477190" lon="11.765700">
                <time>2017-07-15T06:27:35Z</time>
            </trkpt>
            <trkpt lat="46.477190" lon="11.765700">
                <time>2017-07-15T06:27:36Z</time>
            </trkpt>
            <trkpt lat="46.477190" lon="11.765700">
                <time>2017-07-15T06:27:37Z</time>
            </trkpt>
            <trkpt lat="46.477190" lon="11.765700">
                <time>2017-07-15T06:27:38Z</time>
            </trkpt>
            <trkpt lat="46.477190" lon="11.765700">
                <time>2017-07-15T06:27:39Z</time>
            </trkpt>
            <trkpt lat="46.477190" lon="11.765700">
                <time>2017-07-15T06:27:40Z</time>
            </trkpt>
            <trkpt lat="46.477190" lon="11.765700">
                <time>2017-07-15T06:27:41Z</time>
            </trkpt>
            <trkpt lat="46.477190" lon="11.765700">
                <time>2017-07-15T06:27:42Z</time>
            </trkpt>
            <trkpt lat="46.477190" lon="11.765700">
                <time>2017-07-15T06:27:43Z</time>
            </trkpt>
            <trkpt lat="46.477190" lon="11.765700">
                <time>2017-07-15T06:27:44Z</time>
            </trkpt>
            <trkpt lat="46.477190" lon="11.765700">
                <time>2017-07-15T06:27:45Z</time>
            </trkpt>
            <trkpt lat="46.477190" lon="11.765700">
                <time>2017-07-15T06:27:46Z</time>
            </trkpt>
            <trkpt lat="46.477190" lon="11.765700">
                <time>2017-07-15T06:27:47Z</time>
            </trkpt>
            <trkpt lat="46.477190" lon="11.765700">
                <time>2017-07-15T06:27:48Z</time>
            </trkpt>
            <trkpt lat="46.477190" lon="11.765700">
                <time>2017-07-15T06:27:49Z</time>
            </trkpt>
            <trkpt lat="46.477190" lon="11.765700">
                <time>2017-07-15T06:27:50Z</time>
            </trkpt>
            <trkpt lat="46.477190" lon="11.765700">
                <time>2017-07-15T06:27:51Z</time>
            </trkpt>
            <trkpt lat="46.477190" lon="11.765700">
                <time>2017-07-15T06:27:52Z</time>
            </trkpt>
            <trkpt lat="46.477190" lon="11.765700">
                <time>2017-07-15T06:27:53Z</time>
            </trkpt>
            <trkpt lat="46.477190" lon="11.765700">
                <time>2017-07-15T06:27:54Z</time>
            </trkpt>
            <trkpt lat="46.477190" lon="11.765700">
                <time>2017-07-15T06:27:55Z</time>
            </trkpt>
            <trkpt lat="46.477190" lon="11.765700">
                <time>2017-07-15T06:27:56Z</time>
            </trkpt>
            <trkpt lat="46.477190" lon="11.765700">
                <time>2017-07-15T06:27:57Z</time>
            </trkpt>
            <trkpt lat="46.477190" lon="11.765700">
                <time>2017-07-15T06:27:58Z</time>
            </trkpt>
            <trkpt lat="46.477190" lon="11.765700">
                <time>2017-07-15T06:27:59Z</time>
            </trkpt>
            <trkpt lat="46.477190" lon="11.765700">
                <time>2017-07-15T06:28:00Z</time>
            </trkpt>
            <trkpt lat="46.477190" lon="11.765700">
                <time>2017-07-15T06:28:01Z</time>
            </trkpt>
            <trkpt lat="46.477190" lon="11.765700">
                <time>2017-07-15T06:28:02Z</time>
            </trkpt>
            <trkpt lat="46.477190" lon="11.765700">
                <time>2017-07-15T06:28:03Z</time>
            </trkpt>
            <trkpt lat="46.477190" lon="11.765700">
                <time>2017-07-15T06:28:04Z</time>
            </trkpt>
            <trkpt lat="46.477190" lon="11.765700">
                <time>2017-07-15T06:28:05Z</time>
            </trkpt>
            <trkpt lat="46.477190" lon="11.765700">
                <time>2017-07-15T06:28:06Z</time>
            </trkpt>
            <trkpt lat="46.477190" lon="11.765700">
                <time>2017-07-15T06:28:07Z</time>
            </trkpt>
            <trkpt lat="46.477190" lon="11.765700">
                <time>2017-07-15T06:28:08Z</time>
            </trkpt>
            <trkpt lat="46.477190" lon="11.765700">
                <time>2017-07-15T06:28:09Z</time>
            </trkpt>
            <trkpt lat="46.477190" lon="11.765700">
                <time>2017-07-15T06:28:10Z</time>
            </trkpt>
            <trkpt lat="46.477190" lon="11.765700">
                <time>2017-07-15T06:28:11Z</time>
            </trkpt>
            <trkpt lat="46.477190" lon="11.765700">
                <time>2017-07-15T06:28:12Z</time>
            </trkpt>
            <trkpt lat="46.477190" lon="11.765700">
                <time>2017-07-15T06:28:13Z</time>
            </trkpt>
            <trkpt lat="46.477190" lon="11.765700">
                <time>2017-07-15T06:28:14Z</time>
            </trkpt>
            <trkpt lat="46.477190" lon="11.765700">
                <time>2017-07-15T06:28:15Z</time>
            </trkpt>
            <trkpt lat="46.477190" lon="11.765700">
                <time>2017-07-15T06:28:16Z</time>
            </trkpt>
            <trkpt lat="46.477190" lon="11.765700">
                <time>2017-07-15T06:28:17Z</time>
            </trkpt>
            <trkpt lat="46.477190" lon="11.765700">
                <time>2017-07-15T06:28:18Z</time>
            </trkpt>
            <trkpt lat="46.477190" lon="11.765700">
                <time>2017-07-15T06:28:19Z</time>
            </trkpt>
            <trkpt lat="46.477190" lon="11.765700">
                <time>2017-07-15T06:28:20Z</time>
            </trkpt>
            <trkpt lat="46.477190" lon="11.765700">
                <time>2017-07-15T06:28:21Z</time>
            </trkpt>
            <trkpt lat="46.477190" lon="11.765700">
                <time>2017-07-15T06:28:22Z</time>
            </trkpt>
            <trkpt lat="46.477190" lon="11.765700">
                <time>2017-07-15T06:28:23Z</time>
            </trkpt>
            <trkpt lat="46.477190" lon="11.765700">
                <time>2017-07-15T06:28:24Z</time>
            </trkpt>
            <trkpt lat="46.477190" lon="11.765700">
                <time>2017-07-15T06:28:25Z</time>
            </trkpt>
            <trkpt lat="46.477190" lon="11.765700">
                <time>2017-07-15T06:28:26Z</time>
            </trkpt>
            <trkpt lat="46.477190" lon="11.765700">
                <time>2017-07-15T06:28:27Z</time>
            </trkpt>
            <trkpt lat="46.477190" lon="11.765700">
                <time>2017-07-15T06:28:28Z</time>
            </trkpt>
            <trkpt lat="46.477190" lon="11.765700">
                <time>2017-07-15T06:28:29Z</time>
            </trkpt>
            <trkpt lat="46.477190" lon="11.765700">
                <time>2017-07-15T06:28:30Z</time>
            </trkpt>
            <trkpt lat="46.477190" lon="11.765700">
                <time>2017-07-15T06:28:31Z</time>
            </trkpt>
            <trkpt lat="46.477190" lon="11.765700">
                <time>2017-07-15T06:28:32Z</time>
            </trkpt>
            <trkpt lat="46.477190" lon="11.765700">
                <time>2017-07-15T06:28:33Z</time>
            </trkpt>
            <trkpt lat="46.477190" lon="11.765700">
                <time>2017-07-15T06:28:34Z</time>
            </trkpt>
            <trkpt lat="46.477190" lon="11.765700">
                <time>2017-07-15T06:28:35Z</time>
            </trkpt>
            <trkpt lat="46.477190" lon="11.765700">
                <time>2017-07-15T06:28:36Z</time>
            </trkpt>
            <trkpt lat="46.477190" lon="11.765700">
                <time>2017-07-15T06:28:37Z</time>
            </trkpt>
            <trkpt lat="46.477190" lon="11.765700">
                <time>2017-07-15T06:28:38Z</time>
            </trkpt>
            <trkpt lat="46.477190" lon="11.765700">
                <time>2017-07-15T06:28:39Z</time>
            </trkpt>
            <trkpt lat="46.477190" lon="11.765700">
                <time>2017-07-15T06:28:40Z</time>
            </trkpt>
            <trkpt lat="46.477190" lon="11.765700">
                <time>2017-07-15T06:28:41Z</time>
            </trkpt>
            <trkpt lat="46.477190" lon="11.765700">
                <time>2017-07-15T06:28:42Z</time>
            </trkpt>
            <trkpt lat="46.477190" lon="11.765700">
                <time>2017-07-15T06:28:43Z</time>
            </trkpt>
            <trkpt lat="46.477190" lon="11.765700">
                <time>2017-07-15T06:28:44Z</time>
            </trkpt>
            <trkpt lat="46.477190" lon="11.765700">
                <time>2017-07-15T06:28:45Z</time>
            </trkpt>
            <trkpt lat="46.477190" lon="11.765700">
                <time>2017-07-15T06:28:46Z</time>
            </trkpt>
            <trkpt lat="46.477190" lon="11.765700">
                <time>2017-07-15T06:28:47Z</time>
            </trkpt>
            <trkpt lat="46.477190" lon="11.765700">
                <time>2017-07-15T06:28:48Z</time>
            </trkpt>
            <trkpt lat="46.477190" lon="11.765700">
                <time>2017-07-15T06:28:49Z</time>
            </trkpt>
            <trkpt lat="46.477190" lon="11.765700">
                <time>2017-07-15T06:28:50Z</time>
            </trkpt>
            <trkpt lat="46.477190" lon="11.765700">
                <time>2017-07-15T06:28:51Z</time>
            </trkpt>
            <trkpt lat="46.477190" lon="11.765700">
                <time>2017-07-15T06:28:52Z</time>
            </trkpt>
            <trkpt lat="46.477190" lon="11.765700">
                <time>2017-07-15T06:28:53Z</time>
            </trkpt>
            <trkpt lat="46.477190" lon="11.765700">
                <time>2017-07-15T06:28:54Z</time>
            </trkpt>
            <trkpt lat="46.477190" lon="11.765700">
                <time>2017-07-15T06:28:55Z</time>
            </trkpt>
            <trkpt lat="46.477190" lon="11.765700">
                <time>2017-07-15T06:28:56Z</time>
            </trkpt>
            <trkpt lat="46.477190" lon="11.765700">
                <time>2017-07-15T06:28:57Z</time>
            </trkpt>
            <trkpt lat="46.477190" lon="11.765700">
                <time>2017-07-15T06:28:58Z</time>
            </trkpt>
            <trkpt lat="46.477190" lon="11.765700">
                <time>2017-07-15T06:28:59Z</time>
            </trkpt>
            <trkpt lat="46.477190" lon="11.765700">
                <time>2017-07-15T06:29:00Z</time>
            </trkpt>
            <trkpt lat="46.477190" lon="11.765700">
                <time>2017-07-15T06:29:01Z</time>
            </trkpt>
            <trkpt lat="46.477190" lon="11.765700">
                <time>2017-07-15T06:29:02Z</time>
            </trkpt>
            <trkpt lat="46.477190" lon="11.765700">
                <time>2017-07-15T06:29:03Z</time>
            </trkpt>
            <trkpt lat="46.477190" lon="11.765700">
                <time>2017-07-15T06:29:04Z</time>
            </trkpt>
            <trkpt lat="46.477190" lon="11.765700">
                <time>2017-07-15T06:29:05Z</time>
            </trkpt>
            <trkpt lat="46.477190" lon="11.765700">
                <time>2017-07-15T06:29:06Z</time>
            </trkpt>
            <trkpt lat="46.477190" lon="11.765700">
                <time>2017-07-15T06:29:07Z</time>
            </trkpt>
            <trkpt lat="46.477190" lon="11.765700">
                <time>2017-07-15T06:29:08Z</time>
            </trkpt>
            <trkpt lat="46.477190" lon="11.765700">
                <time>2017-07-15T06:29:09Z</time>
            </trkpt>
            <trkpt lat="46.477190" lon="11.765700">
                <time>2017-07-15T06:29:10Z</time>
            </trkpt>
            <trkpt lat="46.477190" lon="11.765700">
                <time>2017-07-15T06:29:11Z</time>
            </trkpt>
            <trkpt lat="46.477190" lon="11.765700">
                <time>2017-07-15T06:29:12Z</time>
            </trkpt>
            <trkpt lat="46.477190" lon="11.765700">
                <time>2017-07-15T06:29:13Z</time>
            </trkpt>
            <trkpt lat="46.477190" lon="11.765700">
                <time>2017-07-15T06:29:14Z</time>
            </trkpt>
            <trkpt lat="46.477190" lon="11.765700">
                <time>2017-07-15T06:29:15Z</time>
            </trkpt>
            <trkpt lat="46.477190" lon="11.765700">
                <time>2017-07-15T06:29:16Z</time>
            </trkpt>
            <trkpt lat="46.477190" lon="11.765700">
                <time>2017-07-15T06:29:17Z</time>
            </trkpt>
            <trkpt lat="46.477190" lon="11.765700">
                <time>2017-07-15T06:29:18Z</time>
            </trkpt>
            <trkpt lat="46.477190" lon="11.765700">
                <time>2017-07-15T06:29:19Z</time>
            </trkpt>
            <trkpt lat="46.477190" lon="11.765700">
                <time>2017-07-15T06:29:20Z</time>
            </trkpt>
            <trkpt lat="46.477190" lon="11.765700">
                <time>2017-07-15T06:29:21Z</time>
            </trkpt>
            <trkpt lat="46.477190" lon="11.765700">
                <time>2017-07-15T06:29:22Z</time>
            </trkpt>
            <trkpt lat="46.477190" lon="11.765700">
                <time>2017-07-15T06:29:23Z</time>
            </trkpt>
            <trkpt lat="46.477190" lon="11.765700">
                <time>2017-07-15T06:29:24Z</time>
            </trkpt>
            <trkpt lat="46.477190" lon="11.765700">
                <time>2017-07-15T06:29:25Z</time>
            </trkpt>
            <trkpt lat="46.477190" lon="11.765700">
                <time>2017-07-15T06:29:26Z</time>
            </trkpt>
            <trkpt lat="46.477190" lon="11.765700">
                <time>2017-07-15T06:29:27Z</time>
            </trkpt>
            <trkpt lat="46.477190" lon="11.765700">
                <time>2017-07-15T06:29:28Z</time>
            </trkpt>
            <trkpt lat="46.477190" lon="11.765700">
                <time>2017-07-15T06:29:29Z</time>
            </trkpt>
            <trkpt lat="46.477190" lon="11.765700">
                <time>2017-07-15T06:29:30Z</time>
            </trkpt>
            <trkpt lat="46.477190" lon="11.765700">
                <time>2017-07-15T06:29:31Z</time>
            </trkpt>
            <trkpt lat="46.477190" lon="11.765700">
                <time>2017-07-15T06:29:32Z</time>
            </trkpt>
            <trkpt lat="46.477190" lon="11.765700">
                <time>2017-07-15T06:29:33Z</time>
            </trkpt>
            <trkpt lat="46.477190" lon="11.765700">
                <time>2017-07-15T06:29:34Z</time>
            </trkpt>
            <trkpt lat="46.477190" lon="11.765700">
                <time>2017-07-15T06:29:35Z</time>
            </trkpt>
            <trkpt lat="46.477190" lon="11.765700">
                <time>2017-07-15T06:29:36Z</time>
            </trkpt>
            <trkpt lat="46.477190" lon="11.765700">
                <time>2017-07-15T06:29:37Z</time>
            </trkpt>
            <trkpt lat="46.477190" lon="11.765700">
                <time>2017-07-15T06:29:38Z</time>
            </trkpt>
            <trkpt lat="46.477190" lon="11.765700">
                <time>2017-07-15T06:29:39Z</time>
            </trkpt>
            <trkpt lat="46.477190" lon="11.765700">
                <time>2017-07-15T06:29:40Z</time>
            </trkpt>
            <trkpt lat="46.477190" lon="11.765700">
                <time>2017-07-15T06:29:41Z</time>
            </trkpt>
            <trkpt lat="46.477190" lon="11.765700">
                <time>2017-07-15T06:29:42Z</time>
            </trkpt>
            <trkpt lat="46.477190" lon="11.765700">
                <time>2017-07-15T06:29:43Z</time>
            </trkpt>
            <trkpt lat="46.477190" lon="11.765700">
                <time>2017-07-15T06:29:44Z</time>
            </trkpt>
            <trkpt lat="46.477190" lon="11.765700">
                <time>2017-07-15T06:29:45Z</time>
            </trkpt>
            <trkpt lat="46.477190" lon="11.765700">
                <time>2017-07-15T06:29:46Z</time>
            </trkpt>
            <trkpt lat="46.477190" lon="11.765700">
                <time>2017-07-15T06:29:47Z</time>
            </trkpt>
            <trkpt lat="46.477190" lon="11.765700">
                <time>2017-07-15T06:29:48Z</time>
            </trkpt>
            <trkpt lat="46.477190" lon="11.765700">
                <time>2017-07-15T06:29:49Z</time>
            </trkpt>
            <trkpt lat="46.477190" lon="11.765700">
                <time>2017-07-15T06:29:50Z</time>
            </trkpt>
            <trkpt lat="46.477190" lon="11.765700">
                <time>2017-07-15T06:29:51Z</time>
            </trkpt>
            <trkpt lat="46.477190" lon="11.765700">
                <time>2017-07-15T06:29:52Z</time>
            </trkpt>
            <trkpt lat="46.477190" lon="11.765700">
                <time>2017-07-15T06:29:53Z</time>
            </trkpt>
            <trkpt lat="46.477190" lon="11.765700">
                <time>2017-07-15T06:29:54Z</time>
            </trkpt>
            <trkpt lat="46.477190" lon="11.765700">
                <time>2017-07-15T06:29:55Z</time>
            </trkpt>
            <trkpt lat="46.477190" lon="11.765700">
                <time>2017-07-15T06:29:56Z</time>
            </trkpt>
            <trkpt lat="46.477190" lon="11.765700">
                <time>2017-07-15T06:29:57Z</time>
            </trkpt>
            <trkpt lat="46.477190" lon="11.765700">
                <time>2017-07-15T06:29:58Z</time>
            </trkpt>
            <trkpt lat="46.477190" lon="11.765700">
                <time>2017-07-15T06:29:59Z</time>
            </trkpt>
            <trkpt lat="46.477190" lon="11.765700">
                <time>2017-07-15T06:30:00Z</time>
            </trkpt>
            <trkpt lat="46.477190" lon="11.765700">
                <time>2017-07-15T06:30:01Z</time>
            </trkpt>
            <trkpt lat="46.477200" lon="11.765690">
                <time>2017-07-15T06:30:02Z</time>
            </trkpt>
            <trkpt lat="46.477210" lon="11.765690">
                <time>2017-07-15T06:30:03Z</time>
            </trkpt>
            <trkpt lat="46.477220" lon="11.765690">
                <time>2017-07-15T06:30:04Z</time>
            </trkpt>
            <trkpt lat="46.477220" lon="11.765690">
                <time>2017-07-15T06:30:05Z</time>
            </trkpt>
            <trkpt lat="46.477220" lon="11.765680">
                <time>2017-07-15T06:30:06Z</time>
            </trkpt>
            <trkpt lat="46.477220" lon="11.765680">
                <time>2017-07-15T06:30:07Z</time>
            </trkpt>
            <trkpt lat="46.477220" lon="11.765680">
                <time>2017-07-15T06:30:08Z</time>
            </trkpt>
            <trkpt lat="46.477220" lon="11.765680">
                <time>2017-07-15T06:30:09Z</time>
            </trkpt>
            <trkpt lat="46.477220" lon="11.765680">
                <time>2017-07-15T06:30:10Z</time>
            </trkpt>
            <trkpt lat="46.477220" lon="11.765680">
                <time>2017-07-15T06:30:11Z</time>
            </trkpt>
            <trkpt lat="46.477220" lon="11.765680">
                <time>2017-07-15T06:30:12Z</time>
            </trkpt>
            <trkpt lat="46.477220" lon="11.765680">
                <time>2017-07-15T06:30:13Z</time>
            </trkpt>
            <trkpt lat="46.477220" lon="11.765680">
                <time>2017-07-15T06:30:14Z</time>
            </trkpt>
            <trkpt lat="46.477220" lon="11.765680">
                <time>2017-07-15T06:30:15Z</time>
            </trkpt>
            <trkpt lat="46.477220" lon="11.765680">
                <time>2017-07-15T06:30:16Z</time>
            </trkpt>
            <trkpt lat="46.477220" lon="11.765690">
                <time>2017-07-15T06:30:17Z</time>
            </trkpt>
            <trkpt lat="46.477230" lon="11.765690">
                <time>2017-07-15T06:30:18Z</time>
            </trkpt>
            <trkpt lat="46.477230" lon="11.765690">
                <time>2017-07-15T06:30:19Z</time>
            </trkpt>
            <trkpt lat="46.477240" lon="11.765690">
                <time>2017-07-15T06:30:20Z</time>
            </trkpt>
            <trkpt lat="46.477240" lon="11.765690">
                <time>2017-07-15T06:30:21Z</time>
            </trkpt>
            <trkpt lat="46.477250" lon="11.765690">
                <time>2017-07-15T06:30:22Z</time>
            </trkpt>
            <trkpt lat="46.477250" lon="11.765680">
                <time>2017-07-15T06:30:23Z</time>
            </trkpt>
            <trkpt lat="46.477250" lon="11.765680">
                <time>2017-07-15T06:30:24Z</time>
            </trkpt>
            <trkpt lat="46.477250" lon="11.765680">
                <time>2017-07-15T06:30:25Z</time>
            </trkpt>
            <trkpt lat="46.477250" lon="11.765680">
                <time>2017-07-15T06:30:26Z</time>
            </trkpt>
            <trkpt lat="46.477250" lon="11.765680">
                <time>2017-07-15T06:30:27Z</time>
            </trkpt>
            <trkpt lat="46.477250" lon="11.765680">
                <time>2017-07-15T06:30:28Z</time>
            </trkpt>
            <trkpt lat="46.477260" lon="11.765680">
                <time>2017-07-15T06:30:29Z</time>
            </trkpt>
            <trkpt lat="46.477260" lon="11.765680">
                <time>2017-07-15T06:30:30Z</time>
            </trkpt>
            <trkpt lat="46.477260" lon="11.765700">
                <time>2017-07-15T06:30:31Z</time>
            </trkpt>
            <trkpt lat="46.477260" lon="11.765720">
                <time>2017-07-15T06:30:32Z</time>
            </trkpt>
            <trkpt lat="46.477270" lon="11.765750">
                <time>2017-07-15T06:30:33Z</time>
            </trkpt>
            <trkpt lat="46.477280" lon="11.765770">
                <time>2017-07-15T06:30:34Z</time>
            </trkpt>
            <trkpt lat="46.477290" lon="11.765780">
                <time>2017-07-15T06:30:35Z</time>
            </trkpt>
            <trkpt lat="46.477290" lon="11.765790">
                <time>2017-07-15T06:30:36Z</time>
            </trkpt>
            <trkpt lat="46.477290" lon="11.765790">
                <time>2017-07-15T06:30:37Z</time>
            </trkpt>
            <trkpt lat="46.477290" lon="11.765790">
                <time>2017-07-15T06:30:38Z</time>
            </trkpt>
            <trkpt lat="46.477290" lon="11.765790">
                <time>2017-07-15T06:30:39Z</time>
            </trkpt>
            <trkpt lat="46.477290" lon="11.765790">
                <time>2017-07-15T06:30:40Z</time>
            </trkpt>
            <trkpt lat="46.477290" lon="11.765790">
                <time>2017-07-15T06:30:41Z</time>
            </trkpt>
            <trkpt lat="46.477290" lon="11.765790">
                <time>2017-07-15T06:30:42Z</time>
            </trkpt>
            <trkpt lat="46.477300" lon="11.765790">
                <time>2017-07-15T06:30:43Z</time>
            </trkpt>
            <trkpt lat="46.477300" lon="11.765800">
                <time>2017-07-15T06:30:44Z</time>
            </trkpt>
            <trkpt lat="46.477300" lon="11.765810">
                <time>2017-07-15T06:30:45Z</time>
            </trkpt>
            <trkpt lat="46.477300" lon="11.765850">
                <time>2017-07-15T06:30:46Z</time>
            </trkpt>
            <trkpt lat="46.477290" lon="11.765900">
                <time>2017-07-15T06:30:47Z</time>
            </trkpt>
            <trkpt lat="46.477280" lon="11.765950">
                <time>2017-07-15T06:30:48Z</time>
            </trkpt>
            <trkpt lat="46.477270" lon="11.766010">
                <time>2017-07-15T06:30:49Z</time>
            </trkpt>
            <trkpt lat="46.477270" lon="11.766070">
                <time>2017-07-15T06:30:50Z</time>
            </trkpt>
            <trkpt lat="46.477260" lon="11.766120">
                <time>2017-07-15T06:30:51Z</time>
            </trkpt>
            <trkpt lat="46.477260" lon="11.766190">
                <time>2017-07-15T06:30:52Z</time>
            </trkpt>
            <trkpt lat="46.477270" lon="11.766250">
                <time>2017-07-15T06:30:53Z</time>
            </trkpt>
            <trkpt lat="46.477270" lon="11.766310">
                <time>2017-07-15T06:30:54Z</time>
            </trkpt>
            <trkpt lat="46.477280" lon="11.766380">
                <time>2017-07-15T06:30:55Z</time>
            </trkpt>
            <trkpt lat="46.477280" lon="11.766430">
                <time>2017-07-15T06:30:56Z</time>
            </trkpt>
            <trkpt lat="46.477280" lon="11.766480">
                <time>2017-07-15T06:30:57Z</time>
            </trkpt>
            <trkpt lat="46.477290" lon="11.766520">
                <time>2017-07-15T06:30:58Z</time>
            </trkpt>
            <trkpt lat="46.477290" lon="11.766570">
                <time>2017-07-15T06:30:59Z</time>
            </trkpt>
            <trkpt lat="46.477290" lon="11.766620">
                <time>2017-07-15T06:31:00Z</time>
            </trkpt>
            <trkpt lat="46.477290" lon="11.766670">
                <time>2017-07-15T06:31:01Z</time>
            </trkpt>
            <trkpt lat="46.477300" lon="11.766730">
                <time>2017-07-15T06:31:02Z</time>
            </trkpt>
            <trkpt lat="46.477300" lon="11.766810">
                <time>2017-07-15T06:31:03Z</time>
            </trkpt>
            <trkpt lat="46.477310" lon="11.766880">
                <time>2017-07-15T06:31:04Z</time>
            </trkpt>
            <trkpt lat="46.477310" lon="11.766960">
                <time>2017-07-15T06:31:05Z</time>
            </trkpt>
            <trkpt lat="46.477320" lon="11.767040">
                <time>2017-07-15T06:31:06Z</time>
            </trkpt>
            <trkpt lat="46.477330" lon="11.767120">
                <time>2017-07-15T06:31:07Z</time>
            </trkpt>
            <trkpt lat="46.477330" lon="11.767220">
                <time>2017-07-15T06:31:08Z</time>
            </trkpt>
            <trkpt lat="46.477340" lon="11.767300">
                <time>2017-07-15T06:31:09Z</time>
            </trkpt>
            <trkpt lat="46.477330" lon="11.767400">
                <time>2017-07-15T06:31:10Z</time>
            </trkpt>
            <trkpt lat="46.477340" lon="11.767490">
                <time>2017-07-15T06:31:11Z</time>
            </trkpt>
            <trkpt lat="46.477340" lon="11.767580">
                <time>2017-07-15T06:31:12Z</time>
            </trkpt>
            <trkpt lat="46.477350" lon="11.767680">
                <time>2017-07-15T06:31:13Z</time>
            </trkpt>
            <trkpt lat="46.477360" lon="11.767770">
                <time>2017-07-15T06:31:14Z</time>
            </trkpt>
            <trkpt lat="46.477370" lon="11.767870">
                <time>2017-07-15T06:31:15Z</time>
            </trkpt>
            <trkpt lat="46.477390" lon="11.767970">
                <time>2017-07-15T06:31:16Z</time>
            </trkpt>
            <trkpt lat="46.477410" lon="11.768050">
                <time>2017-07-15T06:31:17Z</time>
            </trkpt>
            <trkpt lat="46.477440" lon="11.768150">
                <time>2017-07-15T06:31:18Z</time>
            </trkpt>
            <trkpt lat="46.477470" lon="11.768250">
                <time>2017-07-15T06:31:19Z</time>
            </trkpt>
            <trkpt lat="46.477500" lon="11.768340">
                <time>2017-07-15T06:31:20Z</time>
            </trkpt>
            <trkpt lat="46.477520" lon="11.768450">
                <time>2017-07-15T06:31:21Z</time>
            </trkpt>
            <trkpt lat="46.477530" lon="11.768560">
                <time>2017-07-15T06:31:22Z</time>
            </trkpt>
            <trkpt lat="46.477530" lon="11.768670">
                <time>2017-07-15T06:31:23Z</time>
            </trkpt>
            <trkpt lat="46.477520" lon="11.768800">
                <time>2017-07-15T06:31:24Z</time>
            </trkpt>
            <trkpt lat="46.477500" lon="11.768900">
                <time>2017-07-15T06:31:25Z</time>
            </trkpt>
            <trkpt lat="46.477470" lon="11.769020">
                <time>2017-07-15T06:31:26Z</time>
            </trkpt>
            <trkpt lat="46.477430" lon="11.769160">
                <time>2017-07-15T06:31:27Z</time>
            </trkpt>
            <trkpt lat="46.477400" lon="11.769270">
                <time>2017-07-15T06:31:28Z</time>
            </trkpt>
            <trkpt lat="46.477360" lon="11.769390">
                <time>2017-07-15T06:31:29Z</time>
            </trkpt>
            <trkpt lat="46.477330" lon="11.769510">
                <time>2017-07-15T06:31:30Z</time>
            </trkpt>
            <trkpt lat="46.477300" lon="11.769620">
                <time>2017-07-15T06:31:31Z</time>
            </trkpt>
            <trkpt lat="46.477280" lon="11.769750">
                <time>2017-07-15T06:31:32Z</time>
            </trkpt>
            <trkpt lat="46.477260" lon="11.769850">
                <time>2017-07-15T06:31:33Z</time>
            </trkpt>
            <trkpt lat="46.477230" lon="11.769950">
                <time>2017-07-15T06:31:34Z</time>
            </trkpt>
            <trkpt lat="46.477200" lon="11.770050">
                <time>2017-07-15T06:31:35Z</time>
            </trkpt>
            <trkpt lat="46.477150" lon="11.770150">
                <time>2017-07-15T06:31:36Z</time>
            </trkpt>
            <trkpt lat="46.477100" lon="11.770230">
                <time>2017-07-15T06:31:37Z</time>
            </trkpt>
            <trkpt lat="46.477040" lon="11.770300">
                <time>2017-07-15T06:31:38Z</time>
            </trkpt>
            <trkpt lat="46.476970" lon="11.770360">
                <time>2017-07-15T06:31:39Z</time>
            </trkpt>
            <trkpt lat="46.476900" lon="11.770410">
                <time>2017-07-15T06:31:40Z</time>
            </trkpt>
            <trkpt lat="46.476830" lon="11.770450">
                <time>2017-07-15T06:31:41Z</time>
            </trkpt>
            <trkpt lat="46.476760" lon="11.770490">
                <time>2017-07-15T06:31:42Z</time>
            </trkpt>
            <trkpt lat="46.476680" lon="11.770540">
                <time>2017-07-15T06:31:43Z</time>
            </trkpt>
            <trkpt lat="46.476610" lon="11.770580">
                <time>2017-07-15T06:31:44Z</time>
            </trkpt>
            <trkpt lat="46.476530" lon="11.770640">
                <time>2017-07-15T06:31:45Z</time>
            </trkpt>
            <trkpt lat="46.476460" lon="11.770700">
                <time>2017-07-15T06:31:46Z</time>
            </trkpt>
            <trkpt lat="46.476400" lon="11.770790">
                <time>2017-07-15T06:31:47Z</time>
            </trkpt>
            <trkpt lat="46.476330" lon="11.770890">
                <time>2017-07-15T06:31:48Z</time>
            </trkpt>
            <trkpt lat="46.476260" lon="11.770980">
                <time>2017-07-15T06:31:49Z</time>
            </trkpt>
            <trkpt lat="46.476200" lon="11.771080">
                <time>2017-07-15T06:31:50Z</time>
            </trkpt>
            <trkpt lat="46.476140" lon="11.771190">
                <time>2017-07-15T06:31:51Z</time>
            </trkpt>
            <trkpt lat="46.476090" lon="11.771280">
                <time>2017-07-15T06:31:52Z</time>
            </trkpt>
            <trkpt lat="46.476040" lon="11.771360">
                <time>2017-07-15T06:31:53Z</time>
            </trkpt>
            <trkpt lat="46.475980" lon="11.771460">
                <time>2017-07-15T06:31:54Z</time>
            </trkpt>
            <trkpt lat="46.475920" lon="11.771560">
                <time>2017-07-15T06:31:55Z</time>
            </trkpt>
            <trkpt lat="46.475850" lon="11.771650">
                <time>2017-07-15T06:31:56Z</time>
            </trkpt>
            <trkpt lat="46.475790" lon="11.771740">
                <time>2017-07-15T06:31:57Z</time>
            </trkpt>
            <trkpt lat="46.475720" lon="11.771850">
                <time>2017-07-15T06:31:58Z</time>
            </trkpt>
            <trkpt lat="46.475650" lon="11.771970">
                <time>2017-07-15T06:31:59Z</time>
            </trkpt>
            <trkpt lat="46.475590" lon="11.772070">
                <time>2017-07-15T06:32:00Z</time>
            </trkpt>
            <trkpt lat="46.475530" lon="11.772190">
                <time>2017-07-15T06:32:01Z</time>
            </trkpt>
            <trkpt lat="46.475450" lon="11.772300">
                <time>2017-07-15T06:32:02Z</time>
            </trkpt>
            <trkpt lat="46.475380" lon="11.772420">
                <time>2017-07-15T06:32:03Z</time>
            </trkpt>
            <trkpt lat="46.475320" lon="11.772550">
                <time>2017-07-15T06:32:04Z</time>
            </trkpt>
            <trkpt lat="46.475250" lon="11.772650">
                <time>2017-07-15T06:32:05Z</time>
            </trkpt>
            <trkpt lat="46.475180" lon="11.772770">
                <time>2017-07-15T06:32:06Z</time>
            </trkpt>
            <trkpt lat="46.475110" lon="11.772890">
                <time>2017-07-15T06:32:07Z</time>
            </trkpt>
            <trkpt lat="46.475040" lon="11.773000">
                <time>2017-07-15T06:32:08Z</time>
            </trkpt>
            <trkpt lat="46.474970" lon="11.773110">
                <time>2017-07-15T06:32:09Z</time>
            </trkpt>
            <trkpt lat="46.474900" lon="11.773220">
                <time>2017-07-15T06:32:10Z</time>
            </trkpt>
            <trkpt lat="46.474840" lon="11.773320">
                <time>2017-07-15T06:32:11Z</time>
            </trkpt>
            <trkpt lat="46.474770" lon="11.773420">
                <time>2017-07-15T06:32:12Z</time>
            </trkpt>
            <trkpt lat="46.474710" lon="11.773510">
                <time>2017-07-15T06:32:13Z</time>
            </trkpt>
            <trkpt lat="46.474660" lon="11.773610">
                <time>2017-07-15T06:32:14Z</time>
            </trkpt>
            <trkpt lat="46.474600" lon="11.773710">
                <time>2017-07-15T06:32:15Z</time>
            </trkpt>
            <trkpt lat="46.474540" lon="11.773800">
                <time>2017-07-15T06:32:16Z</time>
            </trkpt>
            <trkpt lat="46.474470" lon="11.773900">
                <time>2017-07-15T06:32:17Z</time>
            </trkpt>
            <trkpt lat="46.474400" lon="11.774010">
                <time>2017-07-15T06:32:18Z</time>
            </trkpt>
            <trkpt lat="46.474330" lon="11.774120">
                <time>2017-07-15T06:32:19Z</time>
            </trkpt>
            <trkpt lat="46.474250" lon="11.774240">
                <time>2017-07-15T06:32:20Z</time>
            </trkpt>
            <trkpt lat="46.474180" lon="11.774340">
                <time>2017-07-15T06:32:21Z</time>
            </trkpt>
            <trkpt lat="46.474110" lon="11.774450">
                <time>2017-07-15T06:32:22Z</time>
            </trkpt>
            <trkpt lat="46.474040" lon="11.774560">
                <time>2017-07-15T06:32:23Z</time>
            </trkpt>
            <trkpt lat="46.473970" lon="11.774660">
                <time>2017-07-15T06:32:24Z</time>
            </trkpt>
            <trkpt lat="46.473900" lon="11.774770">
                <time>2017-07-15T06:32:25Z</time>
            </trkpt>
            <trkpt lat="46.473810" lon="11.774900">
                <time>2017-07-15T06:32:26Z</time>
            </trkpt>
            <trkpt lat="46.473740" lon="11.775010">
                <time>2017-07-15T06:32:27Z</time>
            </trkpt>
            <trkpt lat="46.473660" lon="11.775150">
                <time>2017-07-15T06:32:28Z</time>
            </trkpt>
            <trkpt lat="46.473580" lon="11.775270">
                <time>2017-07-15T06:32:29Z</time>
            </trkpt>
            <trkpt lat="46.473500" lon="11.775400">
                <time>2017-07-15T06:32:30Z</time>
            </trkpt>
            <trkpt lat="46.473410" lon="11.775530">
                <time>2017-07-15T06:32:31Z</time>
            </trkpt>
            <trkpt lat="46.473330" lon="11.775660">
                <time>2017-07-15T06:32:32Z</time>
            </trkpt>
            <trkpt lat="46.473250" lon="11.775790">
                <time>2017-07-15T06:32:33Z</time>
            </trkpt>
            <trkpt lat="46.473160" lon="11.775920">
                <time>2017-07-15T06:32:34Z</time>
            </trkpt>
            <trkpt lat="46.473080" lon="11.776050">
                <time>2017-07-15T06:32:35Z</time>
            </trkpt>
            <trkpt lat="46.472990" lon="11.776190">
                <time>2017-07-15T06:32:36Z</time>
            </trkpt>
            <trkpt lat="46.472910" lon="11.776300">
                <time>2017-07-15T06:32:37Z</time>
            </trkpt>
            <trkpt lat="46.472820" lon="11.776410">
                <time>2017-07-15T06:32:38Z</time>
            </trkpt>
            <trkpt lat="46.472750" lon="11.776510">
                <time>2017-07-15T06:32:39Z</time>
            </trkpt>
            <trkpt lat="46.472690" lon="11.776600">
                <time>2017-07-15T06:32:40Z</time>
            </trkpt>
            <trkpt lat="46.472630" lon="11.776650">
                <time>2017-07-15T06:32:41Z</time>
            </trkpt>
            <trkpt lat="46.472570" lon="11.776700">
                <time>2017-07-15T06:32:42Z</time>
            </trkpt>
            <trkpt lat="46.472510" lon="11.776720">
                <time>2017-07-15T06:32:43Z</time>
            </trkpt>
            <trkpt lat="46.472440" lon="11.776760">
                <time>2017-07-15T06:32:44Z</time>
            </trkpt>
            <trkpt lat="46.472390" lon="11.776810">
                <time>2017-07-15T06:32:45Z</time>
            </trkpt>
            <trkpt lat="46.472340" lon="11.776890">
                <time>2017-07-15T06:32:46Z</time>
            </trkpt>
            <trkpt lat="46.472290" lon="11.777000">
                <time>2017-07-15T06:32:47Z</time>
            </trkpt>
            <trkpt lat="46.472250" lon="11.777100">
                <time>2017-07-15T06:32:48Z</time>
            </trkpt>
            <trkpt lat="46.472200" lon="11.777210">
                <time>2017-07-15T06:32:49Z</time>
            </trkpt>
            <trkpt lat="46.472120" lon="11.777300">
                <time>2017-07-15T06:32:50Z</time>
            </trkpt>
            <trkpt lat="46.472030" lon="11.777390">
                <time>2017-07-15T06:32:51Z</time>
            </trkpt>
            <trkpt lat="46.471920" lon="11.777490">
                <time>2017-07-15T06:32:52Z</time>
            </trkpt>
            <trkpt lat="46.471820" lon="11.777580">
                <time>2017-07-15T06:32:53Z</time>
            </trkpt>
            <trkpt lat="46.471720" lon="11.777680">
                <time>2017-07-15T06:32:54Z</time>
            </trkpt>
            <trkpt lat="46.471600" lon="11.777780">
                <time>2017-07-15T06:32:55Z</time>
            </trkpt>
            <trkpt lat="46.471500" lon="11.777870">
                <time>2017-07-15T06:32:56Z</time>
            </trkpt>
            <trkpt lat="46.471390" lon="11.777970">
                <time>2017-07-15T06:32:57Z</time>
            </trkpt>
            <trkpt lat="46.471270" lon="11.778070">
                <time>2017-07-15T06:32:58Z</time>
            </trkpt>
            <trkpt lat="46.471170" lon="11.778160">
                <time>2017-07-15T06:32:59Z</time>
            </trkpt>
            <trkpt lat="46.471040" lon="11.778270">
                <time>2017-07-15T06:33:00Z</time>
            </trkpt>
            <trkpt lat="46.470940" lon="11.778370">
                <time>2017-07-15T06:33:01Z</time>
            </trkpt>
            <trkpt lat="46.470830" lon="11.778460">
                <time>2017-07-15T06:33:02Z</time>
            </trkpt>
            <trkpt lat="46.470710" lon="11.778560">
                <time>2017-07-15T06:33:03Z</time>
            </trkpt>
            <trkpt lat="46.470600" lon="11.778630">
                <time>2017-07-15T06:33:04Z</time>
            </trkpt>
            <trkpt lat="46.470490" lon="11.778670">
                <time>2017-07-15T06:33:05Z</time>
            </trkpt>
            <trkpt lat="46.470370" lon="11.778680">
                <time>2017-07-15T06:33:06Z</time>
            </trkpt>
            <trkpt lat="46.470250" lon="11.778670">
                <time>2017-07-15T06:33:07Z</time>
            </trkpt>
            <trkpt lat="46.470120" lon="11.778640">
                <time>2017-07-15T06:33:08Z</time>
            </trkpt>
            <trkpt lat="46.470000" lon="11.778610">
                <time>2017-07-15T06:33:09Z</time>
            </trkpt>
            <trkpt lat="46.469880" lon="11.778600">
                <time>2017-07-15T06:33:10Z</time>
            </trkpt>
            <trkpt lat="46.469740" lon="11.778600">
                <time>2017-07-15T06:33:11Z</time>
            </trkpt>
            <trkpt lat="46.469620" lon="11.778610">
                <time>2017-07-15T06:33:12Z</time>
            </trkpt>
            <trkpt lat="46.469490" lon="11.778630">
                <time>2017-07-15T06:33:13Z</time>
            </trkpt>
            <trkpt lat="46.469340" lon="11.778650">
                <time>2017-07-15T06:33:14Z</time>
            </trkpt>
            <trkpt lat="46.469210" lon="11.778660">
                <time>2017-07-15T06:33:15Z</time>
            </trkpt>
            <trkpt lat="46.469070" lon="11.778670">
                <time>2017-07-15T06:33:16Z</time>
            </trkpt>
            <trkpt lat="46.468940" lon="11.778680">
                <time>2017-07-15T06:33:17Z</time>
            </trkpt>
            <trkpt lat="46.468820" lon="11.778690">
                <time>2017-07-15T06:33:18Z</time>
            </trkpt>
            <trkpt lat="46.468710" lon="11.778710">
                <time>2017-07-15T06:33:19Z</time>
            </trkpt>
            <trkpt lat="46.468610" lon="11.778720">
                <time>2017-07-15T06:33:20Z</time>
            </trkpt>
            <trkpt lat="46.468490" lon="11.778750">
                <time>2017-07-15T06:33:21Z</time>
            </trkpt>
            <trkpt lat="46.468370" lon="11.778810">
                <time>2017-07-15T06:33:22Z</time>
            </trkpt>
            <trkpt lat="46.468260" lon="11.778890">
                <time>2017-07-15T06:33:23Z</time>
            </trkpt>
            <trkpt lat="46.468150" lon="11.778990">
                <time>2017-07-15T06:33:24Z</time>
            </trkpt>
            <trkpt lat="46.468060" lon="11.779080">
                <time>2017-07-15T06:33:25Z</time>
            </trkpt>
            <trkpt lat="46.467970" lon="11.779200">
                <time>2017-07-15T06:33:26Z</time>
            </trkpt>
            <trkpt lat="46.467880" lon="11.779330">
                <time>2017-07-15T06:33:27Z</time>
            </trkpt>
            <trkpt lat="46.467800" lon="11.779430">
                <time>2017-07-15T06:33:28Z</time>
            </trkpt>
            <trkpt lat="46.467710" lon="11.779540">
                <time>2017-07-15T06:33:29Z</time>
            </trkpt>
            <trkpt lat="46.467630" lon="11.779650">
                <time>2017-07-15T06:33:30Z</time>
            </trkpt>
            <trkpt lat="46.467550" lon="11.779750">
                <time>2017-07-15T06:33:31Z</time>
            </trkpt>
            <trkpt lat="46.467470" lon="11.779840">
                <time>2017-07-15T06:33:32Z</time>
            </trkpt>
            <trkpt lat="46.467390" lon="11.779930">
                <time>2017-07-15T06:33:33Z</time>
            </trkpt>
            <trkpt lat="46.467320" lon="11.780030">
                <time>2017-07-15T06:33:34Z</time>
            </trkpt>
            <trkpt lat="46.467240" lon="11.780140">
                <time>2017-07-15T06:33:35Z</time>
            </trkpt>
            <trkpt lat="46.467160" lon="11.780230">
                <time>2017-07-15T06:33:36Z</time>
            </trkpt>
            <trkpt lat="46.467090" lon="11.780330">
                <time>2017-07-15T06:33:37Z</time>
            </trkpt>
            <trkpt lat="46.467010" lon="11.780420">
                <time>2017-07-15T06:33:38Z</time>
            </trkpt>
            <trkpt lat="46.466910" lon="11.780500">
                <time>2017-07-15T06:33:39Z</time>
            </trkpt>
            <trkpt lat="46.466800" lon="11.780580">
                <time>2017-07-15T06:33:40Z</time>
            </trkpt>
            <trkpt lat="46.466700" lon="11.780650">
                <time>2017-07-15T06:33:41Z</time>
            </trkpt>
            <trkpt lat="46.466600" lon="11.780730">
                <time>2017-07-15T06:33:42Z</time>
            </trkpt>
            <trkpt lat="46.466480" lon="11.780820">
                <time>2017-07-15T06:33:43Z</time>
            </trkpt>
            <trkpt lat="46.466380" lon="11.780900">
                <time>2017-07-15T06:33:44Z</time>
            </trkpt>
            <trkpt lat="46.466270" lon="11.780980">
                <time>2017-07-15T06:33:45Z</time>
            </trkpt>
            <trkpt lat="46.466160" lon="11.781080">
                <time>2017-07-15T06:33:46Z</time>
            </trkpt>
            <trkpt lat="46.466050" lon="11.781150">
                <time>2017-07-15T06:33:47Z</time>
            </trkpt>
            <trkpt lat="46.465940" lon="11.781240">
                <time>2017-07-15T06:33:48Z</time>
            </trkpt>
            <trkpt lat="46.465840" lon="11.781320">
                <time>2017-07-15T06:33:49Z</time>
            </trkpt>
            <trkpt lat="46.465730" lon="11.781400">
                <time>2017-07-15T06:33:50Z</time>
            </trkpt>
            <trkpt lat="46.465600" lon="11.781490">
                <time>2017-07-15T06:33:51Z</time>
            </trkpt>
            <trkpt lat="46.465500" lon="11.781580">
                <time>2017-07-15T06:33:52Z</time>
            </trkpt>
            <trkpt lat="46.465380" lon="11.781660">
                <time>2017-07-15T06:33:53Z</time>
            </trkpt>
            <trkpt lat="46.465260" lon="11.781750">
                <time>2017-07-15T06:33:54Z</time>
            </trkpt>
            <trkpt lat="46.465140" lon="11.781840">
                <time>2017-07-15T06:33:55Z</time>
            </trkpt>
            <trkpt lat="46.465020" lon="11.781930">
                <time>2017-07-15T06:33:56Z</time>
            </trkpt>
            <trkpt lat="46.464900" lon="11.782010">
                <time>2017-07-15T06:33:57Z</time>
            </trkpt>
            <trkpt lat="46.464780" lon="11.782110">
                <time>2017-07-15T06:33:58Z</time>
            </trkpt>
            <trkpt lat="46.464650" lon="11.782200">
                <time>2017-07-15T06:33:59Z</time>
            </trkpt>
            <trkpt lat="46.464540" lon="11.782290">
                <time>2017-07-15T06:34:00Z</time>
            </trkpt>
            <trkpt lat="46.464430" lon="11.782380">
                <time>2017-07-15T06:34:01Z</time>
            </trkpt>
            <trkpt lat="46.464300" lon="11.782470">
                <time>2017-07-15T06:34:02Z</time>
            </trkpt>
            <trkpt lat="46.464190" lon="11.782550">
                <time>2017-07-15T06:34:03Z</time>
            </trkpt>
            <trkpt lat="46.464060" lon="11.782630">
                <time>2017-07-15T06:34:04Z</time>
            </trkpt>
            <trkpt lat="46.463950" lon="11.782690">
                <time>2017-07-15T06:34:05Z</time>
            </trkpt>
            <trkpt lat="46.463830" lon="11.782730">
                <time>2017-07-15T06:34:06Z</time>
            </trkpt>
            <trkpt lat="46.463690" lon="11.782770">
                <time>2017-07-15T06:34:07Z</time>
            </trkpt>
            <trkpt lat="46.463580" lon="11.782780">
                <time>2017-07-15T06:34:08Z</time>
            </trkpt>
            <trkpt lat="46.463440" lon="11.782800">
                <time>2017-07-15T06:34:09Z</time>
            </trkpt>
            <trkpt lat="46.463310" lon="11.782810">
                <time>2017-07-15T06:34:10Z</time>
            </trkpt>
            <trkpt lat="46.463170" lon="11.782820">
                <time>2017-07-15T06:34:11Z</time>
            </trkpt>
            <trkpt lat="46.463030" lon="11.782840">
                <time>2017-07-15T06:34:12Z</time>
            </trkpt>
            <trkpt lat="46.462900" lon="11.782850">
                <time>2017-07-15T06:34:13Z</time>
            </trkpt>
            <trkpt lat="46.462770" lon="11.782860">
                <time>2017-07-15T06:34:14Z</time>
            </trkpt>
            <trkpt lat="46.462620" lon="11.782890">
                <time>2017-07-15T06:34:15Z</time>
            </trkpt>
            <trkpt lat="46.462490" lon="11.782910">
                <time>2017-07-15T06:34:16Z</time>
            </trkpt>
            <trkpt lat="46.462350" lon="11.782920">
                <time>2017-07-15T06:34:17Z</time>
            </trkpt>
            <trkpt lat="46.462200" lon="11.782930">
                <time>2017-07-15T06:34:18Z</time>
            </trkpt>
            <trkpt lat="46.462080" lon="11.782950">
                <time>2017-07-15T06:34:19Z</time>
            </trkpt>
            <trkpt lat="46.461940" lon="11.782980">
                <time>2017-07-15T06:34:20Z</time>
            </trkpt>
            <trkpt lat="46.461820" lon="11.783010">
                <time>2017-07-15T06:34:21Z</time>
            </trkpt>
            <trkpt lat="46.461700" lon="11.783050">
                <time>2017-07-15T06:34:22Z</time>
            </trkpt>
            <trkpt lat="46.461570" lon="11.783130">
                <time>2017-07-15T06:34:23Z</time>
            </trkpt>
            <trkpt lat="46.461470" lon="11.783190">
                <time>2017-07-15T06:34:24Z</time>
            </trkpt>
            <trkpt lat="46.461360" lon="11.783250">
                <time>2017-07-15T06:34:25Z</time>
            </trkpt>
            <trkpt lat="46.461250" lon="11.783340">
                <time>2017-07-15T06:34:26Z</time>
            </trkpt>
            <trkpt lat="46.461140" lon="11.783450">
                <time>2017-07-15T06:34:27Z</time>
            </trkpt>
            <trkpt lat="46.461030" lon="11.783560">
                <time>2017-07-15T06:34:28Z</time>
            </trkpt>
            <trkpt lat="46.460930" lon="11.783660">
                <time>2017-07-15T06:34:29Z</time>
            </trkpt>
            <trkpt lat="46.460840" lon="11.783780">
                <time>2017-07-15T06:34:30Z</time>
            </trkpt>
            <trkpt lat="46.460740" lon="11.783900">
                <time>2017-07-15T06:34:31Z</time>
            </trkpt>
            <trkpt lat="46.460650" lon="11.784010">
                <time>2017-07-15T06:34:32Z</time>
            </trkpt>
            <trkpt lat="46.460540" lon="11.784120">
                <time>2017-07-15T06:34:33Z</time>
            </trkpt>
            <trkpt lat="46.460430" lon="11.784240">
                <time>2017-07-15T06:34:34Z</time>
            </trkpt>
            <trkpt lat="46.460350" lon="11.784350">
                <time>2017-07-15T06:34:35Z</time>
            </trkpt>
            <trkpt lat="46.460240" lon="11.784470">
                <time>2017-07-15T06:34:36Z</time>
            </trkpt>
            <trkpt lat="46.460150" lon="11.784570">
                <time>2017-07-15T06:34:37Z</time>
            </trkpt>
            <trkpt lat="46.460060" lon="11.784690">
                <time>2017-07-15T06:34:38Z</time>
            </trkpt>
            <trkpt lat="46.459960" lon="11.784840">
                <time>2017-07-15T06:34:39Z</time>
            </trkpt>
            <trkpt lat="46.459880" lon="11.784980">
                <time>2017-07-15T06:34:40Z</time>
            </trkpt>
            <trkpt lat="46.459810" lon="11.785130">
                <time>2017-07-15T06:34:41Z</time>
            </trkpt>
            <trkpt lat="46.459740" lon="11.785290">
                <time>2017-07-15T06:34:42Z</time>
            </trkpt>
            <trkpt lat="46.459690" lon="11.785440">
                <time>2017-07-15T06:34:43Z</time>
            </trkpt>
            <trkpt lat="46.459610" lon="11.785610">
                <time>2017-07-15T06:34:44Z</time>
            </trkpt>
            <trkpt lat="46.459550" lon="11.785740">
                <time>2017-07-15T06:34:45Z</time>
            </trkpt>
            <trkpt lat="46.459480" lon="11.785890">
                <time>2017-07-15T06:34:46Z</time>
            </trkpt>
            <trkpt lat="46.459410" lon="11.786060">
                <time>2017-07-15T06:34:47Z</time>
            </trkpt>
            <trkpt lat="46.459350" lon="11.786210">
                <time>2017-07-15T06:34:48Z</time>
            </trkpt>
            <trkpt lat="46.459280" lon="11.786370">
                <time>2017-07-15T06:34:49Z</time>
            </trkpt>
            <trkpt lat="46.459210" lon="11.786550">
                <time>2017-07-15T06:34:50Z</time>
            </trkpt>
            <trkpt lat="46.459160" lon="11.786710">
                <time>2017-07-15T06:34:51Z</time>
            </trkpt>
            <trkpt lat="46.459110" lon="11.786890">
                <time>2017-07-15T06:34:52Z</time>
            </trkpt>
            <trkpt lat="46.459070" lon="11.787050">
                <time>2017-07-15T06:34:53Z</time>
            </trkpt>
            <trkpt lat="46.459020" lon="11.787220">
                <time>2017-07-15T06:34:54Z</time>
            </trkpt>
            <trkpt lat="46.458970" lon="11.787410">
                <time>2017-07-15T06:34:55Z</time>
            </trkpt>
            <trkpt lat="46.458930" lon="11.787580">
                <time>2017-07-15T06:34:56Z</time>
            </trkpt>
            <trkpt lat="46.458880" lon="11.787750">
                <time>2017-07-15T06:34:57Z</time>
            </trkpt>
            <trkpt lat="46.458820" lon="11.787930">
                <time>2017-07-15T06:34:58Z</time>
            </trkpt>
            <trkpt lat="46.458770" lon="11.788100">
                <time>2017-07-15T06:34:59Z</time>
            </trkpt>
            <trkpt lat="46.458710" lon="11.788270">
                <time>2017-07-15T06:35:00Z</time>
            </trkpt>
            <trkpt lat="46.458640" lon="11.788420">
                <time>2017-07-15T06:35:01Z</time>
            </trkpt>
            <trkpt lat="46.458570" lon="11.788590">
                <time>2017-07-15T06:35:02Z</time>
            </trkpt>
            <trkpt lat="46.458500" lon="11.788760">
                <time>2017-07-15T06:35:03Z</time>
            </trkpt>
            <trkpt lat="46.458440" lon="11.788920">
                <time>2017-07-15T06:35:04Z</time>
            </trkpt>
            <trkpt lat="46.458370" lon="11.789090">
                <time>2017-07-15T06:35:05Z</time>
            </trkpt>
            <trkpt lat="46.458310" lon="11.789280">
                <time>2017-07-15T06:35:06Z</time>
            </trkpt>
            <trkpt lat="46.458270" lon="11.789460">
                <time>2017-07-15T06:35:07Z</time>
            </trkpt>
            <trkpt lat="46.458220" lon="11.789660">
                <time>2017-07-15T06:35:08Z</time>
            </trkpt>
            <trkpt lat="46.458190" lon="11.789830">
                <time>2017-07-15T06:35:09Z</time>
            </trkpt>
            <trkpt lat="46.458140" lon="11.790010">
                <time>2017-07-15T06:35:10Z</time>
            </trkpt>
            <trkpt lat="46.458110" lon="11.790220">
                <time>2017-07-15T06:35:11Z</time>
            </trkpt>
            <trkpt lat="46.458070" lon="11.790400">
                <time>2017-07-15T06:35:12Z</time>
            </trkpt>
            <trkpt lat="46.458030" lon="11.790580">
                <time>2017-07-15T06:35:13Z</time>
            </trkpt>
            <trkpt lat="46.457990" lon="11.790760">
                <time>2017-07-15T06:35:14Z</time>
            </trkpt>
            <trkpt lat="46.457950" lon="11.790950">
                <time>2017-07-15T06:35:15Z</time>
            </trkpt>
            <trkpt lat="46.457900" lon="11.791150">
                <time>2017-07-15T06:35:16Z</time>
            </trkpt>
            <trkpt lat="46.457860" lon="11.791320">
                <time>2017-07-15T06:35:17Z</time>
            </trkpt>
            <trkpt lat="46.457820" lon="11.791490">
                <time>2017-07-15T06:35:18Z</time>
            </trkpt>
            <trkpt lat="46.457780" lon="11.791670">
                <time>2017-07-15T06:35:19Z</time>
            </trkpt>
            <trkpt lat="46.457730" lon="11.791830">
                <time>2017-07-15T06:35:20Z</time>
            </trkpt>
            <trkpt lat="46.457690" lon="11.792000">
                <time>2017-07-15T06:35:21Z</time>
            </trkpt>
            <trkpt lat="46.457640" lon="11.792180">
                <time>2017-07-15T06:35:22Z</time>
            </trkpt>
            <trkpt lat="46.457590" lon="11.792340">
                <time>2017-07-15T06:35:23Z</time>
            </trkpt>
            <trkpt lat="46.457530" lon="11.792530">
                <time>2017-07-15T06:35:24Z</time>
            </trkpt>
            <trkpt lat="46.457480" lon="11.792690">
                <time>2017-07-15T06:35:25Z</time>
            </trkpt>
            <trkpt lat="46.457420" lon="11.792870">
                <time>2017-07-15T06:35:26Z</time>
            </trkpt>
            <trkpt lat="46.457360" lon="11.793060">
                <time>2017-07-15T06:35:27Z</time>
            </trkpt>
            <trkpt lat="46.457290" lon="11.793220">
                <time>2017-07-15T06:35:28Z</time>
            </trkpt>
            <trkpt lat="46.457220" lon="11.793380">
                <time>2017-07-15T06:35:29Z</time>
            </trkpt>
            <trkpt lat="46.457140" lon="11.793540">
                <time>2017-07-15T06:35:30Z</time>
            </trkpt>
            <trkpt lat="46.457070" lon="11.793700">
                <time>2017-07-15T06:35:31Z</time>
            </trkpt>
            <trkpt lat="46.456990" lon="11.793870">
                <time>2017-07-15T06:35:32Z</time>
            </trkpt>
            <trkpt lat="46.456920" lon="11.794020">
                <time>2017-07-15T06:35:33Z</time>
            </trkpt>
            <trkpt lat="46.456840" lon="11.794190">
                <time>2017-07-15T06:35:34Z</time>
            </trkpt>
            <trkpt lat="46.456760" lon="11.794370">
                <time>2017-07-15T06:35:35Z</time>
            </trkpt>
            <trkpt lat="46.456680" lon="11.794530">
                <time>2017-07-15T06:35:36Z</time>
            </trkpt>
            <trkpt lat="46.456600" lon="11.794710">
                <time>2017-07-15T06:35:37Z</time>
            </trkpt>
            <trkpt lat="46.456520" lon="11.794900">
                <time>2017-07-15T06:35:38Z</time>
            </trkpt>
            <trkpt lat="46.456450" lon="11.795070">
                <time>2017-07-15T06:35:39Z</time>
            </trkpt>
            <trkpt lat="46.456380" lon="11.795260">
                <time>2017-07-15T06:35:40Z</time>
            </trkpt>
            <trkpt lat="46.456320" lon="11.795410">
                <time>2017-07-15T06:35:41Z</time>
            </trkpt>
            <trkpt lat="46.456250" lon="11.795580">
                <time>2017-07-15T06:35:42Z</time>
            </trkpt>
            <trkpt lat="46.456190" lon="11.795770">
                <time>2017-07-15T06:35:43Z</time>
            </trkpt>
            <trkpt lat="46.456150" lon="11.795940">
                <time>2017-07-15T06:35:44Z</time>
            </trkpt>
            <trkpt lat="46.456100" lon="11.796130">
                <time>2017-07-15T06:35:45Z</time>
            </trkpt>
            <trkpt lat="46.456070" lon="11.796320">
                <time>2017-07-15T06:35:46Z</time>
            </trkpt>
            <trkpt lat="46.456040" lon="11.796510">
                <time>2017-07-15T06:35:47Z</time>
            </trkpt>
            <trkpt lat="46.456010" lon="11.796700">
                <time>2017-07-15T06:35:48Z</time>
            </trkpt>
            <trkpt lat="46.455990" lon="11.796880">
                <time>2017-07-15T06:35:49Z</time>
            </trkpt>
            <trkpt lat="46.455970" lon="11.797070">
                <time>2017-07-15T06:35:50Z</time>
            </trkpt>
            <trkpt lat="46.455960" lon="11.797270">
                <time>2017-07-15T06:35:51Z</time>
            </trkpt>
            <trkpt lat="46.455950" lon="11.797450">
                <time>2017-07-15T06:35:52Z</time>
            </trkpt>
            <trkpt lat="46.455950" lon="11.797630">
                <time>2017-07-15T06:35:53Z</time>
            </trkpt>
            <trkpt lat="46.455960" lon="11.797830">
                <time>2017-07-15T06:35:54Z</time>
            </trkpt>
            <trkpt lat="46.455970" lon="11.797990">
                <time>2017-07-15T06:35:55Z</time>
            </trkpt>
            <trkpt lat="46.455990" lon="11.798180">
                <time>2017-07-15T06:35:56Z</time>
            </trkpt>
            <trkpt lat="46.456010" lon="11.798350">
                <time>2017-07-15T06:35:57Z</time>
            </trkpt>
            <trkpt lat="46.456030" lon="11.798540">
                <time>2017-07-15T06:35:58Z</time>
            </trkpt>
            <trkpt lat="46.456060" lon="11.798730">
                <time>2017-07-15T06:35:59Z</time>
            </trkpt>
            <trkpt lat="46.456080" lon="11.798910">
                <time>2017-07-15T06:36:00Z</time>
            </trkpt>
            <trkpt lat="46.456100" lon="11.799100">
                <time>2017-07-15T06:36:01Z</time>
            </trkpt>
            <trkpt lat="46.456130" lon="11.799290">
                <time>2017-07-15T06:36:02Z</time>
            </trkpt>
            <trkpt lat="46.456150" lon="11.799480">
                <time>2017-07-15T06:36:03Z</time>
            </trkpt>
            <trkpt lat="46.456170" lon="11.799680">
                <time>2017-07-15T06:36:04Z</time>
            </trkpt>
            <trkpt lat="46.456200" lon="11.799850">
                <time>2017-07-15T06:36:05Z</time>
            </trkpt>
            <trkpt lat="46.456230" lon="11.800040">
                <time>2017-07-15T06:36:06Z</time>
            </trkpt>
            <trkpt lat="46.456260" lon="11.800240">
                <time>2017-07-15T06:36:07Z</time>
            </trkpt>
            <trkpt lat="46.456300" lon="11.800410">
                <time>2017-07-15T06:36:08Z</time>
            </trkpt>
            <trkpt lat="46.456360" lon="11.800600">
                <time>2017-07-15T06:36:09Z</time>
            </trkpt>
            <trkpt lat="46.456420" lon="11.800780">
                <time>2017-07-15T06:36:10Z</time>
            </trkpt>
            <trkpt lat="46.456480" lon="11.800940">
                <time>2017-07-15T06:36:11Z</time>
            </trkpt>
            <trkpt lat="46.456550" lon="11.801130">
                <time>2017-07-15T06:36:12Z</time>
            </trkpt>
            <trkpt lat="46.456600" lon="11.801280">
                <time>2017-07-15T06:36:13Z</time>
            </trkpt>
            <trkpt lat="46.456670" lon="11.801460">
                <time>2017-07-15T06:36:14Z</time>
            </trkpt>
            <trkpt lat="46.456730" lon="11.801640">
                <time>2017-07-15T06:36:15Z</time>
            </trkpt>
            <trkpt lat="46.456810" lon="11.801780">
                <time>2017-07-15T06:36:16Z</time>
            </trkpt>
            <trkpt lat="46.456870" lon="11.801950">
                <time>2017-07-15T06:36:17Z</time>
            </trkpt>
            <trkpt lat="46.456960" lon="11.802100">
                <time>2017-07-15T06:36:18Z</time>
            </trkpt>
            <trkpt lat="46.457010" lon="11.802280">
                <time>2017-07-15T06:36:19Z</time>
            </trkpt>
            <trkpt lat="46.457050" lon="11.802470">
                <time>2017-07-15T06:36:20Z</time>
            </trkpt>
            <trkpt lat="46.457070" lon="11.802650">
                <time>2017-07-15T06:36:21Z</time>
            </trkpt>
            <trkpt lat="46.457070" lon="11.802850">
                <time>2017-07-15T06:36:22Z</time>
            </trkpt>
            <trkpt lat="46.457070" lon="11.803050">
                <time>2017-07-15T06:36:23Z</time>
            </trkpt>
            <trkpt lat="46.457080" lon="11.803240">
                <time>2017-07-15T06:36:24Z</time>
            </trkpt>
            <trkpt lat="46.457100" lon="11.803420">
                <time>2017-07-15T06:36:25Z</time>
            </trkpt>
            <trkpt lat="46.457140" lon="11.803600">
                <time>2017-07-15T06:36:26Z</time>
            </trkpt>
            <trkpt lat="46.457200" lon="11.803740">
                <time>2017-07-15T06:36:27Z</time>
            </trkpt>
            <trkpt lat="46.457280" lon="11.803880">
                <time>2017-07-15T06:36:28Z</time>
            </trkpt>
            <trkpt lat="46.457370" lon="11.803950">
                <time>2017-07-15T06:36:29Z</time>
            </trkpt>
            <trkpt lat="46.457480" lon="11.803990">
                <time>2017-07-15T06:36:30Z</time>
            </trkpt>
            <trkpt lat="46.457600" lon="11.804000">
                <time>2017-07-15T06:36:31Z</time>
            </trkpt>
            <trkpt lat="46.457720" lon="11.803980">
                <time>2017-07-15T06:36:32Z</time>
            </trkpt>
            <trkpt lat="46.457870" lon="11.803950">
                <time>2017-07-15T06:36:33Z</time>
            </trkpt>
            <trkpt lat="46.458020" lon="11.803920">
                <time>2017-07-15T06:36:34Z</time>
            </trkpt>
            <trkpt lat="46.458160" lon="11.803900">
                <time>2017-07-15T06:36:35Z</time>
            </trkpt>
            <trkpt lat="46.458300" lon="11.803910">
                <time>2017-07-15T06:36:36Z</time>
            </trkpt>
            <trkpt lat="46.458410" lon="11.803940">
                <time>2017-07-15T06:36:37Z</time>
            </trkpt>
            <trkpt lat="46.458500" lon="11.804010">
                <time>2017-07-15T06:36:38Z</time>
            </trkpt>
            <trkpt lat="46.458570" lon="11.804130">
                <time>2017-07-15T06:36:39Z</time>
            </trkpt>
            <trkpt lat="46.458570" lon="11.804280">
                <time>2017-07-15T06:36:40Z</time>
            </trkpt>
            <trkpt lat="46.458580" lon="11.804430">
                <time>2017-07-15T06:36:41Z</time>
            </trkpt>
            <trkpt lat="46.458540" lon="11.804580">
                <time>2017-07-15T06:36:42Z</time>
            </trkpt>
            <trkpt lat="46.458460" lon="11.804700">
                <time>2017-07-15T06:36:43Z</time>
            </trkpt>
            <trkpt lat="46.458380" lon="11.804840">
                <time>2017-07-15T06:36:44Z</time>
            </trkpt>
            <trkpt lat="46.458290" lon="11.804970">
                <time>2017-07-15T06:36:45Z</time>
            </trkpt>
            <trkpt lat="46.458200" lon="11.805110">
                <time>2017-07-15T06:36:46Z</time>
            </trkpt>
            <trkpt lat="46.458110" lon="11.805260">
                <time>2017-07-15T06:36:47Z</time>
            </trkpt>
            <trkpt lat="46.458030" lon="11.805400">
                <time>2017-07-15T06:36:48Z</time>
            </trkpt>
            <trkpt lat="46.457980" lon="11.805550">
                <time>2017-07-15T06:36:49Z</time>
            </trkpt>
            <trkpt lat="46.457930" lon="11.805720">
                <time>2017-07-15T06:36:50Z</time>
            </trkpt>
            <trkpt lat="46.457900" lon="11.805890">
                <time>2017-07-15T06:36:51Z</time>
            </trkpt>
            <trkpt lat="46.457860" lon="11.806100">
                <time>2017-07-15T06:36:52Z</time>
            </trkpt>
            <trkpt lat="46.457840" lon="11.806250">
                <time>2017-07-15T06:36:53Z</time>
            </trkpt>
            <trkpt lat="46.457820" lon="11.806440">
                <time>2017-07-15T06:36:54Z</time>
            </trkpt>
            <trkpt lat="46.457790" lon="11.806640">
                <time>2017-07-15T06:36:55Z</time>
            </trkpt>
            <trkpt lat="46.457790" lon="11.806820">
                <time>2017-07-15T06:36:56Z</time>
            </trkpt>
            <trkpt lat="46.457800" lon="11.807020">
                <time>2017-07-15T06:36:57Z</time>
            </trkpt>
            <trkpt lat="46.457830" lon="11.807230">
                <time>2017-07-15T06:36:58Z</time>
            </trkpt>
            <trkpt lat="46.457890" lon="11.807390">
                <time>2017-07-15T06:36:59Z</time>
            </trkpt>
            <trkpt lat="46.458000" lon="11.807550">
                <time>2017-07-15T06:37:00Z</time>
            </trkpt>
            <trkpt lat="46.458060" lon="11.807700">
                <time>2017-07-15T06:37:01Z</time>
            </trkpt>
            <trkpt lat="46.458090" lon="11.807850">
                <time>2017-07-15T06:37:02Z</time>
            </trkpt>
            <trkpt lat="46.458110" lon="11.807980">
                <time>2017-07-15T06:37:03Z</time>
            </trkpt>
            <trkpt lat="46.458100" lon="11.808100">
                <time>2017-07-15T06:37:04Z</time>
            </trkpt>
            <trkpt lat="46.458080" lon="11.808200">
                <time>2017-07-15T06:37:05Z</time>
            </trkpt>
            <trkpt lat="46.458040" lon="11.808280">
                <time>2017-07-15T06:37:06Z</time>
            </trkpt>
            <trkpt lat="46.457940" lon="11.808280">
                <time>2017-07-15T06:37:07Z</time>
            </trkpt>
            <trkpt lat="46.457800" lon="11.808250">
                <time>2017-07-15T06:37:08Z</time>
            </trkpt>
            <trkpt lat="46.457750" lon="11.808140">
                <time>2017-07-15T06:37:09Z</time>
            </trkpt>
            <trkpt lat="46.457640" lon="11.808050">
                <time>2017-07-15T06:37:10Z</time>
            </trkpt>
            <trkpt lat="46.457520" lon="11.808000">
                <time>2017-07-15T06:37:11Z</time>
            </trkpt>
            <trkpt lat="46.457400" lon="11.807970">
                <time>2017-07-15T06:37:12Z</time>
            </trkpt>
            <trkpt lat="46.457280" lon="11.807980">
                <time>2017-07-15T06:37:13Z</time>
            </trkpt>
            <trkpt lat="46.457150" lon="11.807990">
                <time>2017-07-15T06:37:14Z</time>
            </trkpt>
            <trkpt lat="46.457030" lon="11.807970">
                <time>2017-07-15T06:37:15Z</time>
            </trkpt>
            <trkpt lat="46.456910" lon="11.807910">
                <time>2017-07-15T06:37:16Z</time>
            </trkpt>
            <trkpt lat="46.456800" lon="11.807840">
                <time>2017-07-15T06:37:17Z</time>
            </trkpt>
            <trkpt lat="46.456690" lon="11.807740">
                <time>2017-07-15T06:37:18Z</time>
            </trkpt>
            <trkpt lat="46.456580" lon="11.807600">
                <time>2017-07-15T06:37:19Z</time>
            </trkpt>
            <trkpt lat="46.456490" lon="11.807470">
                <time>2017-07-15T06:37:20Z</time>
            </trkpt>
            <trkpt lat="46.456410" lon="11.807300">
                <time>2017-07-15T06:37:21Z</time>
            </trkpt>
            <trkpt lat="46.456360" lon="11.807130">
                <time>2017-07-15T06:37:22Z</time>
            </trkpt>
            <trkpt lat="46.456300" lon="11.806990">
                <time>2017-07-15T06:37:23Z</time>
            </trkpt>
            <trkpt lat="46.456230" lon="11.806880">
                <time>2017-07-15T06:37:24Z</time>
            </trkpt>
            <trkpt lat="46.456170" lon="11.806830">
                <time>2017-07-15T06:37:25Z</time>
            </trkpt>
            <trkpt lat="46.456100" lon="11.806800">
                <time>2017-07-15T06:37:26Z</time>
            </trkpt>
            <trkpt lat="46.456030" lon="11.806810">
                <time>2017-07-15T06:37:27Z</time>
            </trkpt>
            <trkpt lat="46.455960" lon="11.806890">
                <time>2017-07-15T06:37:28Z</time>
            </trkpt>
            <trkpt lat="46.455930" lon="11.807030">
                <time>2017-07-15T06:37:29Z</time>
            </trkpt>
            <trkpt lat="46.456040" lon="11.807220">
                <time>2017-07-15T06:37:30Z</time>
            </trkpt>
            <trkpt lat="46.456100" lon="11.807370">
                <time>2017-07-15T06:37:31Z</time>
            </trkpt>
            <trkpt lat="46.456170" lon="11.807540">
                <time>2017-07-15T06:37:32Z</time>
            </trkpt>
            <trkpt lat="46.456250" lon="11.807700">
                <time>2017-07-15T06:37:33Z</time>
            </trkpt>
            <trkpt lat="46.456330" lon="11.807890">
                <time>2017-07-15T06:37:34Z</time>
            </trkpt>
            <trkpt lat="46.456430" lon="11.808080">
                <time>2017-07-15T06:37:35Z</time>
            </trkpt>
            <trkpt lat="46.456520" lon="11.808260">
                <time>2017-07-15T06:37:36Z</time>
            </trkpt>
            <trkpt lat="46.456620" lon="11.808440">
                <time>2017-07-15T06:37:37Z</time>
            </trkpt>
            <trkpt lat="46.456720" lon="11.808630">
                <time>2017-07-15T06:37:38Z</time>
            </trkpt>
            <trkpt lat="46.456820" lon="11.808810">
                <time>2017-07-15T06:37:39Z</time>
            </trkpt>
            <trkpt lat="46.456920" lon="11.809020">
                <time>2017-07-15T06:37:40Z</time>
            </trkpt>
            <trkpt lat="46.457010" lon="11.809190">
                <time>2017-07-15T06:37:41Z</time>
            </trkpt>
            <trkpt lat="46.457090" lon="11.809390">
                <time>2017-07-15T06:37:42Z</time>
            </trkpt>
            <trkpt lat="46.457150" lon="11.809610">
                <time>2017-07-15T06:37:43Z</time>
            </trkpt>
            <trkpt lat="46.457190" lon="11.809810">
                <time>2017-07-15T06:37:44Z</time>
            </trkpt>
            <trkpt lat="46.457240" lon="11.810020">
                <time>2017-07-15T06:37:45Z</time>
            </trkpt>
            <trkpt lat="46.457290" lon="11.810250">
                <time>2017-07-15T06:37:46Z</time>
            </trkpt>
            <trkpt lat="46.457330" lon="11.810440">
                <time>2017-07-15T06:37:47Z</time>
            </trkpt>
            <trkpt lat="46.457410" lon="11.810660">
                <time>2017-07-15T06:37:48Z</time>
            </trkpt>
            <trkpt lat="46.457480" lon="11.810830">
                <time>2017-07-15T06:37:49Z</time>
            </trkpt>
            <trkpt lat="46.457570" lon="11.811010">
                <time>2017-07-15T06:37:50Z</time>
            </trkpt>
            <trkpt lat="46.457650" lon="11.811200">
                <time>2017-07-15T06:37:51Z</time>
            </trkpt>
            <trkpt lat="46.457720" lon="11.811350">
                <time>2017-07-15T06:37:52Z</time>
            </trkpt>
            <trkpt lat="46.457770" lon="11.811520">
                <time>2017-07-15T06:37:53Z</time>
            </trkpt>
            <trkpt lat="46.457790" lon="11.811710">
                <time>2017-07-15T06:37:54Z</time>
            </trkpt>
            <trkpt lat="46.457800" lon="11.811920">
                <time>2017-07-15T06:37:55Z</time>
            </trkpt>
            <trkpt lat="46.457820" lon="11.812140">
                <time>2017-07-15T06:37:56Z</time>
            </trkpt>
            <trkpt lat="46.457860" lon="11.812330">
                <time>2017-07-15T06:37:57Z</time>
            </trkpt>
            <trkpt lat="46.457910" lon="11.812530">
                <time>2017-07-15T06:37:58Z</time>
            </trkpt>
            <trkpt lat="46.457990" lon="11.812730">
                <time>2017-07-15T06:37:59Z</time>
            </trkpt>
            <trkpt lat="46.458070" lon="11.812920">
                <time>2017-07-15T06:38:00Z</time>
            </trkpt>
            <trkpt lat="46.458140" lon="11.813120">
                <time>2017-07-15T06:38:01Z</time>
            </trkpt>
            <trkpt lat="46.458230" lon="11.813340">
                <time>2017-07-15T06:38:02Z</time>
            </trkpt>
            <trkpt lat="46.458310" lon="11.813530">
                <time>2017-07-15T06:38:03Z</time>
            </trkpt>
            <trkpt lat="46.458390" lon="11.813760">
                <time>2017-07-15T06:38:04Z</time>
            </trkpt>
            <trkpt lat="46.458460" lon="11.813970">
                <time>2017-07-15T06:38:05Z</time>
            </trkpt>
            <trkpt lat="46.458540" lon="11.814190">
                <time>2017-07-15T06:38:06Z</time>
            </trkpt>
            <trkpt lat="46.458620" lon="11.814430">
                <time>2017-07-15T06:38:07Z</time>
            </trkpt>
            <trkpt lat="46.458690" lon="11.814620">
                <time>2017-07-15T06:38:08Z</time>
            </trkpt>
            <trkpt lat="46.458780" lon="11.814820">
                <time>2017-07-15T06:38:09Z</time>
            </trkpt>
            <trkpt lat="46.458870" lon="11.815010">
                <time>2017-07-15T06:38:10Z</time>
            </trkpt>
            <trkpt lat="46.458970" lon="11.815180">
                <time>2017-07-15T06:38:11Z</time>
            </trkpt>
            <trkpt lat="46.459070" lon="11.815360">
                <time>2017-07-15T06:38:12Z</time>
            </trkpt>
            <trkpt lat="46.459150" lon="11.815500">
                <time>2017-07-15T06:38:13Z</time>
            </trkpt>
            <trkpt lat="46.459220" lon="11.815650">
                <time>2017-07-15T06:38:14Z</time>
            </trkpt>
            <trkpt lat="46.459280" lon="11.815820">
                <time>2017-07-15T06:38:15Z</time>
            </trkpt>
            <trkpt lat="46.459300" lon="11.816000">
                <time>2017-07-15T06:38:16Z</time>
            </trkpt>
            <trkpt lat="46.459310" lon="11.816200">
                <time>2017-07-15T06:38:17Z</time>
            </trkpt>
            <trkpt lat="46.459320" lon="11.816410">
                <time>2017-07-15T06:38:18Z</time>
            </trkpt>
            <trkpt lat="46.459350" lon="11.816580">
                <time>2017-07-15T06:38:19Z</time>
            </trkpt>
            <trkpt lat="46.459400" lon="11.816780">
                <time>2017-07-15T06:38:20Z</time>
            </trkpt>
            <trkpt lat="46.459460" lon="11.816950">
                <time>2017-07-15T06:38:21Z</time>
            </trkpt>
            <trkpt lat="46.459500" lon="11.817130">
                <time>2017-07-15T06:38:22Z</time>
            </trkpt>
            <trkpt lat="46.459520" lon="11.817330">
                <time>2017-07-15T06:38:23Z</time>
            </trkpt>
            <trkpt lat="46.459520" lon="11.817500">
                <time>2017-07-15T06:38:24Z</time>
            </trkpt>
            <trkpt lat="46.459490" lon="11.817680">
                <time>2017-07-15T06:38:25Z</time>
            </trkpt>
            <trkpt lat="46.459430" lon="11.817850">
                <time>2017-07-15T06:38:26Z</time>
            </trkpt>
            <trkpt lat="46.459360" lon="11.818020">
                <time>2017-07-15T06:38:27Z</time>
            </trkpt>
            <trkpt lat="46.459260" lon="11.818220">
                <time>2017-07-15T06:38:28Z</time>
            </trkpt>
            <trkpt lat="46.459170" lon="11.818380">
                <time>2017-07-15T06:38:29Z</time>
            </trkpt>
            <trkpt lat="46.459080" lon="11.818550">
                <time>2017-07-15T06:38:30Z</time>
            </trkpt>
            <trkpt lat="46.459000" lon="11.818710">
                <time>2017-07-15T06:38:31Z</time>
            </trkpt>
            <trkpt lat="46.458950" lon="11.818860">
                <time>2017-07-15T06:38:32Z</time>
            </trkpt>
            <trkpt lat="46.458930" lon="11.819030">
                <time>2017-07-15T06:38:33Z</time>
            </trkpt>
            <trkpt lat="46.458950" lon="11.819210">
                <time>2017-07-15T06:38:34Z</time>
            </trkpt>
            <trkpt lat="46.458990" lon="11.819370">
                <time>2017-07-15T06:38:35Z</time>
            </trkpt>
            <trkpt lat="46.459050" lon="11.819570">
                <time>2017-07-15T06:38:36Z</time>
            </trkpt>
            <trkpt lat="46.459110" lon="11.819750">
                <time>2017-07-15T06:38:37Z</time>
            </trkpt>
            <trkpt lat="46.459170" lon="11.819960">
                <time>2017-07-15T06:38:38Z</time>
            </trkpt>
            <trkpt lat="46.459230" lon="11.820190">
                <time>2017-07-15T06:38:39Z</time>
            </trkpt>
            <trkpt lat="46.459280" lon="11.820410">
                <time>2017-07-15T06:38:40Z</time>
            </trkpt>
            <trkpt lat="46.459320" lon="11.820650">
                <time>2017-07-15T06:38:41Z</time>
            </trkpt>
            <trkpt lat="46.459360" lon="11.820890">
                <time>2017-07-15T06:38:42Z</time>
            </trkpt>
            <trkpt lat="46.459400" lon="11.821120">
                <time>2017-07-15T06:38:43Z</time>
            </trkpt>
            <trkpt lat="46.459460" lon="11.821360">
                <time>2017-07-15T06:38:44Z</time>
            </trkpt>
            <trkpt lat="46.459510" lon="11.821580">
                <time>2017-07-15T06:38:45Z</time>
            </trkpt>
            <trkpt lat="46.459580" lon="11.821810">
                <time>2017-07-15T06:38:46Z</time>
            </trkpt>
            <trkpt lat="46.459660" lon="11.822060">
                <time>2017-07-15T06:38:47Z</time>
            </trkpt>
            <trkpt lat="46.459720" lon="11.822280">
                <time>2017-07-15T06:38:48Z</time>
            </trkpt>
            <trkpt lat="46.459790" lon="11.822510">
                <time>2017-07-15T06:38:49Z</time>
            </trkpt>
            <trkpt lat="46.459870" lon="11.822760">
                <time>2017-07-15T06:38:50Z</time>
            </trkpt>
            <trkpt lat="46.459940" lon="11.822980">
                <time>2017-07-15T06:38:51Z</time>
            </trkpt>
            <trkpt lat="46.460020" lon="11.823220">
                <time>2017-07-15T06:38:52Z</time>
            </trkpt>
            <trkpt lat="46.460100" lon="11.823430">
                <time>2017-07-15T06:38:53Z</time>
            </trkpt>
            <trkpt lat="46.460170" lon="11.823650">
                <time>2017-07-15T06:38:54Z</time>
            </trkpt>
            <trkpt lat="46.460250" lon="11.823900">
                <time>2017-07-15T06:38:55Z</time>
            </trkpt>
            <trkpt lat="46.460320" lon="11.824110">
                <time>2017-07-15T06:38:56Z</time>
            </trkpt>
            <trkpt lat="46.460380" lon="11.824340">
                <time>2017-07-15T06:38:57Z</time>
            </trkpt>
            <trkpt lat="46.460440" lon="11.824580">
                <time>2017-07-15T06:38:58Z</time>
            </trkpt>
            <trkpt lat="46.460500" lon="11.824820">
                <time>2017-07-15T06:38:59Z</time>
            </trkpt>
            <trkpt lat="46.460550" lon="11.825090">
                <time>2017-07-15T06:39:00Z</time>
            </trkpt>
            <trkpt lat="46.460580" lon="11.825330">
                <time>2017-07-15T06:39:01Z</time>
            </trkpt>
            <trkpt lat="46.460610" lon="11.825600">
                <time>2017-07-15T06:39:02Z</time>
            </trkpt>
            <trkpt lat="46.460640" lon="11.825870">
                <time>2017-07-15T06:39:03Z</time>
            </trkpt>
            <trkpt lat="46.460670" lon="11.826110">
                <time>2017-07-15T06:39:04Z</time>
            </trkpt>
            <trkpt lat="46.460710" lon="11.826370">
                <time>2017-07-15T06:39:05Z</time>
            </trkpt>
            <trkpt lat="46.460760" lon="11.826630">
                <time>2017-07-15T06:39:06Z</time>
            </trkpt>
            <trkpt lat="46.460810" lon="11.826860">
                <time>2017-07-15T06:39:07Z</time>
            </trkpt>
            <trkpt lat="46.460890" lon="11.827110">
                <time>2017-07-15T06:39:08Z</time>
            </trkpt>
            <trkpt lat="46.460970" lon="11.827320">
                <time>2017-07-15T06:39:09Z</time>
            </trkpt>
            <trkpt lat="46.461050" lon="11.827570">
                <time>2017-07-15T06:39:10Z</time>
            </trkpt>
            <trkpt lat="46.461130" lon="11.827830">
                <time>2017-07-15T06:39:11Z</time>
            </trkpt>
            <trkpt lat="46.461200" lon="11.828060">
                <time>2017-07-15T06:39:12Z</time>
            </trkpt>
            <trkpt lat="46.461260" lon="11.828330">
                <time>2017-07-15T06:39:13Z</time>
            </trkpt>
            <trkpt lat="46.461320" lon="11.828590">
                <time>2017-07-15T06:39:14Z</time>
            </trkpt>
            <trkpt lat="46.461370" lon="11.828870">
                <time>2017-07-15T06:39:15Z</time>
            </trkpt>
            <trkpt lat="46.461410" lon="11.829180">
                <time>2017-07-15T06:39:16Z</time>
            </trkpt>
            <trkpt lat="46.461450" lon="11.829430">
                <time>2017-07-15T06:39:17Z</time>
            </trkpt>
            <trkpt lat="46.461490" lon="11.829710">
                <time>2017-07-15T06:39:18Z</time>
            </trkpt>
            <trkpt lat="46.461540" lon="11.829990">
                <time>2017-07-15T06:39:19Z</time>
            </trkpt>
            <trkpt lat="46.461570" lon="11.830240">
                <time>2017-07-15T06:39:20Z</time>
            </trkpt>
            <trkpt lat="46.461610" lon="11.830500">
                <time>2017-07-15T06:39:21Z</time>
            </trkpt>
            <trkpt lat="46.461650" lon="11.830760">
                <time>2017-07-15T06:39:22Z</time>
            </trkpt>
            <trkpt lat="46.461710" lon="11.830990">
                <time>2017-07-15T06:39:23Z</time>
            </trkpt>
            <trkpt lat="46.461780" lon="11.831230">
                <time>2017-07-15T06:39:24Z</time>
            </trkpt>
            <trkpt lat="46.461840" lon="11.831440">
                <time>2017-07-15T06:39:25Z</time>
            </trkpt>
            <trkpt lat="46.461910" lon="11.831670">
                <time>2017-07-15T06:39:26Z</time>
            </trkpt>
            <trkpt lat="46.461970" lon="11.831890">
                <time>2017-07-15T06:39:27Z</time>
            </trkpt>
            <trkpt lat="46.462000" lon="11.832080">
                <time>2017-07-15T06:39:28Z</time>
            </trkpt>
            <trkpt lat="46.462020" lon="11.832300">
                <time>2017-07-15T06:39:29Z</time>
            </trkpt>
            <trkpt lat="46.462030" lon="11.832500">
                <time>2017-07-15T06:39:30Z</time>
            </trkpt>
            <trkpt lat="46.462040" lon="11.832690">
                <time>2017-07-15T06:39:31Z</time>
            </trkpt>
            <trkpt lat="46.462020" lon="11.832870">
                <time>2017-07-15T06:39:32Z</time>
            </trkpt>
            <trkpt lat="46.462030" lon="11.833010">
                <time>2017-07-15T06:39:33Z</time>
            </trkpt>
            <trkpt lat="46.462030" lon="11.833140">
                <time>2017-07-15T06:39:34Z</time>
            </trkpt>
            <trkpt lat="46.462050" lon="11.833280">
                <time>2017-07-15T06:39:35Z</time>
            </trkpt>
            <trkpt lat="46.462080" lon="11.833380">
                <time>2017-07-15T06:39:36Z</time>
            </trkpt>
            <trkpt lat="46.462130" lon="11.833450">
                <time>2017-07-15T06:39:37Z</time>
            </trkpt>
            <trkpt lat="46.462190" lon="11.833520">
                <time>2017-07-15T06:39:38Z</time>
            </trkpt>
            <trkpt lat="46.462260" lon="11.833520">
                <time>2017-07-15T06:39:39Z</time>
            </trkpt>
            <trkpt lat="46.462320" lon="11.833460">
                <time>2017-07-15T06:39:40Z</time>
            </trkpt>
            <trkpt lat="46.462380" lon="11.833310">
                <time>2017-07-15T06:39:41Z</time>
            </trkpt>
            <trkpt lat="46.462440" lon="11.833100">
                <time>2017-07-15T06:39:42Z</time>
            </trkpt>
            <trkpt lat="46.462430" lon="11.832900">
                <time>2017-07-15T06:39:43Z</time>
            </trkpt>
            <trkpt lat="46.462400" lon="11.832730">
                <time>2017-07-15T06:39:44Z</time>
            </trkpt>
            <trkpt lat="46.462390" lon="11.832530">
                <time>2017-07-15T06:39:45Z</time>
            </trkpt>
            <trkpt lat="46.462360" lon="11.832340">
                <time>2017-07-15T06:39:46Z</time>
            </trkpt>
            <trkpt lat="46.462350" lon="11.832110">
                <time>2017-07-15T06:39:47Z</time>
            </trkpt>
            <trkpt lat="46.462340" lon="11.831870">
                <time>2017-07-15T06:39:48Z</time>
            </trkpt>
            <trkpt lat="46.462330" lon="11.831660">
                <time>2017-07-15T06:39:49Z</time>
            </trkpt>
            <trkpt lat="46.462320" lon="11.831420">
                <time>2017-07-15T06:39:50Z</time>
            </trkpt>
            <trkpt lat="46.462280" lon="11.831180">
                <time>2017-07-15T06:39:51Z</time>
            </trkpt>
            <trkpt lat="46.462250" lon="11.830950">
                <time>2017-07-15T06:39:52Z</time>
            </trkpt>
            <trkpt lat="46.462230" lon="11.830720">
                <time>2017-07-15T06:39:53Z</time>
            </trkpt>
            <trkpt lat="46.462220" lon="11.830470">
                <time>2017-07-15T06:39:54Z</time>
            </trkpt>
            <trkpt lat="46.462210" lon="11.830250">
                <time>2017-07-15T06:39:55Z</time>
            </trkpt>
            <trkpt lat="46.462200" lon="11.830020">
                <time>2017-07-15T06:39:56Z</time>
            </trkpt>
            <trkpt lat="46.462200" lon="11.829810">
                <time>2017-07-15T06:39:57Z</time>
            </trkpt>
            <trkpt lat="46.462190" lon="11.829610">
                <time>2017-07-15T06:39:58Z</time>
            </trkpt>
            <trkpt lat="46.462220" lon="11.829380">
                <time>2017-07-15T06:39:59Z</time>
            </trkpt>
            <trkpt lat="46.462260" lon="11.829190">
                <time>2017-07-15T06:40:00Z</time>
            </trkpt>
            <trkpt lat="46.462330" lon="11.829000">
                <time>2017-07-15T06:40:01Z</time>
            </trkpt>
            <trkpt lat="46.462420" lon="11.828820">
                <time>2017-07-15T06:40:02Z</time>
            </trkpt>
            <trkpt lat="46.462510" lon="11.828660">
                <time>2017-07-15T06:40:03Z</time>
            </trkpt>
            <trkpt lat="46.462630" lon="11.828490">
                <time>2017-07-15T06:40:04Z</time>
            </trkpt>
            <trkpt lat="46.462720" lon="11.828350">
                <time>2017-07-15T06:40:05Z</time>
            </trkpt>
            <trkpt lat="46.462800" lon="11.828170">
                <time>2017-07-15T06:40:06Z</time>
            </trkpt>
            <trkpt lat="46.462860" lon="11.827970">
                <time>2017-07-15T06:40:07Z</time>
            </trkpt>
            <trkpt lat="46.462900" lon="11.827790">
                <time>2017-07-15T06:40:08Z</time>
            </trkpt>
            <trkpt lat="46.462910" lon="11.827570">
                <time>2017-07-15T06:40:09Z</time>
            </trkpt>
            <trkpt lat="46.462920" lon="11.827330">
                <time>2017-07-15T06:40:10Z</time>
            </trkpt>
            <trkpt lat="46.462920" lon="11.827120">
                <time>2017-07-15T06:40:11Z</time>
            </trkpt>
            <trkpt lat="46.462930" lon="11.826890">
                <time>2017-07-15T06:40:12Z</time>
            </trkpt>
            <trkpt lat="46.462940" lon="11.826680">
                <time>2017-07-15T06:40:13Z</time>
            </trkpt>
            <trkpt lat="46.462950" lon="11.826480">
                <time>2017-07-15T06:40:14Z</time>
            </trkpt>
            <trkpt lat="46.462960" lon="11.826290">
                <time>2017-07-15T06:40:15Z</time>
            </trkpt>
            <trkpt lat="46.462970" lon="11.826140">
                <time>2017-07-15T06:40:16Z</time>
            </trkpt>
            <trkpt lat="46.462980" lon="11.825990">
                <time>2017-07-15T06:40:17Z</time>
            </trkpt>
            <trkpt lat="46.462990" lon="11.825880">
                <time>2017-07-15T06:40:18Z</time>
            </trkpt>
            <trkpt lat="46.463030" lon="11.825810">
                <time>2017-07-15T06:40:19Z</time>
            </trkpt>
            <trkpt lat="46.463080" lon="11.825750">
                <time>2017-07-15T06:40:20Z</time>
            </trkpt>
            <trkpt lat="46.463140" lon="11.825750">
                <time>2017-07-15T06:40:21Z</time>
            </trkpt>
            <trkpt lat="46.463200" lon="11.825800">
                <time>2017-07-15T06:40:22Z</time>
            </trkpt>
            <trkpt lat="46.463150" lon="11.826000">
                <time>2017-07-15T06:40:23Z</time>
            </trkpt>
            <trkpt lat="46.463110" lon="11.826120">
                <time>2017-07-15T06:40:24Z</time>
            </trkpt>
            <trkpt lat="46.463080" lon="11.826260">
                <time>2017-07-15T06:40:25Z</time>
            </trkpt>
            <trkpt lat="46.463040" lon="11.826420">
                <time>2017-07-15T06:40:26Z</time>
            </trkpt>
            <trkpt lat="46.463030" lon="11.826570">
                <time>2017-07-15T06:40:27Z</time>
            </trkpt>
            <trkpt lat="46.463050" lon="11.826780">
                <time>2017-07-15T06:40:28Z</time>
            </trkpt>
            <trkpt lat="46.463060" lon="11.826970">
                <time>2017-07-15T06:40:29Z</time>
            </trkpt>
            <trkpt lat="46.463090" lon="11.827180">
                <time>2017-07-15T06:40:30Z</time>
            </trkpt>
            <trkpt lat="46.463130" lon="11.827420">
                <time>2017-07-15T06:40:31Z</time>
            </trkpt>
            <trkpt lat="46.463130" lon="11.827640">
                <time>2017-07-15T06:40:32Z</time>
            </trkpt>
            <trkpt lat="46.463180" lon="11.827850">
                <time>2017-07-15T06:40:33Z</time>
            </trkpt>
            <trkpt lat="46.463230" lon="11.828070">
                <time>2017-07-15T06:40:34Z</time>
            </trkpt>
            <trkpt lat="46.463250" lon="11.828290">
                <time>2017-07-15T06:40:35Z</time>
            </trkpt>
            <trkpt lat="46.463260" lon="11.828510">
                <time>2017-07-15T06:40:36Z</time>
            </trkpt>
            <trkpt lat="46.463220" lon="11.828700">
                <time>2017-07-15T06:40:37Z</time>
            </trkpt>
            <trkpt lat="46.463170" lon="11.828880">
                <time>2017-07-15T06:40:38Z</time>
            </trkpt>
            <trkpt lat="46.463090" lon="11.829050">
                <time>2017-07-15T06:40:39Z</time>
            </trkpt>
            <trkpt lat="46.463030" lon="11.829190">
                <time>2017-07-15T06:40:40Z</time>
            </trkpt>
            <trkpt lat="46.462950" lon="11.829380">
                <time>2017-07-15T06:40:41Z</time>
            </trkpt>
            <trkpt lat="46.462900" lon="11.829570">
                <time>2017-07-15T06:40:42Z</time>
            </trkpt>
            <trkpt lat="46.462870" lon="11.829740">
                <time>2017-07-15T06:40:43Z</time>
            </trkpt>
            <trkpt lat="46.462870" lon="11.829960">
                <time>2017-07-15T06:40:44Z</time>
            </trkpt>
            <trkpt lat="46.463000" lon="11.830150">
                <time>2017-07-15T06:40:45Z</time>
            </trkpt>
            <trkpt lat="46.463090" lon="11.830350">
                <time>2017-07-15T06:40:46Z</time>
            </trkpt>
            <trkpt lat="46.463160" lon="11.830580">
                <time>2017-07-15T06:40:47Z</time>
            </trkpt>
            <trkpt lat="46.463240" lon="11.830770">
                <time>2017-07-15T06:40:48Z</time>
            </trkpt>
            <trkpt lat="46.463310" lon="11.830990">
                <time>2017-07-15T06:40:49Z</time>
            </trkpt>
            <trkpt lat="46.463370" lon="11.831220">
                <time>2017-07-15T06:40:50Z</time>
            </trkpt>
            <trkpt lat="46.463430" lon="11.831430">
                <time>2017-07-15T06:40:51Z</time>
            </trkpt>
            <trkpt lat="46.463480" lon="11.831640">
                <time>2017-07-15T06:40:52Z</time>
            </trkpt>
            <trkpt lat="46.463510" lon="11.831800">
                <time>2017-07-15T06:40:53Z</time>
            </trkpt>
            <trkpt lat="46.463510" lon="11.831960">
                <time>2017-07-15T06:40:54Z</time>
            </trkpt>
            <trkpt lat="46.463520" lon="11.832090">
                <time>2017-07-15T06:40:55Z</time>
            </trkpt>
            <trkpt lat="46.463560" lon="11.832180">
                <time>2017-07-15T06:40:56Z</time>
            </trkpt>
            <trkpt lat="46.463590" lon="11.832250">
                <time>2017-07-15T06:40:57Z</time>
            </trkpt>
            <trkpt lat="46.463640" lon="11.832300">
                <time>2017-07-15T06:40:58Z</time>
            </trkpt>
            <trkpt lat="46.463700" lon="11.832270">
                <time>2017-07-15T06:40:59Z</time>
            </trkpt>
            <trkpt lat="46.463790" lon="11.832180">
                <time>2017-07-15T06:41:00Z</time>
            </trkpt>
            <trkpt lat="46.463810" lon="11.831990">
                <time>2017-07-15T06:41:01Z</time>
            </trkpt>
            <trkpt lat="46.463780" lon="11.831850">
                <time>2017-07-15T06:41:02Z</time>
            </trkpt>
            <trkpt lat="46.463700" lon="11.831680">
                <time>2017-07-15T06:41:03Z</time>
            </trkpt>
            <trkpt lat="46.463660" lon="11.831520">
                <time>2017-07-15T06:41:04Z</time>
            </trkpt>
            <trkpt lat="46.463640" lon="11.831320">
                <time>2017-07-15T06:41:05Z</time>
            </trkpt>
            <trkpt lat="46.463630" lon="11.831130">
                <time>2017-07-15T06:41:06Z</time>
            </trkpt>
            <trkpt lat="46.463640" lon="11.830910">
                <time>2017-07-15T06:41:07Z</time>
            </trkpt>
            <trkpt lat="46.463650" lon="11.830680">
                <time>2017-07-15T06:41:08Z</time>
            </trkpt>
            <trkpt lat="46.463660" lon="11.830460">
                <time>2017-07-15T06:41:09Z</time>
            </trkpt>
            <trkpt lat="46.463700" lon="11.830240">
                <time>2017-07-15T06:41:10Z</time>
            </trkpt>
            <trkpt lat="46.463730" lon="11.830000">
                <time>2017-07-15T06:41:11Z</time>
            </trkpt>
            <trkpt lat="46.463750" lon="11.829790">
                <time>2017-07-15T06:41:12Z</time>
            </trkpt>
            <trkpt lat="46.463780" lon="11.829550">
                <time>2017-07-15T06:41:13Z</time>
            </trkpt>
            <trkpt lat="46.463820" lon="11.829310">
                <time>2017-07-15T06:41:14Z</time>
            </trkpt>
            <trkpt lat="46.463850" lon="11.829080">
                <time>2017-07-15T06:41:15Z</time>
            </trkpt>
            <trkpt lat="46.463890" lon="11.828850">
                <time>2017-07-15T06:41:16Z</time>
            </trkpt>
            <trkpt lat="46.463910" lon="11.828640">
                <time>2017-07-15T06:41:17Z</time>
            </trkpt>
            <trkpt lat="46.463930" lon="11.828420">
                <time>2017-07-15T06:41:18Z</time>
            </trkpt>
            <trkpt lat="46.463940" lon="11.828190">
                <time>2017-07-15T06:41:19Z</time>
            </trkpt>
            <trkpt lat="46.463950" lon="11.828000">
                <time>2017-07-15T06:41:20Z</time>
            </trkpt>
            <trkpt lat="46.463970" lon="11.827820">
                <time>2017-07-15T06:41:21Z</time>
            </trkpt>
            <trkpt lat="46.463960" lon="11.827670">
                <time>2017-07-15T06:41:22Z</time>
            </trkpt>
            <trkpt lat="46.463960" lon="11.827520">
                <time>2017-07-15T06:41:23Z</time>
            </trkpt>
            <trkpt lat="46.463960" lon="11.827400">
                <time>2017-07-15T06:41:24Z</time>
            </trkpt>
            <trkpt lat="46.463970" lon="11.827320">
                <time>2017-07-15T06:41:25Z</time>
            </trkpt>
            <trkpt lat="46.463980" lon="11.827250">
                <time>2017-07-15T06:41:26Z</time>
            </trkpt>
            <trkpt lat="46.463980" lon="11.827190">
                <time>2017-07-15T06:41:27Z</time>
            </trkpt>
            <trkpt lat="46.464000" lon="11.827140">
                <time>2017-07-15T06:41:28Z</time>
            </trkpt>
            <trkpt lat="46.464030" lon="11.827090">
                <time>2017-07-15T06:41:29Z</time>
            </trkpt>
            <trkpt lat="46.464070" lon="11.827050">
                <time>2017-07-15T06:41:30Z</time>
            </trkpt>
            <trkpt lat="46.464130" lon="11.827050">
                <time>2017-07-15T06:41:31Z</time>
            </trkpt>
            <trkpt lat="46.464180" lon="11.827090">
                <time>2017-07-15T06:41:32Z</time>
            </trkpt>
            <trkpt lat="46.464210" lon="11.827170">
                <time>2017-07-15T06:41:33Z</time>
            </trkpt>
            <trkpt lat="46.464220" lon="11.827260">
                <time>2017-07-15T06:41:34Z</time>
            </trkpt>
            <trkpt lat="46.464190" lon="11.827370">
                <time>2017-07-15T06:41:35Z</time>
            </trkpt>
            <trkpt lat="46.464180" lon="11.827460">
                <time>2017-07-15T06:41:36Z</time>
            </trkpt>
            <trkpt lat="46.464170" lon="11.827570">
                <time>2017-07-15T06:41:37Z</time>
            </trkpt>
            <trkpt lat="46.464170" lon="11.827690">
                <time>2017-07-15T06:41:38Z</time>
            </trkpt>
            <trkpt lat="46.464170" lon="11.827850">
                <time>2017-07-15T06:41:39Z</time>
            </trkpt>
            <trkpt lat="46.464180" lon="11.828060">
                <time>2017-07-15T06:41:40Z</time>
            </trkpt>
            <trkpt lat="46.464190" lon="11.828260">
                <time>2017-07-15T06:41:41Z</time>
            </trkpt>
            <trkpt lat="46.464210" lon="11.828490">
                <time>2017-07-15T06:41:42Z</time>
            </trkpt>
            <trkpt lat="46.464240" lon="11.828750">
                <time>2017-07-15T06:41:43Z</time>
            </trkpt>
            <trkpt lat="46.464260" lon="11.828990">
                <time>2017-07-15T06:41:44Z</time>
            </trkpt>
            <trkpt lat="46.464270" lon="11.829250">
                <time>2017-07-15T06:41:45Z</time>
            </trkpt>
            <trkpt lat="46.464280" lon="11.829530">
                <time>2017-07-15T06:41:46Z</time>
            </trkpt>
            <trkpt lat="46.464300" lon="11.829760">
                <time>2017-07-15T06:41:47Z</time>
            </trkpt>
            <trkpt lat="46.464320" lon="11.830010">
                <time>2017-07-15T06:41:48Z</time>
            </trkpt>
            <trkpt lat="46.464340" lon="11.830220">
                <time>2017-07-15T06:41:49Z</time>
            </trkpt>
            <trkpt lat="46.464380" lon="11.830440">
                <time>2017-07-15T06:41:50Z</time>
            </trkpt>
            <trkpt lat="46.464420" lon="11.830660">
                <time>2017-07-15T06:41:51Z</time>
            </trkpt>
            <trkpt lat="46.464460" lon="11.830870">
                <time>2017-07-15T06:41:52Z</time>
            </trkpt>
            <trkpt lat="46.464500" lon="11.831100">
                <time>2017-07-15T06:41:53Z</time>
            </trkpt>
            <trkpt lat="46.464530" lon="11.831340">
                <time>2017-07-15T06:41:54Z</time>
            </trkpt>
            <trkpt lat="46.464560" lon="11.831580">
                <time>2017-07-15T06:41:55Z</time>
            </trkpt>
            <trkpt lat="46.464590" lon="11.831830">
                <time>2017-07-15T06:41:56Z</time>
            </trkpt>
            <trkpt lat="46.464620" lon="11.832030">
                <time>2017-07-15T06:41:57Z</time>
            </trkpt>
            <trkpt lat="46.464670" lon="11.832230">
                <time>2017-07-15T06:41:58Z</time>
            </trkpt>
            <trkpt lat="46.464760" lon="11.832400">
                <time>2017-07-15T06:41:59Z</time>
            </trkpt>
            <trkpt lat="46.464850" lon="11.832530">
                <time>2017-07-15T06:42:00Z</time>
            </trkpt>
            <trkpt lat="46.464970" lon="11.832650">
                <time>2017-07-15T06:42:01Z</time>
            </trkpt>
            <trkpt lat="46.465090" lon="11.832770">
                <time>2017-07-15T06:42:02Z</time>
            </trkpt>
            <trkpt lat="46.465180" lon="11.832880">
                <time>2017-07-15T06:42:03Z</time>
            </trkpt>
            <trkpt lat="46.465270" lon="11.833050">
                <time>2017-07-15T06:42:04Z</time>
            </trkpt>
            <trkpt lat="46.465320" lon="11.833220">
                <time>2017-07-15T06:42:05Z</time>
            </trkpt>
            <trkpt lat="46.465360" lon="11.833430">
                <time>2017-07-15T06:42:06Z</time>
            </trkpt>
            <trkpt lat="46.465380" lon="11.833660">
                <time>2017-07-15T06:42:07Z</time>
            </trkpt>
            <trkpt lat="46.465410" lon="11.833870">
                <time>2017-07-15T06:42:08Z</time>
            </trkpt>
            <trkpt lat="46.465450" lon="11.834080">
                <time>2017-07-15T06:42:09Z</time>
            </trkpt>
            <trkpt lat="46.465520" lon="11.834270">
                <time>2017-07-15T06:42:10Z</time>
            </trkpt>
            <trkpt lat="46.465620" lon="11.834430">
                <time>2017-07-15T06:42:11Z</time>
            </trkpt>
            <trkpt lat="46.465740" lon="11.834580">
                <time>2017-07-15T06:42:12Z</time>
            </trkpt>
            <trkpt lat="46.465860" lon="11.834720">
                <time>2017-07-15T06:42:13Z</time>
            </trkpt>
            <trkpt lat="46.466000" lon="11.834880">
                <time>2017-07-15T06:42:14Z</time>
            </trkpt>
            <trkpt lat="46.466140" lon="11.835060">
                <time>2017-07-15T06:42:15Z</time>
            </trkpt>
            <trkpt lat="46.466270" lon="11.835210">
                <time>2017-07-15T06:42:16Z</time>
            </trkpt>
            <trkpt lat="46.466410" lon="11.835370">
                <time>2017-07-15T06:42:17Z</time>
            </trkpt>
            <trkpt lat="46.466560" lon="11.835520">
                <time>2017-07-15T06:42:18Z</time>
            </trkpt>
            <trkpt lat="46.466690" lon="11.835650">
                <time>2017-07-15T06:42:19Z</time>
            </trkpt>
            <trkpt lat="46.466820" lon="11.835800">
                <time>2017-07-15T06:42:20Z</time>
            </trkpt>
            <trkpt lat="46.466940" lon="11.835920">
                <time>2017-07-15T06:42:21Z</time>
            </trkpt>
            <trkpt lat="46.467000" lon="11.836120">
                <time>2017-07-15T06:42:22Z</time>
            </trkpt>
            <trkpt lat="46.467080" lon="11.836300">
                <time>2017-07-15T06:42:23Z</time>
            </trkpt>
            <trkpt lat="46.467140" lon="11.836450">
                <time>2017-07-15T06:42:24Z</time>
            </trkpt>
            <trkpt lat="46.467220" lon="11.836600">
                <time>2017-07-15T06:42:25Z</time>
            </trkpt>
            <trkpt lat="46.467320" lon="11.836710">
                <time>2017-07-15T06:42:26Z</time>
            </trkpt>
            <trkpt lat="46.467420" lon="11.836810">
                <time>2017-07-15T06:42:27Z</time>
            </trkpt>
            <trkpt lat="46.467530" lon="11.836940">
                <time>2017-07-15T06:42:28Z</time>
            </trkpt>
            <trkpt lat="46.467610" lon="11.837090">
                <time>2017-07-15T06:42:29Z</time>
            </trkpt>
            <trkpt lat="46.467690" lon="11.837250">
                <time>2017-07-15T06:42:30Z</time>
            </trkpt>
            <trkpt lat="46.467760" lon="11.837450">
                <time>2017-07-15T06:42:31Z</time>
            </trkpt>
            <trkpt lat="46.467820" lon="11.837630">
                <time>2017-07-15T06:42:32Z</time>
            </trkpt>
            <trkpt lat="46.467860" lon="11.837850">
                <time>2017-07-15T06:42:33Z</time>
            </trkpt>
            <trkpt lat="46.467900" lon="11.838090">
                <time>2017-07-15T06:42:34Z</time>
            </trkpt>
            <trkpt lat="46.467950" lon="11.838310">
                <time>2017-07-15T06:42:35Z</time>
            </trkpt>
            <trkpt lat="46.468000" lon="11.838550">
                <time>2017-07-15T06:42:36Z</time>
            </trkpt>
            <trkpt lat="46.468040" lon="11.838760">
                <time>2017-07-15T06:42:37Z</time>
            </trkpt>
            <trkpt lat="46.468070" lon="11.838960">
                <time>2017-07-15T06:42:38Z</time>
            </trkpt>
            <trkpt lat="46.468110" lon="11.839160">
                <time>2017-07-15T06:42:39Z</time>
            </trkpt>
            <trkpt lat="46.468140" lon="11.839350">
                <time>2017-07-15T06:42:40Z</time>
            </trkpt>
            <trkpt lat="46.468160" lon="11.839560">
                <time>2017-07-15T06:42:41Z</time>
            </trkpt>
            <trkpt lat="46.468200" lon="11.839760">
                <time>2017-07-15T06:42:42Z</time>
            </trkpt>
            <trkpt lat="46.468220" lon="11.839970">
                <time>2017-07-15T06:42:43Z</time>
            </trkpt>
            <trkpt lat="46.468250" lon="11.840200">
                <time>2017-07-15T06:42:44Z</time>
            </trkpt>
            <trkpt lat="46.468270" lon="11.840400">
                <time>2017-07-15T06:42:45Z</time>
            </trkpt>
            <trkpt lat="46.468310" lon="11.840610">
                <time>2017-07-15T06:42:46Z</time>
            </trkpt>
            <trkpt lat="46.468360" lon="11.840820">
                <time>2017-07-15T06:42:47Z</time>
            </trkpt>
            <trkpt lat="46.468390" lon="11.841030">
                <time>2017-07-15T06:42:48Z</time>
            </trkpt>
            <trkpt lat="46.468410" lon="11.841250">
                <time>2017-07-15T06:42:49Z</time>
            </trkpt>
            <trkpt lat="46.468420" lon="11.841460">
                <time>2017-07-15T06:42:50Z</time>
            </trkpt>
            <trkpt lat="46.468440" lon="11.841630">
                <time>2017-07-15T06:42:51Z</time>
            </trkpt>
            <trkpt lat="46.468470" lon="11.841790">
                <time>2017-07-15T06:42:52Z</time>
            </trkpt>
            <trkpt lat="46.468520" lon="11.841910">
                <time>2017-07-15T06:42:53Z</time>
            </trkpt>
            <trkpt lat="46.468600" lon="11.842010">
                <time>2017-07-15T06:42:54Z</time>
            </trkpt>
            <trkpt lat="46.468680" lon="11.842130">
                <time>2017-07-15T06:42:55Z</time>
            </trkpt>
            <trkpt lat="46.468740" lon="11.842220">
                <time>2017-07-15T06:42:56Z</time>
            </trkpt>
            <trkpt lat="46.468780" lon="11.842360">
                <time>2017-07-15T06:42:57Z</time>
            </trkpt>
            <trkpt lat="46.468810" lon="11.842490">
                <time>2017-07-15T06:42:58Z</time>
            </trkpt>
            <trkpt lat="46.468800" lon="11.842620">
                <time>2017-07-15T06:42:59Z</time>
            </trkpt>
            <trkpt lat="46.468660" lon="11.842740">
                <time>2017-07-15T06:43:00Z</time>
            </trkpt>
            <trkpt lat="46.468590" lon="11.842820">
                <time>2017-07-15T06:43:01Z</time>
            </trkpt>
            <trkpt lat="46.468490" lon="11.842950">
                <time>2017-07-15T06:43:02Z</time>
            </trkpt>
            <trkpt lat="46.468410" lon="11.843100">
                <time>2017-07-15T06:43:03Z</time>
            </trkpt>
            <trkpt lat="46.468340" lon="11.843260">
                <time>2017-07-15T06:43:04Z</time>
            </trkpt>
            <trkpt lat="46.468270" lon="11.843430">
                <time>2017-07-15T06:43:05Z</time>
            </trkpt>
            <trkpt lat="46.468190" lon="11.843640">
                <time>2017-07-15T06:43:06Z</time>
            </trkpt>
            <trkpt lat="46.468130" lon="11.843830">
                <time>2017-07-15T06:43:07Z</time>
            </trkpt>
            <trkpt lat="46.468050" lon="11.844040">
                <time>2017-07-15T06:43:08Z</time>
            </trkpt>
            <trkpt lat="46.467980" lon="11.844240">
                <time>2017-07-15T06:43:09Z</time>
            </trkpt>
            <trkpt lat="46.467910" lon="11.844460">
                <time>2017-07-15T06:43:10Z</time>
            </trkpt>
            <trkpt lat="46.467830" lon="11.844690">
                <time>2017-07-15T06:43:11Z</time>
            </trkpt>
            <trkpt lat="46.467770" lon="11.844900">
                <time>2017-07-15T06:43:12Z</time>
            </trkpt>
            <trkpt lat="46.467690" lon="11.845120">
                <time>2017-07-15T06:43:13Z</time>
            </trkpt>
            <trkpt lat="46.467620" lon="11.845340">
                <time>2017-07-15T06:43:14Z</time>
            </trkpt>
            <trkpt lat="46.467550" lon="11.845550">
                <time>2017-07-15T06:43:15Z</time>
            </trkpt>
            <trkpt lat="46.467470" lon="11.845790">
                <time>2017-07-15T06:43:16Z</time>
            </trkpt>
            <trkpt lat="46.467400" lon="11.845990">
                <time>2017-07-15T06:43:17Z</time>
            </trkpt>
            <trkpt lat="46.467350" lon="11.846200">
                <time>2017-07-15T06:43:18Z</time>
            </trkpt>
            <trkpt lat="46.467320" lon="11.846420">
                <time>2017-07-15T06:43:19Z</time>
            </trkpt>
            <trkpt lat="46.467310" lon="11.846630">
                <time>2017-07-15T06:43:20Z</time>
            </trkpt>
            <trkpt lat="46.467320" lon="11.846870">
                <time>2017-07-15T06:43:21Z</time>
            </trkpt>
            <trkpt lat="46.467350" lon="11.847120">
                <time>2017-07-15T06:43:22Z</time>
            </trkpt>
            <trkpt lat="46.467420" lon="11.847320">
                <time>2017-07-15T06:43:23Z</time>
            </trkpt>
            <trkpt lat="46.467490" lon="11.847540">
                <time>2017-07-15T06:43:24Z</time>
            </trkpt>
            <trkpt lat="46.467550" lon="11.847750">
                <time>2017-07-15T06:43:25Z</time>
            </trkpt>
            <trkpt lat="46.467620" lon="11.847950">
                <time>2017-07-15T06:43:26Z</time>
            </trkpt>
            <trkpt lat="46.467670" lon="11.848150">
                <time>2017-07-15T06:43:27Z</time>
            </trkpt>
            <trkpt lat="46.467700" lon="11.848330">
                <time>2017-07-15T06:43:28Z</time>
            </trkpt>
            <trkpt lat="46.467640" lon="11.848520">
                <time>2017-07-15T06:43:29Z</time>
            </trkpt>
            <trkpt lat="46.467610" lon="11.848710">
                <time>2017-07-15T06:43:30Z</time>
            </trkpt>
            <trkpt lat="46.467580" lon="11.848930">
                <time>2017-07-15T06:43:31Z</time>
            </trkpt>
            <trkpt lat="46.467550" lon="11.849170">
                <time>2017-07-15T06:43:32Z</time>
            </trkpt>
            <trkpt lat="46.467530" lon="11.849400">
                <time>2017-07-15T06:43:33Z</time>
            </trkpt>
            <trkpt lat="46.467500" lon="11.849650">
                <time>2017-07-15T06:43:34Z</time>
            </trkpt>
            <trkpt lat="46.467460" lon="11.849930">
                <time>2017-07-15T06:43:35Z</time>
            </trkpt>
            <trkpt lat="46.467420" lon="11.850170">
                <time>2017-07-15T06:43:36Z</time>
            </trkpt>
            <trkpt lat="46.467370" lon="11.850420">
                <time>2017-07-15T06:43:37Z</time>
            </trkpt>
            <trkpt lat="46.467310" lon="11.850680">
                <time>2017-07-15T06:43:38Z</time>
            </trkpt>
            <trkpt lat="46.467260" lon="11.850890">
                <time>2017-07-15T06:43:39Z</time>
            </trkpt>
            <trkpt lat="46.467180" lon="11.851120">
                <time>2017-07-15T06:43:40Z</time>
            </trkpt>
            <trkpt lat="46.467110" lon="11.851340">
                <time>2017-07-15T06:43:41Z</time>
            </trkpt>
            <trkpt lat="46.467050" lon="11.851570">
                <time>2017-07-15T06:43:42Z</time>
            </trkpt>
            <trkpt lat="46.467010" lon="11.851820">
                <time>2017-07-15T06:43:43Z</time>
            </trkpt>
            <trkpt lat="46.467000" lon="11.852100">
                <time>2017-07-15T06:43:44Z</time>
            </trkpt>
            <trkpt lat="46.466950" lon="11.852320">
                <time>2017-07-15T06:43:45Z</time>
            </trkpt>
            <trkpt lat="46.466870" lon="11.852570">
                <time>2017-07-15T06:43:46Z</time>
            </trkpt>
            <trkpt lat="46.466790" lon="11.852810">
                <time>2017-07-15T06:43:47Z</time>
            </trkpt>
            <trkpt lat="46.466690" lon="11.853080">
                <time>2017-07-15T06:43:48Z</time>
            </trkpt>
            <trkpt lat="46.466610" lon="11.853320">
                <time>2017-07-15T06:43:49Z</time>
            </trkpt>
            <trkpt lat="46.466520" lon="11.853560">
                <time>2017-07-15T06:43:50Z</time>
            </trkpt>
            <trkpt lat="46.466440" lon="11.853830">
                <time>2017-07-15T06:43:51Z</time>
            </trkpt>
            <trkpt lat="46.466350" lon="11.854060">
                <time>2017-07-15T06:43:52Z</time>
            </trkpt>
            <trkpt lat="46.466270" lon="11.854320">
                <time>2017-07-15T06:43:53Z</time>
            </trkpt>
            <trkpt lat="46.466190" lon="11.854600">
                <time>2017-07-15T06:43:54Z</time>
            </trkpt>
            <trkpt lat="46.466130" lon="11.854830">
                <time>2017-07-15T06:43:55Z</time>
            </trkpt>
            <trkpt lat="46.466050" lon="11.855110">
                <time>2017-07-15T06:43:56Z</time>
            </trkpt>
            <trkpt lat="46.465980" lon="11.855350">
                <time>2017-07-15T06:43:57Z</time>
            </trkpt>
            <trkpt lat="46.465910" lon="11.855610">
                <time>2017-07-15T06:43:58Z</time>
            </trkpt>
            <trkpt lat="46.465870" lon="11.855940">
                <time>2017-07-15T06:43:59Z</time>
            </trkpt>
            <trkpt lat="46.465810" lon="11.856180">
                <time>2017-07-15T06:44:00Z</time>
            </trkpt>
            <trkpt lat="46.464380" lon="11.860680">
                <time>2017-07-15T06:44:18Z</time>
            </trkpt>
            <trkpt lat="46.464300" lon="11.860860">
                <time>2017-07-15T06:44:19Z</time>
            </trkpt>
            <trkpt lat="46.464240" lon="11.861040">
                <time>2017-07-15T06:44:20Z</time>
            </trkpt>
            <trkpt lat="46.464200" lon="11.861200">
                <time>2017-07-15T06:44:21Z</time>
            </trkpt>
            <trkpt lat="46.464160" lon="11.861370">
                <time>2017-07-15T06:44:22Z</time>
            </trkpt>
            <trkpt lat="46.464120" lon="11.861550">
                <time>2017-07-15T06:44:23Z</time>
            </trkpt>
            <trkpt lat="46.464070" lon="11.861720">
                <time>2017-07-15T06:44:24Z</time>
            </trkpt>
            <trkpt lat="46.464040" lon="11.861910">
                <time>2017-07-15T06:44:25Z</time>
            </trkpt>
            <trkpt lat="46.464020" lon="11.862110">
                <time>2017-07-15T06:44:26Z</time>
            </trkpt>
            <trkpt lat="46.464020" lon="11.862300">
                <time>2017-07-15T06:44:27Z</time>
            </trkpt>
            <trkpt lat="46.464040" lon="11.862520">
                <time>2017-07-15T06:44:28Z</time>
            </trkpt>
            <trkpt lat="46.464080" lon="11.862720">
                <time>2017-07-15T06:44:29Z</time>
            </trkpt>
            <trkpt lat="46.464130" lon="11.862930">
                <time>2017-07-15T06:44:30Z</time>
            </trkpt>
            <trkpt lat="46.464180" lon="11.863150">
                <time>2017-07-15T06:44:31Z</time>
            </trkpt>
            <trkpt lat="46.464200" lon="11.863330">
                <time>2017-07-15T06:44:32Z</time>
            </trkpt>
            <trkpt lat="46.464230" lon="11.863510">
                <time>2017-07-15T06:44:33Z</time>
            </trkpt>
            <trkpt lat="46.464250" lon="11.863700">
                <time>2017-07-15T06:44:34Z</time>
            </trkpt>
            <trkpt lat="46.464180" lon="11.863790">
                <time>2017-07-15T06:44:35Z</time>
            </trkpt>
            <trkpt lat="46.464080" lon="11.863950">
                <time>2017-07-15T06:44:36Z</time>
            </trkpt>
            <trkpt lat="46.464000" lon="11.864070">
                <time>2017-07-15T06:44:37Z</time>
            </trkpt>
            <trkpt lat="46.463830" lon="11.864240">
                <time>2017-07-15T06:44:38Z</time>
            </trkpt>
            <trkpt lat="46.463740" lon="11.864420">
                <time>2017-07-15T06:44:39Z</time>
            </trkpt>
            <trkpt lat="46.463650" lon="11.864580">
                <time>2017-07-15T06:44:40Z</time>
            </trkpt>
            <trkpt lat="46.463570" lon="11.864770">
                <time>2017-07-15T06:44:41Z</time>
            </trkpt>
            <trkpt lat="46.463490" lon="11.865000">
                <time>2017-07-15T06:44:42Z</time>
            </trkpt>
            <trkpt lat="46.463440" lon="11.865250">
                <time>2017-07-15T06:44:43Z</time>
            </trkpt>
            <trkpt lat="46.463510" lon="11.865530">
                <time>2017-07-15T06:44:44Z</time>
            </trkpt>
            <trkpt lat="46.463510" lon="11.865780">
                <time>2017-07-15T06:44:45Z</time>
            </trkpt>
            <trkpt lat="46.463490" lon="11.866040">
                <time>2017-07-15T06:44:46Z</time>
            </trkpt>
            <trkpt lat="46.463460" lon="11.866310">
                <time>2017-07-15T06:44:47Z</time>
            </trkpt>
            <trkpt lat="46.463430" lon="11.866550">
                <time>2017-07-15T06:44:48Z</time>
            </trkpt>
            <trkpt lat="46.463390" lon="11.866820">
                <time>2017-07-15T06:44:49Z</time>
            </trkpt>
            <trkpt lat="46.463350" lon="11.867070">
                <time>2017-07-15T06:44:50Z</time>
            </trkpt>
            <trkpt lat="46.463310" lon="11.867310">
                <time>2017-07-15T06:44:51Z</time>
            </trkpt>
            <trkpt lat="46.463250" lon="11.867550">
                <time>2017-07-15T06:44:52Z</time>
            </trkpt>
            <trkpt lat="46.463190" lon="11.867760">
                <time>2017-07-15T06:44:53Z</time>
            </trkpt>
            <trkpt lat="46.463120" lon="11.867990">
                <time>2017-07-15T06:44:54Z</time>
            </trkpt>
            <trkpt lat="46.463060" lon="11.868270">
                <time>2017-07-15T06:44:55Z</time>
            </trkpt>
            <trkpt lat="46.462970" lon="11.868500">
                <time>2017-07-15T06:44:56Z</time>
            </trkpt>
            <trkpt lat="46.462880" lon="11.868750">
                <time>2017-07-15T06:44:57Z</time>
            </trkpt>
            <trkpt lat="46.462780" lon="11.869030">
                <time>2017-07-15T06:44:58Z</time>
            </trkpt>
            <trkpt lat="46.462690" lon="11.869260">
                <time>2017-07-15T06:44:59Z</time>
            </trkpt>
            <trkpt lat="46.462600" lon="11.869540">
                <time>2017-07-15T06:45:00Z</time>
            </trkpt>
            <trkpt lat="46.462530" lon="11.869790">
                <time>2017-07-15T06:45:01Z</time>
            </trkpt>
            <trkpt lat="46.462450" lon="11.870050">
                <time>2017-07-15T06:45:02Z</time>
            </trkpt>
            <trkpt lat="46.462380" lon="11.870330">
                <time>2017-07-15T06:45:03Z</time>
            </trkpt>
            <trkpt lat="46.462330" lon="11.870580">
                <time>2017-07-15T06:45:04Z</time>
            </trkpt>
            <trkpt lat="46.462280" lon="11.870820">
                <time>2017-07-15T06:45:05Z</time>
            </trkpt>
            <trkpt lat="46.462240" lon="11.871070">
                <time>2017-07-15T06:45:06Z</time>
            </trkpt>
            <trkpt lat="46.462190" lon="11.871290">
                <time>2017-07-15T06:45:07Z</time>
            </trkpt>
            <trkpt lat="46.462120" lon="11.871540">
                <time>2017-07-15T06:45:08Z</time>
            </trkpt>
            <trkpt lat="46.462030" lon="11.871760">
                <time>2017-07-15T06:45:09Z</time>
            </trkpt>
            <trkpt lat="46.461940" lon="11.871990">
                <time>2017-07-15T06:45:10Z</time>
            </trkpt>
            <trkpt lat="46.461840" lon="11.872230">
                <time>2017-07-15T06:45:11Z</time>
            </trkpt>
            <trkpt lat="46.461760" lon="11.872430">
                <time>2017-07-15T06:45:12Z</time>
            </trkpt>
            <trkpt lat="46.461690" lon="11.872620">
                <time>2017-07-15T06:45:13Z</time>
            </trkpt>
            <trkpt lat="46.461630" lon="11.872810">
                <time>2017-07-15T06:45:14Z</time>
            </trkpt>
            <trkpt lat="46.461580" lon="11.872960">
                <time>2017-07-15T06:45:15Z</time>
            </trkpt>
            <trkpt lat="46.461510" lon="11.873100">
                <time>2017-07-15T06:45:16Z</time>
            </trkpt>
            <trkpt lat="46.461420" lon="11.873180">
                <time>2017-07-15T06:45:17Z</time>
            </trkpt>
            <trkpt lat="46.461320" lon="11.873260">
                <time>2017-07-15T06:45:18Z</time>
            </trkpt>
            <trkpt lat="46.461210" lon="11.873360">
                <time>2017-07-15T06:45:19Z</time>
            </trkpt>
            <trkpt lat="46.461120" lon="11.873480">
                <time>2017-07-15T06:45:20Z</time>
            </trkpt>
            <trkpt lat="46.461030" lon="11.873640">
                <time>2017-07-15T06:45:21Z</time>
            </trkpt>
            <trkpt lat="46.460940" lon="11.873800">
                <time>2017-07-15T06:45:22Z</time>
            </trkpt>
            <trkpt lat="46.460830" lon="11.873960">
                <time>2017-07-15T06:45:23Z</time>
            </trkpt>
            <trkpt lat="46.460700" lon="11.874110">
                <time>2017-07-15T06:45:24Z</time>
            </trkpt>
            <trkpt lat="46.460560" lon="11.874240">
                <time>2017-07-15T06:45:25Z</time>
            </trkpt>
            <trkpt lat="46.460410" lon="11.874350">
                <time>2017-07-15T06:45:26Z</time>
            </trkpt>
            <trkpt lat="46.460240" lon="11.874440">
                <time>2017-07-15T06:45:27Z</time>
            </trkpt>
            <trkpt lat="46.460100" lon="11.874500">
                <time>2017-07-15T06:45:28Z</time>
            </trkpt>
            <trkpt lat="46.459950" lon="11.874530">
                <time>2017-07-15T06:45:29Z</time>
            </trkpt>
            <trkpt lat="46.459810" lon="11.874530">
                <time>2017-07-15T06:45:30Z</time>
            </trkpt>
            <trkpt lat="46.459690" lon="11.874540">
                <time>2017-07-15T06:45:31Z</time>
            </trkpt>
            <trkpt lat="46.459560" lon="11.874590">
                <time>2017-07-15T06:45:32Z</time>
            </trkpt>
            <trkpt lat="46.459450" lon="11.874670">
                <time>2017-07-15T06:45:33Z</time>
            </trkpt>
            <trkpt lat="46.459320" lon="11.874770">
                <time>2017-07-15T06:45:34Z</time>
            </trkpt>
            <trkpt lat="46.459180" lon="11.874890">
                <time>2017-07-15T06:45:35Z</time>
            </trkpt>
            <trkpt lat="46.459050" lon="11.875010">
                <time>2017-07-15T06:45:36Z</time>
            </trkpt>
            <trkpt lat="46.458910" lon="11.875150">
                <time>2017-07-15T06:45:37Z</time>
            </trkpt>
            <trkpt lat="46.458770" lon="11.875290">
                <time>2017-07-15T06:45:38Z</time>
            </trkpt>
            <trkpt lat="46.458640" lon="11.875450">
                <time>2017-07-15T06:45:39Z</time>
            </trkpt>
            <trkpt lat="46.458500" lon="11.875610">
                <time>2017-07-15T06:45:40Z</time>
            </trkpt>
            <trkpt lat="46.458380" lon="11.875760">
                <time>2017-07-15T06:45:41Z</time>
            </trkpt>
            <trkpt lat="46.458260" lon="11.875910">
                <time>2017-07-15T06:45:42Z</time>
            </trkpt>
            <trkpt lat="46.458140" lon="11.876080">
                <time>2017-07-15T06:45:43Z</time>
            </trkpt>
            <trkpt lat="46.458050" lon="11.876230">
                <time>2017-07-15T06:45:44Z</time>
            </trkpt>
            <trkpt lat="46.457980" lon="11.876400">
                <time>2017-07-15T06:45:45Z</time>
            </trkpt>
            <trkpt lat="46.457900" lon="11.876610">
                <time>2017-07-15T06:45:46Z</time>
            </trkpt>
            <trkpt lat="46.457830" lon="11.876800">
                <time>2017-07-15T06:45:47Z</time>
            </trkpt>
            <trkpt lat="46.457740" lon="11.877010">
                <time>2017-07-15T06:45:48Z</time>
            </trkpt>
            <trkpt lat="46.457670" lon="11.877200">
                <time>2017-07-15T06:45:49Z</time>
            </trkpt>
            <trkpt lat="46.457580" lon="11.877440">
                <time>2017-07-15T06:45:50Z</time>
            </trkpt>
            <trkpt lat="46.457500" lon="11.877720">
                <time>2017-07-15T06:45:51Z</time>
            </trkpt>
            <trkpt lat="46.457430" lon="11.877950">
                <time>2017-07-15T06:45:52Z</time>
            </trkpt>
            <trkpt lat="46.457350" lon="11.878170">
                <time>2017-07-15T06:45:53Z</time>
            </trkpt>
            <trkpt lat="46.457280" lon="11.878340">
                <time>2017-07-15T06:45:54Z</time>
            </trkpt>
            <trkpt lat="46.457220" lon="11.878500">
                <time>2017-07-15T06:45:55Z</time>
            </trkpt>
            <trkpt lat="46.457180" lon="11.878700">
                <time>2017-07-15T06:45:56Z</time>
            </trkpt>
            <trkpt lat="46.457160" lon="11.878880">
                <time>2017-07-15T06:45:57Z</time>
            </trkpt>
            <trkpt lat="46.457160" lon="11.879080">
                <time>2017-07-15T06:45:58Z</time>
            </trkpt>
            <trkpt lat="46.457150" lon="11.879250">
                <time>2017-07-15T06:45:59Z</time>
            </trkpt>
            <trkpt lat="46.457130" lon="11.879400">
                <time>2017-07-15T06:46:00Z</time>
            </trkpt>
            <trkpt lat="46.457090" lon="11.879560">
                <time>2017-07-15T06:46:01Z</time>
            </trkpt>
            <trkpt lat="46.457000" lon="11.879720">
                <time>2017-07-15T06:46:02Z</time>
            </trkpt>
            <trkpt lat="46.456930" lon="11.879840">
                <time>2017-07-15T06:46:03Z</time>
            </trkpt>
            <trkpt lat="46.456840" lon="11.880000">
                <time>2017-07-15T06:46:04Z</time>
            </trkpt>
            <trkpt lat="46.456790" lon="11.880150">
                <time>2017-07-15T06:46:05Z</time>
            </trkpt>
            <trkpt lat="46.456770" lon="11.880350">
                <time>2017-07-15T06:46:06Z</time>
            </trkpt>
            <trkpt lat="46.456750" lon="11.880600">
                <time>2017-07-15T06:46:07Z</time>
            </trkpt>
            <trkpt lat="46.456730" lon="11.880830">
                <time>2017-07-15T06:46:08Z</time>
            </trkpt>
            <trkpt lat="46.456700" lon="11.881070">
                <time>2017-07-15T06:46:09Z</time>
            </trkpt>
            <trkpt lat="46.456640" lon="11.881300">
                <time>2017-07-15T06:46:10Z</time>
            </trkpt>
            <trkpt lat="46.456560" lon="11.881500">
                <time>2017-07-15T06:46:11Z</time>
            </trkpt>
            <trkpt lat="46.456470" lon="11.881730">
                <time>2017-07-15T06:46:12Z</time>
            </trkpt>
            <trkpt lat="46.456400" lon="11.881950">
                <time>2017-07-15T06:46:13Z</time>
            </trkpt>
            <trkpt lat="46.456340" lon="11.882200">
                <time>2017-07-15T06:46:14Z</time>
            </trkpt>
            <trkpt lat="46.456290" lon="11.882490">
                <time>2017-07-15T06:46:15Z</time>
            </trkpt>
            <trkpt lat="46.456260" lon="11.882760">
                <time>2017-07-15T06:46:16Z</time>
            </trkpt>
            <trkpt lat="46.456220" lon="11.883050">
                <time>2017-07-15T06:46:17Z</time>
            </trkpt>
            <trkpt lat="46.456150" lon="11.883350">
                <time>2017-07-15T06:46:18Z</time>
            </trkpt>
            <trkpt lat="46.456080" lon="11.883610">
                <time>2017-07-15T06:46:19Z</time>
            </trkpt>
            <trkpt lat="46.456000" lon="11.883890">
                <time>2017-07-15T06:46:20Z</time>
            </trkpt>
            <trkpt lat="46.455920" lon="11.884120">
                <time>2017-07-15T06:46:21Z</time>
            </trkpt>
            <trkpt lat="46.455840" lon="11.884370">
                <time>2017-07-15T06:46:22Z</time>
            </trkpt>
            <trkpt lat="46.455760" lon="11.884620">
                <time>2017-07-15T06:46:23Z</time>
            </trkpt>
            <trkpt lat="46.455680" lon="11.884840">
                <time>2017-07-15T06:46:24Z</time>
            </trkpt>
            <trkpt lat="46.455600" lon="11.885050">
                <time>2017-07-15T06:46:25Z</time>
            </trkpt>
            <trkpt lat="46.455510" lon="11.885260">
                <time>2017-07-15T06:46:26Z</time>
            </trkpt>
            <trkpt lat="46.455400" lon="11.885450">
                <time>2017-07-15T06:46:27Z</time>
            </trkpt>
            <trkpt lat="46.455280" lon="11.885630">
                <time>2017-07-15T06:46:28Z</time>
            </trkpt>
            <trkpt lat="46.455160" lon="11.885780">
                <time>2017-07-15T06:46:29Z</time>
            </trkpt>
            <trkpt lat="46.455030" lon="11.885930">
                <time>2017-07-15T06:46:30Z</time>
            </trkpt>
            <trkpt lat="46.454890" lon="11.886090">
                <time>2017-07-15T06:46:31Z</time>
            </trkpt>
            <trkpt lat="46.454760" lon="11.886220">
                <time>2017-07-15T06:46:32Z</time>
            </trkpt>
            <trkpt lat="46.454620" lon="11.886330">
                <time>2017-07-15T06:46:33Z</time>
            </trkpt>
            <trkpt lat="46.454480" lon="11.886460">
                <time>2017-07-15T06:46:34Z</time>
            </trkpt>
            <trkpt lat="46.454370" lon="11.886580">
                <time>2017-07-15T06:46:35Z</time>
            </trkpt>
            <trkpt lat="46.454270" lon="11.886700">
                <time>2017-07-15T06:46:36Z</time>
            </trkpt>
            <trkpt lat="46.454190" lon="11.886810">
                <time>2017-07-15T06:46:37Z</time>
            </trkpt>
            <trkpt lat="46.454130" lon="11.886960">
                <time>2017-07-15T06:46:38Z</time>
            </trkpt>
            <trkpt lat="46.454070" lon="11.887130">
                <time>2017-07-15T06:46:39Z</time>
            </trkpt>
            <trkpt lat="46.454020" lon="11.887300">
                <time>2017-07-15T06:46:40Z</time>
            </trkpt>
            <trkpt lat="46.453960" lon="11.887510">
                <time>2017-07-15T06:46:41Z</time>
            </trkpt>
            <trkpt lat="46.453910" lon="11.887710">
                <time>2017-07-15T06:46:42Z</time>
            </trkpt>
            <trkpt lat="46.453870" lon="11.887930">
                <time>2017-07-15T06:46:43Z</time>
            </trkpt>
            <trkpt lat="46.453810" lon="11.888170">
                <time>2017-07-15T06:46:44Z</time>
            </trkpt>
            <trkpt lat="46.453780" lon="11.888390">
                <time>2017-07-15T06:46:45Z</time>
            </trkpt>
            <trkpt lat="46.453740" lon="11.888620">
                <time>2017-07-15T06:46:46Z</time>
            </trkpt>
            <trkpt lat="46.453690" lon="11.888850">
                <time>2017-07-15T06:46:47Z</time>
            </trkpt>
            <trkpt lat="46.453650" lon="11.889060">
                <time>2017-07-15T06:46:48Z</time>
            </trkpt>
            <trkpt lat="46.453610" lon="11.889270">
                <time>2017-07-15T06:46:49Z</time>
            </trkpt>
            <trkpt lat="46.453570" lon="11.889470">
                <time>2017-07-15T06:46:50Z</time>
            </trkpt>
            <trkpt lat="46.453550" lon="11.889640">
                <time>2017-07-15T06:46:51Z</time>
            </trkpt>
            <trkpt lat="46.453530" lon="11.889820">
                <time>2017-07-15T06:46:52Z</time>
            </trkpt>
            <trkpt lat="46.453540" lon="11.889980">
                <time>2017-07-15T06:46:53Z</time>
            </trkpt>
            <trkpt lat="46.453570" lon="11.890110">
                <time>2017-07-15T06:46:54Z</time>
            </trkpt>
            <trkpt lat="46.453640" lon="11.890220">
                <time>2017-07-15T06:46:55Z</time>
            </trkpt>
            <trkpt lat="46.453720" lon="11.890310">
                <time>2017-07-15T06:46:56Z</time>
            </trkpt>
            <trkpt lat="46.453840" lon="11.890360">
                <time>2017-07-15T06:46:57Z</time>
            </trkpt>
            <trkpt lat="46.453980" lon="11.890430">
                <time>2017-07-15T06:46:58Z</time>
            </trkpt>
            <trkpt lat="46.454120" lon="11.890510">
                <time>2017-07-15T06:46:59Z</time>
            </trkpt>
            <trkpt lat="46.454270" lon="11.890630">
                <time>2017-07-15T06:47:00Z</time>
            </trkpt>
            <trkpt lat="46.454400" lon="11.890740">
                <time>2017-07-15T06:47:01Z</time>
            </trkpt>
            <trkpt lat="46.454530" lon="11.890870">
                <time>2017-07-15T06:47:02Z</time>
            </trkpt>
            <trkpt lat="46.454660" lon="11.891020">
                <time>2017-07-15T06:47:03Z</time>
            </trkpt>
            <trkpt lat="46.454770" lon="11.891160">
                <time>2017-07-15T06:47:04Z</time>
            </trkpt>
            <trkpt lat="46.454880" lon="11.891330">
                <time>2017-07-15T06:47:05Z</time>
            </trkpt>
            <trkpt lat="46.454970" lon="11.891540">
                <time>2017-07-15T06:47:06Z</time>
            </trkpt>
            <trkpt lat="46.455030" lon="11.891740">
                <time>2017-07-15T06:47:07Z</time>
            </trkpt>
            <trkpt lat="46.455100" lon="11.891980">
                <time>2017-07-15T06:47:08Z</time>
            </trkpt>
            <trkpt lat="46.455170" lon="11.892200">
                <time>2017-07-15T06:47:09Z</time>
            </trkpt>
            <trkpt lat="46.455250" lon="11.892460">
                <time>2017-07-15T06:47:10Z</time>
            </trkpt>
            <trkpt lat="46.455340" lon="11.892780">
                <time>2017-07-15T06:47:11Z</time>
            </trkpt>
            <trkpt lat="46.455410" lon="11.893030">
                <time>2017-07-15T06:47:12Z</time>
            </trkpt>
            <trkpt lat="46.455480" lon="11.893300">
                <time>2017-07-15T06:47:13Z</time>
            </trkpt>
            <trkpt lat="46.455540" lon="11.893540">
                <time>2017-07-15T06:47:14Z</time>
            </trkpt>
            <trkpt lat="46.455600" lon="11.893740">
                <time>2017-07-15T06:47:15Z</time>
            </trkpt>
            <trkpt lat="46.455650" lon="11.893930">
                <time>2017-07-15T06:47:16Z</time>
            </trkpt>
            <trkpt lat="46.455690" lon="11.894050">
                <time>2017-07-15T06:47:17Z</time>
            </trkpt>
            <trkpt lat="46.455720" lon="11.894160">
                <time>2017-07-15T06:47:18Z</time>
            </trkpt>
            <trkpt lat="46.455740" lon="11.894260">
                <time>2017-07-15T06:47:19Z</time>
            </trkpt>
            <trkpt lat="46.455740" lon="11.894340">
                <time>2017-07-15T06:47:20Z</time>
            </trkpt>
            <trkpt lat="46.455730" lon="11.894390">
                <time>2017-07-15T06:47:21Z</time>
            </trkpt>
            <trkpt lat="46.455690" lon="11.894390">
                <time>2017-07-15T06:47:22Z</time>
            </trkpt>
            <trkpt lat="46.455630" lon="11.894320">
                <time>2017-07-15T06:47:23Z</time>
            </trkpt>
            <trkpt lat="46.455570" lon="11.894200">
                <time>2017-07-15T06:47:24Z</time>
            </trkpt>
            <trkpt lat="46.455510" lon="11.894080">
                <time>2017-07-15T06:47:25Z</time>
            </trkpt>
            <trkpt lat="46.455450" lon="11.893940">
                <time>2017-07-15T06:47:26Z</time>
            </trkpt>
            <trkpt lat="46.455380" lon="11.893770">
                <time>2017-07-15T06:47:27Z</time>
            </trkpt>
            <trkpt lat="46.455320" lon="11.893650">
                <time>2017-07-15T06:47:28Z</time>
            </trkpt>
            <trkpt lat="46.455280" lon="11.893560">
                <time>2017-07-15T06:47:29Z</time>
            </trkpt>
            <trkpt lat="46.455220" lon="11.893510">
                <time>2017-07-15T06:47:30Z</time>
            </trkpt>
            <trkpt lat="46.455170" lon="11.893490">
                <time>2017-07-15T06:47:31Z</time>
            </trkpt>
            <trkpt lat="46.455120" lon="11.893530">
                <time>2017-07-15T06:47:32Z</time>
            </trkpt>
            <trkpt lat="46.455090" lon="11.893600">
                <time>2017-07-15T06:47:33Z</time>
            </trkpt>
            <trkpt lat="46.455090" lon="11.893710">
                <time>2017-07-15T06:47:34Z</time>
            </trkpt>
            <trkpt lat="46.455110" lon="11.893850">
                <time>2017-07-15T06:47:35Z</time>
            </trkpt>
            <trkpt lat="46.455150" lon="11.894010">
                <time>2017-07-15T06:47:36Z</time>
            </trkpt>
            <trkpt lat="46.455190" lon="11.894210">
                <time>2017-07-15T06:47:37Z</time>
            </trkpt>
            <trkpt lat="46.455230" lon="11.894440">
                <time>2017-07-15T06:47:38Z</time>
            </trkpt>
            <trkpt lat="46.455260" lon="11.894650">
                <time>2017-07-15T06:47:39Z</time>
            </trkpt>
            <trkpt lat="46.455290" lon="11.894890">
                <time>2017-07-15T06:47:40Z</time>
            </trkpt>
            <trkpt lat="46.455300" lon="11.895110">
                <time>2017-07-15T06:47:41Z</time>
            </trkpt>
            <trkpt lat="46.455300" lon="11.895350">
                <time>2017-07-15T06:47:42Z</time>
            </trkpt>
            <trkpt lat="46.455290" lon="11.895610">
                <time>2017-07-15T06:47:43Z</time>
            </trkpt>
            <trkpt lat="46.455250" lon="11.895820">
                <time>2017-07-15T06:47:44Z</time>
            </trkpt>
            <trkpt lat="46.455190" lon="11.896040">
                <time>2017-07-15T06:47:45Z</time>
            </trkpt>
            <trkpt lat="46.455110" lon="11.896260">
                <time>2017-07-15T06:47:46Z</time>
            </trkpt>
            <trkpt lat="46.455030" lon="11.896470">
                <time>2017-07-15T06:47:47Z</time>
            </trkpt>
            <trkpt lat="46.454950" lon="11.896700">
                <time>2017-07-15T06:47:48Z</time>
            </trkpt>
            <trkpt lat="46.454880" lon="11.896910">
                <time>2017-07-15T06:47:49Z</time>
            </trkpt>
            <trkpt lat="46.454820" lon="11.897140">
                <time>2017-07-15T06:47:50Z</time>
            </trkpt>
            <trkpt lat="46.454770" lon="11.897390">
                <time>2017-07-15T06:47:51Z</time>
            </trkpt>
            <trkpt lat="46.454750" lon="11.897610">
                <time>2017-07-15T06:47:52Z</time>
            </trkpt>
            <trkpt lat="46.454740" lon="11.897860">
                <time>2017-07-15T06:47:53Z</time>
            </trkpt>
            <trkpt lat="46.454750" lon="11.898120">
                <time>2017-07-15T06:47:54Z</time>
            </trkpt>
            <trkpt lat="46.454750" lon="11.898340">
                <time>2017-07-15T06:47:55Z</time>
            </trkpt>
            <trkpt lat="46.454760" lon="11.898590">
                <time>2017-07-15T06:47:56Z</time>
            </trkpt>
            <trkpt lat="46.454770" lon="11.898800">
                <time>2017-07-15T06:47:57Z</time>
            </trkpt>
            <trkpt lat="46.454770" lon="11.899010">
                <time>2017-07-15T06:47:58Z</time>
            </trkpt>
            <trkpt lat="46.454780" lon="11.899200">
                <time>2017-07-15T06:47:59Z</time>
            </trkpt>
            <trkpt lat="46.454790" lon="11.899320">
                <time>2017-07-15T06:48:00Z</time>
            </trkpt>
            <trkpt lat="46.454790" lon="11.899430">
                <time>2017-07-15T06:48:01Z</time>
            </trkpt>
            <trkpt lat="46.454770" lon="11.899490">
                <time>2017-07-15T06:48:02Z</time>
            </trkpt>
            <trkpt lat="46.454730" lon="11.899540">
                <time>2017-07-15T06:48:03Z</time>
            </trkpt>
            <trkpt lat="46.454680" lon="11.899550">
                <time>2017-07-15T06:48:04Z</time>
            </trkpt>
            <trkpt lat="46.454630" lon="11.899530">
                <time>2017-07-15T06:48:05Z</time>
            </trkpt>
            <trkpt lat="46.454560" lon="11.899400">
                <time>2017-07-15T06:48:06Z</time>
            </trkpt>
            <trkpt lat="46.454500" lon="11.899260">
                <time>2017-07-15T06:48:07Z</time>
            </trkpt>
            <trkpt lat="46.454420" lon="11.899140">
                <time>2017-07-15T06:48:08Z</time>
            </trkpt>
            <trkpt lat="46.454330" lon="11.899010">
                <time>2017-07-15T06:48:09Z</time>
            </trkpt>
            <trkpt lat="46.454200" lon="11.898920">
                <time>2017-07-15T06:48:10Z</time>
            </trkpt>
            <trkpt lat="46.454090" lon="11.898870">
                <time>2017-07-15T06:48:11Z</time>
            </trkpt>
            <trkpt lat="46.453950" lon="11.898840">
                <time>2017-07-15T06:48:12Z</time>
            </trkpt>
            <trkpt lat="46.453820" lon="11.898850">
                <time>2017-07-15T06:48:13Z</time>
            </trkpt>
            <trkpt lat="46.453670" lon="11.898870">
                <time>2017-07-15T06:48:14Z</time>
            </trkpt>
            <trkpt lat="46.453490" lon="11.898890">
                <time>2017-07-15T06:48:15Z</time>
            </trkpt>
            <trkpt lat="46.453330" lon="11.898910">
                <time>2017-07-15T06:48:16Z</time>
            </trkpt>
            <trkpt lat="46.453170" lon="11.898930">
                <time>2017-07-15T06:48:17Z</time>
            </trkpt>
            <trkpt lat="46.453000" lon="11.898940">
                <time>2017-07-15T06:48:18Z</time>
            </trkpt>
            <trkpt lat="46.452860" lon="11.898950">
                <time>2017-07-15T06:48:19Z</time>
            </trkpt>
            <trkpt lat="46.452710" lon="11.898950">
                <time>2017-07-15T06:48:20Z</time>
            </trkpt>
            <trkpt lat="46.452580" lon="11.898920">
                <time>2017-07-15T06:48:21Z</time>
            </trkpt>
            <trkpt lat="46.452450" lon="11.898870">
                <time>2017-07-15T06:48:22Z</time>
            </trkpt>
            <trkpt lat="46.452320" lon="11.898780">
                <time>2017-07-15T06:48:23Z</time>
            </trkpt>
            <trkpt lat="46.452190" lon="11.898680">
                <time>2017-07-15T06:48:24Z</time>
            </trkpt>
            <trkpt lat="46.452070" lon="11.898600">
                <time>2017-07-15T06:48:25Z</time>
            </trkpt>
            <trkpt lat="46.451940" lon="11.898520">
                <time>2017-07-15T06:48:26Z</time>
            </trkpt>
            <trkpt lat="46.451840" lon="11.898450">
                <time>2017-07-15T06:48:27Z</time>
            </trkpt>
            <trkpt lat="46.451750" lon="11.898390">
                <time>2017-07-15T06:48:28Z</time>
            </trkpt>
            <trkpt lat="46.451660" lon="11.898360">
                <time>2017-07-15T06:48:29Z</time>
            </trkpt>
            <trkpt lat="46.451580" lon="11.898360">
                <time>2017-07-15T06:48:30Z</time>
            </trkpt>
            <trkpt lat="46.451510" lon="11.898410">
                <time>2017-07-15T06:48:31Z</time>
            </trkpt>
            <trkpt lat="46.451460" lon="11.898500">
                <time>2017-07-15T06:48:32Z</time>
            </trkpt>
            <trkpt lat="46.451440" lon="11.898610">
                <time>2017-07-15T06:48:33Z</time>
            </trkpt>
            <trkpt lat="46.451460" lon="11.898740">
                <time>2017-07-15T06:48:34Z</time>
            </trkpt>
            <trkpt lat="46.451510" lon="11.898880">
                <time>2017-07-15T06:48:35Z</time>
            </trkpt>
            <trkpt lat="46.451580" lon="11.899030">
                <time>2017-07-15T06:48:36Z</time>
            </trkpt>
            <trkpt lat="46.451670" lon="11.899170">
                <time>2017-07-15T06:48:37Z</time>
            </trkpt>
            <trkpt lat="46.451760" lon="11.899310">
                <time>2017-07-15T06:48:38Z</time>
            </trkpt>
            <trkpt lat="46.451860" lon="11.899410">
                <time>2017-07-15T06:48:39Z</time>
            </trkpt>
            <trkpt lat="46.451940" lon="11.899490">
                <time>2017-07-15T06:48:40Z</time>
            </trkpt>
            <trkpt lat="46.452020" lon="11.899570">
                <time>2017-07-15T06:48:41Z</time>
            </trkpt>
            <trkpt lat="46.452080" lon="11.899650">
                <time>2017-07-15T06:48:42Z</time>
            </trkpt>
            <trkpt lat="46.452110" lon="11.899740">
                <time>2017-07-15T06:48:43Z</time>
            </trkpt>
            <trkpt lat="46.452090" lon="11.899830">
                <time>2017-07-15T06:48:44Z</time>
            </trkpt>
            <trkpt lat="46.452040" lon="11.899890">
                <time>2017-07-15T06:48:45Z</time>
            </trkpt>
            <trkpt lat="46.451950" lon="11.899950">
                <time>2017-07-15T06:48:46Z</time>
            </trkpt>
            <trkpt lat="46.451840" lon="11.900000">
                <time>2017-07-15T06:48:47Z</time>
            </trkpt>
            <trkpt lat="46.451740" lon="11.900030">
                <time>2017-07-15T06:48:48Z</time>
            </trkpt>
            <trkpt lat="46.451630" lon="11.900060">
                <time>2017-07-15T06:48:49Z</time>
            </trkpt>
            <trkpt lat="46.451540" lon="11.900100">
                <time>2017-07-15T06:48:50Z</time>
            </trkpt>
            <trkpt lat="46.451470" lon="11.900140">
                <time>2017-07-15T06:48:51Z</time>
            </trkpt>
            <trkpt lat="46.451420" lon="11.900230">
                <time>2017-07-15T06:48:52Z</time>
            </trkpt>
            <trkpt lat="46.451400" lon="11.900310">
                <time>2017-07-15T06:48:53Z</time>
            </trkpt>
            <trkpt lat="46.451420" lon="11.900410">
                <time>2017-07-15T06:48:54Z</time>
            </trkpt>
            <trkpt lat="46.451480" lon="11.900480">
                <time>2017-07-15T06:48:55Z</time>
            </trkpt>
            <trkpt lat="46.451550" lon="11.900510">
                <time>2017-07-15T06:48:56Z</time>
            </trkpt>
            <trkpt lat="46.451640" lon="11.900500">
                <time>2017-07-15T06:48:57Z</time>
            </trkpt>
            <trkpt lat="46.451760" lon="11.900480">
                <time>2017-07-15T06:48:58Z</time>
            </trkpt>
            <trkpt lat="46.451870" lon="11.900440">
                <time>2017-07-15T06:48:59Z</time>
            </trkpt>
            <trkpt lat="46.452000" lon="11.900400">
                <time>2017-07-15T06:49:00Z</time>
            </trkpt>
            <trkpt lat="46.452110" lon="11.900370">
                <time>2017-07-15T06:49:01Z</time>
            </trkpt>
            <trkpt lat="46.452220" lon="11.900340">
                <time>2017-07-15T06:49:02Z</time>
            </trkpt>
            <trkpt lat="46.452320" lon="11.900330">
                <time>2017-07-15T06:49:03Z</time>
            </trkpt>
            <trkpt lat="46.452390" lon="11.900350">
                <time>2017-07-15T06:49:04Z</time>
            </trkpt>
            <trkpt lat="46.452460" lon="11.900410">
                <time>2017-07-15T06:49:05Z</time>
            </trkpt>
            <trkpt lat="46.452500" lon="11.900510">
                <time>2017-07-15T06:49:06Z</time>
            </trkpt>
            <trkpt lat="46.452500" lon="11.900630">
                <time>2017-07-15T06:49:07Z</time>
            </trkpt>
            <trkpt lat="46.452470" lon="11.900750">
                <time>2017-07-15T06:49:08Z</time>
            </trkpt>
            <trkpt lat="46.452420" lon="11.900860">
                <time>2017-07-15T06:49:09Z</time>
            </trkpt>
            <trkpt lat="46.452360" lon="11.900990">
                <time>2017-07-15T06:49:10Z</time>
            </trkpt>
            <trkpt lat="46.452310" lon="11.901150">
                <time>2017-07-15T06:49:11Z</time>
            </trkpt>
            <trkpt lat="46.452290" lon="11.901300">
                <time>2017-07-15T06:49:12Z</time>
            </trkpt>
            <trkpt lat="46.452290" lon="11.901470">
                <time>2017-07-15T06:49:13Z</time>
            </trkpt>
            <trkpt lat="46.452320" lon="11.901640">
                <time>2017-07-15T06:49:14Z</time>
            </trkpt>
            <trkpt lat="46.452360" lon="11.901800">
                <time>2017-07-15T06:49:15Z</time>
            </trkpt>
            <trkpt lat="46.452420" lon="11.901960">
                <time>2017-07-15T06:49:16Z</time>
            </trkpt>
            <trkpt lat="46.452460" lon="11.902110">
                <time>2017-07-15T06:49:17Z</time>
            </trkpt>
            <trkpt lat="46.452510" lon="11.902250">
                <time>2017-07-15T06:49:18Z</time>
            </trkpt>
            <trkpt lat="46.452540" lon="11.902390">
                <time>2017-07-15T06:49:19Z</time>
            </trkpt>
            <trkpt lat="46.452550" lon="11.902510">
                <time>2017-07-15T06:49:20Z</time>
            </trkpt>
            <trkpt lat="46.452520" lon="11.902620">
                <time>2017-07-15T06:49:21Z</time>
            </trkpt>
            <trkpt lat="46.452480" lon="11.902700">
                <time>2017-07-15T06:49:22Z</time>
            </trkpt>
            <trkpt lat="46.452420" lon="11.902740">
                <time>2017-07-15T06:49:23Z</time>
            </trkpt>
            <trkpt lat="46.452360" lon="11.902720">
                <time>2017-07-15T06:49:24Z</time>
            </trkpt>
            <trkpt lat="46.452300" lon="11.902670">
                <time>2017-07-15T06:49:25Z</time>
            </trkpt>
            <trkpt lat="46.452260" lon="11.902560">
                <time>2017-07-15T06:49:26Z</time>
            </trkpt>
            <trkpt lat="46.452270" lon="11.902430">
                <time>2017-07-15T06:49:27Z</time>
            </trkpt>
            <trkpt lat="46.452300" lon="11.902310">
                <time>2017-07-15T06:49:28Z</time>
            </trkpt>
            <trkpt lat="46.452310" lon="11.902180">
                <time>2017-07-15T06:49:29Z</time>
            </trkpt>
            <trkpt lat="46.452310" lon="11.902050">
                <time>2017-07-15T06:49:30Z</time>
            </trkpt>
            <trkpt lat="46.452280" lon="11.901970">
                <time>2017-07-15T06:49:31Z</time>
            </trkpt>
            <trkpt lat="46.452210" lon="11.901910">
                <time>2017-07-15T06:49:32Z</time>
            </trkpt>
            <trkpt lat="46.452150" lon="11.901920">
                <time>2017-07-15T06:49:33Z</time>
            </trkpt>
            <trkpt lat="46.452090" lon="11.901970">
                <time>2017-07-15T06:49:34Z</time>
            </trkpt>
            <trkpt lat="46.452040" lon="11.902080">
                <time>2017-07-15T06:49:35Z</time>
            </trkpt>
            <trkpt lat="46.452040" lon="11.902220">
                <time>2017-07-15T06:49:36Z</time>
            </trkpt>
            <trkpt lat="46.452030" lon="11.902380">
                <time>2017-07-15T06:49:37Z</time>
            </trkpt>
            <trkpt lat="46.452000" lon="11.902560">
                <time>2017-07-15T06:49:38Z</time>
            </trkpt>
            <trkpt lat="46.451970" lon="11.902750">
                <time>2017-07-15T06:49:39Z</time>
            </trkpt>
            <trkpt lat="46.451940" lon="11.902920">
                <time>2017-07-15T06:49:40Z</time>
            </trkpt>
            <trkpt lat="46.451930" lon="11.903060">
                <time>2017-07-15T06:49:41Z</time>
            </trkpt>
            <trkpt lat="46.451920" lon="11.903200">
                <time>2017-07-15T06:49:42Z</time>
            </trkpt>
            <trkpt lat="46.451920" lon="11.903330">
                <time>2017-07-15T06:49:43Z</time>
            </trkpt>
            <trkpt lat="46.451910" lon="11.903420">
                <time>2017-07-15T06:49:44Z</time>
            </trkpt>
            <trkpt lat="46.451880" lon="11.903500">
                <time>2017-07-15T06:49:45Z</time>
            </trkpt>
            <trkpt lat="46.451830" lon="11.903550">
                <time>2017-07-15T06:49:46Z</time>
            </trkpt>
            <trkpt lat="46.451780" lon="11.903570">
                <time>2017-07-15T06:49:47Z</time>
            </trkpt>
            <trkpt lat="46.451730" lon="11.903490">
                <time>2017-07-15T06:49:48Z</time>
            </trkpt>
            <trkpt lat="46.451680" lon="11.903310">
                <time>2017-07-15T06:49:49Z</time>
            </trkpt>
            <trkpt lat="46.451650" lon="11.903170">
                <time>2017-07-15T06:49:50Z</time>
            </trkpt>
            <trkpt lat="46.451610" lon="11.903040">
                <time>2017-07-15T06:49:51Z</time>
            </trkpt>
            <trkpt lat="46.451550" lon="11.902950">
                <time>2017-07-15T06:49:52Z</time>
            </trkpt>
            <trkpt lat="46.451480" lon="11.902900">
                <time>2017-07-15T06:49:53Z</time>
            </trkpt>
            <trkpt lat="46.451390" lon="11.902920">
                <time>2017-07-15T06:49:54Z</time>
            </trkpt>
            <trkpt lat="46.451320" lon="11.902980">
                <time>2017-07-15T06:49:55Z</time>
            </trkpt>
            <trkpt lat="46.451230" lon="11.903070">
                <time>2017-07-15T06:49:56Z</time>
            </trkpt>
            <trkpt lat="46.451150" lon="11.903170">
                <time>2017-07-15T06:49:57Z</time>
            </trkpt>
            <trkpt lat="46.451090" lon="11.903310">
                <time>2017-07-15T06:49:58Z</time>
            </trkpt>
            <trkpt lat="46.451040" lon="11.903470">
                <time>2017-07-15T06:49:59Z</time>
            </trkpt>
            <trkpt lat="46.451000" lon="11.903610">
                <time>2017-07-15T06:50:00Z</time>
            </trkpt>
            <trkpt lat="46.450980" lon="11.903770">
                <time>2017-07-15T06:50:01Z</time>
            </trkpt>
            <trkpt lat="46.450970" lon="11.903920">
                <time>2017-07-15T06:50:02Z</time>
            </trkpt>
            <trkpt lat="46.450950" lon="11.904040">
                <time>2017-07-15T06:50:03Z</time>
            </trkpt>
            <trkpt lat="46.450900" lon="11.904180">
                <time>2017-07-15T06:50:04Z</time>
            </trkpt>
            <trkpt lat="46.450820" lon="11.904250">
                <time>2017-07-15T06:50:05Z</time>
            </trkpt>
            <trkpt lat="46.450710" lon="11.904320">
                <time>2017-07-15T06:50:06Z</time>
            </trkpt>
            <trkpt lat="46.450590" lon="11.904400">
                <time>2017-07-15T06:50:07Z</time>
            </trkpt>
            <trkpt lat="46.450460" lon="11.904460">
                <time>2017-07-15T06:50:08Z</time>
            </trkpt>
            <trkpt lat="46.450320" lon="11.904540">
                <time>2017-07-15T06:50:09Z</time>
            </trkpt>
            <trkpt lat="46.450180" lon="11.904620">
                <time>2017-07-15T06:50:10Z</time>
            </trkpt>
            <trkpt lat="46.450040" lon="11.904710">
                <time>2017-07-15T06:50:11Z</time>
            </trkpt>
            <trkpt lat="46.449880" lon="11.904810">
                <time>2017-07-15T06:50:12Z</time>
            </trkpt>
            <trkpt lat="46.449730" lon="11.904900">
                <time>2017-07-15T06:50:13Z</time>
            </trkpt>
            <trkpt lat="46.449570" lon="11.905000">
                <time>2017-07-15T06:50:14Z</time>
            </trkpt>
            <trkpt lat="46.449390" lon="11.905100">
                <time>2017-07-15T06:50:15Z</time>
            </trkpt>
            <trkpt lat="46.449240" lon="11.905180">
                <time>2017-07-15T06:50:16Z</time>
            </trkpt>
            <trkpt lat="46.449070" lon="11.905270">
                <time>2017-07-15T06:50:17Z</time>
            </trkpt>
            <trkpt lat="46.448880" lon="11.905370">
                <time>2017-07-15T06:50:18Z</time>
            </trkpt>
            <trkpt lat="46.448710" lon="11.905460">
                <time>2017-07-15T06:50:19Z</time>
            </trkpt>
            <trkpt lat="46.448510" lon="11.905570">
                <time>2017-07-15T06:50:20Z</time>
            </trkpt>
            <trkpt lat="46.448330" lon="11.905660">
                <time>2017-07-15T06:50:21Z</time>
            </trkpt>
            <trkpt lat="46.448140" lon="11.905760">
                <time>2017-07-15T06:50:22Z</time>
            </trkpt>
            <trkpt lat="46.447930" lon="11.905870">
                <time>2017-07-15T06:50:23Z</time>
            </trkpt>
            <trkpt lat="46.447750" lon="11.905960">
                <time>2017-07-15T06:50:24Z</time>
            </trkpt>
            <trkpt lat="46.447550" lon="11.906060">
                <time>2017-07-15T06:50:25Z</time>
            </trkpt>
            <trkpt lat="46.447360" lon="11.906160">
                <time>2017-07-15T06:50:26Z</time>
            </trkpt>
            <trkpt lat="46.447160" lon="11.906260">
                <time>2017-07-15T06:50:27Z</time>
            </trkpt>
            <trkpt lat="46.446950" lon="11.906370">
                <time>2017-07-15T06:50:28Z</time>
            </trkpt>
            <trkpt lat="46.446770" lon="11.906460">
                <time>2017-07-15T06:50:29Z</time>
            </trkpt>
            <trkpt lat="46.446580" lon="11.906570">
                <time>2017-07-15T06:50:30Z</time>
            </trkpt>
            <trkpt lat="46.446370" lon="11.906680">
                <time>2017-07-15T06:50:31Z</time>
            </trkpt>
            <trkpt lat="46.446200" lon="11.906770">
                <time>2017-07-15T06:50:32Z</time>
            </trkpt>
            <trkpt lat="46.446000" lon="11.906870">
                <time>2017-07-15T06:50:33Z</time>
            </trkpt>
            <trkpt lat="46.445800" lon="11.906980">
                <time>2017-07-15T06:50:34Z</time>
            </trkpt>
            <trkpt lat="46.445630" lon="11.907080">
                <time>2017-07-15T06:50:35Z</time>
            </trkpt>
            <trkpt lat="46.445440" lon="11.907210">
                <time>2017-07-15T06:50:36Z</time>
            </trkpt>
            <trkpt lat="46.445270" lon="11.907340">
                <time>2017-07-15T06:50:37Z</time>
            </trkpt>
            <trkpt lat="46.445110" lon="11.907470">
                <time>2017-07-15T06:50:38Z</time>
            </trkpt>
            <trkpt lat="46.444940" lon="11.907620">
                <time>2017-07-15T06:50:39Z</time>
            </trkpt>
            <trkpt lat="46.444800" lon="11.907740">
                <time>2017-07-15T06:50:40Z</time>
            </trkpt>
            <trkpt lat="46.444510" lon="11.907990">
                <time>2017-07-15T06:50:42Z</time>
            </trkpt>
            <trkpt lat="46.444340" lon="11.908020">
                <time>2017-07-15T06:50:43Z</time>
            </trkpt>
            <trkpt lat="46.444180" lon="11.908110">
                <time>2017-07-15T06:50:44Z</time>
            </trkpt>
            <trkpt lat="46.444010" lon="11.908130">
                <time>2017-07-15T06:50:45Z</time>
            </trkpt>
            <trkpt lat="46.443820" lon="11.908150">
                <time>2017-07-15T06:50:46Z</time>
            </trkpt>
            <trkpt lat="46.443620" lon="11.908170">
                <time>2017-07-15T06:50:47Z</time>
            </trkpt>
            <trkpt lat="46.443440" lon="11.908200">
                <time>2017-07-15T06:50:48Z</time>
            </trkpt>
            <trkpt lat="46.443240" lon="11.908230">
                <time>2017-07-15T06:50:49Z</time>
            </trkpt>
            <trkpt lat="46.443030" lon="11.908250">
                <time>2017-07-15T06:50:50Z</time>
            </trkpt>
            <trkpt lat="46.442850" lon="11.908270">
                <time>2017-07-15T06:50:51Z</time>
            </trkpt>
            <trkpt lat="46.442670" lon="11.908270">
                <time>2017-07-15T06:50:52Z</time>
            </trkpt>
            <trkpt lat="46.442520" lon="11.908260">
                <time>2017-07-15T06:50:53Z</time>
            </trkpt>
            <trkpt lat="46.442360" lon="11.908230">
                <time>2017-07-15T06:50:54Z</time>
            </trkpt>
            <trkpt lat="46.442180" lon="11.908190">
                <time>2017-07-15T06:50:55Z</time>
            </trkpt>
            <trkpt lat="46.442030" lon="11.908140">
                <time>2017-07-15T06:50:56Z</time>
            </trkpt>
            <trkpt lat="46.441880" lon="11.908120">
                <time>2017-07-15T06:50:57Z</time>
            </trkpt>
            <trkpt lat="46.441710" lon="11.908100">
                <time>2017-07-15T06:50:58Z</time>
            </trkpt>
            <trkpt lat="46.441560" lon="11.908100">
                <time>2017-07-15T06:50:59Z</time>
            </trkpt>
            <trkpt lat="46.441390" lon="11.908080">
                <time>2017-07-15T06:51:00Z</time>
            </trkpt>
            <trkpt lat="46.441230" lon="11.908080">
                <time>2017-07-15T06:51:01Z</time>
            </trkpt>
            <trkpt lat="46.441060" lon="11.908050">
                <time>2017-07-15T06:51:02Z</time>
            </trkpt>
            <trkpt lat="46.440880" lon="11.908020">
                <time>2017-07-15T06:51:03Z</time>
            </trkpt>
            <trkpt lat="46.440720" lon="11.908000">
                <time>2017-07-15T06:51:04Z</time>
            </trkpt>
            <trkpt lat="46.440550" lon="11.907960">
                <time>2017-07-15T06:51:05Z</time>
            </trkpt>
            <trkpt lat="46.440390" lon="11.907920">
                <time>2017-07-15T06:51:06Z</time>
            </trkpt>
            <trkpt lat="46.440260" lon="11.907880">
                <time>2017-07-15T06:51:07Z</time>
            </trkpt>
            <trkpt lat="46.440100" lon="11.907860">
                <time>2017-07-15T06:51:08Z</time>
            </trkpt>
            <trkpt lat="46.439970" lon="11.907860">
                <time>2017-07-15T06:51:09Z</time>
            </trkpt>
            <trkpt lat="46.439810" lon="11.907870">
                <time>2017-07-15T06:51:10Z</time>
            </trkpt>
            <trkpt lat="46.439650" lon="11.907910">
                <time>2017-07-15T06:51:11Z</time>
            </trkpt>
            <trkpt lat="46.439490" lon="11.907960">
                <time>2017-07-15T06:51:12Z</time>
            </trkpt>
            <trkpt lat="46.439330" lon="11.908040">
                <time>2017-07-15T06:51:13Z</time>
            </trkpt>
            <trkpt lat="46.439160" lon="11.908130">
                <time>2017-07-15T06:51:14Z</time>
            </trkpt>
            <trkpt lat="46.438980" lon="11.908220">
                <time>2017-07-15T06:51:15Z</time>
            </trkpt>
            <trkpt lat="46.438800" lon="11.908310">
                <time>2017-07-15T06:51:16Z</time>
            </trkpt>
            <trkpt lat="46.438640" lon="11.908390">
                <time>2017-07-15T06:51:17Z</time>
            </trkpt>
            <trkpt lat="46.438470" lon="11.908490">
                <time>2017-07-15T06:51:18Z</time>
            </trkpt>
            <trkpt lat="46.438290" lon="11.908590">
                <time>2017-07-15T06:51:19Z</time>
            </trkpt>
            <trkpt lat="46.438130" lon="11.908670">
                <time>2017-07-15T06:51:20Z</time>
            </trkpt>
            <trkpt lat="46.437970" lon="11.908770">
                <time>2017-07-15T06:51:21Z</time>
            </trkpt>
            <trkpt lat="46.437810" lon="11.908860">
                <time>2017-07-15T06:51:22Z</time>
            </trkpt>
            <trkpt lat="46.437650" lon="11.908940">
                <time>2017-07-15T06:51:23Z</time>
            </trkpt>
            <trkpt lat="46.437480" lon="11.909010">
                <time>2017-07-15T06:51:24Z</time>
            </trkpt>
            <trkpt lat="46.437320" lon="11.909050">
                <time>2017-07-15T06:51:25Z</time>
            </trkpt>
            <trkpt lat="46.437160" lon="11.909070">
                <time>2017-07-15T06:51:26Z</time>
            </trkpt>
            <trkpt lat="46.436990" lon="11.909080">
                <time>2017-07-15T06:51:27Z</time>
            </trkpt>
            <trkpt lat="46.436850" lon="11.909080">
                <time>2017-07-15T06:51:28Z</time>
            </trkpt>
            <trkpt lat="46.436690" lon="11.909070">
                <time>2017-07-15T06:51:29Z</time>
            </trkpt>
            <trkpt lat="46.436530" lon="11.909060">
                <time>2017-07-15T06:51:30Z</time>
            </trkpt>
            <trkpt lat="46.436370" lon="11.909030">
                <time>2017-07-15T06:51:31Z</time>
            </trkpt>
            <trkpt lat="46.436190" lon="11.909010">
                <time>2017-07-15T06:51:32Z</time>
            </trkpt>
            <trkpt lat="46.436030" lon="11.909000">
                <time>2017-07-15T06:51:33Z</time>
            </trkpt>
            <trkpt lat="46.435860" lon="11.908980">
                <time>2017-07-15T06:51:34Z</time>
            </trkpt>
            <trkpt lat="46.435670" lon="11.908960">
                <time>2017-07-15T06:51:35Z</time>
            </trkpt>
            <trkpt lat="46.435500" lon="11.908940">
                <time>2017-07-15T06:51:36Z</time>
            </trkpt>
            <trkpt lat="46.435340" lon="11.908930">
                <time>2017-07-15T06:51:37Z</time>
            </trkpt>
            <trkpt lat="46.435150" lon="11.908910">
                <time>2017-07-15T06:51:38Z</time>
            </trkpt>
            <trkpt lat="46.435000" lon="11.908900">
                <time>2017-07-15T06:51:39Z</time>
            </trkpt>
            <trkpt lat="46.434830" lon="11.908900">
                <time>2017-07-15T06:51:40Z</time>
            </trkpt>
            <trkpt lat="46.434670" lon="11.908900">
                <time>2017-07-15T06:51:41Z</time>
            </trkpt>
            <trkpt lat="46.434500" lon="11.908910">
                <time>2017-07-15T06:51:42Z</time>
            </trkpt>
            <trkpt lat="46.434320" lon="11.908910">
                <time>2017-07-15T06:51:43Z</time>
            </trkpt>
            <trkpt lat="46.434150" lon="11.908910">
                <time>2017-07-15T06:51:44Z</time>
            </trkpt>
            <trkpt lat="46.433970" lon="11.908910">
                <time>2017-07-15T06:51:45Z</time>
            </trkpt>
            <trkpt lat="46.433790" lon="11.908910">
                <time>2017-07-15T06:51:46Z</time>
            </trkpt>
            <trkpt lat="46.433610" lon="11.908910">
                <time>2017-07-15T06:51:47Z</time>
            </trkpt>
            <trkpt lat="46.433420" lon="11.908910">
                <time>2017-07-15T06:51:48Z</time>
            </trkpt>
            <trkpt lat="46.433250" lon="11.908920">
                <time>2017-07-15T06:51:49Z</time>
            </trkpt>
            <trkpt lat="46.433080" lon="11.908910">
                <time>2017-07-15T06:51:50Z</time>
            </trkpt>
            <trkpt lat="46.432890" lon="11.908890">
                <time>2017-07-15T06:51:51Z</time>
            </trkpt>
            <trkpt lat="46.432740" lon="11.908850">
                <time>2017-07-15T06:51:52Z</time>
            </trkpt>
            <trkpt lat="46.432570" lon="11.908800">
                <time>2017-07-15T06:51:53Z</time>
            </trkpt>
            <trkpt lat="46.432390" lon="11.908750">
                <time>2017-07-15T06:51:54Z</time>
            </trkpt>
            <trkpt lat="46.432240" lon="11.908680">
                <time>2017-07-15T06:51:55Z</time>
            </trkpt>
            <trkpt lat="46.432060" lon="11.908620">
                <time>2017-07-15T06:51:56Z</time>
            </trkpt>
            <trkpt lat="46.431900" lon="11.908570">
                <time>2017-07-15T06:51:57Z</time>
            </trkpt>
            <trkpt lat="46.431730" lon="11.908520">
                <time>2017-07-15T06:51:58Z</time>
            </trkpt>
            <trkpt lat="46.431550" lon="11.908460">
                <time>2017-07-15T06:51:59Z</time>
            </trkpt>
            <trkpt lat="46.431390" lon="11.908420">
                <time>2017-07-15T06:52:00Z</time>
            </trkpt>
            <trkpt lat="46.431210" lon="11.908370">
                <time>2017-07-15T06:52:01Z</time>
            </trkpt>
            <trkpt lat="46.431040" lon="11.908330">
                <time>2017-07-15T06:52:02Z</time>
            </trkpt>
            <trkpt lat="46.430880" lon="11.908290">
                <time>2017-07-15T06:52:03Z</time>
            </trkpt>
            <trkpt lat="46.430720" lon="11.908250">
                <time>2017-07-15T06:52:04Z</time>
            </trkpt>
            <trkpt lat="46.430580" lon="11.908220">
                <time>2017-07-15T06:52:05Z</time>
            </trkpt>
            <trkpt lat="46.430420" lon="11.908200">
                <time>2017-07-15T06:52:06Z</time>
            </trkpt>
            <trkpt lat="46.430260" lon="11.908200">
                <time>2017-07-15T06:52:07Z</time>
            </trkpt>
            <trkpt lat="46.430110" lon="11.908220">
                <time>2017-07-15T06:52:08Z</time>
            </trkpt>
            <trkpt lat="46.429950" lon="11.908240">
                <time>2017-07-15T06:52:09Z</time>
            </trkpt>
            <trkpt lat="46.429790" lon="11.908280">
                <time>2017-07-15T06:52:10Z</time>
            </trkpt>
            <trkpt lat="46.429660" lon="11.908300">
                <time>2017-07-15T06:52:11Z</time>
            </trkpt>
            <trkpt lat="46.429530" lon="11.908340">
                <time>2017-07-15T06:52:12Z</time>
            </trkpt>
            <trkpt lat="46.429420" lon="11.908380">
                <time>2017-07-15T06:52:13Z</time>
            </trkpt>
            <trkpt lat="46.429320" lon="11.908450">
                <time>2017-07-15T06:52:14Z</time>
            </trkpt>
            <trkpt lat="46.429210" lon="11.908550">
                <time>2017-07-15T06:52:15Z</time>
            </trkpt>
            <trkpt lat="46.429130" lon="11.908650">
                <time>2017-07-15T06:52:16Z</time>
            </trkpt>
            <trkpt lat="46.429100" lon="11.908810">
                <time>2017-07-15T06:52:17Z</time>
            </trkpt>
            <trkpt lat="46.429110" lon="11.908990">
                <time>2017-07-15T06:52:18Z</time>
            </trkpt>
            <trkpt lat="46.429130" lon="11.909160">
                <time>2017-07-15T06:52:19Z</time>
            </trkpt>
            <trkpt lat="46.429150" lon="11.909350">
                <time>2017-07-15T06:52:20Z</time>
            </trkpt>
            <trkpt lat="46.429130" lon="11.909490">
                <time>2017-07-15T06:52:21Z</time>
            </trkpt>
            <trkpt lat="46.429090" lon="11.909630">
                <time>2017-07-15T06:52:22Z</time>
            </trkpt>
            <trkpt lat="46.429010" lon="11.909760">
                <time>2017-07-15T06:52:23Z</time>
            </trkpt>
            <trkpt lat="46.428920" lon="11.909870">
                <time>2017-07-15T06:52:24Z</time>
            </trkpt>
            <trkpt lat="46.428800" lon="11.909970">
                <time>2017-07-15T06:52:25Z</time>
            </trkpt>
            <trkpt lat="46.428690" lon="11.910080">
                <time>2017-07-15T06:52:26Z</time>
            </trkpt>
            <trkpt lat="46.428590" lon="11.910200">
                <time>2017-07-15T06:52:27Z</time>
            </trkpt>
            <trkpt lat="46.428500" lon="11.910320">
                <time>2017-07-15T06:52:28Z</time>
            </trkpt>
            <trkpt lat="46.428430" lon="11.910430">
                <time>2017-07-15T06:52:29Z</time>
            </trkpt>
            <trkpt lat="46.428390" lon="11.910570">
                <time>2017-07-15T06:52:30Z</time>
            </trkpt>
            <trkpt lat="46.428380" lon="11.910720">
                <time>2017-07-15T06:52:31Z</time>
            </trkpt>
            <trkpt lat="46.428410" lon="11.910850">
                <time>2017-07-15T06:52:32Z</time>
            </trkpt>
            <trkpt lat="46.428460" lon="11.910990">
                <time>2017-07-15T06:52:33Z</time>
            </trkpt>
            <trkpt lat="46.428510" lon="11.911130">
                <time>2017-07-15T06:52:34Z</time>
            </trkpt>
            <trkpt lat="46.428560" lon="11.911270">
                <time>2017-07-15T06:52:35Z</time>
            </trkpt>
            <trkpt lat="46.428590" lon="11.911440">
                <time>2017-07-15T06:52:36Z</time>
            </trkpt>
            <trkpt lat="46.428600" lon="11.911590">
                <time>2017-07-15T06:52:37Z</time>
            </trkpt>
            <trkpt lat="46.428590" lon="11.911750">
                <time>2017-07-15T06:52:38Z</time>
            </trkpt>
            <trkpt lat="46.428570" lon="11.911920">
                <time>2017-07-15T06:52:39Z</time>
            </trkpt>
            <trkpt lat="46.428520" lon="11.912070">
                <time>2017-07-15T06:52:40Z</time>
            </trkpt>
            <trkpt lat="46.428460" lon="11.912230">
                <time>2017-07-15T06:52:41Z</time>
            </trkpt>
            <trkpt lat="46.428370" lon="11.912370">
                <time>2017-07-15T06:52:42Z</time>
            </trkpt>
            <trkpt lat="46.428280" lon="11.912500">
                <time>2017-07-15T06:52:43Z</time>
            </trkpt>
            <trkpt lat="46.428170" lon="11.912640">
                <time>2017-07-15T06:52:44Z</time>
            </trkpt>
            <trkpt lat="46.428060" lon="11.912770">
                <time>2017-07-15T06:52:45Z</time>
            </trkpt>
            <trkpt lat="46.427950" lon="11.912910">
                <time>2017-07-15T06:52:46Z</time>
            </trkpt>
            <trkpt lat="46.427820" lon="11.913050">
                <time>2017-07-15T06:52:47Z</time>
            </trkpt>
            <trkpt lat="46.427720" lon="11.913170">
                <time>2017-07-15T06:52:48Z</time>
            </trkpt>
            <trkpt lat="46.427610" lon="11.913310">
                <time>2017-07-15T06:52:49Z</time>
            </trkpt>
            <trkpt lat="46.427510" lon="11.913460">
                <time>2017-07-15T06:52:50Z</time>
            </trkpt>
            <trkpt lat="46.427420" lon="11.913620">
                <time>2017-07-15T06:52:51Z</time>
            </trkpt>
            <trkpt lat="46.427330" lon="11.913810">
                <time>2017-07-15T06:52:52Z</time>
            </trkpt>
            <trkpt lat="46.427250" lon="11.913960">
                <time>2017-07-15T06:52:53Z</time>
            </trkpt>
            <trkpt lat="46.427160" lon="11.914130">
                <time>2017-07-15T06:52:54Z</time>
            </trkpt>
            <trkpt lat="46.427050" lon="11.914300">
                <time>2017-07-15T06:52:55Z</time>
            </trkpt>
            <trkpt lat="46.426950" lon="11.914440">
                <time>2017-07-15T06:52:56Z</time>
            </trkpt>
            <trkpt lat="46.426850" lon="11.914580">
                <time>2017-07-15T06:52:57Z</time>
            </trkpt>
            <trkpt lat="46.426740" lon="11.914750">
                <time>2017-07-15T06:52:58Z</time>
            </trkpt>
            <trkpt lat="46.426640" lon="11.914890">
                <time>2017-07-15T06:52:59Z</time>
            </trkpt>
            <trkpt lat="46.426430" lon="11.915180">
                <time>2017-07-15T06:53:01Z</time>
            </trkpt>
            <trkpt lat="46.426350" lon="11.915340">
                <time>2017-07-15T06:53:02Z</time>
            </trkpt>
            <trkpt lat="46.426260" lon="11.915520">
                <time>2017-07-15T06:53:03Z</time>
            </trkpt>
            <trkpt lat="46.426210" lon="11.915680">
                <time>2017-07-15T06:53:04Z</time>
            </trkpt>
            <trkpt lat="46.426190" lon="11.915880">
                <time>2017-07-15T06:53:05Z</time>
            </trkpt>
            <trkpt lat="46.426180" lon="11.916100">
                <time>2017-07-15T06:53:06Z</time>
            </trkpt>
            <trkpt lat="46.426110" lon="11.916280">
                <time>2017-07-15T06:53:07Z</time>
            </trkpt>
            <trkpt lat="46.426040" lon="11.916490">
                <time>2017-07-15T06:53:08Z</time>
            </trkpt>
            <trkpt lat="46.425980" lon="11.916660">
                <time>2017-07-15T06:53:09Z</time>
            </trkpt>
            <trkpt lat="46.425820" lon="11.916810">
                <time>2017-07-15T06:53:10Z</time>
            </trkpt>
            <trkpt lat="46.425700" lon="11.916990">
                <time>2017-07-15T06:53:11Z</time>
            </trkpt>
            <trkpt lat="46.425500" lon="11.917090">
                <time>2017-07-15T06:53:12Z</time>
            </trkpt>
            <trkpt lat="46.425380" lon="11.917230">
                <time>2017-07-15T06:53:13Z</time>
            </trkpt>
            <trkpt lat="46.425550" lon="11.917560">
                <time>2017-07-15T06:53:14Z</time>
            </trkpt>
            <trkpt lat="46.425570" lon="11.917820">
                <time>2017-07-15T06:53:15Z</time>
            </trkpt>
            <trkpt lat="46.425540" lon="11.918080">
                <time>2017-07-15T06:53:16Z</time>
            </trkpt>
            <trkpt lat="46.425510" lon="11.918280">
                <time>2017-07-15T06:53:17Z</time>
            </trkpt>
            <trkpt lat="46.425510" lon="11.918490">
                <time>2017-07-15T06:53:18Z</time>
            </trkpt>
            <trkpt lat="46.425540" lon="11.918720">
                <time>2017-07-15T06:53:19Z</time>
            </trkpt>
            <trkpt lat="46.425570" lon="11.918920">
                <time>2017-07-15T06:53:20Z</time>
            </trkpt>
            <trkpt lat="46.425600" lon="11.919150">
                <time>2017-07-15T06:53:21Z</time>
            </trkpt>
            <trkpt lat="46.425630" lon="11.919400">
                <time>2017-07-15T06:53:22Z</time>
            </trkpt>
            <trkpt lat="46.425650" lon="11.919650">
                <time>2017-07-15T06:53:23Z</time>
            </trkpt>
            <trkpt lat="46.425650" lon="11.919910">
                <time>2017-07-15T06:53:24Z</time>
            </trkpt>
            <trkpt lat="46.425660" lon="11.920130">
                <time>2017-07-15T06:53:25Z</time>
            </trkpt>
            <trkpt lat="46.425670" lon="11.920350">
                <time>2017-07-15T06:53:26Z</time>
            </trkpt>
            <trkpt lat="46.425720" lon="11.920550">
                <time>2017-07-15T06:53:27Z</time>
            </trkpt>
            <trkpt lat="46.425770" lon="11.920710">
                <time>2017-07-15T06:53:28Z</time>
            </trkpt>
            <trkpt lat="46.425820" lon="11.920890">
                <time>2017-07-15T06:53:29Z</time>
            </trkpt>
            <trkpt lat="46.425860" lon="11.921110">
                <time>2017-07-15T06:53:30Z</time>
            </trkpt>
            <trkpt lat="46.425870" lon="11.921320">
                <time>2017-07-15T06:53:31Z</time>
            </trkpt>
            <trkpt lat="46.425880" lon="11.921570">
                <time>2017-07-15T06:53:32Z</time>
            </trkpt>
            <trkpt lat="46.425880" lon="11.921800">
                <time>2017-07-15T06:53:33Z</time>
            </trkpt>
            <trkpt lat="46.425880" lon="11.922040">
                <time>2017-07-15T06:53:34Z</time>
            </trkpt>
            <trkpt lat="46.425870" lon="11.922310">
                <time>2017-07-15T06:53:35Z</time>
            </trkpt>
            <trkpt lat="46.425860" lon="11.922530">
                <time>2017-07-15T06:53:36Z</time>
            </trkpt>
            <trkpt lat="46.425850" lon="11.922750">
                <time>2017-07-15T06:53:37Z</time>
            </trkpt>
            <trkpt lat="46.425830" lon="11.922960">
                <time>2017-07-15T06:53:38Z</time>
            </trkpt>
            <trkpt lat="46.425790" lon="11.923180">
                <time>2017-07-15T06:53:39Z</time>
            </trkpt>
            <trkpt lat="46.425760" lon="11.923400">
                <time>2017-07-15T06:53:40Z</time>
            </trkpt>
            <trkpt lat="46.425720" lon="11.923600">
                <time>2017-07-15T06:53:41Z</time>
            </trkpt>
            <trkpt lat="46.425670" lon="11.923810">
                <time>2017-07-15T06:53:42Z</time>
            </trkpt>
            <trkpt lat="46.425630" lon="11.924030">
                <time>2017-07-15T06:53:43Z</time>
            </trkpt>
            <trkpt lat="46.425590" lon="11.924230">
                <time>2017-07-15T06:53:44Z</time>
            </trkpt>
            <trkpt lat="46.425560" lon="11.924450">
                <time>2017-07-15T06:53:45Z</time>
            </trkpt>
            <trkpt lat="46.425530" lon="11.924670">
                <time>2017-07-15T06:53:46Z</time>
            </trkpt>
            <trkpt lat="46.425510" lon="11.924880">
                <time>2017-07-15T06:53:47Z</time>
            </trkpt>
            <trkpt lat="46.425510" lon="11.925110">
                <time>2017-07-15T06:53:48Z</time>
            </trkpt>
            <trkpt lat="46.425520" lon="11.925330">
                <time>2017-07-15T06:53:49Z</time>
            </trkpt>
            <trkpt lat="46.425550" lon="11.925570">
                <time>2017-07-15T06:53:50Z</time>
            </trkpt>
            <trkpt lat="46.425600" lon="11.925840">
                <time>2017-07-15T06:53:51Z</time>
            </trkpt>
            <trkpt lat="46.425640" lon="11.926090">
                <time>2017-07-15T06:53:52Z</time>
            </trkpt>
            <trkpt lat="46.425690" lon="11.926330">
                <time>2017-07-15T06:53:53Z</time>
            </trkpt>
            <trkpt lat="46.425720" lon="11.926560">
                <time>2017-07-15T06:53:54Z</time>
            </trkpt>
            <trkpt lat="46.425760" lon="11.926800">
                <time>2017-07-15T06:53:55Z</time>
            </trkpt>
            <trkpt lat="46.424960" lon="11.929300">
                <time>2017-07-15T06:54:10Z</time>
            </trkpt>
            <trkpt lat="46.424780" lon="11.929360">
                <time>2017-07-15T06:54:11Z</time>
            </trkpt>
            <trkpt lat="46.424600" lon="11.929410">
                <time>2017-07-15T06:54:12Z</time>
            </trkpt>
            <trkpt lat="46.424450" lon="11.929450">
                <time>2017-07-15T06:54:13Z</time>
            </trkpt>
            <trkpt lat="46.424290" lon="11.929500">
                <time>2017-07-15T06:54:14Z</time>
            </trkpt>
            <trkpt lat="46.424120" lon="11.929540">
                <time>2017-07-15T06:54:15Z</time>
            </trkpt>
            <trkpt lat="46.423980" lon="11.929570">
                <time>2017-07-15T06:54:16Z</time>
            </trkpt>
            <trkpt lat="46.423820" lon="11.929610">
                <time>2017-07-15T06:54:17Z</time>
            </trkpt>
            <trkpt lat="46.423670" lon="11.929670">
                <time>2017-07-15T06:54:18Z</time>
            </trkpt>
            <trkpt lat="46.423540" lon="11.929760">
                <time>2017-07-15T06:54:19Z</time>
            </trkpt>
            <trkpt lat="46.423380" lon="11.929870">
                <time>2017-07-15T06:54:20Z</time>
            </trkpt>
            <trkpt lat="46.423240" lon="11.929960">
                <time>2017-07-15T06:54:21Z</time>
            </trkpt>
            <trkpt lat="46.423100" lon="11.930060">
                <time>2017-07-15T06:54:22Z</time>
            </trkpt>
            <trkpt lat="46.422970" lon="11.930170">
                <time>2017-07-15T06:54:23Z</time>
            </trkpt>
            <trkpt lat="46.422870" lon="11.930250">
                <time>2017-07-15T06:54:24Z</time>
            </trkpt>
            <trkpt lat="46.422770" lon="11.930340">
                <time>2017-07-15T06:54:25Z</time>
            </trkpt>
            <trkpt lat="46.422700" lon="11.930460">
                <time>2017-07-15T06:54:26Z</time>
            </trkpt>
            <trkpt lat="46.422630" lon="11.930590">
                <time>2017-07-15T06:54:27Z</time>
            </trkpt>
            <trkpt lat="46.422570" lon="11.930740">
                <time>2017-07-15T06:54:28Z</time>
            </trkpt>
            <trkpt lat="46.422500" lon="11.930880">
                <time>2017-07-15T06:54:29Z</time>
            </trkpt>
            <trkpt lat="46.422500" lon="11.931160">
                <time>2017-07-15T06:54:30Z</time>
            </trkpt>
            <trkpt lat="46.422470" lon="11.931430">
                <time>2017-07-15T06:54:31Z</time>
            </trkpt>
            <trkpt lat="46.422430" lon="11.931650">
                <time>2017-07-15T06:54:32Z</time>
            </trkpt>
            <trkpt lat="46.422380" lon="11.931860">
                <time>2017-07-15T06:54:33Z</time>
            </trkpt>
            <trkpt lat="46.422320" lon="11.932080">
                <time>2017-07-15T06:54:34Z</time>
            </trkpt>
            <trkpt lat="46.422270" lon="11.932280">
                <time>2017-07-15T06:54:35Z</time>
            </trkpt>
            <trkpt lat="46.422220" lon="11.932500">
                <time>2017-07-15T06:54:36Z</time>
            </trkpt>
            <trkpt lat="46.422160" lon="11.932680">
                <time>2017-07-15T06:54:37Z</time>
            </trkpt>
            <trkpt lat="46.422100" lon="11.932860">
                <time>2017-07-15T06:54:38Z</time>
            </trkpt>
            <trkpt lat="46.422010" lon="11.933020">
                <time>2017-07-15T06:54:39Z</time>
            </trkpt>
            <trkpt lat="46.421900" lon="11.933140">
                <time>2017-07-15T06:54:40Z</time>
            </trkpt>
            <trkpt lat="46.421780" lon="11.933270">
                <time>2017-07-15T06:54:41Z</time>
            </trkpt>
            <trkpt lat="46.421660" lon="11.933390">
                <time>2017-07-15T06:54:42Z</time>
            </trkpt>
            <trkpt lat="46.421540" lon="11.933500">
                <time>2017-07-15T06:54:43Z</time>
            </trkpt>
            <trkpt lat="46.421440" lon="11.933620">
                <time>2017-07-15T06:54:44Z</time>
            </trkpt>
            <trkpt lat="46.421370" lon="11.933720">
                <time>2017-07-15T06:54:45Z</time>
            </trkpt>
            <trkpt lat="46.421320" lon="11.933860">
                <time>2017-07-15T06:54:46Z</time>
            </trkpt>
            <trkpt lat="46.421290" lon="11.934020">
                <time>2017-07-15T06:54:47Z</time>
            </trkpt>
            <trkpt lat="46.421290" lon="11.934150">
                <time>2017-07-15T06:54:48Z</time>
            </trkpt>
            <trkpt lat="46.421310" lon="11.934280">
                <time>2017-07-15T06:54:49Z</time>
            </trkpt>
            <trkpt lat="46.421400" lon="11.934370">
                <time>2017-07-15T06:54:50Z</time>
            </trkpt>
            <trkpt lat="46.421480" lon="11.934430">
                <time>2017-07-15T06:54:51Z</time>
            </trkpt>
            <trkpt lat="46.421610" lon="11.934470">
                <time>2017-07-15T06:54:52Z</time>
            </trkpt>
            <trkpt lat="46.421730" lon="11.934460">
                <time>2017-07-15T06:54:53Z</time>
            </trkpt>
            <trkpt lat="46.421850" lon="11.934420">
                <time>2017-07-15T06:54:54Z</time>
            </trkpt>
            <trkpt lat="46.421990" lon="11.934350">
                <time>2017-07-15T06:54:55Z</time>
            </trkpt>
            <trkpt lat="46.422120" lon="11.934290">
                <time>2017-07-15T06:54:56Z</time>
            </trkpt>
            <trkpt lat="46.422260" lon="11.934240">
                <time>2017-07-15T06:54:57Z</time>
            </trkpt>
            <trkpt lat="46.422410" lon="11.934200">
                <time>2017-07-15T06:54:58Z</time>
            </trkpt>
            <trkpt lat="46.422560" lon="11.934180">
                <time>2017-07-15T06:54:59Z</time>
            </trkpt>
            <trkpt lat="46.422710" lon="11.934160">
                <time>2017-07-15T06:55:00Z</time>
            </trkpt>
            <trkpt lat="46.422830" lon="11.934150">
                <time>2017-07-15T06:55:01Z</time>
            </trkpt>
            <trkpt lat="46.422940" lon="11.934160">
                <time>2017-07-15T06:55:02Z</time>
            </trkpt>
            <trkpt lat="46.423040" lon="11.934180">
                <time>2017-07-15T06:55:03Z</time>
            </trkpt>
            <trkpt lat="46.423110" lon="11.934240">
                <time>2017-07-15T06:55:04Z</time>
            </trkpt>
            <trkpt lat="46.423160" lon="11.934330">
                <time>2017-07-15T06:55:05Z</time>
            </trkpt>
            <trkpt lat="46.423180" lon="11.934460">
                <time>2017-07-15T06:55:06Z</time>
            </trkpt>
            <trkpt lat="46.423160" lon="11.934580">
                <time>2017-07-15T06:55:07Z</time>
            </trkpt>
            <trkpt lat="46.423110" lon="11.934690">
                <time>2017-07-15T06:55:08Z</time>
            </trkpt>
            <trkpt lat="46.423040" lon="11.934800">
                <time>2017-07-15T06:55:09Z</time>
            </trkpt>
            <trkpt lat="46.422960" lon="11.934930">
                <time>2017-07-15T06:55:10Z</time>
            </trkpt>
            <trkpt lat="46.422880" lon="11.935100">
                <time>2017-07-15T06:55:11Z</time>
            </trkpt>
            <trkpt lat="46.422810" lon="11.935270">
                <time>2017-07-15T06:55:12Z</time>
            </trkpt>
            <trkpt lat="46.422750" lon="11.935470">
                <time>2017-07-15T06:55:13Z</time>
            </trkpt>
            <trkpt lat="46.422690" lon="11.935680">
                <time>2017-07-15T06:55:14Z</time>
            </trkpt>
            <trkpt lat="46.422640" lon="11.935890">
                <time>2017-07-15T06:55:15Z</time>
            </trkpt>
            <trkpt lat="46.422580" lon="11.936110">
                <time>2017-07-15T06:55:16Z</time>
            </trkpt>
            <trkpt lat="46.422520" lon="11.936290">
                <time>2017-07-15T06:55:17Z</time>
            </trkpt>
            <trkpt lat="46.422470" lon="11.936460">
                <time>2017-07-15T06:55:18Z</time>
            </trkpt>
            <trkpt lat="46.422430" lon="11.936620">
                <time>2017-07-15T06:55:19Z</time>
            </trkpt>
            <trkpt lat="46.422400" lon="11.936750">
                <time>2017-07-15T06:55:20Z</time>
            </trkpt>
            <trkpt lat="46.422390" lon="11.936880">
                <time>2017-07-15T06:55:21Z</time>
            </trkpt>
            <trkpt lat="46.422400" lon="11.937020">
                <time>2017-07-15T06:55:22Z</time>
            </trkpt>
            <trkpt lat="46.422440" lon="11.937130">
                <time>2017-07-15T06:55:23Z</time>
            </trkpt>
            <trkpt lat="46.422510" lon="11.937190">
                <time>2017-07-15T06:55:24Z</time>
            </trkpt>
            <trkpt lat="46.422570" lon="11.937230">
                <time>2017-07-15T06:55:25Z</time>
            </trkpt>
            <trkpt lat="46.422690" lon="11.937240">
                <time>2017-07-15T06:55:26Z</time>
            </trkpt>
            <trkpt lat="46.422880" lon="11.937280">
                <time>2017-07-15T06:55:27Z</time>
            </trkpt>
            <trkpt lat="46.423030" lon="11.937280">
                <time>2017-07-15T06:55:28Z</time>
            </trkpt>
            <trkpt lat="46.423150" lon="11.937330">
                <time>2017-07-15T06:55:29Z</time>
            </trkpt>
            <trkpt lat="46.423280" lon="11.937410">
                <time>2017-07-15T06:55:30Z</time>
            </trkpt>
            <trkpt lat="46.423380" lon="11.937530">
                <time>2017-07-15T06:55:31Z</time>
            </trkpt>
            <trkpt lat="46.423450" lon="11.937700">
                <time>2017-07-15T06:55:32Z</time>
            </trkpt>
            <trkpt lat="46.423500" lon="11.937860">
                <time>2017-07-15T06:55:33Z</time>
            </trkpt>
            <trkpt lat="46.423530" lon="11.938070">
                <time>2017-07-15T06:55:34Z</time>
            </trkpt>
            <trkpt lat="46.423570" lon="11.938310">
                <time>2017-07-15T06:55:35Z</time>
            </trkpt>
            <trkpt lat="46.423610" lon="11.938520">
                <time>2017-07-15T06:55:36Z</time>
            </trkpt>
            <trkpt lat="46.423650" lon="11.938750">
                <time>2017-07-15T06:55:37Z</time>
            </trkpt>
            <trkpt lat="46.423680" lon="11.939000">
                <time>2017-07-15T06:55:38Z</time>
            </trkpt>
            <trkpt lat="46.423740" lon="11.939210">
                <time>2017-07-15T06:55:39Z</time>
            </trkpt>
            <trkpt lat="46.423810" lon="11.939430">
                <time>2017-07-15T06:55:40Z</time>
            </trkpt>
            <trkpt lat="46.423890" lon="11.939620">
                <time>2017-07-15T06:55:41Z</time>
            </trkpt>
            <trkpt lat="46.423970" lon="11.939820">
                <time>2017-07-15T06:55:42Z</time>
            </trkpt>
            <trkpt lat="46.424040" lon="11.940010">
                <time>2017-07-15T06:55:43Z</time>
            </trkpt>
            <trkpt lat="46.424080" lon="11.940170">
                <time>2017-07-15T06:55:44Z</time>
            </trkpt>
            <trkpt lat="46.424090" lon="11.940340">
                <time>2017-07-15T06:55:45Z</time>
            </trkpt>
            <trkpt lat="46.424090" lon="11.940520">
                <time>2017-07-15T06:55:46Z</time>
            </trkpt>
            <trkpt lat="46.424070" lon="11.940710">
                <time>2017-07-15T06:55:47Z</time>
            </trkpt>
            <trkpt lat="46.424040" lon="11.940910">
                <time>2017-07-15T06:55:48Z</time>
            </trkpt>
            <trkpt lat="46.424020" lon="11.941070">
                <time>2017-07-15T06:55:49Z</time>
            </trkpt>
            <trkpt lat="46.424010" lon="11.941220">
                <time>2017-07-15T06:55:50Z</time>
            </trkpt>
            <trkpt lat="46.424020" lon="11.941370">
                <time>2017-07-15T06:55:51Z</time>
            </trkpt>
            <trkpt lat="46.424040" lon="11.941470">
                <time>2017-07-15T06:55:52Z</time>
            </trkpt>
            <trkpt lat="46.424080" lon="11.941560">
                <time>2017-07-15T06:55:53Z</time>
            </trkpt>
            <trkpt lat="46.424130" lon="11.941620">
                <time>2017-07-15T06:55:54Z</time>
            </trkpt>
            <trkpt lat="46.424190" lon="11.941600">
                <time>2017-07-15T06:55:55Z</time>
            </trkpt>
            <trkpt lat="46.424280" lon="11.941440">
                <time>2017-07-15T06:55:56Z</time>
            </trkpt>
            <trkpt lat="46.424320" lon="11.941330">
                <time>2017-07-15T06:55:57Z</time>
            </trkpt>
            <trkpt lat="46.424350" lon="11.941180">
                <time>2017-07-15T06:55:58Z</time>
            </trkpt>
            <trkpt lat="46.424390" lon="11.941010">
                <time>2017-07-15T06:55:59Z</time>
            </trkpt>
            <trkpt lat="46.424440" lon="11.940870">
                <time>2017-07-15T06:56:00Z</time>
            </trkpt>
            <trkpt lat="46.424520" lon="11.940730">
                <time>2017-07-15T06:56:01Z</time>
            </trkpt>
            <trkpt lat="46.424600" lon="11.940640">
                <time>2017-07-15T06:56:02Z</time>
            </trkpt>
            <trkpt lat="46.424700" lon="11.940550">
                <time>2017-07-15T06:56:03Z</time>
            </trkpt>
            <trkpt lat="46.424810" lon="11.940490">
                <time>2017-07-15T06:56:04Z</time>
            </trkpt>
            <trkpt lat="46.424900" lon="11.940470">
                <time>2017-07-15T06:56:05Z</time>
            </trkpt>
            <trkpt lat="46.425010" lon="11.940470">
                <time>2017-07-15T06:56:06Z</time>
            </trkpt>
            <trkpt lat="46.425110" lon="11.940480">
                <time>2017-07-15T06:56:07Z</time>
            </trkpt>
            <trkpt lat="46.425180" lon="11.940490">
                <time>2017-07-15T06:56:08Z</time>
            </trkpt>
            <trkpt lat="46.425250" lon="11.940510">
                <time>2017-07-15T06:56:09Z</time>
            </trkpt>
            <trkpt lat="46.425310" lon="11.940580">
                <time>2017-07-15T06:56:10Z</time>
            </trkpt>
            <trkpt lat="46.425360" lon="11.940660">
                <time>2017-07-15T06:56:11Z</time>
            </trkpt>
            <trkpt lat="46.425410" lon="11.940780">
                <time>2017-07-15T06:56:12Z</time>
            </trkpt>
            <trkpt lat="46.425440" lon="11.940910">
                <time>2017-07-15T06:56:13Z</time>
            </trkpt>
            <trkpt lat="46.425470" lon="11.941070">
                <time>2017-07-15T06:56:14Z</time>
            </trkpt>
            <trkpt lat="46.425500" lon="11.941250">
                <time>2017-07-15T06:56:15Z</time>
            </trkpt>
            <trkpt lat="46.425530" lon="11.941400">
                <time>2017-07-15T06:56:16Z</time>
            </trkpt>
            <trkpt lat="46.425550" lon="11.941570">
                <time>2017-07-15T06:56:17Z</time>
            </trkpt>
            <trkpt lat="46.425570" lon="11.941750">
                <time>2017-07-15T06:56:18Z</time>
            </trkpt>
            <trkpt lat="46.425590" lon="11.941910">
                <time>2017-07-15T06:56:19Z</time>
            </trkpt>
            <trkpt lat="46.425620" lon="11.942080">
                <time>2017-07-15T06:56:20Z</time>
            </trkpt>
            <trkpt lat="46.425640" lon="11.942220">
                <time>2017-07-15T06:56:21Z</time>
            </trkpt>
            <trkpt lat="46.425650" lon="11.942370">
                <time>2017-07-15T06:56:22Z</time>
            </trkpt>
            <trkpt lat="46.425670" lon="11.942520">
                <time>2017-07-15T06:56:23Z</time>
            </trkpt>
            <trkpt lat="46.425690" lon="11.942660">
                <time>2017-07-15T06:56:24Z</time>
            </trkpt>
            <trkpt lat="46.425700" lon="11.942810">
                <time>2017-07-15T06:56:25Z</time>
            </trkpt>
            <trkpt lat="46.425720" lon="11.942960">
                <time>2017-07-15T06:56:26Z</time>
            </trkpt>
            <trkpt lat="46.425730" lon="11.943100">
                <time>2017-07-15T06:56:27Z</time>
            </trkpt>
            <trkpt lat="46.425740" lon="11.943260">
                <time>2017-07-15T06:56:28Z</time>
            </trkpt>
            <trkpt lat="46.425740" lon="11.943400">
                <time>2017-07-15T06:56:29Z</time>
            </trkpt>
            <trkpt lat="46.425740" lon="11.943540">
                <time>2017-07-15T06:56:30Z</time>
            </trkpt>
            <trkpt lat="46.425710" lon="11.943700">
                <time>2017-07-15T06:56:31Z</time>
            </trkpt>
            <trkpt lat="46.425670" lon="11.943850">
                <time>2017-07-15T06:56:32Z</time>
            </trkpt>
            <trkpt lat="46.425620" lon="11.943990">
                <time>2017-07-15T06:56:33Z</time>
            </trkpt>
            <trkpt lat="46.425580" lon="11.944140">
                <time>2017-07-15T06:56:34Z</time>
            </trkpt>
            <trkpt lat="46.425530" lon="11.944290">
                <time>2017-07-15T06:56:35Z</time>
            </trkpt>
            <trkpt lat="46.425500" lon="11.944450">
                <time>2017-07-15T06:56:36Z</time>
            </trkpt>
            <trkpt lat="46.425480" lon="11.944610">
                <time>2017-07-15T06:56:37Z</time>
            </trkpt>
            <trkpt lat="46.425480" lon="11.944760">
                <time>2017-07-15T06:56:38Z</time>
            </trkpt>
            <trkpt lat="46.425510" lon="11.944930">
                <time>2017-07-15T06:56:39Z</time>
            </trkpt>
            <trkpt lat="46.425540" lon="11.945080">
                <time>2017-07-15T06:56:40Z</time>
            </trkpt>
            <trkpt lat="46.425590" lon="11.945230">
                <time>2017-07-15T06:56:41Z</time>
            </trkpt>
            <trkpt lat="46.425650" lon="11.945390">
                <time>2017-07-15T06:56:42Z</time>
            </trkpt>
            <trkpt lat="46.425700" lon="11.945530">
                <time>2017-07-15T06:56:43Z</time>
            </trkpt>
            <trkpt lat="46.425780" lon="11.945680">
                <time>2017-07-15T06:56:44Z</time>
            </trkpt>
            <trkpt lat="46.425850" lon="11.945810">
                <time>2017-07-15T06:56:45Z</time>
            </trkpt>
            <trkpt lat="46.425920" lon="11.945950">
                <time>2017-07-15T06:56:46Z</time>
            </trkpt>
            <trkpt lat="46.425990" lon="11.946100">
                <time>2017-07-15T06:56:47Z</time>
            </trkpt>
            <trkpt lat="46.426060" lon="11.946230">
                <time>2017-07-15T06:56:48Z</time>
            </trkpt>
            <trkpt lat="46.426130" lon="11.946360">
                <time>2017-07-15T06:56:49Z</time>
            </trkpt>
            <trkpt lat="46.426210" lon="11.946500">
                <time>2017-07-15T06:56:50Z</time>
            </trkpt>
            <trkpt lat="46.426280" lon="11.946650">
                <time>2017-07-15T06:56:51Z</time>
            </trkpt>
            <trkpt lat="46.426370" lon="11.946810">
                <time>2017-07-15T06:56:52Z</time>
            </trkpt>
            <trkpt lat="46.426440" lon="11.946950">
                <time>2017-07-15T06:56:53Z</time>
            </trkpt>
            <trkpt lat="46.426510" lon="11.947110">
                <time>2017-07-15T06:56:54Z</time>
            </trkpt>
            <trkpt lat="46.426580" lon="11.947280">
                <time>2017-07-15T06:56:55Z</time>
            </trkpt>
            <trkpt lat="46.426620" lon="11.947430">
                <time>2017-07-15T06:56:56Z</time>
            </trkpt>
            <trkpt lat="46.426670" lon="11.947600">
                <time>2017-07-15T06:56:57Z</time>
            </trkpt>
            <trkpt lat="46.426720" lon="11.947780">
                <time>2017-07-15T06:56:58Z</time>
            </trkpt>
            <trkpt lat="46.426760" lon="11.947930">
                <time>2017-07-15T06:56:59Z</time>
            </trkpt>
            <trkpt lat="46.426790" lon="11.948100">
                <time>2017-07-15T06:57:00Z</time>
            </trkpt>
            <trkpt lat="46.426810" lon="11.948270">
                <time>2017-07-15T06:57:01Z</time>
            </trkpt>
            <trkpt lat="46.426830" lon="11.948440">
                <time>2017-07-15T06:57:02Z</time>
            </trkpt>
            <trkpt lat="46.426850" lon="11.948630">
                <time>2017-07-15T06:57:03Z</time>
            </trkpt>
            <trkpt lat="46.426860" lon="11.948810">
                <time>2017-07-15T06:57:04Z</time>
            </trkpt>
            <trkpt lat="46.426880" lon="11.949010">
                <time>2017-07-15T06:57:05Z</time>
            </trkpt>
            <trkpt lat="46.426890" lon="11.949200">
                <time>2017-07-15T06:57:06Z</time>
            </trkpt>
            <trkpt lat="46.426910" lon="11.949400">
                <time>2017-07-15T06:57:07Z</time>
            </trkpt>
            <trkpt lat="46.426940" lon="11.949600">
                <time>2017-07-15T06:57:08Z</time>
            </trkpt>
            <trkpt lat="46.426970" lon="11.949780">
                <time>2017-07-15T06:57:09Z</time>
            </trkpt>
            <trkpt lat="46.427000" lon="11.949970">
                <time>2017-07-15T06:57:10Z</time>
            </trkpt>
            <trkpt lat="46.427040" lon="11.950170">
                <time>2017-07-15T06:57:11Z</time>
            </trkpt>
            <trkpt lat="46.427070" lon="11.950350">
                <time>2017-07-15T06:57:12Z</time>
            </trkpt>
            <trkpt lat="46.427100" lon="11.950540">
                <time>2017-07-15T06:57:13Z</time>
            </trkpt>
            <trkpt lat="46.427140" lon="11.950740">
                <time>2017-07-15T06:57:14Z</time>
            </trkpt>
            <trkpt lat="46.427170" lon="11.950900">
                <time>2017-07-15T06:57:15Z</time>
            </trkpt>
            <trkpt lat="46.427200" lon="11.951080">
                <time>2017-07-15T06:57:16Z</time>
            </trkpt>
            <trkpt lat="46.427230" lon="11.951230">
                <time>2017-07-15T06:57:17Z</time>
            </trkpt>
            <trkpt lat="46.427260" lon="11.951420">
                <time>2017-07-15T06:57:18Z</time>
            </trkpt>
            <trkpt lat="46.427290" lon="11.951620">
                <time>2017-07-15T06:57:19Z</time>
            </trkpt>
            <trkpt lat="46.427320" lon="11.951780">
                <time>2017-07-15T06:57:20Z</time>
            </trkpt>
            <trkpt lat="46.427340" lon="11.951960">
                <time>2017-07-15T06:57:21Z</time>
            </trkpt>
            <trkpt lat="46.427370" lon="11.952130">
                <time>2017-07-15T06:57:22Z</time>
            </trkpt>
            <trkpt lat="46.427390" lon="11.952310">
                <time>2017-07-15T06:57:23Z</time>
            </trkpt>
            <trkpt lat="46.427410" lon="11.952500">
                <time>2017-07-15T06:57:24Z</time>
            </trkpt>
            <trkpt lat="46.427420" lon="11.952670">
                <time>2017-07-15T06:57:25Z</time>
            </trkpt>
            <trkpt lat="46.427440" lon="11.952860">
                <time>2017-07-15T06:57:26Z</time>
            </trkpt>
            <trkpt lat="46.427450" lon="11.953050">
                <time>2017-07-15T06:57:27Z</time>
            </trkpt>
            <trkpt lat="46.427450" lon="11.953230">
                <time>2017-07-15T06:57:28Z</time>
            </trkpt>
            <trkpt lat="46.427460" lon="11.953430">
                <time>2017-07-15T06:57:29Z</time>
            </trkpt>
            <trkpt lat="46.427450" lon="11.953620">
                <time>2017-07-15T06:57:30Z</time>
            </trkpt>
            <trkpt lat="46.427440" lon="11.953800">
                <time>2017-07-15T06:57:31Z</time>
            </trkpt>
            <trkpt lat="46.427430" lon="11.954010">
                <time>2017-07-15T06:57:32Z</time>
            </trkpt>
            <trkpt lat="46.427420" lon="11.954190">
                <time>2017-07-15T06:57:33Z</time>
            </trkpt>
            <trkpt lat="46.427420" lon="11.954380">
                <time>2017-07-15T06:57:34Z</time>
            </trkpt>
            <trkpt lat="46.427400" lon="11.954590">
                <time>2017-07-15T06:57:35Z</time>
            </trkpt>
            <trkpt lat="46.427390" lon="11.954750">
                <time>2017-07-15T06:57:36Z</time>
            </trkpt>
            <trkpt lat="46.427380" lon="11.954930">
                <time>2017-07-15T06:57:37Z</time>
            </trkpt>
            <trkpt lat="46.427370" lon="11.955090">
                <time>2017-07-15T06:57:38Z</time>
            </trkpt>
            <trkpt lat="46.427360" lon="11.955260">
                <time>2017-07-15T06:57:39Z</time>
            </trkpt>
            <trkpt lat="46.427360" lon="11.955430">
                <time>2017-07-15T06:57:40Z</time>
            </trkpt>
            <trkpt lat="46.427340" lon="11.955580">
                <time>2017-07-15T06:57:41Z</time>
            </trkpt>
            <trkpt lat="46.427330" lon="11.955750">
                <time>2017-07-15T06:57:42Z</time>
            </trkpt>
            <trkpt lat="46.427320" lon="11.955940">
                <time>2017-07-15T06:57:43Z</time>
            </trkpt>
            <trkpt lat="46.427310" lon="11.956110">
                <time>2017-07-15T06:57:44Z</time>
            </trkpt>
            <trkpt lat="46.427310" lon="11.956290">
                <time>2017-07-15T06:57:45Z</time>
            </trkpt>
            <trkpt lat="46.427300" lon="11.956470">
                <time>2017-07-15T06:57:46Z</time>
            </trkpt>
            <trkpt lat="46.427280" lon="11.956630">
                <time>2017-07-15T06:57:47Z</time>
            </trkpt>
            <trkpt lat="46.427270" lon="11.956810">
                <time>2017-07-15T06:57:48Z</time>
            </trkpt>
            <trkpt lat="46.427260" lon="11.956960">
                <time>2017-07-15T06:57:49Z</time>
            </trkpt>
            <trkpt lat="46.427250" lon="11.957130">
                <time>2017-07-15T06:57:50Z</time>
            </trkpt>
            <trkpt lat="46.427240" lon="11.957310">
                <time>2017-07-15T06:57:51Z</time>
            </trkpt>
            <trkpt lat="46.427240" lon="11.957470">
                <time>2017-07-15T06:57:52Z</time>
            </trkpt>
            <trkpt lat="46.427230" lon="11.957650">
                <time>2017-07-15T06:57:53Z</time>
            </trkpt>
            <trkpt lat="46.427230" lon="11.957820">
                <time>2017-07-15T06:57:54Z</time>
            </trkpt>
            <trkpt lat="46.427240" lon="11.958000">
                <time>2017-07-15T06:57:55Z</time>
            </trkpt>
            <trkpt lat="46.427260" lon="11.958180">
                <time>2017-07-15T06:57:56Z</time>
            </trkpt>
            <trkpt lat="46.427310" lon="11.958350">
                <time>2017-07-15T06:57:57Z</time>
            </trkpt>
            <trkpt lat="46.427360" lon="11.958520">
                <time>2017-07-15T06:57:58Z</time>
            </trkpt>
            <trkpt lat="46.427410" lon="11.958710">
                <time>2017-07-15T06:57:59Z</time>
            </trkpt>
            <trkpt lat="46.427460" lon="11.958860">
                <time>2017-07-15T06:58:00Z</time>
            </trkpt>
            <trkpt lat="46.427530" lon="11.959040">
                <time>2017-07-15T06:58:01Z</time>
            </trkpt>
            <trkpt lat="46.427590" lon="11.959230">
                <time>2017-07-15T06:58:02Z</time>
            </trkpt>
            <trkpt lat="46.427640" lon="11.959380">
                <time>2017-07-15T06:58:03Z</time>
            </trkpt>
            <trkpt lat="46.427710" lon="11.959550">
                <time>2017-07-15T06:58:04Z</time>
            </trkpt>
            <trkpt lat="46.427770" lon="11.959670">
                <time>2017-07-15T06:58:05Z</time>
            </trkpt>
            <trkpt lat="46.427850" lon="11.959790">
                <time>2017-07-15T06:58:06Z</time>
            </trkpt>
            <trkpt lat="46.427960" lon="11.959910">
                <time>2017-07-15T06:58:07Z</time>
            </trkpt>
            <trkpt lat="46.428050" lon="11.960000">
                <time>2017-07-15T06:58:08Z</time>
            </trkpt>
            <trkpt lat="46.428170" lon="11.960090">
                <time>2017-07-15T06:58:09Z</time>
            </trkpt>
            <trkpt lat="46.428270" lon="11.960170">
                <time>2017-07-15T06:58:10Z</time>
            </trkpt>
            <trkpt lat="46.428380" lon="11.960280">
                <time>2017-07-15T06:58:11Z</time>
            </trkpt>
            <trkpt lat="46.428510" lon="11.960380">
                <time>2017-07-15T06:58:12Z</time>
            </trkpt>
            <trkpt lat="46.428620" lon="11.960470">
                <time>2017-07-15T06:58:13Z</time>
            </trkpt>
            <trkpt lat="46.428740" lon="11.960560">
                <time>2017-07-15T06:58:14Z</time>
            </trkpt>
            <trkpt lat="46.428860" lon="11.960650">
                <time>2017-07-15T06:58:15Z</time>
            </trkpt>
            <trkpt lat="46.428960" lon="11.960730">
                <time>2017-07-15T06:58:16Z</time>
            </trkpt>
            <trkpt lat="46.429060" lon="11.960810">
                <time>2017-07-15T06:58:17Z</time>
            </trkpt>
            <trkpt lat="46.429160" lon="11.960890">
                <time>2017-07-15T06:58:18Z</time>
            </trkpt>
            <trkpt lat="46.429250" lon="11.960970">
                <time>2017-07-15T06:58:19Z</time>
            </trkpt>
            <trkpt lat="46.429350" lon="11.961050">
                <time>2017-07-15T06:58:20Z</time>
            </trkpt>
            <trkpt lat="46.429450" lon="11.961130">
                <time>2017-07-15T06:58:21Z</time>
            </trkpt>
            <trkpt lat="46.429560" lon="11.961220">
                <time>2017-07-15T06:58:22Z</time>
            </trkpt>
            <trkpt lat="46.429680" lon="11.961310">
                <time>2017-07-15T06:58:23Z</time>
            </trkpt>
            <trkpt lat="46.429770" lon="11.961400">
                <time>2017-07-15T06:58:24Z</time>
            </trkpt>
            <trkpt lat="46.429890" lon="11.961490">
                <time>2017-07-15T06:58:25Z</time>
            </trkpt>
            <trkpt lat="46.430000" lon="11.961580">
                <time>2017-07-15T06:58:26Z</time>
            </trkpt>
            <trkpt lat="46.430110" lon="11.961670">
                <time>2017-07-15T06:58:27Z</time>
            </trkpt>
            <trkpt lat="46.430210" lon="11.961790">
                <time>2017-07-15T06:58:28Z</time>
            </trkpt>
            <trkpt lat="46.430290" lon="11.961910">
                <time>2017-07-15T06:58:29Z</time>
            </trkpt>
            <trkpt lat="46.430360" lon="11.962070">
                <time>2017-07-15T06:58:30Z</time>
            </trkpt>
            <trkpt lat="46.430420" lon="11.962250">
                <time>2017-07-15T06:58:31Z</time>
            </trkpt>
            <trkpt lat="46.430440" lon="11.962430">
                <time>2017-07-15T06:58:32Z</time>
            </trkpt>
            <trkpt lat="46.430450" lon="11.962630">
                <time>2017-07-15T06:58:33Z</time>
            </trkpt>
            <trkpt lat="46.430450" lon="11.962860">
                <time>2017-07-15T06:58:34Z</time>
            </trkpt>
            <trkpt lat="46.430440" lon="11.963070">
                <time>2017-07-15T06:58:35Z</time>
            </trkpt>
            <trkpt lat="46.430440" lon="11.963310">
                <time>2017-07-15T06:58:36Z</time>
            </trkpt>
            <trkpt lat="46.430460" lon="11.963540">
                <time>2017-07-15T06:58:37Z</time>
            </trkpt>
            <trkpt lat="46.430490" lon="11.963790">
                <time>2017-07-15T06:58:38Z</time>
            </trkpt>
            <trkpt lat="46.430540" lon="11.964060">
                <time>2017-07-15T06:58:39Z</time>
            </trkpt>
            <trkpt lat="46.430570" lon="11.964300">
                <time>2017-07-15T06:58:40Z</time>
            </trkpt>
            <trkpt lat="46.430600" lon="11.964560">
                <time>2017-07-15T06:58:41Z</time>
            </trkpt>
            <trkpt lat="46.430630" lon="11.964820">
                <time>2017-07-15T06:58:42Z</time>
            </trkpt>
            <trkpt lat="46.430660" lon="11.965070">
                <time>2017-07-15T06:58:43Z</time>
            </trkpt>
            <trkpt lat="46.430700" lon="11.965330">
                <time>2017-07-15T06:58:44Z</time>
            </trkpt>
            <trkpt lat="46.430730" lon="11.965550">
                <time>2017-07-15T06:58:45Z</time>
            </trkpt>
            <trkpt lat="46.430760" lon="11.965760">
                <time>2017-07-15T06:58:46Z</time>
            </trkpt>
            <trkpt lat="46.430790" lon="11.965990">
                <time>2017-07-15T06:58:47Z</time>
            </trkpt>
            <trkpt lat="46.430810" lon="11.966180">
                <time>2017-07-15T06:58:48Z</time>
            </trkpt>
            <trkpt lat="46.430840" lon="11.966370">
                <time>2017-07-15T06:58:49Z</time>
            </trkpt>
            <trkpt lat="46.430870" lon="11.966570">
                <time>2017-07-15T06:58:50Z</time>
            </trkpt>
            <trkpt lat="46.430900" lon="11.966730">
                <time>2017-07-15T06:58:51Z</time>
            </trkpt>
            <trkpt lat="46.430970" lon="11.966910">
                <time>2017-07-15T06:58:52Z</time>
            </trkpt>
            <trkpt lat="46.431040" lon="11.967060">
                <time>2017-07-15T06:58:53Z</time>
            </trkpt>
            <trkpt lat="46.431150" lon="11.967210">
                <time>2017-07-15T06:58:54Z</time>
            </trkpt>
            <trkpt lat="46.431280" lon="11.967360">
                <time>2017-07-15T06:58:55Z</time>
            </trkpt>
            <trkpt lat="46.431390" lon="11.967490">
                <time>2017-07-15T06:58:56Z</time>
            </trkpt>
            <trkpt lat="46.431510" lon="11.967620">
                <time>2017-07-15T06:58:57Z</time>
            </trkpt>
            <trkpt lat="46.431630" lon="11.967770">
                <time>2017-07-15T06:58:58Z</time>
            </trkpt>
            <trkpt lat="46.431730" lon="11.967940">
                <time>2017-07-15T06:58:59Z</time>
            </trkpt>
            <trkpt lat="46.431820" lon="11.968140">
                <time>2017-07-15T06:59:00Z</time>
            </trkpt>
            <trkpt lat="46.431890" lon="11.968340">
                <time>2017-07-15T06:59:01Z</time>
            </trkpt>
            <trkpt lat="46.431960" lon="11.968540">
                <time>2017-07-15T06:59:02Z</time>
            </trkpt>
            <trkpt lat="46.432040" lon="11.968720">
                <time>2017-07-15T06:59:03Z</time>
            </trkpt>
            <trkpt lat="46.432120" lon="11.968900">
                <time>2017-07-15T06:59:04Z</time>
            </trkpt>
            <trkpt lat="46.432190" lon="11.969100">
                <time>2017-07-15T06:59:05Z</time>
            </trkpt>
            <trkpt lat="46.432240" lon="11.969340">
                <time>2017-07-15T06:59:06Z</time>
            </trkpt>
            <trkpt lat="46.432290" lon="11.969560">
                <time>2017-07-15T06:59:07Z</time>
            </trkpt>
            <trkpt lat="46.432340" lon="11.969810">
                <time>2017-07-15T06:59:08Z</time>
            </trkpt>
            <trkpt lat="46.432380" lon="11.970030">
                <time>2017-07-15T06:59:09Z</time>
            </trkpt>
            <trkpt lat="46.432420" lon="11.970260">
                <time>2017-07-15T06:59:10Z</time>
            </trkpt>
            <trkpt lat="46.432480" lon="11.970490">
                <time>2017-07-15T06:59:11Z</time>
            </trkpt>
            <trkpt lat="46.432550" lon="11.970680">
                <time>2017-07-15T06:59:12Z</time>
            </trkpt>
            <trkpt lat="46.432630" lon="11.970880">
                <time>2017-07-15T06:59:13Z</time>
            </trkpt>
            <trkpt lat="46.432710" lon="11.971080">
                <time>2017-07-15T06:59:14Z</time>
            </trkpt>
            <trkpt lat="46.432780" lon="11.971270">
                <time>2017-07-15T06:59:15Z</time>
            </trkpt>
            <trkpt lat="46.432840" lon="11.971480">
                <time>2017-07-15T06:59:16Z</time>
            </trkpt>
            <trkpt lat="46.432880" lon="11.971670">
                <time>2017-07-15T06:59:17Z</time>
            </trkpt>
            <trkpt lat="46.432920" lon="11.971880">
                <time>2017-07-15T06:59:18Z</time>
            </trkpt>
            <trkpt lat="46.432960" lon="11.972120">
                <time>2017-07-15T06:59:19Z</time>
            </trkpt>
            <trkpt lat="46.432990" lon="11.972340">
                <time>2017-07-15T06:59:20Z</time>
            </trkpt>
            <trkpt lat="46.433020" lon="11.972560">
                <time>2017-07-15T06:59:21Z</time>
            </trkpt>
            <trkpt lat="46.433050" lon="11.972810">
                <time>2017-07-15T06:59:22Z</time>
            </trkpt>
            <trkpt lat="46.433080" lon="11.973010">
                <time>2017-07-15T06:59:23Z</time>
            </trkpt>
            <trkpt lat="46.433110" lon="11.973250">
                <time>2017-07-15T06:59:24Z</time>
            </trkpt>
            <trkpt lat="46.433130" lon="11.973450">
                <time>2017-07-15T06:59:25Z</time>
            </trkpt>
            <trkpt lat="46.433150" lon="11.973660">
                <time>2017-07-15T06:59:26Z</time>
            </trkpt>
            <trkpt lat="46.433170" lon="11.973890">
                <time>2017-07-15T06:59:27Z</time>
            </trkpt>
            <trkpt lat="46.433180" lon="11.974080">
                <time>2017-07-15T06:59:28Z</time>
            </trkpt>
            <trkpt lat="46.433200" lon="11.974280">
                <time>2017-07-15T06:59:29Z</time>
            </trkpt>
            <trkpt lat="46.433220" lon="11.974480">
                <time>2017-07-15T06:59:30Z</time>
            </trkpt>
            <trkpt lat="46.433260" lon="11.974660">
                <time>2017-07-15T06:59:31Z</time>
            </trkpt>
            <trkpt lat="46.433300" lon="11.974840">
                <time>2017-07-15T06:59:32Z</time>
            </trkpt>
            <trkpt lat="46.433310" lon="11.974990">
                <time>2017-07-15T06:59:33Z</time>
            </trkpt>
            <trkpt lat="46.433290" lon="11.975130">
                <time>2017-07-15T06:59:34Z</time>
            </trkpt>
            <trkpt lat="46.433230" lon="11.975270">
                <time>2017-07-15T06:59:35Z</time>
            </trkpt>
            <trkpt lat="46.433150" lon="11.975350">
                <time>2017-07-15T06:59:36Z</time>
            </trkpt>
            <trkpt lat="46.433060" lon="11.975410">
                <time>2017-07-15T06:59:37Z</time>
            </trkpt>
            <trkpt lat="46.432950" lon="11.975410">
                <time>2017-07-15T06:59:38Z</time>
            </trkpt>
            <trkpt lat="46.432820" lon="11.975310">
                <time>2017-07-15T06:59:39Z</time>
            </trkpt>
            <trkpt lat="46.432770" lon="11.975120">
                <time>2017-07-15T06:59:40Z</time>
            </trkpt>
            <trkpt lat="46.432700" lon="11.974950">
                <time>2017-07-15T06:59:41Z</time>
            </trkpt>
            <trkpt lat="46.432670" lon="11.974750">
                <time>2017-07-15T06:59:42Z</time>
            </trkpt>
            <trkpt lat="46.432650" lon="11.974520">
                <time>2017-07-15T06:59:43Z</time>
            </trkpt>
            <trkpt lat="46.432630" lon="11.974310">
                <time>2017-07-15T06:59:44Z</time>
            </trkpt>
            <trkpt lat="46.432610" lon="11.974100">
                <time>2017-07-15T06:59:45Z</time>
            </trkpt>
            <trkpt lat="46.432600" lon="11.973920">
                <time>2017-07-15T06:59:46Z</time>
            </trkpt>
            <trkpt lat="46.432580" lon="11.973760">
                <time>2017-07-15T06:59:47Z</time>
            </trkpt>
            <trkpt lat="46.432550" lon="11.973620">
                <time>2017-07-15T06:59:48Z</time>
            </trkpt>
            <trkpt lat="46.432490" lon="11.973520">
                <time>2017-07-15T06:59:49Z</time>
            </trkpt>
            <trkpt lat="46.432410" lon="11.973440">
                <time>2017-07-15T06:59:50Z</time>
            </trkpt>
            <trkpt lat="46.432300" lon="11.973400">
                <time>2017-07-15T06:59:51Z</time>
            </trkpt>
            <trkpt lat="46.432210" lon="11.973420">
                <time>2017-07-15T06:59:52Z</time>
            </trkpt>
            <trkpt lat="46.432120" lon="11.973490">
                <time>2017-07-15T06:59:53Z</time>
            </trkpt>
            <trkpt lat="46.432050" lon="11.973620">
                <time>2017-07-15T06:59:54Z</time>
            </trkpt>
            <trkpt lat="46.432010" lon="11.973760">
                <time>2017-07-15T06:59:55Z</time>
            </trkpt>
            <trkpt lat="46.432010" lon="11.973940">
                <time>2017-07-15T06:59:56Z</time>
            </trkpt>
            <trkpt lat="46.432040" lon="11.974090">
                <time>2017-07-15T06:59:57Z</time>
            </trkpt>
            <trkpt lat="46.432090" lon="11.974270">
                <time>2017-07-15T06:59:58Z</time>
            </trkpt>
            <trkpt lat="46.432130" lon="11.974460">
                <time>2017-07-15T06:59:59Z</time>
            </trkpt>
            <trkpt lat="46.432160" lon="11.974640">
                <time>2017-07-15T07:00:00Z</time>
            </trkpt>
            <trkpt lat="46.432190" lon="11.974840">
                <time>2017-07-15T07:00:01Z</time>
            </trkpt>
            <trkpt lat="46.432210" lon="11.975040">
                <time>2017-07-15T07:00:02Z</time>
            </trkpt>
            <trkpt lat="46.432230" lon="11.975240">
                <time>2017-07-15T07:00:03Z</time>
            </trkpt>
            <trkpt lat="46.432230" lon="11.975450">
                <time>2017-07-15T07:00:04Z</time>
            </trkpt>
            <trkpt lat="46.432220" lon="11.975620">
                <time>2017-07-15T07:00:05Z</time>
            </trkpt>
            <trkpt lat="46.432210" lon="11.975800">
                <time>2017-07-15T07:00:06Z</time>
            </trkpt>
            <trkpt lat="46.432190" lon="11.975980">
                <time>2017-07-15T07:00:07Z</time>
            </trkpt>
            <trkpt lat="46.432190" lon="11.976140">
                <time>2017-07-15T07:00:08Z</time>
            </trkpt>
            <trkpt lat="46.432200" lon="11.976300">
                <time>2017-07-15T07:00:09Z</time>
            </trkpt>
            <trkpt lat="46.432230" lon="11.976470">
                <time>2017-07-15T07:00:10Z</time>
            </trkpt>
            <trkpt lat="46.432270" lon="11.976610">
                <time>2017-07-15T07:00:11Z</time>
            </trkpt>
            <trkpt lat="46.432320" lon="11.976790">
                <time>2017-07-15T07:00:12Z</time>
            </trkpt>
            <trkpt lat="46.432370" lon="11.976950">
                <time>2017-07-15T07:00:13Z</time>
            </trkpt>
            <trkpt lat="46.432440" lon="11.977140">
                <time>2017-07-15T07:00:14Z</time>
            </trkpt>
            <trkpt lat="46.432500" lon="11.977340">
                <time>2017-07-15T07:00:15Z</time>
            </trkpt>
            <trkpt lat="46.432560" lon="11.977520">
                <time>2017-07-15T07:00:16Z</time>
            </trkpt>
            <trkpt lat="46.432630" lon="11.977710">
                <time>2017-07-15T07:00:17Z</time>
            </trkpt>
            <trkpt lat="46.432700" lon="11.977910">
                <time>2017-07-15T07:00:18Z</time>
            </trkpt>
            <trkpt lat="46.432760" lon="11.978110">
                <time>2017-07-15T07:00:19Z</time>
            </trkpt>
            <trkpt lat="46.432830" lon="11.978330">
                <time>2017-07-15T07:00:20Z</time>
            </trkpt>
            <trkpt lat="46.432890" lon="11.978540">
                <time>2017-07-15T07:00:21Z</time>
            </trkpt>
            <trkpt lat="46.432940" lon="11.978750">
                <time>2017-07-15T07:00:22Z</time>
            </trkpt>
            <trkpt lat="46.433010" lon="11.978980">
                <time>2017-07-15T07:00:23Z</time>
            </trkpt>
            <trkpt lat="46.433070" lon="11.979160">
                <time>2017-07-15T07:00:24Z</time>
            </trkpt>
            <trkpt lat="46.433130" lon="11.979360">
                <time>2017-07-15T07:00:25Z</time>
            </trkpt>
            <trkpt lat="46.433220" lon="11.979560">
                <time>2017-07-15T07:00:26Z</time>
            </trkpt>
            <trkpt lat="46.433310" lon="11.979720">
                <time>2017-07-15T07:00:27Z</time>
            </trkpt>
            <trkpt lat="46.433420" lon="11.979870">
                <time>2017-07-15T07:00:28Z</time>
            </trkpt>
            <trkpt lat="46.433520" lon="11.980000">
                <time>2017-07-15T07:00:29Z</time>
            </trkpt>
            <trkpt lat="46.433600" lon="11.980080">
                <time>2017-07-15T07:00:30Z</time>
            </trkpt>
            <trkpt lat="46.433690" lon="11.980150">
                <time>2017-07-15T07:00:31Z</time>
            </trkpt>
            <trkpt lat="46.433790" lon="11.980160">
                <time>2017-07-15T07:00:32Z</time>
            </trkpt>
            <trkpt lat="46.433910" lon="11.980150">
                <time>2017-07-15T07:00:33Z</time>
            </trkpt>
            <trkpt lat="46.434050" lon="11.980140">
                <time>2017-07-15T07:00:34Z</time>
            </trkpt>
            <trkpt lat="46.434190" lon="11.980140">
                <time>2017-07-15T07:00:35Z</time>
            </trkpt>
            <trkpt lat="46.434360" lon="11.980160">
                <time>2017-07-15T07:00:36Z</time>
            </trkpt>
            <trkpt lat="46.434520" lon="11.980170">
                <time>2017-07-15T07:00:37Z</time>
            </trkpt>
            <trkpt lat="46.434670" lon="11.980190">
                <time>2017-07-15T07:00:38Z</time>
            </trkpt>
            <trkpt lat="46.434840" lon="11.980240">
                <time>2017-07-15T07:00:39Z</time>
            </trkpt>
            <trkpt lat="46.434980" lon="11.980290">
                <time>2017-07-15T07:00:40Z</time>
            </trkpt>
            <trkpt lat="46.435140" lon="11.980360">
                <time>2017-07-15T07:00:41Z</time>
            </trkpt>
            <trkpt lat="46.435300" lon="11.980380">
                <time>2017-07-15T07:00:42Z</time>
            </trkpt>
            <trkpt lat="46.435440" lon="11.980390">
                <time>2017-07-15T07:00:43Z</time>
            </trkpt>
            <trkpt lat="46.435610" lon="11.980400">
                <time>2017-07-15T07:00:44Z</time>
            </trkpt>
            <trkpt lat="46.435750" lon="11.980410">
                <time>2017-07-15T07:00:45Z</time>
            </trkpt>
            <trkpt lat="46.435890" lon="11.980430">
                <time>2017-07-15T07:00:46Z</time>
            </trkpt>
            <trkpt lat="46.436050" lon="11.980500">
                <time>2017-07-15T07:00:47Z</time>
            </trkpt>
            <trkpt lat="46.436180" lon="11.980570">
                <time>2017-07-15T07:00:48Z</time>
            </trkpt>
            <trkpt lat="46.436320" lon="11.980680">
                <time>2017-07-15T07:00:49Z</time>
            </trkpt>
            <trkpt lat="46.436450" lon="11.980810">
                <time>2017-07-15T07:00:50Z</time>
            </trkpt>
            <trkpt lat="46.436580" lon="11.980950">
                <time>2017-07-15T07:00:51Z</time>
            </trkpt>
            <trkpt lat="46.436710" lon="11.981100">
                <time>2017-07-15T07:00:52Z</time>
            </trkpt>
            <trkpt lat="46.436800" lon="11.981230">
                <time>2017-07-15T07:00:53Z</time>
            </trkpt>
            <trkpt lat="46.436890" lon="11.981370">
                <time>2017-07-15T07:00:54Z</time>
            </trkpt>
            <trkpt lat="46.436990" lon="11.981530">
                <time>2017-07-15T07:00:55Z</time>
            </trkpt>
            <trkpt lat="46.437050" lon="11.981680">
                <time>2017-07-15T07:00:56Z</time>
            </trkpt>
            <trkpt lat="46.437100" lon="11.981850">
                <time>2017-07-15T07:00:57Z</time>
            </trkpt>
            <trkpt lat="46.437130" lon="11.982050">
                <time>2017-07-15T07:00:58Z</time>
            </trkpt>
            <trkpt lat="46.437150" lon="11.982240">
                <time>2017-07-15T07:00:59Z</time>
            </trkpt>
            <trkpt lat="46.437180" lon="11.982470">
                <time>2017-07-15T07:01:00Z</time>
            </trkpt>
            <trkpt lat="46.437190" lon="11.982670">
                <time>2017-07-15T07:01:01Z</time>
            </trkpt>
            <trkpt lat="46.437210" lon="11.982880">
                <time>2017-07-15T07:01:02Z</time>
            </trkpt>
            <trkpt lat="46.437230" lon="11.983120">
                <time>2017-07-15T07:01:03Z</time>
            </trkpt>
            <trkpt lat="46.437250" lon="11.983330">
                <time>2017-07-15T07:01:04Z</time>
            </trkpt>
            <trkpt lat="46.437290" lon="11.983540">
                <time>2017-07-15T07:01:05Z</time>
            </trkpt>
            <trkpt lat="46.437330" lon="11.983750">
                <time>2017-07-15T07:01:06Z</time>
            </trkpt>
            <trkpt lat="46.437390" lon="11.983960">
                <time>2017-07-15T07:01:07Z</time>
            </trkpt>
            <trkpt lat="46.437460" lon="11.984170">
                <time>2017-07-15T07:01:08Z</time>
            </trkpt>
            <trkpt lat="46.437520" lon="11.984360">
                <time>2017-07-15T07:01:09Z</time>
            </trkpt>
            <trkpt lat="46.437590" lon="11.984570">
                <time>2017-07-15T07:01:10Z</time>
            </trkpt>
            <trkpt lat="46.437660" lon="11.984790">
                <time>2017-07-15T07:01:11Z</time>
            </trkpt>
            <trkpt lat="46.437730" lon="11.984990">
                <time>2017-07-15T07:01:12Z</time>
            </trkpt>
            <trkpt lat="46.437800" lon="11.985200">
                <time>2017-07-15T07:01:13Z</time>
            </trkpt>
            <trkpt lat="46.437870" lon="11.985410">
                <time>2017-07-15T07:01:14Z</time>
            </trkpt>
            <trkpt lat="46.437930" lon="11.985590">
                <time>2017-07-15T07:01:15Z</time>
            </trkpt>
            <trkpt lat="46.438000" lon="11.985770">
                <time>2017-07-15T07:01:16Z</time>
            </trkpt>
            <trkpt lat="46.438050" lon="11.985910">
                <time>2017-07-15T07:01:17Z</time>
            </trkpt>
            <trkpt lat="46.438120" lon="11.986040">
                <time>2017-07-15T07:01:18Z</time>
            </trkpt>
            <trkpt lat="46.438210" lon="11.986160">
                <time>2017-07-15T07:01:19Z</time>
            </trkpt>
            <trkpt lat="46.438290" lon="11.986240">
                <time>2017-07-15T07:01:20Z</time>
            </trkpt>
            <trkpt lat="46.438390" lon="11.986310">
                <time>2017-07-15T07:01:21Z</time>
            </trkpt>
            <trkpt lat="46.438510" lon="11.986360">
                <time>2017-07-15T07:01:22Z</time>
            </trkpt>
            <trkpt lat="46.438630" lon="11.986400">
                <time>2017-07-15T07:01:23Z</time>
            </trkpt>
            <trkpt lat="46.438760" lon="11.986430">
                <time>2017-07-15T07:01:24Z</time>
            </trkpt>
            <trkpt lat="46.438870" lon="11.986460">
                <time>2017-07-15T07:01:25Z</time>
            </trkpt>
            <trkpt lat="46.438980" lon="11.986520">
                <time>2017-07-15T07:01:26Z</time>
            </trkpt>
            <trkpt lat="46.439090" lon="11.986590">
                <time>2017-07-15T07:01:27Z</time>
            </trkpt>
            <trkpt lat="46.439180" lon="11.986680">
                <time>2017-07-15T07:01:28Z</time>
            </trkpt>
            <trkpt lat="46.439270" lon="11.986790">
                <time>2017-07-15T07:01:29Z</time>
            </trkpt>
            <trkpt lat="46.439360" lon="11.986910">
                <time>2017-07-15T07:01:30Z</time>
            </trkpt>
            <trkpt lat="46.439430" lon="11.987010">
                <time>2017-07-15T07:01:31Z</time>
            </trkpt>
            <trkpt lat="46.439510" lon="11.987130">
                <time>2017-07-15T07:01:32Z</time>
            </trkpt>
            <trkpt lat="46.439570" lon="11.987230">
                <time>2017-07-15T07:01:33Z</time>
            </trkpt>
            <trkpt lat="46.439640" lon="11.987340">
                <time>2017-07-15T07:01:34Z</time>
            </trkpt>
            <trkpt lat="46.439710" lon="11.987450">
                <time>2017-07-15T07:01:35Z</time>
            </trkpt>
            <trkpt lat="46.439770" lon="11.987560">
                <time>2017-07-15T07:01:36Z</time>
            </trkpt>
            <trkpt lat="46.439830" lon="11.987660">
                <time>2017-07-15T07:01:37Z</time>
            </trkpt>
            <trkpt lat="46.439920" lon="11.987750">
                <time>2017-07-15T07:01:38Z</time>
            </trkpt>
            <trkpt lat="46.440000" lon="11.987830">
                <time>2017-07-15T07:01:39Z</time>
            </trkpt>
            <trkpt lat="46.440090" lon="11.987900">
                <time>2017-07-15T07:01:40Z</time>
            </trkpt>
            <trkpt lat="46.440190" lon="11.987930">
                <time>2017-07-15T07:01:41Z</time>
            </trkpt>
            <trkpt lat="46.440290" lon="11.987940">
                <time>2017-07-15T07:01:42Z</time>
            </trkpt>
            <trkpt lat="46.440410" lon="11.987920">
                <time>2017-07-15T07:01:43Z</time>
            </trkpt>
            <trkpt lat="46.440510" lon="11.987900">
                <time>2017-07-15T07:01:44Z</time>
            </trkpt>
            <trkpt lat="46.440620" lon="11.987870">
                <time>2017-07-15T07:01:45Z</time>
            </trkpt>
            <trkpt lat="46.440720" lon="11.987880">
                <time>2017-07-15T07:01:46Z</time>
            </trkpt>
            <trkpt lat="46.440790" lon="11.987920">
                <time>2017-07-15T07:01:47Z</time>
            </trkpt>
            <trkpt lat="46.440860" lon="11.988000">
                <time>2017-07-15T07:01:48Z</time>
            </trkpt>
            <trkpt lat="46.440900" lon="11.988100">
                <time>2017-07-15T07:01:49Z</time>
            </trkpt>
            <trkpt lat="46.440950" lon="11.988250">
                <time>2017-07-15T07:01:50Z</time>
            </trkpt>
            <trkpt lat="46.440990" lon="11.988410">
                <time>2017-07-15T07:01:51Z</time>
            </trkpt>
            <trkpt lat="46.441010" lon="11.988570">
                <time>2017-07-15T07:01:52Z</time>
            </trkpt>
            <trkpt lat="46.441040" lon="11.988720">
                <time>2017-07-15T07:01:53Z</time>
            </trkpt>
            <trkpt lat="46.441060" lon="11.988870">
                <time>2017-07-15T07:01:54Z</time>
            </trkpt>
            <trkpt lat="46.441070" lon="11.989020">
                <time>2017-07-15T07:01:55Z</time>
            </trkpt>
            <trkpt lat="46.441070" lon="11.989190">
                <time>2017-07-15T07:01:56Z</time>
            </trkpt>
            <trkpt lat="46.441050" lon="11.989320">
                <time>2017-07-15T07:01:57Z</time>
            </trkpt>
            <trkpt lat="46.441020" lon="11.989450">
                <time>2017-07-15T07:01:58Z</time>
            </trkpt>
            <trkpt lat="46.440990" lon="11.989590">
                <time>2017-07-15T07:01:59Z</time>
            </trkpt>
            <trkpt lat="46.440940" lon="11.989690">
                <time>2017-07-15T07:02:00Z</time>
            </trkpt>
            <trkpt lat="46.440900" lon="11.989810">
                <time>2017-07-15T07:02:01Z</time>
            </trkpt>
            <trkpt lat="46.440850" lon="11.989940">
                <time>2017-07-15T07:02:02Z</time>
            </trkpt>
            <trkpt lat="46.440790" lon="11.990050">
                <time>2017-07-15T07:02:03Z</time>
            </trkpt>
            <trkpt lat="46.440710" lon="11.990180">
                <time>2017-07-15T07:02:04Z</time>
            </trkpt>
            <trkpt lat="46.440630" lon="11.990290">
                <time>2017-07-15T07:02:05Z</time>
            </trkpt>
            <trkpt lat="46.440530" lon="11.990390">
                <time>2017-07-15T07:02:06Z</time>
            </trkpt>
            <trkpt lat="46.440420" lon="11.990490">
                <time>2017-07-15T07:02:07Z</time>
            </trkpt>
            <trkpt lat="46.440320" lon="11.990590">
                <time>2017-07-15T07:02:08Z</time>
            </trkpt>
            <trkpt lat="46.440210" lon="11.990700">
                <time>2017-07-15T07:02:09Z</time>
            </trkpt>
            <trkpt lat="46.440100" lon="11.990800">
                <time>2017-07-15T07:02:10Z</time>
            </trkpt>
            <trkpt lat="46.440000" lon="11.990910">
                <time>2017-07-15T07:02:11Z</time>
            </trkpt>
            <trkpt lat="46.439900" lon="11.991010">
                <time>2017-07-15T07:02:12Z</time>
            </trkpt>
            <trkpt lat="46.439810" lon="11.991100">
                <time>2017-07-15T07:02:13Z</time>
            </trkpt>
            <trkpt lat="46.439720" lon="11.991200">
                <time>2017-07-15T07:02:14Z</time>
            </trkpt>
            <trkpt lat="46.439640" lon="11.991300">
                <time>2017-07-15T07:02:15Z</time>
            </trkpt>
            <trkpt lat="46.439570" lon="11.991400">
                <time>2017-07-15T07:02:16Z</time>
            </trkpt>
            <trkpt lat="46.439500" lon="11.991510">
                <time>2017-07-15T07:02:17Z</time>
            </trkpt>
            <trkpt lat="46.439430" lon="11.991640">
                <time>2017-07-15T07:02:18Z</time>
            </trkpt>
            <trkpt lat="46.439370" lon="11.991770">
                <time>2017-07-15T07:02:19Z</time>
            </trkpt>
            <trkpt lat="46.439300" lon="11.991910">
                <time>2017-07-15T07:02:20Z</time>
            </trkpt>
            <trkpt lat="46.439240" lon="11.992050">
                <time>2017-07-15T07:02:21Z</time>
            </trkpt>
            <trkpt lat="46.439170" lon="11.992190">
                <time>2017-07-15T07:02:22Z</time>
            </trkpt>
            <trkpt lat="46.439100" lon="11.992350">
                <time>2017-07-15T07:02:23Z</time>
            </trkpt>
            <trkpt lat="46.439040" lon="11.992480">
                <time>2017-07-15T07:02:24Z</time>
            </trkpt>
            <trkpt lat="46.438970" lon="11.992620">
                <time>2017-07-15T07:02:25Z</time>
            </trkpt>
            <trkpt lat="46.438910" lon="11.992750">
                <time>2017-07-15T07:02:26Z</time>
            </trkpt>
            <trkpt lat="46.438850" lon="11.992880">
                <time>2017-07-15T07:02:27Z</time>
            </trkpt>
            <trkpt lat="46.438790" lon="11.993010">
                <time>2017-07-15T07:02:28Z</time>
            </trkpt>
            <trkpt lat="46.438750" lon="11.993120">
                <time>2017-07-15T07:02:29Z</time>
            </trkpt>
            <trkpt lat="46.438700" lon="11.993230">
                <time>2017-07-15T07:02:30Z</time>
            </trkpt>
            <trkpt lat="46.438640" lon="11.993350">
                <time>2017-07-15T07:02:31Z</time>
            </trkpt>
            <trkpt lat="46.438590" lon="11.993460">
                <time>2017-07-15T07:02:32Z</time>
            </trkpt>
            <trkpt lat="46.438540" lon="11.993570">
                <time>2017-07-15T07:02:33Z</time>
            </trkpt>
            <trkpt lat="46.438470" lon="11.993700">
                <time>2017-07-15T07:02:34Z</time>
            </trkpt>
            <trkpt lat="46.438420" lon="11.993830">
                <time>2017-07-15T07:02:35Z</time>
            </trkpt>
            <trkpt lat="46.438360" lon="11.993960">
                <time>2017-07-15T07:02:36Z</time>
            </trkpt>
            <trkpt lat="46.438310" lon="11.994070">
                <time>2017-07-15T07:02:37Z</time>
            </trkpt>
            <trkpt lat="46.438260" lon="11.994190">
                <time>2017-07-15T07:02:38Z</time>
            </trkpt>
            <trkpt lat="46.438200" lon="11.994320">
                <time>2017-07-15T07:02:39Z</time>
            </trkpt>
            <trkpt lat="46.438140" lon="11.994440">
                <time>2017-07-15T07:02:40Z</time>
            </trkpt>
            <trkpt lat="46.438080" lon="11.994570">
                <time>2017-07-15T07:02:41Z</time>
            </trkpt>
            <trkpt lat="46.438010" lon="11.994700">
                <time>2017-07-15T07:02:42Z</time>
            </trkpt>
            <trkpt lat="46.437930" lon="11.994800">
                <time>2017-07-15T07:02:43Z</time>
            </trkpt>
            <trkpt lat="46.437840" lon="11.994890">
                <time>2017-07-15T07:02:44Z</time>
            </trkpt>
            <trkpt lat="46.437750" lon="11.994970">
                <time>2017-07-15T07:02:45Z</time>
            </trkpt>
            <trkpt lat="46.437660" lon="11.995050">
                <time>2017-07-15T07:02:46Z</time>
            </trkpt>
            <trkpt lat="46.437550" lon="11.995130">
                <time>2017-07-15T07:02:47Z</time>
            </trkpt>
            <trkpt lat="46.437460" lon="11.995210">
                <time>2017-07-15T07:02:48Z</time>
            </trkpt>
            <trkpt lat="46.437360" lon="11.995300">
                <time>2017-07-15T07:02:49Z</time>
            </trkpt>
            <trkpt lat="46.437250" lon="11.995400">
                <time>2017-07-15T07:02:50Z</time>
            </trkpt>
            <trkpt lat="46.437150" lon="11.995470">
                <time>2017-07-15T07:02:51Z</time>
            </trkpt>
            <trkpt lat="46.437040" lon="11.995560">
                <time>2017-07-15T07:02:52Z</time>
            </trkpt>
            <trkpt lat="46.436930" lon="11.995610">
                <time>2017-07-15T07:02:53Z</time>
            </trkpt>
            <trkpt lat="46.436810" lon="11.995650">
                <time>2017-07-15T07:02:54Z</time>
            </trkpt>
            <trkpt lat="46.436680" lon="11.995670">
                <time>2017-07-15T07:02:55Z</time>
            </trkpt>
            <trkpt lat="46.436560" lon="11.995660">
                <time>2017-07-15T07:02:56Z</time>
            </trkpt>
            <trkpt lat="46.436440" lon="11.995650">
                <time>2017-07-15T07:02:57Z</time>
            </trkpt>
            <trkpt lat="46.436310" lon="11.995650">
                <time>2017-07-15T07:02:58Z</time>
            </trkpt>
            <trkpt lat="46.436180" lon="11.995650">
                <time>2017-07-15T07:02:59Z</time>
            </trkpt>
            <trkpt lat="46.436040" lon="11.995690">
                <time>2017-07-15T07:03:00Z</time>
            </trkpt>
            <trkpt lat="46.435920" lon="11.995750">
                <time>2017-07-15T07:03:01Z</time>
            </trkpt>
            <trkpt lat="46.435810" lon="11.995840">
                <time>2017-07-15T07:03:02Z</time>
            </trkpt>
            <trkpt lat="46.435690" lon="11.995950">
                <time>2017-07-15T07:03:03Z</time>
            </trkpt>
            <trkpt lat="46.435600" lon="11.996050">
                <time>2017-07-15T07:03:04Z</time>
            </trkpt>
            <trkpt lat="46.435500" lon="11.996160">
                <time>2017-07-15T07:03:05Z</time>
            </trkpt>
            <trkpt lat="46.435400" lon="11.996290">
                <time>2017-07-15T07:03:06Z</time>
            </trkpt>
            <trkpt lat="46.435310" lon="11.996410">
                <time>2017-07-15T07:03:07Z</time>
            </trkpt>
            <trkpt lat="46.435200" lon="11.996540">
                <time>2017-07-15T07:03:08Z</time>
            </trkpt>
            <trkpt lat="46.435090" lon="11.996630">
                <time>2017-07-15T07:03:09Z</time>
            </trkpt>
            <trkpt lat="46.434970" lon="11.996740">
                <time>2017-07-15T07:03:10Z</time>
            </trkpt>
            <trkpt lat="46.434840" lon="11.996820">
                <time>2017-07-15T07:03:11Z</time>
            </trkpt>
            <trkpt lat="46.434720" lon="11.996900">
                <time>2017-07-15T07:03:12Z</time>
            </trkpt>
            <trkpt lat="46.434580" lon="11.996970">
                <time>2017-07-15T07:03:13Z</time>
            </trkpt>
            <trkpt lat="46.434450" lon="11.997060">
                <time>2017-07-15T07:03:14Z</time>
            </trkpt>
            <trkpt lat="46.434320" lon="11.997130">
                <time>2017-07-15T07:03:15Z</time>
            </trkpt>
            <trkpt lat="46.434180" lon="11.997220">
                <time>2017-07-15T07:03:16Z</time>
            </trkpt>
            <trkpt lat="46.434060" lon="11.997290">
                <time>2017-07-15T07:03:17Z</time>
            </trkpt>
            <trkpt lat="46.433930" lon="11.997390">
                <time>2017-07-15T07:03:18Z</time>
            </trkpt>
            <trkpt lat="46.433800" lon="11.997500">
                <time>2017-07-15T07:03:19Z</time>
            </trkpt>
            <trkpt lat="46.433690" lon="11.997600">
                <time>2017-07-15T07:03:20Z</time>
            </trkpt>
            <trkpt lat="46.433570" lon="11.997720">
                <time>2017-07-15T07:03:21Z</time>
            </trkpt>
            <trkpt lat="46.433450" lon="11.997840">
                <time>2017-07-15T07:03:22Z</time>
            </trkpt>
            <trkpt lat="46.433340" lon="11.997960">
                <time>2017-07-15T07:03:23Z</time>
            </trkpt>
            <trkpt lat="46.433230" lon="11.998100">
                <time>2017-07-15T07:03:24Z</time>
            </trkpt>
            <trkpt lat="46.433140" lon="11.998220">
                <time>2017-07-15T07:03:25Z</time>
            </trkpt>
            <trkpt lat="46.433040" lon="11.998360">
                <time>2017-07-15T07:03:26Z</time>
            </trkpt>
            <trkpt lat="46.432930" lon="11.998500">
                <time>2017-07-15T07:03:27Z</time>
            </trkpt>
            <trkpt lat="46.432840" lon="11.998630">
                <time>2017-07-15T07:03:28Z</time>
            </trkpt>
            <trkpt lat="46.432740" lon="11.998760">
                <time>2017-07-15T07:03:29Z</time>
            </trkpt>
            <trkpt lat="46.432630" lon="11.998900">
                <time>2017-07-15T07:03:30Z</time>
            </trkpt>
            <trkpt lat="46.432530" lon="11.999040">
                <time>2017-07-15T07:03:31Z</time>
            </trkpt>
            <trkpt lat="46.432410" lon="11.999190">
                <time>2017-07-15T07:03:32Z</time>
            </trkpt>
            <trkpt lat="46.432310" lon="11.999330">
                <time>2017-07-15T07:03:33Z</time>
            </trkpt>
            <trkpt lat="46.432200" lon="11.999470">
                <time>2017-07-15T07:03:34Z</time>
            </trkpt>
            <trkpt lat="46.432080" lon="11.999620">
                <time>2017-07-15T07:03:35Z</time>
            </trkpt>
            <trkpt lat="46.431970" lon="11.999750">
                <time>2017-07-15T07:03:36Z</time>
            </trkpt>
            <trkpt lat="46.431850" lon="11.999880">
                <time>2017-07-15T07:03:37Z</time>
            </trkpt>
            <trkpt lat="46.431720" lon="12.000020">
                <time>2017-07-15T07:03:38Z</time>
            </trkpt>
            <trkpt lat="46.431610" lon="12.000140">
                <time>2017-07-15T07:03:39Z</time>
            </trkpt>
            <trkpt lat="46.431480" lon="12.000270">
                <time>2017-07-15T07:03:40Z</time>
            </trkpt>
            <trkpt lat="46.431360" lon="12.000390">
                <time>2017-07-15T07:03:41Z</time>
            </trkpt>
            <trkpt lat="46.431230" lon="12.000510">
                <time>2017-07-15T07:03:42Z</time>
            </trkpt>
            <trkpt lat="46.431080" lon="12.000620">
                <time>2017-07-15T07:03:43Z</time>
            </trkpt>
            <trkpt lat="46.430950" lon="12.000710">
                <time>2017-07-15T07:03:44Z</time>
            </trkpt>
            <trkpt lat="46.430820" lon="12.000820">
                <time>2017-07-15T07:03:45Z</time>
            </trkpt>
            <trkpt lat="46.430690" lon="12.000920">
                <time>2017-07-15T07:03:46Z</time>
            </trkpt>
            <trkpt lat="46.430550" lon="12.001020">
                <time>2017-07-15T07:03:47Z</time>
            </trkpt>
            <trkpt lat="46.430410" lon="12.001140">
                <time>2017-07-15T07:03:48Z</time>
            </trkpt>
            <trkpt lat="46.430270" lon="12.001240">
                <time>2017-07-15T07:03:49Z</time>
            </trkpt>
            <trkpt lat="46.430130" lon="12.001360">
                <time>2017-07-15T07:03:50Z</time>
            </trkpt>
            <trkpt lat="46.429970" lon="12.001490">
                <time>2017-07-15T07:03:51Z</time>
            </trkpt>
            <trkpt lat="46.429830" lon="12.001600">
                <time>2017-07-15T07:03:52Z</time>
            </trkpt>
            <trkpt lat="46.429680" lon="12.001720">
                <time>2017-07-15T07:03:53Z</time>
            </trkpt>
            <trkpt lat="46.429520" lon="12.001840">
                <time>2017-07-15T07:03:54Z</time>
            </trkpt>
            <trkpt lat="46.429380" lon="12.001950">
                <time>2017-07-15T07:03:55Z</time>
            </trkpt>
            <trkpt lat="46.429230" lon="12.002070">
                <time>2017-07-15T07:03:56Z</time>
            </trkpt>
            <trkpt lat="46.429100" lon="12.002180">
                <time>2017-07-15T07:03:57Z</time>
            </trkpt>
            <trkpt lat="46.428960" lon="12.002290">
                <time>2017-07-15T07:03:58Z</time>
            </trkpt>
            <trkpt lat="46.428820" lon="12.002420">
                <time>2017-07-15T07:03:59Z</time>
            </trkpt>
            <trkpt lat="46.428690" lon="12.002570">
                <time>2017-07-15T07:04:00Z</time>
            </trkpt>
            <trkpt lat="46.428540" lon="12.002730">
                <time>2017-07-15T07:04:01Z</time>
            </trkpt>
            <trkpt lat="46.428390" lon="12.002910">
                <time>2017-07-15T07:04:02Z</time>
            </trkpt>
            <trkpt lat="46.428240" lon="12.003090">
                <time>2017-07-15T07:04:03Z</time>
            </trkpt>
            <trkpt lat="46.428090" lon="12.003280">
                <time>2017-07-15T07:04:04Z</time>
            </trkpt>
            <trkpt lat="46.427960" lon="12.003440">
                <time>2017-07-15T07:04:05Z</time>
            </trkpt>
            <trkpt lat="46.427830" lon="12.003620">
                <time>2017-07-15T07:04:06Z</time>
            </trkpt>
            <trkpt lat="46.427700" lon="12.003800">
                <time>2017-07-15T07:04:07Z</time>
            </trkpt>
            <trkpt lat="46.427600" lon="12.003950">
                <time>2017-07-15T07:04:08Z</time>
            </trkpt>
            <trkpt lat="46.427490" lon="12.004090">
                <time>2017-07-15T07:04:09Z</time>
            </trkpt>
            <trkpt lat="46.427370" lon="12.004250">
                <time>2017-07-15T07:04:10Z</time>
            </trkpt>
            <trkpt lat="46.427270" lon="12.004380">
                <time>2017-07-15T07:04:11Z</time>
            </trkpt>
            <trkpt lat="46.427150" lon="12.004540">
                <time>2017-07-15T07:04:12Z</time>
            </trkpt>
            <trkpt lat="46.427040" lon="12.004690">
                <time>2017-07-15T07:04:13Z</time>
            </trkpt>
            <trkpt lat="46.426920" lon="12.004850">
                <time>2017-07-15T07:04:14Z</time>
            </trkpt>
            <trkpt lat="46.426800" lon="12.005030">
                <time>2017-07-15T07:04:15Z</time>
            </trkpt>
            <trkpt lat="46.426690" lon="12.005180">
                <time>2017-07-15T07:04:16Z</time>
            </trkpt>
            <trkpt lat="46.426590" lon="12.005340">
                <time>2017-07-15T07:04:17Z</time>
            </trkpt>
            <trkpt lat="46.426470" lon="12.005490">
                <time>2017-07-15T07:04:18Z</time>
            </trkpt>
            <trkpt lat="46.426360" lon="12.005650">
                <time>2017-07-15T07:04:19Z</time>
            </trkpt>
            <trkpt lat="46.426230" lon="12.005820">
                <time>2017-07-15T07:04:20Z</time>
            </trkpt>
            <trkpt lat="46.426110" lon="12.005970">
                <time>2017-07-15T07:04:21Z</time>
            </trkpt>
            <trkpt lat="46.425990" lon="12.006130">
                <time>2017-07-15T07:04:22Z</time>
            </trkpt>
            <trkpt lat="46.425860" lon="12.006300">
                <time>2017-07-15T07:04:23Z</time>
            </trkpt>
            <trkpt lat="46.425750" lon="12.006460">
                <time>2017-07-15T07:04:24Z</time>
            </trkpt>
            <trkpt lat="46.425630" lon="12.006630">
                <time>2017-07-15T07:04:25Z</time>
            </trkpt>
            <trkpt lat="46.425490" lon="12.006810">
                <time>2017-07-15T07:04:26Z</time>
            </trkpt>
            <trkpt lat="46.425380" lon="12.006960">
                <time>2017-07-15T07:04:27Z</time>
            </trkpt>
            <trkpt lat="46.425250" lon="12.007130">
                <time>2017-07-15T07:04:28Z</time>
            </trkpt>
            <trkpt lat="46.425130" lon="12.007280">
                <time>2017-07-15T07:04:29Z</time>
            </trkpt>
            <trkpt lat="46.425010" lon="12.007430">
                <time>2017-07-15T07:04:30Z</time>
            </trkpt>
            <trkpt lat="46.424860" lon="12.007580">
                <time>2017-07-15T07:04:31Z</time>
            </trkpt>
            <trkpt lat="46.424720" lon="12.007700">
                <time>2017-07-15T07:04:32Z</time>
            </trkpt>
            <trkpt lat="46.424550" lon="12.007840">
                <time>2017-07-15T07:04:33Z</time>
            </trkpt>
            <trkpt lat="46.424370" lon="12.007960">
                <time>2017-07-15T07:04:34Z</time>
            </trkpt>
            <trkpt lat="46.424190" lon="12.008060">
                <time>2017-07-15T07:04:35Z</time>
            </trkpt>
            <trkpt lat="46.424010" lon="12.008160">
                <time>2017-07-15T07:04:36Z</time>
            </trkpt>
            <trkpt lat="46.423860" lon="12.008240">
                <time>2017-07-15T07:04:37Z</time>
            </trkpt>
            <trkpt lat="46.423700" lon="12.008340">
                <time>2017-07-15T07:04:38Z</time>
            </trkpt>
            <trkpt lat="46.423520" lon="12.008440">
                <time>2017-07-15T07:04:39Z</time>
            </trkpt>
            <trkpt lat="46.423370" lon="12.008520">
                <time>2017-07-15T07:04:40Z</time>
            </trkpt>
            <trkpt lat="46.423210" lon="12.008610">
                <time>2017-07-15T07:04:41Z</time>
            </trkpt>
            <trkpt lat="46.423040" lon="12.008700">
                <time>2017-07-15T07:04:42Z</time>
            </trkpt>
            <trkpt lat="46.422900" lon="12.008790">
                <time>2017-07-15T07:04:43Z</time>
            </trkpt>
            <trkpt lat="46.422740" lon="12.008890">
                <time>2017-07-15T07:04:44Z</time>
            </trkpt>
            <trkpt lat="46.422590" lon="12.008980">
                <time>2017-07-15T07:04:45Z</time>
            </trkpt>
            <trkpt lat="46.422450" lon="12.009100">
                <time>2017-07-15T07:04:46Z</time>
            </trkpt>
            <trkpt lat="46.422280" lon="12.009230">
                <time>2017-07-15T07:04:47Z</time>
            </trkpt>
            <trkpt lat="46.422140" lon="12.009360">
                <time>2017-07-15T07:04:48Z</time>
            </trkpt>
            <trkpt lat="46.421980" lon="12.009500">
                <time>2017-07-15T07:04:49Z</time>
            </trkpt>
            <trkpt lat="46.421840" lon="12.009640">
                <time>2017-07-15T07:04:50Z</time>
            </trkpt>
            <trkpt lat="46.421690" lon="12.009780">
                <time>2017-07-15T07:04:51Z</time>
            </trkpt>
            <trkpt lat="46.421540" lon="12.009920">
                <time>2017-07-15T07:04:52Z</time>
            </trkpt>
            <trkpt lat="46.421400" lon="12.010050">
                <time>2017-07-15T07:04:53Z</time>
            </trkpt>
            <trkpt lat="46.421260" lon="12.010180">
                <time>2017-07-15T07:04:54Z</time>
            </trkpt>
            <trkpt lat="46.421100" lon="12.010310">
                <time>2017-07-15T07:04:55Z</time>
            </trkpt>
            <trkpt lat="46.420970" lon="12.010430">
                <time>2017-07-15T07:04:56Z</time>
            </trkpt>
            <trkpt lat="46.420820" lon="12.010540">
                <time>2017-07-15T07:04:57Z</time>
            </trkpt>
            <trkpt lat="46.420650" lon="12.010660">
                <time>2017-07-15T07:04:58Z</time>
            </trkpt>
            <trkpt lat="46.420490" lon="12.010740">
                <time>2017-07-15T07:04:59Z</time>
            </trkpt>
            <trkpt lat="46.420310" lon="12.010850">
                <time>2017-07-15T07:05:00Z</time>
            </trkpt>
            <trkpt lat="46.420150" lon="12.010940">
                <time>2017-07-15T07:05:01Z</time>
            </trkpt>
            <trkpt lat="46.419970" lon="12.011040">
                <time>2017-07-15T07:05:02Z</time>
            </trkpt>
            <trkpt lat="46.419770" lon="12.011140">
                <time>2017-07-15T07:05:03Z</time>
            </trkpt>
            <trkpt lat="46.419600" lon="12.011230">
                <time>2017-07-15T07:05:04Z</time>
            </trkpt>
            <trkpt lat="46.419420" lon="12.011330">
                <time>2017-07-15T07:05:05Z</time>
            </trkpt>
            <trkpt lat="46.419230" lon="12.011430">
                <time>2017-07-15T07:05:06Z</time>
            </trkpt>
            <trkpt lat="46.419050" lon="12.011520">
                <time>2017-07-15T07:05:07Z</time>
            </trkpt>
            <trkpt lat="46.418870" lon="12.011610">
                <time>2017-07-15T07:05:08Z</time>
            </trkpt>
            <trkpt lat="46.418700" lon="12.011700">
                <time>2017-07-15T07:05:09Z</time>
            </trkpt>
            <trkpt lat="46.418530" lon="12.011780">
                <time>2017-07-15T07:05:10Z</time>
            </trkpt>
            <trkpt lat="46.418350" lon="12.011890">
                <time>2017-07-15T07:05:11Z</time>
            </trkpt>
            <trkpt lat="46.418200" lon="12.011980">
                <time>2017-07-15T07:05:12Z</time>
            </trkpt>
            <trkpt lat="46.418030" lon="12.012090">
                <time>2017-07-15T07:05:13Z</time>
            </trkpt>
            <trkpt lat="46.417860" lon="12.012220">
                <time>2017-07-15T07:05:14Z</time>
            </trkpt>
            <trkpt lat="46.417710" lon="12.012350">
                <time>2017-07-15T07:05:15Z</time>
            </trkpt>
            <trkpt lat="46.417540" lon="12.012490">
                <time>2017-07-15T07:05:16Z</time>
            </trkpt>
            <trkpt lat="46.417380" lon="12.012610">
                <time>2017-07-15T07:05:17Z</time>
            </trkpt>
            <trkpt lat="46.417220" lon="12.012740">
                <time>2017-07-15T07:05:18Z</time>
            </trkpt>
            <trkpt lat="46.417050" lon="12.012880">
                <time>2017-07-15T07:05:19Z</time>
            </trkpt>
            <trkpt lat="46.416900" lon="12.013010">
                <time>2017-07-15T07:05:20Z</time>
            </trkpt>
            <trkpt lat="46.416750" lon="12.013150">
                <time>2017-07-15T07:05:21Z</time>
            </trkpt>
            <trkpt lat="46.416610" lon="12.013310">
                <time>2017-07-15T07:05:22Z</time>
            </trkpt>
            <trkpt lat="46.416470" lon="12.013470">
                <time>2017-07-15T07:05:23Z</time>
            </trkpt>
            <trkpt lat="46.416320" lon="12.013670">
                <time>2017-07-15T07:05:24Z</time>
            </trkpt>
            <trkpt lat="46.416190" lon="12.013840">
                <time>2017-07-15T07:05:25Z</time>
            </trkpt>
            <trkpt lat="46.416040" lon="12.014010">
                <time>2017-07-15T07:05:26Z</time>
            </trkpt>
            <trkpt lat="46.415890" lon="12.014200">
                <time>2017-07-15T07:05:27Z</time>
            </trkpt>
            <trkpt lat="46.415750" lon="12.014370">
                <time>2017-07-15T07:05:28Z</time>
            </trkpt>
            <trkpt lat="46.415610" lon="12.014570">
                <time>2017-07-15T07:05:29Z</time>
            </trkpt>
            <trkpt lat="46.415460" lon="12.014760">
                <time>2017-07-15T07:05:30Z</time>
            </trkpt>
            <trkpt lat="46.415310" lon="12.014920">
                <time>2017-07-15T07:05:31Z</time>
            </trkpt>
            <trkpt lat="46.415150" lon="12.015090">
                <time>2017-07-15T07:05:32Z</time>
            </trkpt>
            <trkpt lat="46.414990" lon="12.015230">
                <time>2017-07-15T07:05:33Z</time>
            </trkpt>
            <trkpt lat="46.414800" lon="12.015370">
                <time>2017-07-15T07:05:34Z</time>
            </trkpt>
            <trkpt lat="46.414600" lon="12.015490">
                <time>2017-07-15T07:05:35Z</time>
            </trkpt>
            <trkpt lat="46.414430" lon="12.015590">
                <time>2017-07-15T07:05:36Z</time>
            </trkpt>
            <trkpt lat="46.414240" lon="12.015690">
                <time>2017-07-15T07:05:37Z</time>
            </trkpt>
            <trkpt lat="46.414060" lon="12.015790">
                <time>2017-07-15T07:05:38Z</time>
            </trkpt>
            <trkpt lat="46.413880" lon="12.015880">
                <time>2017-07-15T07:05:39Z</time>
            </trkpt>
            <trkpt lat="46.413690" lon="12.015980">
                <time>2017-07-15T07:05:40Z</time>
            </trkpt>
            <trkpt lat="46.413540" lon="12.016050">
                <time>2017-07-15T07:05:41Z</time>
            </trkpt>
            <trkpt lat="46.413400" lon="12.016120">
                <time>2017-07-15T07:05:42Z</time>
            </trkpt>
            <trkpt lat="46.413270" lon="12.016200">
                <time>2017-07-15T07:05:43Z</time>
            </trkpt>
            <trkpt lat="46.413160" lon="12.016270">
                <time>2017-07-15T07:05:44Z</time>
            </trkpt>
            <trkpt lat="46.413050" lon="12.016350">
                <time>2017-07-15T07:05:45Z</time>
            </trkpt>
            <trkpt lat="46.412940" lon="12.016440">
                <time>2017-07-15T07:05:46Z</time>
            </trkpt>
            <trkpt lat="46.412840" lon="12.016520">
                <time>2017-07-15T07:05:47Z</time>
            </trkpt>
            <trkpt lat="46.412730" lon="12.016630">
                <time>2017-07-15T07:05:48Z</time>
            </trkpt>
            <trkpt lat="46.412630" lon="12.016720">
                <time>2017-07-15T07:05:49Z</time>
            </trkpt>
            <trkpt lat="46.412520" lon="12.016820">
                <time>2017-07-15T07:05:50Z</time>
            </trkpt>
            <trkpt lat="46.412400" lon="12.016940">
                <time>2017-07-15T07:05:51Z</time>
            </trkpt>
            <trkpt lat="46.412300" lon="12.017040">
                <time>2017-07-15T07:05:52Z</time>
            </trkpt>
            <trkpt lat="46.412200" lon="12.017150">
                <time>2017-07-15T07:05:53Z</time>
            </trkpt>
            <trkpt lat="46.412080" lon="12.017240">
                <time>2017-07-15T07:05:54Z</time>
            </trkpt>
            <trkpt lat="46.411960" lon="12.017310">
                <time>2017-07-15T07:05:55Z</time>
            </trkpt>
            <trkpt lat="46.411820" lon="12.017350">
                <time>2017-07-15T07:05:56Z</time>
            </trkpt>
            <trkpt lat="46.411700" lon="12.017370">
                <time>2017-07-15T07:05:57Z</time>
            </trkpt>
            <trkpt lat="46.411560" lon="12.017380">
                <time>2017-07-15T07:05:58Z</time>
            </trkpt>
            <trkpt lat="46.411430" lon="12.017390">
                <time>2017-07-15T07:05:59Z</time>
            </trkpt>
            <trkpt lat="46.411310" lon="12.017400">
                <time>2017-07-15T07:06:00Z</time>
            </trkpt>
            <trkpt lat="46.411180" lon="12.017420">
                <time>2017-07-15T07:06:01Z</time>
            </trkpt>
            <trkpt lat="46.411050" lon="12.017430">
                <time>2017-07-15T07:06:02Z</time>
            </trkpt>
            <trkpt lat="46.410940" lon="12.017440">
                <time>2017-07-15T07:06:03Z</time>
            </trkpt>
            <trkpt lat="46.410820" lon="12.017450">
                <time>2017-07-15T07:06:04Z</time>
            </trkpt>
            <trkpt lat="46.410720" lon="12.017460">
                <time>2017-07-15T07:06:05Z</time>
            </trkpt>
            <trkpt lat="46.410600" lon="12.017470">
                <time>2017-07-15T07:06:06Z</time>
            </trkpt>
            <trkpt lat="46.410480" lon="12.017480">
                <time>2017-07-15T07:06:07Z</time>
            </trkpt>
            <trkpt lat="46.410370" lon="12.017470">
                <time>2017-07-15T07:06:08Z</time>
            </trkpt>
            <trkpt lat="46.410240" lon="12.017450">
                <time>2017-07-15T07:06:09Z</time>
            </trkpt>
            <trkpt lat="46.410120" lon="12.017420">
                <time>2017-07-15T07:06:10Z</time>
            </trkpt>
            <trkpt lat="46.409990" lon="12.017380">
                <time>2017-07-15T07:06:11Z</time>
            </trkpt>
            <trkpt lat="46.409860" lon="12.017340">
                <time>2017-07-15T07:06:12Z</time>
            </trkpt>
            <trkpt lat="46.409750" lon="12.017310">
                <time>2017-07-15T07:06:13Z</time>
            </trkpt>
            <trkpt lat="46.409630" lon="12.017300">
                <time>2017-07-15T07:06:14Z</time>
            </trkpt>
            <trkpt lat="46.409510" lon="12.017320">
                <time>2017-07-15T07:06:15Z</time>
            </trkpt>
            <trkpt lat="46.409410" lon="12.017370">
                <time>2017-07-15T07:06:16Z</time>
            </trkpt>
            <trkpt lat="46.409300" lon="12.017450">
                <time>2017-07-15T07:06:17Z</time>
            </trkpt>
            <trkpt lat="46.409190" lon="12.017530">
                <time>2017-07-15T07:06:18Z</time>
            </trkpt>
            <trkpt lat="46.409080" lon="12.017620">
                <time>2017-07-15T07:06:19Z</time>
            </trkpt>
            <trkpt lat="46.408970" lon="12.017690">
                <time>2017-07-15T07:06:20Z</time>
            </trkpt>
            <trkpt lat="46.408880" lon="12.017770">
                <time>2017-07-15T07:06:21Z</time>
            </trkpt>
            <trkpt lat="46.408790" lon="12.017870">
                <time>2017-07-15T07:06:22Z</time>
            </trkpt>
            <trkpt lat="46.408700" lon="12.017970">
                <time>2017-07-15T07:06:23Z</time>
            </trkpt>
            <trkpt lat="46.408630" lon="12.018070">
                <time>2017-07-15T07:06:24Z</time>
            </trkpt>
            <trkpt lat="46.408550" lon="12.018180">
                <time>2017-07-15T07:06:25Z</time>
            </trkpt>
            <trkpt lat="46.408460" lon="12.018280">
                <time>2017-07-15T07:06:26Z</time>
            </trkpt>
            <trkpt lat="46.408390" lon="12.018380">
                <time>2017-07-15T07:06:27Z</time>
            </trkpt>
            <trkpt lat="46.408320" lon="12.018490">
                <time>2017-07-15T07:06:28Z</time>
            </trkpt>
            <trkpt lat="46.408300" lon="12.018580">
                <time>2017-07-15T07:06:29Z</time>
            </trkpt>
            <trkpt lat="46.408290" lon="12.018700">
                <time>2017-07-15T07:06:30Z</time>
            </trkpt>
            <trkpt lat="46.408310" lon="12.018830">
                <time>2017-07-15T07:06:31Z</time>
            </trkpt>
            <trkpt lat="46.408320" lon="12.018940">
                <time>2017-07-15T07:06:32Z</time>
            </trkpt>
            <trkpt lat="46.408320" lon="12.019070">
                <time>2017-07-15T07:06:33Z</time>
            </trkpt>
            <trkpt lat="46.408320" lon="12.019200">
                <time>2017-07-15T07:06:34Z</time>
            </trkpt>
            <trkpt lat="46.408300" lon="12.019300">
                <time>2017-07-15T07:06:35Z</time>
            </trkpt>
            <trkpt lat="46.408290" lon="12.019410">
                <time>2017-07-15T07:06:36Z</time>
            </trkpt>
            <trkpt lat="46.408270" lon="12.019510">
                <time>2017-07-15T07:06:37Z</time>
            </trkpt>
            <trkpt lat="46.408230" lon="12.019590">
                <time>2017-07-15T07:06:38Z</time>
            </trkpt>
            <trkpt lat="46.408170" lon="12.019650">
                <time>2017-07-15T07:06:39Z</time>
            </trkpt>
            <trkpt lat="46.408110" lon="12.019660">
                <time>2017-07-15T07:06:40Z</time>
            </trkpt>
            <trkpt lat="46.408040" lon="12.019650">
                <time>2017-07-15T07:06:41Z</time>
            </trkpt>
            <trkpt lat="46.407970" lon="12.019620">
                <time>2017-07-15T07:06:42Z</time>
            </trkpt>
            <trkpt lat="46.407910" lon="12.019580">
                <time>2017-07-15T07:06:43Z</time>
            </trkpt>
            <trkpt lat="46.407850" lon="12.019550">
                <time>2017-07-15T07:06:44Z</time>
            </trkpt>
            <trkpt lat="46.407800" lon="12.019550">
                <time>2017-07-15T07:06:45Z</time>
            </trkpt>
            <trkpt lat="46.407740" lon="12.019560">
                <time>2017-07-15T07:06:46Z</time>
            </trkpt>
            <trkpt lat="46.407680" lon="12.019620">
                <time>2017-07-15T07:06:47Z</time>
            </trkpt>
            <trkpt lat="46.407610" lon="12.019680">
                <time>2017-07-15T07:06:48Z</time>
            </trkpt>
            <trkpt lat="46.407550" lon="12.019770">
                <time>2017-07-15T07:06:49Z</time>
            </trkpt>
            <trkpt lat="46.407490" lon="12.019870">
                <time>2017-07-15T07:06:50Z</time>
            </trkpt>
            <trkpt lat="46.407440" lon="12.019970">
                <time>2017-07-15T07:06:51Z</time>
            </trkpt>
            <trkpt lat="46.407370" lon="12.020050">
                <time>2017-07-15T07:06:52Z</time>
            </trkpt>
            <trkpt lat="46.407310" lon="12.020130">
                <time>2017-07-15T07:06:53Z</time>
            </trkpt>
            <trkpt lat="46.407250" lon="12.020190">
                <time>2017-07-15T07:06:54Z</time>
            </trkpt>
            <trkpt lat="46.407190" lon="12.020250">
                <time>2017-07-15T07:06:55Z</time>
            </trkpt>
            <trkpt lat="46.407130" lon="12.020300">
                <time>2017-07-15T07:06:56Z</time>
            </trkpt>
            <trkpt lat="46.407050" lon="12.020330">
                <time>2017-07-15T07:06:57Z</time>
            </trkpt>
            <trkpt lat="46.406980" lon="12.020360">
                <time>2017-07-15T07:06:58Z</time>
            </trkpt>
            <trkpt lat="46.406890" lon="12.020380">
                <time>2017-07-15T07:06:59Z</time>
            </trkpt>
            <trkpt lat="46.406800" lon="12.020400">
                <time>2017-07-15T07:07:00Z</time>
            </trkpt>
            <trkpt lat="46.406720" lon="12.020420">
                <time>2017-07-15T07:07:01Z</time>
            </trkpt>
            <trkpt lat="46.406630" lon="12.020440">
                <time>2017-07-15T07:07:02Z</time>
            </trkpt>
            <trkpt lat="46.406540" lon="12.020470">
                <time>2017-07-15T07:07:03Z</time>
            </trkpt>
            <trkpt lat="46.406480" lon="12.020500">
                <time>2017-07-15T07:07:04Z</time>
            </trkpt>
            <trkpt lat="46.406400" lon="12.020520">
                <time>2017-07-15T07:07:05Z</time>
            </trkpt>
            <trkpt lat="46.406320" lon="12.020530">
                <time>2017-07-15T07:07:06Z</time>
            </trkpt>
            <trkpt lat="46.406250" lon="12.020550">
                <time>2017-07-15T07:07:07Z</time>
            </trkpt>
            <trkpt lat="46.406180" lon="12.020590">
                <time>2017-07-15T07:07:08Z</time>
            </trkpt>
            <trkpt lat="46.406120" lon="12.020630">
                <time>2017-07-15T07:07:09Z</time>
            </trkpt>
            <trkpt lat="46.406070" lon="12.020680">
                <time>2017-07-15T07:07:10Z</time>
            </trkpt>
            <trkpt lat="46.406020" lon="12.020760">
                <time>2017-07-15T07:07:11Z</time>
            </trkpt>
            <trkpt lat="46.406000" lon="12.020820">
                <time>2017-07-15T07:07:12Z</time>
            </trkpt>
            <trkpt lat="46.405980" lon="12.020900">
                <time>2017-07-15T07:07:13Z</time>
            </trkpt>
            <trkpt lat="46.406000" lon="12.021000">
                <time>2017-07-15T07:07:14Z</time>
            </trkpt>
            <trkpt lat="46.406020" lon="12.021090">
                <time>2017-07-15T07:07:15Z</time>
            </trkpt>
            <trkpt lat="46.406050" lon="12.021200">
                <time>2017-07-15T07:07:16Z</time>
            </trkpt>
            <trkpt lat="46.406080" lon="12.021310">
                <time>2017-07-15T07:07:17Z</time>
            </trkpt>
            <trkpt lat="46.406100" lon="12.021420">
                <time>2017-07-15T07:07:18Z</time>
            </trkpt>
            <trkpt lat="46.406130" lon="12.021550">
                <time>2017-07-15T07:07:19Z</time>
            </trkpt>
            <trkpt lat="46.406150" lon="12.021660">
                <time>2017-07-15T07:07:20Z</time>
            </trkpt>
            <trkpt lat="46.406170" lon="12.021780">
                <time>2017-07-15T07:07:21Z</time>
            </trkpt>
            <trkpt lat="46.406180" lon="12.021910">
                <time>2017-07-15T07:07:22Z</time>
            </trkpt>
            <trkpt lat="46.406180" lon="12.022020">
                <time>2017-07-15T07:07:23Z</time>
            </trkpt>
            <trkpt lat="46.406180" lon="12.022140">
                <time>2017-07-15T07:07:24Z</time>
            </trkpt>
            <trkpt lat="46.406180" lon="12.022240">
                <time>2017-07-15T07:07:25Z</time>
            </trkpt>
            <trkpt lat="46.406170" lon="12.022360">
                <time>2017-07-15T07:07:26Z</time>
            </trkpt>
            <trkpt lat="46.406170" lon="12.022480">
                <time>2017-07-15T07:07:27Z</time>
            </trkpt>
            <trkpt lat="46.406170" lon="12.022600">
                <time>2017-07-15T07:07:28Z</time>
            </trkpt>
            <trkpt lat="46.406170" lon="12.022720">
                <time>2017-07-15T07:07:29Z</time>
            </trkpt>
            <trkpt lat="46.406170" lon="12.022840">
                <time>2017-07-15T07:07:30Z</time>
            </trkpt>
            <trkpt lat="46.406170" lon="12.022970">
                <time>2017-07-15T07:07:31Z</time>
            </trkpt>
            <trkpt lat="46.406160" lon="12.023100">
                <time>2017-07-15T07:07:32Z</time>
            </trkpt>
            <trkpt lat="46.406130" lon="12.023190">
                <time>2017-07-15T07:07:33Z</time>
            </trkpt>
            <trkpt lat="46.406090" lon="12.023280">
                <time>2017-07-15T07:07:34Z</time>
            </trkpt>
            <trkpt lat="46.406030" lon="12.023350">
                <time>2017-07-15T07:07:35Z</time>
            </trkpt>
            <trkpt lat="46.405960" lon="12.023380">
                <time>2017-07-15T07:07:36Z</time>
            </trkpt>
            <trkpt lat="46.405890" lon="12.023410">
                <time>2017-07-15T07:07:37Z</time>
            </trkpt>
            <trkpt lat="46.405800" lon="12.023410">
                <time>2017-07-15T07:07:38Z</time>
            </trkpt>
            <trkpt lat="46.405720" lon="12.023390">
                <time>2017-07-15T07:07:39Z</time>
            </trkpt>
            <trkpt lat="46.405640" lon="12.023360">
                <time>2017-07-15T07:07:40Z</time>
            </trkpt>
            <trkpt lat="46.405570" lon="12.023340">
                <time>2017-07-15T07:07:41Z</time>
            </trkpt>
            <trkpt lat="46.405510" lon="12.023300">
                <time>2017-07-15T07:07:42Z</time>
            </trkpt>
            <trkpt lat="46.405460" lon="12.023240">
                <time>2017-07-15T07:07:43Z</time>
            </trkpt>
            <trkpt lat="46.405430" lon="12.023140">
                <time>2017-07-15T07:07:44Z</time>
            </trkpt>
            <trkpt lat="46.405410" lon="12.023030">
                <time>2017-07-15T07:07:45Z</time>
            </trkpt>
            <trkpt lat="46.405400" lon="12.022900">
                <time>2017-07-15T07:07:46Z</time>
            </trkpt>
            <trkpt lat="46.405400" lon="12.022760">
                <time>2017-07-15T07:07:47Z</time>
            </trkpt>
            <trkpt lat="46.405390" lon="12.022600">
                <time>2017-07-15T07:07:48Z</time>
            </trkpt>
            <trkpt lat="46.405360" lon="12.022470">
                <time>2017-07-15T07:07:49Z</time>
            </trkpt>
            <trkpt lat="46.405320" lon="12.022330">
                <time>2017-07-15T07:07:50Z</time>
            </trkpt>
            <trkpt lat="46.405280" lon="12.022190">
                <time>2017-07-15T07:07:51Z</time>
            </trkpt>
            <trkpt lat="46.405230" lon="12.022060">
                <time>2017-07-15T07:07:52Z</time>
            </trkpt>
            <trkpt lat="46.405180" lon="12.021920">
                <time>2017-07-15T07:07:53Z</time>
            </trkpt>
            <trkpt lat="46.405120" lon="12.021770">
                <time>2017-07-15T07:07:54Z</time>
            </trkpt>
            <trkpt lat="46.405070" lon="12.021650">
                <time>2017-07-15T07:07:55Z</time>
            </trkpt>
            <trkpt lat="46.405000" lon="12.021510">
                <time>2017-07-15T07:07:56Z</time>
            </trkpt>
            <trkpt lat="46.404940" lon="12.021370">
                <time>2017-07-15T07:07:57Z</time>
            </trkpt>
            <trkpt lat="46.404870" lon="12.021230">
                <time>2017-07-15T07:07:58Z</time>
            </trkpt>
            <trkpt lat="46.404790" lon="12.021080">
                <time>2017-07-15T07:07:59Z</time>
            </trkpt>
            <trkpt lat="46.404730" lon="12.020950">
                <time>2017-07-15T07:08:00Z</time>
            </trkpt>
            <trkpt lat="46.404660" lon="12.020810">
                <time>2017-07-15T07:08:01Z</time>
            </trkpt>
            <trkpt lat="46.404600" lon="12.020680">
                <time>2017-07-15T07:08:02Z</time>
            </trkpt>
            <trkpt lat="46.404540" lon="12.020560">
                <time>2017-07-15T07:08:03Z</time>
            </trkpt>
            <trkpt lat="46.404480" lon="12.020430">
                <time>2017-07-15T07:08:04Z</time>
            </trkpt>
            <trkpt lat="46.404440" lon="12.020300">
                <time>2017-07-15T07:08:05Z</time>
            </trkpt>
            <trkpt lat="46.404400" lon="12.020160">
                <time>2017-07-15T07:08:06Z</time>
            </trkpt>
            <trkpt lat="46.404370" lon="12.020000">
                <time>2017-07-15T07:08:07Z</time>
            </trkpt>
            <trkpt lat="46.404350" lon="12.019870">
                <time>2017-07-15T07:08:08Z</time>
            </trkpt>
            <trkpt lat="46.404310" lon="12.019720">
                <time>2017-07-15T07:08:09Z</time>
            </trkpt>
            <trkpt lat="46.404270" lon="12.019600">
                <time>2017-07-15T07:08:10Z</time>
            </trkpt>
            <trkpt lat="46.404240" lon="12.019490">
                <time>2017-07-15T07:08:11Z</time>
            </trkpt>
            <trkpt lat="46.404180" lon="12.019360">
                <time>2017-07-15T07:08:12Z</time>
            </trkpt>
            <trkpt lat="46.404120" lon="12.019250">
                <time>2017-07-15T07:08:13Z</time>
            </trkpt>
            <trkpt lat="46.404050" lon="12.019130">
                <time>2017-07-15T07:08:14Z</time>
            </trkpt>
            <trkpt lat="46.403980" lon="12.019000">
                <time>2017-07-15T07:08:15Z</time>
            </trkpt>
            <trkpt lat="46.403910" lon="12.018890">
                <time>2017-07-15T07:08:16Z</time>
            </trkpt>
            <trkpt lat="46.403840" lon="12.018770">
                <time>2017-07-15T07:08:17Z</time>
            </trkpt>
            <trkpt lat="46.403750" lon="12.018670">
                <time>2017-07-15T07:08:18Z</time>
            </trkpt>
            <trkpt lat="46.403650" lon="12.018590">
                <time>2017-07-15T07:08:19Z</time>
            </trkpt>
            <trkpt lat="46.403550" lon="12.018500">
                <time>2017-07-15T07:08:20Z</time>
            </trkpt>
            <trkpt lat="46.403450" lon="12.018430">
                <time>2017-07-15T07:08:21Z</time>
            </trkpt>
            <trkpt lat="46.403360" lon="12.018360">
                <time>2017-07-15T07:08:22Z</time>
            </trkpt>
            <trkpt lat="46.403270" lon="12.018280">
                <time>2017-07-15T07:08:23Z</time>
            </trkpt>
            <trkpt lat="46.403190" lon="12.018240">
                <time>2017-07-15T07:08:24Z</time>
            </trkpt>
            <trkpt lat="46.403080" lon="12.018200">
                <time>2017-07-15T07:08:25Z</time>
            </trkpt>
            <trkpt lat="46.402980" lon="12.018170">
                <time>2017-07-15T07:08:26Z</time>
            </trkpt>
            <trkpt lat="46.402890" lon="12.018130">
                <time>2017-07-15T07:08:27Z</time>
            </trkpt>
            <trkpt lat="46.402790" lon="12.018070">
                <time>2017-07-15T07:08:28Z</time>
            </trkpt>
            <trkpt lat="46.402700" lon="12.018010">
                <time>2017-07-15T07:08:29Z</time>
            </trkpt>
            <trkpt lat="46.402610" lon="12.017940">
                <time>2017-07-15T07:08:30Z</time>
            </trkpt>
            <trkpt lat="46.402520" lon="12.017860">
                <time>2017-07-15T07:08:31Z</time>
            </trkpt>
            <trkpt lat="46.402450" lon="12.017790">
                <time>2017-07-15T07:08:32Z</time>
            </trkpt>
            <trkpt lat="46.402400" lon="12.017740">
                <time>2017-07-15T07:08:33Z</time>
            </trkpt>
            <trkpt lat="46.402360" lon="12.017690">
                <time>2017-07-15T07:08:34Z</time>
            </trkpt>
            <trkpt lat="46.402320" lon="12.017650">
                <time>2017-07-15T07:08:35Z</time>
            </trkpt>
            <trkpt lat="46.402290" lon="12.017610">
                <time>2017-07-15T07:08:36Z</time>
            </trkpt>
            <trkpt lat="46.402270" lon="12.017580">
                <time>2017-07-15T07:08:37Z</time>
            </trkpt>
            <trkpt lat="46.402240" lon="12.017540">
                <time>2017-07-15T07:08:38Z</time>
            </trkpt>
            <trkpt lat="46.402230" lon="12.017510">
                <time>2017-07-15T07:08:39Z</time>
            </trkpt>
            <trkpt lat="46.402230" lon="12.017490">
                <time>2017-07-15T07:08:40Z</time>
            </trkpt>
            <trkpt lat="46.402230" lon="12.017500">
                <time>2017-07-15T07:08:41Z</time>
            </trkpt>
            <trkpt lat="46.402230" lon="12.017500">
                <time>2017-07-15T07:08:42Z</time>
            </trkpt>
            <trkpt lat="46.402230" lon="12.017500">
                <time>2017-07-15T07:08:43Z</time>
            </trkpt>
            <trkpt lat="46.402230" lon="12.017500">
                <time>2017-07-15T07:08:44Z</time>
            </trkpt>
            <trkpt lat="46.402230" lon="12.017500">
                <time>2017-07-15T07:08:45Z</time>
            </trkpt>
            <trkpt lat="46.402230" lon="12.017500">
                <time>2017-07-15T07:08:46Z</time>
            </trkpt>
            <trkpt lat="46.402230" lon="12.017500">
                <time>2017-07-15T07:08:47Z</time>
            </trkpt>
            <trkpt lat="46.402230" lon="12.017490">
                <time>2017-07-15T07:08:48Z</time>
            </trkpt>
            <trkpt lat="46.402230" lon="12.017480">
                <time>2017-07-15T07:08:49Z</time>
            </trkpt>
            <trkpt lat="46.402210" lon="12.017470">
                <time>2017-07-15T07:08:50Z</time>
            </trkpt>
            <trkpt lat="46.402190" lon="12.017460">
                <time>2017-07-15T07:08:51Z</time>
            </trkpt>
            <trkpt lat="46.402160" lon="12.017440">
                <time>2017-07-15T07:08:52Z</time>
            </trkpt>
            <trkpt lat="46.402120" lon="12.017410">
                <time>2017-07-15T07:08:53Z</time>
            </trkpt>
            <trkpt lat="46.402080" lon="12.017380">
                <time>2017-07-15T07:08:54Z</time>
            </trkpt>
            <trkpt lat="46.402040" lon="12.017350">
                <time>2017-07-15T07:08:55Z</time>
            </trkpt>
            <trkpt lat="46.402010" lon="12.017330">
                <time>2017-07-15T07:08:56Z</time>
            </trkpt>
            <trkpt lat="46.401980" lon="12.017300">
                <time>2017-07-15T07:08:57Z</time>
            </trkpt>
            <trkpt lat="46.401930" lon="12.017270">
                <time>2017-07-15T07:08:58Z</time>
            </trkpt>
            <trkpt lat="46.401900" lon="12.017240">
                <time>2017-07-15T07:08:59Z</time>
            </trkpt>
            <trkpt lat="46.401870" lon="12.017220">
                <time>2017-07-15T07:09:00Z</time>
            </trkpt>
            <trkpt lat="46.401860" lon="12.017210">
                <time>2017-07-15T07:09:01Z</time>
            </trkpt>
            <trkpt lat="46.401850" lon="12.017200">
                <time>2017-07-15T07:09:02Z</time>
            </trkpt>
            <trkpt lat="46.401830" lon="12.017190">
                <time>2017-07-15T07:09:03Z</time>
            </trkpt>
            <trkpt lat="46.401810" lon="12.017180">
                <time>2017-07-15T07:09:04Z</time>
            </trkpt>
            <trkpt lat="46.401800" lon="12.017150">
                <time>2017-07-15T07:09:05Z</time>
            </trkpt>
            <trkpt lat="46.401790" lon="12.017120">
                <time>2017-07-15T07:09:06Z</time>
            </trkpt>
            <trkpt lat="46.401780" lon="12.017080">
                <time>2017-07-15T07:09:07Z</time>
            </trkpt>
            <trkpt lat="46.401790" lon="12.017050">
                <time>2017-07-15T07:09:08Z</time>
            </trkpt>
            <trkpt lat="46.401790" lon="12.017040">
                <time>2017-07-15T07:09:09Z</time>
            </trkpt>
            <trkpt lat="46.401790" lon="12.017040">
                <time>2017-07-15T07:09:10Z</time>
            </trkpt>
            <trkpt lat="46.401790" lon="12.017040">
                <time>2017-07-15T07:09:11Z</time>
            </trkpt>
            <trkpt lat="46.401790" lon="12.017040">
                <time>2017-07-15T07:09:12Z</time>
            </trkpt>
            <trkpt lat="46.401790" lon="12.017040">
                <time>2017-07-15T07:09:13Z</time>
            </trkpt>
            <trkpt lat="46.401790" lon="12.017040">
                <time>2017-07-15T07:09:14Z</time>
            </trkpt>
            <trkpt lat="46.401790" lon="12.017040">
                <time>2017-07-15T07:09:15Z</time>
            </trkpt>
            <trkpt lat="46.401790" lon="12.017040">
                <time>2017-07-15T07:09:16Z</time>
            </trkpt>
            <trkpt lat="46.401790" lon="12.017040">
                <time>2017-07-15T07:09:17Z</time>
            </trkpt>
            <trkpt lat="46.401790" lon="12.017040">
                <time>2017-07-15T07:09:18Z</time>
            </trkpt>
            <trkpt lat="46.401790" lon="12.017040">
                <time>2017-07-15T07:09:19Z</time>
            </trkpt>
            <trkpt lat="46.401790" lon="12.017040">
                <time>2017-07-15T07:09:20Z</time>
            </trkpt>
            <trkpt lat="46.401790" lon="12.017040">
                <time>2017-07-15T07:09:21Z</time>
            </trkpt>
            <trkpt lat="46.401790" lon="12.017040">
                <time>2017-07-15T07:09:22Z</time>
            </trkpt>
            <trkpt lat="46.401790" lon="12.017040">
                <time>2017-07-15T07:09:23Z</time>
            </trkpt>
            <trkpt lat="46.401790" lon="12.017040">
                <time>2017-07-15T07:09:24Z</time>
            </trkpt>
            <trkpt lat="46.401790" lon="12.017040">
                <time>2017-07-15T07:09:25Z</time>
            </trkpt>
            <trkpt lat="46.401570" lon="12.016600">
                <time>2017-07-15T07:38:29Z</time>
            </trkpt>
            <trkpt lat="46.401750" lon="12.017110">
                <time>2017-07-15T07:38:30Z</time>
            </trkpt>
            <trkpt lat="46.401800" lon="12.017320">
                <time>2017-07-15T07:38:31Z</time>
            </trkpt>
            <trkpt lat="46.401870" lon="12.017230">
                <time>2017-07-15T07:38:32Z</time>
            </trkpt>
            <trkpt lat="46.401790" lon="12.017040">
                <time>2017-07-15T07:38:33Z</time>
            </trkpt>
            <trkpt lat="46.401430" lon="12.015890">
                <time>2017-07-15T07:38:34Z</time>
            </trkpt>
            <trkpt lat="46.401550" lon="12.016450">
                <time>2017-07-15T07:38:35Z</time>
            </trkpt>
            <trkpt lat="46.401610" lon="12.016690">
                <time>2017-07-15T07:38:36Z</time>
            </trkpt>
            <trkpt lat="46.401720" lon="12.016840">
                <time>2017-07-15T07:38:38Z</time>
            </trkpt>
            <trkpt lat="46.401720" lon="12.016930">
                <time>2017-07-15T07:38:39Z</time>
            </trkpt>
            <trkpt lat="46.401710" lon="12.016970">
                <time>2017-07-15T07:38:40Z</time>
            </trkpt>
            <trkpt lat="46.401690" lon="12.016970">
                <time>2017-07-15T07:38:41Z</time>
            </trkpt>
            <trkpt lat="46.401690" lon="12.016970">
                <time>2017-07-15T07:38:42Z</time>
            </trkpt>
            <trkpt lat="46.401690" lon="12.016970">
                <time>2017-07-15T07:38:43Z</time>
            </trkpt>
            <trkpt lat="46.401690" lon="12.016970">
                <time>2017-07-15T07:38:44Z</time>
            </trkpt>
            <trkpt lat="46.401690" lon="12.016970">
                <time>2017-07-15T07:38:45Z</time>
            </trkpt>
            <trkpt lat="46.401690" lon="12.016970">
                <time>2017-07-15T07:38:46Z</time>
            </trkpt>
            <trkpt lat="46.401690" lon="12.016970">
                <time>2017-07-15T07:38:47Z</time>
            </trkpt>
            <trkpt lat="46.401690" lon="12.016970">
                <time>2017-07-15T07:38:48Z</time>
            </trkpt>
            <trkpt lat="46.401690" lon="12.016970">
                <time>2017-07-15T07:38:49Z</time>
            </trkpt>
            <trkpt lat="46.401690" lon="12.016970">
                <time>2017-07-15T07:38:50Z</time>
            </trkpt>
            <trkpt lat="46.401690" lon="12.016970">
                <time>2017-07-15T07:38:51Z</time>
            </trkpt>
            <trkpt lat="46.401690" lon="12.016970">
                <time>2017-07-15T07:38:52Z</time>
            </trkpt>
            <trkpt lat="46.401690" lon="12.016970">
                <time>2017-07-15T07:38:53Z</time>
            </trkpt>
            <trkpt lat="46.401690" lon="12.016970">
                <time>2017-07-15T07:38:54Z</time>
            </trkpt>
            <trkpt lat="46.401710" lon="12.016980">
                <time>2017-07-15T07:38:55Z</time>
            </trkpt>
            <trkpt lat="46.401760" lon="12.016990">
                <time>2017-07-15T07:38:56Z</time>
            </trkpt>
            <trkpt lat="46.401760" lon="12.016990">
                <time>2017-07-15T07:38:57Z</time>
            </trkpt>
            <trkpt lat="46.401750" lon="12.016990">
                <time>2017-07-15T07:38:58Z</time>
            </trkpt>
            <trkpt lat="46.401750" lon="12.016990">
                <time>2017-07-15T07:38:59Z</time>
            </trkpt>
            <trkpt lat="46.401750" lon="12.016990">
                <time>2017-07-15T07:39:00Z</time>
            </trkpt>
            <trkpt lat="46.401740" lon="12.016990">
                <time>2017-07-15T07:39:01Z</time>
            </trkpt>
            <trkpt lat="46.401730" lon="12.016980">
                <time>2017-07-15T07:39:02Z</time>
            </trkpt>
            <trkpt lat="46.401700" lon="12.016980">
                <time>2017-07-15T07:39:03Z</time>
            </trkpt>
            <trkpt lat="46.401680" lon="12.016980">
                <time>2017-07-15T07:39:04Z</time>
            </trkpt>
            <trkpt lat="46.401670" lon="12.016990">
                <time>2017-07-15T07:39:05Z</time>
            </trkpt>
            <trkpt lat="46.401650" lon="12.017000">
                <time>2017-07-15T07:39:06Z</time>
            </trkpt>
            <trkpt lat="46.401630" lon="12.017000">
                <time>2017-07-15T07:39:07Z</time>
            </trkpt>
            <trkpt lat="46.401610" lon="12.017000">
                <time>2017-07-15T07:39:08Z</time>
            </trkpt>
            <trkpt lat="46.401580" lon="12.016990">
                <time>2017-07-15T07:39:09Z</time>
            </trkpt>
            <trkpt lat="46.401540" lon="12.016960">
                <time>2017-07-15T07:39:10Z</time>
            </trkpt>
            <trkpt lat="46.401460" lon="12.016900">
                <time>2017-07-15T07:39:11Z</time>
            </trkpt>
            <trkpt lat="46.401390" lon="12.016850">
                <time>2017-07-15T07:39:12Z</time>
            </trkpt>
            <trkpt lat="46.401320" lon="12.016800">
                <time>2017-07-15T07:39:13Z</time>
            </trkpt>
            <trkpt lat="46.401240" lon="12.016750">
                <time>2017-07-15T07:39:14Z</time>
            </trkpt>
            <trkpt lat="46.401160" lon="12.016710">
                <time>2017-07-15T07:39:15Z</time>
            </trkpt>
            <trkpt lat="46.401070" lon="12.016650">
                <time>2017-07-15T07:39:16Z</time>
            </trkpt>
            <trkpt lat="46.401000" lon="12.016600">
                <time>2017-07-15T07:39:17Z</time>
            </trkpt>
            <trkpt lat="46.400910" lon="12.016550">
                <time>2017-07-15T07:39:18Z</time>
            </trkpt>
            <trkpt lat="46.400820" lon="12.016500">
                <time>2017-07-15T07:39:19Z</time>
            </trkpt>
            <trkpt lat="46.400730" lon="12.016450">
                <time>2017-07-15T07:39:20Z</time>
            </trkpt>
            <trkpt lat="46.400650" lon="12.016410">
                <time>2017-07-15T07:39:21Z</time>
            </trkpt>
            <trkpt lat="46.400550" lon="12.016350">
                <time>2017-07-15T07:39:22Z</time>
            </trkpt>
            <trkpt lat="46.400460" lon="12.016290">
                <time>2017-07-15T07:39:23Z</time>
            </trkpt>
            <trkpt lat="46.400360" lon="12.016230">
                <time>2017-07-15T07:39:24Z</time>
            </trkpt>
            <trkpt lat="46.400270" lon="12.016180">
                <time>2017-07-15T07:39:25Z</time>
            </trkpt>
            <trkpt lat="46.400170" lon="12.016110">
                <time>2017-07-15T07:39:26Z</time>
            </trkpt>
            <trkpt lat="46.400070" lon="12.016030">
                <time>2017-07-15T07:39:27Z</time>
            </trkpt>
            <trkpt lat="46.399980" lon="12.015970">
                <time>2017-07-15T07:39:28Z</time>
            </trkpt>
            <trkpt lat="46.399890" lon="12.015880">
                <time>2017-07-15T07:39:29Z</time>
            </trkpt>
            <trkpt lat="46.399810" lon="12.015770">
                <time>2017-07-15T07:39:30Z</time>
            </trkpt>
            <trkpt lat="46.399730" lon="12.015660">
                <time>2017-07-15T07:39:31Z</time>
            </trkpt>
            <trkpt lat="46.399650" lon="12.015530">
                <time>2017-07-15T07:39:32Z</time>
            </trkpt>
            <trkpt lat="46.399590" lon="12.015420">
                <time>2017-07-15T07:39:33Z</time>
            </trkpt>
            <trkpt lat="46.399520" lon="12.015290">
                <time>2017-07-15T07:39:34Z</time>
            </trkpt>
            <trkpt lat="46.399460" lon="12.015150">
                <time>2017-07-15T07:39:35Z</time>
            </trkpt>
            <trkpt lat="46.399420" lon="12.015030">
                <time>2017-07-15T07:39:36Z</time>
            </trkpt>
            <trkpt lat="46.399370" lon="12.014890">
                <time>2017-07-15T07:39:37Z</time>
            </trkpt>
            <trkpt lat="46.399310" lon="12.014760">
                <time>2017-07-15T07:39:38Z</time>
            </trkpt>
            <trkpt lat="46.399240" lon="12.014640">
                <time>2017-07-15T07:39:39Z</time>
            </trkpt>
            <trkpt lat="46.399160" lon="12.014510">
                <time>2017-07-15T07:39:40Z</time>
            </trkpt>
            <trkpt lat="46.399090" lon="12.014400">
                <time>2017-07-15T07:39:41Z</time>
            </trkpt>
            <trkpt lat="46.399000" lon="12.014290">
                <time>2017-07-15T07:39:42Z</time>
            </trkpt>
            <trkpt lat="46.398900" lon="12.014190">
                <time>2017-07-15T07:39:43Z</time>
            </trkpt>
            <trkpt lat="46.398820" lon="12.014100">
                <time>2017-07-15T07:39:44Z</time>
            </trkpt>
            <trkpt lat="46.398740" lon="12.014000">
                <time>2017-07-15T07:39:45Z</time>
            </trkpt>
            <trkpt lat="46.398650" lon="12.013900">
                <time>2017-07-15T07:39:46Z</time>
            </trkpt>
            <trkpt lat="46.398580" lon="12.013800">
                <time>2017-07-15T07:39:47Z</time>
            </trkpt>
            <trkpt lat="46.398500" lon="12.013690">
                <time>2017-07-15T07:39:48Z</time>
            </trkpt>
            <trkpt lat="46.398430" lon="12.013580">
                <time>2017-07-15T07:39:49Z</time>
            </trkpt>
            <trkpt lat="46.398360" lon="12.013470">
                <time>2017-07-15T07:39:50Z</time>
            </trkpt>
            <trkpt lat="46.398300" lon="12.013350">
                <time>2017-07-15T07:39:51Z</time>
            </trkpt>
            <trkpt lat="46.398230" lon="12.013260">
                <time>2017-07-15T07:39:52Z</time>
            </trkpt>
            <trkpt lat="46.398160" lon="12.013160">
                <time>2017-07-15T07:39:53Z</time>
            </trkpt>
            <trkpt lat="46.398090" lon="12.013050">
                <time>2017-07-15T07:39:54Z</time>
            </trkpt>
            <trkpt lat="46.398030" lon="12.012940">
                <time>2017-07-15T07:39:55Z</time>
            </trkpt>
            <trkpt lat="46.397960" lon="12.012810">
                <time>2017-07-15T07:39:56Z</time>
            </trkpt>
            <trkpt lat="46.397890" lon="12.012670">
                <time>2017-07-15T07:39:57Z</time>
            </trkpt>
            <trkpt lat="46.397830" lon="12.012520">
                <time>2017-07-15T07:39:58Z</time>
            </trkpt>
            <trkpt lat="46.397750" lon="12.012370">
                <time>2017-07-15T07:39:59Z</time>
            </trkpt>
            <trkpt lat="46.397670" lon="12.012240">
                <time>2017-07-15T07:40:00Z</time>
            </trkpt>
            <trkpt lat="46.397580" lon="12.012120">
                <time>2017-07-15T07:40:01Z</time>
            </trkpt>
            <trkpt lat="46.397490" lon="12.012000">
                <time>2017-07-15T07:40:02Z</time>
            </trkpt>
            <trkpt lat="46.397390" lon="12.011890">
                <time>2017-07-15T07:40:03Z</time>
            </trkpt>
            <trkpt lat="46.397300" lon="12.011760">
                <time>2017-07-15T07:40:04Z</time>
            </trkpt>
            <trkpt lat="46.397210" lon="12.011640">
                <time>2017-07-15T07:40:05Z</time>
            </trkpt>
            <trkpt lat="46.397100" lon="12.011510">
                <time>2017-07-15T07:40:06Z</time>
            </trkpt>
            <trkpt lat="46.396980" lon="12.011370">
                <time>2017-07-15T07:40:07Z</time>
            </trkpt>
            <trkpt lat="46.396860" lon="12.011240">
                <time>2017-07-15T07:40:08Z</time>
            </trkpt>
            <trkpt lat="46.396730" lon="12.011080">
                <time>2017-07-15T07:40:09Z</time>
            </trkpt>
            <trkpt lat="46.396580" lon="12.010900">
                <time>2017-07-15T07:40:10Z</time>
            </trkpt>
            <trkpt lat="46.396440" lon="12.010740">
                <time>2017-07-15T07:40:11Z</time>
            </trkpt>
            <trkpt lat="46.396290" lon="12.010560">
                <time>2017-07-15T07:40:12Z</time>
            </trkpt>
            <trkpt lat="46.396160" lon="12.010410">
                <time>2017-07-15T07:40:13Z</time>
            </trkpt>
            <trkpt lat="46.396030" lon="12.010270">
                <time>2017-07-15T07:40:14Z</time>
            </trkpt>
            <trkpt lat="46.395900" lon="12.010130">
                <time>2017-07-15T07:40:15Z</time>
            </trkpt>
            <trkpt lat="46.395780" lon="12.010000">
                <time>2017-07-15T07:40:16Z</time>
            </trkpt>
            <trkpt lat="46.395680" lon="12.009870">
                <time>2017-07-15T07:40:17Z</time>
            </trkpt>
            <trkpt lat="46.395610" lon="12.009740">
                <time>2017-07-15T07:40:18Z</time>
            </trkpt>
            <trkpt lat="46.395560" lon="12.009600">
                <time>2017-07-15T07:40:19Z</time>
            </trkpt>
            <trkpt lat="46.395530" lon="12.009430">
                <time>2017-07-15T07:40:20Z</time>
            </trkpt>
            <trkpt lat="46.395540" lon="12.009280">
                <time>2017-07-15T07:40:21Z</time>
            </trkpt>
            <trkpt lat="46.395580" lon="12.009110">
                <time>2017-07-15T07:40:22Z</time>
            </trkpt>
            <trkpt lat="46.395640" lon="12.008950">
                <time>2017-07-15T07:40:23Z</time>
            </trkpt>
            <trkpt lat="46.395710" lon="12.008820">
                <time>2017-07-15T07:40:24Z</time>
            </trkpt>
            <trkpt lat="46.395780" lon="12.008670">
                <time>2017-07-15T07:40:25Z</time>
            </trkpt>
            <trkpt lat="46.395850" lon="12.008490">
                <time>2017-07-15T07:40:26Z</time>
            </trkpt>
            <trkpt lat="46.395880" lon="12.008330">
                <time>2017-07-15T07:40:27Z</time>
            </trkpt>
            <trkpt lat="46.395900" lon="12.008140">
                <time>2017-07-15T07:40:28Z</time>
            </trkpt>
            <trkpt lat="46.395900" lon="12.007950">
                <time>2017-07-15T07:40:29Z</time>
            </trkpt>
            <trkpt lat="46.395880" lon="12.007760">
                <time>2017-07-15T07:40:30Z</time>
            </trkpt>
            <trkpt lat="46.395850" lon="12.007540">
                <time>2017-07-15T07:40:31Z</time>
            </trkpt>
            <trkpt lat="46.395810" lon="12.007360">
                <time>2017-07-15T07:40:32Z</time>
            </trkpt>
            <trkpt lat="46.395770" lon="12.007160">
                <time>2017-07-15T07:40:33Z</time>
            </trkpt>
            <trkpt lat="46.395710" lon="12.006970">
                <time>2017-07-15T07:40:34Z</time>
            </trkpt>
            <trkpt lat="46.395660" lon="12.006780">
                <time>2017-07-15T07:40:35Z</time>
            </trkpt>
            <trkpt lat="46.395580" lon="12.006580">
                <time>2017-07-15T07:40:36Z</time>
            </trkpt>
            <trkpt lat="46.395500" lon="12.006410">
                <time>2017-07-15T07:40:37Z</time>
            </trkpt>
            <trkpt lat="46.395410" lon="12.006220">
                <time>2017-07-15T07:40:38Z</time>
            </trkpt>
            <trkpt lat="46.395300" lon="12.006040">
                <time>2017-07-15T07:40:39Z</time>
            </trkpt>
            <trkpt lat="46.395190" lon="12.005870">
                <time>2017-07-15T07:40:40Z</time>
            </trkpt>
            <trkpt lat="46.395080" lon="12.005680">
                <time>2017-07-15T07:40:41Z</time>
            </trkpt>
            <trkpt lat="46.394950" lon="12.005480">
                <time>2017-07-15T07:40:42Z</time>
            </trkpt>
            <trkpt lat="46.394840" lon="12.005310">
                <time>2017-07-15T07:40:43Z</time>
            </trkpt>
            <trkpt lat="46.394710" lon="12.005120">
                <time>2017-07-15T07:40:44Z</time>
            </trkpt>
            <trkpt lat="46.394590" lon="12.004970">
                <time>2017-07-15T07:40:45Z</time>
            </trkpt>
            <trkpt lat="46.394460" lon="12.004830">
                <time>2017-07-15T07:40:46Z</time>
            </trkpt>
            <trkpt lat="46.394300" lon="12.004690">
                <time>2017-07-15T07:40:47Z</time>
            </trkpt>
            <trkpt lat="46.394170" lon="12.004580">
                <time>2017-07-15T07:40:48Z</time>
            </trkpt>
            <trkpt lat="46.394030" lon="12.004450">
                <time>2017-07-15T07:40:49Z</time>
            </trkpt>
            <trkpt lat="46.393910" lon="12.004300">
                <time>2017-07-15T07:40:50Z</time>
            </trkpt>
            <trkpt lat="46.393800" lon="12.004120">
                <time>2017-07-15T07:40:51Z</time>
            </trkpt>
            <trkpt lat="46.393710" lon="12.003900">
                <time>2017-07-15T07:40:52Z</time>
            </trkpt>
            <trkpt lat="46.393640" lon="12.003690">
                <time>2017-07-15T07:40:53Z</time>
            </trkpt>
            <trkpt lat="46.393570" lon="12.003460">
                <time>2017-07-15T07:40:54Z</time>
            </trkpt>
            <trkpt lat="46.393490" lon="12.003220">
                <time>2017-07-15T07:40:55Z</time>
            </trkpt>
            <trkpt lat="46.393410" lon="12.003020">
                <time>2017-07-15T07:40:56Z</time>
            </trkpt>
            <trkpt lat="46.393310" lon="12.002830">
                <time>2017-07-15T07:40:57Z</time>
            </trkpt>
            <trkpt lat="46.393190" lon="12.002630">
                <time>2017-07-15T07:40:58Z</time>
            </trkpt>
            <trkpt lat="46.393080" lon="12.002450">
                <time>2017-07-15T07:40:59Z</time>
            </trkpt>
            <trkpt lat="46.392950" lon="12.002240">
                <time>2017-07-15T07:41:00Z</time>
            </trkpt>
            <trkpt lat="46.392840" lon="12.002060">
                <time>2017-07-15T07:41:01Z</time>
            </trkpt>
            <trkpt lat="46.392720" lon="12.001860">
                <time>2017-07-15T07:41:02Z</time>
            </trkpt>
            <trkpt lat="46.392580" lon="12.001640">
                <time>2017-07-15T07:41:03Z</time>
            </trkpt>
            <trkpt lat="46.392470" lon="12.001450">
                <time>2017-07-15T07:41:04Z</time>
            </trkpt>
            <trkpt lat="46.392340" lon="12.001240">
                <time>2017-07-15T07:41:05Z</time>
            </trkpt>
            <trkpt lat="46.392220" lon="12.001040">
                <time>2017-07-15T07:41:06Z</time>
            </trkpt>
            <trkpt lat="46.392100" lon="12.000830">
                <time>2017-07-15T07:41:07Z</time>
            </trkpt>
            <trkpt lat="46.391980" lon="12.000600">
                <time>2017-07-15T07:41:08Z</time>
            </trkpt>
            <trkpt lat="46.391880" lon="12.000390">
                <time>2017-07-15T07:41:09Z</time>
            </trkpt>
            <trkpt lat="46.391810" lon="12.000170">
                <time>2017-07-15T07:41:10Z</time>
            </trkpt>
            <trkpt lat="46.391750" lon="11.999910">
                <time>2017-07-15T07:41:11Z</time>
            </trkpt>
            <trkpt lat="46.391720" lon="11.999690">
                <time>2017-07-15T07:41:12Z</time>
            </trkpt>
            <trkpt lat="46.391690" lon="11.999450">
                <time>2017-07-15T07:41:13Z</time>
            </trkpt>
            <trkpt lat="46.391660" lon="11.999200">
                <time>2017-07-15T07:41:14Z</time>
            </trkpt>
            <trkpt lat="46.391610" lon="11.998990">
                <time>2017-07-15T07:41:15Z</time>
            </trkpt>
            <trkpt lat="46.391530" lon="11.998770">
                <time>2017-07-15T07:41:16Z</time>
            </trkpt>
            <trkpt lat="46.391440" lon="11.998600">
                <time>2017-07-15T07:41:17Z</time>
            </trkpt>
            <trkpt lat="46.391310" lon="11.998450">
                <time>2017-07-15T07:41:18Z</time>
            </trkpt>
            <trkpt lat="46.391160" lon="11.998320">
                <time>2017-07-15T07:41:19Z</time>
            </trkpt>
            <trkpt lat="46.391010" lon="11.998230">
                <time>2017-07-15T07:41:20Z</time>
            </trkpt>
            <trkpt lat="46.390840" lon="11.998140">
                <time>2017-07-15T07:41:21Z</time>
            </trkpt>
            <trkpt lat="46.390670" lon="11.998040">
                <time>2017-07-15T07:41:22Z</time>
            </trkpt>
            <trkpt lat="46.390500" lon="11.997940">
                <time>2017-07-15T07:41:23Z</time>
            </trkpt>
            <trkpt lat="46.390320" lon="11.997820">
                <time>2017-07-15T07:41:24Z</time>
            </trkpt>
            <trkpt lat="46.390180" lon="11.997710">
                <time>2017-07-15T07:41:25Z</time>
            </trkpt>
            <trkpt lat="46.390040" lon="11.997580">
                <time>2017-07-15T07:41:26Z</time>
            </trkpt>
            <trkpt lat="46.389910" lon="11.997440">
                <time>2017-07-15T07:41:27Z</time>
            </trkpt>
            <trkpt lat="46.389800" lon="11.997300">
                <time>2017-07-15T07:41:28Z</time>
            </trkpt>
            <trkpt lat="46.389700" lon="11.997150">
                <time>2017-07-15T07:41:29Z</time>
            </trkpt>
            <trkpt lat="46.389600" lon="11.996980">
                <time>2017-07-15T07:41:30Z</time>
            </trkpt>
            <trkpt lat="46.389530" lon="11.996830">
                <time>2017-07-15T07:41:31Z</time>
            </trkpt>
            <trkpt lat="46.389460" lon="11.996700">
                <time>2017-07-15T07:41:32Z</time>
            </trkpt>
            <trkpt lat="46.389380" lon="11.996610">
                <time>2017-07-15T07:41:33Z</time>
            </trkpt>
            <trkpt lat="46.389300" lon="11.996570">
                <time>2017-07-15T07:41:34Z</time>
            </trkpt>
            <trkpt lat="46.389210" lon="11.996590">
                <time>2017-07-15T07:41:35Z</time>
            </trkpt>
            <trkpt lat="46.389140" lon="11.996660">
                <time>2017-07-15T07:41:36Z</time>
            </trkpt>
            <trkpt lat="46.389070" lon="11.996760">
                <time>2017-07-15T07:41:37Z</time>
            </trkpt>
            <trkpt lat="46.389080" lon="11.996910">
                <time>2017-07-15T07:41:38Z</time>
            </trkpt>
            <trkpt lat="46.389110" lon="11.997060">
                <time>2017-07-15T07:41:39Z</time>
            </trkpt>
            <trkpt lat="46.389180" lon="11.997200">
                <time>2017-07-15T07:41:40Z</time>
            </trkpt>
            <trkpt lat="46.389270" lon="11.997320">
                <time>2017-07-15T07:41:41Z</time>
            </trkpt>
            <trkpt lat="46.389380" lon="11.997440">
                <time>2017-07-15T07:41:42Z</time>
            </trkpt>
            <trkpt lat="46.389510" lon="11.997560">
                <time>2017-07-15T07:41:43Z</time>
            </trkpt>
            <trkpt lat="46.389620" lon="11.997670">
                <time>2017-07-15T07:41:44Z</time>
            </trkpt>
            <trkpt lat="46.389730" lon="11.997780">
                <time>2017-07-15T07:41:45Z</time>
            </trkpt>
            <trkpt lat="46.389810" lon="11.997920">
                <time>2017-07-15T07:41:46Z</time>
            </trkpt>
            <trkpt lat="46.389860" lon="11.998040">
                <time>2017-07-15T07:41:47Z</time>
            </trkpt>
            <trkpt lat="46.389880" lon="11.998200">
                <time>2017-07-15T07:41:48Z</time>
            </trkpt>
            <trkpt lat="46.389860" lon="11.998320">
                <time>2017-07-15T07:41:49Z</time>
            </trkpt>
            <trkpt lat="46.389800" lon="11.998440">
                <time>2017-07-15T07:41:50Z</time>
            </trkpt>
            <trkpt lat="46.389720" lon="11.998530">
                <time>2017-07-15T07:41:51Z</time>
            </trkpt>
            <trkpt lat="46.389630" lon="11.998590">
                <time>2017-07-15T07:41:52Z</time>
            </trkpt>
            <trkpt lat="46.389530" lon="11.998660">
                <time>2017-07-15T07:41:53Z</time>
            </trkpt>
            <trkpt lat="46.389420" lon="11.998720">
                <time>2017-07-15T07:41:54Z</time>
            </trkpt>
            <trkpt lat="46.389300" lon="11.998770">
                <time>2017-07-15T07:41:55Z</time>
            </trkpt>
            <trkpt lat="46.389170" lon="11.998820">
                <time>2017-07-15T07:41:56Z</time>
            </trkpt>
            <trkpt lat="46.389050" lon="11.998860">
                <time>2017-07-15T07:41:57Z</time>
            </trkpt>
            <trkpt lat="46.388920" lon="11.998900">
                <time>2017-07-15T07:41:58Z</time>
            </trkpt>
            <trkpt lat="46.388770" lon="11.998920">
                <time>2017-07-15T07:41:59Z</time>
            </trkpt>
            <trkpt lat="46.388640" lon="11.998930">
                <time>2017-07-15T07:42:00Z</time>
            </trkpt>
            <trkpt lat="46.388510" lon="11.998930">
                <time>2017-07-15T07:42:01Z</time>
            </trkpt>
            <trkpt lat="46.388380" lon="11.998940">
                <time>2017-07-15T07:42:02Z</time>
            </trkpt>
            <trkpt lat="46.388280" lon="11.998950">
                <time>2017-07-15T07:42:03Z</time>
            </trkpt>
            <trkpt lat="46.388160" lon="11.998960">
                <time>2017-07-15T07:42:04Z</time>
            </trkpt>
            <trkpt lat="46.388070" lon="11.998950">
                <time>2017-07-15T07:42:05Z</time>
            </trkpt>
            <trkpt lat="46.387970" lon="11.998910">
                <time>2017-07-15T07:42:06Z</time>
            </trkpt>
            <trkpt lat="46.387870" lon="11.998850">
                <time>2017-07-15T07:42:07Z</time>
            </trkpt>
            <trkpt lat="46.387780" lon="11.998780">
                <time>2017-07-15T07:42:08Z</time>
            </trkpt>
            <trkpt lat="46.387700" lon="11.998680">
                <time>2017-07-15T07:42:09Z</time>
            </trkpt>
            <trkpt lat="46.387630" lon="11.998570">
                <time>2017-07-15T07:42:10Z</time>
            </trkpt>
            <trkpt lat="46.387560" lon="11.998430">
                <time>2017-07-15T07:42:11Z</time>
            </trkpt>
            <trkpt lat="46.387510" lon="11.998280">
                <time>2017-07-15T07:42:12Z</time>
            </trkpt>
            <trkpt lat="46.387470" lon="11.998150">
                <time>2017-07-15T07:42:13Z</time>
            </trkpt>
            <trkpt lat="46.387410" lon="11.998000">
                <time>2017-07-15T07:42:14Z</time>
            </trkpt>
            <trkpt lat="46.387360" lon="11.997830">
                <time>2017-07-15T07:42:15Z</time>
            </trkpt>
            <trkpt lat="46.387300" lon="11.997680">
                <time>2017-07-15T07:42:16Z</time>
            </trkpt>
            <trkpt lat="46.387240" lon="11.997510">
                <time>2017-07-15T07:42:17Z</time>
            </trkpt>
            <trkpt lat="46.387180" lon="11.997340">
                <time>2017-07-15T07:42:18Z</time>
            </trkpt>
            <trkpt lat="46.387110" lon="11.997180">
                <time>2017-07-15T07:42:19Z</time>
            </trkpt>
            <trkpt lat="46.387040" lon="11.997010">
                <time>2017-07-15T07:42:20Z</time>
            </trkpt>
            <trkpt lat="46.386960" lon="11.996870">
                <time>2017-07-15T07:42:21Z</time>
            </trkpt>
            <trkpt lat="46.386880" lon="11.996730">
                <time>2017-07-15T07:42:22Z</time>
            </trkpt>
            <trkpt lat="46.386770" lon="11.996610">
                <time>2017-07-15T07:42:23Z</time>
            </trkpt>
            <trkpt lat="46.386670" lon="11.996510">
                <time>2017-07-15T07:42:24Z</time>
            </trkpt>
            <trkpt lat="46.386570" lon="11.996440">
                <time>2017-07-15T07:42:25Z</time>
            </trkpt>
            <trkpt lat="46.386460" lon="11.996370">
                <time>2017-07-15T07:42:26Z</time>
            </trkpt>
            <trkpt lat="46.386350" lon="11.996320">
                <time>2017-07-15T07:42:27Z</time>
            </trkpt>
            <trkpt lat="46.386240" lon="11.996270">
                <time>2017-07-15T07:42:28Z</time>
            </trkpt>
            <trkpt lat="46.386140" lon="11.996230">
                <time>2017-07-15T07:42:29Z</time>
            </trkpt>
            <trkpt lat="46.386040" lon="11.996180">
                <time>2017-07-15T07:42:30Z</time>
            </trkpt>
            <trkpt lat="46.385940" lon="11.996110">
                <time>2017-07-15T07:42:31Z</time>
            </trkpt>
            <trkpt lat="46.385860" lon="11.996030">
                <time>2017-07-15T07:42:32Z</time>
            </trkpt>
            <trkpt lat="46.385790" lon="11.995920">
                <time>2017-07-15T07:42:33Z</time>
            </trkpt>
            <trkpt lat="46.385720" lon="11.995790">
                <time>2017-07-15T07:42:34Z</time>
            </trkpt>
            <trkpt lat="46.385670" lon="11.995660">
                <time>2017-07-15T07:42:35Z</time>
            </trkpt>
            <trkpt lat="46.385620" lon="11.995510">
                <time>2017-07-15T07:42:36Z</time>
            </trkpt>
            <trkpt lat="46.385570" lon="11.995360">
                <time>2017-07-15T07:42:37Z</time>
            </trkpt>
            <trkpt lat="46.385520" lon="11.995210">
                <time>2017-07-15T07:42:38Z</time>
            </trkpt>
            <trkpt lat="46.385470" lon="11.995030">
                <time>2017-07-15T07:42:39Z</time>
            </trkpt>
            <trkpt lat="46.385420" lon="11.994870">
                <time>2017-07-15T07:42:40Z</time>
            </trkpt>
            <trkpt lat="46.385370" lon="11.994700">
                <time>2017-07-15T07:42:41Z</time>
            </trkpt>
            <trkpt lat="46.385310" lon="11.994530">
                <time>2017-07-15T07:42:42Z</time>
            </trkpt>
            <trkpt lat="46.385240" lon="11.994370">
                <time>2017-07-15T07:42:43Z</time>
            </trkpt>
            <trkpt lat="46.385160" lon="11.994200">
                <time>2017-07-15T07:42:44Z</time>
            </trkpt>
            <trkpt lat="46.385090" lon="11.994060">
                <time>2017-07-15T07:42:45Z</time>
            </trkpt>
            <trkpt lat="46.385010" lon="11.993910">
                <time>2017-07-15T07:42:46Z</time>
            </trkpt>
            <trkpt lat="46.384930" lon="11.993770">
                <time>2017-07-15T07:42:47Z</time>
            </trkpt>
            <trkpt lat="46.384860" lon="11.993650">
                <time>2017-07-15T07:42:48Z</time>
            </trkpt>
            <trkpt lat="46.384770" lon="11.993510">
                <time>2017-07-15T07:42:49Z</time>
            </trkpt>
            <trkpt lat="46.384680" lon="11.993370">
                <time>2017-07-15T07:42:50Z</time>
            </trkpt>
            <trkpt lat="46.384600" lon="11.993250">
                <time>2017-07-15T07:42:51Z</time>
            </trkpt>
            <trkpt lat="46.384500" lon="11.993120">
                <time>2017-07-15T07:42:52Z</time>
            </trkpt>
            <trkpt lat="46.384400" lon="11.993000">
                <time>2017-07-15T07:42:53Z</time>
            </trkpt>
            <trkpt lat="46.384300" lon="11.992880">
                <time>2017-07-15T07:42:54Z</time>
            </trkpt>
            <trkpt lat="46.384190" lon="11.992760">
                <time>2017-07-15T07:42:55Z</time>
            </trkpt>
            <trkpt lat="46.384110" lon="11.992640">
                <time>2017-07-15T07:42:56Z</time>
            </trkpt>
            <trkpt lat="46.384020" lon="11.992520">
                <time>2017-07-15T07:42:57Z</time>
            </trkpt>
            <trkpt lat="46.383930" lon="11.992390">
                <time>2017-07-15T07:42:58Z</time>
            </trkpt>
            <trkpt lat="46.383840" lon="11.992260">
                <time>2017-07-15T07:42:59Z</time>
            </trkpt>
            <trkpt lat="46.383740" lon="11.992110">
                <time>2017-07-15T07:43:00Z</time>
            </trkpt>
            <trkpt lat="46.383660" lon="11.991980">
                <time>2017-07-15T07:43:01Z</time>
            </trkpt>
            <trkpt lat="46.383570" lon="11.991850">
                <time>2017-07-15T07:43:02Z</time>
            </trkpt>
            <trkpt lat="46.383470" lon="11.991700">
                <time>2017-07-15T07:43:03Z</time>
            </trkpt>
            <trkpt lat="46.383390" lon="11.991560">
                <time>2017-07-15T07:43:04Z</time>
            </trkpt>
            <trkpt lat="46.383290" lon="11.991410">
                <time>2017-07-15T07:43:05Z</time>
            </trkpt>
            <trkpt lat="46.383170" lon="11.991240">
                <time>2017-07-15T07:43:06Z</time>
            </trkpt>
            <trkpt lat="46.383060" lon="11.991100">
                <time>2017-07-15T07:43:07Z</time>
            </trkpt>
            <trkpt lat="46.382930" lon="11.990940">
                <time>2017-07-15T07:43:08Z</time>
            </trkpt>
            <trkpt lat="46.382820" lon="11.990810">
                <time>2017-07-15T07:43:09Z</time>
            </trkpt>
            <trkpt lat="46.382710" lon="11.990670">
                <time>2017-07-15T07:43:10Z</time>
            </trkpt>
            <trkpt lat="46.382580" lon="11.990520">
                <time>2017-07-15T07:43:11Z</time>
            </trkpt>
            <trkpt lat="46.382480" lon="11.990380">
                <time>2017-07-15T07:43:12Z</time>
            </trkpt>
            <trkpt lat="46.382360" lon="11.990220">
                <time>2017-07-15T07:43:13Z</time>
            </trkpt>
            <trkpt lat="46.382250" lon="11.990050">
                <time>2017-07-15T07:43:14Z</time>
            </trkpt>
            <trkpt lat="46.382120" lon="11.989890">
                <time>2017-07-15T07:43:15Z</time>
            </trkpt>
            <trkpt lat="46.382000" lon="11.989710">
                <time>2017-07-15T07:43:16Z</time>
            </trkpt>
            <trkpt lat="46.381890" lon="11.989550">
                <time>2017-07-15T07:43:17Z</time>
            </trkpt>
            <trkpt lat="46.381760" lon="11.989380">
                <time>2017-07-15T07:43:18Z</time>
            </trkpt>
            <trkpt lat="46.381640" lon="11.989190">
                <time>2017-07-15T07:43:19Z</time>
            </trkpt>
            <trkpt lat="46.381540" lon="11.989030">
                <time>2017-07-15T07:43:20Z</time>
            </trkpt>
            <trkpt lat="46.381420" lon="11.988860">
                <time>2017-07-15T07:43:21Z</time>
            </trkpt>
            <trkpt lat="46.381300" lon="11.988680">
                <time>2017-07-15T07:43:22Z</time>
            </trkpt>
            <trkpt lat="46.381190" lon="11.988520">
                <time>2017-07-15T07:43:23Z</time>
            </trkpt>
            <trkpt lat="46.381050" lon="11.988350">
                <time>2017-07-15T07:43:24Z</time>
            </trkpt>
            <trkpt lat="46.380920" lon="11.988220">
                <time>2017-07-15T07:43:25Z</time>
            </trkpt>
            <trkpt lat="46.380780" lon="11.988090">
                <time>2017-07-15T07:43:26Z</time>
            </trkpt>
            <trkpt lat="46.380620" lon="11.987960">
                <time>2017-07-15T07:43:27Z</time>
            </trkpt>
            <trkpt lat="46.380480" lon="11.987860">
                <time>2017-07-15T07:43:28Z</time>
            </trkpt>
            <trkpt lat="46.380330" lon="11.987780">
                <time>2017-07-15T07:43:29Z</time>
            </trkpt>
            <trkpt lat="46.380200" lon="11.987700">
                <time>2017-07-15T07:43:30Z</time>
            </trkpt>
            <trkpt lat="46.380060" lon="11.987620">
                <time>2017-07-15T07:43:31Z</time>
            </trkpt>
            <trkpt lat="46.379920" lon="11.987540">
                <time>2017-07-15T07:43:32Z</time>
            </trkpt>
            <trkpt lat="46.379800" lon="11.987470">
                <time>2017-07-15T07:43:33Z</time>
            </trkpt>
            <trkpt lat="46.379690" lon="11.987390">
                <time>2017-07-15T07:43:34Z</time>
            </trkpt>
            <trkpt lat="46.379590" lon="11.987270">
                <time>2017-07-15T07:43:35Z</time>
            </trkpt>
            <trkpt lat="46.379500" lon="11.987150">
                <time>2017-07-15T07:43:36Z</time>
            </trkpt>
            <trkpt lat="46.379420" lon="11.987000">
                <time>2017-07-15T07:43:37Z</time>
            </trkpt>
            <trkpt lat="46.379350" lon="11.986830">
                <time>2017-07-15T07:43:38Z</time>
            </trkpt>
            <trkpt lat="46.379280" lon="11.986690">
                <time>2017-07-15T07:43:39Z</time>
            </trkpt>
            <trkpt lat="46.379210" lon="11.986510">
                <time>2017-07-15T07:43:40Z</time>
            </trkpt>
            <trkpt lat="46.379140" lon="11.986340">
                <time>2017-07-15T07:43:41Z</time>
            </trkpt>
            <trkpt lat="46.379060" lon="11.986170">
                <time>2017-07-15T07:43:42Z</time>
            </trkpt>
            <trkpt lat="46.378960" lon="11.986010">
                <time>2017-07-15T07:43:43Z</time>
            </trkpt>
            <trkpt lat="46.378870" lon="11.985870">
                <time>2017-07-15T07:43:44Z</time>
            </trkpt>
            <trkpt lat="46.378770" lon="11.985740">
                <time>2017-07-15T07:43:45Z</time>
            </trkpt>
            <trkpt lat="46.378670" lon="11.985590">
                <time>2017-07-15T07:43:46Z</time>
            </trkpt>
            <trkpt lat="46.378570" lon="11.985450">
                <time>2017-07-15T07:43:47Z</time>
            </trkpt>
            <trkpt lat="46.378450" lon="11.985300">
                <time>2017-07-15T07:43:48Z</time>
            </trkpt>
            <trkpt lat="46.378350" lon="11.985160">
                <time>2017-07-15T07:43:49Z</time>
            </trkpt>
            <trkpt lat="46.378240" lon="11.985020">
                <time>2017-07-15T07:43:50Z</time>
            </trkpt>
            <trkpt lat="46.378140" lon="11.984870">
                <time>2017-07-15T07:43:51Z</time>
            </trkpt>
            <trkpt lat="46.378050" lon="11.984740">
                <time>2017-07-15T07:43:52Z</time>
            </trkpt>
            <trkpt lat="46.377960" lon="11.984600">
                <time>2017-07-15T07:43:53Z</time>
            </trkpt>
            <trkpt lat="46.377860" lon="11.984450">
                <time>2017-07-15T07:43:54Z</time>
            </trkpt>
            <trkpt lat="46.377780" lon="11.984320">
                <time>2017-07-15T07:43:55Z</time>
            </trkpt>
            <trkpt lat="46.377690" lon="11.984170">
                <time>2017-07-15T07:43:56Z</time>
            </trkpt>
            <trkpt lat="46.377610" lon="11.984040">
                <time>2017-07-15T07:43:57Z</time>
            </trkpt>
            <trkpt lat="46.377510" lon="11.983890">
                <time>2017-07-15T07:43:58Z</time>
            </trkpt>
            <trkpt lat="46.377400" lon="11.983740">
                <time>2017-07-15T07:43:59Z</time>
            </trkpt>
            <trkpt lat="46.377290" lon="11.983620">
                <time>2017-07-15T07:44:00Z</time>
            </trkpt>
            <trkpt lat="46.377190" lon="11.983490">
                <time>2017-07-15T07:44:01Z</time>
            </trkpt>
            <trkpt lat="46.377070" lon="11.983370">
                <time>2017-07-15T07:44:02Z</time>
            </trkpt>
            <trkpt lat="46.376940" lon="11.983240">
                <time>2017-07-15T07:44:03Z</time>
            </trkpt>
            <trkpt lat="46.376780" lon="11.983090">
                <time>2017-07-15T07:44:04Z</time>
            </trkpt>
            <trkpt lat="46.376640" lon="11.982960">
                <time>2017-07-15T07:44:05Z</time>
            </trkpt>
            <trkpt lat="46.376500" lon="11.982830">
                <time>2017-07-15T07:44:06Z</time>
            </trkpt>
            <trkpt lat="46.376370" lon="11.982680">
                <time>2017-07-15T07:44:07Z</time>
            </trkpt>
            <trkpt lat="46.376260" lon="11.982570">
                <time>2017-07-15T07:44:08Z</time>
            </trkpt>
            <trkpt lat="46.376140" lon="11.982460">
                <time>2017-07-15T07:44:09Z</time>
            </trkpt>
            <trkpt lat="46.376020" lon="11.982350">
                <time>2017-07-15T07:44:10Z</time>
            </trkpt>
            <trkpt lat="46.375900" lon="11.982270">
                <time>2017-07-15T07:44:11Z</time>
            </trkpt>
            <trkpt lat="46.375750" lon="11.982170">
                <time>2017-07-15T07:44:12Z</time>
            </trkpt>
            <trkpt lat="46.375610" lon="11.982100">
                <time>2017-07-15T07:44:13Z</time>
            </trkpt>
            <trkpt lat="46.375440" lon="11.982030">
                <time>2017-07-15T07:44:14Z</time>
            </trkpt>
            <trkpt lat="46.375240" lon="11.981960">
                <time>2017-07-15T07:44:15Z</time>
            </trkpt>
            <trkpt lat="46.375060" lon="11.981910">
                <time>2017-07-15T07:44:16Z</time>
            </trkpt>
            <trkpt lat="46.374860" lon="11.981860">
                <time>2017-07-15T07:44:17Z</time>
            </trkpt>
            <trkpt lat="46.374630" lon="11.981800">
                <time>2017-07-15T07:44:18Z</time>
            </trkpt>
            <trkpt lat="46.374400" lon="11.981750">
                <time>2017-07-15T07:44:19Z</time>
            </trkpt>
            <trkpt lat="46.374150" lon="11.981690">
                <time>2017-07-15T07:44:20Z</time>
            </trkpt>
            <trkpt lat="46.373920" lon="11.981640">
                <time>2017-07-15T07:44:21Z</time>
            </trkpt>
            <trkpt lat="46.373680" lon="11.981590">
                <time>2017-07-15T07:44:22Z</time>
            </trkpt>
            <trkpt lat="46.373430" lon="11.981510">
                <time>2017-07-15T07:44:23Z</time>
            </trkpt>
            <trkpt lat="46.373210" lon="11.981450">
                <time>2017-07-15T07:44:24Z</time>
            </trkpt>
            <trkpt lat="46.372990" lon="11.981390">
                <time>2017-07-15T07:44:25Z</time>
            </trkpt>
            <trkpt lat="46.372770" lon="11.981340">
                <time>2017-07-15T07:44:26Z</time>
            </trkpt>
            <trkpt lat="46.372600" lon="11.981270">
                <time>2017-07-15T07:44:27Z</time>
            </trkpt>
            <trkpt lat="46.372400" lon="11.981190">
                <time>2017-07-15T07:44:28Z</time>
            </trkpt>
            <trkpt lat="46.372240" lon="11.981070">
                <time>2017-07-15T07:44:29Z</time>
            </trkpt>
            <trkpt lat="46.372090" lon="11.980930">
                <time>2017-07-15T07:44:30Z</time>
            </trkpt>
            <trkpt lat="46.371950" lon="11.980760">
                <time>2017-07-15T07:44:31Z</time>
            </trkpt>
            <trkpt lat="46.371850" lon="11.980580">
                <time>2017-07-15T07:44:32Z</time>
            </trkpt>
            <trkpt lat="46.371740" lon="11.980390">
                <time>2017-07-15T07:44:33Z</time>
            </trkpt>
            <trkpt lat="46.371630" lon="11.980190">
                <time>2017-07-15T07:44:34Z</time>
            </trkpt>
            <trkpt lat="46.371570" lon="11.979930">
                <time>2017-07-15T07:44:35Z</time>
            </trkpt>
            <trkpt lat="46.371520" lon="11.979650">
                <time>2017-07-15T07:44:36Z</time>
            </trkpt>
            <trkpt lat="46.371490" lon="11.979410">
                <time>2017-07-15T07:44:37Z</time>
            </trkpt>
            <trkpt lat="46.371450" lon="11.979150">
                <time>2017-07-15T07:44:38Z</time>
            </trkpt>
            <trkpt lat="46.371410" lon="11.978890">
                <time>2017-07-15T07:44:39Z</time>
            </trkpt>
            <trkpt lat="46.371360" lon="11.978660">
                <time>2017-07-15T07:44:40Z</time>
            </trkpt>
            <trkpt lat="46.371300" lon="11.978430">
                <time>2017-07-15T07:44:41Z</time>
            </trkpt>
            <trkpt lat="46.371230" lon="11.978220">
                <time>2017-07-15T07:44:42Z</time>
            </trkpt>
            <trkpt lat="46.371130" lon="11.978040">
                <time>2017-07-15T07:44:43Z</time>
            </trkpt>
            <trkpt lat="46.370990" lon="11.977880">
                <time>2017-07-15T07:44:44Z</time>
            </trkpt>
            <trkpt lat="46.370850" lon="11.977760">
                <time>2017-07-15T07:44:45Z</time>
            </trkpt>
            <trkpt lat="46.370690" lon="11.977690">
                <time>2017-07-15T07:44:46Z</time>
            </trkpt>
            <trkpt lat="46.370510" lon="11.977650">
                <time>2017-07-15T07:44:47Z</time>
            </trkpt>
            <trkpt lat="46.370340" lon="11.977650">
                <time>2017-07-15T07:44:48Z</time>
            </trkpt>
            <trkpt lat="46.370160" lon="11.977650">
                <time>2017-07-15T07:44:49Z</time>
            </trkpt>
            <trkpt lat="46.369980" lon="11.977650">
                <time>2017-07-15T07:44:50Z</time>
            </trkpt>
            <trkpt lat="46.369790" lon="11.977630">
                <time>2017-07-15T07:44:51Z</time>
            </trkpt>
            <trkpt lat="46.369580" lon="11.977580">
                <time>2017-07-15T07:44:52Z</time>
            </trkpt>
            <trkpt lat="46.369410" lon="11.977520">
                <time>2017-07-15T07:44:53Z</time>
            </trkpt>
            <trkpt lat="46.369220" lon="11.977450">
                <time>2017-07-15T07:44:54Z</time>
            </trkpt>
            <trkpt lat="46.369020" lon="11.977360">
                <time>2017-07-15T07:44:55Z</time>
            </trkpt>
            <trkpt lat="46.368850" lon="11.977280">
                <time>2017-07-15T07:44:56Z</time>
            </trkpt>
            <trkpt lat="46.368660" lon="11.977200">
                <time>2017-07-15T07:44:57Z</time>
            </trkpt>
            <trkpt lat="46.368460" lon="11.977110">
                <time>2017-07-15T07:44:58Z</time>
            </trkpt>
            <trkpt lat="46.368290" lon="11.977040">
                <time>2017-07-15T07:44:59Z</time>
            </trkpt>
            <trkpt lat="46.368080" lon="11.976980">
                <time>2017-07-15T07:45:00Z</time>
            </trkpt>
            <trkpt lat="46.367900" lon="11.976940">
                <time>2017-07-15T07:45:01Z</time>
            </trkpt>
            <trkpt lat="46.367700" lon="11.976900">
                <time>2017-07-15T07:45:02Z</time>
            </trkpt>
            <trkpt lat="46.367500" lon="11.976860">
                <time>2017-07-15T07:45:03Z</time>
            </trkpt>
            <trkpt lat="46.367320" lon="11.976820">
                <time>2017-07-15T07:45:04Z</time>
            </trkpt>
            <trkpt lat="46.367130" lon="11.976780">
                <time>2017-07-15T07:45:05Z</time>
            </trkpt>
            <trkpt lat="46.366950" lon="11.976750">
                <time>2017-07-15T07:45:06Z</time>
            </trkpt>
            <trkpt lat="46.366770" lon="11.976710">
                <time>2017-07-15T07:45:07Z</time>
            </trkpt>
            <trkpt lat="46.366580" lon="11.976670">
                <time>2017-07-15T07:45:08Z</time>
            </trkpt>
            <trkpt lat="46.366420" lon="11.976630">
                <time>2017-07-15T07:45:09Z</time>
            </trkpt>
            <trkpt lat="46.366240" lon="11.976590">
                <time>2017-07-15T07:45:10Z</time>
            </trkpt>
            <trkpt lat="46.366070" lon="11.976560">
                <time>2017-07-15T07:45:11Z</time>
            </trkpt>
            <trkpt lat="46.365910" lon="11.976520">
                <time>2017-07-15T07:45:12Z</time>
            </trkpt>
            <trkpt lat="46.365740" lon="11.976480">
                <time>2017-07-15T07:45:13Z</time>
            </trkpt>
            <trkpt lat="46.365570" lon="11.976440">
                <time>2017-07-15T07:45:14Z</time>
            </trkpt>
            <trkpt lat="46.365420" lon="11.976400">
                <time>2017-07-15T07:45:15Z</time>
            </trkpt>
            <trkpt lat="46.365250" lon="11.976380">
                <time>2017-07-15T07:45:16Z</time>
            </trkpt>
            <trkpt lat="46.365100" lon="11.976350">
                <time>2017-07-15T07:45:17Z</time>
            </trkpt>
            <trkpt lat="46.364940" lon="11.976330">
                <time>2017-07-15T07:45:18Z</time>
            </trkpt>
            <trkpt lat="46.364760" lon="11.976330">
                <time>2017-07-15T07:45:19Z</time>
            </trkpt>
            <trkpt lat="46.364610" lon="11.976300">
                <time>2017-07-15T07:45:20Z</time>
            </trkpt>
            <trkpt lat="46.364430" lon="11.976250">
                <time>2017-07-15T07:45:21Z</time>
            </trkpt>
            <trkpt lat="46.364270" lon="11.976190">
                <time>2017-07-15T07:45:22Z</time>
            </trkpt>
            <trkpt lat="46.364100" lon="11.976100">
                <time>2017-07-15T07:45:23Z</time>
            </trkpt>
            <trkpt lat="46.363930" lon="11.975980">
                <time>2017-07-15T07:45:24Z</time>
            </trkpt>
            <trkpt lat="46.363800" lon="11.975850">
                <time>2017-07-15T07:45:25Z</time>
            </trkpt>
            <trkpt lat="46.363680" lon="11.975680">
                <time>2017-07-15T07:45:26Z</time>
            </trkpt>
            <trkpt lat="46.363560" lon="11.975480">
                <time>2017-07-15T07:45:27Z</time>
            </trkpt>
            <trkpt lat="46.363460" lon="11.975290">
                <time>2017-07-15T07:45:28Z</time>
            </trkpt>
            <trkpt lat="46.363350" lon="11.975090">
                <time>2017-07-15T07:45:29Z</time>
            </trkpt>
            <trkpt lat="46.363240" lon="11.974870">
                <time>2017-07-15T07:45:30Z</time>
            </trkpt>
            <trkpt lat="46.363130" lon="11.974680">
                <time>2017-07-15T07:45:31Z</time>
            </trkpt>
            <trkpt lat="46.362990" lon="11.974480">
                <time>2017-07-15T07:45:32Z</time>
            </trkpt>
            <trkpt lat="46.362860" lon="11.974330">
                <time>2017-07-15T07:45:33Z</time>
            </trkpt>
            <trkpt lat="46.362710" lon="11.974180">
                <time>2017-07-15T07:45:34Z</time>
            </trkpt>
            <trkpt lat="46.362540" lon="11.974040">
                <time>2017-07-15T07:45:35Z</time>
            </trkpt>
            <trkpt lat="46.362380" lon="11.973940">
                <time>2017-07-15T07:45:36Z</time>
            </trkpt>
            <trkpt lat="46.362210" lon="11.973850">
                <time>2017-07-15T07:45:37Z</time>
            </trkpt>
            <trkpt lat="46.362030" lon="11.973770">
                <time>2017-07-15T07:45:38Z</time>
            </trkpt>
            <trkpt lat="46.361840" lon="11.973690">
                <time>2017-07-15T07:45:39Z</time>
            </trkpt>
            <trkpt lat="46.361650" lon="11.973610">
                <time>2017-07-15T07:45:40Z</time>
            </trkpt>
            <trkpt lat="46.361470" lon="11.973530">
                <time>2017-07-15T07:45:41Z</time>
            </trkpt>
            <trkpt lat="46.361280" lon="11.973450">
                <time>2017-07-15T07:45:42Z</time>
            </trkpt>
            <trkpt lat="46.361080" lon="11.973370">
                <time>2017-07-15T07:45:43Z</time>
            </trkpt>
            <trkpt lat="46.360910" lon="11.973300">
                <time>2017-07-15T07:45:44Z</time>
            </trkpt>
            <trkpt lat="46.360740" lon="11.973230">
                <time>2017-07-15T07:45:45Z</time>
            </trkpt>
            <trkpt lat="46.360560" lon="11.973150">
                <time>2017-07-15T07:45:46Z</time>
            </trkpt>
            <trkpt lat="46.360400" lon="11.973080">
                <time>2017-07-15T07:45:47Z</time>
            </trkpt>
            <trkpt lat="46.360230" lon="11.973010">
                <time>2017-07-15T07:45:48Z</time>
            </trkpt>
            <trkpt lat="46.360070" lon="11.972950">
                <time>2017-07-15T07:45:49Z</time>
            </trkpt>
            <trkpt lat="46.359900" lon="11.972880">
                <time>2017-07-15T07:45:50Z</time>
            </trkpt>
            <trkpt lat="46.359720" lon="11.972800">
                <time>2017-07-15T07:45:51Z</time>
            </trkpt>
            <trkpt lat="46.359570" lon="11.972700">
                <time>2017-07-15T07:45:52Z</time>
            </trkpt>
            <trkpt lat="46.359400" lon="11.972600">
                <time>2017-07-15T07:45:53Z</time>
            </trkpt>
            <trkpt lat="46.359220" lon="11.972490">
                <time>2017-07-15T07:45:54Z</time>
            </trkpt>
            <trkpt lat="46.359050" lon="11.972380">
                <time>2017-07-15T07:45:55Z</time>
            </trkpt>
            <trkpt lat="46.358870" lon="11.972250">
                <time>2017-07-15T07:45:56Z</time>
            </trkpt>
            <trkpt lat="46.358710" lon="11.972120">
                <time>2017-07-15T07:45:57Z</time>
            </trkpt>
            <trkpt lat="46.358530" lon="11.971980">
                <time>2017-07-15T07:45:58Z</time>
            </trkpt>
            <trkpt lat="46.358340" lon="11.971830">
                <time>2017-07-15T07:45:59Z</time>
            </trkpt>
            <trkpt lat="46.358170" lon="11.971710">
                <time>2017-07-15T07:46:00Z</time>
            </trkpt>
            <trkpt lat="46.357990" lon="11.971580">
                <time>2017-07-15T07:46:01Z</time>
            </trkpt>
            <trkpt lat="46.357790" lon="11.971480">
                <time>2017-07-15T07:46:02Z</time>
            </trkpt>
            <trkpt lat="46.357610" lon="11.971410">
                <time>2017-07-15T07:46:03Z</time>
            </trkpt>
            <trkpt lat="46.357420" lon="11.971340">
                <time>2017-07-15T07:46:04Z</time>
            </trkpt>
            <trkpt lat="46.357240" lon="11.971280">
                <time>2017-07-15T07:46:05Z</time>
            </trkpt>
            <trkpt lat="46.357060" lon="11.971190">
                <time>2017-07-15T07:46:06Z</time>
            </trkpt>
            <trkpt lat="46.356860" lon="11.971120">
                <time>2017-07-15T07:46:07Z</time>
            </trkpt>
            <trkpt lat="46.356680" lon="11.971060">
                <time>2017-07-15T07:46:08Z</time>
            </trkpt>
            <trkpt lat="46.356510" lon="11.971000">
                <time>2017-07-15T07:46:09Z</time>
            </trkpt>
            <trkpt lat="46.356330" lon="11.970950">
                <time>2017-07-15T07:46:10Z</time>
            </trkpt>
            <trkpt lat="46.356160" lon="11.970930">
                <time>2017-07-15T07:46:11Z</time>
            </trkpt>
            <trkpt lat="46.356000" lon="11.970970">
                <time>2017-07-15T07:46:12Z</time>
            </trkpt>
            <trkpt lat="46.355850" lon="11.971030">
                <time>2017-07-15T07:46:13Z</time>
            </trkpt>
            <trkpt lat="46.355700" lon="11.971100">
                <time>2017-07-15T07:46:14Z</time>
            </trkpt>
            <trkpt lat="46.355520" lon="11.971130">
                <time>2017-07-15T07:46:15Z</time>
            </trkpt>
            <trkpt lat="46.355370" lon="11.971110">
                <time>2017-07-15T07:46:16Z</time>
            </trkpt>
            <trkpt lat="46.355200" lon="11.971050">
                <time>2017-07-15T07:46:17Z</time>
            </trkpt>
            <trkpt lat="46.355030" lon="11.971000">
                <time>2017-07-15T07:46:18Z</time>
            </trkpt>
            <trkpt lat="46.354870" lon="11.970920">
                <time>2017-07-15T07:46:19Z</time>
            </trkpt>
            <trkpt lat="46.354710" lon="11.970870">
                <time>2017-07-15T07:46:20Z</time>
            </trkpt>
            <trkpt lat="46.354580" lon="11.970820">
                <time>2017-07-15T07:46:21Z</time>
            </trkpt>
            <trkpt lat="46.354440" lon="11.970780">
                <time>2017-07-15T07:46:22Z</time>
            </trkpt>
            <trkpt lat="46.354300" lon="11.970740">
                <time>2017-07-15T07:46:23Z</time>
            </trkpt>
            <trkpt lat="46.354180" lon="11.970700">
                <time>2017-07-15T07:46:24Z</time>
            </trkpt>
            <trkpt lat="46.354070" lon="11.970660">
                <time>2017-07-15T07:46:25Z</time>
            </trkpt>
            <trkpt lat="46.353970" lon="11.970590">
                <time>2017-07-15T07:46:26Z</time>
            </trkpt>
            <trkpt lat="46.353890" lon="11.970480">
                <time>2017-07-15T07:46:27Z</time>
            </trkpt>
            <trkpt lat="46.353820" lon="11.970360">
                <time>2017-07-15T07:46:28Z</time>
            </trkpt>
            <trkpt lat="46.353760" lon="11.970240">
                <time>2017-07-15T07:46:29Z</time>
            </trkpt>
            <trkpt lat="46.353700" lon="11.970130">
                <time>2017-07-15T07:46:30Z</time>
            </trkpt>
            <trkpt lat="46.353630" lon="11.970010">
                <time>2017-07-15T07:46:31Z</time>
            </trkpt>
            <trkpt lat="46.353570" lon="11.969920">
                <time>2017-07-15T07:46:32Z</time>
            </trkpt>
            <trkpt lat="46.353510" lon="11.969820">
                <time>2017-07-15T07:46:33Z</time>
            </trkpt>
            <trkpt lat="46.353460" lon="11.969710">
                <time>2017-07-15T07:46:34Z</time>
            </trkpt>
            <trkpt lat="46.353400" lon="11.969630">
                <time>2017-07-15T07:46:35Z</time>
            </trkpt>
            <trkpt lat="46.353330" lon="11.969530">
                <time>2017-07-15T07:46:36Z</time>
            </trkpt>
            <trkpt lat="46.353280" lon="11.969440">
                <time>2017-07-15T07:46:37Z</time>
            </trkpt>
            <trkpt lat="46.353210" lon="11.969330">
                <time>2017-07-15T07:46:38Z</time>
            </trkpt>
            <trkpt lat="46.353140" lon="11.969230">
                <time>2017-07-15T07:46:39Z</time>
            </trkpt>
            <trkpt lat="46.353080" lon="11.969140">
                <time>2017-07-15T07:46:40Z</time>
            </trkpt>
            <trkpt lat="46.353020" lon="11.969040">
                <time>2017-07-15T07:46:41Z</time>
            </trkpt>
            <trkpt lat="46.352960" lon="11.968930">
                <time>2017-07-15T07:46:42Z</time>
            </trkpt>
            <trkpt lat="46.352910" lon="11.968820">
                <time>2017-07-15T07:46:43Z</time>
            </trkpt>
            <trkpt lat="46.352860" lon="11.968700">
                <time>2017-07-15T07:46:44Z</time>
            </trkpt>
            <trkpt lat="46.352820" lon="11.968600">
                <time>2017-07-15T07:46:45Z</time>
            </trkpt>
            <trkpt lat="46.352790" lon="11.968510">
                <time>2017-07-15T07:46:46Z</time>
            </trkpt>
            <trkpt lat="46.352750" lon="11.968400">
                <time>2017-07-15T07:46:47Z</time>
            </trkpt>
            <trkpt lat="46.352720" lon="11.968310">
                <time>2017-07-15T07:46:48Z</time>
            </trkpt>
            <trkpt lat="46.352690" lon="11.968230">
                <time>2017-07-15T07:46:49Z</time>
            </trkpt>
            <trkpt lat="46.352670" lon="11.968120">
                <time>2017-07-15T07:46:50Z</time>
            </trkpt>
            <trkpt lat="46.352630" lon="11.968040">
                <time>2017-07-15T07:46:51Z</time>
            </trkpt>
            <trkpt lat="46.352610" lon="11.967930">
                <time>2017-07-15T07:46:52Z</time>
            </trkpt>
            <trkpt lat="46.352630" lon="11.967830">
                <time>2017-07-15T07:46:53Z</time>
            </trkpt>
            <trkpt lat="46.352600" lon="11.967750">
                <time>2017-07-15T07:46:54Z</time>
            </trkpt>
            <trkpt lat="46.352580" lon="11.967650">
                <time>2017-07-15T07:46:55Z</time>
            </trkpt>
            <trkpt lat="46.352550" lon="11.967580">
                <time>2017-07-15T07:46:56Z</time>
            </trkpt>
            <trkpt lat="46.352510" lon="11.967480">
                <time>2017-07-15T07:46:57Z</time>
            </trkpt>
            <trkpt lat="46.352470" lon="11.967390">
                <time>2017-07-15T07:46:58Z</time>
            </trkpt>
            <trkpt lat="46.352460" lon="11.967310">
                <time>2017-07-15T07:46:59Z</time>
            </trkpt>
            <trkpt lat="46.352460" lon="11.967240">
                <time>2017-07-15T07:47:00Z</time>
            </trkpt>
            <trkpt lat="46.352470" lon="11.967170">
                <time>2017-07-15T07:47:01Z</time>
            </trkpt>
            <trkpt lat="46.352500" lon="11.967100">
                <time>2017-07-15T07:47:02Z</time>
            </trkpt>
            <trkpt lat="46.352550" lon="11.967030">
                <time>2017-07-15T07:47:03Z</time>
            </trkpt>
            <trkpt lat="46.352610" lon="11.966960">
                <time>2017-07-15T07:47:04Z</time>
            </trkpt>
            <trkpt lat="46.352670" lon="11.966890">
                <time>2017-07-15T07:47:05Z</time>
            </trkpt>
            <trkpt lat="46.352740" lon="11.966800">
                <time>2017-07-15T07:47:06Z</time>
            </trkpt>
            <trkpt lat="46.352800" lon="11.966710">
                <time>2017-07-15T07:47:07Z</time>
            </trkpt>
            <trkpt lat="46.352870" lon="11.966590">
                <time>2017-07-15T07:47:08Z</time>
            </trkpt>
            <trkpt lat="46.352930" lon="11.966490">
                <time>2017-07-15T07:47:09Z</time>
            </trkpt>
            <trkpt lat="46.353000" lon="11.966380">
                <time>2017-07-15T07:47:10Z</time>
            </trkpt>
            <trkpt lat="46.353090" lon="11.966280">
                <time>2017-07-15T07:47:11Z</time>
            </trkpt>
            <trkpt lat="46.353170" lon="11.966220">
                <time>2017-07-15T07:47:12Z</time>
            </trkpt>
            <trkpt lat="46.353270" lon="11.966190">
                <time>2017-07-15T07:47:13Z</time>
            </trkpt>
            <trkpt lat="46.353380" lon="11.966150">
                <time>2017-07-15T07:47:14Z</time>
            </trkpt>
            <trkpt lat="46.353490" lon="11.966120">
                <time>2017-07-15T07:47:15Z</time>
            </trkpt>
            <trkpt lat="46.353600" lon="11.966080">
                <time>2017-07-15T07:47:16Z</time>
            </trkpt>
            <trkpt lat="46.353710" lon="11.966050">
                <time>2017-07-15T07:47:17Z</time>
            </trkpt>
            <trkpt lat="46.353820" lon="11.966010">
                <time>2017-07-15T07:47:18Z</time>
            </trkpt>
            <trkpt lat="46.353950" lon="11.965970">
                <time>2017-07-15T07:47:19Z</time>
            </trkpt>
            <trkpt lat="46.354060" lon="11.965930">
                <time>2017-07-15T07:47:20Z</time>
            </trkpt>
            <trkpt lat="46.354180" lon="11.965890">
                <time>2017-07-15T07:47:21Z</time>
            </trkpt>
            <trkpt lat="46.354310" lon="11.965850">
                <time>2017-07-15T07:47:22Z</time>
            </trkpt>
            <trkpt lat="46.360980" lon="11.955240">
                <time>2017-07-15T07:48:30Z</time>
            </trkpt>
            <trkpt lat="46.361080" lon="11.954970">
                <time>2017-07-15T07:48:31Z</time>
            </trkpt>
            <trkpt lat="46.361150" lon="11.954730">
                <time>2017-07-15T07:48:32Z</time>
            </trkpt>
            <trkpt lat="46.361190" lon="11.954480">
                <time>2017-07-15T07:48:33Z</time>
            </trkpt>
            <trkpt lat="46.361260" lon="11.954230">
                <time>2017-07-15T07:48:34Z</time>
            </trkpt>
            <trkpt lat="46.361340" lon="11.954000">
                <time>2017-07-15T07:48:35Z</time>
            </trkpt>
            <trkpt lat="46.361430" lon="11.953770">
                <time>2017-07-15T07:48:36Z</time>
            </trkpt>
            <trkpt lat="46.361500" lon="11.953570">
                <time>2017-07-15T07:48:37Z</time>
            </trkpt>
            <trkpt lat="46.361590" lon="11.953390">
                <time>2017-07-15T07:48:38Z</time>
            </trkpt>
            <trkpt lat="46.361700" lon="11.953230">
                <time>2017-07-15T07:48:39Z</time>
            </trkpt>
            <trkpt lat="46.361790" lon="11.953120">
                <time>2017-07-15T07:48:40Z</time>
            </trkpt>
            <trkpt lat="46.361900" lon="11.953010">
                <time>2017-07-15T07:48:41Z</time>
            </trkpt>
            <trkpt lat="46.362040" lon="11.952930">
                <time>2017-07-15T07:48:42Z</time>
            </trkpt>
            <trkpt lat="46.362160" lon="11.952840">
                <time>2017-07-15T07:48:43Z</time>
            </trkpt>
            <trkpt lat="46.362280" lon="11.952730">
                <time>2017-07-15T07:48:44Z</time>
            </trkpt>
            <trkpt lat="46.362370" lon="11.952620">
                <time>2017-07-15T07:48:45Z</time>
            </trkpt>
            <trkpt lat="46.362450" lon="11.952480">
                <time>2017-07-15T07:48:46Z</time>
            </trkpt>
            <trkpt lat="46.362510" lon="11.952310">
                <time>2017-07-15T07:48:47Z</time>
            </trkpt>
            <trkpt lat="46.362530" lon="11.952150">
                <time>2017-07-15T07:48:48Z</time>
            </trkpt>
            <trkpt lat="46.362580" lon="11.952000">
                <time>2017-07-15T07:48:49Z</time>
            </trkpt>
            <trkpt lat="46.362630" lon="11.951860">
                <time>2017-07-15T07:48:50Z</time>
            </trkpt>
            <trkpt lat="46.362700" lon="11.951730">
                <time>2017-07-15T07:48:51Z</time>
            </trkpt>
            <trkpt lat="46.362790" lon="11.951610">
                <time>2017-07-15T07:48:52Z</time>
            </trkpt>
            <trkpt lat="46.362860" lon="11.951500">
                <time>2017-07-15T07:48:53Z</time>
            </trkpt>
            <trkpt lat="46.362930" lon="11.951370">
                <time>2017-07-15T07:48:54Z</time>
            </trkpt>
            <trkpt lat="46.362990" lon="11.951210">
                <time>2017-07-15T07:48:55Z</time>
            </trkpt>
            <trkpt lat="46.363040" lon="11.951070">
                <time>2017-07-15T07:48:56Z</time>
            </trkpt>
            <trkpt lat="46.363090" lon="11.950910">
                <time>2017-07-15T07:48:57Z</time>
            </trkpt>
            <trkpt lat="46.363140" lon="11.950720">
                <time>2017-07-15T07:48:58Z</time>
            </trkpt>
            <trkpt lat="46.363190" lon="11.950560">
                <time>2017-07-15T07:48:59Z</time>
            </trkpt>
            <trkpt lat="46.363250" lon="11.950360">
                <time>2017-07-15T07:49:00Z</time>
            </trkpt>
            <trkpt lat="46.363310" lon="11.950180">
                <time>2017-07-15T07:49:01Z</time>
            </trkpt>
            <trkpt lat="46.363360" lon="11.949980">
                <time>2017-07-15T07:49:02Z</time>
            </trkpt>
            <trkpt lat="46.363420" lon="11.949770">
                <time>2017-07-15T07:49:03Z</time>
            </trkpt>
            <trkpt lat="46.363470" lon="11.949600">
                <time>2017-07-15T07:49:04Z</time>
            </trkpt>
            <trkpt lat="46.363520" lon="11.949420">
                <time>2017-07-15T07:49:05Z</time>
            </trkpt>
            <trkpt lat="46.363560" lon="11.949230">
                <time>2017-07-15T07:49:06Z</time>
            </trkpt>
            <trkpt lat="46.363610" lon="11.949050">
                <time>2017-07-15T07:49:07Z</time>
            </trkpt>
            <trkpt lat="46.363650" lon="11.948850">
                <time>2017-07-15T07:49:08Z</time>
            </trkpt>
            <trkpt lat="46.363680" lon="11.948690">
                <time>2017-07-15T07:49:09Z</time>
            </trkpt>
            <trkpt lat="46.363720" lon="11.948510">
                <time>2017-07-15T07:49:10Z</time>
            </trkpt>
            <trkpt lat="46.363770" lon="11.948320">
                <time>2017-07-15T07:49:11Z</time>
            </trkpt>
            <trkpt lat="46.363820" lon="11.948160">
                <time>2017-07-15T07:49:12Z</time>
            </trkpt>
            <trkpt lat="46.363880" lon="11.947990">
                <time>2017-07-15T07:49:13Z</time>
            </trkpt>
            <trkpt lat="46.363950" lon="11.947820">
                <time>2017-07-15T07:49:14Z</time>
            </trkpt>
            <trkpt lat="46.364010" lon="11.947670">
                <time>2017-07-15T07:49:15Z</time>
            </trkpt>
            <trkpt lat="46.364090" lon="11.947500">
                <time>2017-07-15T07:49:16Z</time>
            </trkpt>
            <trkpt lat="46.364140" lon="11.947360">
                <time>2017-07-15T07:49:17Z</time>
            </trkpt>
            <trkpt lat="46.364190" lon="11.947200">
                <time>2017-07-15T07:49:18Z</time>
            </trkpt>
            <trkpt lat="46.364220" lon="11.947010">
                <time>2017-07-15T07:49:19Z</time>
            </trkpt>
            <trkpt lat="46.364250" lon="11.946840">
                <time>2017-07-15T07:49:20Z</time>
            </trkpt>
            <trkpt lat="46.364280" lon="11.946670">
                <time>2017-07-15T07:49:21Z</time>
            </trkpt>
            <trkpt lat="46.364300" lon="11.946490">
                <time>2017-07-15T07:49:22Z</time>
            </trkpt>
            <trkpt lat="46.364320" lon="11.946310">
                <time>2017-07-15T07:49:23Z</time>
            </trkpt>
            <trkpt lat="46.364340" lon="11.946120">
                <time>2017-07-15T07:49:24Z</time>
            </trkpt>
            <trkpt lat="46.364340" lon="11.945930">
                <time>2017-07-15T07:49:25Z</time>
            </trkpt>
            <trkpt lat="46.364360" lon="11.945730">
                <time>2017-07-15T07:49:26Z</time>
            </trkpt>
            <trkpt lat="46.364380" lon="11.945530">
                <time>2017-07-15T07:49:27Z</time>
            </trkpt>
            <trkpt lat="46.364390" lon="11.945360">
                <time>2017-07-15T07:49:28Z</time>
            </trkpt>
            <trkpt lat="46.364400" lon="11.945180">
                <time>2017-07-15T07:49:29Z</time>
            </trkpt>
            <trkpt lat="46.364410" lon="11.944980">
                <time>2017-07-15T07:49:30Z</time>
            </trkpt>
            <trkpt lat="46.364410" lon="11.944810">
                <time>2017-07-15T07:49:31Z</time>
            </trkpt>
            <trkpt lat="46.364430" lon="11.944600">
                <time>2017-07-15T07:49:32Z</time>
            </trkpt>
            <trkpt lat="46.364430" lon="11.944420">
                <time>2017-07-15T07:49:33Z</time>
            </trkpt>
            <trkpt lat="46.364440" lon="11.944230">
                <time>2017-07-15T07:49:34Z</time>
            </trkpt>
            <trkpt lat="46.364450" lon="11.944050">
                <time>2017-07-15T07:49:35Z</time>
            </trkpt>
            <trkpt lat="46.364450" lon="11.943890">
                <time>2017-07-15T07:49:36Z</time>
            </trkpt>
            <trkpt lat="46.364470" lon="11.943710">
                <time>2017-07-15T07:49:37Z</time>
            </trkpt>
            <trkpt lat="46.364470" lon="11.943540">
                <time>2017-07-15T07:49:38Z</time>
            </trkpt>
            <trkpt lat="46.364470" lon="11.943360">
                <time>2017-07-15T07:49:39Z</time>
            </trkpt>
            <trkpt lat="46.364460" lon="11.943160">
                <time>2017-07-15T07:49:40Z</time>
            </trkpt>
            <trkpt lat="46.364450" lon="11.943000">
                <time>2017-07-15T07:49:41Z</time>
            </trkpt>
            <trkpt lat="46.364430" lon="11.942830">
                <time>2017-07-15T07:49:42Z</time>
            </trkpt>
            <trkpt lat="46.364390" lon="11.942650">
                <time>2017-07-15T07:49:43Z</time>
            </trkpt>
            <trkpt lat="46.364360" lon="11.942490">
                <time>2017-07-15T07:49:44Z</time>
            </trkpt>
            <trkpt lat="46.364320" lon="11.942320">
                <time>2017-07-15T07:49:45Z</time>
            </trkpt>
            <trkpt lat="46.364290" lon="11.942140">
                <time>2017-07-15T07:49:46Z</time>
            </trkpt>
            <trkpt lat="46.364250" lon="11.941990">
                <time>2017-07-15T07:49:47Z</time>
            </trkpt>
            <trkpt lat="46.364220" lon="11.941840">
                <time>2017-07-15T07:49:48Z</time>
            </trkpt>
            <trkpt lat="46.364170" lon="11.941690">
                <time>2017-07-15T07:49:49Z</time>
            </trkpt>
            <trkpt lat="46.364120" lon="11.941540">
                <time>2017-07-15T07:49:50Z</time>
            </trkpt>
            <trkpt lat="46.364060" lon="11.941370">
                <time>2017-07-15T07:49:51Z</time>
            </trkpt>
            <trkpt lat="46.364010" lon="11.941220">
                <time>2017-07-15T07:49:52Z</time>
            </trkpt>
            <trkpt lat="46.363940" lon="11.941060">
                <time>2017-07-15T07:49:53Z</time>
            </trkpt>
            <trkpt lat="46.363870" lon="11.940890">
                <time>2017-07-15T07:49:54Z</time>
            </trkpt>
            <trkpt lat="46.363810" lon="11.940730">
                <time>2017-07-15T07:49:55Z</time>
            </trkpt>
            <trkpt lat="46.363740" lon="11.940550">
                <time>2017-07-15T07:49:56Z</time>
            </trkpt>
            <trkpt lat="46.363670" lon="11.940400">
                <time>2017-07-15T07:49:57Z</time>
            </trkpt>
            <trkpt lat="46.363610" lon="11.940250">
                <time>2017-07-15T07:49:58Z</time>
            </trkpt>
            <trkpt lat="46.363550" lon="11.940090">
                <time>2017-07-15T07:49:59Z</time>
            </trkpt>
            <trkpt lat="46.363480" lon="11.939950">
                <time>2017-07-15T07:50:00Z</time>
            </trkpt>
            <trkpt lat="46.363430" lon="11.939790">
                <time>2017-07-15T07:50:01Z</time>
            </trkpt>
            <trkpt lat="46.363380" lon="11.939610">
                <time>2017-07-15T07:50:02Z</time>
            </trkpt>
            <trkpt lat="46.363340" lon="11.939450">
                <time>2017-07-15T07:50:03Z</time>
            </trkpt>
            <trkpt lat="46.363300" lon="11.939270">
                <time>2017-07-15T07:50:04Z</time>
            </trkpt>
            <trkpt lat="46.363270" lon="11.939100">
                <time>2017-07-15T07:50:05Z</time>
            </trkpt>
            <trkpt lat="46.363240" lon="11.938910">
                <time>2017-07-15T07:50:06Z</time>
            </trkpt>
            <trkpt lat="46.363210" lon="11.938700">
                <time>2017-07-15T07:50:07Z</time>
            </trkpt>
            <trkpt lat="46.363190" lon="11.938480">
                <time>2017-07-15T07:50:08Z</time>
            </trkpt>
            <trkpt lat="46.363170" lon="11.938230">
                <time>2017-07-15T07:50:09Z</time>
            </trkpt>
            <trkpt lat="46.363140" lon="11.937980">
                <time>2017-07-15T07:50:10Z</time>
            </trkpt>
            <trkpt lat="46.363120" lon="11.937710">
                <time>2017-07-15T07:50:11Z</time>
            </trkpt>
            <trkpt lat="46.363100" lon="11.937430">
                <time>2017-07-15T07:50:12Z</time>
            </trkpt>
            <trkpt lat="46.363080" lon="11.937200">
                <time>2017-07-15T07:50:13Z</time>
            </trkpt>
            <trkpt lat="46.363080" lon="11.936970">
                <time>2017-07-15T07:50:14Z</time>
            </trkpt>
            <trkpt lat="46.363090" lon="11.936750">
                <time>2017-07-15T07:50:15Z</time>
            </trkpt>
            <trkpt lat="46.363100" lon="11.936570">
                <time>2017-07-15T07:50:16Z</time>
            </trkpt>
            <trkpt lat="46.363120" lon="11.936360">
                <time>2017-07-15T07:50:17Z</time>
            </trkpt>
            <trkpt lat="46.363150" lon="11.936140">
                <time>2017-07-15T07:50:18Z</time>
            </trkpt>
            <trkpt lat="46.363160" lon="11.935950">
                <time>2017-07-15T07:50:19Z</time>
            </trkpt>
            <trkpt lat="46.363170" lon="11.935730">
                <time>2017-07-15T07:50:20Z</time>
            </trkpt>
            <trkpt lat="46.363190" lon="11.935550">
                <time>2017-07-15T07:50:21Z</time>
            </trkpt>
            <trkpt lat="46.363200" lon="11.935360">
                <time>2017-07-15T07:50:22Z</time>
            </trkpt>
            <trkpt lat="46.363220" lon="11.935150">
                <time>2017-07-15T07:50:23Z</time>
            </trkpt>
            <trkpt lat="46.363230" lon="11.934970">
                <time>2017-07-15T07:50:24Z</time>
            </trkpt>
            <trkpt lat="46.363250" lon="11.934770">
                <time>2017-07-15T07:50:25Z</time>
            </trkpt>
            <trkpt lat="46.363260" lon="11.934580">
                <time>2017-07-15T07:50:26Z</time>
            </trkpt>
            <trkpt lat="46.363270" lon="11.934380">
                <time>2017-07-15T07:50:27Z</time>
            </trkpt>
            <trkpt lat="46.363290" lon="11.934160">
                <time>2017-07-15T07:50:28Z</time>
            </trkpt>
            <trkpt lat="46.363310" lon="11.933970">
                <time>2017-07-15T07:50:29Z</time>
            </trkpt>
            <trkpt lat="46.363320" lon="11.933770">
                <time>2017-07-15T07:50:30Z</time>
            </trkpt>
            <trkpt lat="46.363330" lon="11.933560">
                <time>2017-07-15T07:50:31Z</time>
            </trkpt>
            <trkpt lat="46.363350" lon="11.933380">
                <time>2017-07-15T07:50:32Z</time>
            </trkpt>
            <trkpt lat="46.363360" lon="11.933190">
                <time>2017-07-15T07:50:33Z</time>
            </trkpt>
            <trkpt lat="46.363380" lon="11.932980">
                <time>2017-07-15T07:50:34Z</time>
            </trkpt>
            <trkpt lat="46.363390" lon="11.932800">
                <time>2017-07-15T07:50:35Z</time>
            </trkpt>
            <trkpt lat="46.363410" lon="11.932580">
                <time>2017-07-15T07:50:36Z</time>
            </trkpt>
            <trkpt lat="46.363430" lon="11.932400">
                <time>2017-07-15T07:50:37Z</time>
            </trkpt>
            <trkpt lat="46.363440" lon="11.932190">
                <time>2017-07-15T07:50:38Z</time>
            </trkpt>
            <trkpt lat="46.363460" lon="11.931970">
                <time>2017-07-15T07:50:39Z</time>
            </trkpt>
            <trkpt lat="46.363470" lon="11.931780">
                <time>2017-07-15T07:50:40Z</time>
            </trkpt>
            <trkpt lat="46.363480" lon="11.931560">
                <time>2017-07-15T07:50:41Z</time>
            </trkpt>
            <trkpt lat="46.363490" lon="11.931350">
                <time>2017-07-15T07:50:42Z</time>
            </trkpt>
            <trkpt lat="46.363500" lon="11.931130">
                <time>2017-07-15T07:50:43Z</time>
            </trkpt>
            <trkpt lat="46.363510" lon="11.930900">
                <time>2017-07-15T07:50:44Z</time>
            </trkpt>
            <trkpt lat="46.363510" lon="11.930690">
                <time>2017-07-15T07:50:45Z</time>
            </trkpt>
            <trkpt lat="46.363500" lon="11.930470">
                <time>2017-07-15T07:50:46Z</time>
            </trkpt>
            <trkpt lat="46.363490" lon="11.930240">
                <time>2017-07-15T07:50:47Z</time>
            </trkpt>
            <trkpt lat="46.363460" lon="11.930020">
                <time>2017-07-15T07:50:48Z</time>
            </trkpt>
            <trkpt lat="46.363430" lon="11.929770">
                <time>2017-07-15T07:50:49Z</time>
            </trkpt>
            <trkpt lat="46.363390" lon="11.929490">
                <time>2017-07-15T07:50:50Z</time>
            </trkpt>
            <trkpt lat="46.363370" lon="11.929240">
                <time>2017-07-15T07:50:51Z</time>
            </trkpt>
            <trkpt lat="46.363360" lon="11.928990">
                <time>2017-07-15T07:50:52Z</time>
            </trkpt>
            <trkpt lat="46.363350" lon="11.928780">
                <time>2017-07-15T07:50:53Z</time>
            </trkpt>
            <trkpt lat="46.363350" lon="11.928570">
                <time>2017-07-15T07:50:54Z</time>
            </trkpt>
            <trkpt lat="46.363350" lon="11.928350">
                <time>2017-07-15T07:50:55Z</time>
            </trkpt>
            <trkpt lat="46.363360" lon="11.928150">
                <time>2017-07-15T07:50:56Z</time>
            </trkpt>
            <trkpt lat="46.363380" lon="11.927940">
                <time>2017-07-15T07:50:57Z</time>
            </trkpt>
            <trkpt lat="46.363410" lon="11.927720">
                <time>2017-07-15T07:50:58Z</time>
            </trkpt>
            <trkpt lat="46.363440" lon="11.927480">
                <time>2017-07-15T07:50:59Z</time>
            </trkpt>
            <trkpt lat="46.363470" lon="11.927240">
                <time>2017-07-15T07:51:00Z</time>
            </trkpt>
            <trkpt lat="46.363490" lon="11.927040">
                <time>2017-07-15T07:51:01Z</time>
            </trkpt>
            <trkpt lat="46.363520" lon="11.926820">
                <time>2017-07-15T07:51:02Z</time>
            </trkpt>
            <trkpt lat="46.363540" lon="11.926610">
                <time>2017-07-15T07:51:03Z</time>
            </trkpt>
            <trkpt lat="46.363560" lon="11.926420">
                <time>2017-07-15T07:51:04Z</time>
            </trkpt>
            <trkpt lat="46.363560" lon="11.926210">
                <time>2017-07-15T07:51:05Z</time>
            </trkpt>
            <trkpt lat="46.363560" lon="11.925990">
                <time>2017-07-15T07:51:06Z</time>
            </trkpt>
            <trkpt lat="46.363540" lon="11.925770">
                <time>2017-07-15T07:51:07Z</time>
            </trkpt>
            <trkpt lat="46.363510" lon="11.925540">
                <time>2017-07-15T07:51:08Z</time>
            </trkpt>
            <trkpt lat="46.363470" lon="11.925340">
                <time>2017-07-15T07:51:09Z</time>
            </trkpt>
            <trkpt lat="46.363420" lon="11.925130">
                <time>2017-07-15T07:51:10Z</time>
            </trkpt>
            <trkpt lat="46.363360" lon="11.924900">
                <time>2017-07-15T07:51:11Z</time>
            </trkpt>
            <trkpt lat="46.363310" lon="11.924690">
                <time>2017-07-15T07:51:12Z</time>
            </trkpt>
            <trkpt lat="46.363250" lon="11.924490">
                <time>2017-07-15T07:51:13Z</time>
            </trkpt>
            <trkpt lat="46.363190" lon="11.924270">
                <time>2017-07-15T07:51:14Z</time>
            </trkpt>
            <trkpt lat="46.363130" lon="11.924050">
                <time>2017-07-15T07:51:15Z</time>
            </trkpt>
            <trkpt lat="46.363050" lon="11.923790">
                <time>2017-07-15T07:51:16Z</time>
            </trkpt>
            <trkpt lat="46.362990" lon="11.923540">
                <time>2017-07-15T07:51:17Z</time>
            </trkpt>
            <trkpt lat="46.362940" lon="11.923280">
                <time>2017-07-15T07:51:18Z</time>
            </trkpt>
            <trkpt lat="46.362890" lon="11.922980">
                <time>2017-07-15T07:51:19Z</time>
            </trkpt>
            <trkpt lat="46.362850" lon="11.922720">
                <time>2017-07-15T07:51:20Z</time>
            </trkpt>
            <trkpt lat="46.362830" lon="11.922460">
                <time>2017-07-15T07:51:21Z</time>
            </trkpt>
            <trkpt lat="46.362800" lon="11.922170">
                <time>2017-07-15T07:51:22Z</time>
            </trkpt>
            <trkpt lat="46.362780" lon="11.921920">
                <time>2017-07-15T07:51:23Z</time>
            </trkpt>
            <trkpt lat="46.362770" lon="11.921640">
                <time>2017-07-15T07:51:24Z</time>
            </trkpt>
            <trkpt lat="46.362750" lon="11.921410">
                <time>2017-07-15T07:51:25Z</time>
            </trkpt>
            <trkpt lat="46.362730" lon="11.921160">
                <time>2017-07-15T07:51:26Z</time>
            </trkpt>
            <trkpt lat="46.362720" lon="11.920910">
                <time>2017-07-15T07:51:27Z</time>
            </trkpt>
            <trkpt lat="46.362690" lon="11.920670">
                <time>2017-07-15T07:51:28Z</time>
            </trkpt>
            <trkpt lat="46.362660" lon="11.920430">
                <time>2017-07-15T07:51:29Z</time>
            </trkpt>
            <trkpt lat="46.362620" lon="11.920190">
                <time>2017-07-15T07:51:30Z</time>
            </trkpt>
            <trkpt lat="46.362570" lon="11.919950">
                <time>2017-07-15T07:51:31Z</time>
            </trkpt>
            <trkpt lat="46.362520" lon="11.919690">
                <time>2017-07-15T07:51:32Z</time>
            </trkpt>
            <trkpt lat="46.362470" lon="11.919460">
                <time>2017-07-15T07:51:33Z</time>
            </trkpt>
            <trkpt lat="46.362420" lon="11.919230">
                <time>2017-07-15T07:51:34Z</time>
            </trkpt>
            <trkpt lat="46.362370" lon="11.918990">
                <time>2017-07-15T07:51:35Z</time>
            </trkpt>
            <trkpt lat="46.362320" lon="11.918780">
                <time>2017-07-15T07:51:36Z</time>
            </trkpt>
            <trkpt lat="46.362270" lon="11.918550">
                <time>2017-07-15T07:51:37Z</time>
            </trkpt>
            <trkpt lat="46.362220" lon="11.918300">
                <time>2017-07-15T07:51:38Z</time>
            </trkpt>
            <trkpt lat="46.362190" lon="11.918090">
                <time>2017-07-15T07:51:39Z</time>
            </trkpt>
            <trkpt lat="46.362160" lon="11.917830">
                <time>2017-07-15T07:51:40Z</time>
            </trkpt>
            <trkpt lat="46.362130" lon="11.917600">
                <time>2017-07-15T07:51:41Z</time>
            </trkpt>
            <trkpt lat="46.362110" lon="11.917360">
                <time>2017-07-15T07:51:42Z</time>
            </trkpt>
            <trkpt lat="46.362090" lon="11.917100">
                <time>2017-07-15T07:51:43Z</time>
            </trkpt>
            <trkpt lat="46.362070" lon="11.916870">
                <time>2017-07-15T07:51:44Z</time>
            </trkpt>
            <trkpt lat="46.362040" lon="11.916620">
                <time>2017-07-15T07:51:45Z</time>
            </trkpt>
            <trkpt lat="46.362010" lon="11.916370">
                <time>2017-07-15T07:51:46Z</time>
            </trkpt>
            <trkpt lat="46.361990" lon="11.916120">
                <time>2017-07-15T07:51:47Z</time>
            </trkpt>
            <trkpt lat="46.361970" lon="11.915860">
                <time>2017-07-15T07:51:48Z</time>
            </trkpt>
            <trkpt lat="46.361950" lon="11.915640">
                <time>2017-07-15T07:51:49Z</time>
            </trkpt>
            <trkpt lat="46.361930" lon="11.915400">
                <time>2017-07-15T07:51:50Z</time>
            </trkpt>
            <trkpt lat="46.361910" lon="11.915140">
                <time>2017-07-15T07:51:51Z</time>
            </trkpt>
            <trkpt lat="46.361910" lon="11.914910">
                <time>2017-07-15T07:51:52Z</time>
            </trkpt>
            <trkpt lat="46.361910" lon="11.914660">
                <time>2017-07-15T07:51:53Z</time>
            </trkpt>
            <trkpt lat="46.361930" lon="11.914400">
                <time>2017-07-15T07:51:54Z</time>
            </trkpt>
            <trkpt lat="46.361960" lon="11.914160">
                <time>2017-07-15T07:51:55Z</time>
            </trkpt>
            <trkpt lat="46.361990" lon="11.913890">
                <time>2017-07-15T07:51:56Z</time>
            </trkpt>
            <trkpt lat="46.362030" lon="11.913650">
                <time>2017-07-15T07:51:57Z</time>
            </trkpt>
            <trkpt lat="46.362070" lon="11.913390">
                <time>2017-07-15T07:51:58Z</time>
            </trkpt>
            <trkpt lat="46.362140" lon="11.913130">
                <time>2017-07-15T07:51:59Z</time>
            </trkpt>
            <trkpt lat="46.362200" lon="11.912900">
                <time>2017-07-15T07:52:00Z</time>
            </trkpt>
            <trkpt lat="46.362280" lon="11.912660">
                <time>2017-07-15T07:52:01Z</time>
            </trkpt>
            <trkpt lat="46.362350" lon="11.912430">
                <time>2017-07-15T07:52:02Z</time>
            </trkpt>
            <trkpt lat="46.362430" lon="11.912210">
                <time>2017-07-15T07:52:03Z</time>
            </trkpt>
            <trkpt lat="46.362520" lon="11.911970">
                <time>2017-07-15T07:52:04Z</time>
            </trkpt>
            <trkpt lat="46.362590" lon="11.911750">
                <time>2017-07-15T07:52:05Z</time>
            </trkpt>
            <trkpt lat="46.362640" lon="11.911500">
                <time>2017-07-15T07:52:06Z</time>
            </trkpt>
            <trkpt lat="46.362690" lon="11.911230">
                <time>2017-07-15T07:52:07Z</time>
            </trkpt>
            <trkpt lat="46.362730" lon="11.910980">
                <time>2017-07-15T07:52:08Z</time>
            </trkpt>
            <trkpt lat="46.362760" lon="11.910710">
                <time>2017-07-15T07:52:09Z</time>
            </trkpt>
            <trkpt lat="46.362790" lon="11.910410">
                <time>2017-07-15T07:52:10Z</time>
            </trkpt>
            <trkpt lat="46.362810" lon="11.910160">
                <time>2017-07-15T07:52:11Z</time>
            </trkpt>
            <trkpt lat="46.362840" lon="11.909860">
                <time>2017-07-15T07:52:12Z</time>
            </trkpt>
            <trkpt lat="46.362860" lon="11.909600">
                <time>2017-07-15T07:52:13Z</time>
            </trkpt>
            <trkpt lat="46.362870" lon="11.909340">
                <time>2017-07-15T07:52:14Z</time>
            </trkpt>
            <trkpt lat="46.362890" lon="11.909080">
                <time>2017-07-15T07:52:15Z</time>
            </trkpt>
            <trkpt lat="46.362900" lon="11.908870">
                <time>2017-07-15T07:52:16Z</time>
            </trkpt>
            <trkpt lat="46.362930" lon="11.908660">
                <time>2017-07-15T07:52:17Z</time>
            </trkpt>
            <trkpt lat="46.362970" lon="11.908450">
                <time>2017-07-15T07:52:18Z</time>
            </trkpt>
            <trkpt lat="46.363030" lon="11.908260">
                <time>2017-07-15T07:52:19Z</time>
            </trkpt>
            <trkpt lat="46.363110" lon="11.908080">
                <time>2017-07-15T07:52:20Z</time>
            </trkpt>
            <trkpt lat="46.363170" lon="11.907920">
                <time>2017-07-15T07:52:21Z</time>
            </trkpt>
            <trkpt lat="46.363220" lon="11.907750">
                <time>2017-07-15T07:52:22Z</time>
            </trkpt>
            <trkpt lat="46.363250" lon="11.907560">
                <time>2017-07-15T07:52:23Z</time>
            </trkpt>
            <trkpt lat="46.363250" lon="11.907400">
                <time>2017-07-15T07:52:24Z</time>
            </trkpt>
            <trkpt lat="46.363250" lon="11.907230">
                <time>2017-07-15T07:52:25Z</time>
            </trkpt>
            <trkpt lat="46.363250" lon="11.907040">
                <time>2017-07-15T07:52:26Z</time>
            </trkpt>
            <trkpt lat="46.363250" lon="11.906850">
                <time>2017-07-15T07:52:27Z</time>
            </trkpt>
            <trkpt lat="46.363250" lon="11.906610">
                <time>2017-07-15T07:52:28Z</time>
            </trkpt>
            <trkpt lat="46.363270" lon="11.906370">
                <time>2017-07-15T07:52:29Z</time>
            </trkpt>
            <trkpt lat="46.363310" lon="11.906100">
                <time>2017-07-15T07:52:30Z</time>
            </trkpt>
            <trkpt lat="46.363360" lon="11.905790">
                <time>2017-07-15T07:52:31Z</time>
            </trkpt>
            <trkpt lat="46.363400" lon="11.905510">
                <time>2017-07-15T07:52:32Z</time>
            </trkpt>
            <trkpt lat="46.363440" lon="11.905220">
                <time>2017-07-15T07:52:33Z</time>
            </trkpt>
            <trkpt lat="46.363480" lon="11.904930">
                <time>2017-07-15T07:52:34Z</time>
            </trkpt>
            <trkpt lat="46.363520" lon="11.904650">
                <time>2017-07-15T07:52:35Z</time>
            </trkpt>
            <trkpt lat="46.363560" lon="11.904380">
                <time>2017-07-15T07:52:36Z</time>
            </trkpt>
            <trkpt lat="46.363590" lon="11.904150">
                <time>2017-07-15T07:52:37Z</time>
            </trkpt>
            <trkpt lat="46.363610" lon="11.903920">
                <time>2017-07-15T07:52:38Z</time>
            </trkpt>
            <trkpt lat="46.363620" lon="11.903670">
                <time>2017-07-15T07:52:39Z</time>
            </trkpt>
            <trkpt lat="46.363620" lon="11.903470">
                <time>2017-07-15T07:52:40Z</time>
            </trkpt>
            <trkpt lat="46.363620" lon="11.903260">
                <time>2017-07-15T07:52:41Z</time>
            </trkpt>
            <trkpt lat="46.363610" lon="11.903040">
                <time>2017-07-15T07:52:42Z</time>
            </trkpt>
            <trkpt lat="46.363600" lon="11.902830">
                <time>2017-07-15T07:52:43Z</time>
            </trkpt>
            <trkpt lat="46.363590" lon="11.902600">
                <time>2017-07-15T07:52:44Z</time>
            </trkpt>
            <trkpt lat="46.363580" lon="11.902380">
                <time>2017-07-15T07:52:45Z</time>
            </trkpt>
            <trkpt lat="46.363570" lon="11.902150">
                <time>2017-07-15T07:52:46Z</time>
            </trkpt>
            <trkpt lat="46.363550" lon="11.901890">
                <time>2017-07-15T07:52:47Z</time>
            </trkpt>
            <trkpt lat="46.363540" lon="11.901680">
                <time>2017-07-15T07:52:48Z</time>
            </trkpt>
            <trkpt lat="46.363520" lon="11.901450">
                <time>2017-07-15T07:52:49Z</time>
            </trkpt>
            <trkpt lat="46.363520" lon="11.901230">
                <time>2017-07-15T07:52:50Z</time>
            </trkpt>
            <trkpt lat="46.363510" lon="11.901010">
                <time>2017-07-15T07:52:51Z</time>
            </trkpt>
            <trkpt lat="46.363500" lon="11.900780">
                <time>2017-07-15T07:52:52Z</time>
            </trkpt>
            <trkpt lat="46.363500" lon="11.900590">
                <time>2017-07-15T07:52:53Z</time>
            </trkpt>
            <trkpt lat="46.363490" lon="11.900390">
                <time>2017-07-15T07:52:54Z</time>
            </trkpt>
            <trkpt lat="46.363490" lon="11.900200">
                <time>2017-07-15T07:52:55Z</time>
            </trkpt>
            <trkpt lat="46.363490" lon="11.900030">
                <time>2017-07-15T07:52:56Z</time>
            </trkpt>
            <trkpt lat="46.363500" lon="11.899850">
                <time>2017-07-15T07:52:57Z</time>
            </trkpt>
            <trkpt lat="46.363530" lon="11.899670">
                <time>2017-07-15T07:52:58Z</time>
            </trkpt>
            <trkpt lat="46.363570" lon="11.899520">
                <time>2017-07-15T07:52:59Z</time>
            </trkpt>
            <trkpt lat="46.363630" lon="11.899360">
                <time>2017-07-15T07:53:00Z</time>
            </trkpt>
            <trkpt lat="46.363680" lon="11.899230">
                <time>2017-07-15T07:53:01Z</time>
            </trkpt>
            <trkpt lat="46.363730" lon="11.899070">
                <time>2017-07-15T07:53:02Z</time>
            </trkpt>
            <trkpt lat="46.363770" lon="11.898890">
                <time>2017-07-15T07:53:03Z</time>
            </trkpt>
            <trkpt lat="46.363790" lon="11.898720">
                <time>2017-07-15T07:53:04Z</time>
            </trkpt>
            <trkpt lat="46.363800" lon="11.898530">
                <time>2017-07-15T07:53:05Z</time>
            </trkpt>
            <trkpt lat="46.363810" lon="11.898330">
                <time>2017-07-15T07:53:06Z</time>
            </trkpt>
            <trkpt lat="46.363810" lon="11.898130">
                <time>2017-07-15T07:53:07Z</time>
            </trkpt>
            <trkpt lat="46.363810" lon="11.897920">
                <time>2017-07-15T07:53:08Z</time>
            </trkpt>
            <trkpt lat="46.363800" lon="11.897720">
                <time>2017-07-15T07:53:09Z</time>
            </trkpt>
            <trkpt lat="46.363800" lon="11.897510">
                <time>2017-07-15T07:53:10Z</time>
            </trkpt>
            <trkpt lat="46.363810" lon="11.897290">
                <time>2017-07-15T07:53:11Z</time>
            </trkpt>
            <trkpt lat="46.363810" lon="11.897110">
                <time>2017-07-15T07:53:12Z</time>
            </trkpt>
            <trkpt lat="46.363810" lon="11.896920">
                <time>2017-07-15T07:53:13Z</time>
            </trkpt>
            <trkpt lat="46.363800" lon="11.896720">
                <time>2017-07-15T07:53:14Z</time>
            </trkpt>
            <trkpt lat="46.363780" lon="11.896540">
                <time>2017-07-15T07:53:15Z</time>
            </trkpt>
            <trkpt lat="46.363750" lon="11.896330">
                <time>2017-07-15T07:53:16Z</time>
            </trkpt>
            <trkpt lat="46.363730" lon="11.896130">
                <time>2017-07-15T07:53:17Z</time>
            </trkpt>
            <trkpt lat="46.363700" lon="11.895930">
                <time>2017-07-15T07:53:18Z</time>
            </trkpt>
            <trkpt lat="46.363670" lon="11.895710">
                <time>2017-07-15T07:53:19Z</time>
            </trkpt>
            <trkpt lat="46.363630" lon="11.895540">
                <time>2017-07-15T07:53:20Z</time>
            </trkpt>
            <trkpt lat="46.363580" lon="11.895370">
                <time>2017-07-15T07:53:21Z</time>
            </trkpt>
            <trkpt lat="46.363530" lon="11.895210">
                <time>2017-07-15T07:53:22Z</time>
            </trkpt>
            <trkpt lat="46.363490" lon="11.895060">
                <time>2017-07-15T07:53:23Z</time>
            </trkpt>
            <trkpt lat="46.363440" lon="11.894900">
                <time>2017-07-15T07:53:24Z</time>
            </trkpt>
            <trkpt lat="46.363400" lon="11.894760">
                <time>2017-07-15T07:53:25Z</time>
            </trkpt>
            <trkpt lat="46.363350" lon="11.894610">
                <time>2017-07-15T07:53:26Z</time>
            </trkpt>
            <trkpt lat="46.363300" lon="11.894450">
                <time>2017-07-15T07:53:27Z</time>
            </trkpt>
            <trkpt lat="46.363260" lon="11.894300">
                <time>2017-07-15T07:53:28Z</time>
            </trkpt>
            <trkpt lat="46.363210" lon="11.894150">
                <time>2017-07-15T07:53:29Z</time>
            </trkpt>
            <trkpt lat="46.363160" lon="11.893980">
                <time>2017-07-15T07:53:30Z</time>
            </trkpt>
            <trkpt lat="46.363110" lon="11.893830">
                <time>2017-07-15T07:53:31Z</time>
            </trkpt>
            <trkpt lat="46.363060" lon="11.893660">
                <time>2017-07-15T07:53:32Z</time>
            </trkpt>
            <trkpt lat="46.363020" lon="11.893500">
                <time>2017-07-15T07:53:33Z</time>
            </trkpt>
            <trkpt lat="46.362970" lon="11.893340">
                <time>2017-07-15T07:53:34Z</time>
            </trkpt>
            <trkpt lat="46.362910" lon="11.893160">
                <time>2017-07-15T07:53:35Z</time>
            </trkpt>
            <trkpt lat="46.362860" lon="11.892990">
                <time>2017-07-15T07:53:36Z</time>
            </trkpt>
            <trkpt lat="46.362820" lon="11.892810">
                <time>2017-07-15T07:53:37Z</time>
            </trkpt>
            <trkpt lat="46.362780" lon="11.892630">
                <time>2017-07-15T07:53:38Z</time>
            </trkpt>
            <trkpt lat="46.362750" lon="11.892430">
                <time>2017-07-15T07:53:39Z</time>
            </trkpt>
            <trkpt lat="46.362710" lon="11.892220">
                <time>2017-07-15T07:53:40Z</time>
            </trkpt>
            <trkpt lat="46.362690" lon="11.892020">
                <time>2017-07-15T07:53:41Z</time>
            </trkpt>
            <trkpt lat="46.362670" lon="11.891820">
                <time>2017-07-15T07:53:42Z</time>
            </trkpt>
            <trkpt lat="46.362630" lon="11.891590">
                <time>2017-07-15T07:53:43Z</time>
            </trkpt>
            <trkpt lat="46.362620" lon="11.891400">
                <time>2017-07-15T07:53:44Z</time>
            </trkpt>
            <trkpt lat="46.362600" lon="11.891210">
                <time>2017-07-15T07:53:45Z</time>
            </trkpt>
            <trkpt lat="46.362580" lon="11.891010">
                <time>2017-07-15T07:53:46Z</time>
            </trkpt>
            <trkpt lat="46.362560" lon="11.890830">
                <time>2017-07-15T07:53:47Z</time>
            </trkpt>
            <trkpt lat="46.362540" lon="11.890630">
                <time>2017-07-15T07:53:48Z</time>
            </trkpt>
            <trkpt lat="46.362520" lon="11.890450">
                <time>2017-07-15T07:53:49Z</time>
            </trkpt>
            <trkpt lat="46.362480" lon="11.890260">
                <time>2017-07-15T07:53:50Z</time>
            </trkpt>
            <trkpt lat="46.362420" lon="11.890070">
                <time>2017-07-15T07:53:51Z</time>
            </trkpt>
            <trkpt lat="46.362350" lon="11.889910">
                <time>2017-07-15T07:53:52Z</time>
            </trkpt>
            <trkpt lat="46.362280" lon="11.889740">
                <time>2017-07-15T07:53:53Z</time>
            </trkpt>
            <trkpt lat="46.362190" lon="11.889580">
                <time>2017-07-15T07:53:54Z</time>
            </trkpt>
            <trkpt lat="46.362100" lon="11.889430">
                <time>2017-07-15T07:53:55Z</time>
            </trkpt>
            <trkpt lat="46.362000" lon="11.889260">
                <time>2017-07-15T07:53:56Z</time>
            </trkpt>
            <trkpt lat="46.361910" lon="11.889120">
                <time>2017-07-15T07:53:57Z</time>
            </trkpt>
            <trkpt lat="46.361830" lon="11.888970">
                <time>2017-07-15T07:53:58Z</time>
            </trkpt>
            <trkpt lat="46.361730" lon="11.888820">
                <time>2017-07-15T07:53:59Z</time>
            </trkpt>
            <trkpt lat="46.361650" lon="11.888680">
                <time>2017-07-15T07:54:00Z</time>
            </trkpt>
            <trkpt lat="46.361550" lon="11.888530">
                <time>2017-07-15T07:54:01Z</time>
            </trkpt>
            <trkpt lat="46.361450" lon="11.888370">
                <time>2017-07-15T07:54:02Z</time>
            </trkpt>
            <trkpt lat="46.361360" lon="11.888220">
                <time>2017-07-15T07:54:03Z</time>
            </trkpt>
            <trkpt lat="46.361260" lon="11.888040">
                <time>2017-07-15T07:54:04Z</time>
            </trkpt>
            <trkpt lat="46.361170" lon="11.887880">
                <time>2017-07-15T07:54:05Z</time>
            </trkpt>
            <trkpt lat="46.361070" lon="11.887710">
                <time>2017-07-15T07:54:06Z</time>
            </trkpt>
            <trkpt lat="46.360980" lon="11.887520">
                <time>2017-07-15T07:54:07Z</time>
            </trkpt>
            <trkpt lat="46.360900" lon="11.887360">
                <time>2017-07-15T07:54:08Z</time>
            </trkpt>
            <trkpt lat="46.360820" lon="11.887190">
                <time>2017-07-15T07:54:09Z</time>
            </trkpt>
            <trkpt lat="46.360750" lon="11.887000">
                <time>2017-07-15T07:54:10Z</time>
            </trkpt>
            <trkpt lat="46.360690" lon="11.886830">
                <time>2017-07-15T07:54:11Z</time>
            </trkpt>
            <trkpt lat="46.360610" lon="11.886650">
                <time>2017-07-15T07:54:12Z</time>
            </trkpt>
            <trkpt lat="46.360560" lon="11.886480">
                <time>2017-07-15T07:54:13Z</time>
            </trkpt>
            <trkpt lat="46.360490" lon="11.886310">
                <time>2017-07-15T07:54:14Z</time>
            </trkpt>
            <trkpt lat="46.360420" lon="11.886120">
                <time>2017-07-15T07:54:15Z</time>
            </trkpt>
            <trkpt lat="46.360360" lon="11.885940">
                <time>2017-07-15T07:54:16Z</time>
            </trkpt>
            <trkpt lat="46.360280" lon="11.885750">
                <time>2017-07-15T07:54:17Z</time>
            </trkpt>
            <trkpt lat="46.360200" lon="11.885550">
                <time>2017-07-15T07:54:18Z</time>
            </trkpt>
            <trkpt lat="46.360130" lon="11.885360">
                <time>2017-07-15T07:54:19Z</time>
            </trkpt>
            <trkpt lat="46.360050" lon="11.885140">
                <time>2017-07-15T07:54:20Z</time>
            </trkpt>
            <trkpt lat="46.359980" lon="11.884940">
                <time>2017-07-15T07:54:21Z</time>
            </trkpt>
            <trkpt lat="46.359910" lon="11.884740">
                <time>2017-07-15T07:54:22Z</time>
            </trkpt>
            <trkpt lat="46.359830" lon="11.884530">
                <time>2017-07-15T07:54:23Z</time>
            </trkpt>
            <trkpt lat="46.359770" lon="11.884340">
                <time>2017-07-15T07:54:24Z</time>
            </trkpt>
            <trkpt lat="46.359700" lon="11.884140">
                <time>2017-07-15T07:54:25Z</time>
            </trkpt>
            <trkpt lat="46.359630" lon="11.883940">
                <time>2017-07-15T07:54:26Z</time>
            </trkpt>
            <trkpt lat="46.359550" lon="11.883740">
                <time>2017-07-15T07:54:27Z</time>
            </trkpt>
            <trkpt lat="46.359480" lon="11.883530">
                <time>2017-07-15T07:54:28Z</time>
            </trkpt>
            <trkpt lat="46.359410" lon="11.883350">
                <time>2017-07-15T07:54:29Z</time>
            </trkpt>
            <trkpt lat="46.359340" lon="11.883160">
                <time>2017-07-15T07:54:30Z</time>
            </trkpt>
            <trkpt lat="46.359260" lon="11.882970">
                <time>2017-07-15T07:54:31Z</time>
            </trkpt>
            <trkpt lat="46.359200" lon="11.882790">
                <time>2017-07-15T07:54:32Z</time>
            </trkpt>
            <trkpt lat="46.359140" lon="11.882600">
                <time>2017-07-15T07:54:33Z</time>
            </trkpt>
            <trkpt lat="46.359090" lon="11.882390">
                <time>2017-07-15T07:54:34Z</time>
            </trkpt>
            <trkpt lat="46.359050" lon="11.882220">
                <time>2017-07-15T07:54:35Z</time>
            </trkpt>
            <trkpt lat="46.359010" lon="11.882050">
                <time>2017-07-15T07:54:36Z</time>
            </trkpt>
            <trkpt lat="46.358980" lon="11.881920">
                <time>2017-07-15T07:54:37Z</time>
            </trkpt>
            <trkpt lat="46.358970" lon="11.881800">
                <time>2017-07-15T07:54:38Z</time>
            </trkpt>
            <trkpt lat="46.358960" lon="11.881680">
                <time>2017-07-15T07:54:39Z</time>
            </trkpt>
            <trkpt lat="46.358950" lon="11.881560">
                <time>2017-07-15T07:54:40Z</time>
            </trkpt>
            <trkpt lat="46.358930" lon="11.881420">
                <time>2017-07-15T07:54:41Z</time>
            </trkpt>
            <trkpt lat="46.358900" lon="11.881260">
                <time>2017-07-15T07:54:42Z</time>
            </trkpt>
            <trkpt lat="46.358890" lon="11.881090">
                <time>2017-07-15T07:54:43Z</time>
            </trkpt>
            <trkpt lat="46.358860" lon="11.880890">
                <time>2017-07-15T07:54:44Z</time>
            </trkpt>
            <trkpt lat="46.358850" lon="11.880720">
                <time>2017-07-15T07:54:45Z</time>
            </trkpt>
            <trkpt lat="46.358830" lon="11.880520">
                <time>2017-07-15T07:54:46Z</time>
            </trkpt>
            <trkpt lat="46.358810" lon="11.880320">
                <time>2017-07-15T07:54:47Z</time>
            </trkpt>
            <trkpt lat="46.358800" lon="11.880160">
                <time>2017-07-15T07:54:48Z</time>
            </trkpt>
            <trkpt lat="46.358780" lon="11.879990">
                <time>2017-07-15T07:54:49Z</time>
            </trkpt>
            <trkpt lat="46.358760" lon="11.879820">
                <time>2017-07-15T07:54:50Z</time>
            </trkpt>
            <trkpt lat="46.358750" lon="11.879680">
                <time>2017-07-15T07:54:51Z</time>
            </trkpt>
            <trkpt lat="46.358730" lon="11.879510">
                <time>2017-07-15T07:54:52Z</time>
            </trkpt>
            <trkpt lat="46.358710" lon="11.879360">
                <time>2017-07-15T07:54:53Z</time>
            </trkpt>
            <trkpt lat="46.358690" lon="11.879200">
                <time>2017-07-15T07:54:54Z</time>
            </trkpt>
            <trkpt lat="46.358680" lon="11.879020">
                <time>2017-07-15T07:54:55Z</time>
            </trkpt>
            <trkpt lat="46.358670" lon="11.878860">
                <time>2017-07-15T07:54:56Z</time>
            </trkpt>
            <trkpt lat="46.358640" lon="11.878690">
                <time>2017-07-15T07:54:57Z</time>
            </trkpt>
            <trkpt lat="46.358630" lon="11.878500">
                <time>2017-07-15T07:54:58Z</time>
            </trkpt>
            <trkpt lat="46.358610" lon="11.878330">
                <time>2017-07-15T07:54:59Z</time>
            </trkpt>
            <trkpt lat="46.358590" lon="11.878150">
                <time>2017-07-15T07:55:00Z</time>
            </trkpt>
            <trkpt lat="46.358580" lon="11.877990">
                <time>2017-07-15T07:55:01Z</time>
            </trkpt>
            <trkpt lat="46.358560" lon="11.877830">
                <time>2017-07-15T07:55:02Z</time>
            </trkpt>
            <trkpt lat="46.358560" lon="11.877660">
                <time>2017-07-15T07:55:03Z</time>
            </trkpt>
            <trkpt lat="46.358560" lon="11.877510">
                <time>2017-07-15T07:55:04Z</time>
            </trkpt>
            <trkpt lat="46.358570" lon="11.877340">
                <time>2017-07-15T07:55:05Z</time>
            </trkpt>
            <trkpt lat="46.358570" lon="11.877160">
                <time>2017-07-15T07:55:06Z</time>
            </trkpt>
            <trkpt lat="46.358580" lon="11.877010">
                <time>2017-07-15T07:55:07Z</time>
            </trkpt>
            <trkpt lat="46.358600" lon="11.876860">
                <time>2017-07-15T07:55:08Z</time>
            </trkpt>
            <trkpt lat="46.358610" lon="11.876730">
                <time>2017-07-15T07:55:09Z</time>
            </trkpt>
            <trkpt lat="46.358620" lon="11.876610">
                <time>2017-07-15T07:55:10Z</time>
            </trkpt>
            <trkpt lat="46.358630" lon="11.876490">
                <time>2017-07-15T07:55:11Z</time>
            </trkpt>
            <trkpt lat="46.358640" lon="11.876390">
                <time>2017-07-15T07:55:12Z</time>
            </trkpt>
            <trkpt lat="46.358650" lon="11.876270">
                <time>2017-07-15T07:55:13Z</time>
            </trkpt>
            <trkpt lat="46.358670" lon="11.876160">
                <time>2017-07-15T07:55:14Z</time>
            </trkpt>
            <trkpt lat="46.358680" lon="11.876060">
                <time>2017-07-15T07:55:15Z</time>
            </trkpt>
            <trkpt lat="46.358700" lon="11.875930">
                <time>2017-07-15T07:55:16Z</time>
            </trkpt>
            <trkpt lat="46.358710" lon="11.875800">
                <time>2017-07-15T07:55:17Z</time>
            </trkpt>
            <trkpt lat="46.358720" lon="11.875640">
                <time>2017-07-15T07:55:18Z</time>
            </trkpt>
            <trkpt lat="46.358740" lon="11.875470">
                <time>2017-07-15T07:55:19Z</time>
            </trkpt>
            <trkpt lat="46.358750" lon="11.875300">
                <time>2017-07-15T07:55:20Z</time>
            </trkpt>
            <trkpt lat="46.358780" lon="11.875130">
                <time>2017-07-15T07:55:21Z</time>
            </trkpt>
            <trkpt lat="46.358800" lon="11.874960">
                <time>2017-07-15T07:55:22Z</time>
            </trkpt>
            <trkpt lat="46.358820" lon="11.874810">
                <time>2017-07-15T07:55:23Z</time>
            </trkpt>
            <trkpt lat="46.358850" lon="11.874640">
                <time>2017-07-15T07:55:24Z</time>
            </trkpt>
            <trkpt lat="46.358850" lon="11.874510">
                <time>2017-07-15T07:55:25Z</time>
            </trkpt>
            <trkpt lat="46.358850" lon="11.874370">
                <time>2017-07-15T07:55:26Z</time>
            </trkpt>
            <trkpt lat="46.358840" lon="11.874220">
                <time>2017-07-15T07:55:27Z</time>
            </trkpt>
            <trkpt lat="46.358820" lon="11.874110">
                <time>2017-07-15T07:55:28Z</time>
            </trkpt>
            <trkpt lat="46.358800" lon="11.873980">
                <time>2017-07-15T07:55:29Z</time>
            </trkpt>
            <trkpt lat="46.358780" lon="11.873860">
                <time>2017-07-15T07:55:30Z</time>
            </trkpt>
            <trkpt lat="46.358750" lon="11.873740">
                <time>2017-07-15T07:55:31Z</time>
            </trkpt>
            <trkpt lat="46.358710" lon="11.873630">
                <time>2017-07-15T07:55:32Z</time>
            </trkpt>
            <trkpt lat="46.358680" lon="11.873520">
                <time>2017-07-15T07:55:33Z</time>
            </trkpt>
            <trkpt lat="46.358630" lon="11.873410">
                <time>2017-07-15T07:55:34Z</time>
            </trkpt>
            <trkpt lat="46.358570" lon="11.873300">
                <time>2017-07-15T07:55:35Z</time>
            </trkpt>
            <trkpt lat="46.358530" lon="11.873200">
                <time>2017-07-15T07:55:36Z</time>
            </trkpt>
            <trkpt lat="46.358480" lon="11.873100">
                <time>2017-07-15T07:55:37Z</time>
            </trkpt>
            <trkpt lat="46.358430" lon="11.872990">
                <time>2017-07-15T07:55:38Z</time>
            </trkpt>
            <trkpt lat="46.358390" lon="11.872910">
                <time>2017-07-15T07:55:39Z</time>
            </trkpt>
            <trkpt lat="46.358350" lon="11.872810">
                <time>2017-07-15T07:55:40Z</time>
            </trkpt>
            <trkpt lat="46.358310" lon="11.872750">
                <time>2017-07-15T07:55:41Z</time>
            </trkpt>
            <trkpt lat="46.358260" lon="11.872660">
                <time>2017-07-15T07:55:42Z</time>
            </trkpt>
            <trkpt lat="46.358220" lon="11.872570">
                <time>2017-07-15T07:55:43Z</time>
            </trkpt>
            <trkpt lat="46.358180" lon="11.872490">
                <time>2017-07-15T07:55:44Z</time>
            </trkpt>
            <trkpt lat="46.358130" lon="11.872400">
                <time>2017-07-15T07:55:45Z</time>
            </trkpt>
            <trkpt lat="46.358090" lon="11.872310">
                <time>2017-07-15T07:55:46Z</time>
            </trkpt>
            <trkpt lat="46.358050" lon="11.872230">
                <time>2017-07-15T07:55:47Z</time>
            </trkpt>
            <trkpt lat="46.358010" lon="11.872140">
                <time>2017-07-15T07:55:48Z</time>
            </trkpt>
            <trkpt lat="46.357970" lon="11.872070">
                <time>2017-07-15T07:55:49Z</time>
            </trkpt>
            <trkpt lat="46.357950" lon="11.872030">
                <time>2017-07-15T07:55:50Z</time>
            </trkpt>
            <trkpt lat="46.357930" lon="11.871990">
                <time>2017-07-15T07:55:51Z</time>
            </trkpt>
            <trkpt lat="46.357920" lon="11.871970">
                <time>2017-07-15T07:55:52Z</time>
            </trkpt>
            <trkpt lat="46.357910" lon="11.871950">
                <time>2017-07-15T07:55:53Z</time>
            </trkpt>
            <trkpt lat="46.357890" lon="11.871910">
                <time>2017-07-15T07:55:54Z</time>
            </trkpt>
            <trkpt lat="46.357870" lon="11.871860">
                <time>2017-07-15T07:55:55Z</time>
            </trkpt>
            <trkpt lat="46.357830" lon="11.871790">
                <time>2017-07-15T07:55:56Z</time>
            </trkpt>
            <trkpt lat="46.357800" lon="11.871740">
                <time>2017-07-15T07:55:57Z</time>
            </trkpt>
            <trkpt lat="46.357760" lon="11.871670">
                <time>2017-07-15T07:55:58Z</time>
            </trkpt>
            <trkpt lat="46.357720" lon="11.871600">
                <time>2017-07-15T07:55:59Z</time>
            </trkpt>
            <trkpt lat="46.357690" lon="11.871540">
                <time>2017-07-15T07:56:00Z</time>
            </trkpt>
            <trkpt lat="46.357660" lon="11.871470">
                <time>2017-07-15T07:56:01Z</time>
            </trkpt>
            <trkpt lat="46.357620" lon="11.871390">
                <time>2017-07-15T07:56:02Z</time>
            </trkpt>
            <trkpt lat="46.357580" lon="11.871320">
                <time>2017-07-15T07:56:03Z</time>
            </trkpt>
            <trkpt lat="46.357530" lon="11.871240">
                <time>2017-07-15T07:56:04Z</time>
            </trkpt>
            <trkpt lat="46.357490" lon="11.871170">
                <time>2017-07-15T07:56:05Z</time>
            </trkpt>
            <trkpt lat="46.357460" lon="11.871100">
                <time>2017-07-15T07:56:06Z</time>
            </trkpt>
            <trkpt lat="46.357410" lon="11.871030">
                <time>2017-07-15T07:56:07Z</time>
            </trkpt>
            <trkpt lat="46.357380" lon="11.870940">
                <time>2017-07-15T07:56:08Z</time>
            </trkpt>
            <trkpt lat="46.357350" lon="11.870850">
                <time>2017-07-15T07:56:09Z</time>
            </trkpt>
            <trkpt lat="46.357320" lon="11.870750">
                <time>2017-07-15T07:56:10Z</time>
            </trkpt>
            <trkpt lat="46.357290" lon="11.870660">
                <time>2017-07-15T07:56:11Z</time>
            </trkpt>
            <trkpt lat="46.357270" lon="11.870550">
                <time>2017-07-15T07:56:12Z</time>
            </trkpt>
            <trkpt lat="46.357250" lon="11.870460">
                <time>2017-07-15T07:56:13Z</time>
            </trkpt>
            <trkpt lat="46.357230" lon="11.870360">
                <time>2017-07-15T07:56:14Z</time>
            </trkpt>
            <trkpt lat="46.357200" lon="11.870260">
                <time>2017-07-15T07:56:15Z</time>
            </trkpt>
            <trkpt lat="46.357160" lon="11.870180">
                <time>2017-07-15T07:56:16Z</time>
            </trkpt>
            <trkpt lat="46.357110" lon="11.870100">
                <time>2017-07-15T07:56:17Z</time>
            </trkpt>
            <trkpt lat="46.357060" lon="11.870030">
                <time>2017-07-15T07:56:18Z</time>
            </trkpt>
            <trkpt lat="46.357000" lon="11.869960">
                <time>2017-07-15T07:56:19Z</time>
            </trkpt>
            <trkpt lat="46.356960" lon="11.869870">
                <time>2017-07-15T07:56:20Z</time>
            </trkpt>
            <trkpt lat="46.356920" lon="11.869780">
                <time>2017-07-15T07:56:21Z</time>
            </trkpt>
            <trkpt lat="46.356890" lon="11.869690">
                <time>2017-07-15T07:56:22Z</time>
            </trkpt>
            <trkpt lat="46.356880" lon="11.869600">
                <time>2017-07-15T07:56:23Z</time>
            </trkpt>
            <trkpt lat="46.356880" lon="11.869510">
                <time>2017-07-15T07:56:24Z</time>
            </trkpt>
            <trkpt lat="46.356870" lon="11.869420">
                <time>2017-07-15T07:56:25Z</time>
            </trkpt>
            <trkpt lat="46.356870" lon="11.869330">
                <time>2017-07-15T07:56:26Z</time>
            </trkpt>
            <trkpt lat="46.356870" lon="11.869240">
                <time>2017-07-15T07:56:27Z</time>
            </trkpt>
            <trkpt lat="46.356870" lon="11.869140">
                <time>2017-07-15T07:56:28Z</time>
            </trkpt>
            <trkpt lat="46.356880" lon="11.869050">
                <time>2017-07-15T07:56:29Z</time>
            </trkpt>
            <trkpt lat="46.356880" lon="11.868950">
                <time>2017-07-15T07:56:30Z</time>
            </trkpt>
            <trkpt lat="46.356880" lon="11.868860">
                <time>2017-07-15T07:56:31Z</time>
            </trkpt>
            <trkpt lat="46.356890" lon="11.868770">
                <time>2017-07-15T07:56:32Z</time>
            </trkpt>
            <trkpt lat="46.356900" lon="11.868680">
                <time>2017-07-15T07:56:33Z</time>
            </trkpt>
            <trkpt lat="46.356920" lon="11.868580">
                <time>2017-07-15T07:56:34Z</time>
            </trkpt>
            <trkpt lat="46.356930" lon="11.868480">
                <time>2017-07-15T07:56:35Z</time>
            </trkpt>
            <trkpt lat="46.356930" lon="11.868390">
                <time>2017-07-15T07:56:36Z</time>
            </trkpt>
            <trkpt lat="46.356930" lon="11.868290">
                <time>2017-07-15T07:56:37Z</time>
            </trkpt>
            <trkpt lat="46.356910" lon="11.868180">
                <time>2017-07-15T07:56:38Z</time>
            </trkpt>
            <trkpt lat="46.356900" lon="11.868080">
                <time>2017-07-15T07:56:39Z</time>
            </trkpt>
            <trkpt lat="46.356900" lon="11.868000">
                <time>2017-07-15T07:56:40Z</time>
            </trkpt>
            <trkpt lat="46.356910" lon="11.867910">
                <time>2017-07-15T07:56:41Z</time>
            </trkpt>
            <trkpt lat="46.356940" lon="11.867800">
                <time>2017-07-15T07:56:42Z</time>
            </trkpt>
            <trkpt lat="46.356960" lon="11.867710">
                <time>2017-07-15T07:56:43Z</time>
            </trkpt>
            <trkpt lat="46.356970" lon="11.867610">
                <time>2017-07-15T07:56:44Z</time>
            </trkpt>
            <trkpt lat="46.356960" lon="11.867520">
                <time>2017-07-15T07:56:45Z</time>
            </trkpt>
            <trkpt lat="46.356950" lon="11.867430">
                <time>2017-07-15T07:56:46Z</time>
            </trkpt>
            <trkpt lat="46.356910" lon="11.867340">
                <time>2017-07-15T07:56:47Z</time>
            </trkpt>
            <trkpt lat="46.356870" lon="11.867270">
                <time>2017-07-15T07:56:48Z</time>
            </trkpt>
            <trkpt lat="46.356820" lon="11.867180">
                <time>2017-07-15T07:56:49Z</time>
            </trkpt>
            <trkpt lat="46.356760" lon="11.867080">
                <time>2017-07-15T07:56:50Z</time>
            </trkpt>
            <trkpt lat="46.356720" lon="11.867000">
                <time>2017-07-15T07:56:51Z</time>
            </trkpt>
            <trkpt lat="46.356660" lon="11.866920">
                <time>2017-07-15T07:56:52Z</time>
            </trkpt>
            <trkpt lat="46.356620" lon="11.866840">
                <time>2017-07-15T07:56:53Z</time>
            </trkpt>
            <trkpt lat="46.356570" lon="11.866760">
                <time>2017-07-15T07:56:54Z</time>
            </trkpt>
            <trkpt lat="46.356520" lon="11.866670">
                <time>2017-07-15T07:56:55Z</time>
            </trkpt>
            <trkpt lat="46.356480" lon="11.866580">
                <time>2017-07-15T07:56:56Z</time>
            </trkpt>
            <trkpt lat="46.356430" lon="11.866480">
                <time>2017-07-15T07:56:57Z</time>
            </trkpt>
            <trkpt lat="46.356380" lon="11.866360">
                <time>2017-07-15T07:56:58Z</time>
            </trkpt>
            <trkpt lat="46.356350" lon="11.866240">
                <time>2017-07-15T07:56:59Z</time>
            </trkpt>
            <trkpt lat="46.356310" lon="11.866110">
                <time>2017-07-15T07:57:00Z</time>
            </trkpt>
            <trkpt lat="46.356280" lon="11.865990">
                <time>2017-07-15T07:57:01Z</time>
            </trkpt>
            <trkpt lat="46.356240" lon="11.865850">
                <time>2017-07-15T07:57:02Z</time>
            </trkpt>
            <trkpt lat="46.356210" lon="11.865700">
                <time>2017-07-15T07:57:03Z</time>
            </trkpt>
            <trkpt lat="46.356180" lon="11.865570">
                <time>2017-07-15T07:57:04Z</time>
            </trkpt>
            <trkpt lat="46.356140" lon="11.865430">
                <time>2017-07-15T07:57:05Z</time>
            </trkpt>
            <trkpt lat="46.356100" lon="11.865300">
                <time>2017-07-15T07:57:06Z</time>
            </trkpt>
            <trkpt lat="46.356060" lon="11.865160">
                <time>2017-07-15T07:57:07Z</time>
            </trkpt>
            <trkpt lat="46.356000" lon="11.865020">
                <time>2017-07-15T07:57:08Z</time>
            </trkpt>
            <trkpt lat="46.355960" lon="11.864900">
                <time>2017-07-15T07:57:09Z</time>
            </trkpt>
            <trkpt lat="46.355920" lon="11.864780">
                <time>2017-07-15T07:57:10Z</time>
            </trkpt>
            <trkpt lat="46.355860" lon="11.864640">
                <time>2017-07-15T07:57:11Z</time>
            </trkpt>
            <trkpt lat="46.355820" lon="11.864530">
                <time>2017-07-15T07:57:12Z</time>
            </trkpt>
            <trkpt lat="46.355750" lon="11.864400">
                <time>2017-07-15T07:57:13Z</time>
            </trkpt>
            <trkpt lat="46.355680" lon="11.864280">
                <time>2017-07-15T07:57:14Z</time>
            </trkpt>
            <trkpt lat="46.355620" lon="11.864170">
                <time>2017-07-15T07:57:15Z</time>
            </trkpt>
            <trkpt lat="46.355560" lon="11.864050">
                <time>2017-07-15T07:57:16Z</time>
            </trkpt>
            <trkpt lat="46.355510" lon="11.863940">
                <time>2017-07-15T07:57:17Z</time>
            </trkpt>
            <trkpt lat="46.355460" lon="11.863820">
                <time>2017-07-15T07:57:18Z</time>
            </trkpt>
            <trkpt lat="46.355420" lon="11.863670">
                <time>2017-07-15T07:57:19Z</time>
            </trkpt>
            <trkpt lat="46.355380" lon="11.863550">
                <time>2017-07-15T07:57:20Z</time>
            </trkpt>
            <trkpt lat="46.355340" lon="11.863420">
                <time>2017-07-15T07:57:21Z</time>
            </trkpt>
            <trkpt lat="46.355280" lon="11.863300">
                <time>2017-07-15T07:57:22Z</time>
            </trkpt>
            <trkpt lat="46.355200" lon="11.863210">
                <time>2017-07-15T07:57:23Z</time>
            </trkpt>
            <trkpt lat="46.355120" lon="11.863120">
                <time>2017-07-15T07:57:24Z</time>
            </trkpt>
            <trkpt lat="46.355050" lon="11.863050">
                <time>2017-07-15T07:57:25Z</time>
            </trkpt>
            <trkpt lat="46.354980" lon="11.862940">
                <time>2017-07-15T07:57:26Z</time>
            </trkpt>
            <trkpt lat="46.354940" lon="11.862810">
                <time>2017-07-15T07:57:27Z</time>
            </trkpt>
            <trkpt lat="46.354910" lon="11.862680">
                <time>2017-07-15T07:57:28Z</time>
            </trkpt>
            <trkpt lat="46.354880" lon="11.862530">
                <time>2017-07-15T07:57:29Z</time>
            </trkpt>
            <trkpt lat="46.354850" lon="11.862360">
                <time>2017-07-15T07:57:30Z</time>
            </trkpt>
            <trkpt lat="46.354810" lon="11.862230">
                <time>2017-07-15T07:57:31Z</time>
            </trkpt>
            <trkpt lat="46.354760" lon="11.862070">
                <time>2017-07-15T07:57:32Z</time>
            </trkpt>
            <trkpt lat="46.354720" lon="11.861930">
                <time>2017-07-15T07:57:33Z</time>
            </trkpt>
            <trkpt lat="46.354670" lon="11.861800">
                <time>2017-07-15T07:57:34Z</time>
            </trkpt>
            <trkpt lat="46.354620" lon="11.861670">
                <time>2017-07-15T07:57:35Z</time>
            </trkpt>
            <trkpt lat="46.354570" lon="11.861570">
                <time>2017-07-15T07:57:36Z</time>
            </trkpt>
            <trkpt lat="46.354510" lon="11.861510">
                <time>2017-07-15T07:57:37Z</time>
            </trkpt>
            <trkpt lat="46.354450" lon="11.861490">
                <time>2017-07-15T07:57:38Z</time>
            </trkpt>
            <trkpt lat="46.354400" lon="11.861500">
                <time>2017-07-15T07:57:39Z</time>
            </trkpt>
            <trkpt lat="46.354360" lon="11.861500">
                <time>2017-07-15T07:57:40Z</time>
            </trkpt>
            <trkpt lat="46.354330" lon="11.861500">
                <time>2017-07-15T07:57:41Z</time>
            </trkpt>
            <trkpt lat="46.354310" lon="11.861480">
                <time>2017-07-15T07:57:42Z</time>
            </trkpt>
            <trkpt lat="46.354310" lon="11.861450">
                <time>2017-07-15T07:57:43Z</time>
            </trkpt>
            <trkpt lat="46.354320" lon="11.861430">
                <time>2017-07-15T07:57:44Z</time>
            </trkpt>
            <trkpt lat="46.354320" lon="11.861390">
                <time>2017-07-15T07:57:45Z</time>
            </trkpt>
            <trkpt lat="46.354300" lon="11.861340">
                <time>2017-07-15T07:57:46Z</time>
            </trkpt>
            <trkpt lat="46.354280" lon="11.861280">
                <time>2017-07-15T07:57:47Z</time>
            </trkpt>
            <trkpt lat="46.354240" lon="11.861210">
                <time>2017-07-15T07:57:48Z</time>
            </trkpt>
            <trkpt lat="46.354200" lon="11.861120">
                <time>2017-07-15T07:57:49Z</time>
            </trkpt>
            <trkpt lat="46.354160" lon="11.861040">
                <time>2017-07-15T07:57:50Z</time>
            </trkpt>
            <trkpt lat="46.354120" lon="11.860960">
                <time>2017-07-15T07:57:51Z</time>
            </trkpt>
            <trkpt lat="46.354070" lon="11.860880">
                <time>2017-07-15T07:57:52Z</time>
            </trkpt>
            <trkpt lat="46.354020" lon="11.860800">
                <time>2017-07-15T07:57:53Z</time>
            </trkpt>
            <trkpt lat="46.353970" lon="11.860710">
                <time>2017-07-15T07:57:54Z</time>
            </trkpt>
            <trkpt lat="46.353920" lon="11.860610">
                <time>2017-07-15T07:57:55Z</time>
            </trkpt>
            <trkpt lat="46.353870" lon="11.860500">
                <time>2017-07-15T07:57:56Z</time>
            </trkpt>
            <trkpt lat="46.353820" lon="11.860390">
                <time>2017-07-15T07:57:57Z</time>
            </trkpt>
            <trkpt lat="46.353770" lon="11.860270">
                <time>2017-07-15T07:57:58Z</time>
            </trkpt>
            <trkpt lat="46.353720" lon="11.860140">
                <time>2017-07-15T07:57:59Z</time>
            </trkpt>
            <trkpt lat="46.353670" lon="11.860030">
                <time>2017-07-15T07:58:00Z</time>
            </trkpt>
            <trkpt lat="46.353610" lon="11.859900">
                <time>2017-07-15T07:58:01Z</time>
            </trkpt>
            <trkpt lat="46.353540" lon="11.859770">
                <time>2017-07-15T07:58:02Z</time>
            </trkpt>
            <trkpt lat="46.353480" lon="11.859660">
                <time>2017-07-15T07:58:03Z</time>
            </trkpt>
            <trkpt lat="46.353410" lon="11.859550">
                <time>2017-07-15T07:58:04Z</time>
            </trkpt>
            <trkpt lat="46.353360" lon="11.859440">
                <time>2017-07-15T07:58:05Z</time>
            </trkpt>
            <trkpt lat="46.353290" lon="11.859320">
                <time>2017-07-15T07:58:06Z</time>
            </trkpt>
            <trkpt lat="46.353230" lon="11.859200">
                <time>2017-07-15T07:58:07Z</time>
            </trkpt>
            <trkpt lat="46.353180" lon="11.859110">
                <time>2017-07-15T07:58:08Z</time>
            </trkpt>
            <trkpt lat="46.353110" lon="11.859040">
                <time>2017-07-15T07:58:09Z</time>
            </trkpt>
            <trkpt lat="46.353040" lon="11.858990">
                <time>2017-07-15T07:58:10Z</time>
            </trkpt>
            <trkpt lat="46.352980" lon="11.858920">
                <time>2017-07-15T07:58:11Z</time>
            </trkpt>
            <trkpt lat="46.352960" lon="11.858840">
                <time>2017-07-15T07:58:12Z</time>
            </trkpt>
            <trkpt lat="46.352980" lon="11.858770">
                <time>2017-07-15T07:58:13Z</time>
            </trkpt>
            <trkpt lat="46.353020" lon="11.858750">
                <time>2017-07-15T07:58:14Z</time>
            </trkpt>
            <trkpt lat="46.353070" lon="11.858770">
                <time>2017-07-15T07:58:15Z</time>
            </trkpt>
            <trkpt lat="46.353120" lon="11.858840">
                <time>2017-07-15T07:58:16Z</time>
            </trkpt>
            <trkpt lat="46.353180" lon="11.858930">
                <time>2017-07-15T07:58:17Z</time>
            </trkpt>
            <trkpt lat="46.353250" lon="11.859060">
                <time>2017-07-15T07:58:18Z</time>
            </trkpt>
            <trkpt lat="46.353310" lon="11.859170">
                <time>2017-07-15T07:58:19Z</time>
            </trkpt>
            <trkpt lat="46.353400" lon="11.859300">
                <time>2017-07-15T07:58:20Z</time>
            </trkpt>
            <trkpt lat="46.353490" lon="11.859400">
                <time>2017-07-15T07:58:21Z</time>
            </trkpt>
            <trkpt lat="46.353600" lon="11.859500">
                <time>2017-07-15T07:58:22Z</time>
            </trkpt>
            <trkpt lat="46.353730" lon="11.859590">
                <time>2017-07-15T07:58:23Z</time>
            </trkpt>
            <trkpt lat="46.353850" lon="11.859660">
                <time>2017-07-15T07:58:24Z</time>
            </trkpt>
            <trkpt lat="46.353980" lon="11.859730">
                <time>2017-07-15T07:58:25Z</time>
            </trkpt>
            <trkpt lat="46.354110" lon="11.859790">
                <time>2017-07-15T07:58:26Z</time>
            </trkpt>
            <trkpt lat="46.354240" lon="11.859870">
                <time>2017-07-15T07:58:27Z</time>
            </trkpt>
            <trkpt lat="46.354360" lon="11.859970">
                <time>2017-07-15T07:58:28Z</time>
            </trkpt>
            <trkpt lat="46.354460" lon="11.860090">
                <time>2017-07-15T07:58:29Z</time>
            </trkpt>
            <trkpt lat="46.354570" lon="11.860210">
                <time>2017-07-15T07:58:30Z</time>
            </trkpt>
            <trkpt lat="46.354700" lon="11.860310">
                <time>2017-07-15T07:58:31Z</time>
            </trkpt>
            <trkpt lat="46.354830" lon="11.860390">
                <time>2017-07-15T07:58:32Z</time>
            </trkpt>
            <trkpt lat="46.354970" lon="11.860470">
                <time>2017-07-15T07:58:33Z</time>
            </trkpt>
            <trkpt lat="46.355110" lon="11.860560">
                <time>2017-07-15T07:58:34Z</time>
            </trkpt>
            <trkpt lat="46.355240" lon="11.860660">
                <time>2017-07-15T07:58:35Z</time>
            </trkpt>
            <trkpt lat="46.355370" lon="11.860800">
                <time>2017-07-15T07:58:36Z</time>
            </trkpt>
            <trkpt lat="46.355490" lon="11.860930">
                <time>2017-07-15T07:58:37Z</time>
            </trkpt>
            <trkpt lat="46.355600" lon="11.861080">
                <time>2017-07-15T07:58:38Z</time>
            </trkpt>
            <trkpt lat="46.355730" lon="11.861240">
                <time>2017-07-15T07:58:39Z</time>
            </trkpt>
            <trkpt lat="46.355820" lon="11.861380">
                <time>2017-07-15T07:58:40Z</time>
            </trkpt>
            <trkpt lat="46.355920" lon="11.861550">
                <time>2017-07-15T07:58:41Z</time>
            </trkpt>
            <trkpt lat="46.356030" lon="11.861690">
                <time>2017-07-15T07:58:42Z</time>
            </trkpt>
            <trkpt lat="46.356130" lon="11.861850">
                <time>2017-07-15T07:58:43Z</time>
            </trkpt>
            <trkpt lat="46.356240" lon="11.862010">
                <time>2017-07-15T07:58:44Z</time>
            </trkpt>
            <trkpt lat="46.356340" lon="11.862150">
                <time>2017-07-15T07:58:45Z</time>
            </trkpt>
            <trkpt lat="46.356450" lon="11.862290">
                <time>2017-07-15T07:58:46Z</time>
            </trkpt>
            <trkpt lat="46.356570" lon="11.862420">
                <time>2017-07-15T07:58:47Z</time>
            </trkpt>
            <trkpt lat="46.356680" lon="11.862530">
                <time>2017-07-15T07:58:48Z</time>
            </trkpt>
            <trkpt lat="46.356800" lon="11.862630">
                <time>2017-07-15T07:58:49Z</time>
            </trkpt>
            <trkpt lat="46.356900" lon="11.862740">
                <time>2017-07-15T07:58:50Z</time>
            </trkpt>
            <trkpt lat="46.356970" lon="11.862830">
                <time>2017-07-15T07:58:51Z</time>
            </trkpt>
            <trkpt lat="46.357030" lon="11.862940">
                <time>2017-07-15T07:58:52Z</time>
            </trkpt>
            <trkpt lat="46.357060" lon="11.863030">
                <time>2017-07-15T07:58:53Z</time>
            </trkpt>
            <trkpt lat="46.357100" lon="11.863100">
                <time>2017-07-15T07:58:54Z</time>
            </trkpt>
            <trkpt lat="46.357150" lon="11.863160">
                <time>2017-07-15T07:58:55Z</time>
            </trkpt>
            <trkpt lat="46.357200" lon="11.863160">
                <time>2017-07-15T07:58:56Z</time>
            </trkpt>
            <trkpt lat="46.357240" lon="11.863100">
                <time>2017-07-15T07:58:57Z</time>
            </trkpt>
            <trkpt lat="46.357250" lon="11.863040">
                <time>2017-07-15T07:58:58Z</time>
            </trkpt>
            <trkpt lat="46.357210" lon="11.862930">
                <time>2017-07-15T07:58:59Z</time>
            </trkpt>
            <trkpt lat="46.357150" lon="11.862740">
                <time>2017-07-15T07:59:00Z</time>
            </trkpt>
            <trkpt lat="46.357050" lon="11.862680">
                <time>2017-07-15T07:59:01Z</time>
            </trkpt>
            <trkpt lat="46.356960" lon="11.862550">
                <time>2017-07-15T07:59:02Z</time>
            </trkpt>
            <trkpt lat="46.356880" lon="11.862420">
                <time>2017-07-15T07:59:03Z</time>
            </trkpt>
            <trkpt lat="46.356810" lon="11.862270">
                <time>2017-07-15T07:59:04Z</time>
            </trkpt>
            <trkpt lat="46.356740" lon="11.862120">
                <time>2017-07-15T07:59:05Z</time>
            </trkpt>
            <trkpt lat="46.356670" lon="11.861940">
                <time>2017-07-15T07:59:06Z</time>
            </trkpt>
            <trkpt lat="46.356610" lon="11.861790">
                <time>2017-07-15T07:59:07Z</time>
            </trkpt>
            <trkpt lat="46.356570" lon="11.861590">
                <time>2017-07-15T07:59:08Z</time>
            </trkpt>
            <trkpt lat="46.356530" lon="11.861420">
                <time>2017-07-15T07:59:09Z</time>
            </trkpt>
            <trkpt lat="46.356480" lon="11.861260">
                <time>2017-07-15T07:59:10Z</time>
            </trkpt>
            <trkpt lat="46.356410" lon="11.861120">
                <time>2017-07-15T07:59:11Z</time>
            </trkpt>
            <trkpt lat="46.356340" lon="11.861000">
                <time>2017-07-15T07:59:12Z</time>
            </trkpt>
            <trkpt lat="46.356270" lon="11.860860">
                <time>2017-07-15T07:59:13Z</time>
            </trkpt>
            <trkpt lat="46.356220" lon="11.860700">
                <time>2017-07-15T07:59:14Z</time>
            </trkpt>
            <trkpt lat="46.356180" lon="11.860530">
                <time>2017-07-15T07:59:15Z</time>
            </trkpt>
            <trkpt lat="46.356140" lon="11.860350">
                <time>2017-07-15T07:59:16Z</time>
            </trkpt>
            <trkpt lat="46.356100" lon="11.860190">
                <time>2017-07-15T07:59:17Z</time>
            </trkpt>
            <trkpt lat="46.356060" lon="11.860030">
                <time>2017-07-15T07:59:18Z</time>
            </trkpt>
            <trkpt lat="46.356010" lon="11.859880">
                <time>2017-07-15T07:59:19Z</time>
            </trkpt>
            <trkpt lat="46.355970" lon="11.859760">
                <time>2017-07-15T07:59:20Z</time>
            </trkpt>
            <trkpt lat="46.355900" lon="11.859640">
                <time>2017-07-15T07:59:21Z</time>
            </trkpt>
            <trkpt lat="46.355820" lon="11.859530">
                <time>2017-07-15T07:59:22Z</time>
            </trkpt>
            <trkpt lat="46.355750" lon="11.859430">
                <time>2017-07-15T07:59:23Z</time>
            </trkpt>
            <trkpt lat="46.355670" lon="11.859330">
                <time>2017-07-15T07:59:24Z</time>
            </trkpt>
            <trkpt lat="46.355610" lon="11.859240">
                <time>2017-07-15T07:59:25Z</time>
            </trkpt>
            <trkpt lat="46.355550" lon="11.859150">
                <time>2017-07-15T07:59:26Z</time>
            </trkpt>
            <trkpt lat="46.355510" lon="11.859070">
                <time>2017-07-15T07:59:27Z</time>
            </trkpt>
            <trkpt lat="46.355470" lon="11.859010">
                <time>2017-07-15T07:59:28Z</time>
            </trkpt>
            <trkpt lat="46.355440" lon="11.858940">
                <time>2017-07-15T07:59:29Z</time>
            </trkpt>
            <trkpt lat="46.355410" lon="11.858850">
                <time>2017-07-15T07:59:30Z</time>
            </trkpt>
            <trkpt lat="46.355380" lon="11.858770">
                <time>2017-07-15T07:59:31Z</time>
            </trkpt>
            <trkpt lat="46.355360" lon="11.858670">
                <time>2017-07-15T07:59:32Z</time>
            </trkpt>
            <trkpt lat="46.355330" lon="11.858580">
                <time>2017-07-15T07:59:33Z</time>
            </trkpt>
            <trkpt lat="46.355310" lon="11.858480">
                <time>2017-07-15T07:59:34Z</time>
            </trkpt>
            <trkpt lat="46.355290" lon="11.858390">
                <time>2017-07-15T07:59:35Z</time>
            </trkpt>
            <trkpt lat="46.355260" lon="11.858320">
                <time>2017-07-15T07:59:36Z</time>
            </trkpt>
            <trkpt lat="46.355240" lon="11.858250">
                <time>2017-07-15T07:59:37Z</time>
            </trkpt>
            <trkpt lat="46.355230" lon="11.858180">
                <time>2017-07-15T07:59:38Z</time>
            </trkpt>
            <trkpt lat="46.355220" lon="11.858130">
                <time>2017-07-15T07:59:39Z</time>
            </trkpt>
            <trkpt lat="46.355200" lon="11.858050">
                <time>2017-07-15T07:59:40Z</time>
            </trkpt>
            <trkpt lat="46.355180" lon="11.857990">
                <time>2017-07-15T07:59:41Z</time>
            </trkpt>
            <trkpt lat="46.355160" lon="11.857910">
                <time>2017-07-15T07:59:42Z</time>
            </trkpt>
            <trkpt lat="46.355130" lon="11.857820">
                <time>2017-07-15T07:59:43Z</time>
            </trkpt>
            <trkpt lat="46.355110" lon="11.857750">
                <time>2017-07-15T07:59:44Z</time>
            </trkpt>
            <trkpt lat="46.355080" lon="11.857660">
                <time>2017-07-15T07:59:45Z</time>
            </trkpt>
            <trkpt lat="46.355040" lon="11.857560">
                <time>2017-07-15T07:59:46Z</time>
            </trkpt>
            <trkpt lat="46.355000" lon="11.857460">
                <time>2017-07-15T07:59:47Z</time>
            </trkpt>
            <trkpt lat="46.354960" lon="11.857360">
                <time>2017-07-15T07:59:48Z</time>
            </trkpt>
            <trkpt lat="46.354930" lon="11.857270">
                <time>2017-07-15T07:59:49Z</time>
            </trkpt>
            <trkpt lat="46.354910" lon="11.857160">
                <time>2017-07-15T07:59:50Z</time>
            </trkpt>
            <trkpt lat="46.354870" lon="11.857040">
                <time>2017-07-15T07:59:51Z</time>
            </trkpt>
            <trkpt lat="46.354840" lon="11.856920">
                <time>2017-07-15T07:59:52Z</time>
            </trkpt>
            <trkpt lat="46.354810" lon="11.856780">
                <time>2017-07-15T07:59:53Z</time>
            </trkpt>
            <trkpt lat="46.354790" lon="11.856650">
                <time>2017-07-15T07:59:54Z</time>
            </trkpt>
            <trkpt lat="46.354790" lon="11.856530">
                <time>2017-07-15T07:59:55Z</time>
            </trkpt>
            <trkpt lat="46.354820" lon="11.856390">
                <time>2017-07-15T07:59:56Z</time>
            </trkpt>
            <trkpt lat="46.354860" lon="11.856270">
                <time>2017-07-15T07:59:57Z</time>
            </trkpt>
            <trkpt lat="46.354930" lon="11.856160">
                <time>2017-07-15T07:59:58Z</time>
            </trkpt>
            <trkpt lat="46.355020" lon="11.856050">
                <time>2017-07-15T07:59:59Z</time>
            </trkpt>
            <trkpt lat="46.355110" lon="11.855980">
                <time>2017-07-15T08:00:00Z</time>
            </trkpt>
            <trkpt lat="46.355210" lon="11.855900">
                <time>2017-07-15T08:00:01Z</time>
            </trkpt>
            <trkpt lat="46.355320" lon="11.855820">
                <time>2017-07-15T08:00:02Z</time>
            </trkpt>
            <trkpt lat="46.355430" lon="11.855740">
                <time>2017-07-15T08:00:03Z</time>
            </trkpt>
            <trkpt lat="46.355560" lon="11.855660">
                <time>2017-07-15T08:00:04Z</time>
            </trkpt>
            <trkpt lat="46.355660" lon="11.855580">
                <time>2017-07-15T08:00:05Z</time>
            </trkpt>
            <trkpt lat="46.355770" lon="11.855480">
                <time>2017-07-15T08:00:06Z</time>
            </trkpt>
            <trkpt lat="46.355890" lon="11.855380">
                <time>2017-07-15T08:00:07Z</time>
            </trkpt>
            <trkpt lat="46.355990" lon="11.855270">
                <time>2017-07-15T08:00:08Z</time>
            </trkpt>
            <trkpt lat="46.356110" lon="11.855140">
                <time>2017-07-15T08:00:09Z</time>
            </trkpt>
            <trkpt lat="46.356230" lon="11.855010">
                <time>2017-07-15T08:00:10Z</time>
            </trkpt>
            <trkpt lat="46.356350" lon="11.854880">
                <time>2017-07-15T08:00:11Z</time>
            </trkpt>
            <trkpt lat="46.356480" lon="11.854740">
                <time>2017-07-15T08:00:12Z</time>
            </trkpt>
            <trkpt lat="46.356590" lon="11.854620">
                <time>2017-07-15T08:00:13Z</time>
            </trkpt>
            <trkpt lat="46.356710" lon="11.854480">
                <time>2017-07-15T08:00:14Z</time>
            </trkpt>
            <trkpt lat="46.356840" lon="11.854330">
                <time>2017-07-15T08:00:15Z</time>
            </trkpt>
            <trkpt lat="46.356960" lon="11.854200">
                <time>2017-07-15T08:00:16Z</time>
            </trkpt>
            <trkpt lat="46.357080" lon="11.854050">
                <time>2017-07-15T08:00:17Z</time>
            </trkpt>
            <trkpt lat="46.357210" lon="11.853910">
                <time>2017-07-15T08:00:18Z</time>
            </trkpt>
            <trkpt lat="46.357340" lon="11.853770">
                <time>2017-07-15T08:00:19Z</time>
            </trkpt>
            <trkpt lat="46.357460" lon="11.853620">
                <time>2017-07-15T08:00:20Z</time>
            </trkpt>
            <trkpt lat="46.357560" lon="11.853480">
                <time>2017-07-15T08:00:21Z</time>
            </trkpt>
            <trkpt lat="46.357660" lon="11.853320">
                <time>2017-07-15T08:00:22Z</time>
            </trkpt>
            <trkpt lat="46.357750" lon="11.853140">
                <time>2017-07-15T08:00:23Z</time>
            </trkpt>
            <trkpt lat="46.357830" lon="11.852980">
                <time>2017-07-15T08:00:24Z</time>
            </trkpt>
            <trkpt lat="46.357920" lon="11.852820">
                <time>2017-07-15T08:00:25Z</time>
            </trkpt>
            <trkpt lat="46.358020" lon="11.852660">
                <time>2017-07-15T08:00:26Z</time>
            </trkpt>
            <trkpt lat="46.358130" lon="11.852550">
                <time>2017-07-15T08:00:27Z</time>
            </trkpt>
            <trkpt lat="46.358260" lon="11.852440">
                <time>2017-07-15T08:00:28Z</time>
            </trkpt>
            <trkpt lat="46.358380" lon="11.852350">
                <time>2017-07-15T08:00:29Z</time>
            </trkpt>
            <trkpt lat="46.358520" lon="11.852260">
                <time>2017-07-15T08:00:30Z</time>
            </trkpt>
            <trkpt lat="46.358670" lon="11.852160">
                <time>2017-07-15T08:00:31Z</time>
            </trkpt>
            <trkpt lat="46.358780" lon="11.852050">
                <time>2017-07-15T08:00:32Z</time>
            </trkpt>
            <trkpt lat="46.358900" lon="11.851910">
                <time>2017-07-15T08:00:33Z</time>
            </trkpt>
            <trkpt lat="46.359000" lon="11.851740">
                <time>2017-07-15T08:00:34Z</time>
            </trkpt>
            <trkpt lat="46.359100" lon="11.851570">
                <time>2017-07-15T08:00:35Z</time>
            </trkpt>
            <trkpt lat="46.359200" lon="11.851380">
                <time>2017-07-15T08:00:36Z</time>
            </trkpt>
            <trkpt lat="46.359280" lon="11.851210">
                <time>2017-07-15T08:00:37Z</time>
            </trkpt>
            <trkpt lat="46.359370" lon="11.851020">
                <time>2017-07-15T08:00:38Z</time>
            </trkpt>
            <trkpt lat="46.359450" lon="11.850830">
                <time>2017-07-15T08:00:39Z</time>
            </trkpt>
            <trkpt lat="46.359500" lon="11.850660">
                <time>2017-07-15T08:00:40Z</time>
            </trkpt>
            <trkpt lat="46.359530" lon="11.850460">
                <time>2017-07-15T08:00:41Z</time>
            </trkpt>
            <trkpt lat="46.359550" lon="11.850250">
                <time>2017-07-15T08:00:42Z</time>
            </trkpt>
            <trkpt lat="46.359560" lon="11.850060">
                <time>2017-07-15T08:00:43Z</time>
            </trkpt>
            <trkpt lat="46.359560" lon="11.849840">
                <time>2017-07-15T08:00:44Z</time>
            </trkpt>
            <trkpt lat="46.359560" lon="11.849640">
                <time>2017-07-15T08:00:45Z</time>
            </trkpt>
            <trkpt lat="46.359590" lon="11.849430">
                <time>2017-07-15T08:00:46Z</time>
            </trkpt>
            <trkpt lat="46.359630" lon="11.849220">
                <time>2017-07-15T08:00:47Z</time>
            </trkpt>
            <trkpt lat="46.359670" lon="11.849040">
                <time>2017-07-15T08:00:48Z</time>
            </trkpt>
            <trkpt lat="46.359720" lon="11.848850">
                <time>2017-07-15T08:00:49Z</time>
            </trkpt>
            <trkpt lat="46.359760" lon="11.848680">
                <time>2017-07-15T08:00:50Z</time>
            </trkpt>
            <trkpt lat="46.359810" lon="11.848510">
                <time>2017-07-15T08:00:51Z</time>
            </trkpt>
            <trkpt lat="46.359860" lon="11.848340">
                <time>2017-07-15T08:00:52Z</time>
            </trkpt>
            <trkpt lat="46.359900" lon="11.848210">
                <time>2017-07-15T08:00:53Z</time>
            </trkpt>
            <trkpt lat="46.359930" lon="11.848090">
                <time>2017-07-15T08:00:54Z</time>
            </trkpt>
            <trkpt lat="46.359960" lon="11.847990">
                <time>2017-07-15T08:00:55Z</time>
            </trkpt>
            <trkpt lat="46.359990" lon="11.847900">
                <time>2017-07-15T08:00:56Z</time>
            </trkpt>
            <trkpt lat="46.360020" lon="11.847790">
                <time>2017-07-15T08:00:57Z</time>
            </trkpt>
            <trkpt lat="46.360040" lon="11.847660">
                <time>2017-07-15T08:00:58Z</time>
            </trkpt>
            <trkpt lat="46.360050" lon="11.847540">
                <time>2017-07-15T08:00:59Z</time>
            </trkpt>
            <trkpt lat="46.360030" lon="11.847390">
                <time>2017-07-15T08:01:00Z</time>
            </trkpt>
            <trkpt lat="46.359980" lon="11.847290">
                <time>2017-07-15T08:01:01Z</time>
            </trkpt>
            <trkpt lat="46.359910" lon="11.847200">
                <time>2017-07-15T08:01:02Z</time>
            </trkpt>
            <trkpt lat="46.359800" lon="11.847150">
                <time>2017-07-15T08:01:03Z</time>
            </trkpt>
            <trkpt lat="46.359700" lon="11.847160">
                <time>2017-07-15T08:01:04Z</time>
            </trkpt>
            <trkpt lat="46.359600" lon="11.847220">
                <time>2017-07-15T08:01:05Z</time>
            </trkpt>
            <trkpt lat="46.359510" lon="11.847340">
                <time>2017-07-15T08:01:06Z</time>
            </trkpt>
            <trkpt lat="46.359440" lon="11.847480">
                <time>2017-07-15T08:01:07Z</time>
            </trkpt>
            <trkpt lat="46.359370" lon="11.847630">
                <time>2017-07-15T08:01:08Z</time>
            </trkpt>
            <trkpt lat="46.359310" lon="11.847760">
                <time>2017-07-15T08:01:09Z</time>
            </trkpt>
            <trkpt lat="46.359260" lon="11.847900">
                <time>2017-07-15T08:01:10Z</time>
            </trkpt>
            <trkpt lat="46.359210" lon="11.848020">
                <time>2017-07-15T08:01:11Z</time>
            </trkpt>
            <trkpt lat="46.359160" lon="11.848120">
                <time>2017-07-15T08:01:12Z</time>
            </trkpt>
            <trkpt lat="46.359100" lon="11.848200">
                <time>2017-07-15T08:01:13Z</time>
            </trkpt>
            <trkpt lat="46.359030" lon="11.848260">
                <time>2017-07-15T08:01:14Z</time>
            </trkpt>
            <trkpt lat="46.358960" lon="11.848270">
                <time>2017-07-15T08:01:15Z</time>
            </trkpt>
            <trkpt lat="46.358890" lon="11.848240">
                <time>2017-07-15T08:01:16Z</time>
            </trkpt>
            <trkpt lat="46.358850" lon="11.848160">
                <time>2017-07-15T08:01:17Z</time>
            </trkpt>
            <trkpt lat="46.358830" lon="11.848050">
                <time>2017-07-15T08:01:18Z</time>
            </trkpt>
            <trkpt lat="46.358830" lon="11.847910">
                <time>2017-07-15T08:01:19Z</time>
            </trkpt>
            <trkpt lat="46.358880" lon="11.847770">
                <time>2017-07-15T08:01:20Z</time>
            </trkpt>
            <trkpt lat="46.358960" lon="11.847620">
                <time>2017-07-15T08:01:21Z</time>
            </trkpt>
            <trkpt lat="46.359070" lon="11.847460">
                <time>2017-07-15T08:01:22Z</time>
            </trkpt>
            <trkpt lat="46.359190" lon="11.847290">
                <time>2017-07-15T08:01:23Z</time>
            </trkpt>
            <trkpt lat="46.359320" lon="11.847110">
                <time>2017-07-15T08:01:24Z</time>
            </trkpt>
            <trkpt lat="46.359450" lon="11.846950">
                <time>2017-07-15T08:01:25Z</time>
            </trkpt>
            <trkpt lat="46.359580" lon="11.846770">
                <time>2017-07-15T08:01:26Z</time>
            </trkpt>
            <trkpt lat="46.359720" lon="11.846570">
                <time>2017-07-15T08:01:27Z</time>
            </trkpt>
            <trkpt lat="46.359840" lon="11.846400">
                <time>2017-07-15T08:01:28Z</time>
            </trkpt>
            <trkpt lat="46.359970" lon="11.846200">
                <time>2017-07-15T08:01:29Z</time>
            </trkpt>
            <trkpt lat="46.360100" lon="11.845980">
                <time>2017-07-15T08:01:30Z</time>
            </trkpt>
            <trkpt lat="46.360200" lon="11.845760">
                <time>2017-07-15T08:01:31Z</time>
            </trkpt>
            <trkpt lat="46.360300" lon="11.845500">
                <time>2017-07-15T08:01:32Z</time>
            </trkpt>
            <trkpt lat="46.360370" lon="11.845260">
                <time>2017-07-15T08:01:33Z</time>
            </trkpt>
            <trkpt lat="46.360430" lon="11.845020">
                <time>2017-07-15T08:01:34Z</time>
            </trkpt>
            <trkpt lat="46.360490" lon="11.844790">
                <time>2017-07-15T08:01:35Z</time>
            </trkpt>
            <trkpt lat="46.360560" lon="11.844610">
                <time>2017-07-15T08:01:36Z</time>
            </trkpt>
            <trkpt lat="46.360640" lon="11.844450">
                <time>2017-07-15T08:01:37Z</time>
            </trkpt>
            <trkpt lat="46.360730" lon="11.844300">
                <time>2017-07-15T08:01:38Z</time>
            </trkpt>
            <trkpt lat="46.360830" lon="11.844190">
                <time>2017-07-15T08:01:39Z</time>
            </trkpt>
            <trkpt lat="46.360930" lon="11.844080">
                <time>2017-07-15T08:01:40Z</time>
            </trkpt>
            <trkpt lat="46.361000" lon="11.843990">
                <time>2017-07-15T08:01:41Z</time>
            </trkpt>
            <trkpt lat="46.361050" lon="11.843880">
                <time>2017-07-15T08:01:42Z</time>
            </trkpt>
            <trkpt lat="46.361080" lon="11.843770">
                <time>2017-07-15T08:01:43Z</time>
            </trkpt>
            <trkpt lat="46.361080" lon="11.843640">
                <time>2017-07-15T08:01:44Z</time>
            </trkpt>
            <trkpt lat="46.361040" lon="11.843530">
                <time>2017-07-15T08:01:45Z</time>
            </trkpt>
            <trkpt lat="46.360970" lon="11.843480">
                <time>2017-07-15T08:01:46Z</time>
            </trkpt>
            <trkpt lat="46.360860" lon="11.843560">
                <time>2017-07-15T08:01:47Z</time>
            </trkpt>
            <trkpt lat="46.360770" lon="11.843720">
                <time>2017-07-15T08:01:48Z</time>
            </trkpt>
            <trkpt lat="46.360700" lon="11.843920">
                <time>2017-07-15T08:01:49Z</time>
            </trkpt>
            <trkpt lat="46.360620" lon="11.844070">
                <time>2017-07-15T08:01:50Z</time>
            </trkpt>
            <trkpt lat="46.360550" lon="11.844230">
                <time>2017-07-15T08:01:51Z</time>
            </trkpt>
            <trkpt lat="46.360470" lon="11.844350">
                <time>2017-07-15T08:01:52Z</time>
            </trkpt>
            <trkpt lat="46.360390" lon="11.844450">
                <time>2017-07-15T08:01:53Z</time>
            </trkpt>
            <trkpt lat="46.360320" lon="11.844550">
                <time>2017-07-15T08:01:54Z</time>
            </trkpt>
            <trkpt lat="46.360240" lon="11.844610">
                <time>2017-07-15T08:01:55Z</time>
            </trkpt>
            <trkpt lat="46.360150" lon="11.844660">
                <time>2017-07-15T08:01:56Z</time>
            </trkpt>
            <trkpt lat="46.360080" lon="11.844710">
                <time>2017-07-15T08:01:57Z</time>
            </trkpt>
            <trkpt lat="46.360000" lon="11.844800">
                <time>2017-07-15T08:01:58Z</time>
            </trkpt>
            <trkpt lat="46.359910" lon="11.844890">
                <time>2017-07-15T08:01:59Z</time>
            </trkpt>
            <trkpt lat="46.359830" lon="11.845000">
                <time>2017-07-15T08:02:00Z</time>
            </trkpt>
            <trkpt lat="46.359750" lon="11.845110">
                <time>2017-07-15T08:02:01Z</time>
            </trkpt>
            <trkpt lat="46.359650" lon="11.845210">
                <time>2017-07-15T08:02:02Z</time>
            </trkpt>
            <trkpt lat="46.359560" lon="11.845290">
                <time>2017-07-15T08:02:03Z</time>
            </trkpt>
            <trkpt lat="46.359440" lon="11.845380">
                <time>2017-07-15T08:02:04Z</time>
            </trkpt>
            <trkpt lat="46.359340" lon="11.845450">
                <time>2017-07-15T08:02:05Z</time>
            </trkpt>
            <trkpt lat="46.359250" lon="11.845550">
                <time>2017-07-15T08:02:06Z</time>
            </trkpt>
            <trkpt lat="46.359170" lon="11.845640">
                <time>2017-07-15T08:02:07Z</time>
            </trkpt>
            <trkpt lat="46.359130" lon="11.845780">
                <time>2017-07-15T08:02:08Z</time>
            </trkpt>
            <trkpt lat="46.359080" lon="11.845940">
                <time>2017-07-15T08:02:09Z</time>
            </trkpt>
            <trkpt lat="46.359010" lon="11.846070">
                <time>2017-07-15T08:02:10Z</time>
            </trkpt>
            <trkpt lat="46.358930" lon="11.846160">
                <time>2017-07-15T08:02:11Z</time>
            </trkpt>
            <trkpt lat="46.358830" lon="11.846200">
                <time>2017-07-15T08:02:12Z</time>
            </trkpt>
            <trkpt lat="46.358740" lon="11.846210">
                <time>2017-07-15T08:02:13Z</time>
            </trkpt>
            <trkpt lat="46.358640" lon="11.846230">
                <time>2017-07-15T08:02:14Z</time>
            </trkpt>
            <trkpt lat="46.358540" lon="11.846280">
                <time>2017-07-15T08:02:15Z</time>
            </trkpt>
            <trkpt lat="46.358460" lon="11.846330">
                <time>2017-07-15T08:02:16Z</time>
            </trkpt>
            <trkpt lat="46.358370" lon="11.846350">
                <time>2017-07-15T08:02:17Z</time>
            </trkpt>
            <trkpt lat="46.358270" lon="11.846320">
                <time>2017-07-15T08:02:18Z</time>
            </trkpt>
            <trkpt lat="46.358180" lon="11.846260">
                <time>2017-07-15T08:02:19Z</time>
            </trkpt>
            <trkpt lat="46.358080" lon="11.846230">
                <time>2017-07-15T08:02:20Z</time>
            </trkpt>
            <trkpt lat="46.357980" lon="11.846250">
                <time>2017-07-15T08:02:21Z</time>
            </trkpt>
            <trkpt lat="46.357880" lon="11.846310">
                <time>2017-07-15T08:02:22Z</time>
            </trkpt>
            <trkpt lat="46.357780" lon="11.846430">
                <time>2017-07-15T08:02:23Z</time>
            </trkpt>
            <trkpt lat="46.357680" lon="11.846550">
                <time>2017-07-15T08:02:24Z</time>
            </trkpt>
            <trkpt lat="46.357580" lon="11.846690">
                <time>2017-07-15T08:02:25Z</time>
            </trkpt>
            <trkpt lat="46.357480" lon="11.846840">
                <time>2017-07-15T08:02:26Z</time>
            </trkpt>
            <trkpt lat="46.357390" lon="11.847000">
                <time>2017-07-15T08:02:27Z</time>
            </trkpt>
            <trkpt lat="46.357290" lon="11.847160">
                <time>2017-07-15T08:02:28Z</time>
            </trkpt>
            <trkpt lat="46.357210" lon="11.847300">
                <time>2017-07-15T08:02:29Z</time>
            </trkpt>
            <trkpt lat="46.357100" lon="11.847450">
                <time>2017-07-15T08:02:30Z</time>
            </trkpt>
            <trkpt lat="46.356970" lon="11.847580">
                <time>2017-07-15T08:02:31Z</time>
            </trkpt>
            <trkpt lat="46.356850" lon="11.847690">
                <time>2017-07-15T08:02:32Z</time>
            </trkpt>
            <trkpt lat="46.356710" lon="11.847800">
                <time>2017-07-15T08:02:33Z</time>
            </trkpt>
            <trkpt lat="46.356570" lon="11.847940">
                <time>2017-07-15T08:02:34Z</time>
            </trkpt>
            <trkpt lat="46.356460" lon="11.848080">
                <time>2017-07-15T08:02:35Z</time>
            </trkpt>
            <trkpt lat="46.356340" lon="11.848280">
                <time>2017-07-15T08:02:36Z</time>
            </trkpt>
            <trkpt lat="46.356230" lon="11.848430">
                <time>2017-07-15T08:02:37Z</time>
            </trkpt>
            <trkpt lat="46.356110" lon="11.848590">
                <time>2017-07-15T08:02:38Z</time>
            </trkpt>
            <trkpt lat="46.355990" lon="11.848720">
                <time>2017-07-15T08:02:39Z</time>
            </trkpt>
            <trkpt lat="46.355880" lon="11.848800">
                <time>2017-07-15T08:02:40Z</time>
            </trkpt>
            <trkpt lat="46.355750" lon="11.848890">
                <time>2017-07-15T08:02:41Z</time>
            </trkpt>
            <trkpt lat="46.355610" lon="11.848980">
                <time>2017-07-15T08:02:42Z</time>
            </trkpt>
            <trkpt lat="46.355480" lon="11.849070">
                <time>2017-07-15T08:02:43Z</time>
            </trkpt>
            <trkpt lat="46.355340" lon="11.849160">
                <time>2017-07-15T08:02:44Z</time>
            </trkpt>
            <trkpt lat="46.355220" lon="11.849230">
                <time>2017-07-15T08:02:45Z</time>
            </trkpt>
            <trkpt lat="46.355110" lon="11.849270">
                <time>2017-07-15T08:02:46Z</time>
            </trkpt>
            <trkpt lat="46.355000" lon="11.849300">
                <time>2017-07-15T08:02:47Z</time>
            </trkpt>
            <trkpt lat="46.354900" lon="11.849270">
                <time>2017-07-15T08:02:48Z</time>
            </trkpt>
            <trkpt lat="46.354830" lon="11.849150">
                <time>2017-07-15T08:02:49Z</time>
            </trkpt>
            <trkpt lat="46.354720" lon="11.849040">
                <time>2017-07-15T08:02:50Z</time>
            </trkpt>
            <trkpt lat="46.354630" lon="11.848940">
                <time>2017-07-15T08:02:51Z</time>
            </trkpt>
            <trkpt lat="46.354510" lon="11.848840">
                <time>2017-07-15T08:02:52Z</time>
            </trkpt>
            <trkpt lat="46.354420" lon="11.848700">
                <time>2017-07-15T08:02:53Z</time>
            </trkpt>
            <trkpt lat="46.354330" lon="11.848550">
                <time>2017-07-15T08:02:54Z</time>
            </trkpt>
            <trkpt lat="46.354220" lon="11.848410">
                <time>2017-07-15T08:02:55Z</time>
            </trkpt>
            <trkpt lat="46.354110" lon="11.848310">
                <time>2017-07-15T08:02:56Z</time>
            </trkpt>
            <trkpt lat="46.353980" lon="11.848210">
                <time>2017-07-15T08:02:57Z</time>
            </trkpt>
            <trkpt lat="46.353870" lon="11.848120">
                <time>2017-07-15T08:02:58Z</time>
            </trkpt>
            <trkpt lat="46.353770" lon="11.848050">
                <time>2017-07-15T08:02:59Z</time>
            </trkpt>
            <trkpt lat="46.353670" lon="11.848000">
                <time>2017-07-15T08:03:00Z</time>
            </trkpt>
            <trkpt lat="46.353580" lon="11.847980">
                <time>2017-07-15T08:03:01Z</time>
            </trkpt>
            <trkpt lat="46.353490" lon="11.848030">
                <time>2017-07-15T08:03:02Z</time>
            </trkpt>
            <trkpt lat="46.353410" lon="11.848130">
                <time>2017-07-15T08:03:03Z</time>
            </trkpt>
            <trkpt lat="46.353400" lon="11.848320">
                <time>2017-07-15T08:03:04Z</time>
            </trkpt>
            <trkpt lat="46.353350" lon="11.848470">
                <time>2017-07-15T08:03:05Z</time>
            </trkpt>
            <trkpt lat="46.353260" lon="11.848580">
                <time>2017-07-15T08:03:06Z</time>
            </trkpt>
            <trkpt lat="46.353150" lon="11.848630">
                <time>2017-07-15T08:03:07Z</time>
            </trkpt>
            <trkpt lat="46.353040" lon="11.848700">
                <time>2017-07-15T08:03:08Z</time>
            </trkpt>
            <trkpt lat="46.352930" lon="11.848730">
                <time>2017-07-15T08:03:09Z</time>
            </trkpt>
            <trkpt lat="46.352840" lon="11.848730">
                <time>2017-07-15T08:03:10Z</time>
            </trkpt>
            <trkpt lat="46.352770" lon="11.848660">
                <time>2017-07-15T08:03:11Z</time>
            </trkpt>
            <trkpt lat="46.352710" lon="11.848590">
                <time>2017-07-15T08:03:12Z</time>
            </trkpt>
            <trkpt lat="46.352620" lon="11.848500">
                <time>2017-07-15T08:03:13Z</time>
            </trkpt>
            <trkpt lat="46.352520" lon="11.848430">
                <time>2017-07-15T08:03:14Z</time>
            </trkpt>
            <trkpt lat="46.352410" lon="11.848380">
                <time>2017-07-15T08:03:15Z</time>
            </trkpt>
            <trkpt lat="46.352290" lon="11.848350">
                <time>2017-07-15T08:03:16Z</time>
            </trkpt>
            <trkpt lat="46.352190" lon="11.848360">
                <time>2017-07-15T08:03:17Z</time>
            </trkpt>
            <trkpt lat="46.352100" lon="11.848430">
                <time>2017-07-15T08:03:18Z</time>
            </trkpt>
            <trkpt lat="46.352010" lon="11.848600">
                <time>2017-07-15T08:03:19Z</time>
            </trkpt>
            <trkpt lat="46.351910" lon="11.848740">
                <time>2017-07-15T08:03:20Z</time>
            </trkpt>
            <trkpt lat="46.351800" lon="11.848870">
                <time>2017-07-15T08:03:21Z</time>
            </trkpt>
            <trkpt lat="46.351670" lon="11.848990">
                <time>2017-07-15T08:03:22Z</time>
            </trkpt>
            <trkpt lat="46.351550" lon="11.849080">
                <time>2017-07-15T08:03:23Z</time>
            </trkpt>
            <trkpt lat="46.351410" lon="11.849130">
                <time>2017-07-15T08:03:24Z</time>
            </trkpt>
            <trkpt lat="46.351280" lon="11.849140">
                <time>2017-07-15T08:03:25Z</time>
            </trkpt>
            <trkpt lat="46.351150" lon="11.849120">
                <time>2017-07-15T08:03:26Z</time>
            </trkpt>
            <trkpt lat="46.351010" lon="11.849070">
                <time>2017-07-15T08:03:27Z</time>
            </trkpt>
            <trkpt lat="46.350880" lon="11.849030">
                <time>2017-07-15T08:03:28Z</time>
            </trkpt>
            <trkpt lat="46.350740" lon="11.848980">
                <time>2017-07-15T08:03:29Z</time>
            </trkpt>
            <trkpt lat="46.350590" lon="11.848940">
                <time>2017-07-15T08:03:30Z</time>
            </trkpt>
            <trkpt lat="46.350450" lon="11.848890">
                <time>2017-07-15T08:03:31Z</time>
            </trkpt>
            <trkpt lat="46.350300" lon="11.848850">
                <time>2017-07-15T08:03:32Z</time>
            </trkpt>
            <trkpt lat="46.350180" lon="11.848780">
                <time>2017-07-15T08:03:33Z</time>
            </trkpt>
            <trkpt lat="46.350070" lon="11.848700">
                <time>2017-07-15T08:03:34Z</time>
            </trkpt>
            <trkpt lat="46.349950" lon="11.848590">
                <time>2017-07-15T08:03:35Z</time>
            </trkpt>
            <trkpt lat="46.349850" lon="11.848490">
                <time>2017-07-15T08:03:36Z</time>
            </trkpt>
            <trkpt lat="46.349740" lon="11.848370">
                <time>2017-07-15T08:03:37Z</time>
            </trkpt>
            <trkpt lat="46.349620" lon="11.848250">
                <time>2017-07-15T08:03:38Z</time>
            </trkpt>
            <trkpt lat="46.349530" lon="11.848140">
                <time>2017-07-15T08:03:39Z</time>
            </trkpt>
            <trkpt lat="46.349450" lon="11.848030">
                <time>2017-07-15T08:03:40Z</time>
            </trkpt>
            <trkpt lat="46.349400" lon="11.847930">
                <time>2017-07-15T08:03:41Z</time>
            </trkpt>
            <trkpt lat="46.349370" lon="11.847840">
                <time>2017-07-15T08:03:42Z</time>
            </trkpt>
            <trkpt lat="46.349370" lon="11.847730">
                <time>2017-07-15T08:03:43Z</time>
            </trkpt>
            <trkpt lat="46.349410" lon="11.847650">
                <time>2017-07-15T08:03:44Z</time>
            </trkpt>
            <trkpt lat="46.349480" lon="11.847600">
                <time>2017-07-15T08:03:45Z</time>
            </trkpt>
            <trkpt lat="46.349570" lon="11.847560">
                <time>2017-07-15T08:03:46Z</time>
            </trkpt>
            <trkpt lat="46.349670" lon="11.847510">
                <time>2017-07-15T08:03:47Z</time>
            </trkpt>
            <trkpt lat="46.349800" lon="11.847460">
                <time>2017-07-15T08:03:48Z</time>
            </trkpt>
            <trkpt lat="46.349930" lon="11.847410">
                <time>2017-07-15T08:03:49Z</time>
            </trkpt>
            <trkpt lat="46.350060" lon="11.847340">
                <time>2017-07-15T08:03:50Z</time>
            </trkpt>
            <trkpt lat="46.350210" lon="11.847260">
                <time>2017-07-15T08:03:51Z</time>
            </trkpt>
            <trkpt lat="46.350360" lon="11.847200">
                <time>2017-07-15T08:03:52Z</time>
            </trkpt>
            <trkpt lat="46.350510" lon="11.847140">
                <time>2017-07-15T08:03:53Z</time>
            </trkpt>
            <trkpt lat="46.350670" lon="11.847080">
                <time>2017-07-15T08:03:54Z</time>
            </trkpt>
            <trkpt lat="46.350810" lon="11.847010">
                <time>2017-07-15T08:03:55Z</time>
            </trkpt>
            <trkpt lat="46.350970" lon="11.846960">
                <time>2017-07-15T08:03:56Z</time>
            </trkpt>
            <trkpt lat="46.351110" lon="11.846920">
                <time>2017-07-15T08:03:57Z</time>
            </trkpt>
            <trkpt lat="46.351240" lon="11.846900">
                <time>2017-07-15T08:03:58Z</time>
            </trkpt>
            <trkpt lat="46.351370" lon="11.846880">
                <time>2017-07-15T08:03:59Z</time>
            </trkpt>
            <trkpt lat="46.351470" lon="11.846880">
                <time>2017-07-15T08:04:00Z</time>
            </trkpt>
            <trkpt lat="46.351560" lon="11.846890">
                <time>2017-07-15T08:04:01Z</time>
            </trkpt>
            <trkpt lat="46.351640" lon="11.846900">
                <time>2017-07-15T08:04:02Z</time>
            </trkpt>
            <trkpt lat="46.351710" lon="11.846870">
                <time>2017-07-15T08:04:03Z</time>
            </trkpt>
            <trkpt lat="46.351730" lon="11.846770">
                <time>2017-07-15T08:04:04Z</time>
            </trkpt>
            <trkpt lat="46.351750" lon="11.846690">
                <time>2017-07-15T08:04:05Z</time>
            </trkpt>
            <trkpt lat="46.351720" lon="11.846590">
                <time>2017-07-15T08:04:06Z</time>
            </trkpt>
            <trkpt lat="46.351640" lon="11.846550">
                <time>2017-07-15T08:04:07Z</time>
            </trkpt>
            <trkpt lat="46.351480" lon="11.846660">
                <time>2017-07-15T08:04:08Z</time>
            </trkpt>
            <trkpt lat="46.351350" lon="11.846680">
                <time>2017-07-15T08:04:09Z</time>
            </trkpt>
            <trkpt lat="46.351210" lon="11.846690">
                <time>2017-07-15T08:04:10Z</time>
            </trkpt>
            <trkpt lat="46.351070" lon="11.846670">
                <time>2017-07-15T08:04:11Z</time>
            </trkpt>
            <trkpt lat="46.350930" lon="11.846610">
                <time>2017-07-15T08:04:12Z</time>
            </trkpt>
            <trkpt lat="46.350800" lon="11.846540">
                <time>2017-07-15T08:04:13Z</time>
            </trkpt>
            <trkpt lat="46.350660" lon="11.846440">
                <time>2017-07-15T08:04:14Z</time>
            </trkpt>
            <trkpt lat="46.350520" lon="11.846330">
                <time>2017-07-15T08:04:15Z</time>
            </trkpt>
            <trkpt lat="46.350390" lon="11.846220">
                <time>2017-07-15T08:04:16Z</time>
            </trkpt>
            <trkpt lat="46.350250" lon="11.846090">
                <time>2017-07-15T08:04:17Z</time>
            </trkpt>
            <trkpt lat="46.350120" lon="11.845960">
                <time>2017-07-15T08:04:18Z</time>
            </trkpt>
            <trkpt lat="46.349960" lon="11.845830">
                <time>2017-07-15T08:04:19Z</time>
            </trkpt>
            <trkpt lat="46.349810" lon="11.845660">
                <time>2017-07-15T08:04:20Z</time>
            </trkpt>
            <trkpt lat="46.349670" lon="11.845510">
                <time>2017-07-15T08:04:21Z</time>
            </trkpt>
            <trkpt lat="46.349520" lon="11.845330">
                <time>2017-07-15T08:04:22Z</time>
            </trkpt>
            <trkpt lat="46.349370" lon="11.845140">
                <time>2017-07-15T08:04:23Z</time>
            </trkpt>
            <trkpt lat="46.349240" lon="11.844960">
                <time>2017-07-15T08:04:24Z</time>
            </trkpt>
            <trkpt lat="46.349110" lon="11.844780">
                <time>2017-07-15T08:04:25Z</time>
            </trkpt>
            <trkpt lat="46.348960" lon="11.844600">
                <time>2017-07-15T08:04:26Z</time>
            </trkpt>
            <trkpt lat="46.348850" lon="11.844440">
                <time>2017-07-15T08:04:27Z</time>
            </trkpt>
            <trkpt lat="46.348710" lon="11.844270">
                <time>2017-07-15T08:04:28Z</time>
            </trkpt>
            <trkpt lat="46.348580" lon="11.844100">
                <time>2017-07-15T08:04:29Z</time>
            </trkpt>
            <trkpt lat="46.348440" lon="11.843920">
                <time>2017-07-15T08:04:30Z</time>
            </trkpt>
            <trkpt lat="46.348290" lon="11.843750">
                <time>2017-07-15T08:04:31Z</time>
            </trkpt>
            <trkpt lat="46.348160" lon="11.843610">
                <time>2017-07-15T08:04:32Z</time>
            </trkpt>
            <trkpt lat="46.348020" lon="11.843450">
                <time>2017-07-15T08:04:33Z</time>
            </trkpt>
            <trkpt lat="46.347880" lon="11.843310">
                <time>2017-07-15T08:04:34Z</time>
            </trkpt>
            <trkpt lat="46.347750" lon="11.843210">
                <time>2017-07-15T08:04:35Z</time>
            </trkpt>
            <trkpt lat="46.347610" lon="11.843120">
                <time>2017-07-15T08:04:36Z</time>
            </trkpt>
            <trkpt lat="46.347480" lon="11.843070">
                <time>2017-07-15T08:04:37Z</time>
            </trkpt>
            <trkpt lat="46.347340" lon="11.843000">
                <time>2017-07-15T08:04:38Z</time>
            </trkpt>
            <trkpt lat="46.347200" lon="11.842930">
                <time>2017-07-15T08:04:39Z</time>
            </trkpt>
            <trkpt lat="46.347100" lon="11.842840">
                <time>2017-07-15T08:04:40Z</time>
            </trkpt>
            <trkpt lat="46.346980" lon="11.842720">
                <time>2017-07-15T08:04:41Z</time>
            </trkpt>
            <trkpt lat="46.346860" lon="11.842570">
                <time>2017-07-15T08:04:42Z</time>
            </trkpt>
            <trkpt lat="46.346750" lon="11.842390">
                <time>2017-07-15T08:04:43Z</time>
            </trkpt>
            <trkpt lat="46.346610" lon="11.842170">
                <time>2017-07-15T08:04:44Z</time>
            </trkpt>
            <trkpt lat="46.346490" lon="11.841960">
                <time>2017-07-15T08:04:45Z</time>
            </trkpt>
            <trkpt lat="46.346350" lon="11.841730">
                <time>2017-07-15T08:04:46Z</time>
            </trkpt>
            <trkpt lat="46.346220" lon="11.841490">
                <time>2017-07-15T08:04:47Z</time>
            </trkpt>
            <trkpt lat="46.346100" lon="11.841300">
                <time>2017-07-15T08:04:48Z</time>
            </trkpt>
            <trkpt lat="46.345990" lon="11.841110">
                <time>2017-07-15T08:04:49Z</time>
            </trkpt>
            <trkpt lat="46.345880" lon="11.840930">
                <time>2017-07-15T08:04:50Z</time>
            </trkpt>
            <trkpt lat="46.345780" lon="11.840750">
                <time>2017-07-15T08:04:51Z</time>
            </trkpt>
            <trkpt lat="46.345680" lon="11.840590">
                <time>2017-07-15T08:04:52Z</time>
            </trkpt>
            <trkpt lat="46.345590" lon="11.840430">
                <time>2017-07-15T08:04:53Z</time>
            </trkpt>
            <trkpt lat="46.345500" lon="11.840250">
                <time>2017-07-15T08:04:54Z</time>
            </trkpt>
            <trkpt lat="46.345410" lon="11.840040">
                <time>2017-07-15T08:04:55Z</time>
            </trkpt>
            <trkpt lat="46.345320" lon="11.839820">
                <time>2017-07-15T08:04:56Z</time>
            </trkpt>
            <trkpt lat="46.345240" lon="11.839570">
                <time>2017-07-15T08:04:57Z</time>
            </trkpt>
            <trkpt lat="46.345150" lon="11.839280">
                <time>2017-07-15T08:04:58Z</time>
            </trkpt>
            <trkpt lat="46.345080" lon="11.839030">
                <time>2017-07-15T08:04:59Z</time>
            </trkpt>
            <trkpt lat="46.344990" lon="11.838740">
                <time>2017-07-15T08:05:00Z</time>
            </trkpt>
            <trkpt lat="46.344900" lon="11.838500">
                <time>2017-07-15T08:05:01Z</time>
            </trkpt>
            <trkpt lat="46.344790" lon="11.838260">
                <time>2017-07-15T08:05:02Z</time>
            </trkpt>
            <trkpt lat="46.344680" lon="11.838020">
                <time>2017-07-15T08:05:03Z</time>
            </trkpt>
            <trkpt lat="46.344580" lon="11.837820">
                <time>2017-07-15T08:05:04Z</time>
            </trkpt>
            <trkpt lat="46.344470" lon="11.837590">
                <time>2017-07-15T08:05:05Z</time>
            </trkpt>
            <trkpt lat="46.344360" lon="11.837370">
                <time>2017-07-15T08:05:06Z</time>
            </trkpt>
            <trkpt lat="46.344260" lon="11.837140">
                <time>2017-07-15T08:05:07Z</time>
            </trkpt>
            <trkpt lat="46.344140" lon="11.836900">
                <time>2017-07-15T08:05:08Z</time>
            </trkpt>
            <trkpt lat="46.344030" lon="11.836690">
                <time>2017-07-15T08:05:09Z</time>
            </trkpt>
            <trkpt lat="46.343920" lon="11.836470">
                <time>2017-07-15T08:05:10Z</time>
            </trkpt>
            <trkpt lat="46.343800" lon="11.836250">
                <time>2017-07-15T08:05:11Z</time>
            </trkpt>
            <trkpt lat="46.343710" lon="11.836060">
                <time>2017-07-15T08:05:12Z</time>
            </trkpt>
            <trkpt lat="46.343620" lon="11.835830">
                <time>2017-07-15T08:05:13Z</time>
            </trkpt>
            <trkpt lat="46.343530" lon="11.835600">
                <time>2017-07-15T08:05:14Z</time>
            </trkpt>
            <trkpt lat="46.343470" lon="11.835400">
                <time>2017-07-15T08:05:15Z</time>
            </trkpt>
            <trkpt lat="46.343400" lon="11.835190">
                <time>2017-07-15T08:05:16Z</time>
            </trkpt>
            <trkpt lat="46.343330" lon="11.835020">
                <time>2017-07-15T08:05:17Z</time>
            </trkpt>
            <trkpt lat="46.343260" lon="11.834840">
                <time>2017-07-15T08:05:18Z</time>
            </trkpt>
            <trkpt lat="46.343190" lon="11.834640">
                <time>2017-07-15T08:05:19Z</time>
            </trkpt>
            <trkpt lat="46.343120" lon="11.834470">
                <time>2017-07-15T08:05:20Z</time>
            </trkpt>
            <trkpt lat="46.343040" lon="11.834290">
                <time>2017-07-15T08:05:21Z</time>
            </trkpt>
            <trkpt lat="46.342960" lon="11.834110">
                <time>2017-07-15T08:05:22Z</time>
            </trkpt>
            <trkpt lat="46.342870" lon="11.833920">
                <time>2017-07-15T08:05:23Z</time>
            </trkpt>
            <trkpt lat="46.342790" lon="11.833740">
                <time>2017-07-15T08:05:24Z</time>
            </trkpt>
            <trkpt lat="46.342710" lon="11.833600">
                <time>2017-07-15T08:05:25Z</time>
            </trkpt>
            <trkpt lat="46.342640" lon="11.833470">
                <time>2017-07-15T08:05:26Z</time>
            </trkpt>
            <trkpt lat="46.342580" lon="11.833330">
                <time>2017-07-15T08:05:27Z</time>
            </trkpt>
            <trkpt lat="46.342530" lon="11.833210">
                <time>2017-07-15T08:05:28Z</time>
            </trkpt>
            <trkpt lat="46.342480" lon="11.833060">
                <time>2017-07-15T08:05:29Z</time>
            </trkpt>
            <trkpt lat="46.342420" lon="11.832870">
                <time>2017-07-15T08:05:30Z</time>
            </trkpt>
            <trkpt lat="46.342380" lon="11.832680">
                <time>2017-07-15T08:05:31Z</time>
            </trkpt>
            <trkpt lat="46.342340" lon="11.832450">
                <time>2017-07-15T08:05:32Z</time>
            </trkpt>
            <trkpt lat="46.342300" lon="11.832230">
                <time>2017-07-15T08:05:33Z</time>
            </trkpt>
            <trkpt lat="46.342250" lon="11.831990">
                <time>2017-07-15T08:05:34Z</time>
            </trkpt>
            <trkpt lat="46.342220" lon="11.831740">
                <time>2017-07-15T08:05:35Z</time>
            </trkpt>
            <trkpt lat="46.342190" lon="11.831500">
                <time>2017-07-15T08:05:36Z</time>
            </trkpt>
            <trkpt lat="46.342160" lon="11.831250">
                <time>2017-07-15T08:05:37Z</time>
            </trkpt>
            <trkpt lat="46.342130" lon="11.830990">
                <time>2017-07-15T08:05:38Z</time>
            </trkpt>
            <trkpt lat="46.342090" lon="11.830730">
                <time>2017-07-15T08:05:39Z</time>
            </trkpt>
            <trkpt lat="46.342050" lon="11.830460">
                <time>2017-07-15T08:05:40Z</time>
            </trkpt>
            <trkpt lat="46.342020" lon="11.830230">
                <time>2017-07-15T08:05:41Z</time>
            </trkpt>
            <trkpt lat="46.341970" lon="11.829980">
                <time>2017-07-15T08:05:42Z</time>
            </trkpt>
            <trkpt lat="46.341920" lon="11.829720">
                <time>2017-07-15T08:05:43Z</time>
            </trkpt>
            <trkpt lat="46.341890" lon="11.829490">
                <time>2017-07-15T08:05:44Z</time>
            </trkpt>
            <trkpt lat="46.341850" lon="11.829250">
                <time>2017-07-15T08:05:45Z</time>
            </trkpt>
            <trkpt lat="46.341820" lon="11.829000">
                <time>2017-07-15T08:05:46Z</time>
            </trkpt>
            <trkpt lat="46.341780" lon="11.828790">
                <time>2017-07-15T08:05:47Z</time>
            </trkpt>
            <trkpt lat="46.341720" lon="11.828560">
                <time>2017-07-15T08:05:48Z</time>
            </trkpt>
            <trkpt lat="46.341650" lon="11.828390">
                <time>2017-07-15T08:05:49Z</time>
            </trkpt>
            <trkpt lat="46.341570" lon="11.828250">
                <time>2017-07-15T08:05:50Z</time>
            </trkpt>
            <trkpt lat="46.341480" lon="11.828130">
                <time>2017-07-15T08:05:51Z</time>
            </trkpt>
            <trkpt lat="46.341420" lon="11.828050">
                <time>2017-07-15T08:05:52Z</time>
            </trkpt>
            <trkpt lat="46.341400" lon="11.827960">
                <time>2017-07-15T08:05:53Z</time>
            </trkpt>
            <trkpt lat="46.341410" lon="11.827880">
                <time>2017-07-15T08:05:54Z</time>
            </trkpt>
            <trkpt lat="46.341450" lon="11.827860">
                <time>2017-07-15T08:05:55Z</time>
            </trkpt>
            <trkpt lat="46.341510" lon="11.827880">
                <time>2017-07-15T08:05:56Z</time>
            </trkpt>
            <trkpt lat="46.341560" lon="11.827950">
                <time>2017-07-15T08:05:57Z</time>
            </trkpt>
            <trkpt lat="46.341650" lon="11.828040">
                <time>2017-07-15T08:05:58Z</time>
            </trkpt>
            <trkpt lat="46.341770" lon="11.828130">
                <time>2017-07-15T08:05:59Z</time>
            </trkpt>
            <trkpt lat="46.341900" lon="11.828230">
                <time>2017-07-15T08:06:00Z</time>
            </trkpt>
            <trkpt lat="46.342040" lon="11.828350">
                <time>2017-07-15T08:06:01Z</time>
            </trkpt>
            <trkpt lat="46.342170" lon="11.828520">
                <time>2017-07-15T08:06:02Z</time>
            </trkpt>
            <trkpt lat="46.342270" lon="11.828690">
                <time>2017-07-15T08:06:03Z</time>
            </trkpt>
            <trkpt lat="46.342380" lon="11.828910">
                <time>2017-07-15T08:06:04Z</time>
            </trkpt>
            <trkpt lat="46.342490" lon="11.829100">
                <time>2017-07-15T08:06:05Z</time>
            </trkpt>
            <trkpt lat="46.342610" lon="11.829330">
                <time>2017-07-15T08:06:06Z</time>
            </trkpt>
            <trkpt lat="46.342740" lon="11.829590">
                <time>2017-07-15T08:06:07Z</time>
            </trkpt>
            <trkpt lat="46.342860" lon="11.829820">
                <time>2017-07-15T08:06:08Z</time>
            </trkpt>
            <trkpt lat="46.342970" lon="11.830060">
                <time>2017-07-15T08:06:09Z</time>
            </trkpt>
            <trkpt lat="46.343090" lon="11.830320">
                <time>2017-07-15T08:06:10Z</time>
            </trkpt>
            <trkpt lat="46.343210" lon="11.830560">
                <time>2017-07-15T08:06:11Z</time>
            </trkpt>
            <trkpt lat="46.343340" lon="11.830820">
                <time>2017-07-15T08:06:12Z</time>
            </trkpt>
            <trkpt lat="46.343450" lon="11.831050">
                <time>2017-07-15T08:06:13Z</time>
            </trkpt>
            <trkpt lat="46.343560" lon="11.831300">
                <time>2017-07-15T08:06:14Z</time>
            </trkpt>
            <trkpt lat="46.343670" lon="11.831550">
                <time>2017-07-15T08:06:15Z</time>
            </trkpt>
            <trkpt lat="46.343780" lon="11.831770">
                <time>2017-07-15T08:06:16Z</time>
            </trkpt>
            <trkpt lat="46.343880" lon="11.832000">
                <time>2017-07-15T08:06:17Z</time>
            </trkpt>
            <trkpt lat="46.343990" lon="11.832230">
                <time>2017-07-15T08:06:18Z</time>
            </trkpt>
            <trkpt lat="46.344080" lon="11.832430">
                <time>2017-07-15T08:06:19Z</time>
            </trkpt>
            <trkpt lat="46.344180" lon="11.832640">
                <time>2017-07-15T08:06:20Z</time>
            </trkpt>
            <trkpt lat="46.344240" lon="11.832820">
                <time>2017-07-15T08:06:21Z</time>
            </trkpt>
            <trkpt lat="46.344310" lon="11.833000">
                <time>2017-07-15T08:06:22Z</time>
            </trkpt>
            <trkpt lat="46.344370" lon="11.833160">
                <time>2017-07-15T08:06:23Z</time>
            </trkpt>
            <trkpt lat="46.344400" lon="11.833300">
                <time>2017-07-15T08:06:24Z</time>
            </trkpt>
            <trkpt lat="46.344430" lon="11.833440">
                <time>2017-07-15T08:06:25Z</time>
            </trkpt>
            <trkpt lat="46.344470" lon="11.833560">
                <time>2017-07-15T08:06:26Z</time>
            </trkpt>
            <trkpt lat="46.344510" lon="11.833660">
                <time>2017-07-15T08:06:27Z</time>
            </trkpt>
            <trkpt lat="46.344560" lon="11.833690">
                <time>2017-07-15T08:06:28Z</time>
            </trkpt>
            <trkpt lat="46.344610" lon="11.833710">
                <time>2017-07-15T08:06:29Z</time>
            </trkpt>
            <trkpt lat="46.344660" lon="11.833650">
                <time>2017-07-15T08:06:30Z</time>
            </trkpt>
            <trkpt lat="46.344680" lon="11.833520">
                <time>2017-07-15T08:06:31Z</time>
            </trkpt>
            <trkpt lat="46.344580" lon="11.833350">
                <time>2017-07-15T08:06:32Z</time>
            </trkpt>
            <trkpt lat="46.344530" lon="11.833200">
                <time>2017-07-15T08:06:33Z</time>
            </trkpt>
            <trkpt lat="46.344470" lon="11.833000">
                <time>2017-07-15T08:06:34Z</time>
            </trkpt>
            <trkpt lat="46.344450" lon="11.832820">
                <time>2017-07-15T08:06:35Z</time>
            </trkpt>
            <trkpt lat="46.344430" lon="11.832580">
                <time>2017-07-15T08:06:36Z</time>
            </trkpt>
            <trkpt lat="46.344420" lon="11.832360">
                <time>2017-07-15T08:06:37Z</time>
            </trkpt>
            <trkpt lat="46.344370" lon="11.832120">
                <time>2017-07-15T08:06:38Z</time>
            </trkpt>
            <trkpt lat="46.344310" lon="11.831880">
                <time>2017-07-15T08:06:39Z</time>
            </trkpt>
            <trkpt lat="46.344250" lon="11.831650">
                <time>2017-07-15T08:06:40Z</time>
            </trkpt>
            <trkpt lat="46.344190" lon="11.831410">
                <time>2017-07-15T08:06:41Z</time>
            </trkpt>
            <trkpt lat="46.344130" lon="11.831160">
                <time>2017-07-15T08:06:42Z</time>
            </trkpt>
            <trkpt lat="46.344070" lon="11.830920">
                <time>2017-07-15T08:06:43Z</time>
            </trkpt>
            <trkpt lat="46.344010" lon="11.830670">
                <time>2017-07-15T08:06:44Z</time>
            </trkpt>
            <trkpt lat="46.343970" lon="11.830440">
                <time>2017-07-15T08:06:45Z</time>
            </trkpt>
            <trkpt lat="46.343960" lon="11.830180">
                <time>2017-07-15T08:06:46Z</time>
            </trkpt>
            <trkpt lat="46.343960" lon="11.829910">
                <time>2017-07-15T08:06:47Z</time>
            </trkpt>
            <trkpt lat="46.343970" lon="11.829660">
                <time>2017-07-15T08:06:48Z</time>
            </trkpt>
            <trkpt lat="46.343970" lon="11.829390">
                <time>2017-07-15T08:06:49Z</time>
            </trkpt>
            <trkpt lat="46.343980" lon="11.829100">
                <time>2017-07-15T08:06:50Z</time>
            </trkpt>
            <trkpt lat="46.343990" lon="11.828860">
                <time>2017-07-15T08:06:51Z</time>
            </trkpt>
            <trkpt lat="46.344000" lon="11.828580">
                <time>2017-07-15T08:06:52Z</time>
            </trkpt>
            <trkpt lat="46.344010" lon="11.828330">
                <time>2017-07-15T08:06:53Z</time>
            </trkpt>
            <trkpt lat="46.344020" lon="11.828070">
                <time>2017-07-15T08:06:54Z</time>
            </trkpt>
            <trkpt lat="46.344020" lon="11.827800">
                <time>2017-07-15T08:06:55Z</time>
            </trkpt>
            <trkpt lat="46.344010" lon="11.827560">
                <time>2017-07-15T08:06:56Z</time>
            </trkpt>
            <trkpt lat="46.343970" lon="11.827310">
                <time>2017-07-15T08:06:57Z</time>
            </trkpt>
            <trkpt lat="46.343920" lon="11.827070">
                <time>2017-07-15T08:06:58Z</time>
            </trkpt>
            <trkpt lat="46.343860" lon="11.826820">
                <time>2017-07-15T08:06:59Z</time>
            </trkpt>
            <trkpt lat="46.343790" lon="11.826550">
                <time>2017-07-15T08:07:00Z</time>
            </trkpt>
            <trkpt lat="46.343740" lon="11.826320">
                <time>2017-07-15T08:07:01Z</time>
            </trkpt>
            <trkpt lat="46.343670" lon="11.826070">
                <time>2017-07-15T08:07:02Z</time>
            </trkpt>
            <trkpt lat="46.343600" lon="11.825800">
                <time>2017-07-15T08:07:03Z</time>
            </trkpt>
            <trkpt lat="46.343530" lon="11.825580">
                <time>2017-07-15T08:07:04Z</time>
            </trkpt>
            <trkpt lat="46.343470" lon="11.825350">
                <time>2017-07-15T08:07:05Z</time>
            </trkpt>
            <trkpt lat="46.343380" lon="11.825120">
                <time>2017-07-15T08:07:06Z</time>
            </trkpt>
            <trkpt lat="46.343300" lon="11.824930">
                <time>2017-07-15T08:07:07Z</time>
            </trkpt>
            <trkpt lat="46.343200" lon="11.824730">
                <time>2017-07-15T08:07:08Z</time>
            </trkpt>
            <trkpt lat="46.343100" lon="11.824540">
                <time>2017-07-15T08:07:09Z</time>
            </trkpt>
            <trkpt lat="46.343010" lon="11.824350">
                <time>2017-07-15T08:07:10Z</time>
            </trkpt>
            <trkpt lat="46.342930" lon="11.824150">
                <time>2017-07-15T08:07:11Z</time>
            </trkpt>
            <trkpt lat="46.342890" lon="11.823950">
                <time>2017-07-15T08:07:12Z</time>
            </trkpt>
            <trkpt lat="46.342860" lon="11.823730">
                <time>2017-07-15T08:07:13Z</time>
            </trkpt>
            <trkpt lat="46.342870" lon="11.823500">
                <time>2017-07-15T08:07:14Z</time>
            </trkpt>
            <trkpt lat="46.342890" lon="11.823270">
                <time>2017-07-15T08:07:15Z</time>
            </trkpt>
            <trkpt lat="46.342920" lon="11.823010">
                <time>2017-07-15T08:07:16Z</time>
            </trkpt>
            <trkpt lat="46.342930" lon="11.822780">
                <time>2017-07-15T08:07:17Z</time>
            </trkpt>
            <trkpt lat="46.342920" lon="11.822540">
                <time>2017-07-15T08:07:18Z</time>
            </trkpt>
            <trkpt lat="46.342890" lon="11.822270">
                <time>2017-07-15T08:07:19Z</time>
            </trkpt>
            <trkpt lat="46.342850" lon="11.822050">
                <time>2017-07-15T08:07:20Z</time>
            </trkpt>
            <trkpt lat="46.342820" lon="11.821800">
                <time>2017-07-15T08:07:21Z</time>
            </trkpt>
            <trkpt lat="46.342790" lon="11.821530">
                <time>2017-07-15T08:07:22Z</time>
            </trkpt>
            <trkpt lat="46.342790" lon="11.821300">
                <time>2017-07-15T08:07:23Z</time>
            </trkpt>
            <trkpt lat="46.342800" lon="11.821040">
                <time>2017-07-15T08:07:24Z</time>
            </trkpt>
            <trkpt lat="46.342810" lon="11.820830">
                <time>2017-07-15T08:07:25Z</time>
            </trkpt>
            <trkpt lat="46.342830" lon="11.820620">
                <time>2017-07-15T08:07:26Z</time>
            </trkpt>
            <trkpt lat="46.342820" lon="11.820420">
                <time>2017-07-15T08:07:27Z</time>
            </trkpt>
            <trkpt lat="46.342800" lon="11.820240">
                <time>2017-07-15T08:07:28Z</time>
            </trkpt>
            <trkpt lat="46.342730" lon="11.820060">
                <time>2017-07-15T08:07:29Z</time>
            </trkpt>
            <trkpt lat="46.342650" lon="11.819870">
                <time>2017-07-15T08:07:30Z</time>
            </trkpt>
            <trkpt lat="46.342540" lon="11.819700">
                <time>2017-07-15T08:07:31Z</time>
            </trkpt>
            <trkpt lat="46.342430" lon="11.819500">
                <time>2017-07-15T08:07:32Z</time>
            </trkpt>
            <trkpt lat="46.342330" lon="11.819330">
                <time>2017-07-15T08:07:33Z</time>
            </trkpt>
            <trkpt lat="46.342220" lon="11.819140">
                <time>2017-07-15T08:07:34Z</time>
            </trkpt>
            <trkpt lat="46.342120" lon="11.818920">
                <time>2017-07-15T08:07:35Z</time>
            </trkpt>
            <trkpt lat="46.342050" lon="11.818710">
                <time>2017-07-15T08:07:36Z</time>
            </trkpt>
            <trkpt lat="46.341980" lon="11.818480">
                <time>2017-07-15T08:07:37Z</time>
            </trkpt>
            <trkpt lat="46.341920" lon="11.818220">
                <time>2017-07-15T08:07:38Z</time>
            </trkpt>
            <trkpt lat="46.341880" lon="11.817990">
                <time>2017-07-15T08:07:39Z</time>
            </trkpt>
            <trkpt lat="46.341840" lon="11.817730">
                <time>2017-07-15T08:07:40Z</time>
            </trkpt>
            <trkpt lat="46.341810" lon="11.817510">
                <time>2017-07-15T08:07:41Z</time>
            </trkpt>
            <trkpt lat="46.341800" lon="11.817280">
                <time>2017-07-15T08:07:42Z</time>
            </trkpt>
            <trkpt lat="46.341760" lon="11.817050">
                <time>2017-07-15T08:07:43Z</time>
            </trkpt>
            <trkpt lat="46.341710" lon="11.816870">
                <time>2017-07-15T08:07:44Z</time>
            </trkpt>
            <trkpt lat="46.341620" lon="11.816690">
                <time>2017-07-15T08:07:45Z</time>
            </trkpt>
            <trkpt lat="46.341520" lon="11.816520">
                <time>2017-07-15T08:07:46Z</time>
            </trkpt>
            <trkpt lat="46.341450" lon="11.816320">
                <time>2017-07-15T08:07:47Z</time>
            </trkpt>
            <trkpt lat="46.341390" lon="11.816080">
                <time>2017-07-15T08:07:48Z</time>
            </trkpt>
            <trkpt lat="46.341340" lon="11.815850">
                <time>2017-07-15T08:07:49Z</time>
            </trkpt>
            <trkpt lat="46.341300" lon="11.815600">
                <time>2017-07-15T08:07:50Z</time>
            </trkpt>
            <trkpt lat="46.341260" lon="11.815350">
                <time>2017-07-15T08:07:51Z</time>
            </trkpt>
            <trkpt lat="46.341210" lon="11.815130">
                <time>2017-07-15T08:07:52Z</time>
            </trkpt>
            <trkpt lat="46.341140" lon="11.814910">
                <time>2017-07-15T08:07:53Z</time>
            </trkpt>
            <trkpt lat="46.341040" lon="11.814710">
                <time>2017-07-15T08:07:54Z</time>
            </trkpt>
            <trkpt lat="46.340950" lon="11.814550">
                <time>2017-07-15T08:07:55Z</time>
            </trkpt>
            <trkpt lat="46.340870" lon="11.814340">
                <time>2017-07-15T08:07:56Z</time>
            </trkpt>
            <trkpt lat="46.340820" lon="11.814150">
                <time>2017-07-15T08:07:57Z</time>
            </trkpt>
            <trkpt lat="46.340790" lon="11.813930">
                <time>2017-07-15T08:07:58Z</time>
            </trkpt>
            <trkpt lat="46.340790" lon="11.813690">
                <time>2017-07-15T08:07:59Z</time>
            </trkpt>
            <trkpt lat="46.340820" lon="11.813490">
                <time>2017-07-15T08:08:00Z</time>
            </trkpt>
            <trkpt lat="46.340870" lon="11.813260">
                <time>2017-07-15T08:08:01Z</time>
            </trkpt>
            <trkpt lat="46.340930" lon="11.813020">
                <time>2017-07-15T08:08:02Z</time>
            </trkpt>
            <trkpt lat="46.340980" lon="11.812770">
                <time>2017-07-15T08:08:03Z</time>
            </trkpt>
            <trkpt lat="46.341030" lon="11.812500">
                <time>2017-07-15T08:08:04Z</time>
            </trkpt>
            <trkpt lat="46.341060" lon="11.812250">
                <time>2017-07-15T08:08:05Z</time>
            </trkpt>
            <trkpt lat="46.341090" lon="11.811980">
                <time>2017-07-15T08:08:06Z</time>
            </trkpt>
            <trkpt lat="46.341130" lon="11.811700">
                <time>2017-07-15T08:08:07Z</time>
            </trkpt>
            <trkpt lat="46.341150" lon="11.811460">
                <time>2017-07-15T08:08:08Z</time>
            </trkpt>
            <trkpt lat="46.341160" lon="11.811230">
                <time>2017-07-15T08:08:09Z</time>
            </trkpt>
            <trkpt lat="46.341150" lon="11.810990">
                <time>2017-07-15T08:08:10Z</time>
            </trkpt>
            <trkpt lat="46.341120" lon="11.810790">
                <time>2017-07-15T08:08:11Z</time>
            </trkpt>
            <trkpt lat="46.341030" lon="11.810550">
                <time>2017-07-15T08:08:12Z</time>
            </trkpt>
            <trkpt lat="46.340980" lon="11.810340">
                <time>2017-07-15T08:08:13Z</time>
            </trkpt>
            <trkpt lat="46.340970" lon="11.810100">
                <time>2017-07-15T08:08:14Z</time>
            </trkpt>
            <trkpt lat="46.340980" lon="11.809840">
                <time>2017-07-15T08:08:15Z</time>
            </trkpt>
            <trkpt lat="46.340990" lon="11.809610">
                <time>2017-07-15T08:08:16Z</time>
            </trkpt>
            <trkpt lat="46.340990" lon="11.809350">
                <time>2017-07-15T08:08:17Z</time>
            </trkpt>
            <trkpt lat="46.340960" lon="11.809080">
                <time>2017-07-15T08:08:18Z</time>
            </trkpt>
            <trkpt lat="46.340930" lon="11.808820">
                <time>2017-07-15T08:08:19Z</time>
            </trkpt>
            <trkpt lat="46.340890" lon="11.808540">
                <time>2017-07-15T08:08:20Z</time>
            </trkpt>
            <trkpt lat="46.340850" lon="11.808300">
                <time>2017-07-15T08:08:21Z</time>
            </trkpt>
            <trkpt lat="46.340810" lon="11.808030">
                <time>2017-07-15T08:08:22Z</time>
            </trkpt>
            <trkpt lat="46.340760" lon="11.807760">
                <time>2017-07-15T08:08:23Z</time>
            </trkpt>
            <trkpt lat="46.340740" lon="11.807530">
                <time>2017-07-15T08:08:24Z</time>
            </trkpt>
            <trkpt lat="46.340720" lon="11.807300">
                <time>2017-07-15T08:08:25Z</time>
            </trkpt>
            <trkpt lat="46.340680" lon="11.807060">
                <time>2017-07-15T08:08:26Z</time>
            </trkpt>
            <trkpt lat="46.340630" lon="11.806870">
                <time>2017-07-15T08:08:27Z</time>
            </trkpt>
            <trkpt lat="46.340540" lon="11.806680">
                <time>2017-07-15T08:08:28Z</time>
            </trkpt>
            <trkpt lat="46.340440" lon="11.806530">
                <time>2017-07-15T08:08:29Z</time>
            </trkpt>
            <trkpt lat="46.340360" lon="11.806370">
                <time>2017-07-15T08:08:30Z</time>
            </trkpt>
            <trkpt lat="46.340300" lon="11.806190">
                <time>2017-07-15T08:08:31Z</time>
            </trkpt>
            <trkpt lat="46.340280" lon="11.806010">
                <time>2017-07-15T08:08:32Z</time>
            </trkpt>
            <trkpt lat="46.340280" lon="11.805790">
                <time>2017-07-15T08:08:33Z</time>
            </trkpt>
            <trkpt lat="46.340290" lon="11.805550">
                <time>2017-07-15T08:08:34Z</time>
            </trkpt>
            <trkpt lat="46.340310" lon="11.805320">
                <time>2017-07-15T08:08:35Z</time>
            </trkpt>
            <trkpt lat="46.340320" lon="11.805060">
                <time>2017-07-15T08:08:36Z</time>
            </trkpt>
            <trkpt lat="46.340340" lon="11.804840">
                <time>2017-07-15T08:08:37Z</time>
            </trkpt>
            <trkpt lat="46.340360" lon="11.804620">
                <time>2017-07-15T08:08:38Z</time>
            </trkpt>
            <trkpt lat="46.340360" lon="11.804390">
                <time>2017-07-15T08:08:39Z</time>
            </trkpt>
            <trkpt lat="46.340340" lon="11.804210">
                <time>2017-07-15T08:08:40Z</time>
            </trkpt>
            <trkpt lat="46.340290" lon="11.804030">
                <time>2017-07-15T08:08:41Z</time>
            </trkpt>
            <trkpt lat="46.340210" lon="11.803860">
                <time>2017-07-15T08:08:42Z</time>
            </trkpt>
            <trkpt lat="46.340110" lon="11.803750">
                <time>2017-07-15T08:08:43Z</time>
            </trkpt>
            <trkpt lat="46.339980" lon="11.803660">
                <time>2017-07-15T08:08:44Z</time>
            </trkpt>
            <trkpt lat="46.339840" lon="11.803620">
                <time>2017-07-15T08:08:45Z</time>
            </trkpt>
            <trkpt lat="46.339690" lon="11.803600">
                <time>2017-07-15T08:08:46Z</time>
            </trkpt>
            <trkpt lat="46.339510" lon="11.803600">
                <time>2017-07-15T08:08:47Z</time>
            </trkpt>
            <trkpt lat="46.339350" lon="11.803600">
                <time>2017-07-15T08:08:48Z</time>
            </trkpt>
            <trkpt lat="46.339180" lon="11.803600">
                <time>2017-07-15T08:08:49Z</time>
            </trkpt>
            <trkpt lat="46.339010" lon="11.803590">
                <time>2017-07-15T08:08:50Z</time>
            </trkpt>
            <trkpt lat="46.338870" lon="11.803570">
                <time>2017-07-15T08:08:51Z</time>
            </trkpt>
            <trkpt lat="46.338730" lon="11.803540">
                <time>2017-07-15T08:08:52Z</time>
            </trkpt>
            <trkpt lat="46.338620" lon="11.803480">
                <time>2017-07-15T08:08:53Z</time>
            </trkpt>
            <trkpt lat="46.338520" lon="11.803370">
                <time>2017-07-15T08:08:54Z</time>
            </trkpt>
            <trkpt lat="46.338460" lon="11.803220">
                <time>2017-07-15T08:08:55Z</time>
            </trkpt>
            <trkpt lat="46.338440" lon="11.803060">
                <time>2017-07-15T08:08:56Z</time>
            </trkpt>
            <trkpt lat="46.338440" lon="11.802880">
                <time>2017-07-15T08:08:57Z</time>
            </trkpt>
            <trkpt lat="46.338470" lon="11.802680">
                <time>2017-07-15T08:08:58Z</time>
            </trkpt>
            <trkpt lat="46.338500" lon="11.802490">
                <time>2017-07-15T08:08:59Z</time>
            </trkpt>
            <trkpt lat="46.338530" lon="11.802270">
                <time>2017-07-15T08:09:00Z</time>
            </trkpt>
            <trkpt lat="46.338560" lon="11.802080">
                <time>2017-07-15T08:09:01Z</time>
            </trkpt>
            <trkpt lat="46.338590" lon="11.801870">
                <time>2017-07-15T08:09:02Z</time>
            </trkpt>
            <trkpt lat="46.338620" lon="11.801660">
                <time>2017-07-15T08:09:03Z</time>
            </trkpt>
            <trkpt lat="46.338630" lon="11.801490">
                <time>2017-07-15T08:09:04Z</time>
            </trkpt>
            <trkpt lat="46.338630" lon="11.801310">
                <time>2017-07-15T08:09:05Z</time>
            </trkpt>
            <trkpt lat="46.338630" lon="11.801140">
                <time>2017-07-15T08:09:06Z</time>
            </trkpt>
            <trkpt lat="46.338630" lon="11.800970">
                <time>2017-07-15T08:09:07Z</time>
            </trkpt>
            <trkpt lat="46.338630" lon="11.800800">
                <time>2017-07-15T08:09:08Z</time>
            </trkpt>
            <trkpt lat="46.338630" lon="11.800650">
                <time>2017-07-15T08:09:09Z</time>
            </trkpt>
            <trkpt lat="46.338630" lon="11.800510">
                <time>2017-07-15T08:09:10Z</time>
            </trkpt>
            <trkpt lat="46.338630" lon="11.800370">
                <time>2017-07-15T08:09:11Z</time>
            </trkpt>
            <trkpt lat="46.338630" lon="11.800240">
                <time>2017-07-15T08:09:12Z</time>
            </trkpt>
            <trkpt lat="46.338630" lon="11.800100">
                <time>2017-07-15T08:09:13Z</time>
            </trkpt>
            <trkpt lat="46.338620" lon="11.799960">
                <time>2017-07-15T08:09:14Z</time>
            </trkpt>
            <trkpt lat="46.338620" lon="11.799830">
                <time>2017-07-15T08:09:15Z</time>
            </trkpt>
            <trkpt lat="46.338620" lon="11.799690">
                <time>2017-07-15T08:09:16Z</time>
            </trkpt>
            <trkpt lat="46.338640" lon="11.799560">
                <time>2017-07-15T08:09:17Z</time>
            </trkpt>
            <trkpt lat="46.338660" lon="11.799440">
                <time>2017-07-15T08:09:18Z</time>
            </trkpt>
            <trkpt lat="46.338690" lon="11.799320">
                <time>2017-07-15T08:09:19Z</time>
            </trkpt>
            <trkpt lat="46.338720" lon="11.799220">
                <time>2017-07-15T08:09:20Z</time>
            </trkpt>
            <trkpt lat="46.338760" lon="11.799120">
                <time>2017-07-15T08:09:21Z</time>
            </trkpt>
            <trkpt lat="46.338790" lon="11.799010">
                <time>2017-07-15T08:09:22Z</time>
            </trkpt>
            <trkpt lat="46.338830" lon="11.798910">
                <time>2017-07-15T08:09:23Z</time>
            </trkpt>
            <trkpt lat="46.338880" lon="11.798820">
                <time>2017-07-15T08:09:24Z</time>
            </trkpt>
            <trkpt lat="46.338950" lon="11.798770">
                <time>2017-07-15T08:09:25Z</time>
            </trkpt>
            <trkpt lat="46.339030" lon="11.798730">
                <time>2017-07-15T08:09:26Z</time>
            </trkpt>
            <trkpt lat="46.339120" lon="11.798710">
                <time>2017-07-15T08:09:27Z</time>
            </trkpt>
            <trkpt lat="46.339210" lon="11.798700">
                <time>2017-07-15T08:09:28Z</time>
            </trkpt>
            <trkpt lat="46.339310" lon="11.798690">
                <time>2017-07-15T08:09:29Z</time>
            </trkpt>
            <trkpt lat="46.339410" lon="11.798670">
                <time>2017-07-15T08:09:30Z</time>
            </trkpt>
            <trkpt lat="46.339510" lon="11.798650">
                <time>2017-07-15T08:09:31Z</time>
            </trkpt>
            <trkpt lat="46.339630" lon="11.798600">
                <time>2017-07-15T08:09:32Z</time>
            </trkpt>
            <trkpt lat="46.339740" lon="11.798540">
                <time>2017-07-15T08:09:33Z</time>
            </trkpt>
            <trkpt lat="46.339860" lon="11.798490">
                <time>2017-07-15T08:09:34Z</time>
            </trkpt>
            <trkpt lat="46.339980" lon="11.798460">
                <time>2017-07-15T08:09:35Z</time>
            </trkpt>
            <trkpt lat="46.340090" lon="11.798480">
                <time>2017-07-15T08:09:36Z</time>
            </trkpt>
            <trkpt lat="46.340190" lon="11.798540">
                <time>2017-07-15T08:09:37Z</time>
            </trkpt>
            <trkpt lat="46.340260" lon="11.798580">
                <time>2017-07-15T08:09:38Z</time>
            </trkpt>
            <trkpt lat="46.340340" lon="11.798600">
                <time>2017-07-15T08:09:39Z</time>
            </trkpt>
            <trkpt lat="46.340400" lon="11.798570">
                <time>2017-07-15T08:09:40Z</time>
            </trkpt>
            <trkpt lat="46.340450" lon="11.798500">
                <time>2017-07-15T08:09:41Z</time>
            </trkpt>
            <trkpt lat="46.340470" lon="11.798400">
                <time>2017-07-15T08:09:42Z</time>
            </trkpt>
            <trkpt lat="46.340480" lon="11.798260">
                <time>2017-07-15T08:09:43Z</time>
            </trkpt>
            <trkpt lat="46.340500" lon="11.798140">
                <time>2017-07-15T08:09:44Z</time>
            </trkpt>
            <trkpt lat="46.340550" lon="11.798040">
                <time>2017-07-15T08:09:45Z</time>
            </trkpt>
            <trkpt lat="46.340630" lon="11.797940">
                <time>2017-07-15T08:09:46Z</time>
            </trkpt>
            <trkpt lat="46.340720" lon="11.797860">
                <time>2017-07-15T08:09:47Z</time>
            </trkpt>
            <trkpt lat="46.340840" lon="11.797760">
                <time>2017-07-15T08:09:48Z</time>
            </trkpt>
            <trkpt lat="46.340940" lon="11.797670">
                <time>2017-07-15T08:09:49Z</time>
            </trkpt>
            <trkpt lat="46.341060" lon="11.797570">
                <time>2017-07-15T08:09:50Z</time>
            </trkpt>
            <trkpt lat="46.341180" lon="11.797470">
                <time>2017-07-15T08:09:51Z</time>
            </trkpt>
            <trkpt lat="46.341280" lon="11.797390">
                <time>2017-07-15T08:09:52Z</time>
            </trkpt>
            <trkpt lat="46.341390" lon="11.797330">
                <time>2017-07-15T08:09:53Z</time>
            </trkpt>
            <trkpt lat="46.341490" lon="11.797280">
                <time>2017-07-15T08:09:54Z</time>
            </trkpt>
            <trkpt lat="46.341560" lon="11.797210">
                <time>2017-07-15T08:09:55Z</time>
            </trkpt>
            <trkpt lat="46.341620" lon="11.797110">
                <time>2017-07-15T08:09:56Z</time>
            </trkpt>
            <trkpt lat="46.341640" lon="11.796980">
                <time>2017-07-15T08:09:57Z</time>
            </trkpt>
            <trkpt lat="46.341630" lon="11.796850">
                <time>2017-07-15T08:09:58Z</time>
            </trkpt>
            <trkpt lat="46.341570" lon="11.796710">
                <time>2017-07-15T08:09:59Z</time>
            </trkpt>
            <trkpt lat="46.341500" lon="11.796600">
                <time>2017-07-15T08:10:00Z</time>
            </trkpt>
            <trkpt lat="46.341400" lon="11.796480">
                <time>2017-07-15T08:10:01Z</time>
            </trkpt>
            <trkpt lat="46.341300" lon="11.796360">
                <time>2017-07-15T08:10:02Z</time>
            </trkpt>
            <trkpt lat="46.341230" lon="11.796250">
                <time>2017-07-15T08:10:03Z</time>
            </trkpt>
            <trkpt lat="46.341160" lon="11.796110">
                <time>2017-07-15T08:10:04Z</time>
            </trkpt>
            <trkpt lat="46.341120" lon="11.795980">
                <time>2017-07-15T08:10:05Z</time>
            </trkpt>
            <trkpt lat="46.341110" lon="11.795820">
                <time>2017-07-15T08:10:06Z</time>
            </trkpt>
            <trkpt lat="46.341140" lon="11.795670">
                <time>2017-07-15T08:10:07Z</time>
            </trkpt>
            <trkpt lat="46.341190" lon="11.795540">
                <time>2017-07-15T08:10:08Z</time>
            </trkpt>
            <trkpt lat="46.341260" lon="11.795430">
                <time>2017-07-15T08:10:09Z</time>
            </trkpt>
            <trkpt lat="46.341360" lon="11.795370">
                <time>2017-07-15T08:10:10Z</time>
            </trkpt>
            <trkpt lat="46.341450" lon="11.795300">
                <time>2017-07-15T08:10:11Z</time>
            </trkpt>
            <trkpt lat="46.341530" lon="11.795200">
                <time>2017-07-15T08:10:12Z</time>
            </trkpt>
            <trkpt lat="46.341580" lon="11.795080">
                <time>2017-07-15T08:10:13Z</time>
            </trkpt>
            <trkpt lat="46.341610" lon="11.794920">
                <time>2017-07-15T08:10:14Z</time>
            </trkpt>
            <trkpt lat="46.341600" lon="11.794740">
                <time>2017-07-15T08:10:15Z</time>
            </trkpt>
            <trkpt lat="46.341570" lon="11.794580">
                <time>2017-07-15T08:10:16Z</time>
            </trkpt>
            <trkpt lat="46.341530" lon="11.794410">
                <time>2017-07-15T08:10:17Z</time>
            </trkpt>
            <trkpt lat="46.341470" lon="11.794210">
                <time>2017-07-15T08:10:18Z</time>
            </trkpt>
            <trkpt lat="46.341420" lon="11.794050">
                <time>2017-07-15T08:10:19Z</time>
            </trkpt>
            <trkpt lat="46.341370" lon="11.793870">
                <time>2017-07-15T08:10:20Z</time>
            </trkpt>
            <trkpt lat="46.341350" lon="11.793710">
                <time>2017-07-15T08:10:21Z</time>
            </trkpt>
            <trkpt lat="46.341350" lon="11.793530">
                <time>2017-07-15T08:10:22Z</time>
            </trkpt>
            <trkpt lat="46.341390" lon="11.793370">
                <time>2017-07-15T08:10:23Z</time>
            </trkpt>
            <trkpt lat="46.341460" lon="11.793240">
                <time>2017-07-15T08:10:24Z</time>
            </trkpt>
            <trkpt lat="46.341530" lon="11.793130">
                <time>2017-07-15T08:10:25Z</time>
            </trkpt>
            <trkpt lat="46.341580" lon="11.793040">
                <time>2017-07-15T08:10:26Z</time>
            </trkpt>
            <trkpt lat="46.341590" lon="11.792930">
                <time>2017-07-15T08:10:27Z</time>
            </trkpt>
            <trkpt lat="46.341560" lon="11.792830">
                <time>2017-07-15T08:10:28Z</time>
            </trkpt>
            <trkpt lat="46.341510" lon="11.792750">
                <time>2017-07-15T08:10:29Z</time>
            </trkpt>
            <trkpt lat="46.341440" lon="11.792650">
                <time>2017-07-15T08:10:30Z</time>
            </trkpt>
            <trkpt lat="46.341370" lon="11.792530">
                <time>2017-07-15T08:10:31Z</time>
            </trkpt>
            <trkpt lat="46.341330" lon="11.792390">
                <time>2017-07-15T08:10:32Z</time>
            </trkpt>
            <trkpt lat="46.341310" lon="11.792230">
                <time>2017-07-15T08:10:33Z</time>
            </trkpt>
            <trkpt lat="46.341300" lon="11.792040">
                <time>2017-07-15T08:10:34Z</time>
            </trkpt>
            <trkpt lat="46.341310" lon="11.791880">
                <time>2017-07-15T08:10:35Z</time>
            </trkpt>
            <trkpt lat="46.341320" lon="11.791690">
                <time>2017-07-15T08:10:36Z</time>
            </trkpt>
            <trkpt lat="46.341340" lon="11.791540">
                <time>2017-07-15T08:10:37Z</time>
            </trkpt>
            <trkpt lat="46.341360" lon="11.791380">
                <time>2017-07-15T08:10:38Z</time>
            </trkpt>
            <trkpt lat="46.341370" lon="11.791220">
                <time>2017-07-15T08:10:39Z</time>
            </trkpt>
            <trkpt lat="46.341360" lon="11.791080">
                <time>2017-07-15T08:10:40Z</time>
            </trkpt>
            <trkpt lat="46.341350" lon="11.790940">
                <time>2017-07-15T08:10:41Z</time>
            </trkpt>
            <trkpt lat="46.341330" lon="11.790800">
                <time>2017-07-15T08:10:42Z</time>
            </trkpt>
            <trkpt lat="46.341290" lon="11.790660">
                <time>2017-07-15T08:10:43Z</time>
            </trkpt>
            <trkpt lat="46.341240" lon="11.790540">
                <time>2017-07-15T08:10:44Z</time>
            </trkpt>
            <trkpt lat="46.341180" lon="11.790470">
                <time>2017-07-15T08:10:45Z</time>
            </trkpt>
            <trkpt lat="46.341090" lon="11.790430">
                <time>2017-07-15T08:10:46Z</time>
            </trkpt>
            <trkpt lat="46.340990" lon="11.790450">
                <time>2017-07-15T08:10:47Z</time>
            </trkpt>
            <trkpt lat="46.340920" lon="11.790500">
                <time>2017-07-15T08:10:48Z</time>
            </trkpt>
            <trkpt lat="46.340860" lon="11.790610">
                <time>2017-07-15T08:10:49Z</time>
            </trkpt>
            <trkpt lat="46.340830" lon="11.790760">
                <time>2017-07-15T08:10:50Z</time>
            </trkpt>
            <trkpt lat="46.340810" lon="11.790910">
                <time>2017-07-15T08:10:51Z</time>
            </trkpt>
            <trkpt lat="46.340770" lon="11.791100">
                <time>2017-07-15T08:10:52Z</time>
            </trkpt>
            <trkpt lat="46.340720" lon="11.791270">
                <time>2017-07-15T08:10:53Z</time>
            </trkpt>
            <trkpt lat="46.340640" lon="11.791450">
                <time>2017-07-15T08:10:54Z</time>
            </trkpt>
            <trkpt lat="46.340550" lon="11.791630">
                <time>2017-07-15T08:10:55Z</time>
            </trkpt>
            <trkpt lat="46.340450" lon="11.791790">
                <time>2017-07-15T08:10:56Z</time>
            </trkpt>
            <trkpt lat="46.340340" lon="11.791950">
                <time>2017-07-15T08:10:57Z</time>
            </trkpt>
            <trkpt lat="46.340230" lon="11.792110">
                <time>2017-07-15T08:10:58Z</time>
            </trkpt>
            <trkpt lat="46.340110" lon="11.792260">
                <time>2017-07-15T08:10:59Z</time>
            </trkpt>
            <trkpt lat="46.340000" lon="11.792410">
                <time>2017-07-15T08:11:00Z</time>
            </trkpt>
            <trkpt lat="46.339900" lon="11.792540">
                <time>2017-07-15T08:11:01Z</time>
            </trkpt>
            <trkpt lat="46.339800" lon="11.792650">
                <time>2017-07-15T08:11:02Z</time>
            </trkpt>
            <trkpt lat="46.339670" lon="11.792730">
                <time>2017-07-15T08:11:03Z</time>
            </trkpt>
            <trkpt lat="46.339560" lon="11.792760">
                <time>2017-07-15T08:11:04Z</time>
            </trkpt>
            <trkpt lat="46.339460" lon="11.792760">
                <time>2017-07-15T08:11:05Z</time>
            </trkpt>
            <trkpt lat="46.339370" lon="11.792720">
                <time>2017-07-15T08:11:06Z</time>
            </trkpt>
            <trkpt lat="46.339320" lon="11.792640">
                <time>2017-07-15T08:11:07Z</time>
            </trkpt>
            <trkpt lat="46.339270" lon="11.792510">
                <time>2017-07-15T08:11:08Z</time>
            </trkpt>
            <trkpt lat="46.339240" lon="11.792390">
                <time>2017-07-15T08:11:09Z</time>
            </trkpt>
            <trkpt lat="46.339170" lon="11.792240">
                <time>2017-07-15T08:11:10Z</time>
            </trkpt>
            <trkpt lat="46.339080" lon="11.792100">
                <time>2017-07-15T08:11:11Z</time>
            </trkpt>
            <trkpt lat="46.338980" lon="11.792010">
                <time>2017-07-15T08:11:12Z</time>
            </trkpt>
            <trkpt lat="46.338860" lon="11.791940">
                <time>2017-07-15T08:11:13Z</time>
            </trkpt>
            <trkpt lat="46.338730" lon="11.791880">
                <time>2017-07-15T08:11:14Z</time>
            </trkpt>
            <trkpt lat="46.338620" lon="11.791810">
                <time>2017-07-15T08:11:15Z</time>
            </trkpt>
            <trkpt lat="46.338510" lon="11.791730">
                <time>2017-07-15T08:11:16Z</time>
            </trkpt>
            <trkpt lat="46.338450" lon="11.791640">
                <time>2017-07-15T08:11:17Z</time>
            </trkpt>
            <trkpt lat="46.338400" lon="11.791510">
                <time>2017-07-15T08:11:18Z</time>
            </trkpt>
            <trkpt lat="46.338350" lon="11.791360">
                <time>2017-07-15T08:11:19Z</time>
            </trkpt>
            <trkpt lat="46.338280" lon="11.791240">
                <time>2017-07-15T08:11:20Z</time>
            </trkpt>
            <trkpt lat="46.338190" lon="11.791130">
                <time>2017-07-15T08:11:21Z</time>
            </trkpt>
            <trkpt lat="46.338080" lon="11.791070">
                <time>2017-07-15T08:11:22Z</time>
            </trkpt>
            <trkpt lat="46.337960" lon="11.791040">
                <time>2017-07-15T08:11:23Z</time>
            </trkpt>
            <trkpt lat="46.337810" lon="11.791010">
                <time>2017-07-15T08:11:24Z</time>
            </trkpt>
            <trkpt lat="46.337670" lon="11.790960">
                <time>2017-07-15T08:11:25Z</time>
            </trkpt>
            <trkpt lat="46.337520" lon="11.790900">
                <time>2017-07-15T08:11:26Z</time>
            </trkpt>
            <trkpt lat="46.337360" lon="11.790830">
                <time>2017-07-15T08:11:27Z</time>
            </trkpt>
            <trkpt lat="46.337210" lon="11.790760">
                <time>2017-07-15T08:11:28Z</time>
            </trkpt>
            <trkpt lat="46.337050" lon="11.790700">
                <time>2017-07-15T08:11:29Z</time>
            </trkpt>
            <trkpt lat="46.336890" lon="11.790650">
                <time>2017-07-15T08:11:30Z</time>
            </trkpt>
            <trkpt lat="46.336720" lon="11.790620">
                <time>2017-07-15T08:11:31Z</time>
            </trkpt>
            <trkpt lat="46.336560" lon="11.790590">
                <time>2017-07-15T08:11:32Z</time>
            </trkpt>
            <trkpt lat="46.336410" lon="11.790560">
                <time>2017-07-15T08:11:33Z</time>
            </trkpt>
            <trkpt lat="46.336240" lon="11.790510">
                <time>2017-07-15T08:11:34Z</time>
            </trkpt>
            <trkpt lat="46.336070" lon="11.790430">
                <time>2017-07-15T08:11:35Z</time>
            </trkpt>
            <trkpt lat="46.335920" lon="11.790360">
                <time>2017-07-15T08:11:36Z</time>
            </trkpt>
            <trkpt lat="46.335750" lon="11.790300">
                <time>2017-07-15T08:11:37Z</time>
            </trkpt>
            <trkpt lat="46.335560" lon="11.790230">
                <time>2017-07-15T08:11:38Z</time>
            </trkpt>
            <trkpt lat="46.335390" lon="11.790170">
                <time>2017-07-15T08:11:39Z</time>
            </trkpt>
            <trkpt lat="46.335200" lon="11.790110">
                <time>2017-07-15T08:11:40Z</time>
            </trkpt>
            <trkpt lat="46.335030" lon="11.790040">
                <time>2017-07-15T08:11:41Z</time>
            </trkpt>
            <trkpt lat="46.334850" lon="11.789970">
                <time>2017-07-15T08:11:42Z</time>
            </trkpt>
            <trkpt lat="46.334670" lon="11.789880">
                <time>2017-07-15T08:11:43Z</time>
            </trkpt>
            <trkpt lat="46.334510" lon="11.789810">
                <time>2017-07-15T08:11:44Z</time>
            </trkpt>
            <trkpt lat="46.334340" lon="11.789730">
                <time>2017-07-15T08:11:45Z</time>
            </trkpt>
            <trkpt lat="46.334170" lon="11.789650">
                <time>2017-07-15T08:11:46Z</time>
            </trkpt>
            <trkpt lat="46.334000" lon="11.789580">
                <time>2017-07-15T08:11:47Z</time>
            </trkpt>
            <trkpt lat="46.333810" lon="11.789520">
                <time>2017-07-15T08:11:48Z</time>
            </trkpt>
            <trkpt lat="46.333640" lon="11.789470">
                <time>2017-07-15T08:11:49Z</time>
            </trkpt>
            <trkpt lat="46.333450" lon="11.789410">
                <time>2017-07-15T08:11:50Z</time>
            </trkpt>
            <trkpt lat="46.333260" lon="11.789330">
                <time>2017-07-15T08:11:51Z</time>
            </trkpt>
            <trkpt lat="46.333090" lon="11.789260">
                <time>2017-07-15T08:11:52Z</time>
            </trkpt>
            <trkpt lat="46.332910" lon="11.789170">
                <time>2017-07-15T08:11:53Z</time>
            </trkpt>
            <trkpt lat="46.332710" lon="11.789080">
                <time>2017-07-15T08:11:54Z</time>
            </trkpt>
            <trkpt lat="46.332540" lon="11.789000">
                <time>2017-07-15T08:11:55Z</time>
            </trkpt>
            <trkpt lat="46.332350" lon="11.788920">
                <time>2017-07-15T08:11:56Z</time>
            </trkpt>
            <trkpt lat="46.332180" lon="11.788850">
                <time>2017-07-15T08:11:57Z</time>
            </trkpt>
            <trkpt lat="46.332000" lon="11.788790">
                <time>2017-07-15T08:11:58Z</time>
            </trkpt>
            <trkpt lat="46.331820" lon="11.788710">
                <time>2017-07-15T08:11:59Z</time>
            </trkpt>
            <trkpt lat="46.331650" lon="11.788640">
                <time>2017-07-15T08:12:00Z</time>
            </trkpt>
            <trkpt lat="46.331490" lon="11.788560">
                <time>2017-07-15T08:12:01Z</time>
            </trkpt>
            <trkpt lat="46.331330" lon="11.788480">
                <time>2017-07-15T08:12:02Z</time>
            </trkpt>
            <trkpt lat="46.331180" lon="11.788380">
                <time>2017-07-15T08:12:03Z</time>
            </trkpt>
            <trkpt lat="46.331020" lon="11.788240">
                <time>2017-07-15T08:12:04Z</time>
            </trkpt>
            <trkpt lat="46.330890" lon="11.788120">
                <time>2017-07-15T08:12:05Z</time>
            </trkpt>
            <trkpt lat="46.330730" lon="11.788010">
                <time>2017-07-15T08:12:06Z</time>
            </trkpt>
            <trkpt lat="46.330560" lon="11.787930">
                <time>2017-07-15T08:12:07Z</time>
            </trkpt>
            <trkpt lat="46.330410" lon="11.787860">
                <time>2017-07-15T08:12:08Z</time>
            </trkpt>
            <trkpt lat="46.330260" lon="11.787780">
                <time>2017-07-15T08:12:09Z</time>
            </trkpt>
            <trkpt lat="46.330100" lon="11.787670">
                <time>2017-07-15T08:12:10Z</time>
            </trkpt>
            <trkpt lat="46.329970" lon="11.787550">
                <time>2017-07-15T08:12:11Z</time>
            </trkpt>
            <trkpt lat="46.329820" lon="11.787400">
                <time>2017-07-15T08:12:12Z</time>
            </trkpt>
            <trkpt lat="46.329680" lon="11.787250">
                <time>2017-07-15T08:12:13Z</time>
            </trkpt>
            <trkpt lat="46.329530" lon="11.787080">
                <time>2017-07-15T08:12:14Z</time>
            </trkpt>
            <trkpt lat="46.329370" lon="11.786890">
                <time>2017-07-15T08:12:15Z</time>
            </trkpt>
            <trkpt lat="46.329230" lon="11.786710">
                <time>2017-07-15T08:12:16Z</time>
            </trkpt>
            <trkpt lat="46.329080" lon="11.786510">
                <time>2017-07-15T08:12:17Z</time>
            </trkpt>
            <trkpt lat="46.328940" lon="11.786310">
                <time>2017-07-15T08:12:18Z</time>
            </trkpt>
            <trkpt lat="46.328810" lon="11.786100">
                <time>2017-07-15T08:12:19Z</time>
            </trkpt>
            <trkpt lat="46.328660" lon="11.785890">
                <time>2017-07-15T08:12:20Z</time>
            </trkpt>
            <trkpt lat="46.328540" lon="11.785700">
                <time>2017-07-15T08:12:21Z</time>
            </trkpt>
            <trkpt lat="46.328410" lon="11.785500">
                <time>2017-07-15T08:12:22Z</time>
            </trkpt>
            <trkpt lat="46.328280" lon="11.785290">
                <time>2017-07-15T08:12:23Z</time>
            </trkpt>
            <trkpt lat="46.328180" lon="11.785090">
                <time>2017-07-15T08:12:24Z</time>
            </trkpt>
            <trkpt lat="46.328060" lon="11.784880">
                <time>2017-07-15T08:12:25Z</time>
            </trkpt>
            <trkpt lat="46.327940" lon="11.784660">
                <time>2017-07-15T08:12:26Z</time>
            </trkpt>
            <trkpt lat="46.327830" lon="11.784470">
                <time>2017-07-15T08:12:27Z</time>
            </trkpt>
            <trkpt lat="46.327710" lon="11.784250">
                <time>2017-07-15T08:12:28Z</time>
            </trkpt>
            <trkpt lat="46.327600" lon="11.784060">
                <time>2017-07-15T08:12:29Z</time>
            </trkpt>
            <trkpt lat="46.327500" lon="11.783860">
                <time>2017-07-15T08:12:30Z</time>
            </trkpt>
            <trkpt lat="46.327390" lon="11.783650">
                <time>2017-07-15T08:12:31Z</time>
            </trkpt>
            <trkpt lat="46.327290" lon="11.783470">
                <time>2017-07-15T08:12:32Z</time>
            </trkpt>
            <trkpt lat="46.327170" lon="11.783310">
                <time>2017-07-15T08:12:33Z</time>
            </trkpt>
            <trkpt lat="46.327050" lon="11.783150">
                <time>2017-07-15T08:12:34Z</time>
            </trkpt>
            <trkpt lat="46.326920" lon="11.783000">
                <time>2017-07-15T08:12:35Z</time>
            </trkpt>
            <trkpt lat="46.326790" lon="11.782830">
                <time>2017-07-15T08:12:36Z</time>
            </trkpt>
            <trkpt lat="46.326690" lon="11.782690">
                <time>2017-07-15T08:12:37Z</time>
            </trkpt>
            <trkpt lat="46.326580" lon="11.782550">
                <time>2017-07-15T08:12:38Z</time>
            </trkpt>
            <trkpt lat="46.326460" lon="11.782440">
                <time>2017-07-15T08:12:39Z</time>
            </trkpt>
            <trkpt lat="46.326340" lon="11.782350">
                <time>2017-07-15T08:12:40Z</time>
            </trkpt>
            <trkpt lat="46.326230" lon="11.782230">
                <time>2017-07-15T08:12:41Z</time>
            </trkpt>
            <trkpt lat="46.326120" lon="11.782080">
                <time>2017-07-15T08:12:42Z</time>
            </trkpt>
            <trkpt lat="46.326030" lon="11.781950">
                <time>2017-07-15T08:12:43Z</time>
            </trkpt>
            <trkpt lat="46.325900" lon="11.781810">
                <time>2017-07-15T08:12:44Z</time>
            </trkpt>
            <trkpt lat="46.325780" lon="11.781680">
                <time>2017-07-15T08:12:45Z</time>
            </trkpt>
            <trkpt lat="46.325640" lon="11.781530">
                <time>2017-07-15T08:12:46Z</time>
            </trkpt>
            <trkpt lat="46.325520" lon="11.781340">
                <time>2017-07-15T08:12:47Z</time>
            </trkpt>
            <trkpt lat="46.325400" lon="11.781180">
                <time>2017-07-15T08:12:48Z</time>
            </trkpt>
            <trkpt lat="46.325270" lon="11.781020">
                <time>2017-07-15T08:12:49Z</time>
            </trkpt>
            <trkpt lat="46.325130" lon="11.780880">
                <time>2017-07-15T08:12:50Z</time>
            </trkpt>
            <trkpt lat="46.324980" lon="11.780740">
                <time>2017-07-15T08:12:51Z</time>
            </trkpt>
            <trkpt lat="46.324830" lon="11.780590">
                <time>2017-07-15T08:12:52Z</time>
            </trkpt>
            <trkpt lat="46.324710" lon="11.780430">
                <time>2017-07-15T08:12:53Z</time>
            </trkpt>
            <trkpt lat="46.324600" lon="11.780250">
                <time>2017-07-15T08:12:54Z</time>
            </trkpt>
            <trkpt lat="46.324500" lon="11.780040">
                <time>2017-07-15T08:12:55Z</time>
            </trkpt>
            <trkpt lat="46.324410" lon="11.779830">
                <time>2017-07-15T08:12:56Z</time>
            </trkpt>
            <trkpt lat="46.324320" lon="11.779610">
                <time>2017-07-15T08:12:57Z</time>
            </trkpt>
            <trkpt lat="46.324200" lon="11.779390">
                <time>2017-07-15T08:12:58Z</time>
            </trkpt>
            <trkpt lat="46.324080" lon="11.779220">
                <time>2017-07-15T08:12:59Z</time>
            </trkpt>
            <trkpt lat="46.323940" lon="11.779020">
                <time>2017-07-15T08:13:00Z</time>
            </trkpt>
            <trkpt lat="46.323810" lon="11.778840">
                <time>2017-07-15T08:13:01Z</time>
            </trkpt>
            <trkpt lat="46.323680" lon="11.778640">
                <time>2017-07-15T08:13:02Z</time>
            </trkpt>
            <trkpt lat="46.323550" lon="11.778430">
                <time>2017-07-15T08:13:03Z</time>
            </trkpt>
            <trkpt lat="46.323420" lon="11.778260">
                <time>2017-07-15T08:13:04Z</time>
            </trkpt>
            <trkpt lat="46.323280" lon="11.778090">
                <time>2017-07-15T08:13:05Z</time>
            </trkpt>
            <trkpt lat="46.323160" lon="11.777950">
                <time>2017-07-15T08:13:06Z</time>
            </trkpt>
            <trkpt lat="46.323040" lon="11.777830">
                <time>2017-07-15T08:13:07Z</time>
            </trkpt>
            <trkpt lat="46.322940" lon="11.777720">
                <time>2017-07-15T08:13:08Z</time>
            </trkpt>
            <trkpt lat="46.322860" lon="11.777620">
                <time>2017-07-15T08:13:09Z</time>
            </trkpt>
            <trkpt lat="46.322800" lon="11.777540">
                <time>2017-07-15T08:13:10Z</time>
            </trkpt>
            <trkpt lat="46.322740" lon="11.777470">
                <time>2017-07-15T08:13:11Z</time>
            </trkpt>
            <trkpt lat="46.322690" lon="11.777440">
                <time>2017-07-15T08:13:12Z</time>
            </trkpt>
            <trkpt lat="46.322640" lon="11.777450">
                <time>2017-07-15T08:13:13Z</time>
            </trkpt>
            <trkpt lat="46.322600" lon="11.777510">
                <time>2017-07-15T08:13:14Z</time>
            </trkpt>
            <trkpt lat="46.322600" lon="11.777590">
                <time>2017-07-15T08:13:15Z</time>
            </trkpt>
            <trkpt lat="46.322660" lon="11.777670">
                <time>2017-07-15T08:13:16Z</time>
            </trkpt>
            <trkpt lat="46.322720" lon="11.777740">
                <time>2017-07-15T08:13:17Z</time>
            </trkpt>
            <trkpt lat="46.322790" lon="11.777860">
                <time>2017-07-15T08:13:18Z</time>
            </trkpt>
            <trkpt lat="46.322870" lon="11.778000">
                <time>2017-07-15T08:13:19Z</time>
            </trkpt>
            <trkpt lat="46.322940" lon="11.778130">
                <time>2017-07-15T08:13:20Z</time>
            </trkpt>
            <trkpt lat="46.323010" lon="11.778260">
                <time>2017-07-15T08:13:21Z</time>
            </trkpt>
            <trkpt lat="46.323050" lon="11.778380">
                <time>2017-07-15T08:13:22Z</time>
            </trkpt>
            <trkpt lat="46.323070" lon="11.778500">
                <time>2017-07-15T08:13:23Z</time>
            </trkpt>
            <trkpt lat="46.323040" lon="11.778590">
                <time>2017-07-15T08:13:24Z</time>
            </trkpt>
            <trkpt lat="46.322990" lon="11.778670">
                <time>2017-07-15T08:13:25Z</time>
            </trkpt>
            <trkpt lat="46.322930" lon="11.778730">
                <time>2017-07-15T08:13:26Z</time>
            </trkpt>
            <trkpt lat="46.322830" lon="11.778700">
                <time>2017-07-15T08:13:27Z</time>
            </trkpt>
            <trkpt lat="46.322700" lon="11.778590">
                <time>2017-07-15T08:13:28Z</time>
            </trkpt>
            <trkpt lat="46.322570" lon="11.778540">
                <time>2017-07-15T08:13:29Z</time>
            </trkpt>
            <trkpt lat="46.322440" lon="11.778490">
                <time>2017-07-15T08:13:30Z</time>
            </trkpt>
            <trkpt lat="46.322320" lon="11.778450">
                <time>2017-07-15T08:13:31Z</time>
            </trkpt>
            <trkpt lat="46.322170" lon="11.778410">
                <time>2017-07-15T08:13:32Z</time>
            </trkpt>
            <trkpt lat="46.322040" lon="11.778370">
                <time>2017-07-15T08:13:33Z</time>
            </trkpt>
            <trkpt lat="46.321920" lon="11.778310">
                <time>2017-07-15T08:13:34Z</time>
            </trkpt>
            <trkpt lat="46.321770" lon="11.778220">
                <time>2017-07-15T08:13:35Z</time>
            </trkpt>
            <trkpt lat="46.321650" lon="11.778140">
                <time>2017-07-15T08:13:36Z</time>
            </trkpt>
            <trkpt lat="46.321520" lon="11.778030">
                <time>2017-07-15T08:13:37Z</time>
            </trkpt>
            <trkpt lat="46.321380" lon="11.777930">
                <time>2017-07-15T08:13:38Z</time>
            </trkpt>
            <trkpt lat="46.321250" lon="11.777820">
                <time>2017-07-15T08:13:39Z</time>
            </trkpt>
            <trkpt lat="46.321130" lon="11.777680">
                <time>2017-07-15T08:13:40Z</time>
            </trkpt>
            <trkpt lat="46.321040" lon="11.777490">
                <time>2017-07-15T08:13:41Z</time>
            </trkpt>
            <trkpt lat="46.320940" lon="11.777300">
                <time>2017-07-15T08:13:42Z</time>
            </trkpt>
            <trkpt lat="46.320820" lon="11.777120">
                <time>2017-07-15T08:13:43Z</time>
            </trkpt>
            <trkpt lat="46.320730" lon="11.776950">
                <time>2017-07-15T08:13:44Z</time>
            </trkpt>
            <trkpt lat="46.320630" lon="11.776780">
                <time>2017-07-15T08:13:45Z</time>
            </trkpt>
            <trkpt lat="46.320540" lon="11.776580">
                <time>2017-07-15T08:13:46Z</time>
            </trkpt>
            <trkpt lat="46.320470" lon="11.776370">
                <time>2017-07-15T08:13:47Z</time>
            </trkpt>
            <trkpt lat="46.320400" lon="11.776140">
                <time>2017-07-15T08:13:48Z</time>
            </trkpt>
            <trkpt lat="46.320330" lon="11.775920">
                <time>2017-07-15T08:13:49Z</time>
            </trkpt>
            <trkpt lat="46.320250" lon="11.775700">
                <time>2017-07-15T08:13:50Z</time>
            </trkpt>
            <trkpt lat="46.320170" lon="11.775480">
                <time>2017-07-15T08:13:51Z</time>
            </trkpt>
            <trkpt lat="46.320100" lon="11.775280">
                <time>2017-07-15T08:13:52Z</time>
            </trkpt>
            <trkpt lat="46.320020" lon="11.775080">
                <time>2017-07-15T08:13:53Z</time>
            </trkpt>
            <trkpt lat="46.319920" lon="11.774890">
                <time>2017-07-15T08:13:54Z</time>
            </trkpt>
            <trkpt lat="46.319830" lon="11.774710">
                <time>2017-07-15T08:13:55Z</time>
            </trkpt>
            <trkpt lat="46.319730" lon="11.774510">
                <time>2017-07-15T08:13:56Z</time>
            </trkpt>
            <trkpt lat="46.319660" lon="11.774320">
                <time>2017-07-15T08:13:57Z</time>
            </trkpt>
            <trkpt lat="46.319590" lon="11.774130">
                <time>2017-07-15T08:13:58Z</time>
            </trkpt>
            <trkpt lat="46.319530" lon="11.773920">
                <time>2017-07-15T08:13:59Z</time>
            </trkpt>
            <trkpt lat="46.319480" lon="11.773750">
                <time>2017-07-15T08:14:00Z</time>
            </trkpt>
            <trkpt lat="46.319440" lon="11.773570">
                <time>2017-07-15T08:14:01Z</time>
            </trkpt>
            <trkpt lat="46.319390" lon="11.773380">
                <time>2017-07-15T08:14:02Z</time>
            </trkpt>
            <trkpt lat="46.319350" lon="11.773220">
                <time>2017-07-15T08:14:03Z</time>
            </trkpt>
            <trkpt lat="46.319310" lon="11.773040">
                <time>2017-07-15T08:14:04Z</time>
            </trkpt>
            <trkpt lat="46.319270" lon="11.772890">
                <time>2017-07-15T08:14:05Z</time>
            </trkpt>
            <trkpt lat="46.319230" lon="11.772740">
                <time>2017-07-15T08:14:06Z</time>
            </trkpt>
            <trkpt lat="46.319220" lon="11.772570">
                <time>2017-07-15T08:14:07Z</time>
            </trkpt>
            <trkpt lat="46.319240" lon="11.772420">
                <time>2017-07-15T08:14:08Z</time>
            </trkpt>
            <trkpt lat="46.319280" lon="11.772250">
                <time>2017-07-15T08:14:09Z</time>
            </trkpt>
            <trkpt lat="46.319330" lon="11.772070">
                <time>2017-07-15T08:14:10Z</time>
            </trkpt>
            <trkpt lat="46.319380" lon="11.771890">
                <time>2017-07-15T08:14:11Z</time>
            </trkpt>
            <trkpt lat="46.319420" lon="11.771700">
                <time>2017-07-15T08:14:12Z</time>
            </trkpt>
            <trkpt lat="46.319450" lon="11.771520">
                <time>2017-07-15T08:14:13Z</time>
            </trkpt>
            <trkpt lat="46.319490" lon="11.771340">
                <time>2017-07-15T08:14:14Z</time>
            </trkpt>
            <trkpt lat="46.319540" lon="11.771150">
                <time>2017-07-15T08:14:15Z</time>
            </trkpt>
            <trkpt lat="46.319570" lon="11.771000">
                <time>2017-07-15T08:14:16Z</time>
            </trkpt>
            <trkpt lat="46.319610" lon="11.770840">
                <time>2017-07-15T08:14:17Z</time>
            </trkpt>
            <trkpt lat="46.319640" lon="11.770670">
                <time>2017-07-15T08:14:18Z</time>
            </trkpt>
            <trkpt lat="46.319660" lon="11.770520">
                <time>2017-07-15T08:14:19Z</time>
            </trkpt>
            <trkpt lat="46.319680" lon="11.770340">
                <time>2017-07-15T08:14:20Z</time>
            </trkpt>
            <trkpt lat="46.319710" lon="11.770160">
                <time>2017-07-15T08:14:21Z</time>
            </trkpt>
            <trkpt lat="46.319710" lon="11.769970">
                <time>2017-07-15T08:14:22Z</time>
            </trkpt>
            <trkpt lat="46.319690" lon="11.769750">
                <time>2017-07-15T08:14:23Z</time>
            </trkpt>
            <trkpt lat="46.319680" lon="11.769570">
                <time>2017-07-15T08:14:24Z</time>
            </trkpt>
            <trkpt lat="46.319670" lon="11.769380">
                <time>2017-07-15T08:14:25Z</time>
            </trkpt>
            <trkpt lat="46.319660" lon="11.769190">
                <time>2017-07-15T08:14:26Z</time>
            </trkpt>
            <trkpt lat="46.319640" lon="11.768990">
                <time>2017-07-15T08:14:27Z</time>
            </trkpt>
            <trkpt lat="46.319590" lon="11.768780">
                <time>2017-07-15T08:14:28Z</time>
            </trkpt>
            <trkpt lat="46.319540" lon="11.768610">
                <time>2017-07-15T08:14:29Z</time>
            </trkpt>
            <trkpt lat="46.319470" lon="11.768430">
                <time>2017-07-15T08:14:30Z</time>
            </trkpt>
            <trkpt lat="46.319380" lon="11.768270">
                <time>2017-07-15T08:14:31Z</time>
            </trkpt>
            <trkpt lat="46.319310" lon="11.768130">
                <time>2017-07-15T08:14:32Z</time>
            </trkpt>
            <trkpt lat="46.319260" lon="11.767970">
                <time>2017-07-15T08:14:33Z</time>
            </trkpt>
            <trkpt lat="46.319230" lon="11.767800">
                <time>2017-07-15T08:14:34Z</time>
            </trkpt>
            <trkpt lat="46.319230" lon="11.767650">
                <time>2017-07-15T08:14:35Z</time>
            </trkpt>
            <trkpt lat="46.319250" lon="11.767490">
                <time>2017-07-15T08:14:36Z</time>
            </trkpt>
            <trkpt lat="46.319280" lon="11.767360">
                <time>2017-07-15T08:14:37Z</time>
            </trkpt>
            <trkpt lat="46.319310" lon="11.767230">
                <time>2017-07-15T08:14:38Z</time>
            </trkpt>
            <trkpt lat="46.319350" lon="11.767090">
                <time>2017-07-15T08:14:39Z</time>
            </trkpt>
            <trkpt lat="46.319380" lon="11.766970">
                <time>2017-07-15T08:14:40Z</time>
            </trkpt>
            <trkpt lat="46.319400" lon="11.766820">
                <time>2017-07-15T08:14:41Z</time>
            </trkpt>
            <trkpt lat="46.319400" lon="11.766670">
                <time>2017-07-15T08:14:42Z</time>
            </trkpt>
            <trkpt lat="46.319370" lon="11.766520">
                <time>2017-07-15T08:14:43Z</time>
            </trkpt>
            <trkpt lat="46.319320" lon="11.766360">
                <time>2017-07-15T08:14:44Z</time>
            </trkpt>
            <trkpt lat="46.319250" lon="11.766220">
                <time>2017-07-15T08:14:45Z</time>
            </trkpt>
            <trkpt lat="46.319180" lon="11.766080">
                <time>2017-07-15T08:14:46Z</time>
            </trkpt>
            <trkpt lat="46.319140" lon="11.765910">
                <time>2017-07-15T08:14:47Z</time>
            </trkpt>
            <trkpt lat="46.319110" lon="11.765740">
                <time>2017-07-15T08:14:48Z</time>
            </trkpt>
            <trkpt lat="46.319070" lon="11.765540">
                <time>2017-07-15T08:14:49Z</time>
            </trkpt>
            <trkpt lat="46.319020" lon="11.765340">
                <time>2017-07-15T08:14:50Z</time>
            </trkpt>
            <trkpt lat="46.318970" lon="11.765160">
                <time>2017-07-15T08:14:51Z</time>
            </trkpt>
            <trkpt lat="46.318930" lon="11.764950">
                <time>2017-07-15T08:14:52Z</time>
            </trkpt>
            <trkpt lat="46.318910" lon="11.764760">
                <time>2017-07-15T08:14:53Z</time>
            </trkpt>
            <trkpt lat="46.318890" lon="11.764530">
                <time>2017-07-15T08:14:54Z</time>
            </trkpt>
            <trkpt lat="46.318850" lon="11.764320">
                <time>2017-07-15T08:14:55Z</time>
            </trkpt>
            <trkpt lat="46.318780" lon="11.764140">
                <time>2017-07-15T08:14:56Z</time>
            </trkpt>
            <trkpt lat="46.318700" lon="11.763980">
                <time>2017-07-15T08:14:57Z</time>
            </trkpt>
            <trkpt lat="46.318620" lon="11.763830">
                <time>2017-07-15T08:14:58Z</time>
            </trkpt>
            <trkpt lat="46.318550" lon="11.763670">
                <time>2017-07-15T08:14:59Z</time>
            </trkpt>
            <trkpt lat="46.318510" lon="11.763470">
                <time>2017-07-15T08:15:00Z</time>
            </trkpt>
            <trkpt lat="46.318470" lon="11.763280">
                <time>2017-07-15T08:15:01Z</time>
            </trkpt>
            <trkpt lat="46.318440" lon="11.763070">
                <time>2017-07-15T08:15:02Z</time>
            </trkpt>
            <trkpt lat="46.318400" lon="11.762850">
                <time>2017-07-15T08:15:03Z</time>
            </trkpt>
            <trkpt lat="46.318360" lon="11.762670">
                <time>2017-07-15T08:15:04Z</time>
            </trkpt>
            <trkpt lat="46.318300" lon="11.762490">
                <time>2017-07-15T08:15:05Z</time>
            </trkpt>
            <trkpt lat="46.318220" lon="11.762310">
                <time>2017-07-15T08:15:06Z</time>
            </trkpt>
            <trkpt lat="46.318140" lon="11.762170">
                <time>2017-07-15T08:15:07Z</time>
            </trkpt>
            <trkpt lat="46.318020" lon="11.762020">
                <time>2017-07-15T08:15:08Z</time>
            </trkpt>
            <trkpt lat="46.317910" lon="11.761910">
                <time>2017-07-15T08:15:09Z</time>
            </trkpt>
            <trkpt lat="46.317780" lon="11.761810">
                <time>2017-07-15T08:15:10Z</time>
            </trkpt>
            <trkpt lat="46.317620" lon="11.761730">
                <time>2017-07-15T08:15:11Z</time>
            </trkpt>
            <trkpt lat="46.317500" lon="11.761650">
                <time>2017-07-15T08:15:12Z</time>
            </trkpt>
            <trkpt lat="46.317370" lon="11.761560">
                <time>2017-07-15T08:15:13Z</time>
            </trkpt>
            <trkpt lat="46.317250" lon="11.761440">
                <time>2017-07-15T08:15:14Z</time>
            </trkpt>
            <trkpt lat="46.317120" lon="11.761300">
                <time>2017-07-15T08:15:15Z</time>
            </trkpt>
            <trkpt lat="46.317000" lon="11.761140">
                <time>2017-07-15T08:15:16Z</time>
            </trkpt>
            <trkpt lat="46.316900" lon="11.761010">
                <time>2017-07-15T08:15:17Z</time>
            </trkpt>
            <trkpt lat="46.316810" lon="11.760860">
                <time>2017-07-15T08:15:18Z</time>
            </trkpt>
            <trkpt lat="46.316740" lon="11.760660">
                <time>2017-07-15T08:15:19Z</time>
            </trkpt>
            <trkpt lat="46.316650" lon="11.760500">
                <time>2017-07-15T08:15:20Z</time>
            </trkpt>
            <trkpt lat="46.316540" lon="11.760340">
                <time>2017-07-15T08:15:21Z</time>
            </trkpt>
            <trkpt lat="46.316430" lon="11.760170">
                <time>2017-07-15T08:15:22Z</time>
            </trkpt>
            <trkpt lat="46.316340" lon="11.760010">
                <time>2017-07-15T08:15:23Z</time>
            </trkpt>
            <trkpt lat="46.316250" lon="11.759810">
                <time>2017-07-15T08:15:24Z</time>
            </trkpt>
            <trkpt lat="46.316170" lon="11.759620">
                <time>2017-07-15T08:15:25Z</time>
            </trkpt>
            <trkpt lat="46.316080" lon="11.759430">
                <time>2017-07-15T08:15:26Z</time>
            </trkpt>
            <trkpt lat="46.315970" lon="11.759230">
                <time>2017-07-15T08:15:27Z</time>
            </trkpt>
            <trkpt lat="46.315890" lon="11.759070">
                <time>2017-07-15T08:15:28Z</time>
            </trkpt>
            <trkpt lat="46.315800" lon="11.758910">
                <time>2017-07-15T08:15:29Z</time>
            </trkpt>
            <trkpt lat="46.315710" lon="11.758770">
                <time>2017-07-15T08:15:30Z</time>
            </trkpt>
            <trkpt lat="46.315620" lon="11.758660">
                <time>2017-07-15T08:15:31Z</time>
            </trkpt>
            <trkpt lat="46.315510" lon="11.758610">
                <time>2017-07-15T08:15:32Z</time>
            </trkpt>
            <trkpt lat="46.315410" lon="11.758600">
                <time>2017-07-15T08:15:33Z</time>
            </trkpt>
            <trkpt lat="46.315300" lon="11.758620">
                <time>2017-07-15T08:15:34Z</time>
            </trkpt>
            <trkpt lat="46.315180" lon="11.758630">
                <time>2017-07-15T08:15:35Z</time>
            </trkpt>
            <trkpt lat="46.315070" lon="11.758600">
                <time>2017-07-15T08:15:36Z</time>
            </trkpt>
            <trkpt lat="46.314930" lon="11.758550">
                <time>2017-07-15T08:15:37Z</time>
            </trkpt>
            <trkpt lat="46.314790" lon="11.758480">
                <time>2017-07-15T08:15:38Z</time>
            </trkpt>
            <trkpt lat="46.314670" lon="11.758410">
                <time>2017-07-15T08:15:39Z</time>
            </trkpt>
            <trkpt lat="46.314560" lon="11.758300">
                <time>2017-07-15T08:15:40Z</time>
            </trkpt>
            <trkpt lat="46.314490" lon="11.758200">
                <time>2017-07-15T08:15:41Z</time>
            </trkpt>
            <trkpt lat="46.314420" lon="11.758060">
                <time>2017-07-15T08:15:42Z</time>
            </trkpt>
            <trkpt lat="46.314340" lon="11.757900">
                <time>2017-07-15T08:15:43Z</time>
            </trkpt>
            <trkpt lat="46.314270" lon="11.757770">
                <time>2017-07-15T08:15:44Z</time>
            </trkpt>
            <trkpt lat="46.314190" lon="11.757630">
                <time>2017-07-15T08:15:45Z</time>
            </trkpt>
            <trkpt lat="46.314110" lon="11.757510">
                <time>2017-07-15T08:15:46Z</time>
            </trkpt>
            <trkpt lat="46.313990" lon="11.757450">
                <time>2017-07-15T08:15:47Z</time>
            </trkpt>
            <trkpt lat="46.313860" lon="11.757390">
                <time>2017-07-15T08:15:48Z</time>
            </trkpt>
            <trkpt lat="46.313740" lon="11.757330">
                <time>2017-07-15T08:15:49Z</time>
            </trkpt>
            <trkpt lat="46.313620" lon="11.757290">
                <time>2017-07-15T08:15:50Z</time>
            </trkpt>
            <trkpt lat="46.313520" lon="11.757280">
                <time>2017-07-15T08:15:51Z</time>
            </trkpt>
            <trkpt lat="46.313450" lon="11.757260">
                <time>2017-07-15T08:15:52Z</time>
            </trkpt>
            <trkpt lat="46.313360" lon="11.757250">
                <time>2017-07-15T08:15:53Z</time>
            </trkpt>
            <trkpt lat="46.313280" lon="11.757270">
                <time>2017-07-15T08:15:54Z</time>
            </trkpt>
            <trkpt lat="46.313200" lon="11.757270">
                <time>2017-07-15T08:15:55Z</time>
            </trkpt>
            <trkpt lat="46.313120" lon="11.757240">
                <time>2017-07-15T08:15:56Z</time>
            </trkpt>
            <trkpt lat="46.313040" lon="11.757200">
                <time>2017-07-15T08:15:57Z</time>
            </trkpt>
            <trkpt lat="46.312940" lon="11.757150">
                <time>2017-07-15T08:15:58Z</time>
            </trkpt>
            <trkpt lat="46.312830" lon="11.757130">
                <time>2017-07-15T08:15:59Z</time>
            </trkpt>
            <trkpt lat="46.312740" lon="11.757100">
                <time>2017-07-15T08:16:00Z</time>
            </trkpt>
            <trkpt lat="46.312630" lon="11.757090">
                <time>2017-07-15T08:16:01Z</time>
            </trkpt>
            <trkpt lat="46.312540" lon="11.757070">
                <time>2017-07-15T08:16:02Z</time>
            </trkpt>
            <trkpt lat="46.312450" lon="11.757060">
                <time>2017-07-15T08:16:03Z</time>
            </trkpt>
            <trkpt lat="46.312380" lon="11.757030">
                <time>2017-07-15T08:16:04Z</time>
            </trkpt>
            <trkpt lat="46.312320" lon="11.757000">
                <time>2017-07-15T08:16:05Z</time>
            </trkpt>
            <trkpt lat="46.312280" lon="11.756960">
                <time>2017-07-15T08:16:06Z</time>
            </trkpt>
            <trkpt lat="46.312260" lon="11.756890">
                <time>2017-07-15T08:16:07Z</time>
            </trkpt>
            <trkpt lat="46.312250" lon="11.756820">
                <time>2017-07-15T08:16:08Z</time>
            </trkpt>
            <trkpt lat="46.312260" lon="11.756730">
                <time>2017-07-15T08:16:09Z</time>
            </trkpt>
            <trkpt lat="46.312270" lon="11.756620">
                <time>2017-07-15T08:16:10Z</time>
            </trkpt>
            <trkpt lat="46.312270" lon="11.756510">
                <time>2017-07-15T08:16:11Z</time>
            </trkpt>
            <trkpt lat="46.312270" lon="11.756390">
                <time>2017-07-15T08:16:12Z</time>
            </trkpt>
            <trkpt lat="46.312250" lon="11.756270">
                <time>2017-07-15T08:16:13Z</time>
            </trkpt>
            <trkpt lat="46.312210" lon="11.756130">
                <time>2017-07-15T08:16:14Z</time>
            </trkpt>
            <trkpt lat="46.312170" lon="11.755970">
                <time>2017-07-15T08:16:15Z</time>
            </trkpt>
            <trkpt lat="46.312160" lon="11.755820">
                <time>2017-07-15T08:16:16Z</time>
            </trkpt>
            <trkpt lat="46.312170" lon="11.755660">
                <time>2017-07-15T08:16:17Z</time>
            </trkpt>
            <trkpt lat="46.312170" lon="11.755510">
                <time>2017-07-15T08:16:18Z</time>
            </trkpt>
            <trkpt lat="46.312140" lon="11.755390">
                <time>2017-07-15T08:16:19Z</time>
            </trkpt>
            <trkpt lat="46.312080" lon="11.755300">
                <time>2017-07-15T08:16:20Z</time>
            </trkpt>
            <trkpt lat="46.312010" lon="11.755240">
                <time>2017-07-15T08:16:21Z</time>
            </trkpt>
            <trkpt lat="46.311910" lon="11.755210">
                <time>2017-07-15T08:16:22Z</time>
            </trkpt>
            <trkpt lat="46.311800" lon="11.755190">
                <time>2017-07-15T08:16:23Z</time>
            </trkpt>
            <trkpt lat="46.311700" lon="11.755190">
                <time>2017-07-15T08:16:24Z</time>
            </trkpt>
            <trkpt lat="46.311580" lon="11.755170">
                <time>2017-07-15T08:16:25Z</time>
            </trkpt>
            <trkpt lat="46.311450" lon="11.755140">
                <time>2017-07-15T08:16:26Z</time>
            </trkpt>
            <trkpt lat="46.311330" lon="11.755110">
                <time>2017-07-15T08:16:27Z</time>
            </trkpt>
            <trkpt lat="46.311190" lon="11.755080">
                <time>2017-07-15T08:16:28Z</time>
            </trkpt>
            <trkpt lat="46.311080" lon="11.755050">
                <time>2017-07-15T08:16:29Z</time>
            </trkpt>
            <trkpt lat="46.310970" lon="11.755010">
                <time>2017-07-15T08:16:30Z</time>
            </trkpt>
            <trkpt lat="46.310860" lon="11.754950">
                <time>2017-07-15T08:16:31Z</time>
            </trkpt>
            <trkpt lat="46.310760" lon="11.754870">
                <time>2017-07-15T08:16:32Z</time>
            </trkpt>
            <trkpt lat="46.310660" lon="11.754770">
                <time>2017-07-15T08:16:33Z</time>
            </trkpt>
            <trkpt lat="46.310560" lon="11.754670">
                <time>2017-07-15T08:16:34Z</time>
            </trkpt>
            <trkpt lat="46.310440" lon="11.754610">
                <time>2017-07-15T08:16:35Z</time>
            </trkpt>
            <trkpt lat="46.310320" lon="11.754520">
                <time>2017-07-15T08:16:36Z</time>
            </trkpt>
            <trkpt lat="46.310230" lon="11.754420">
                <time>2017-07-15T08:16:37Z</time>
            </trkpt>
            <trkpt lat="46.310140" lon="11.754290">
                <time>2017-07-15T08:16:38Z</time>
            </trkpt>
            <trkpt lat="46.310040" lon="11.754150">
                <time>2017-07-15T08:16:39Z</time>
            </trkpt>
            <trkpt lat="46.309940" lon="11.754010">
                <time>2017-07-15T08:16:40Z</time>
            </trkpt>
            <trkpt lat="46.309840" lon="11.753860">
                <time>2017-07-15T08:16:41Z</time>
            </trkpt>
            <trkpt lat="46.309730" lon="11.753710">
                <time>2017-07-15T08:16:42Z</time>
            </trkpt>
            <trkpt lat="46.309640" lon="11.753560">
                <time>2017-07-15T08:16:43Z</time>
            </trkpt>
            <trkpt lat="46.309530" lon="11.753400">
                <time>2017-07-15T08:16:44Z</time>
            </trkpt>
            <trkpt lat="46.309440" lon="11.753260">
                <time>2017-07-15T08:16:45Z</time>
            </trkpt>
            <trkpt lat="46.309330" lon="11.753120">
                <time>2017-07-15T08:16:46Z</time>
            </trkpt>
            <trkpt lat="46.309240" lon="11.752940">
                <time>2017-07-15T08:16:47Z</time>
            </trkpt>
            <trkpt lat="46.309150" lon="11.752790">
                <time>2017-07-15T08:16:48Z</time>
            </trkpt>
            <trkpt lat="46.309060" lon="11.752630">
                <time>2017-07-15T08:16:49Z</time>
            </trkpt>
            <trkpt lat="46.308980" lon="11.752470">
                <time>2017-07-15T08:16:50Z</time>
            </trkpt>
            <trkpt lat="46.308900" lon="11.752340">
                <time>2017-07-15T08:16:51Z</time>
            </trkpt>
            <trkpt lat="46.308850" lon="11.752240">
                <time>2017-07-15T08:16:52Z</time>
            </trkpt>
            <trkpt lat="46.308810" lon="11.752160">
                <time>2017-07-15T08:16:53Z</time>
            </trkpt>
            <trkpt lat="46.308770" lon="11.752090">
                <time>2017-07-15T08:16:54Z</time>
            </trkpt>
            <trkpt lat="46.308740" lon="11.752000">
                <time>2017-07-15T08:16:55Z</time>
            </trkpt>
            <trkpt lat="46.308710" lon="11.751900">
                <time>2017-07-15T08:16:56Z</time>
            </trkpt>
            <trkpt lat="46.308670" lon="11.751780">
                <time>2017-07-15T08:16:57Z</time>
            </trkpt>
            <trkpt lat="46.308640" lon="11.751640">
                <time>2017-07-15T08:16:58Z</time>
            </trkpt>
            <trkpt lat="46.308600" lon="11.751500">
                <time>2017-07-15T08:16:59Z</time>
            </trkpt>
            <trkpt lat="46.308540" lon="11.751310">
                <time>2017-07-15T08:17:00Z</time>
            </trkpt>
            <trkpt lat="46.308500" lon="11.751160">
                <time>2017-07-15T08:17:01Z</time>
            </trkpt>
            <trkpt lat="46.308470" lon="11.751010">
                <time>2017-07-15T08:17:02Z</time>
            </trkpt>
            <trkpt lat="46.308470" lon="11.750830">
                <time>2017-07-15T08:17:03Z</time>
            </trkpt>
            <trkpt lat="46.308490" lon="11.750680">
                <time>2017-07-15T08:17:04Z</time>
            </trkpt>
            <trkpt lat="46.308510" lon="11.750520">
                <time>2017-07-15T08:17:05Z</time>
            </trkpt>
            <trkpt lat="46.308540" lon="11.750360">
                <time>2017-07-15T08:17:06Z</time>
            </trkpt>
            <trkpt lat="46.308570" lon="11.750190">
                <time>2017-07-15T08:17:07Z</time>
            </trkpt>
            <trkpt lat="46.308600" lon="11.750020">
                <time>2017-07-15T08:17:08Z</time>
            </trkpt>
            <trkpt lat="46.308660" lon="11.749850">
                <time>2017-07-15T08:17:09Z</time>
            </trkpt>
            <trkpt lat="46.308720" lon="11.749660">
                <time>2017-07-15T08:17:10Z</time>
            </trkpt>
            <trkpt lat="46.308800" lon="11.749480">
                <time>2017-07-15T08:17:11Z</time>
            </trkpt>
            <trkpt lat="46.308850" lon="11.749330">
                <time>2017-07-15T08:17:12Z</time>
            </trkpt>
            <trkpt lat="46.308920" lon="11.749210">
                <time>2017-07-15T08:17:13Z</time>
            </trkpt>
            <trkpt lat="46.309010" lon="11.749090">
                <time>2017-07-15T08:17:14Z</time>
            </trkpt>
            <trkpt lat="46.309130" lon="11.749020">
                <time>2017-07-15T08:17:15Z</time>
            </trkpt>
            <trkpt lat="46.309250" lon="11.748930">
                <time>2017-07-15T08:17:16Z</time>
            </trkpt>
            <trkpt lat="46.309370" lon="11.748830">
                <time>2017-07-15T08:17:17Z</time>
            </trkpt>
            <trkpt lat="46.309480" lon="11.748740">
                <time>2017-07-15T08:17:18Z</time>
            </trkpt>
            <trkpt lat="46.309570" lon="11.748620">
                <time>2017-07-15T08:17:19Z</time>
            </trkpt>
            <trkpt lat="46.309620" lon="11.748510">
                <time>2017-07-15T08:17:20Z</time>
            </trkpt>
            <trkpt lat="46.309660" lon="11.748380">
                <time>2017-07-15T08:17:21Z</time>
            </trkpt>
            <trkpt lat="46.309670" lon="11.748250">
                <time>2017-07-15T08:17:22Z</time>
            </trkpt>
            <trkpt lat="46.309650" lon="11.748120">
                <time>2017-07-15T08:17:23Z</time>
            </trkpt>
            <trkpt lat="46.309610" lon="11.747990">
                <time>2017-07-15T08:17:24Z</time>
            </trkpt>
            <trkpt lat="46.309550" lon="11.747870">
                <time>2017-07-15T08:17:25Z</time>
            </trkpt>
            <trkpt lat="46.309490" lon="11.747730">
                <time>2017-07-15T08:17:26Z</time>
            </trkpt>
            <trkpt lat="46.309420" lon="11.747580">
                <time>2017-07-15T08:17:27Z</time>
            </trkpt>
            <trkpt lat="46.309360" lon="11.747430">
                <time>2017-07-15T08:17:28Z</time>
            </trkpt>
            <trkpt lat="46.309310" lon="11.747280">
                <time>2017-07-15T08:17:29Z</time>
            </trkpt>
            <trkpt lat="46.309250" lon="11.747120">
                <time>2017-07-15T08:17:30Z</time>
            </trkpt>
            <trkpt lat="46.309220" lon="11.746960">
                <time>2017-07-15T08:17:31Z</time>
            </trkpt>
            <trkpt lat="46.309180" lon="11.746790">
                <time>2017-07-15T08:17:32Z</time>
            </trkpt>
            <trkpt lat="46.309160" lon="11.746640">
                <time>2017-07-15T08:17:33Z</time>
            </trkpt>
            <trkpt lat="46.309110" lon="11.746480">
                <time>2017-07-15T08:17:34Z</time>
            </trkpt>
            <trkpt lat="46.309050" lon="11.746320">
                <time>2017-07-15T08:17:35Z</time>
            </trkpt>
            <trkpt lat="46.308970" lon="11.746200">
                <time>2017-07-15T08:17:36Z</time>
            </trkpt>
            <trkpt lat="46.308880" lon="11.746070">
                <time>2017-07-15T08:17:37Z</time>
            </trkpt>
            <trkpt lat="46.308770" lon="11.745960">
                <time>2017-07-15T08:17:38Z</time>
            </trkpt>
            <trkpt lat="46.308660" lon="11.745860">
                <time>2017-07-15T08:17:39Z</time>
            </trkpt>
            <trkpt lat="46.308540" lon="11.745790">
                <time>2017-07-15T08:17:40Z</time>
            </trkpt>
            <trkpt lat="46.308450" lon="11.745720">
                <time>2017-07-15T08:17:41Z</time>
            </trkpt>
            <trkpt lat="46.308360" lon="11.745660">
                <time>2017-07-15T08:17:42Z</time>
            </trkpt>
            <trkpt lat="46.308290" lon="11.745600">
                <time>2017-07-15T08:17:43Z</time>
            </trkpt>
            <trkpt lat="46.308250" lon="11.745540">
                <time>2017-07-15T08:17:44Z</time>
            </trkpt>
            <trkpt lat="46.308210" lon="11.745470">
                <time>2017-07-15T08:17:45Z</time>
            </trkpt>
            <trkpt lat="46.308170" lon="11.745390">
                <time>2017-07-15T08:17:46Z</time>
            </trkpt>
            <trkpt lat="46.308130" lon="11.745310">
                <time>2017-07-15T08:17:47Z</time>
            </trkpt>
            <trkpt lat="46.308090" lon="11.745220">
                <time>2017-07-15T08:17:48Z</time>
            </trkpt>
            <trkpt lat="46.308060" lon="11.745130">
                <time>2017-07-15T08:17:49Z</time>
            </trkpt>
            <trkpt lat="46.308030" lon="11.745040">
                <time>2017-07-15T08:17:50Z</time>
            </trkpt>
            <trkpt lat="46.308000" lon="11.744930">
                <time>2017-07-15T08:17:51Z</time>
            </trkpt>
            <trkpt lat="46.307970" lon="11.744830">
                <time>2017-07-15T08:17:52Z</time>
            </trkpt>
            <trkpt lat="46.307940" lon="11.744710">
                <time>2017-07-15T08:17:53Z</time>
            </trkpt>
            <trkpt lat="46.307910" lon="11.744570">
                <time>2017-07-15T08:17:54Z</time>
            </trkpt>
            <trkpt lat="46.307860" lon="11.744420">
                <time>2017-07-15T08:17:55Z</time>
            </trkpt>
            <trkpt lat="46.307810" lon="11.744240">
                <time>2017-07-15T08:17:56Z</time>
            </trkpt>
            <trkpt lat="46.307780" lon="11.744070">
                <time>2017-07-15T08:17:57Z</time>
            </trkpt>
            <trkpt lat="46.307750" lon="11.743880">
                <time>2017-07-15T08:17:58Z</time>
            </trkpt>
            <trkpt lat="46.307710" lon="11.743670">
                <time>2017-07-15T08:17:59Z</time>
            </trkpt>
            <trkpt lat="46.307690" lon="11.743480">
                <time>2017-07-15T08:18:00Z</time>
            </trkpt>
            <trkpt lat="46.307660" lon="11.743260">
                <time>2017-07-15T08:18:01Z</time>
            </trkpt>
            <trkpt lat="46.307640" lon="11.743030">
                <time>2017-07-15T08:18:02Z</time>
            </trkpt>
            <trkpt lat="46.307610" lon="11.742820">
                <time>2017-07-15T08:18:03Z</time>
            </trkpt>
            <trkpt lat="46.307590" lon="11.742580">
                <time>2017-07-15T08:18:04Z</time>
            </trkpt>
            <trkpt lat="46.307570" lon="11.742380">
                <time>2017-07-15T08:18:05Z</time>
            </trkpt>
            <trkpt lat="46.307560" lon="11.742150">
                <time>2017-07-15T08:18:06Z</time>
            </trkpt>
            <trkpt lat="46.307560" lon="11.741930">
                <time>2017-07-15T08:18:07Z</time>
            </trkpt>
            <trkpt lat="46.307570" lon="11.741740">
                <time>2017-07-15T08:18:08Z</time>
            </trkpt>
            <trkpt lat="46.307580" lon="11.741550">
                <time>2017-07-15T08:18:09Z</time>
            </trkpt>
            <trkpt lat="46.307590" lon="11.741360">
                <time>2017-07-15T08:18:10Z</time>
            </trkpt>
            <trkpt lat="46.307570" lon="11.741180">
                <time>2017-07-15T08:18:11Z</time>
            </trkpt>
            <trkpt lat="46.307530" lon="11.741000">
                <time>2017-07-15T08:18:12Z</time>
            </trkpt>
            <trkpt lat="46.307460" lon="11.740860">
                <time>2017-07-15T08:18:13Z</time>
            </trkpt>
            <trkpt lat="46.307390" lon="11.740710">
                <time>2017-07-15T08:18:14Z</time>
            </trkpt>
            <trkpt lat="46.307300" lon="11.740550">
                <time>2017-07-15T08:18:15Z</time>
            </trkpt>
            <trkpt lat="46.307210" lon="11.740400">
                <time>2017-07-15T08:18:16Z</time>
            </trkpt>
            <trkpt lat="46.307130" lon="11.740240">
                <time>2017-07-15T08:18:17Z</time>
            </trkpt>
            <trkpt lat="46.307040" lon="11.740060">
                <time>2017-07-15T08:18:18Z</time>
            </trkpt>
            <trkpt lat="46.306960" lon="11.739890">
                <time>2017-07-15T08:18:19Z</time>
            </trkpt>
            <trkpt lat="46.306890" lon="11.739690">
                <time>2017-07-15T08:18:20Z</time>
            </trkpt>
            <trkpt lat="46.306820" lon="11.739520">
                <time>2017-07-15T08:18:21Z</time>
            </trkpt>
            <trkpt lat="46.306760" lon="11.739330">
                <time>2017-07-15T08:18:22Z</time>
            </trkpt>
            <trkpt lat="46.306700" lon="11.739130">
                <time>2017-07-15T08:18:23Z</time>
            </trkpt>
            <trkpt lat="46.306660" lon="11.738980">
                <time>2017-07-15T08:18:24Z</time>
            </trkpt>
            <trkpt lat="46.306620" lon="11.738840">
                <time>2017-07-15T08:18:25Z</time>
            </trkpt>
            <trkpt lat="46.306590" lon="11.738710">
                <time>2017-07-15T08:18:26Z</time>
            </trkpt>
            <trkpt lat="46.306560" lon="11.738590">
                <time>2017-07-15T08:18:27Z</time>
            </trkpt>
            <trkpt lat="46.306530" lon="11.738460">
                <time>2017-07-15T08:18:28Z</time>
            </trkpt>
            <trkpt lat="46.306510" lon="11.738350">
                <time>2017-07-15T08:18:29Z</time>
            </trkpt>
            <trkpt lat="46.306490" lon="11.738220">
                <time>2017-07-15T08:18:30Z</time>
            </trkpt>
            <trkpt lat="46.306470" lon="11.738060">
                <time>2017-07-15T08:18:31Z</time>
            </trkpt>
            <trkpt lat="46.306450" lon="11.737910">
                <time>2017-07-15T08:18:32Z</time>
            </trkpt>
            <trkpt lat="46.306440" lon="11.737740">
                <time>2017-07-15T08:18:33Z</time>
            </trkpt>
            <trkpt lat="46.306410" lon="11.737550">
                <time>2017-07-15T08:18:34Z</time>
            </trkpt>
            <trkpt lat="46.306390" lon="11.737370">
                <time>2017-07-15T08:18:35Z</time>
            </trkpt>
            <trkpt lat="46.306370" lon="11.737170">
                <time>2017-07-15T08:18:36Z</time>
            </trkpt>
            <trkpt lat="46.306350" lon="11.737000">
                <time>2017-07-15T08:18:37Z</time>
            </trkpt>
            <trkpt lat="46.306330" lon="11.736830">
                <time>2017-07-15T08:18:38Z</time>
            </trkpt>
            <trkpt lat="46.306310" lon="11.736660">
                <time>2017-07-15T08:18:39Z</time>
            </trkpt>
            <trkpt lat="46.306260" lon="11.736520">
                <time>2017-07-15T08:18:40Z</time>
            </trkpt>
            <trkpt lat="46.306190" lon="11.736410">
                <time>2017-07-15T08:18:41Z</time>
            </trkpt>
            <trkpt lat="46.306100" lon="11.736330">
                <time>2017-07-15T08:18:42Z</time>
            </trkpt>
            <trkpt lat="46.305990" lon="11.736270">
                <time>2017-07-15T08:18:43Z</time>
            </trkpt>
            <trkpt lat="46.305880" lon="11.736250">
                <time>2017-07-15T08:18:44Z</time>
            </trkpt>
            <trkpt lat="46.305770" lon="11.736270">
                <time>2017-07-15T08:18:45Z</time>
            </trkpt>
            <trkpt lat="46.305660" lon="11.736300">
                <time>2017-07-15T08:18:46Z</time>
            </trkpt>
            <trkpt lat="46.305550" lon="11.736330">
                <time>2017-07-15T08:18:47Z</time>
            </trkpt>
            <trkpt lat="46.305450" lon="11.736310">
                <time>2017-07-15T08:18:48Z</time>
            </trkpt>
            <trkpt lat="46.305350" lon="11.736260">
                <time>2017-07-15T08:18:49Z</time>
            </trkpt>
            <trkpt lat="46.305260" lon="11.736160">
                <time>2017-07-15T08:18:50Z</time>
            </trkpt>
            <trkpt lat="46.305220" lon="11.736040">
                <time>2017-07-15T08:18:51Z</time>
            </trkpt>
            <trkpt lat="46.305170" lon="11.735840">
                <time>2017-07-15T08:18:52Z</time>
            </trkpt>
            <trkpt lat="46.305120" lon="11.735680">
                <time>2017-07-15T08:18:53Z</time>
            </trkpt>
            <trkpt lat="46.305050" lon="11.735510">
                <time>2017-07-15T08:18:54Z</time>
            </trkpt>
            <trkpt lat="46.304980" lon="11.735320">
                <time>2017-07-15T08:18:55Z</time>
            </trkpt>
            <trkpt lat="46.304940" lon="11.735130">
                <time>2017-07-15T08:18:56Z</time>
            </trkpt>
            <trkpt lat="46.304900" lon="11.734940">
                <time>2017-07-15T08:18:57Z</time>
            </trkpt>
            <trkpt lat="46.304860" lon="11.734740">
                <time>2017-07-15T08:18:58Z</time>
            </trkpt>
            <trkpt lat="46.304800" lon="11.734550">
                <time>2017-07-15T08:18:59Z</time>
            </trkpt>
            <trkpt lat="46.304720" lon="11.734340">
                <time>2017-07-15T08:19:00Z</time>
            </trkpt>
            <trkpt lat="46.304650" lon="11.734160">
                <time>2017-07-15T08:19:01Z</time>
            </trkpt>
            <trkpt lat="46.304570" lon="11.733960">
                <time>2017-07-15T08:19:02Z</time>
            </trkpt>
            <trkpt lat="46.304500" lon="11.733760">
                <time>2017-07-15T08:19:03Z</time>
            </trkpt>
            <trkpt lat="46.304440" lon="11.733590">
                <time>2017-07-15T08:19:04Z</time>
            </trkpt>
            <trkpt lat="46.304370" lon="11.733420">
                <time>2017-07-15T08:19:05Z</time>
            </trkpt>
            <trkpt lat="46.304260" lon="11.733280">
                <time>2017-07-15T08:19:06Z</time>
            </trkpt>
            <trkpt lat="46.304160" lon="11.733180">
                <time>2017-07-15T08:19:07Z</time>
            </trkpt>
            <trkpt lat="46.304010" lon="11.733090">
                <time>2017-07-15T08:19:08Z</time>
            </trkpt>
            <trkpt lat="46.303890" lon="11.733010">
                <time>2017-07-15T08:19:09Z</time>
            </trkpt>
            <trkpt lat="46.303760" lon="11.732910">
                <time>2017-07-15T08:19:10Z</time>
            </trkpt>
            <trkpt lat="46.303630" lon="11.732780">
                <time>2017-07-15T08:19:11Z</time>
            </trkpt>
            <trkpt lat="46.303520" lon="11.732650">
                <time>2017-07-15T08:19:12Z</time>
            </trkpt>
            <trkpt lat="46.303420" lon="11.732480">
                <time>2017-07-15T08:19:13Z</time>
            </trkpt>
            <trkpt lat="46.303340" lon="11.732300">
                <time>2017-07-15T08:19:14Z</time>
            </trkpt>
            <trkpt lat="46.303270" lon="11.732100">
                <time>2017-07-15T08:19:15Z</time>
            </trkpt>
            <trkpt lat="46.303220" lon="11.731880">
                <time>2017-07-15T08:19:16Z</time>
            </trkpt>
            <trkpt lat="46.303170" lon="11.731690">
                <time>2017-07-15T08:19:17Z</time>
            </trkpt>
            <trkpt lat="46.303110" lon="11.731480">
                <time>2017-07-15T08:19:18Z</time>
            </trkpt>
            <trkpt lat="46.303050" lon="11.731250">
                <time>2017-07-15T08:19:19Z</time>
            </trkpt>
            <trkpt lat="46.302980" lon="11.731050">
                <time>2017-07-15T08:19:20Z</time>
            </trkpt>
            <trkpt lat="46.302880" lon="11.730890">
                <time>2017-07-15T08:19:21Z</time>
            </trkpt>
            <trkpt lat="46.302770" lon="11.730730">
                <time>2017-07-15T08:19:22Z</time>
            </trkpt>
            <trkpt lat="46.302660" lon="11.730600">
                <time>2017-07-15T08:19:23Z</time>
            </trkpt>
            <trkpt lat="46.302540" lon="11.730440">
                <time>2017-07-15T08:19:24Z</time>
            </trkpt>
            <trkpt lat="46.302450" lon="11.730280">
                <time>2017-07-15T08:19:25Z</time>
            </trkpt>
            <trkpt lat="46.302350" lon="11.730120">
                <time>2017-07-15T08:19:26Z</time>
            </trkpt>
            <trkpt lat="46.302230" lon="11.729980">
                <time>2017-07-15T08:19:27Z</time>
            </trkpt>
            <trkpt lat="46.302120" lon="11.729860">
                <time>2017-07-15T08:19:28Z</time>
            </trkpt>
            <trkpt lat="46.301990" lon="11.729750">
                <time>2017-07-15T08:19:29Z</time>
            </trkpt>
            <trkpt lat="46.301850" lon="11.729650">
                <time>2017-07-15T08:19:30Z</time>
            </trkpt>
            <trkpt lat="46.301730" lon="11.729540">
                <time>2017-07-15T08:19:31Z</time>
            </trkpt>
            <trkpt lat="46.301610" lon="11.729430">
                <time>2017-07-15T08:19:32Z</time>
            </trkpt>
            <trkpt lat="46.301510" lon="11.729320">
                <time>2017-07-15T08:19:33Z</time>
            </trkpt>
            <trkpt lat="46.301420" lon="11.729160">
                <time>2017-07-15T08:19:34Z</time>
            </trkpt>
            <trkpt lat="46.301330" lon="11.728990">
                <time>2017-07-15T08:19:35Z</time>
            </trkpt>
            <trkpt lat="46.301270" lon="11.728830">
                <time>2017-07-15T08:19:36Z</time>
            </trkpt>
            <trkpt lat="46.301210" lon="11.728650">
                <time>2017-07-15T08:19:37Z</time>
            </trkpt>
            <trkpt lat="46.301160" lon="11.728470">
                <time>2017-07-15T08:19:38Z</time>
            </trkpt>
            <trkpt lat="46.301120" lon="11.728310">
                <time>2017-07-15T08:19:39Z</time>
            </trkpt>
            <trkpt lat="46.301070" lon="11.728150">
                <time>2017-07-15T08:19:40Z</time>
            </trkpt>
            <trkpt lat="46.301010" lon="11.728020">
                <time>2017-07-15T08:19:41Z</time>
            </trkpt>
            <trkpt lat="46.300950" lon="11.727900">
                <time>2017-07-15T08:19:42Z</time>
            </trkpt>
            <trkpt lat="46.300870" lon="11.727770">
                <time>2017-07-15T08:19:43Z</time>
            </trkpt>
            <trkpt lat="46.300810" lon="11.727660">
                <time>2017-07-15T08:19:44Z</time>
            </trkpt>
            <trkpt lat="46.300760" lon="11.727540">
                <time>2017-07-15T08:19:45Z</time>
            </trkpt>
            <trkpt lat="46.300700" lon="11.727400">
                <time>2017-07-15T08:19:46Z</time>
            </trkpt>
            <trkpt lat="46.300650" lon="11.727220">
                <time>2017-07-15T08:19:47Z</time>
            </trkpt>
            <trkpt lat="46.300600" lon="11.726980">
                <time>2017-07-15T08:19:48Z</time>
            </trkpt>
            <trkpt lat="46.300570" lon="11.726750">
                <time>2017-07-15T08:19:49Z</time>
            </trkpt>
            <trkpt lat="46.300530" lon="11.726470">
                <time>2017-07-15T08:19:50Z</time>
            </trkpt>
            <trkpt lat="46.300510" lon="11.726170">
                <time>2017-07-15T08:19:51Z</time>
            </trkpt>
            <trkpt lat="46.300500" lon="11.725910">
                <time>2017-07-15T08:19:52Z</time>
            </trkpt>
            <trkpt lat="46.300480" lon="11.725660">
                <time>2017-07-15T08:19:53Z</time>
            </trkpt>
            <trkpt lat="46.300470" lon="11.725390">
                <time>2017-07-15T08:19:54Z</time>
            </trkpt>
            <trkpt lat="46.300470" lon="11.725150">
                <time>2017-07-15T08:19:55Z</time>
            </trkpt>
            <trkpt lat="46.300450" lon="11.724900">
                <time>2017-07-15T08:19:56Z</time>
            </trkpt>
            <trkpt lat="46.300440" lon="11.724680">
                <time>2017-07-15T08:19:57Z</time>
            </trkpt>
            <trkpt lat="46.300420" lon="11.724430">
                <time>2017-07-15T08:19:58Z</time>
            </trkpt>
            <trkpt lat="46.300380" lon="11.724170">
                <time>2017-07-15T08:19:59Z</time>
            </trkpt>
            <trkpt lat="46.300340" lon="11.723940">
                <time>2017-07-15T08:20:00Z</time>
            </trkpt>
            <trkpt lat="46.300300" lon="11.723700">
                <time>2017-07-15T08:20:01Z</time>
            </trkpt>
            <trkpt lat="46.300280" lon="11.723480">
                <time>2017-07-15T08:20:02Z</time>
            </trkpt>
            <trkpt lat="46.300260" lon="11.723260">
                <time>2017-07-15T08:20:03Z</time>
            </trkpt>
            <trkpt lat="46.300260" lon="11.723040">
                <time>2017-07-15T08:20:04Z</time>
            </trkpt>
            <trkpt lat="46.300250" lon="11.722830">
                <time>2017-07-15T08:20:05Z</time>
            </trkpt>
            <trkpt lat="46.300260" lon="11.722600">
                <time>2017-07-15T08:20:06Z</time>
            </trkpt>
            <trkpt lat="46.300260" lon="11.722350">
                <time>2017-07-15T08:20:07Z</time>
            </trkpt>
            <trkpt lat="46.300270" lon="11.722120">
                <time>2017-07-15T08:20:08Z</time>
            </trkpt>
            <trkpt lat="46.300270" lon="11.721880">
                <time>2017-07-15T08:20:09Z</time>
            </trkpt>
            <trkpt lat="46.300280" lon="11.721610">
                <time>2017-07-15T08:20:10Z</time>
            </trkpt>
            <trkpt lat="46.300290" lon="11.721380">
                <time>2017-07-15T08:20:11Z</time>
            </trkpt>
            <trkpt lat="46.300310" lon="11.721100">
                <time>2017-07-15T08:20:12Z</time>
            </trkpt>
            <trkpt lat="46.300340" lon="11.720860">
                <time>2017-07-15T08:20:13Z</time>
            </trkpt>
            <trkpt lat="46.300370" lon="11.720600">
                <time>2017-07-15T08:20:14Z</time>
            </trkpt>
            <trkpt lat="46.300390" lon="11.720330">
                <time>2017-07-15T08:20:15Z</time>
            </trkpt>
            <trkpt lat="46.300410" lon="11.720100">
                <time>2017-07-15T08:20:16Z</time>
            </trkpt>
            <trkpt lat="46.300400" lon="11.719840">
                <time>2017-07-15T08:20:17Z</time>
            </trkpt>
            <trkpt lat="46.300390" lon="11.719600">
                <time>2017-07-15T08:20:18Z</time>
            </trkpt>
            <trkpt lat="46.300400" lon="11.719350">
                <time>2017-07-15T08:20:19Z</time>
            </trkpt>
            <trkpt lat="46.300440" lon="11.719100">
                <time>2017-07-15T08:20:20Z</time>
            </trkpt>
            <trkpt lat="46.300490" lon="11.718890">
                <time>2017-07-15T08:20:21Z</time>
            </trkpt>
            <trkpt lat="46.300570" lon="11.718680">
                <time>2017-07-15T08:20:22Z</time>
            </trkpt>
            <trkpt lat="46.300650" lon="11.718480">
                <time>2017-07-15T08:20:23Z</time>
            </trkpt>
            <trkpt lat="46.300710" lon="11.718300">
                <time>2017-07-15T08:20:24Z</time>
            </trkpt>
            <trkpt lat="46.300750" lon="11.718110">
                <time>2017-07-15T08:20:25Z</time>
            </trkpt>
            <trkpt lat="46.300780" lon="11.717890">
                <time>2017-07-15T08:20:26Z</time>
            </trkpt>
            <trkpt lat="46.300810" lon="11.717680">
                <time>2017-07-15T08:20:27Z</time>
            </trkpt>
            <trkpt lat="46.300860" lon="11.717440">
                <time>2017-07-15T08:20:28Z</time>
            </trkpt>
            <trkpt lat="46.300910" lon="11.717210">
                <time>2017-07-15T08:20:29Z</time>
            </trkpt>
            <trkpt lat="46.300960" lon="11.716960">
                <time>2017-07-15T08:20:30Z</time>
            </trkpt>
            <trkpt lat="46.301030" lon="11.716710">
                <time>2017-07-15T08:20:31Z</time>
            </trkpt>
            <trkpt lat="46.301100" lon="11.716520">
                <time>2017-07-15T08:20:32Z</time>
            </trkpt>
            <trkpt lat="46.301180" lon="11.716330">
                <time>2017-07-15T08:20:33Z</time>
            </trkpt>
            <trkpt lat="46.301260" lon="11.716150">
                <time>2017-07-15T08:20:34Z</time>
            </trkpt>
            <trkpt lat="46.301340" lon="11.715980">
                <time>2017-07-15T08:20:35Z</time>
            </trkpt>
            <trkpt lat="46.301440" lon="11.715840">
                <time>2017-07-15T08:20:36Z</time>
            </trkpt>
            <trkpt lat="46.301520" lon="11.715740">
                <time>2017-07-15T08:20:37Z</time>
            </trkpt>
            <trkpt lat="46.301630" lon="11.715650">
                <time>2017-07-15T08:20:38Z</time>
            </trkpt>
            <trkpt lat="46.301750" lon="11.715560">
                <time>2017-07-15T08:20:39Z</time>
            </trkpt>
            <trkpt lat="46.301870" lon="11.715490">
                <time>2017-07-15T08:20:40Z</time>
            </trkpt>
            <trkpt lat="46.302000" lon="11.715430">
                <time>2017-07-15T08:20:41Z</time>
            </trkpt>
            <trkpt lat="46.304930" lon="11.710590">
                <time>2017-07-15T08:21:11Z</time>
            </trkpt>
            <trkpt lat="46.305020" lon="11.710420">
                <time>2017-07-15T08:21:12Z</time>
            </trkpt>
            <trkpt lat="46.305130" lon="11.710190">
                <time>2017-07-15T08:21:13Z</time>
            </trkpt>
            <trkpt lat="46.305240" lon="11.709990">
                <time>2017-07-15T08:21:14Z</time>
            </trkpt>
            <trkpt lat="46.305340" lon="11.709810">
                <time>2017-07-15T08:21:15Z</time>
            </trkpt>
            <trkpt lat="46.305430" lon="11.709600">
                <time>2017-07-15T08:21:16Z</time>
            </trkpt>
            <trkpt lat="46.305480" lon="11.709390">
                <time>2017-07-15T08:21:17Z</time>
            </trkpt>
            <trkpt lat="46.305520" lon="11.709140">
                <time>2017-07-15T08:21:18Z</time>
            </trkpt>
            <trkpt lat="46.305570" lon="11.708870">
                <time>2017-07-15T08:21:19Z</time>
            </trkpt>
            <trkpt lat="46.305630" lon="11.708640">
                <time>2017-07-15T08:21:20Z</time>
            </trkpt>
            <trkpt lat="46.305700" lon="11.708380">
                <time>2017-07-15T08:21:21Z</time>
            </trkpt>
            <trkpt lat="46.305740" lon="11.708110">
                <time>2017-07-15T08:21:22Z</time>
            </trkpt>
            <trkpt lat="46.305770" lon="11.707820">
                <time>2017-07-15T08:21:23Z</time>
            </trkpt>
            <trkpt lat="46.305810" lon="11.707490">
                <time>2017-07-15T08:21:24Z</time>
            </trkpt>
            <trkpt lat="46.305850" lon="11.707220">
                <time>2017-07-15T08:21:25Z</time>
            </trkpt>
            <trkpt lat="46.305900" lon="11.706930">
                <time>2017-07-15T08:21:26Z</time>
            </trkpt>
            <trkpt lat="46.305940" lon="11.706620">
                <time>2017-07-15T08:21:27Z</time>
            </trkpt>
            <trkpt lat="46.305970" lon="11.706330">
                <time>2017-07-15T08:21:28Z</time>
            </trkpt>
            <trkpt lat="46.305990" lon="11.706040">
                <time>2017-07-15T08:21:29Z</time>
            </trkpt>
            <trkpt lat="46.306020" lon="11.705730">
                <time>2017-07-15T08:21:30Z</time>
            </trkpt>
            <trkpt lat="46.306050" lon="11.705480">
                <time>2017-07-15T08:21:31Z</time>
            </trkpt>
            <trkpt lat="46.306090" lon="11.705230">
                <time>2017-07-15T08:21:32Z</time>
            </trkpt>
            <trkpt lat="46.306100" lon="11.705010">
                <time>2017-07-15T08:21:33Z</time>
            </trkpt>
            <trkpt lat="46.306120" lon="11.704800">
                <time>2017-07-15T08:21:34Z</time>
            </trkpt>
            <trkpt lat="46.306150" lon="11.704580">
                <time>2017-07-15T08:21:35Z</time>
            </trkpt>
            <trkpt lat="46.306180" lon="11.704400">
                <time>2017-07-15T08:21:36Z</time>
            </trkpt>
            <trkpt lat="46.306220" lon="11.704210">
                <time>2017-07-15T08:21:37Z</time>
            </trkpt>
            <trkpt lat="46.306260" lon="11.704010">
                <time>2017-07-15T08:21:38Z</time>
            </trkpt>
            <trkpt lat="46.306310" lon="11.703810">
                <time>2017-07-15T08:21:39Z</time>
            </trkpt>
            <trkpt lat="46.306360" lon="11.703570">
                <time>2017-07-15T08:21:40Z</time>
            </trkpt>
            <trkpt lat="46.306410" lon="11.703370">
                <time>2017-07-15T08:21:41Z</time>
            </trkpt>
            <trkpt lat="46.306460" lon="11.703150">
                <time>2017-07-15T08:21:42Z</time>
            </trkpt>
            <trkpt lat="46.306510" lon="11.702940">
                <time>2017-07-15T08:21:43Z</time>
            </trkpt>
            <trkpt lat="46.306550" lon="11.702790">
                <time>2017-07-15T08:21:44Z</time>
            </trkpt>
            <trkpt lat="46.306580" lon="11.702660">
                <time>2017-07-15T08:21:45Z</time>
            </trkpt>
            <trkpt lat="46.306590" lon="11.702560">
                <time>2017-07-15T08:21:46Z</time>
            </trkpt>
            <trkpt lat="46.306610" lon="11.702470">
                <time>2017-07-15T08:21:47Z</time>
            </trkpt>
            <trkpt lat="46.306630" lon="11.702380">
                <time>2017-07-15T08:21:48Z</time>
            </trkpt>
            <trkpt lat="46.306640" lon="11.702300">
                <time>2017-07-15T08:21:49Z</time>
            </trkpt>
            <trkpt lat="46.306660" lon="11.702210">
                <time>2017-07-15T08:21:50Z</time>
            </trkpt>
            <trkpt lat="46.306690" lon="11.702110">
                <time>2017-07-15T08:21:51Z</time>
            </trkpt>
            <trkpt lat="46.306710" lon="11.702040">
                <time>2017-07-15T08:21:52Z</time>
            </trkpt>
            <trkpt lat="46.306730" lon="11.701960">
                <time>2017-07-15T08:21:53Z</time>
            </trkpt>
            <trkpt lat="46.306740" lon="11.701880">
                <time>2017-07-15T08:21:54Z</time>
            </trkpt>
            <trkpt lat="46.306770" lon="11.701790">
                <time>2017-07-15T08:21:55Z</time>
            </trkpt>
            <trkpt lat="46.306790" lon="11.701680">
                <time>2017-07-15T08:21:56Z</time>
            </trkpt>
            <trkpt lat="46.306830" lon="11.701550">
                <time>2017-07-15T08:21:57Z</time>
            </trkpt>
            <trkpt lat="46.306860" lon="11.701400">
                <time>2017-07-15T08:21:58Z</time>
            </trkpt>
            <trkpt lat="46.306910" lon="11.701210">
                <time>2017-07-15T08:21:59Z</time>
            </trkpt>
            <trkpt lat="46.306950" lon="11.701040">
                <time>2017-07-15T08:22:00Z</time>
            </trkpt>
            <trkpt lat="46.306990" lon="11.700850">
                <time>2017-07-15T08:22:01Z</time>
            </trkpt>
            <trkpt lat="46.307030" lon="11.700660">
                <time>2017-07-15T08:22:02Z</time>
            </trkpt>
            <trkpt lat="46.307070" lon="11.700490">
                <time>2017-07-15T08:22:03Z</time>
            </trkpt>
            <trkpt lat="46.307100" lon="11.700310">
                <time>2017-07-15T08:22:04Z</time>
            </trkpt>
            <trkpt lat="46.307140" lon="11.700150">
                <time>2017-07-15T08:22:05Z</time>
            </trkpt>
            <trkpt lat="46.307160" lon="11.699990">
                <time>2017-07-15T08:22:06Z</time>
            </trkpt>
            <trkpt lat="46.307180" lon="11.699820">
                <time>2017-07-15T08:22:07Z</time>
            </trkpt>
            <trkpt lat="46.307190" lon="11.699670">
                <time>2017-07-15T08:22:08Z</time>
            </trkpt>
            <trkpt lat="46.307190" lon="11.699510">
                <time>2017-07-15T08:22:09Z</time>
            </trkpt>
            <trkpt lat="46.307210" lon="11.699340">
                <time>2017-07-15T08:22:10Z</time>
            </trkpt>
            <trkpt lat="46.307220" lon="11.699170">
                <time>2017-07-15T08:22:11Z</time>
            </trkpt>
            <trkpt lat="46.307250" lon="11.698990">
                <time>2017-07-15T08:22:12Z</time>
            </trkpt>
            <trkpt lat="46.307280" lon="11.698830">
                <time>2017-07-15T08:22:13Z</time>
            </trkpt>
            <trkpt lat="46.307310" lon="11.698670">
                <time>2017-07-15T08:22:14Z</time>
            </trkpt>
            <trkpt lat="46.307340" lon="11.698520">
                <time>2017-07-15T08:22:15Z</time>
            </trkpt>
            <trkpt lat="46.307370" lon="11.698400">
                <time>2017-07-15T08:22:16Z</time>
            </trkpt>
            <trkpt lat="46.307380" lon="11.698290">
                <time>2017-07-15T08:22:17Z</time>
            </trkpt>
            <trkpt lat="46.307350" lon="11.698190">
                <time>2017-07-15T08:22:18Z</time>
            </trkpt>
            <trkpt lat="46.307310" lon="11.698120">
                <time>2017-07-15T08:22:19Z</time>
            </trkpt>
            <trkpt lat="46.307240" lon="11.698050">
                <time>2017-07-15T08:22:20Z</time>
            </trkpt>
            <trkpt lat="46.307170" lon="11.697990">
                <time>2017-07-15T08:22:21Z</time>
            </trkpt>
            <trkpt lat="46.307100" lon="11.697910">
                <time>2017-07-15T08:22:22Z</time>
            </trkpt>
            <trkpt lat="46.307030" lon="11.697810">
                <time>2017-07-15T08:22:23Z</time>
            </trkpt>
            <trkpt lat="46.307000" lon="11.697690">
                <time>2017-07-15T08:22:24Z</time>
            </trkpt>
            <trkpt lat="46.306990" lon="11.697550">
                <time>2017-07-15T08:22:25Z</time>
            </trkpt>
            <trkpt lat="46.307000" lon="11.697400">
                <time>2017-07-15T08:22:26Z</time>
            </trkpt>
            <trkpt lat="46.307010" lon="11.697240">
                <time>2017-07-15T08:22:27Z</time>
            </trkpt>
            <trkpt lat="46.307020" lon="11.697060">
                <time>2017-07-15T08:22:28Z</time>
            </trkpt>
            <trkpt lat="46.307030" lon="11.696900">
                <time>2017-07-15T08:22:29Z</time>
            </trkpt>
            <trkpt lat="46.307050" lon="11.696730">
                <time>2017-07-15T08:22:30Z</time>
            </trkpt>
            <trkpt lat="46.307060" lon="11.696540">
                <time>2017-07-15T08:22:31Z</time>
            </trkpt>
            <trkpt lat="46.307070" lon="11.696380">
                <time>2017-07-15T08:22:32Z</time>
            </trkpt>
            <trkpt lat="46.307100" lon="11.696200">
                <time>2017-07-15T08:22:33Z</time>
            </trkpt>
            <trkpt lat="46.307130" lon="11.696020">
                <time>2017-07-15T08:22:34Z</time>
            </trkpt>
            <trkpt lat="46.307160" lon="11.695850">
                <time>2017-07-15T08:22:35Z</time>
            </trkpt>
            <trkpt lat="46.307220" lon="11.695670">
                <time>2017-07-15T08:22:36Z</time>
            </trkpt>
            <trkpt lat="46.307290" lon="11.695530">
                <time>2017-07-15T08:22:37Z</time>
            </trkpt>
            <trkpt lat="46.307370" lon="11.695360">
                <time>2017-07-15T08:22:38Z</time>
            </trkpt>
            <trkpt lat="46.307450" lon="11.695180">
                <time>2017-07-15T08:22:39Z</time>
            </trkpt>
            <trkpt lat="46.307520" lon="11.695030">
                <time>2017-07-15T08:22:40Z</time>
            </trkpt>
            <trkpt lat="46.307590" lon="11.694860">
                <time>2017-07-15T08:22:41Z</time>
            </trkpt>
            <trkpt lat="46.307670" lon="11.694700">
                <time>2017-07-15T08:22:42Z</time>
            </trkpt>
            <trkpt lat="46.307740" lon="11.694540">
                <time>2017-07-15T08:22:43Z</time>
            </trkpt>
            <trkpt lat="46.307830" lon="11.694400">
                <time>2017-07-15T08:22:44Z</time>
            </trkpt>
            <trkpt lat="46.307920" lon="11.694280">
                <time>2017-07-15T08:22:45Z</time>
            </trkpt>
            <trkpt lat="46.308020" lon="11.694170">
                <time>2017-07-15T08:22:46Z</time>
            </trkpt>
            <trkpt lat="46.308130" lon="11.694060">
                <time>2017-07-15T08:22:47Z</time>
            </trkpt>
            <trkpt lat="46.308220" lon="11.693980">
                <time>2017-07-15T08:22:48Z</time>
            </trkpt>
            <trkpt lat="46.308310" lon="11.693900">
                <time>2017-07-15T08:22:49Z</time>
            </trkpt>
            <trkpt lat="46.308390" lon="11.693820">
                <time>2017-07-15T08:22:50Z</time>
            </trkpt>
            <trkpt lat="46.308450" lon="11.693760">
                <time>2017-07-15T08:22:51Z</time>
            </trkpt>
            <trkpt lat="46.308510" lon="11.693690">
                <time>2017-07-15T08:22:52Z</time>
            </trkpt>
            <trkpt lat="46.308540" lon="11.693640">
                <time>2017-07-15T08:22:53Z</time>
            </trkpt>
            <trkpt lat="46.308580" lon="11.693590">
                <time>2017-07-15T08:22:54Z</time>
            </trkpt>
            <trkpt lat="46.308610" lon="11.693540">
                <time>2017-07-15T08:22:55Z</time>
            </trkpt>
            <trkpt lat="46.308630" lon="11.693510">
                <time>2017-07-15T08:22:56Z</time>
            </trkpt>
            <trkpt lat="46.308660" lon="11.693490">
                <time>2017-07-15T08:22:57Z</time>
            </trkpt>
            <trkpt lat="46.308690" lon="11.693470">
                <time>2017-07-15T08:22:58Z</time>
            </trkpt>
            <trkpt lat="46.308690" lon="11.693470">
                <time>2017-07-15T08:22:59Z</time>
            </trkpt>
            <trkpt lat="46.308700" lon="11.693440">
                <time>2017-07-15T08:23:00Z</time>
            </trkpt>
            <trkpt lat="46.308700" lon="11.693440">
                <time>2017-07-15T08:23:01Z</time>
            </trkpt>
            <trkpt lat="46.308700" lon="11.693440">
                <time>2017-07-15T08:23:02Z</time>
            </trkpt>
            <trkpt lat="46.308700" lon="11.693440">
                <time>2017-07-15T08:23:03Z</time>
            </trkpt>
            <trkpt lat="46.308700" lon="11.693440">
                <time>2017-07-15T08:23:04Z</time>
            </trkpt>
            <trkpt lat="46.308700" lon="11.693440">
                <time>2017-07-15T08:23:05Z</time>
            </trkpt>
            <trkpt lat="46.308700" lon="11.693440">
                <time>2017-07-15T08:23:06Z</time>
            </trkpt>
            <trkpt lat="46.308700" lon="11.693440">
                <time>2017-07-15T08:23:07Z</time>
            </trkpt>
            <trkpt lat="46.308700" lon="11.693440">
                <time>2017-07-15T08:23:08Z</time>
            </trkpt>
            <trkpt lat="46.308700" lon="11.693440">
                <time>2017-07-15T08:23:09Z</time>
            </trkpt>
            <trkpt lat="46.308700" lon="11.693440">
                <time>2017-07-15T08:23:10Z</time>
            </trkpt>
            <trkpt lat="46.308690" lon="11.693420">
                <time>2017-07-15T08:23:11Z</time>
            </trkpt>
            <trkpt lat="46.308690" lon="11.693400">
                <time>2017-07-15T08:23:12Z</time>
            </trkpt>
            <trkpt lat="46.308700" lon="11.693390">
                <time>2017-07-15T08:23:13Z</time>
            </trkpt>
            <trkpt lat="46.308730" lon="11.693400">
                <time>2017-07-15T08:23:14Z</time>
            </trkpt>
            <trkpt lat="46.308770" lon="11.693400">
                <time>2017-07-15T08:23:15Z</time>
            </trkpt>
            <trkpt lat="46.308840" lon="11.693370">
                <time>2017-07-15T08:23:16Z</time>
            </trkpt>
            <trkpt lat="46.308900" lon="11.693340">
                <time>2017-07-15T08:23:17Z</time>
            </trkpt>
            <trkpt lat="46.308970" lon="11.693230">
                <time>2017-07-15T08:23:18Z</time>
            </trkpt>
            <trkpt lat="46.309060" lon="11.693120">
                <time>2017-07-15T08:23:19Z</time>
            </trkpt>
            <trkpt lat="46.309120" lon="11.693000">
                <time>2017-07-15T08:23:20Z</time>
            </trkpt>
            <trkpt lat="46.309190" lon="11.692870">
                <time>2017-07-15T08:23:21Z</time>
            </trkpt>
            <trkpt lat="46.309260" lon="11.692720">
                <time>2017-07-15T08:23:22Z</time>
            </trkpt>
            <trkpt lat="46.309310" lon="11.692570">
                <time>2017-07-15T08:23:23Z</time>
            </trkpt>
            <trkpt lat="46.309350" lon="11.692420">
                <time>2017-07-15T08:23:24Z</time>
            </trkpt>
            <trkpt lat="46.309360" lon="11.692270">
                <time>2017-07-15T08:23:25Z</time>
            </trkpt>
            <trkpt lat="46.309350" lon="11.692100">
                <time>2017-07-15T08:23:26Z</time>
            </trkpt>
            <trkpt lat="46.309320" lon="11.691900">
                <time>2017-07-15T08:23:27Z</time>
            </trkpt>
            <trkpt lat="46.309290" lon="11.691730">
                <time>2017-07-15T08:23:28Z</time>
            </trkpt>
            <trkpt lat="46.309260" lon="11.691530">
                <time>2017-07-15T08:23:29Z</time>
            </trkpt>
            <trkpt lat="46.309230" lon="11.691320">
                <time>2017-07-15T08:23:30Z</time>
            </trkpt>
            <trkpt lat="46.309200" lon="11.691110">
                <time>2017-07-15T08:23:31Z</time>
            </trkpt>
            <trkpt lat="46.309150" lon="11.690890">
                <time>2017-07-15T08:23:32Z</time>
            </trkpt>
            <trkpt lat="46.309110" lon="11.690690">
                <time>2017-07-15T08:23:33Z</time>
            </trkpt>
            <trkpt lat="46.309050" lon="11.690490">
                <time>2017-07-15T08:23:34Z</time>
            </trkpt>
            <trkpt lat="46.308980" lon="11.690290">
                <time>2017-07-15T08:23:35Z</time>
            </trkpt>
            <trkpt lat="46.308910" lon="11.690110">
                <time>2017-07-15T08:23:36Z</time>
            </trkpt>
            <trkpt lat="46.308830" lon="11.689920">
                <time>2017-07-15T08:23:37Z</time>
            </trkpt>
            <trkpt lat="46.308740" lon="11.689700">
                <time>2017-07-15T08:23:38Z</time>
            </trkpt>
            <trkpt lat="46.308670" lon="11.689510">
                <time>2017-07-15T08:23:39Z</time>
            </trkpt>
            <trkpt lat="46.308590" lon="11.689290">
                <time>2017-07-15T08:23:40Z</time>
            </trkpt>
            <trkpt lat="46.308530" lon="11.689120">
                <time>2017-07-15T08:23:41Z</time>
            </trkpt>
            <trkpt lat="46.308450" lon="11.688930">
                <time>2017-07-15T08:23:42Z</time>
            </trkpt>
            <trkpt lat="46.308390" lon="11.688720">
                <time>2017-07-15T08:23:43Z</time>
            </trkpt>
            <trkpt lat="46.308340" lon="11.688530">
                <time>2017-07-15T08:23:44Z</time>
            </trkpt>
            <trkpt lat="46.308300" lon="11.688310">
                <time>2017-07-15T08:23:45Z</time>
            </trkpt>
            <trkpt lat="46.308270" lon="11.688070">
                <time>2017-07-15T08:23:46Z</time>
            </trkpt>
            <trkpt lat="46.308230" lon="11.687830">
                <time>2017-07-15T08:23:47Z</time>
            </trkpt>
            <trkpt lat="46.308200" lon="11.687570">
                <time>2017-07-15T08:23:48Z</time>
            </trkpt>
            <trkpt lat="46.308180" lon="11.687360">
                <time>2017-07-15T08:23:49Z</time>
            </trkpt>
            <trkpt lat="46.308190" lon="11.687140">
                <time>2017-07-15T08:23:50Z</time>
            </trkpt>
            <trkpt lat="46.308200" lon="11.686950">
                <time>2017-07-15T08:23:51Z</time>
            </trkpt>
            <trkpt lat="46.308220" lon="11.686790">
                <time>2017-07-15T08:23:52Z</time>
            </trkpt>
            <trkpt lat="46.308240" lon="11.686610">
                <time>2017-07-15T08:23:53Z</time>
            </trkpt>
            <trkpt lat="46.308270" lon="11.686420">
                <time>2017-07-15T08:23:54Z</time>
            </trkpt>
            <trkpt lat="46.308320" lon="11.686260">
                <time>2017-07-15T08:23:55Z</time>
            </trkpt>
            <trkpt lat="46.308340" lon="11.686040">
                <time>2017-07-15T08:23:56Z</time>
            </trkpt>
            <trkpt lat="46.308360" lon="11.685850">
                <time>2017-07-15T08:23:57Z</time>
            </trkpt>
            <trkpt lat="46.308370" lon="11.685630">
                <time>2017-07-15T08:23:58Z</time>
            </trkpt>
            <trkpt lat="46.308370" lon="11.685400">
                <time>2017-07-15T08:23:59Z</time>
            </trkpt>
            <trkpt lat="46.308390" lon="11.685200">
                <time>2017-07-15T08:24:00Z</time>
            </trkpt>
            <trkpt lat="46.308400" lon="11.684980">
                <time>2017-07-15T08:24:01Z</time>
            </trkpt>
            <trkpt lat="46.308420" lon="11.684780">
                <time>2017-07-15T08:24:02Z</time>
            </trkpt>
            <trkpt lat="46.308460" lon="11.684580">
                <time>2017-07-15T08:24:03Z</time>
            </trkpt>
            <trkpt lat="46.308540" lon="11.684380">
                <time>2017-07-15T08:24:04Z</time>
            </trkpt>
            <trkpt lat="46.308620" lon="11.684200">
                <time>2017-07-15T08:24:05Z</time>
            </trkpt>
            <trkpt lat="46.308720" lon="11.684000">
                <time>2017-07-15T08:24:06Z</time>
            </trkpt>
            <trkpt lat="46.308810" lon="11.683770">
                <time>2017-07-15T08:24:07Z</time>
            </trkpt>
            <trkpt lat="46.308870" lon="11.683550">
                <time>2017-07-15T08:24:08Z</time>
            </trkpt>
            <trkpt lat="46.308940" lon="11.683320">
                <time>2017-07-15T08:24:09Z</time>
            </trkpt>
            <trkpt lat="46.309020" lon="11.683080">
                <time>2017-07-15T08:24:10Z</time>
            </trkpt>
            <trkpt lat="46.309100" lon="11.682870">
                <time>2017-07-15T08:24:11Z</time>
            </trkpt>
            <trkpt lat="46.309210" lon="11.682630">
                <time>2017-07-15T08:24:12Z</time>
            </trkpt>
            <trkpt lat="46.309310" lon="11.682440">
                <time>2017-07-15T08:24:13Z</time>
            </trkpt>
            <trkpt lat="46.309430" lon="11.682260">
                <time>2017-07-15T08:24:14Z</time>
            </trkpt>
            <trkpt lat="46.309560" lon="11.682060">
                <time>2017-07-15T08:24:15Z</time>
            </trkpt>
            <trkpt lat="46.309680" lon="11.681900">
                <time>2017-07-15T08:24:16Z</time>
            </trkpt>
            <trkpt lat="46.309810" lon="11.681730">
                <time>2017-07-15T08:24:17Z</time>
            </trkpt>
            <trkpt lat="46.309940" lon="11.681570">
                <time>2017-07-15T08:24:18Z</time>
            </trkpt>
            <trkpt lat="46.310060" lon="11.681410">
                <time>2017-07-15T08:24:19Z</time>
            </trkpt>
            <trkpt lat="46.310190" lon="11.681230">
                <time>2017-07-15T08:24:20Z</time>
            </trkpt>
            <trkpt lat="46.310300" lon="11.681070">
                <time>2017-07-15T08:24:21Z</time>
            </trkpt>
            <trkpt lat="46.310410" lon="11.680890">
                <time>2017-07-15T08:24:22Z</time>
            </trkpt>
            <trkpt lat="46.310520" lon="11.680670">
                <time>2017-07-15T08:24:23Z</time>
            </trkpt>
            <trkpt lat="46.310600" lon="11.680460">
                <time>2017-07-15T08:24:24Z</time>
            </trkpt>
            <trkpt lat="46.310670" lon="11.680230">
                <time>2017-07-15T08:24:25Z</time>
            </trkpt>
            <trkpt lat="46.310740" lon="11.679970">
                <time>2017-07-15T08:24:26Z</time>
            </trkpt>
            <trkpt lat="46.310790" lon="11.679740">
                <time>2017-07-15T08:24:27Z</time>
            </trkpt>
            <trkpt lat="46.310860" lon="11.679480">
                <time>2017-07-15T08:24:28Z</time>
            </trkpt>
            <trkpt lat="46.310920" lon="11.679260">
                <time>2017-07-15T08:24:29Z</time>
            </trkpt>
            <trkpt lat="46.310980" lon="11.679060">
                <time>2017-07-15T08:24:30Z</time>
            </trkpt>
            <trkpt lat="46.311050" lon="11.678870">
                <time>2017-07-15T08:24:31Z</time>
            </trkpt>
            <trkpt lat="46.311140" lon="11.678740">
                <time>2017-07-15T08:24:32Z</time>
            </trkpt>
            <trkpt lat="46.311240" lon="11.678650">
                <time>2017-07-15T08:24:33Z</time>
            </trkpt>
            <trkpt lat="46.311360" lon="11.678580">
                <time>2017-07-15T08:24:34Z</time>
            </trkpt>
            <trkpt lat="46.311490" lon="11.678550">
                <time>2017-07-15T08:24:35Z</time>
            </trkpt>
            <trkpt lat="46.311640" lon="11.678560">
                <time>2017-07-15T08:24:36Z</time>
            </trkpt>
            <trkpt lat="46.311750" lon="11.678690">
                <time>2017-07-15T08:24:37Z</time>
            </trkpt>
            <trkpt lat="46.311880" lon="11.678800">
                <time>2017-07-15T08:24:38Z</time>
            </trkpt>
            <trkpt lat="46.312040" lon="11.678920">
                <time>2017-07-15T08:24:39Z</time>
            </trkpt>
            <trkpt lat="46.312190" lon="11.679020">
                <time>2017-07-15T08:24:40Z</time>
            </trkpt>
            <trkpt lat="46.312340" lon="11.679120">
                <time>2017-07-15T08:24:41Z</time>
            </trkpt>
            <trkpt lat="46.312500" lon="11.679220">
                <time>2017-07-15T08:24:42Z</time>
            </trkpt>
            <trkpt lat="46.312630" lon="11.679310">
                <time>2017-07-15T08:24:43Z</time>
            </trkpt>
            <trkpt lat="46.312770" lon="11.679410">
                <time>2017-07-15T08:24:44Z</time>
            </trkpt>
            <trkpt lat="46.312880" lon="11.679480">
                <time>2017-07-15T08:24:45Z</time>
            </trkpt>
            <trkpt lat="46.312980" lon="11.679540">
                <time>2017-07-15T08:24:46Z</time>
            </trkpt>
            <trkpt lat="46.313070" lon="11.679590">
                <time>2017-07-15T08:24:47Z</time>
            </trkpt>
            <trkpt lat="46.313160" lon="11.679600">
                <time>2017-07-15T08:24:48Z</time>
            </trkpt>
            <trkpt lat="46.313230" lon="11.679570">
                <time>2017-07-15T08:24:49Z</time>
            </trkpt>
            <trkpt lat="46.313290" lon="11.679500">
                <time>2017-07-15T08:24:50Z</time>
            </trkpt>
            <trkpt lat="46.313320" lon="11.679360">
                <time>2017-07-15T08:24:51Z</time>
            </trkpt>
            <trkpt lat="46.313320" lon="11.679240">
                <time>2017-07-15T08:24:52Z</time>
            </trkpt>
            <trkpt lat="46.313300" lon="11.679120">
                <time>2017-07-15T08:24:53Z</time>
            </trkpt>
            <trkpt lat="46.313230" lon="11.679000">
                <time>2017-07-15T08:24:54Z</time>
            </trkpt>
            <trkpt lat="46.313140" lon="11.678880">
                <time>2017-07-15T08:24:55Z</time>
            </trkpt>
            <trkpt lat="46.313020" lon="11.678800">
                <time>2017-07-15T08:24:56Z</time>
            </trkpt>
            <trkpt lat="46.312910" lon="11.678700">
                <time>2017-07-15T08:24:57Z</time>
            </trkpt>
            <trkpt lat="46.312790" lon="11.678580">
                <time>2017-07-15T08:24:58Z</time>
            </trkpt>
            <trkpt lat="46.312690" lon="11.678470">
                <time>2017-07-15T08:24:59Z</time>
            </trkpt>
            <trkpt lat="46.312580" lon="11.678330">
                <time>2017-07-15T08:25:00Z</time>
            </trkpt>
            <trkpt lat="46.312490" lon="11.678190">
                <time>2017-07-15T08:25:01Z</time>
            </trkpt>
            <trkpt lat="46.312400" lon="11.678010">
                <time>2017-07-15T08:25:02Z</time>
            </trkpt>
            <trkpt lat="46.312300" lon="11.677820">
                <time>2017-07-15T08:25:03Z</time>
            </trkpt>
            <trkpt lat="46.312230" lon="11.677640">
                <time>2017-07-15T08:25:04Z</time>
            </trkpt>
            <trkpt lat="46.312150" lon="11.677460">
                <time>2017-07-15T08:25:05Z</time>
            </trkpt>
            <trkpt lat="46.312080" lon="11.677280">
                <time>2017-07-15T08:25:06Z</time>
            </trkpt>
            <trkpt lat="46.312020" lon="11.677110">
                <time>2017-07-15T08:25:07Z</time>
            </trkpt>
            <trkpt lat="46.311950" lon="11.676940">
                <time>2017-07-15T08:25:08Z</time>
            </trkpt>
            <trkpt lat="46.311900" lon="11.676790">
                <time>2017-07-15T08:25:09Z</time>
            </trkpt>
            <trkpt lat="46.311840" lon="11.676640">
                <time>2017-07-15T08:25:10Z</time>
            </trkpt>
            <trkpt lat="46.311780" lon="11.676490">
                <time>2017-07-15T08:25:11Z</time>
            </trkpt>
            <trkpt lat="46.311730" lon="11.676360">
                <time>2017-07-15T08:25:12Z</time>
            </trkpt>
            <trkpt lat="46.311670" lon="11.676220">
                <time>2017-07-15T08:25:13Z</time>
            </trkpt>
            <trkpt lat="46.311620" lon="11.676080">
                <time>2017-07-15T08:25:14Z</time>
            </trkpt>
            <trkpt lat="46.311570" lon="11.675950">
                <time>2017-07-15T08:25:15Z</time>
            </trkpt>
            <trkpt lat="46.311510" lon="11.675800">
                <time>2017-07-15T08:25:16Z</time>
            </trkpt>
            <trkpt lat="46.311450" lon="11.675650">
                <time>2017-07-15T08:25:17Z</time>
            </trkpt>
            <trkpt lat="46.311390" lon="11.675500">
                <time>2017-07-15T08:25:18Z</time>
            </trkpt>
            <trkpt lat="46.311320" lon="11.675330">
                <time>2017-07-15T08:25:19Z</time>
            </trkpt>
            <trkpt lat="46.311280" lon="11.675180">
                <time>2017-07-15T08:25:20Z</time>
            </trkpt>
            <trkpt lat="46.311240" lon="11.675020">
                <time>2017-07-15T08:25:21Z</time>
            </trkpt>
            <trkpt lat="46.311200" lon="11.674860">
                <time>2017-07-15T08:25:22Z</time>
            </trkpt>
            <trkpt lat="46.311190" lon="11.674710">
                <time>2017-07-15T08:25:23Z</time>
            </trkpt>
            <trkpt lat="46.311160" lon="11.674580">
                <time>2017-07-15T08:25:24Z</time>
            </trkpt>
            <trkpt lat="46.311160" lon="11.674480">
                <time>2017-07-15T08:25:25Z</time>
            </trkpt>
            <trkpt lat="46.311170" lon="11.674400">
                <time>2017-07-15T08:25:26Z</time>
            </trkpt>
            <trkpt lat="46.311190" lon="11.674350">
                <time>2017-07-15T08:25:27Z</time>
            </trkpt>
            <trkpt lat="46.311220" lon="11.674330">
                <time>2017-07-15T08:25:28Z</time>
            </trkpt>
            <trkpt lat="46.311240" lon="11.674320">
                <time>2017-07-15T08:25:29Z</time>
            </trkpt>
            <trkpt lat="46.311230" lon="11.674330">
                <time>2017-07-15T08:25:30Z</time>
            </trkpt>
            <trkpt lat="46.311230" lon="11.674330">
                <time>2017-07-15T08:25:31Z</time>
            </trkpt>
            <trkpt lat="46.311230" lon="11.674330">
                <time>2017-07-15T08:25:32Z</time>
            </trkpt>
            <trkpt lat="46.311230" lon="11.674330">
                <time>2017-07-15T08:25:33Z</time>
            </trkpt>
            <trkpt lat="46.311230" lon="11.674330">
                <time>2017-07-15T08:25:34Z</time>
            </trkpt>
            <trkpt lat="46.311230" lon="11.674330">
                <time>2017-07-15T08:25:35Z</time>
            </trkpt>
            <trkpt lat="46.311230" lon="11.674330">
                <time>2017-07-15T08:25:36Z</time>
            </trkpt>
            <trkpt lat="46.311230" lon="11.674330">
                <time>2017-07-15T08:25:37Z</time>
            </trkpt>
            <trkpt lat="46.311230" lon="11.674330">
                <time>2017-07-15T08:25:38Z</time>
            </trkpt>
            <trkpt lat="46.311230" lon="11.674330">
                <time>2017-07-15T08:25:39Z</time>
            </trkpt>
            <trkpt lat="46.311230" lon="11.674330">
                <time>2017-07-15T08:25:40Z</time>
            </trkpt>
            <trkpt lat="46.311230" lon="11.674330">
                <time>2017-07-15T08:25:41Z</time>
            </trkpt>
            <trkpt lat="46.311230" lon="11.674330">
                <time>2017-07-15T08:25:42Z</time>
            </trkpt>
            <trkpt lat="46.311230" lon="11.674330">
                <time>2017-07-15T08:25:43Z</time>
            </trkpt>
            <trkpt lat="46.311230" lon="11.674330">
                <time>2017-07-15T08:25:44Z</time>
            </trkpt>
            <trkpt lat="46.311230" lon="11.674330">
                <time>2017-07-15T08:25:45Z</time>
            </trkpt>
            <trkpt lat="46.311230" lon="11.674330">
                <time>2017-07-15T08:25:46Z</time>
            </trkpt>
            <trkpt lat="46.311230" lon="11.674330">
                <time>2017-07-15T08:25:47Z</time>
            </trkpt>
            <trkpt lat="46.311230" lon="11.674330">
                <time>2017-07-15T08:25:48Z</time>
            </trkpt>
            <trkpt lat="46.311230" lon="11.674330">
                <time>2017-07-15T08:25:49Z</time>
            </trkpt>
            <trkpt lat="46.311230" lon="11.674330">
                <time>2017-07-15T08:25:50Z</time>
            </trkpt>
            <trkpt lat="46.311230" lon="11.674330">
                <time>2017-07-15T08:25:51Z</time>
            </trkpt>
            <trkpt lat="46.311230" lon="11.674330">
                <time>2017-07-15T08:25:52Z</time>
            </trkpt>
            <trkpt lat="46.311230" lon="11.674330">
                <time>2017-07-15T08:25:53Z</time>
            </trkpt>
            <trkpt lat="46.311230" lon="11.674330">
                <time>2017-07-15T08:25:54Z</time>
            </trkpt>
            <trkpt lat="46.311230" lon="11.674330">
                <time>2017-07-15T08:25:55Z</time>
            </trkpt>
            <trkpt lat="46.311230" lon="11.674330">
                <time>2017-07-15T08:25:56Z</time>
            </trkpt>
            <trkpt lat="46.311230" lon="11.674330">
                <time>2017-07-15T08:25:57Z</time>
            </trkpt>
            <trkpt lat="46.311230" lon="11.674330">
                <time>2017-07-15T08:25:58Z</time>
            </trkpt>
            <trkpt lat="46.311230" lon="11.674330">
                <time>2017-07-15T08:25:59Z</time>
            </trkpt>
            <trkpt lat="46.311230" lon="11.674330">
                <time>2017-07-15T08:26:00Z</time>
            </trkpt>
            <trkpt lat="46.311230" lon="11.674330">
                <time>2017-07-15T08:26:01Z</time>
            </trkpt>
            <trkpt lat="46.311230" lon="11.674330">
                <time>2017-07-15T08:26:02Z</time>
            </trkpt>
            <trkpt lat="46.311230" lon="11.674330">
                <time>2017-07-15T08:26:03Z</time>
            </trkpt>
            <trkpt lat="46.311230" lon="11.674330">
                <time>2017-07-15T08:26:04Z</time>
            </trkpt>
            <trkpt lat="46.311230" lon="11.674330">
                <time>2017-07-15T08:26:05Z</time>
            </trkpt>
            <trkpt lat="46.311230" lon="11.674330">
                <time>2017-07-15T08:26:06Z</time>
            </trkpt>
            <trkpt lat="46.311230" lon="11.674330">
                <time>2017-07-15T08:26:07Z</time>
            </trkpt>
            <trkpt lat="46.311230" lon="11.674330">
                <time>2017-07-15T08:26:08Z</time>
            </trkpt>
            <trkpt lat="46.311230" lon="11.674330">
                <time>2017-07-15T08:26:09Z</time>
            </trkpt>
            <trkpt lat="46.311230" lon="11.674330">
                <time>2017-07-15T08:26:10Z</time>
            </trkpt>
            <trkpt lat="46.311230" lon="11.674330">
                <time>2017-07-15T08:26:11Z</time>
            </trkpt>
            <trkpt lat="46.311230" lon="11.674330">
                <time>2017-07-15T08:26:12Z</time>
            </trkpt>
            <trkpt lat="46.311230" lon="11.674330">
                <time>2017-07-15T08:26:13Z</time>
            </trkpt>
            <trkpt lat="46.311230" lon="11.674330">
                <time>2017-07-15T08:26:14Z</time>
            </trkpt>
            <trkpt lat="46.311230" lon="11.674330">
                <time>2017-07-15T08:26:15Z</time>
            </trkpt>
            <trkpt lat="46.311230" lon="11.674330">
                <time>2017-07-15T08:26:16Z</time>
            </trkpt>
            <trkpt lat="46.311230" lon="11.674330">
                <time>2017-07-15T08:26:17Z</time>
            </trkpt>
            <trkpt lat="46.311230" lon="11.674330">
                <time>2017-07-15T08:26:18Z</time>
            </trkpt>
            <trkpt lat="46.311230" lon="11.674330">
                <time>2017-07-15T08:26:19Z</time>
            </trkpt>
            <trkpt lat="46.311230" lon="11.674330">
                <time>2017-07-15T08:26:20Z</time>
            </trkpt>
            <trkpt lat="46.311230" lon="11.674330">
                <time>2017-07-15T08:26:21Z</time>
            </trkpt>
            <trkpt lat="46.311230" lon="11.674330">
                <time>2017-07-15T08:26:22Z</time>
            </trkpt>
            <trkpt lat="46.311230" lon="11.674330">
                <time>2017-07-15T08:26:23Z</time>
            </trkpt>
            <trkpt lat="46.311230" lon="11.674330">
                <time>2017-07-15T08:26:24Z</time>
            </trkpt>
            <trkpt lat="46.311230" lon="11.674330">
                <time>2017-07-15T08:26:25Z</time>
            </trkpt>
            <trkpt lat="46.311230" lon="11.674330">
                <time>2017-07-15T08:26:26Z</time>
            </trkpt>
            <trkpt lat="46.311230" lon="11.674330">
                <time>2017-07-15T08:26:27Z</time>
            </trkpt>
            <trkpt lat="46.311230" lon="11.674330">
                <time>2017-07-15T08:26:28Z</time>
            </trkpt>
            <trkpt lat="46.311230" lon="11.674330">
                <time>2017-07-15T08:26:29Z</time>
            </trkpt>
            <trkpt lat="46.311230" lon="11.674330">
                <time>2017-07-15T08:26:30Z</time>
            </trkpt>
            <trkpt lat="46.311230" lon="11.674330">
                <time>2017-07-15T08:26:31Z</time>
            </trkpt>
            <trkpt lat="46.311230" lon="11.674330">
                <time>2017-07-15T08:26:32Z</time>
            </trkpt>
            <trkpt lat="46.311230" lon="11.674330">
                <time>2017-07-15T08:26:33Z</time>
            </trkpt>
            <trkpt lat="46.311230" lon="11.674330">
                <time>2017-07-15T08:26:34Z</time>
            </trkpt>
            <trkpt lat="46.311230" lon="11.674330">
                <time>2017-07-15T08:26:35Z</time>
            </trkpt>
            <trkpt lat="46.311230" lon="11.674330">
                <time>2017-07-15T08:26:36Z</time>
            </trkpt>
            <trkpt lat="46.311230" lon="11.674330">
                <time>2017-07-15T08:26:37Z</time>
            </trkpt>
            <trkpt lat="46.311230" lon="11.674330">
                <time>2017-07-15T08:26:38Z</time>
            </trkpt>
            <trkpt lat="46.311230" lon="11.674330">
                <time>2017-07-15T08:26:39Z</time>
            </trkpt>
            <trkpt lat="46.311230" lon="11.674330">
                <time>2017-07-15T08:26:40Z</time>
            </trkpt>
            <trkpt lat="46.311230" lon="11.674330">
                <time>2017-07-15T08:26:41Z</time>
            </trkpt>
            <trkpt lat="46.311230" lon="11.674330">
                <time>2017-07-15T08:26:42Z</time>
            </trkpt>
            <trkpt lat="46.311230" lon="11.674330">
                <time>2017-07-15T08:26:43Z</time>
            </trkpt>
            <trkpt lat="46.311230" lon="11.674330">
                <time>2017-07-15T08:26:44Z</time>
            </trkpt>
            <trkpt lat="46.311230" lon="11.674330">
                <time>2017-07-15T08:26:45Z</time>
            </trkpt>
            <trkpt lat="46.311230" lon="11.674330">
                <time>2017-07-15T08:26:46Z</time>
            </trkpt>
            <trkpt lat="46.311230" lon="11.674330">
                <time>2017-07-15T08:26:47Z</time>
            </trkpt>
            <trkpt lat="46.311230" lon="11.674330">
                <time>2017-07-15T08:26:48Z</time>
            </trkpt>
            <trkpt lat="46.311230" lon="11.674330">
                <time>2017-07-15T08:26:49Z</time>
            </trkpt>
            <trkpt lat="46.311230" lon="11.674330">
                <time>2017-07-15T08:26:50Z</time>
            </trkpt>
            <trkpt lat="46.311230" lon="11.674330">
                <time>2017-07-15T08:26:51Z</time>
            </trkpt>
            <trkpt lat="46.311230" lon="11.674330">
                <time>2017-07-15T08:26:52Z</time>
            </trkpt>
            <trkpt lat="46.311230" lon="11.674330">
                <time>2017-07-15T08:26:53Z</time>
            </trkpt>
            <trkpt lat="46.311230" lon="11.674330">
                <time>2017-07-15T08:26:54Z</time>
            </trkpt>
            <trkpt lat="46.311230" lon="11.674330">
                <time>2017-07-15T08:26:55Z</time>
            </trkpt>
            <trkpt lat="46.311230" lon="11.674330">
                <time>2017-07-15T08:26:56Z</time>
            </trkpt>
            <trkpt lat="46.311230" lon="11.674330">
                <time>2017-07-15T08:26:57Z</time>
            </trkpt>
            <trkpt lat="46.311230" lon="11.674330">
                <time>2017-07-15T08:26:58Z</time>
            </trkpt>
            <trkpt lat="46.311230" lon="11.674330">
                <time>2017-07-15T08:26:59Z</time>
            </trkpt>
            <trkpt lat="46.311230" lon="11.674330">
                <time>2017-07-15T08:27:00Z</time>
            </trkpt>
            <trkpt lat="46.311230" lon="11.674330">
                <time>2017-07-15T08:27:01Z</time>
            </trkpt>
            <trkpt lat="46.311230" lon="11.674330">
                <time>2017-07-15T08:27:02Z</time>
            </trkpt>
            <trkpt lat="46.311230" lon="11.674330">
                <time>2017-07-15T08:27:03Z</time>
            </trkpt>
            <trkpt lat="46.311230" lon="11.674330">
                <time>2017-07-15T08:27:04Z</time>
            </trkpt>
            <trkpt lat="46.311230" lon="11.674330">
                <time>2017-07-15T08:27:05Z</time>
            </trkpt>
            <trkpt lat="46.311230" lon="11.674330">
                <time>2017-07-15T08:27:06Z</time>
            </trkpt>
            <trkpt lat="46.311230" lon="11.674330">
                <time>2017-07-15T08:27:07Z</time>
            </trkpt>
            <trkpt lat="46.311230" lon="11.674330">
                <time>2017-07-15T08:27:08Z</time>
            </trkpt>
            <trkpt lat="46.311230" lon="11.674330">
                <time>2017-07-15T08:27:09Z</time>
            </trkpt>
            <trkpt lat="46.311230" lon="11.674330">
                <time>2017-07-15T08:27:10Z</time>
            </trkpt>
            <trkpt lat="46.311230" lon="11.674330">
                <time>2017-07-15T08:27:11Z</time>
            </trkpt>
            <trkpt lat="46.311230" lon="11.674330">
                <time>2017-07-15T08:27:12Z</time>
            </trkpt>
            <trkpt lat="46.311230" lon="11.674330">
                <time>2017-07-15T08:27:13Z</time>
            </trkpt>
            <trkpt lat="46.311230" lon="11.674330">
                <time>2017-07-15T08:27:14Z</time>
            </trkpt>
            <trkpt lat="46.311230" lon="11.674330">
                <time>2017-07-15T08:27:15Z</time>
            </trkpt>
            <trkpt lat="46.311230" lon="11.674330">
                <time>2017-07-15T08:27:16Z</time>
            </trkpt>
            <trkpt lat="46.311230" lon="11.674330">
                <time>2017-07-15T08:27:17Z</time>
            </trkpt>
            <trkpt lat="46.311230" lon="11.674330">
                <time>2017-07-15T08:27:18Z</time>
            </trkpt>
            <trkpt lat="46.311230" lon="11.674330">
                <time>2017-07-15T08:27:19Z</time>
            </trkpt>
            <trkpt lat="46.311230" lon="11.674330">
                <time>2017-07-15T08:27:20Z</time>
            </trkpt>
            <trkpt lat="46.311230" lon="11.674330">
                <time>2017-07-15T08:27:21Z</time>
            </trkpt>
            <trkpt lat="46.311230" lon="11.674330">
                <time>2017-07-15T08:27:22Z</time>
            </trkpt>
            <trkpt lat="46.311230" lon="11.674330">
                <time>2017-07-15T08:27:23Z</time>
            </trkpt>
            <trkpt lat="46.311230" lon="11.674330">
                <time>2017-07-15T08:27:24Z</time>
            </trkpt>
            <trkpt lat="46.311230" lon="11.674330">
                <time>2017-07-15T08:27:25Z</time>
            </trkpt>
            <trkpt lat="46.311230" lon="11.674330">
                <time>2017-07-15T08:27:26Z</time>
            </trkpt>
            <trkpt lat="46.311230" lon="11.674330">
                <time>2017-07-15T08:27:27Z</time>
            </trkpt>
            <trkpt lat="46.311230" lon="11.674330">
                <time>2017-07-15T08:27:28Z</time>
            </trkpt>
            <trkpt lat="46.311230" lon="11.674330">
                <time>2017-07-15T08:27:29Z</time>
            </trkpt>
            <trkpt lat="46.311230" lon="11.674330">
                <time>2017-07-15T08:27:30Z</time>
            </trkpt>
            <trkpt lat="46.311230" lon="11.674330">
                <time>2017-07-15T08:27:31Z</time>
            </trkpt>
            <trkpt lat="46.311230" lon="11.674330">
                <time>2017-07-15T08:27:32Z</time>
            </trkpt>
            <trkpt lat="46.311230" lon="11.674330">
                <time>2017-07-15T08:27:33Z</time>
            </trkpt>
            <trkpt lat="46.311230" lon="11.674330">
                <time>2017-07-15T08:27:34Z</time>
            </trkpt>
            <trkpt lat="46.311230" lon="11.674330">
                <time>2017-07-15T08:27:35Z</time>
            </trkpt>
            <trkpt lat="46.311230" lon="11.674330">
                <time>2017-07-15T08:27:36Z</time>
            </trkpt>
            <trkpt lat="46.311230" lon="11.674330">
                <time>2017-07-15T08:27:37Z</time>
            </trkpt>
            <trkpt lat="46.311230" lon="11.674330">
                <time>2017-07-15T08:27:38Z</time>
            </trkpt>
            <trkpt lat="46.311230" lon="11.674330">
                <time>2017-07-15T08:27:39Z</time>
            </trkpt>
            <trkpt lat="46.311230" lon="11.674330">
                <time>2017-07-15T08:27:40Z</time>
            </trkpt>
            <trkpt lat="46.311230" lon="11.674330">
                <time>2017-07-15T08:27:41Z</time>
            </trkpt>
            <trkpt lat="46.311230" lon="11.674330">
                <time>2017-07-15T08:27:42Z</time>
            </trkpt>
            <trkpt lat="46.311230" lon="11.674330">
                <time>2017-07-15T08:27:43Z</time>
            </trkpt>
            <trkpt lat="46.311230" lon="11.674330">
                <time>2017-07-15T08:27:44Z</time>
            </trkpt>
            <trkpt lat="46.311230" lon="11.674330">
                <time>2017-07-15T08:27:45Z</time>
            </trkpt>
            <trkpt lat="46.311230" lon="11.674330">
                <time>2017-07-15T08:27:46Z</time>
            </trkpt>
            <trkpt lat="46.311230" lon="11.674330">
                <time>2017-07-15T08:27:47Z</time>
            </trkpt>
            <trkpt lat="46.311230" lon="11.674330">
                <time>2017-07-15T08:27:48Z</time>
            </trkpt>
            <trkpt lat="46.311230" lon="11.674330">
                <time>2017-07-15T08:27:49Z</time>
            </trkpt>
            <trkpt lat="46.311230" lon="11.674330">
                <time>2017-07-15T08:27:50Z</time>
            </trkpt>
            <trkpt lat="46.311230" lon="11.674330">
                <time>2017-07-15T08:27:51Z</time>
            </trkpt>
            <trkpt lat="46.311230" lon="11.674330">
                <time>2017-07-15T08:27:52Z</time>
            </trkpt>
            <trkpt lat="46.311230" lon="11.674330">
                <time>2017-07-15T08:27:53Z</time>
            </trkpt>
            <trkpt lat="46.311230" lon="11.674330">
                <time>2017-07-15T08:27:54Z</time>
            </trkpt>
            <trkpt lat="46.311230" lon="11.674330">
                <time>2017-07-15T08:27:55Z</time>
            </trkpt>
            <trkpt lat="46.311230" lon="11.674330">
                <time>2017-07-15T08:27:56Z</time>
            </trkpt>
            <trkpt lat="46.311230" lon="11.674330">
                <time>2017-07-15T08:27:57Z</time>
            </trkpt>
            <trkpt lat="46.311230" lon="11.674330">
                <time>2017-07-15T08:27:58Z</time>
            </trkpt>
            <trkpt lat="46.311230" lon="11.674330">
                <time>2017-07-15T08:27:59Z</time>
            </trkpt>
            <trkpt lat="46.311230" lon="11.674330">
                <time>2017-07-15T08:28:00Z</time>
            </trkpt>
            <trkpt lat="46.311230" lon="11.674330">
                <time>2017-07-15T08:28:01Z</time>
            </trkpt>
            <trkpt lat="46.311230" lon="11.674330">
                <time>2017-07-15T08:28:02Z</time>
            </trkpt>
            <trkpt lat="46.311230" lon="11.674330">
                <time>2017-07-15T08:28:03Z</time>
            </trkpt>
            <trkpt lat="46.311230" lon="11.674330">
                <time>2017-07-15T08:28:04Z</time>
            </trkpt>
            <trkpt lat="46.311230" lon="11.674330">
                <time>2017-07-15T08:28:05Z</time>
            </trkpt>
            <trkpt lat="46.311230" lon="11.674330">
                <time>2017-07-15T08:28:06Z</time>
            </trkpt>
            <trkpt lat="46.311230" lon="11.674330">
                <time>2017-07-15T08:28:07Z</time>
            </trkpt>
            <trkpt lat="46.311230" lon="11.674330">
                <time>2017-07-15T08:28:08Z</time>
            </trkpt>
            <trkpt lat="46.311230" lon="11.674330">
                <time>2017-07-15T08:28:09Z</time>
            </trkpt>
            <trkpt lat="46.311230" lon="11.674330">
                <time>2017-07-15T08:28:10Z</time>
            </trkpt>
            <trkpt lat="46.311230" lon="11.674330">
                <time>2017-07-15T08:28:11Z</time>
            </trkpt>
            <trkpt lat="46.311230" lon="11.674330">
                <time>2017-07-15T08:28:12Z</time>
            </trkpt>
            <trkpt lat="46.311230" lon="11.674330">
                <time>2017-07-15T08:28:13Z</time>
            </trkpt>
            <trkpt lat="46.311230" lon="11.674330">
                <time>2017-07-15T08:28:14Z</time>
            </trkpt>
            <trkpt lat="46.311230" lon="11.674330">
                <time>2017-07-15T08:28:15Z</time>
            </trkpt>
            <trkpt lat="46.311230" lon="11.674330">
                <time>2017-07-15T08:28:16Z</time>
            </trkpt>
            <trkpt lat="46.311230" lon="11.674330">
                <time>2017-07-15T08:28:17Z</time>
            </trkpt>
            <trkpt lat="46.311230" lon="11.674330">
                <time>2017-07-15T08:28:18Z</time>
            </trkpt>
            <trkpt lat="46.311230" lon="11.674330">
                <time>2017-07-15T08:28:19Z</time>
            </trkpt>
            <trkpt lat="46.311230" lon="11.674330">
                <time>2017-07-15T08:28:20Z</time>
            </trkpt>
            <trkpt lat="46.311230" lon="11.674330">
                <time>2017-07-15T08:28:21Z</time>
            </trkpt>
            <trkpt lat="46.311230" lon="11.674330">
                <time>2017-07-15T08:28:22Z</time>
            </trkpt>
            <trkpt lat="46.311230" lon="11.674330">
                <time>2017-07-15T08:28:23Z</time>
            </trkpt>
            <trkpt lat="46.311230" lon="11.674330">
                <time>2017-07-15T08:28:24Z</time>
            </trkpt>
            <trkpt lat="46.311230" lon="11.674330">
                <time>2017-07-15T08:28:25Z</time>
            </trkpt>
            <trkpt lat="46.311230" lon="11.674330">
                <time>2017-07-15T08:28:26Z</time>
            </trkpt>
            <trkpt lat="46.311230" lon="11.674330">
                <time>2017-07-15T08:28:27Z</time>
            </trkpt>
            <trkpt lat="46.311230" lon="11.674330">
                <time>2017-07-15T08:28:28Z</time>
            </trkpt>
            <trkpt lat="46.311230" lon="11.674330">
                <time>2017-07-15T08:28:29Z</time>
            </trkpt>
            <trkpt lat="46.311230" lon="11.674330">
                <time>2017-07-15T08:28:30Z</time>
            </trkpt>
            <trkpt lat="46.311230" lon="11.674330">
                <time>2017-07-15T08:28:31Z</time>
            </trkpt>
            <trkpt lat="46.311230" lon="11.674330">
                <time>2017-07-15T08:28:32Z</time>
            </trkpt>
            <trkpt lat="46.311230" lon="11.674330">
                <time>2017-07-15T08:28:33Z</time>
            </trkpt>
            <trkpt lat="46.311230" lon="11.674330">
                <time>2017-07-15T08:28:34Z</time>
            </trkpt>
            <trkpt lat="46.311230" lon="11.674330">
                <time>2017-07-15T08:28:35Z</time>
            </trkpt>
            <trkpt lat="46.311230" lon="11.674330">
                <time>2017-07-15T08:28:36Z</time>
            </trkpt>
            <trkpt lat="46.311230" lon="11.674330">
                <time>2017-07-15T08:28:37Z</time>
            </trkpt>
            <trkpt lat="46.311230" lon="11.674330">
                <time>2017-07-15T08:28:38Z</time>
            </trkpt>
            <trkpt lat="46.311230" lon="11.674330">
                <time>2017-07-15T08:28:39Z</time>
            </trkpt>
            <trkpt lat="46.311230" lon="11.674330">
                <time>2017-07-15T08:28:40Z</time>
            </trkpt>
            <trkpt lat="46.311230" lon="11.674330">
                <time>2017-07-15T08:28:41Z</time>
            </trkpt>
            <trkpt lat="46.311230" lon="11.674330">
                <time>2017-07-15T08:28:42Z</time>
            </trkpt>
            <trkpt lat="46.311230" lon="11.674330">
                <time>2017-07-15T08:28:43Z</time>
            </trkpt>
            <trkpt lat="46.311230" lon="11.674330">
                <time>2017-07-15T08:28:44Z</time>
            </trkpt>
            <trkpt lat="46.311230" lon="11.674330">
                <time>2017-07-15T08:28:45Z</time>
            </trkpt>
            <trkpt lat="46.311230" lon="11.674330">
                <time>2017-07-15T08:28:46Z</time>
            </trkpt>
            <trkpt lat="46.311230" lon="11.674330">
                <time>2017-07-15T08:28:47Z</time>
            </trkpt>
            <trkpt lat="46.311230" lon="11.674330">
                <time>2017-07-15T08:28:48Z</time>
            </trkpt>
            <trkpt lat="46.311230" lon="11.674330">
                <time>2017-07-15T08:28:49Z</time>
            </trkpt>
            <trkpt lat="46.311230" lon="11.674330">
                <time>2017-07-15T08:28:50Z</time>
            </trkpt>
            <trkpt lat="46.311230" lon="11.674330">
                <time>2017-07-15T08:28:51Z</time>
            </trkpt>
            <trkpt lat="46.311230" lon="11.674330">
                <time>2017-07-15T08:28:52Z</time>
            </trkpt>
            <trkpt lat="46.311230" lon="11.674330">
                <time>2017-07-15T08:28:53Z</time>
            </trkpt>
            <trkpt lat="46.311230" lon="11.674330">
                <time>2017-07-15T08:28:54Z</time>
            </trkpt>
            <trkpt lat="46.311230" lon="11.674330">
                <time>2017-07-15T08:28:55Z</time>
            </trkpt>
            <trkpt lat="46.311230" lon="11.674330">
                <time>2017-07-15T08:28:56Z</time>
            </trkpt>
            <trkpt lat="46.311230" lon="11.674330">
                <time>2017-07-15T08:28:57Z</time>
            </trkpt>
            <trkpt lat="46.311230" lon="11.674330">
                <time>2017-07-15T08:28:58Z</time>
            </trkpt>
            <trkpt lat="46.311230" lon="11.674330">
                <time>2017-07-15T08:28:59Z</time>
            </trkpt>
            <trkpt lat="46.311230" lon="11.674330">
                <time>2017-07-15T08:29:00Z</time>
            </trkpt>
            <trkpt lat="46.311230" lon="11.674330">
                <time>2017-07-15T08:29:01Z</time>
            </trkpt>
            <trkpt lat="46.311230" lon="11.674330">
                <time>2017-07-15T08:29:02Z</time>
            </trkpt>
            <trkpt lat="46.311230" lon="11.674330">
                <time>2017-07-15T08:29:03Z</time>
            </trkpt>
            <trkpt lat="46.311230" lon="11.674330">
                <time>2017-07-15T08:29:04Z</time>
            </trkpt>
            <trkpt lat="46.311230" lon="11.674330">
                <time>2017-07-15T08:29:05Z</time>
            </trkpt>
            <trkpt lat="46.311230" lon="11.674330">
                <time>2017-07-15T08:29:06Z</time>
            </trkpt>
            <trkpt lat="46.311230" lon="11.674330">
                <time>2017-07-15T08:29:07Z</time>
            </trkpt>
            <trkpt lat="46.311230" lon="11.674330">
                <time>2017-07-15T08:29:08Z</time>
            </trkpt>
            <trkpt lat="46.311230" lon="11.674330">
                <time>2017-07-15T08:29:09Z</time>
            </trkpt>
            <trkpt lat="46.311230" lon="11.674330">
                <time>2017-07-15T08:29:10Z</time>
            </trkpt>
            <trkpt lat="46.311230" lon="11.674330">
                <time>2017-07-15T08:29:11Z</time>
            </trkpt>
            <trkpt lat="46.311230" lon="11.674330">
                <time>2017-07-15T08:29:12Z</time>
            </trkpt>
            <trkpt lat="46.311230" lon="11.674330">
                <time>2017-07-15T08:29:13Z</time>
            </trkpt>
            <trkpt lat="46.311230" lon="11.674330">
                <time>2017-07-15T08:29:14Z</time>
            </trkpt>
            <trkpt lat="46.311230" lon="11.674330">
                <time>2017-07-15T08:29:15Z</time>
            </trkpt>
            <trkpt lat="46.311230" lon="11.674330">
                <time>2017-07-15T08:29:16Z</time>
            </trkpt>
            <trkpt lat="46.311230" lon="11.674330">
                <time>2017-07-15T08:29:17Z</time>
            </trkpt>
            <trkpt lat="46.311230" lon="11.674330">
                <time>2017-07-15T08:29:18Z</time>
            </trkpt>
            <trkpt lat="46.311230" lon="11.674330">
                <time>2017-07-15T08:29:19Z</time>
            </trkpt>
            <trkpt lat="46.311230" lon="11.674330">
                <time>2017-07-15T08:29:20Z</time>
            </trkpt>
            <trkpt lat="46.311230" lon="11.674330">
                <time>2017-07-15T08:29:21Z</time>
            </trkpt>
            <trkpt lat="46.311230" lon="11.674330">
                <time>2017-07-15T08:29:22Z</time>
            </trkpt>
            <trkpt lat="46.311230" lon="11.674330">
                <time>2017-07-15T08:29:23Z</time>
            </trkpt>
            <trkpt lat="46.311230" lon="11.674330">
                <time>2017-07-15T08:29:24Z</time>
            </trkpt>
            <trkpt lat="46.311230" lon="11.674330">
                <time>2017-07-15T08:29:25Z</time>
            </trkpt>
            <trkpt lat="46.311230" lon="11.674330">
                <time>2017-07-15T08:29:26Z</time>
            </trkpt>
            <trkpt lat="46.311230" lon="11.674330">
                <time>2017-07-15T08:29:27Z</time>
            </trkpt>
            <trkpt lat="46.311230" lon="11.674330">
                <time>2017-07-15T08:29:28Z</time>
            </trkpt>
            <trkpt lat="46.311230" lon="11.674330">
                <time>2017-07-15T08:29:29Z</time>
            </trkpt>
            <trkpt lat="46.311230" lon="11.674330">
                <time>2017-07-15T08:29:30Z</time>
            </trkpt>
            <trkpt lat="46.311230" lon="11.674330">
                <time>2017-07-15T08:29:31Z</time>
            </trkpt>
            <trkpt lat="46.311230" lon="11.674330">
                <time>2017-07-15T08:29:32Z</time>
            </trkpt>
            <trkpt lat="46.311230" lon="11.674330">
                <time>2017-07-15T08:29:33Z</time>
            </trkpt>
            <trkpt lat="46.311230" lon="11.674330">
                <time>2017-07-15T08:29:34Z</time>
            </trkpt>
            <trkpt lat="46.311230" lon="11.674330">
                <time>2017-07-15T08:29:35Z</time>
            </trkpt>
            <trkpt lat="46.311230" lon="11.674330">
                <time>2017-07-15T08:29:36Z</time>
            </trkpt>
            <trkpt lat="46.311230" lon="11.674330">
                <time>2017-07-15T08:29:37Z</time>
            </trkpt>
            <trkpt lat="46.311230" lon="11.674330">
                <time>2017-07-15T08:29:38Z</time>
            </trkpt>
            <trkpt lat="46.311230" lon="11.674330">
                <time>2017-07-15T08:29:39Z</time>
            </trkpt>
            <trkpt lat="46.311230" lon="11.674330">
                <time>2017-07-15T08:29:40Z</time>
            </trkpt>
            <trkpt lat="46.311230" lon="11.674330">
                <time>2017-07-15T08:29:41Z</time>
            </trkpt>
            <trkpt lat="46.311230" lon="11.674330">
                <time>2017-07-15T08:29:42Z</time>
            </trkpt>
            <trkpt lat="46.311230" lon="11.674330">
                <time>2017-07-15T08:29:43Z</time>
            </trkpt>
            <trkpt lat="46.311230" lon="11.674330">
                <time>2017-07-15T08:29:44Z</time>
            </trkpt>
            <trkpt lat="46.311230" lon="11.674330">
                <time>2017-07-15T08:29:45Z</time>
            </trkpt>
            <trkpt lat="46.311230" lon="11.674330">
                <time>2017-07-15T08:29:46Z</time>
            </trkpt>
            <trkpt lat="46.311230" lon="11.674330">
                <time>2017-07-15T08:29:47Z</time>
            </trkpt>
            <trkpt lat="46.311230" lon="11.674330">
                <time>2017-07-15T08:29:48Z</time>
            </trkpt>
            <trkpt lat="46.311230" lon="11.674330">
                <time>2017-07-15T08:29:49Z</time>
            </trkpt>
            <trkpt lat="46.311230" lon="11.674330">
                <time>2017-07-15T08:29:50Z</time>
            </trkpt>
            <trkpt lat="46.311230" lon="11.674330">
                <time>2017-07-15T08:29:51Z</time>
            </trkpt>
            <trkpt lat="46.311230" lon="11.674330">
                <time>2017-07-15T08:29:52Z</time>
            </trkpt>
            <trkpt lat="46.311230" lon="11.674330">
                <time>2017-07-15T08:29:53Z</time>
            </trkpt>
            <trkpt lat="46.311230" lon="11.674330">
                <time>2017-07-15T08:29:54Z</time>
            </trkpt>
            <trkpt lat="46.311230" lon="11.674330">
                <time>2017-07-15T08:29:55Z</time>
            </trkpt>
            <trkpt lat="46.311230" lon="11.674330">
                <time>2017-07-15T08:29:56Z</time>
            </trkpt>
            <trkpt lat="46.311230" lon="11.674330">
                <time>2017-07-15T08:29:57Z</time>
            </trkpt>
            <trkpt lat="46.311230" lon="11.674330">
                <time>2017-07-15T08:29:58Z</time>
            </trkpt>
            <trkpt lat="46.311230" lon="11.674330">
                <time>2017-07-15T08:29:59Z</time>
            </trkpt>
            <trkpt lat="46.311230" lon="11.674330">
                <time>2017-07-15T08:30:00Z</time>
            </trkpt>
            <trkpt lat="46.311230" lon="11.674330">
                <time>2017-07-15T08:30:01Z</time>
            </trkpt>
            <trkpt lat="46.311230" lon="11.674330">
                <time>2017-07-15T08:30:02Z</time>
            </trkpt>
            <trkpt lat="46.311230" lon="11.674330">
                <time>2017-07-15T08:30:03Z</time>
            </trkpt>
            <trkpt lat="46.311230" lon="11.674330">
                <time>2017-07-15T08:30:04Z</time>
            </trkpt>
            <trkpt lat="46.311230" lon="11.674330">
                <time>2017-07-15T08:30:05Z</time>
            </trkpt>
            <trkpt lat="46.311230" lon="11.674330">
                <time>2017-07-15T08:30:06Z</time>
            </trkpt>
            <trkpt lat="46.311230" lon="11.674330">
                <time>2017-07-15T08:30:07Z</time>
            </trkpt>
            <trkpt lat="46.311230" lon="11.674330">
                <time>2017-07-15T08:30:08Z</time>
            </trkpt>
            <trkpt lat="46.311230" lon="11.674330">
                <time>2017-07-15T08:30:09Z</time>
            </trkpt>
            <trkpt lat="46.311230" lon="11.674330">
                <time>2017-07-15T08:30:10Z</time>
            </trkpt>
            <trkpt lat="46.311230" lon="11.674330">
                <time>2017-07-15T08:30:11Z</time>
            </trkpt>
            <trkpt lat="46.311230" lon="11.674330">
                <time>2017-07-15T08:30:12Z</time>
            </trkpt>
            <trkpt lat="46.311230" lon="11.674330">
                <time>2017-07-15T08:30:13Z</time>
            </trkpt>
            <trkpt lat="46.311230" lon="11.674330">
                <time>2017-07-15T08:30:14Z</time>
            </trkpt>
            <trkpt lat="46.311230" lon="11.674330">
                <time>2017-07-15T08:30:15Z</time>
            </trkpt>
            <trkpt lat="46.311230" lon="11.674330">
                <time>2017-07-15T08:30:16Z</time>
            </trkpt>
            <trkpt lat="46.311230" lon="11.674330">
                <time>2017-07-15T08:30:17Z</time>
            </trkpt>
            <trkpt lat="46.311230" lon="11.674330">
                <time>2017-07-15T08:30:18Z</time>
            </trkpt>
            <trkpt lat="46.311230" lon="11.674330">
                <time>2017-07-15T08:30:19Z</time>
            </trkpt>
            <trkpt lat="46.311230" lon="11.674330">
                <time>2017-07-15T08:30:20Z</time>
            </trkpt>
            <trkpt lat="46.311230" lon="11.674330">
                <time>2017-07-15T08:30:21Z</time>
            </trkpt>
            <trkpt lat="46.311230" lon="11.674330">
                <time>2017-07-15T08:30:22Z</time>
            </trkpt>
            <trkpt lat="46.311230" lon="11.674330">
                <time>2017-07-15T08:30:23Z</time>
            </trkpt>
            <trkpt lat="46.311230" lon="11.674330">
                <time>2017-07-15T08:30:24Z</time>
            </trkpt>
            <trkpt lat="46.311230" lon="11.674330">
                <time>2017-07-15T08:30:25Z</time>
            </trkpt>
            <trkpt lat="46.311230" lon="11.674330">
                <time>2017-07-15T08:30:26Z</time>
            </trkpt>
            <trkpt lat="46.311230" lon="11.674330">
                <time>2017-07-15T08:30:27Z</time>
            </trkpt>
            <trkpt lat="46.311230" lon="11.674330">
                <time>2017-07-15T08:30:28Z</time>
            </trkpt>
            <trkpt lat="46.311230" lon="11.674330">
                <time>2017-07-15T08:30:29Z</time>
            </trkpt>
            <trkpt lat="46.311230" lon="11.674330">
                <time>2017-07-15T08:30:30Z</time>
            </trkpt>
            <trkpt lat="46.311230" lon="11.674330">
                <time>2017-07-15T08:30:31Z</time>
            </trkpt>
            <trkpt lat="46.311230" lon="11.674330">
                <time>2017-07-15T08:30:32Z</time>
            </trkpt>
            <trkpt lat="46.311230" lon="11.674330">
                <time>2017-07-15T08:30:33Z</time>
            </trkpt>
            <trkpt lat="46.311230" lon="11.674330">
                <time>2017-07-15T08:30:34Z</time>
            </trkpt>
            <trkpt lat="46.311230" lon="11.674330">
                <time>2017-07-15T08:30:35Z</time>
            </trkpt>
            <trkpt lat="46.311230" lon="11.674330">
                <time>2017-07-15T08:30:36Z</time>
            </trkpt>
            <trkpt lat="46.311230" lon="11.674330">
                <time>2017-07-15T08:30:37Z</time>
            </trkpt>
            <trkpt lat="46.311230" lon="11.674330">
                <time>2017-07-15T08:30:38Z</time>
            </trkpt>
            <trkpt lat="46.311230" lon="11.674330">
                <time>2017-07-15T08:30:39Z</time>
            </trkpt>
            <trkpt lat="46.311230" lon="11.674330">
                <time>2017-07-15T08:30:40Z</time>
            </trkpt>
            <trkpt lat="46.311230" lon="11.674330">
                <time>2017-07-15T08:30:41Z</time>
            </trkpt>
            <trkpt lat="46.311230" lon="11.674330">
                <time>2017-07-15T08:30:42Z</time>
            </trkpt>
            <trkpt lat="46.311230" lon="11.674330">
                <time>2017-07-15T08:30:43Z</time>
            </trkpt>
            <trkpt lat="46.311230" lon="11.674330">
                <time>2017-07-15T08:30:44Z</time>
            </trkpt>
            <trkpt lat="46.311230" lon="11.674330">
                <time>2017-07-15T08:30:45Z</time>
            </trkpt>
            <trkpt lat="46.311230" lon="11.674330">
                <time>2017-07-15T08:30:46Z</time>
            </trkpt>
            <trkpt lat="46.311230" lon="11.674330">
                <time>2017-07-15T08:30:47Z</time>
            </trkpt>
            <trkpt lat="46.311230" lon="11.674330">
                <time>2017-07-15T08:30:48Z</time>
            </trkpt>
            <trkpt lat="46.311230" lon="11.674330">
                <time>2017-07-15T08:30:49Z</time>
            </trkpt>
            <trkpt lat="46.311230" lon="11.674330">
                <time>2017-07-15T08:30:50Z</time>
            </trkpt>
            <trkpt lat="46.311230" lon="11.674330">
                <time>2017-07-15T08:30:51Z</time>
            </trkpt>
            <trkpt lat="46.311230" lon="11.674330">
                <time>2017-07-15T08:30:52Z</time>
            </trkpt>
            <trkpt lat="46.311230" lon="11.674330">
                <time>2017-07-15T08:30:53Z</time>
            </trkpt>
            <trkpt lat="46.311230" lon="11.674330">
                <time>2017-07-15T08:30:54Z</time>
            </trkpt>
            <trkpt lat="46.311230" lon="11.674330">
                <time>2017-07-15T08:30:55Z</time>
            </trkpt>
            <trkpt lat="46.311230" lon="11.674330">
                <time>2017-07-15T08:30:56Z</time>
            </trkpt>
            <trkpt lat="46.311230" lon="11.674330">
                <time>2017-07-15T08:30:57Z</time>
            </trkpt>
            <trkpt lat="46.311230" lon="11.674330">
                <time>2017-07-15T08:30:58Z</time>
            </trkpt>
            <trkpt lat="46.311230" lon="11.674330">
                <time>2017-07-15T08:30:59Z</time>
            </trkpt>
            <trkpt lat="46.311230" lon="11.674330">
                <time>2017-07-15T08:31:00Z</time>
            </trkpt>
            <trkpt lat="46.311230" lon="11.674330">
                <time>2017-07-15T08:31:01Z</time>
            </trkpt>
            <trkpt lat="46.311230" lon="11.674330">
                <time>2017-07-15T08:31:02Z</time>
            </trkpt>
            <trkpt lat="46.311230" lon="11.674330">
                <time>2017-07-15T08:31:03Z</time>
            </trkpt>
            <trkpt lat="46.311230" lon="11.674330">
                <time>2017-07-15T08:31:04Z</time>
            </trkpt>
            <trkpt lat="46.311230" lon="11.674330">
                <time>2017-07-15T08:31:05Z</time>
            </trkpt>
            <trkpt lat="46.311230" lon="11.674330">
                <time>2017-07-15T08:31:06Z</time>
            </trkpt>
            <trkpt lat="46.311230" lon="11.674330">
                <time>2017-07-15T08:31:07Z</time>
            </trkpt>
            <trkpt lat="46.311230" lon="11.674330">
                <time>2017-07-15T08:31:08Z</time>
            </trkpt>
            <trkpt lat="46.311230" lon="11.674330">
                <time>2017-07-15T08:31:09Z</time>
            </trkpt>
            <trkpt lat="46.311230" lon="11.674330">
                <time>2017-07-15T08:31:10Z</time>
            </trkpt>
            <trkpt lat="46.311230" lon="11.674330">
                <time>2017-07-15T08:31:11Z</time>
            </trkpt>
            <trkpt lat="46.311230" lon="11.674330">
                <time>2017-07-15T08:31:12Z</time>
            </trkpt>
            <trkpt lat="46.311230" lon="11.674330">
                <time>2017-07-15T08:31:13Z</time>
            </trkpt>
            <trkpt lat="46.311230" lon="11.674330">
                <time>2017-07-15T08:31:14Z</time>
            </trkpt>
            <trkpt lat="46.311230" lon="11.674330">
                <time>2017-07-15T08:31:15Z</time>
            </trkpt>
            <trkpt lat="46.311230" lon="11.674330">
                <time>2017-07-15T08:31:16Z</time>
            </trkpt>
            <trkpt lat="46.311230" lon="11.674330">
                <time>2017-07-15T08:31:17Z</time>
            </trkpt>
            <trkpt lat="46.311230" lon="11.674330">
                <time>2017-07-15T08:31:18Z</time>
            </trkpt>
            <trkpt lat="46.311230" lon="11.674330">
                <time>2017-07-15T08:31:19Z</time>
            </trkpt>
            <trkpt lat="46.311230" lon="11.674330">
                <time>2017-07-15T08:31:20Z</time>
            </trkpt>
            <trkpt lat="46.311230" lon="11.674330">
                <time>2017-07-15T08:31:21Z</time>
            </trkpt>
            <trkpt lat="46.311230" lon="11.674330">
                <time>2017-07-15T08:31:22Z</time>
            </trkpt>
            <trkpt lat="46.311230" lon="11.674330">
                <time>2017-07-15T08:31:23Z</time>
            </trkpt>
            <trkpt lat="46.311230" lon="11.674330">
                <time>2017-07-15T08:31:24Z</time>
            </trkpt>
            <trkpt lat="46.311230" lon="11.674330">
                <time>2017-07-15T08:31:25Z</time>
            </trkpt>
            <trkpt lat="46.311230" lon="11.674330">
                <time>2017-07-15T08:31:26Z</time>
            </trkpt>
            <trkpt lat="46.311230" lon="11.674330">
                <time>2017-07-15T08:31:27Z</time>
            </trkpt>
            <trkpt lat="46.311230" lon="11.674330">
                <time>2017-07-15T08:31:28Z</time>
            </trkpt>
            <trkpt lat="46.311230" lon="11.674330">
                <time>2017-07-15T08:31:29Z</time>
            </trkpt>
            <trkpt lat="46.311230" lon="11.674330">
                <time>2017-07-15T08:31:30Z</time>
            </trkpt>
            <trkpt lat="46.311230" lon="11.674330">
                <time>2017-07-15T08:31:31Z</time>
            </trkpt>
            <trkpt lat="46.311230" lon="11.674330">
                <time>2017-07-15T08:31:32Z</time>
            </trkpt>
            <trkpt lat="46.311230" lon="11.674330">
                <time>2017-07-15T08:31:33Z</time>
            </trkpt>
            <trkpt lat="46.311230" lon="11.674330">
                <time>2017-07-15T08:31:34Z</time>
            </trkpt>
            <trkpt lat="46.311230" lon="11.674330">
                <time>2017-07-15T08:31:35Z</time>
            </trkpt>
            <trkpt lat="46.311230" lon="11.674330">
                <time>2017-07-15T08:31:36Z</time>
            </trkpt>
            <trkpt lat="46.311230" lon="11.674330">
                <time>2017-07-15T08:31:37Z</time>
            </trkpt>
            <trkpt lat="46.311230" lon="11.674330">
                <time>2017-07-15T08:31:38Z</time>
            </trkpt>
            <trkpt lat="46.311230" lon="11.674330">
                <time>2017-07-15T08:31:39Z</time>
            </trkpt>
            <trkpt lat="46.311230" lon="11.674330">
                <time>2017-07-15T08:31:40Z</time>
            </trkpt>
            <trkpt lat="46.311230" lon="11.674330">
                <time>2017-07-15T08:31:41Z</time>
            </trkpt>
            <trkpt lat="46.311230" lon="11.674330">
                <time>2017-07-15T08:31:42Z</time>
            </trkpt>
            <trkpt lat="46.311230" lon="11.674330">
                <time>2017-07-15T08:31:43Z</time>
            </trkpt>
            <trkpt lat="46.311230" lon="11.674330">
                <time>2017-07-15T08:31:44Z</time>
            </trkpt>
            <trkpt lat="46.311230" lon="11.674330">
                <time>2017-07-15T08:31:45Z</time>
            </trkpt>
            <trkpt lat="46.311230" lon="11.674330">
                <time>2017-07-15T08:31:46Z</time>
            </trkpt>
            <trkpt lat="46.311230" lon="11.674330">
                <time>2017-07-15T08:31:47Z</time>
            </trkpt>
            <trkpt lat="46.311230" lon="11.674330">
                <time>2017-07-15T08:31:48Z</time>
            </trkpt>
            <trkpt lat="46.311230" lon="11.674330">
                <time>2017-07-15T08:31:49Z</time>
            </trkpt>
            <trkpt lat="46.311230" lon="11.674330">
                <time>2017-07-15T08:31:50Z</time>
            </trkpt>
            <trkpt lat="46.311230" lon="11.674330">
                <time>2017-07-15T08:31:51Z</time>
            </trkpt>
            <trkpt lat="46.311230" lon="11.674330">
                <time>2017-07-15T08:31:52Z</time>
            </trkpt>
            <trkpt lat="46.311230" lon="11.674330">
                <time>2017-07-15T08:31:53Z</time>
            </trkpt>
            <trkpt lat="46.311230" lon="11.674330">
                <time>2017-07-15T08:31:54Z</time>
            </trkpt>
            <trkpt lat="46.311230" lon="11.674330">
                <time>2017-07-15T08:31:55Z</time>
            </trkpt>
            <trkpt lat="46.311230" lon="11.674330">
                <time>2017-07-15T08:31:56Z</time>
            </trkpt>
            <trkpt lat="46.311230" lon="11.674330">
                <time>2017-07-15T08:31:57Z</time>
            </trkpt>
            <trkpt lat="46.311230" lon="11.674330">
                <time>2017-07-15T08:31:58Z</time>
            </trkpt>
            <trkpt lat="46.311230" lon="11.674330">
                <time>2017-07-15T08:31:59Z</time>
            </trkpt>
            <trkpt lat="46.311230" lon="11.674330">
                <time>2017-07-15T08:32:00Z</time>
            </trkpt>
            <trkpt lat="46.311230" lon="11.674330">
                <time>2017-07-15T08:32:01Z</time>
            </trkpt>
            <trkpt lat="46.311230" lon="11.674330">
                <time>2017-07-15T08:32:02Z</time>
            </trkpt>
            <trkpt lat="46.311230" lon="11.674330">
                <time>2017-07-15T08:32:03Z</time>
            </trkpt>
            <trkpt lat="46.311230" lon="11.674330">
                <time>2017-07-15T08:32:04Z</time>
            </trkpt>
            <trkpt lat="46.311230" lon="11.674330">
                <time>2017-07-15T08:32:05Z</time>
            </trkpt>
            <trkpt lat="46.311230" lon="11.674330">
                <time>2017-07-15T08:32:06Z</time>
            </trkpt>
            <trkpt lat="46.311230" lon="11.674330">
                <time>2017-07-15T08:32:07Z</time>
            </trkpt>
            <trkpt lat="46.311230" lon="11.674330">
                <time>2017-07-15T08:32:08Z</time>
            </trkpt>
            <trkpt lat="46.311230" lon="11.674330">
                <time>2017-07-15T08:32:09Z</time>
            </trkpt>
            <trkpt lat="46.311230" lon="11.674330">
                <time>2017-07-15T08:32:10Z</time>
            </trkpt>
            <trkpt lat="46.311230" lon="11.674330">
                <time>2017-07-15T08:32:11Z</time>
            </trkpt>
            <trkpt lat="46.311230" lon="11.674330">
                <time>2017-07-15T08:32:12Z</time>
            </trkpt>
            <trkpt lat="46.311230" lon="11.674330">
                <time>2017-07-15T08:32:13Z</time>
            </trkpt>
            <trkpt lat="46.311230" lon="11.674330">
                <time>2017-07-15T08:32:14Z</time>
            </trkpt>
            <trkpt lat="46.311230" lon="11.674330">
                <time>2017-07-15T08:32:15Z</time>
            </trkpt>
            <trkpt lat="46.311230" lon="11.674330">
                <time>2017-07-15T08:32:16Z</time>
            </trkpt>
            <trkpt lat="46.311230" lon="11.674330">
                <time>2017-07-15T08:32:17Z</time>
            </trkpt>
            <trkpt lat="46.311230" lon="11.674330">
                <time>2017-07-15T08:32:18Z</time>
            </trkpt>
            <trkpt lat="46.311230" lon="11.674330">
                <time>2017-07-15T08:32:19Z</time>
            </trkpt>
            <trkpt lat="46.311230" lon="11.674330">
                <time>2017-07-15T08:32:20Z</time>
            </trkpt>
            <trkpt lat="46.311230" lon="11.674330">
                <time>2017-07-15T08:32:21Z</time>
            </trkpt>
            <trkpt lat="46.311230" lon="11.674330">
                <time>2017-07-15T08:32:22Z</time>
            </trkpt>
            <trkpt lat="46.311230" lon="11.674330">
                <time>2017-07-15T08:32:23Z</time>
            </trkpt>
            <trkpt lat="46.311230" lon="11.674330">
                <time>2017-07-15T08:32:24Z</time>
            </trkpt>
            <trkpt lat="46.311230" lon="11.674330">
                <time>2017-07-15T08:32:25Z</time>
            </trkpt>
            <trkpt lat="46.311230" lon="11.674330">
                <time>2017-07-15T08:32:26Z</time>
            </trkpt>
            <trkpt lat="46.311230" lon="11.674330">
                <time>2017-07-15T08:32:27Z</time>
            </trkpt>
            <trkpt lat="46.311230" lon="11.674330">
                <time>2017-07-15T08:32:28Z</time>
            </trkpt>
            <trkpt lat="46.311230" lon="11.674330">
                <time>2017-07-15T08:32:29Z</time>
            </trkpt>
            <trkpt lat="46.311230" lon="11.674330">
                <time>2017-07-15T08:32:30Z</time>
            </trkpt>
            <trkpt lat="46.311230" lon="11.674330">
                <time>2017-07-15T08:32:31Z</time>
            </trkpt>
            <trkpt lat="46.311230" lon="11.674330">
                <time>2017-07-15T08:32:32Z</time>
            </trkpt>
            <trkpt lat="46.311230" lon="11.674330">
                <time>2017-07-15T08:32:33Z</time>
            </trkpt>
            <trkpt lat="46.311230" lon="11.674330">
                <time>2017-07-15T08:32:34Z</time>
            </trkpt>
            <trkpt lat="46.311230" lon="11.674330">
                <time>2017-07-15T08:32:35Z</time>
            </trkpt>
            <trkpt lat="46.311250" lon="11.674340">
                <time>2017-07-15T08:39:49Z</time>
            </trkpt>
            <trkpt lat="46.311230" lon="11.674350">
                <time>2017-07-15T08:39:50Z</time>
            </trkpt>
            <trkpt lat="46.311280" lon="11.674350">
                <time>2017-07-15T08:39:51Z</time>
            </trkpt>
            <trkpt lat="46.311180" lon="11.674300">
                <time>2017-07-15T08:39:52Z</time>
            </trkpt>
            <trkpt lat="46.311210" lon="11.674320">
                <time>2017-07-15T08:39:53Z</time>
            </trkpt>
            <trkpt lat="46.311150" lon="11.674260">
                <time>2017-07-15T08:39:54Z</time>
            </trkpt>
            <trkpt lat="46.311220" lon="11.674300">
                <time>2017-07-15T08:39:55Z</time>
            </trkpt>
            <trkpt lat="46.311240" lon="11.674320">
                <time>2017-07-15T08:39:57Z</time>
            </trkpt>
            <trkpt lat="46.311240" lon="11.674320">
                <time>2017-07-15T08:39:58Z</time>
            </trkpt>
            <trkpt lat="46.311240" lon="11.674320">
                <time>2017-07-15T08:39:59Z</time>
            </trkpt>
            <trkpt lat="46.311240" lon="11.674320">
                <time>2017-07-15T08:40:01Z</time>
            </trkpt>
            <trkpt lat="46.311240" lon="11.674320">
                <time>2017-07-15T08:40:02Z</time>
            </trkpt>
            <trkpt lat="46.311240" lon="11.674320">
                <time>2017-07-15T08:40:03Z</time>
            </trkpt>
            <trkpt lat="46.311240" lon="11.674320">
                <time>2017-07-15T08:40:04Z</time>
            </trkpt>
            <trkpt lat="46.311240" lon="11.674320">
                <time>2017-07-15T08:40:05Z</time>
            </trkpt>
            <trkpt lat="46.311240" lon="11.674320">
                <time>2017-07-15T08:40:06Z</time>
            </trkpt>
            <trkpt lat="46.311240" lon="11.674320">
                <time>2017-07-15T08:40:07Z</time>
            </trkpt>
            <trkpt lat="46.311240" lon="11.674320">
                <time>2017-07-15T08:40:08Z</time>
            </trkpt>
            <trkpt lat="46.311240" lon="11.674320">
                <time>2017-07-15T08:40:09Z</time>
            </trkpt>
            <trkpt lat="46.311240" lon="11.674320">
                <time>2017-07-15T08:40:10Z</time>
            </trkpt>
            <trkpt lat="46.311240" lon="11.674320">
                <time>2017-07-15T08:40:11Z</time>
            </trkpt>
            <trkpt lat="46.311240" lon="11.674320">
                <time>2017-07-15T08:40:12Z</time>
            </trkpt>
            <trkpt lat="46.311240" lon="11.674320">
                <time>2017-07-15T08:40:13Z</time>
            </trkpt>
            <trkpt lat="46.311240" lon="11.674320">
                <time>2017-07-15T08:40:14Z</time>
            </trkpt>
            <trkpt lat="46.311240" lon="11.674320">
                <time>2017-07-15T08:40:15Z</time>
            </trkpt>
            <trkpt lat="46.311240" lon="11.674320">
                <time>2017-07-15T08:40:16Z</time>
            </trkpt>
            <trkpt lat="46.311240" lon="11.674320">
                <time>2017-07-15T08:40:17Z</time>
            </trkpt>
            <trkpt lat="46.311240" lon="11.674320">
                <time>2017-07-15T08:40:18Z</time>
            </trkpt>
            <trkpt lat="46.311240" lon="11.674320">
                <time>2017-07-15T08:40:19Z</time>
            </trkpt>
            <trkpt lat="46.311240" lon="11.674320">
                <time>2017-07-15T08:40:20Z</time>
            </trkpt>
            <trkpt lat="46.311240" lon="11.674320">
                <time>2017-07-15T08:40:21Z</time>
            </trkpt>
            <trkpt lat="46.311240" lon="11.674320">
                <time>2017-07-15T08:40:22Z</time>
            </trkpt>
            <trkpt lat="46.311240" lon="11.674320">
                <time>2017-07-15T08:40:23Z</time>
            </trkpt>
            <trkpt lat="46.311240" lon="11.674320">
                <time>2017-07-15T08:40:24Z</time>
            </trkpt>
            <trkpt lat="46.311240" lon="11.674320">
                <time>2017-07-15T08:40:25Z</time>
            </trkpt>
            <trkpt lat="46.311240" lon="11.674320">
                <time>2017-07-15T08:40:26Z</time>
            </trkpt>
            <trkpt lat="46.311240" lon="11.674320">
                <time>2017-07-15T08:40:27Z</time>
            </trkpt>
            <trkpt lat="46.311240" lon="11.674320">
                <time>2017-07-15T08:40:28Z</time>
            </trkpt>
            <trkpt lat="46.311240" lon="11.674320">
                <time>2017-07-15T08:40:29Z</time>
            </trkpt>
            <trkpt lat="46.311240" lon="11.674320">
                <time>2017-07-15T08:40:30Z</time>
            </trkpt>
            <trkpt lat="46.311240" lon="11.674320">
                <time>2017-07-15T08:40:31Z</time>
            </trkpt>
            <trkpt lat="46.311240" lon="11.674320">
                <time>2017-07-15T08:40:32Z</time>
            </trkpt>
            <trkpt lat="46.311240" lon="11.674320">
                <time>2017-07-15T08:40:33Z</time>
            </trkpt>
            <trkpt lat="46.311240" lon="11.674320">
                <time>2017-07-15T08:40:34Z</time>
            </trkpt>
            <trkpt lat="46.311240" lon="11.674320">
                <time>2017-07-15T08:40:35Z</time>
            </trkpt>
            <trkpt lat="46.311240" lon="11.674320">
                <time>2017-07-15T08:40:36Z</time>
            </trkpt>
            <trkpt lat="46.311240" lon="11.674320">
                <time>2017-07-15T08:40:37Z</time>
            </trkpt>
            <trkpt lat="46.311240" lon="11.674320">
                <time>2017-07-15T08:40:38Z</time>
            </trkpt>
            <trkpt lat="46.311240" lon="11.674320">
                <time>2017-07-15T08:40:39Z</time>
            </trkpt>
            <trkpt lat="46.311240" lon="11.674320">
                <time>2017-07-15T08:40:40Z</time>
            </trkpt>
            <trkpt lat="46.311240" lon="11.674320">
                <time>2017-07-15T08:40:41Z</time>
            </trkpt>
            <trkpt lat="46.311240" lon="11.674320">
                <time>2017-07-15T08:40:42Z</time>
            </trkpt>
            <trkpt lat="46.311240" lon="11.674320">
                <time>2017-07-15T08:40:43Z</time>
            </trkpt>
            <trkpt lat="46.311240" lon="11.674320">
                <time>2017-07-15T08:40:44Z</time>
            </trkpt>
            <trkpt lat="46.311240" lon="11.674320">
                <time>2017-07-15T08:40:45Z</time>
            </trkpt>
            <trkpt lat="46.311240" lon="11.674320">
                <time>2017-07-15T08:40:46Z</time>
            </trkpt>
            <trkpt lat="46.311240" lon="11.674320">
                <time>2017-07-15T08:40:47Z</time>
            </trkpt>
            <trkpt lat="46.311240" lon="11.674320">
                <time>2017-07-15T08:40:48Z</time>
            </trkpt>
            <trkpt lat="46.311240" lon="11.674320">
                <time>2017-07-15T08:40:49Z</time>
            </trkpt>
            <trkpt lat="46.311240" lon="11.674320">
                <time>2017-07-15T08:40:50Z</time>
            </trkpt>
            <trkpt lat="46.311240" lon="11.674320">
                <time>2017-07-15T08:40:51Z</time>
            </trkpt>
            <trkpt lat="46.311240" lon="11.674320">
                <time>2017-07-15T08:40:52Z</time>
            </trkpt>
            <trkpt lat="46.311240" lon="11.674320">
                <time>2017-07-15T08:40:53Z</time>
            </trkpt>
            <trkpt lat="46.311240" lon="11.674320">
                <time>2017-07-15T08:40:54Z</time>
            </trkpt>
            <trkpt lat="46.311240" lon="11.674320">
                <time>2017-07-15T08:40:55Z</time>
            </trkpt>
            <trkpt lat="46.311240" lon="11.674320">
                <time>2017-07-15T08:40:56Z</time>
            </trkpt>
            <trkpt lat="46.311240" lon="11.674320">
                <time>2017-07-15T08:40:57Z</time>
            </trkpt>
            <trkpt lat="46.311240" lon="11.674320">
                <time>2017-07-15T08:40:58Z</time>
            </trkpt>
            <trkpt lat="46.311240" lon="11.674320">
                <time>2017-07-15T08:40:59Z</time>
            </trkpt>
            <trkpt lat="46.311240" lon="11.674320">
                <time>2017-07-15T08:41:00Z</time>
            </trkpt>
            <trkpt lat="46.311240" lon="11.674320">
                <time>2017-07-15T08:41:01Z</time>
            </trkpt>
            <trkpt lat="46.311240" lon="11.674320">
                <time>2017-07-15T08:41:02Z</time>
            </trkpt>
            <trkpt lat="46.311240" lon="11.674320">
                <time>2017-07-15T08:41:03Z</time>
            </trkpt>
            <trkpt lat="46.311240" lon="11.674320">
                <time>2017-07-15T08:41:04Z</time>
            </trkpt>
            <trkpt lat="46.311240" lon="11.674320">
                <time>2017-07-15T08:41:05Z</time>
            </trkpt>
            <trkpt lat="46.311240" lon="11.674320">
                <time>2017-07-15T08:41:06Z</time>
            </trkpt>
            <trkpt lat="46.311240" lon="11.674320">
                <time>2017-07-15T08:41:07Z</time>
            </trkpt>
            <trkpt lat="46.311240" lon="11.674320">
                <time>2017-07-15T08:41:08Z</time>
            </trkpt>
            <trkpt lat="46.311240" lon="11.674320">
                <time>2017-07-15T08:41:09Z</time>
            </trkpt>
            <trkpt lat="46.311240" lon="11.674320">
                <time>2017-07-15T08:41:10Z</time>
            </trkpt>
            <trkpt lat="46.311240" lon="11.674320">
                <time>2017-07-15T08:41:11Z</time>
            </trkpt>
            <trkpt lat="46.311240" lon="11.674320">
                <time>2017-07-15T08:41:12Z</time>
            </trkpt>
            <trkpt lat="46.311240" lon="11.674320">
                <time>2017-07-15T08:41:13Z</time>
            </trkpt>
            <trkpt lat="46.311240" lon="11.674320">
                <time>2017-07-15T08:41:14Z</time>
            </trkpt>
            <trkpt lat="46.311240" lon="11.674320">
                <time>2017-07-15T08:41:15Z</time>
            </trkpt>
            <trkpt lat="46.311240" lon="11.674320">
                <time>2017-07-15T08:41:16Z</time>
            </trkpt>
            <trkpt lat="46.311240" lon="11.674320">
                <time>2017-07-15T08:41:17Z</time>
            </trkpt>
            <trkpt lat="46.311240" lon="11.674320">
                <time>2017-07-15T08:41:18Z</time>
            </trkpt>
            <trkpt lat="46.311240" lon="11.674320">
                <time>2017-07-15T08:41:19Z</time>
            </trkpt>
            <trkpt lat="46.311240" lon="11.674320">
                <time>2017-07-15T08:41:20Z</time>
            </trkpt>
            <trkpt lat="46.311240" lon="11.674320">
                <time>2017-07-15T08:41:21Z</time>
            </trkpt>
            <trkpt lat="46.311240" lon="11.674320">
                <time>2017-07-15T08:41:22Z</time>
            </trkpt>
            <trkpt lat="46.311240" lon="11.674320">
                <time>2017-07-15T08:41:23Z</time>
            </trkpt>
            <trkpt lat="46.311240" lon="11.674320">
                <time>2017-07-15T08:41:24Z</time>
            </trkpt>
            <trkpt lat="46.311240" lon="11.674320">
                <time>2017-07-15T08:41:25Z</time>
            </trkpt>
            <trkpt lat="46.311240" lon="11.674320">
                <time>2017-07-15T08:41:26Z</time>
            </trkpt>
            <trkpt lat="46.311240" lon="11.674320">
                <time>2017-07-15T08:41:27Z</time>
            </trkpt>
            <trkpt lat="46.311240" lon="11.674320">
                <time>2017-07-15T08:41:28Z</time>
            </trkpt>
            <trkpt lat="46.311240" lon="11.674320">
                <time>2017-07-15T08:41:29Z</time>
            </trkpt>
            <trkpt lat="46.311240" lon="11.674320">
                <time>2017-07-15T08:41:30Z</time>
            </trkpt>
            <trkpt lat="46.311240" lon="11.674320">
                <time>2017-07-15T08:41:31Z</time>
            </trkpt>
            <trkpt lat="46.311240" lon="11.674320">
                <time>2017-07-15T08:41:32Z</time>
            </trkpt>
            <trkpt lat="46.311240" lon="11.674320">
                <time>2017-07-15T08:41:33Z</time>
            </trkpt>
            <trkpt lat="46.311240" lon="11.674320">
                <time>2017-07-15T08:41:34Z</time>
            </trkpt>
            <trkpt lat="46.311240" lon="11.674320">
                <time>2017-07-15T08:41:35Z</time>
            </trkpt>
            <trkpt lat="46.311240" lon="11.674320">
                <time>2017-07-15T08:41:36Z</time>
            </trkpt>
            <trkpt lat="46.311240" lon="11.674320">
                <time>2017-07-15T08:41:37Z</time>
            </trkpt>
            <trkpt lat="46.311240" lon="11.674320">
                <time>2017-07-15T08:41:38Z</time>
            </trkpt>
            <trkpt lat="46.311240" lon="11.674320">
                <time>2017-07-15T08:41:39Z</time>
            </trkpt>
            <trkpt lat="46.311240" lon="11.674320">
                <time>2017-07-15T08:41:40Z</time>
            </trkpt>
            <trkpt lat="46.311240" lon="11.674320">
                <time>2017-07-15T08:41:41Z</time>
            </trkpt>
            <trkpt lat="46.311240" lon="11.674320">
                <time>2017-07-15T08:41:42Z</time>
            </trkpt>
            <trkpt lat="46.311240" lon="11.674320">
                <time>2017-07-15T08:41:43Z</time>
            </trkpt>
            <trkpt lat="46.311240" lon="11.674320">
                <time>2017-07-15T08:41:44Z</time>
            </trkpt>
            <trkpt lat="46.311240" lon="11.674320">
                <time>2017-07-15T08:41:45Z</time>
            </trkpt>
            <trkpt lat="46.311240" lon="11.674320">
                <time>2017-07-15T08:41:46Z</time>
            </trkpt>
            <trkpt lat="46.311240" lon="11.674320">
                <time>2017-07-15T08:41:47Z</time>
            </trkpt>
            <trkpt lat="46.311240" lon="11.674320">
                <time>2017-07-15T08:41:48Z</time>
            </trkpt>
            <trkpt lat="46.311240" lon="11.674320">
                <time>2017-07-15T08:41:49Z</time>
            </trkpt>
            <trkpt lat="46.311240" lon="11.674320">
                <time>2017-07-15T08:41:50Z</time>
            </trkpt>
            <trkpt lat="46.311240" lon="11.674320">
                <time>2017-07-15T08:41:51Z</time>
            </trkpt>
            <trkpt lat="46.311240" lon="11.674320">
                <time>2017-07-15T08:41:52Z</time>
            </trkpt>
            <trkpt lat="46.311240" lon="11.674320">
                <time>2017-07-15T08:41:53Z</time>
            </trkpt>
            <trkpt lat="46.311240" lon="11.674320">
                <time>2017-07-15T08:41:54Z</time>
            </trkpt>
            <trkpt lat="46.311240" lon="11.674320">
                <time>2017-07-15T08:41:55Z</time>
            </trkpt>
            <trkpt lat="46.311240" lon="11.674320">
                <time>2017-07-15T08:41:56Z</time>
            </trkpt>
            <trkpt lat="46.311240" lon="11.674320">
                <time>2017-07-15T08:41:57Z</time>
            </trkpt>
            <trkpt lat="46.311240" lon="11.674320">
                <time>2017-07-15T08:41:58Z</time>
            </trkpt>
            <trkpt lat="46.311240" lon="11.674320">
                <time>2017-07-15T08:41:59Z</time>
            </trkpt>
            <trkpt lat="46.311240" lon="11.674320">
                <time>2017-07-15T08:42:00Z</time>
            </trkpt>
            <trkpt lat="46.311240" lon="11.674320">
                <time>2017-07-15T08:42:01Z</time>
            </trkpt>
            <trkpt lat="46.311240" lon="11.674320">
                <time>2017-07-15T08:42:02Z</time>
            </trkpt>
            <trkpt lat="46.311240" lon="11.674320">
                <time>2017-07-15T08:42:03Z</time>
            </trkpt>
            <trkpt lat="46.311240" lon="11.674320">
                <time>2017-07-15T08:42:04Z</time>
            </trkpt>
            <trkpt lat="46.311240" lon="11.674320">
                <time>2017-07-15T08:42:05Z</time>
            </trkpt>
            <trkpt lat="46.311240" lon="11.674320">
                <time>2017-07-15T08:42:06Z</time>
            </trkpt>
            <trkpt lat="46.311240" lon="11.674320">
                <time>2017-07-15T08:42:07Z</time>
            </trkpt>
            <trkpt lat="46.311240" lon="11.674320">
                <time>2017-07-15T08:42:08Z</time>
            </trkpt>
            <trkpt lat="46.311240" lon="11.674320">
                <time>2017-07-15T08:42:09Z</time>
            </trkpt>
            <trkpt lat="46.311240" lon="11.674320">
                <time>2017-07-15T08:42:10Z</time>
            </trkpt>
            <trkpt lat="46.311240" lon="11.674320">
                <time>2017-07-15T08:42:11Z</time>
            </trkpt>
            <trkpt lat="46.311240" lon="11.674320">
                <time>2017-07-15T08:42:12Z</time>
            </trkpt>
            <trkpt lat="46.311240" lon="11.674320">
                <time>2017-07-15T08:42:13Z</time>
            </trkpt>
            <trkpt lat="46.311240" lon="11.674320">
                <time>2017-07-15T08:42:14Z</time>
            </trkpt>
            <trkpt lat="46.311240" lon="11.674320">
                <time>2017-07-15T08:42:15Z</time>
            </trkpt>
            <trkpt lat="46.311240" lon="11.674320">
                <time>2017-07-15T08:42:16Z</time>
            </trkpt>
            <trkpt lat="46.311240" lon="11.674320">
                <time>2017-07-15T08:42:17Z</time>
            </trkpt>
            <trkpt lat="46.311240" lon="11.674320">
                <time>2017-07-15T08:42:18Z</time>
            </trkpt>
            <trkpt lat="46.311240" lon="11.674320">
                <time>2017-07-15T08:42:19Z</time>
            </trkpt>
            <trkpt lat="46.311240" lon="11.674320">
                <time>2017-07-15T08:42:20Z</time>
            </trkpt>
            <trkpt lat="46.311240" lon="11.674320">
                <time>2017-07-15T08:42:21Z</time>
            </trkpt>
            <trkpt lat="46.311240" lon="11.674320">
                <time>2017-07-15T08:42:22Z</time>
            </trkpt>
            <trkpt lat="46.311240" lon="11.674320">
                <time>2017-07-15T08:42:23Z</time>
            </trkpt>
            <trkpt lat="46.311240" lon="11.674320">
                <time>2017-07-15T08:42:24Z</time>
            </trkpt>
            <trkpt lat="46.311240" lon="11.674320">
                <time>2017-07-15T08:42:25Z</time>
            </trkpt>
            <trkpt lat="46.311240" lon="11.674320">
                <time>2017-07-15T08:42:26Z</time>
            </trkpt>
            <trkpt lat="46.311240" lon="11.674320">
                <time>2017-07-15T08:42:27Z</time>
            </trkpt>
            <trkpt lat="46.311240" lon="11.674320">
                <time>2017-07-15T08:42:28Z</time>
            </trkpt>
            <trkpt lat="46.311240" lon="11.674320">
                <time>2017-07-15T08:42:29Z</time>
            </trkpt>
            <trkpt lat="46.311240" lon="11.674320">
                <time>2017-07-15T08:42:30Z</time>
            </trkpt>
            <trkpt lat="46.311240" lon="11.674320">
                <time>2017-07-15T08:42:31Z</time>
            </trkpt>
            <trkpt lat="46.311240" lon="11.674320">
                <time>2017-07-15T08:42:32Z</time>
            </trkpt>
            <trkpt lat="46.311240" lon="11.674320">
                <time>2017-07-15T08:42:33Z</time>
            </trkpt>
            <trkpt lat="46.311240" lon="11.674320">
                <time>2017-07-15T08:42:34Z</time>
            </trkpt>
            <trkpt lat="46.311240" lon="11.674320">
                <time>2017-07-15T08:42:35Z</time>
            </trkpt>
            <trkpt lat="46.311240" lon="11.674320">
                <time>2017-07-15T08:42:36Z</time>
            </trkpt>
            <trkpt lat="46.311240" lon="11.674320">
                <time>2017-07-15T08:42:37Z</time>
            </trkpt>
            <trkpt lat="46.311240" lon="11.674320">
                <time>2017-07-15T08:42:38Z</time>
            </trkpt>
            <trkpt lat="46.311240" lon="11.674320">
                <time>2017-07-15T08:42:39Z</time>
            </trkpt>
            <trkpt lat="46.311240" lon="11.674320">
                <time>2017-07-15T08:42:40Z</time>
            </trkpt>
            <trkpt lat="46.311240" lon="11.674320">
                <time>2017-07-15T08:42:41Z</time>
            </trkpt>
            <trkpt lat="46.311240" lon="11.674320">
                <time>2017-07-15T08:42:42Z</time>
            </trkpt>
            <trkpt lat="46.311240" lon="11.674320">
                <time>2017-07-15T08:42:43Z</time>
            </trkpt>
            <trkpt lat="46.311240" lon="11.674320">
                <time>2017-07-15T08:42:44Z</time>
            </trkpt>
            <trkpt lat="46.311240" lon="11.674320">
                <time>2017-07-15T08:42:45Z</time>
            </trkpt>
            <trkpt lat="46.311240" lon="11.674320">
                <time>2017-07-15T08:42:46Z</time>
            </trkpt>
            <trkpt lat="46.311240" lon="11.674320">
                <time>2017-07-15T08:42:47Z</time>
            </trkpt>
            <trkpt lat="46.311240" lon="11.674320">
                <time>2017-07-15T08:42:48Z</time>
            </trkpt>
            <trkpt lat="46.311240" lon="11.674320">
                <time>2017-07-15T08:42:49Z</time>
            </trkpt>
            <trkpt lat="46.311240" lon="11.674320">
                <time>2017-07-15T08:42:50Z</time>
            </trkpt>
            <trkpt lat="46.311240" lon="11.674320">
                <time>2017-07-15T08:42:51Z</time>
            </trkpt>
            <trkpt lat="46.311240" lon="11.674320">
                <time>2017-07-15T08:42:52Z</time>
            </trkpt>
            <trkpt lat="46.311240" lon="11.674320">
                <time>2017-07-15T08:42:53Z</time>
            </trkpt>
            <trkpt lat="46.311240" lon="11.674320">
                <time>2017-07-15T08:42:54Z</time>
            </trkpt>
            <trkpt lat="46.311240" lon="11.674320">
                <time>2017-07-15T08:42:55Z</time>
            </trkpt>
            <trkpt lat="46.311240" lon="11.674320">
                <time>2017-07-15T08:42:56Z</time>
            </trkpt>
            <trkpt lat="46.311240" lon="11.674320">
                <time>2017-07-15T08:42:57Z</time>
            </trkpt>
            <trkpt lat="46.311240" lon="11.674320">
                <time>2017-07-15T08:42:58Z</time>
            </trkpt>
            <trkpt lat="46.311240" lon="11.674320">
                <time>2017-07-15T08:42:59Z</time>
            </trkpt>
            <trkpt lat="46.311240" lon="11.674320">
                <time>2017-07-15T08:43:00Z</time>
            </trkpt>
            <trkpt lat="46.311240" lon="11.674320">
                <time>2017-07-15T08:43:01Z</time>
            </trkpt>
            <trkpt lat="46.311240" lon="11.674320">
                <time>2017-07-15T08:43:02Z</time>
            </trkpt>
            <trkpt lat="46.311240" lon="11.674320">
                <time>2017-07-15T08:43:03Z</time>
            </trkpt>
            <trkpt lat="46.311240" lon="11.674320">
                <time>2017-07-15T08:43:04Z</time>
            </trkpt>
            <trkpt lat="46.311240" lon="11.674320">
                <time>2017-07-15T08:43:05Z</time>
            </trkpt>
            <trkpt lat="46.311240" lon="11.674320">
                <time>2017-07-15T08:43:06Z</time>
            </trkpt>
            <trkpt lat="46.311240" lon="11.674320">
                <time>2017-07-15T08:43:07Z</time>
            </trkpt>
            <trkpt lat="46.311240" lon="11.674320">
                <time>2017-07-15T08:43:08Z</time>
            </trkpt>
            <trkpt lat="46.311240" lon="11.674320">
                <time>2017-07-15T08:43:09Z</time>
            </trkpt>
            <trkpt lat="46.311240" lon="11.674320">
                <time>2017-07-15T08:43:10Z</time>
            </trkpt>
            <trkpt lat="46.311240" lon="11.674320">
                <time>2017-07-15T08:43:11Z</time>
            </trkpt>
            <trkpt lat="46.311240" lon="11.674320">
                <time>2017-07-15T08:43:12Z</time>
            </trkpt>
            <trkpt lat="46.311240" lon="11.674320">
                <time>2017-07-15T08:43:13Z</time>
            </trkpt>
            <trkpt lat="46.311240" lon="11.674320">
                <time>2017-07-15T08:43:14Z</time>
            </trkpt>
            <trkpt lat="46.311240" lon="11.674320">
                <time>2017-07-15T08:43:15Z</time>
            </trkpt>
            <trkpt lat="46.311240" lon="11.674320">
                <time>2017-07-15T08:43:16Z</time>
            </trkpt>
            <trkpt lat="46.311240" lon="11.674320">
                <time>2017-07-15T08:43:17Z</time>
            </trkpt>
            <trkpt lat="46.311240" lon="11.674320">
                <time>2017-07-15T08:43:18Z</time>
            </trkpt>
            <trkpt lat="46.311240" lon="11.674320">
                <time>2017-07-15T08:43:19Z</time>
            </trkpt>
            <trkpt lat="46.311240" lon="11.674320">
                <time>2017-07-15T08:43:20Z</time>
            </trkpt>
            <trkpt lat="46.311240" lon="11.674320">
                <time>2017-07-15T08:43:21Z</time>
            </trkpt>
            <trkpt lat="46.311240" lon="11.674320">
                <time>2017-07-15T08:43:22Z</time>
            </trkpt>
            <trkpt lat="46.311240" lon="11.674320">
                <time>2017-07-15T08:43:23Z</time>
            </trkpt>
            <trkpt lat="46.311240" lon="11.674320">
                <time>2017-07-15T08:43:24Z</time>
            </trkpt>
            <trkpt lat="46.311240" lon="11.674320">
                <time>2017-07-15T08:43:25Z</time>
            </trkpt>
            <trkpt lat="46.311240" lon="11.674320">
                <time>2017-07-15T08:43:26Z</time>
            </trkpt>
            <trkpt lat="46.311240" lon="11.674320">
                <time>2017-07-15T08:43:27Z</time>
            </trkpt>
            <trkpt lat="46.311240" lon="11.674320">
                <time>2017-07-15T08:43:28Z</time>
            </trkpt>
            <trkpt lat="46.311240" lon="11.674320">
                <time>2017-07-15T08:43:29Z</time>
            </trkpt>
            <trkpt lat="46.311240" lon="11.674320">
                <time>2017-07-15T08:43:30Z</time>
            </trkpt>
            <trkpt lat="46.311240" lon="11.674320">
                <time>2017-07-15T08:43:31Z</time>
            </trkpt>
            <trkpt lat="46.311240" lon="11.674320">
                <time>2017-07-15T08:43:32Z</time>
            </trkpt>
            <trkpt lat="46.311240" lon="11.674320">
                <time>2017-07-15T08:43:33Z</time>
            </trkpt>
            <trkpt lat="46.311240" lon="11.674320">
                <time>2017-07-15T08:43:34Z</time>
            </trkpt>
            <trkpt lat="46.311240" lon="11.674320">
                <time>2017-07-15T08:43:35Z</time>
            </trkpt>
            <trkpt lat="46.311240" lon="11.674320">
                <time>2017-07-15T08:43:36Z</time>
            </trkpt>
            <trkpt lat="46.311240" lon="11.674320">
                <time>2017-07-15T08:43:37Z</time>
            </trkpt>
            <trkpt lat="46.311240" lon="11.674320">
                <time>2017-07-15T08:43:38Z</time>
            </trkpt>
            <trkpt lat="46.311240" lon="11.674320">
                <time>2017-07-15T08:43:39Z</time>
            </trkpt>
            <trkpt lat="46.311240" lon="11.674320">
                <time>2017-07-15T08:43:40Z</time>
            </trkpt>
            <trkpt lat="46.311240" lon="11.674320">
                <time>2017-07-15T08:43:41Z</time>
            </trkpt>
            <trkpt lat="46.311240" lon="11.674320">
                <time>2017-07-15T08:43:42Z</time>
            </trkpt>
            <trkpt lat="46.311240" lon="11.674320">
                <time>2017-07-15T08:43:43Z</time>
            </trkpt>
            <trkpt lat="46.311240" lon="11.674320">
                <time>2017-07-15T08:43:44Z</time>
            </trkpt>
            <trkpt lat="46.311240" lon="11.674320">
                <time>2017-07-15T08:43:45Z</time>
            </trkpt>
            <trkpt lat="46.311240" lon="11.674320">
                <time>2017-07-15T08:43:46Z</time>
            </trkpt>
            <trkpt lat="46.311240" lon="11.674320">
                <time>2017-07-15T08:43:47Z</time>
            </trkpt>
            <trkpt lat="46.311240" lon="11.674320">
                <time>2017-07-15T08:43:48Z</time>
            </trkpt>
            <trkpt lat="46.311240" lon="11.674320">
                <time>2017-07-15T08:43:49Z</time>
            </trkpt>
            <trkpt lat="46.311240" lon="11.674320">
                <time>2017-07-15T08:43:50Z</time>
            </trkpt>
            <trkpt lat="46.311240" lon="11.674320">
                <time>2017-07-15T08:43:51Z</time>
            </trkpt>
            <trkpt lat="46.311240" lon="11.674320">
                <time>2017-07-15T08:43:52Z</time>
            </trkpt>
            <trkpt lat="46.311240" lon="11.674330">
                <time>2017-07-15T08:43:53Z</time>
            </trkpt>
            <trkpt lat="46.311230" lon="11.674330">
                <time>2017-07-15T08:43:54Z</time>
            </trkpt>
            <trkpt lat="46.311220" lon="11.674330">
                <time>2017-07-15T08:43:55Z</time>
            </trkpt>
            <trkpt lat="46.311220" lon="11.674330">
                <time>2017-07-15T08:43:56Z</time>
            </trkpt>
            <trkpt lat="46.311220" lon="11.674330">
                <time>2017-07-15T08:43:57Z</time>
            </trkpt>
            <trkpt lat="46.311220" lon="11.674340">
                <time>2017-07-15T08:43:58Z</time>
            </trkpt>
            <trkpt lat="46.311210" lon="11.674340">
                <time>2017-07-15T08:43:59Z</time>
            </trkpt>
            <trkpt lat="46.311210" lon="11.674340">
                <time>2017-07-15T08:44:00Z</time>
            </trkpt>
            <trkpt lat="46.311210" lon="11.674340">
                <time>2017-07-15T08:44:01Z</time>
            </trkpt>
            <trkpt lat="46.311210" lon="11.674340">
                <time>2017-07-15T08:44:02Z</time>
            </trkpt>
            <trkpt lat="46.311200" lon="11.674330">
                <time>2017-07-15T08:44:03Z</time>
            </trkpt>
            <trkpt lat="46.311190" lon="11.674310">
                <time>2017-07-15T08:44:04Z</time>
            </trkpt>
            <trkpt lat="46.311180" lon="11.674300">
                <time>2017-07-15T08:44:05Z</time>
            </trkpt>
            <trkpt lat="46.311160" lon="11.674300">
                <time>2017-07-15T08:44:06Z</time>
            </trkpt>
            <trkpt lat="46.311150" lon="11.674290">
                <time>2017-07-15T08:44:07Z</time>
            </trkpt>
            <trkpt lat="46.311140" lon="11.674300">
                <time>2017-07-15T08:44:08Z</time>
            </trkpt>
            <trkpt lat="46.311140" lon="11.674300">
                <time>2017-07-15T08:44:09Z</time>
            </trkpt>
            <trkpt lat="46.311130" lon="11.674290">
                <time>2017-07-15T08:44:10Z</time>
            </trkpt>
            <trkpt lat="46.311130" lon="11.674290">
                <time>2017-07-15T08:44:11Z</time>
            </trkpt>
            <trkpt lat="46.311120" lon="11.674260">
                <time>2017-07-15T08:44:12Z</time>
            </trkpt>
            <trkpt lat="46.311100" lon="11.674220">
                <time>2017-07-15T08:44:13Z</time>
            </trkpt>
            <trkpt lat="46.311090" lon="11.674160">
                <time>2017-07-15T08:44:14Z</time>
            </trkpt>
            <trkpt lat="46.311080" lon="11.674040">
                <time>2017-07-15T08:44:15Z</time>
            </trkpt>
            <trkpt lat="46.311070" lon="11.673960">
                <time>2017-07-15T08:44:16Z</time>
            </trkpt>
            <trkpt lat="46.311050" lon="11.673860">
                <time>2017-07-15T08:44:17Z</time>
            </trkpt>
            <trkpt lat="46.311040" lon="11.673770">
                <time>2017-07-15T08:44:18Z</time>
            </trkpt>
            <trkpt lat="46.311020" lon="11.673670">
                <time>2017-07-15T08:44:19Z</time>
            </trkpt>
            <trkpt lat="46.311010" lon="11.673560">
                <time>2017-07-15T08:44:20Z</time>
            </trkpt>
            <trkpt lat="46.311000" lon="11.673440">
                <time>2017-07-15T08:44:21Z</time>
            </trkpt>
            <trkpt lat="46.310990" lon="11.673310">
                <time>2017-07-15T08:44:22Z</time>
            </trkpt>
            <trkpt lat="46.310990" lon="11.673170">
                <time>2017-07-15T08:44:23Z</time>
            </trkpt>
            <trkpt lat="46.311000" lon="11.673030">
                <time>2017-07-15T08:44:24Z</time>
            </trkpt>
            <trkpt lat="46.311020" lon="11.672890">
                <time>2017-07-15T08:44:25Z</time>
            </trkpt>
            <trkpt lat="46.311050" lon="11.672740">
                <time>2017-07-15T08:44:26Z</time>
            </trkpt>
            <trkpt lat="46.311080" lon="11.672600">
                <time>2017-07-15T08:44:27Z</time>
            </trkpt>
            <trkpt lat="46.311120" lon="11.672450">
                <time>2017-07-15T08:44:28Z</time>
            </trkpt>
            <trkpt lat="46.311160" lon="11.672320">
                <time>2017-07-15T08:44:29Z</time>
            </trkpt>
            <trkpt lat="46.311200" lon="11.672170">
                <time>2017-07-15T08:44:30Z</time>
            </trkpt>
            <trkpt lat="46.311240" lon="11.672020">
                <time>2017-07-15T08:44:31Z</time>
            </trkpt>
            <trkpt lat="46.311270" lon="11.671860">
                <time>2017-07-15T08:44:32Z</time>
            </trkpt>
            <trkpt lat="46.311310" lon="11.671700">
                <time>2017-07-15T08:44:33Z</time>
            </trkpt>
            <trkpt lat="46.311350" lon="11.671540">
                <time>2017-07-15T08:44:34Z</time>
            </trkpt>
            <trkpt lat="46.311400" lon="11.671370">
                <time>2017-07-15T08:44:35Z</time>
            </trkpt>
            <trkpt lat="46.311440" lon="11.671180">
                <time>2017-07-15T08:44:36Z</time>
            </trkpt>
            <trkpt lat="46.311490" lon="11.671020">
                <time>2017-07-15T08:44:37Z</time>
            </trkpt>
            <trkpt lat="46.311550" lon="11.670850">
                <time>2017-07-15T08:44:38Z</time>
            </trkpt>
            <trkpt lat="46.311620" lon="11.670670">
                <time>2017-07-15T08:44:39Z</time>
            </trkpt>
            <trkpt lat="46.311690" lon="11.670510">
                <time>2017-07-15T08:44:40Z</time>
            </trkpt>
            <trkpt lat="46.311770" lon="11.670340">
                <time>2017-07-15T08:44:41Z</time>
            </trkpt>
            <trkpt lat="46.311850" lon="11.670160">
                <time>2017-07-15T08:44:42Z</time>
            </trkpt>
            <trkpt lat="46.311930" lon="11.670000">
                <time>2017-07-15T08:44:43Z</time>
            </trkpt>
            <trkpt lat="46.312010" lon="11.669810">
                <time>2017-07-15T08:44:44Z</time>
            </trkpt>
            <trkpt lat="46.312070" lon="11.669650">
                <time>2017-07-15T08:44:45Z</time>
            </trkpt>
            <trkpt lat="46.312130" lon="11.669470">
                <time>2017-07-15T08:44:46Z</time>
            </trkpt>
            <trkpt lat="46.312170" lon="11.669270">
                <time>2017-07-15T08:44:47Z</time>
            </trkpt>
            <trkpt lat="46.312200" lon="11.669080">
                <time>2017-07-15T08:44:48Z</time>
            </trkpt>
            <trkpt lat="46.312210" lon="11.668880">
                <time>2017-07-15T08:44:49Z</time>
            </trkpt>
            <trkpt lat="46.312220" lon="11.668660">
                <time>2017-07-15T08:44:50Z</time>
            </trkpt>
            <trkpt lat="46.312230" lon="11.668440">
                <time>2017-07-15T08:44:51Z</time>
            </trkpt>
            <trkpt lat="46.312230" lon="11.668200">
                <time>2017-07-15T08:44:52Z</time>
            </trkpt>
            <trkpt lat="46.312230" lon="11.668000">
                <time>2017-07-15T08:44:53Z</time>
            </trkpt>
            <trkpt lat="46.312230" lon="11.667790">
                <time>2017-07-15T08:44:54Z</time>
            </trkpt>
            <trkpt lat="46.312230" lon="11.667570">
                <time>2017-07-15T08:44:55Z</time>
            </trkpt>
            <trkpt lat="46.312240" lon="11.667390">
                <time>2017-07-15T08:44:56Z</time>
            </trkpt>
            <trkpt lat="46.312240" lon="11.667190">
                <time>2017-07-15T08:44:57Z</time>
            </trkpt>
            <trkpt lat="46.312240" lon="11.667000">
                <time>2017-07-15T08:44:58Z</time>
            </trkpt>
            <trkpt lat="46.312250" lon="11.666830">
                <time>2017-07-15T08:44:59Z</time>
            </trkpt>
            <trkpt lat="46.312250" lon="11.666650">
                <time>2017-07-15T08:45:00Z</time>
            </trkpt>
            <trkpt lat="46.312260" lon="11.666490">
                <time>2017-07-15T08:45:01Z</time>
            </trkpt>
            <trkpt lat="46.312280" lon="11.666320">
                <time>2017-07-15T08:45:02Z</time>
            </trkpt>
            <trkpt lat="46.312300" lon="11.666150">
                <time>2017-07-15T08:45:03Z</time>
            </trkpt>
            <trkpt lat="46.312320" lon="11.665990">
                <time>2017-07-15T08:45:04Z</time>
            </trkpt>
            <trkpt lat="46.312350" lon="11.665810">
                <time>2017-07-15T08:45:05Z</time>
            </trkpt>
            <trkpt lat="46.312380" lon="11.665640">
                <time>2017-07-15T08:45:06Z</time>
            </trkpt>
            <trkpt lat="46.312410" lon="11.665470">
                <time>2017-07-15T08:45:07Z</time>
            </trkpt>
            <trkpt lat="46.312450" lon="11.665300">
                <time>2017-07-15T08:45:08Z</time>
            </trkpt>
            <trkpt lat="46.312480" lon="11.665140">
                <time>2017-07-15T08:45:09Z</time>
            </trkpt>
            <trkpt lat="46.312510" lon="11.664980">
                <time>2017-07-15T08:45:10Z</time>
            </trkpt>
            <trkpt lat="46.312540" lon="11.664810">
                <time>2017-07-15T08:45:11Z</time>
            </trkpt>
            <trkpt lat="46.312560" lon="11.664650">
                <time>2017-07-15T08:45:12Z</time>
            </trkpt>
            <trkpt lat="46.312590" lon="11.664490">
                <time>2017-07-15T08:45:13Z</time>
            </trkpt>
            <trkpt lat="46.312630" lon="11.664320">
                <time>2017-07-15T08:45:14Z</time>
            </trkpt>
            <trkpt lat="46.312660" lon="11.664160">
                <time>2017-07-15T08:45:15Z</time>
            </trkpt>
            <trkpt lat="46.312690" lon="11.663980">
                <time>2017-07-15T08:45:16Z</time>
            </trkpt>
            <trkpt lat="46.312720" lon="11.663820">
                <time>2017-07-15T08:45:17Z</time>
            </trkpt>
            <trkpt lat="46.312760" lon="11.663660">
                <time>2017-07-15T08:45:18Z</time>
            </trkpt>
            <trkpt lat="46.312780" lon="11.663490">
                <time>2017-07-15T08:45:19Z</time>
            </trkpt>
            <trkpt lat="46.312820" lon="11.663340">
                <time>2017-07-15T08:45:20Z</time>
            </trkpt>
            <trkpt lat="46.312850" lon="11.663200">
                <time>2017-07-15T08:45:21Z</time>
            </trkpt>
            <trkpt lat="46.312900" lon="11.663050">
                <time>2017-07-15T08:45:22Z</time>
            </trkpt>
            <trkpt lat="46.312950" lon="11.662900">
                <time>2017-07-15T08:45:23Z</time>
            </trkpt>
            <trkpt lat="46.312990" lon="11.662740">
                <time>2017-07-15T08:45:24Z</time>
            </trkpt>
            <trkpt lat="46.313030" lon="11.662590">
                <time>2017-07-15T08:45:25Z</time>
            </trkpt>
            <trkpt lat="46.313070" lon="11.662440">
                <time>2017-07-15T08:45:26Z</time>
            </trkpt>
            <trkpt lat="46.313120" lon="11.662280">
                <time>2017-07-15T08:45:27Z</time>
            </trkpt>
            <trkpt lat="46.313150" lon="11.662150">
                <time>2017-07-15T08:45:28Z</time>
            </trkpt>
            <trkpt lat="46.313200" lon="11.662000">
                <time>2017-07-15T08:45:29Z</time>
            </trkpt>
            <trkpt lat="46.313250" lon="11.661850">
                <time>2017-07-15T08:45:30Z</time>
            </trkpt>
            <trkpt lat="46.313300" lon="11.661710">
                <time>2017-07-15T08:45:31Z</time>
            </trkpt>
            <trkpt lat="46.313350" lon="11.661550">
                <time>2017-07-15T08:45:32Z</time>
            </trkpt>
            <trkpt lat="46.313390" lon="11.661400">
                <time>2017-07-15T08:45:33Z</time>
            </trkpt>
            <trkpt lat="46.313440" lon="11.661250">
                <time>2017-07-15T08:45:34Z</time>
            </trkpt>
            <trkpt lat="46.313490" lon="11.661080">
                <time>2017-07-15T08:45:35Z</time>
            </trkpt>
            <trkpt lat="46.313540" lon="11.660940">
                <time>2017-07-15T08:45:36Z</time>
            </trkpt>
            <trkpt lat="46.313590" lon="11.660790">
                <time>2017-07-15T08:45:37Z</time>
            </trkpt>
            <trkpt lat="46.313640" lon="11.660640">
                <time>2017-07-15T08:45:38Z</time>
            </trkpt>
            <trkpt lat="46.313700" lon="11.660490">
                <time>2017-07-15T08:45:39Z</time>
            </trkpt>
            <trkpt lat="46.313750" lon="11.660330">
                <time>2017-07-15T08:45:40Z</time>
            </trkpt>
            <trkpt lat="46.313800" lon="11.660190">
                <time>2017-07-15T08:45:41Z</time>
            </trkpt>
            <trkpt lat="46.313860" lon="11.660030">
                <time>2017-07-15T08:45:42Z</time>
            </trkpt>
            <trkpt lat="46.313920" lon="11.659880">
                <time>2017-07-15T08:45:43Z</time>
            </trkpt>
            <trkpt lat="46.313970" lon="11.659750">
                <time>2017-07-15T08:45:44Z</time>
            </trkpt>
            <trkpt lat="46.314040" lon="11.659600">
                <time>2017-07-15T08:45:45Z</time>
            </trkpt>
            <trkpt lat="46.314120" lon="11.659450">
                <time>2017-07-15T08:45:46Z</time>
            </trkpt>
            <trkpt lat="46.314210" lon="11.659300">
                <time>2017-07-15T08:45:47Z</time>
            </trkpt>
            <trkpt lat="46.314320" lon="11.659120">
                <time>2017-07-15T08:45:48Z</time>
            </trkpt>
            <trkpt lat="46.314420" lon="11.658950">
                <time>2017-07-15T08:45:49Z</time>
            </trkpt>
            <trkpt lat="46.314550" lon="11.658770">
                <time>2017-07-15T08:45:50Z</time>
            </trkpt>
            <trkpt lat="46.314680" lon="11.658570">
                <time>2017-07-15T08:45:51Z</time>
            </trkpt>
            <trkpt lat="46.314790" lon="11.658400">
                <time>2017-07-15T08:45:52Z</time>
            </trkpt>
            <trkpt lat="46.314880" lon="11.658200">
                <time>2017-07-15T08:45:53Z</time>
            </trkpt>
            <trkpt lat="46.314940" lon="11.657980">
                <time>2017-07-15T08:45:54Z</time>
            </trkpt>
            <trkpt lat="46.315000" lon="11.657770">
                <time>2017-07-15T08:45:55Z</time>
            </trkpt>
            <trkpt lat="46.315050" lon="11.657540">
                <time>2017-07-15T08:45:56Z</time>
            </trkpt>
            <trkpt lat="46.315100" lon="11.657330">
                <time>2017-07-15T08:45:57Z</time>
            </trkpt>
            <trkpt lat="46.315160" lon="11.657110">
                <time>2017-07-15T08:45:58Z</time>
            </trkpt>
            <trkpt lat="46.315240" lon="11.656880">
                <time>2017-07-15T08:45:59Z</time>
            </trkpt>
            <trkpt lat="46.315320" lon="11.656670">
                <time>2017-07-15T08:46:00Z</time>
            </trkpt>
            <trkpt lat="46.315410" lon="11.656440">
                <time>2017-07-15T08:46:01Z</time>
            </trkpt>
            <trkpt lat="46.315510" lon="11.656190">
                <time>2017-07-15T08:46:02Z</time>
            </trkpt>
            <trkpt lat="46.315590" lon="11.655970">
                <time>2017-07-15T08:46:03Z</time>
            </trkpt>
            <trkpt lat="46.315700" lon="11.655720">
                <time>2017-07-15T08:46:04Z</time>
            </trkpt>
            <trkpt lat="46.315790" lon="11.655520">
                <time>2017-07-15T08:46:05Z</time>
            </trkpt>
            <trkpt lat="46.315900" lon="11.655300">
                <time>2017-07-15T08:46:06Z</time>
            </trkpt>
            <trkpt lat="46.316020" lon="11.655080">
                <time>2017-07-15T08:46:07Z</time>
            </trkpt>
            <trkpt lat="46.316140" lon="11.654890">
                <time>2017-07-15T08:46:08Z</time>
            </trkpt>
            <trkpt lat="46.316260" lon="11.654690">
                <time>2017-07-15T08:46:09Z</time>
            </trkpt>
            <trkpt lat="46.316390" lon="11.654500">
                <time>2017-07-15T08:46:10Z</time>
            </trkpt>
            <trkpt lat="46.316520" lon="11.654320">
                <time>2017-07-15T08:46:11Z</time>
            </trkpt>
            <trkpt lat="46.316660" lon="11.654120">
                <time>2017-07-15T08:46:12Z</time>
            </trkpt>
            <trkpt lat="46.316770" lon="11.653960">
                <time>2017-07-15T08:46:13Z</time>
            </trkpt>
            <trkpt lat="46.316890" lon="11.653760">
                <time>2017-07-15T08:46:14Z</time>
            </trkpt>
            <trkpt lat="46.316990" lon="11.653560">
                <time>2017-07-15T08:46:15Z</time>
            </trkpt>
            <trkpt lat="46.317040" lon="11.653380">
                <time>2017-07-15T08:46:16Z</time>
            </trkpt>
            <trkpt lat="46.317080" lon="11.653190">
                <time>2017-07-15T08:46:17Z</time>
            </trkpt>
            <trkpt lat="46.317090" lon="11.652970">
                <time>2017-07-15T08:46:18Z</time>
            </trkpt>
            <trkpt lat="46.317090" lon="11.652760">
                <time>2017-07-15T08:46:19Z</time>
            </trkpt>
            <trkpt lat="46.317080" lon="11.652510">
                <time>2017-07-15T08:46:20Z</time>
            </trkpt>
            <trkpt lat="46.317100" lon="11.652300">
                <time>2017-07-15T08:46:21Z</time>
            </trkpt>
            <trkpt lat="46.317140" lon="11.652080">
                <time>2017-07-15T08:46:22Z</time>
            </trkpt>
            <trkpt lat="46.317190" lon="11.651860">
                <time>2017-07-15T08:46:23Z</time>
            </trkpt>
            <trkpt lat="46.317230" lon="11.651650">
                <time>2017-07-15T08:46:24Z</time>
            </trkpt>
            <trkpt lat="46.317270" lon="11.651420">
                <time>2017-07-15T08:46:25Z</time>
            </trkpt>
            <trkpt lat="46.317290" lon="11.651180">
                <time>2017-07-15T08:46:26Z</time>
            </trkpt>
            <trkpt lat="46.317300" lon="11.650950">
                <time>2017-07-15T08:46:27Z</time>
            </trkpt>
            <trkpt lat="46.317310" lon="11.650710">
                <time>2017-07-15T08:46:28Z</time>
            </trkpt>
            <trkpt lat="46.317320" lon="11.650510">
                <time>2017-07-15T08:46:29Z</time>
            </trkpt>
            <trkpt lat="46.317330" lon="11.650310">
                <time>2017-07-15T08:46:30Z</time>
            </trkpt>
            <trkpt lat="46.317340" lon="11.650120">
                <time>2017-07-15T08:46:31Z</time>
            </trkpt>
            <trkpt lat="46.317350" lon="11.649960">
                <time>2017-07-15T08:46:32Z</time>
            </trkpt>
            <trkpt lat="46.317360" lon="11.649810">
                <time>2017-07-15T08:46:33Z</time>
            </trkpt>
            <trkpt lat="46.317360" lon="11.649670">
                <time>2017-07-15T08:46:34Z</time>
            </trkpt>
            <trkpt lat="46.317370" lon="11.649560">
                <time>2017-07-15T08:46:35Z</time>
            </trkpt>
            <trkpt lat="46.317370" lon="11.649450">
                <time>2017-07-15T08:46:36Z</time>
            </trkpt>
            <trkpt lat="46.317350" lon="11.649370">
                <time>2017-07-15T08:46:37Z</time>
            </trkpt>
            <trkpt lat="46.317300" lon="11.649300">
                <time>2017-07-15T08:46:38Z</time>
            </trkpt>
            <trkpt lat="46.317230" lon="11.649270">
                <time>2017-07-15T08:46:39Z</time>
            </trkpt>
            <trkpt lat="46.317170" lon="11.649300">
                <time>2017-07-15T08:46:40Z</time>
            </trkpt>
            <trkpt lat="46.317120" lon="11.649380">
                <time>2017-07-15T08:46:41Z</time>
            </trkpt>
            <trkpt lat="46.317080" lon="11.649510">
                <time>2017-07-15T08:46:42Z</time>
            </trkpt>
            <trkpt lat="46.317040" lon="11.649680">
                <time>2017-07-15T08:46:43Z</time>
            </trkpt>
            <trkpt lat="46.316980" lon="11.649870">
                <time>2017-07-15T08:46:44Z</time>
            </trkpt>
            <trkpt lat="46.316920" lon="11.650040">
                <time>2017-07-15T08:46:45Z</time>
            </trkpt>
            <trkpt lat="46.316840" lon="11.650190">
                <time>2017-07-15T08:46:46Z</time>
            </trkpt>
            <trkpt lat="46.316740" lon="11.650330">
                <time>2017-07-15T08:46:47Z</time>
            </trkpt>
            <trkpt lat="46.316650" lon="11.650430">
                <time>2017-07-15T08:46:48Z</time>
            </trkpt>
            <trkpt lat="46.316550" lon="11.650520">
                <time>2017-07-15T08:46:49Z</time>
            </trkpt>
            <trkpt lat="46.316450" lon="11.650600">
                <time>2017-07-15T08:46:50Z</time>
            </trkpt>
            <trkpt lat="46.316360" lon="11.650670">
                <time>2017-07-15T08:46:51Z</time>
            </trkpt>
            <trkpt lat="46.316280" lon="11.650770">
                <time>2017-07-15T08:46:52Z</time>
            </trkpt>
            <trkpt lat="46.316230" lon="11.650860">
                <time>2017-07-15T08:46:53Z</time>
            </trkpt>
            <trkpt lat="46.316190" lon="11.650980">
                <time>2017-07-15T08:46:54Z</time>
            </trkpt>
            <trkpt lat="46.316160" lon="11.651100">
                <time>2017-07-15T08:46:55Z</time>
            </trkpt>
            <trkpt lat="46.316150" lon="11.651190">
                <time>2017-07-15T08:46:56Z</time>
            </trkpt>
            <trkpt lat="46.316140" lon="11.651260">
                <time>2017-07-15T08:46:57Z</time>
            </trkpt>
            <trkpt lat="46.316120" lon="11.651310">
                <time>2017-07-15T08:46:58Z</time>
            </trkpt>
            <trkpt lat="46.316110" lon="11.651350">
                <time>2017-07-15T08:46:59Z</time>
            </trkpt>
            <trkpt lat="46.316080" lon="11.651380">
                <time>2017-07-15T08:47:00Z</time>
            </trkpt>
            <trkpt lat="46.316050" lon="11.651390">
                <time>2017-07-15T08:47:01Z</time>
            </trkpt>
            <trkpt lat="46.316020" lon="11.651370">
                <time>2017-07-15T08:47:02Z</time>
            </trkpt>
            <trkpt lat="46.315990" lon="11.651330">
                <time>2017-07-15T08:47:03Z</time>
            </trkpt>
            <trkpt lat="46.315970" lon="11.651260">
                <time>2017-07-15T08:47:04Z</time>
            </trkpt>
            <trkpt lat="46.315950" lon="11.651130">
                <time>2017-07-15T08:47:05Z</time>
            </trkpt>
            <trkpt lat="46.315940" lon="11.650950">
                <time>2017-07-15T08:47:06Z</time>
            </trkpt>
            <trkpt lat="46.315930" lon="11.650720">
                <time>2017-07-15T08:47:07Z</time>
            </trkpt>
            <trkpt lat="46.315930" lon="11.650470">
                <time>2017-07-15T08:47:08Z</time>
            </trkpt>
            <trkpt lat="46.315970" lon="11.650240">
                <time>2017-07-15T08:47:09Z</time>
            </trkpt>
            <trkpt lat="46.316020" lon="11.649980">
                <time>2017-07-15T08:47:10Z</time>
            </trkpt>
            <trkpt lat="46.316080" lon="11.649700">
                <time>2017-07-15T08:47:11Z</time>
            </trkpt>
            <trkpt lat="46.316130" lon="11.649470">
                <time>2017-07-15T08:47:12Z</time>
            </trkpt>
            <trkpt lat="46.316180" lon="11.649230">
                <time>2017-07-15T08:47:13Z</time>
            </trkpt>
            <trkpt lat="46.316230" lon="11.649020">
                <time>2017-07-15T08:47:14Z</time>
            </trkpt>
            <trkpt lat="46.316240" lon="11.648830">
                <time>2017-07-15T08:47:15Z</time>
            </trkpt>
            <trkpt lat="46.316230" lon="11.648650">
                <time>2017-07-15T08:47:16Z</time>
            </trkpt>
            <trkpt lat="46.316200" lon="11.648510">
                <time>2017-07-15T08:47:17Z</time>
            </trkpt>
            <trkpt lat="46.316170" lon="11.648350">
                <time>2017-07-15T08:47:18Z</time>
            </trkpt>
            <trkpt lat="46.316140" lon="11.648190">
                <time>2017-07-15T08:47:19Z</time>
            </trkpt>
            <trkpt lat="46.316140" lon="11.648050">
                <time>2017-07-15T08:47:20Z</time>
            </trkpt>
            <trkpt lat="46.316170" lon="11.647930">
                <time>2017-07-15T08:47:21Z</time>
            </trkpt>
            <trkpt lat="46.316210" lon="11.647790">
                <time>2017-07-15T08:47:22Z</time>
            </trkpt>
            <trkpt lat="46.316250" lon="11.647690">
                <time>2017-07-15T08:47:23Z</time>
            </trkpt>
            <trkpt lat="46.316280" lon="11.647590">
                <time>2017-07-15T08:47:24Z</time>
            </trkpt>
            <trkpt lat="46.316270" lon="11.647510">
                <time>2017-07-15T08:47:25Z</time>
            </trkpt>
            <trkpt lat="46.316230" lon="11.647450">
                <time>2017-07-15T08:47:26Z</time>
            </trkpt>
            <trkpt lat="46.316180" lon="11.647440">
                <time>2017-07-15T08:47:27Z</time>
            </trkpt>
            <trkpt lat="46.316120" lon="11.647480">
                <time>2017-07-15T08:47:28Z</time>
            </trkpt>
            <trkpt lat="46.316070" lon="11.647560">
                <time>2017-07-15T08:47:29Z</time>
            </trkpt>
            <trkpt lat="46.316020" lon="11.647680">
                <time>2017-07-15T08:47:30Z</time>
            </trkpt>
            <trkpt lat="46.315960" lon="11.647820">
                <time>2017-07-15T08:47:31Z</time>
            </trkpt>
            <trkpt lat="46.315890" lon="11.647980">
                <time>2017-07-15T08:47:32Z</time>
            </trkpt>
            <trkpt lat="46.315810" lon="11.648110">
                <time>2017-07-15T08:47:33Z</time>
            </trkpt>
            <trkpt lat="46.315710" lon="11.648240">
                <time>2017-07-15T08:47:34Z</time>
            </trkpt>
            <trkpt lat="46.315600" lon="11.648370">
                <time>2017-07-15T08:47:35Z</time>
            </trkpt>
            <trkpt lat="46.315490" lon="11.648460">
                <time>2017-07-15T08:47:36Z</time>
            </trkpt>
            <trkpt lat="46.315370" lon="11.648570">
                <time>2017-07-15T08:47:37Z</time>
            </trkpt>
            <trkpt lat="46.315240" lon="11.648670">
                <time>2017-07-15T08:47:38Z</time>
            </trkpt>
            <trkpt lat="46.315140" lon="11.648770">
                <time>2017-07-15T08:47:39Z</time>
            </trkpt>
            <trkpt lat="46.315030" lon="11.648880">
                <time>2017-07-15T08:47:40Z</time>
            </trkpt>
            <trkpt lat="46.314940" lon="11.648970">
                <time>2017-07-15T08:47:41Z</time>
            </trkpt>
            <trkpt lat="46.314850" lon="11.649060">
                <time>2017-07-15T08:47:42Z</time>
            </trkpt>
            <trkpt lat="46.314770" lon="11.649130">
                <time>2017-07-15T08:47:43Z</time>
            </trkpt>
            <trkpt lat="46.314720" lon="11.649190">
                <time>2017-07-15T08:47:44Z</time>
            </trkpt>
            <trkpt lat="46.314670" lon="11.649240">
                <time>2017-07-15T08:47:45Z</time>
            </trkpt>
            <trkpt lat="46.314630" lon="11.649280">
                <time>2017-07-15T08:47:46Z</time>
            </trkpt>
            <trkpt lat="46.314590" lon="11.649330">
                <time>2017-07-15T08:47:47Z</time>
            </trkpt>
            <trkpt lat="46.314540" lon="11.649390">
                <time>2017-07-15T08:47:48Z</time>
            </trkpt>
            <trkpt lat="46.314490" lon="11.649450">
                <time>2017-07-15T08:47:49Z</time>
            </trkpt>
            <trkpt lat="46.314440" lon="11.649500">
                <time>2017-07-15T08:47:50Z</time>
            </trkpt>
            <trkpt lat="46.314390" lon="11.649550">
                <time>2017-07-15T08:47:51Z</time>
            </trkpt>
            <trkpt lat="46.314340" lon="11.649570">
                <time>2017-07-15T08:47:52Z</time>
            </trkpt>
            <trkpt lat="46.314290" lon="11.649560">
                <time>2017-07-15T08:47:53Z</time>
            </trkpt>
            <trkpt lat="46.314260" lon="11.649510">
                <time>2017-07-15T08:47:54Z</time>
            </trkpt>
            <trkpt lat="46.314240" lon="11.649450">
                <time>2017-07-15T08:47:55Z</time>
            </trkpt>
            <trkpt lat="46.314260" lon="11.649360">
                <time>2017-07-15T08:47:56Z</time>
            </trkpt>
            <trkpt lat="46.314290" lon="11.649270">
                <time>2017-07-15T08:47:57Z</time>
            </trkpt>
            <trkpt lat="46.314350" lon="11.649170">
                <time>2017-07-15T08:47:58Z</time>
            </trkpt>
            <trkpt lat="46.314410" lon="11.649060">
                <time>2017-07-15T08:47:59Z</time>
            </trkpt>
            <trkpt lat="46.314460" lon="11.648950">
                <time>2017-07-15T08:48:00Z</time>
            </trkpt>
            <trkpt lat="46.314500" lon="11.648830">
                <time>2017-07-15T08:48:01Z</time>
            </trkpt>
            <trkpt lat="46.314520" lon="11.648700">
                <time>2017-07-15T08:48:02Z</time>
            </trkpt>
            <trkpt lat="46.314510" lon="11.648570">
                <time>2017-07-15T08:48:03Z</time>
            </trkpt>
            <trkpt lat="46.314510" lon="11.648430">
                <time>2017-07-15T08:48:04Z</time>
            </trkpt>
            <trkpt lat="46.314510" lon="11.648310">
                <time>2017-07-15T08:48:05Z</time>
            </trkpt>
            <trkpt lat="46.314490" lon="11.648190">
                <time>2017-07-15T08:48:06Z</time>
            </trkpt>
            <trkpt lat="46.314490" lon="11.648060">
                <time>2017-07-15T08:48:07Z</time>
            </trkpt>
            <trkpt lat="46.314490" lon="11.647950">
                <time>2017-07-15T08:48:08Z</time>
            </trkpt>
            <trkpt lat="46.314490" lon="11.647830">
                <time>2017-07-15T08:48:09Z</time>
            </trkpt>
            <trkpt lat="46.314500" lon="11.647710">
                <time>2017-07-15T08:48:10Z</time>
            </trkpt>
            <trkpt lat="46.314520" lon="11.647590">
                <time>2017-07-15T08:48:11Z</time>
            </trkpt>
            <trkpt lat="46.314540" lon="11.647460">
                <time>2017-07-15T08:48:12Z</time>
            </trkpt>
            <trkpt lat="46.314560" lon="11.647330">
                <time>2017-07-15T08:48:13Z</time>
            </trkpt>
            <trkpt lat="46.314570" lon="11.647190">
                <time>2017-07-15T08:48:14Z</time>
            </trkpt>
            <trkpt lat="46.314570" lon="11.647030">
                <time>2017-07-15T08:48:15Z</time>
            </trkpt>
            <trkpt lat="46.314550" lon="11.646900">
                <time>2017-07-15T08:48:16Z</time>
            </trkpt>
            <trkpt lat="46.314510" lon="11.646770">
                <time>2017-07-15T08:48:17Z</time>
            </trkpt>
            <trkpt lat="46.314460" lon="11.646630">
                <time>2017-07-15T08:48:18Z</time>
            </trkpt>
            <trkpt lat="46.314400" lon="11.646490">
                <time>2017-07-15T08:48:19Z</time>
            </trkpt>
            <trkpt lat="46.314330" lon="11.646340">
                <time>2017-07-15T08:48:20Z</time>
            </trkpt>
            <trkpt lat="46.314280" lon="11.646200">
                <time>2017-07-15T08:48:21Z</time>
            </trkpt>
            <trkpt lat="46.314250" lon="11.646040">
                <time>2017-07-15T08:48:22Z</time>
            </trkpt>
            <trkpt lat="46.314230" lon="11.645860">
                <time>2017-07-15T08:48:23Z</time>
            </trkpt>
            <trkpt lat="46.314210" lon="11.645690">
                <time>2017-07-15T08:48:24Z</time>
            </trkpt>
            <trkpt lat="46.314210" lon="11.645480">
                <time>2017-07-15T08:48:25Z</time>
            </trkpt>
            <trkpt lat="46.314210" lon="11.645240">
                <time>2017-07-15T08:48:26Z</time>
            </trkpt>
            <trkpt lat="46.314200" lon="11.645030">
                <time>2017-07-15T08:48:27Z</time>
            </trkpt>
            <trkpt lat="46.314140" lon="11.644780">
                <time>2017-07-15T08:48:28Z</time>
            </trkpt>
            <trkpt lat="46.314060" lon="11.644540">
                <time>2017-07-15T08:48:29Z</time>
            </trkpt>
            <trkpt lat="46.313970" lon="11.644280">
                <time>2017-07-15T08:48:30Z</time>
            </trkpt>
            <trkpt lat="46.313870" lon="11.644000">
                <time>2017-07-15T08:48:31Z</time>
            </trkpt>
            <trkpt lat="46.313790" lon="11.643770">
                <time>2017-07-15T08:48:32Z</time>
            </trkpt>
            <trkpt lat="46.313690" lon="11.643550">
                <time>2017-07-15T08:48:33Z</time>
            </trkpt>
            <trkpt lat="46.313570" lon="11.643340">
                <time>2017-07-15T08:48:34Z</time>
            </trkpt>
            <trkpt lat="46.313460" lon="11.643150">
                <time>2017-07-15T08:48:35Z</time>
            </trkpt>
            <trkpt lat="46.313330" lon="11.642960">
                <time>2017-07-15T08:48:36Z</time>
            </trkpt>
            <trkpt lat="46.313230" lon="11.642800">
                <time>2017-07-15T08:48:37Z</time>
            </trkpt>
            <trkpt lat="46.313130" lon="11.642640">
                <time>2017-07-15T08:48:38Z</time>
            </trkpt>
            <trkpt lat="46.313020" lon="11.642460">
                <time>2017-07-15T08:48:39Z</time>
            </trkpt>
            <trkpt lat="46.312940" lon="11.642290">
                <time>2017-07-15T08:48:40Z</time>
            </trkpt>
            <trkpt lat="46.312870" lon="11.642080">
                <time>2017-07-15T08:48:41Z</time>
            </trkpt>
            <trkpt lat="46.312820" lon="11.641850">
                <time>2017-07-15T08:48:42Z</time>
            </trkpt>
            <trkpt lat="46.312800" lon="11.641640">
                <time>2017-07-15T08:48:43Z</time>
            </trkpt>
            <trkpt lat="46.312780" lon="11.641380">
                <time>2017-07-15T08:48:44Z</time>
            </trkpt>
            <trkpt lat="46.312770" lon="11.641140">
                <time>2017-07-15T08:48:45Z</time>
            </trkpt>
            <trkpt lat="46.312770" lon="11.640870">
                <time>2017-07-15T08:48:46Z</time>
            </trkpt>
            <trkpt lat="46.312760" lon="11.640580">
                <time>2017-07-15T08:48:47Z</time>
            </trkpt>
            <trkpt lat="46.312750" lon="11.640320">
                <time>2017-07-15T08:48:48Z</time>
            </trkpt>
            <trkpt lat="46.312750" lon="11.640060">
                <time>2017-07-15T08:48:49Z</time>
            </trkpt>
            <trkpt lat="46.312740" lon="11.639790">
                <time>2017-07-15T08:48:50Z</time>
            </trkpt>
            <trkpt lat="46.312730" lon="11.639540">
                <time>2017-07-15T08:48:51Z</time>
            </trkpt>
            <trkpt lat="46.312730" lon="11.639270">
                <time>2017-07-15T08:48:52Z</time>
            </trkpt>
            <trkpt lat="46.312730" lon="11.639040">
                <time>2017-07-15T08:48:53Z</time>
            </trkpt>
            <trkpt lat="46.312730" lon="11.638800">
                <time>2017-07-15T08:48:54Z</time>
            </trkpt>
            <trkpt lat="46.312720" lon="11.638550">
                <time>2017-07-15T08:48:55Z</time>
            </trkpt>
            <trkpt lat="46.312690" lon="11.638350">
                <time>2017-07-15T08:48:56Z</time>
            </trkpt>
            <trkpt lat="46.312630" lon="11.638160">
                <time>2017-07-15T08:48:57Z</time>
            </trkpt>
            <trkpt lat="46.312550" lon="11.637980">
                <time>2017-07-15T08:48:58Z</time>
            </trkpt>
            <trkpt lat="46.312460" lon="11.637840">
                <time>2017-07-15T08:48:59Z</time>
            </trkpt>
            <trkpt lat="46.312380" lon="11.637660">
                <time>2017-07-15T08:49:00Z</time>
            </trkpt>
            <trkpt lat="46.312340" lon="11.637500">
                <time>2017-07-15T08:49:01Z</time>
            </trkpt>
            <trkpt lat="46.312330" lon="11.637320">
                <time>2017-07-15T08:49:02Z</time>
            </trkpt>
            <trkpt lat="46.312340" lon="11.637110">
                <time>2017-07-15T08:49:03Z</time>
            </trkpt>
            <trkpt lat="46.312370" lon="11.636910">
                <time>2017-07-15T08:49:04Z</time>
            </trkpt>
            <trkpt lat="46.312420" lon="11.636680">
                <time>2017-07-15T08:49:05Z</time>
            </trkpt>
            <trkpt lat="46.312450" lon="11.636430">
                <time>2017-07-15T08:49:06Z</time>
            </trkpt>
            <trkpt lat="46.312450" lon="11.636170">
                <time>2017-07-15T08:49:07Z</time>
            </trkpt>
            <trkpt lat="46.312440" lon="11.635890">
                <time>2017-07-15T08:49:08Z</time>
            </trkpt>
            <trkpt lat="46.312450" lon="11.635650">
                <time>2017-07-15T08:49:09Z</time>
            </trkpt>
            <trkpt lat="46.312480" lon="11.635390">
                <time>2017-07-15T08:49:10Z</time>
            </trkpt>
            <trkpt lat="46.312510" lon="11.635120">
                <time>2017-07-15T08:49:11Z</time>
            </trkpt>
            <trkpt lat="46.312520" lon="11.634860">
                <time>2017-07-15T08:49:12Z</time>
            </trkpt>
            <trkpt lat="46.312510" lon="11.634590">
                <time>2017-07-15T08:49:13Z</time>
            </trkpt>
            <trkpt lat="46.312510" lon="11.634300">
                <time>2017-07-15T08:49:14Z</time>
            </trkpt>
            <trkpt lat="46.312510" lon="11.634050">
                <time>2017-07-15T08:49:15Z</time>
            </trkpt>
            <trkpt lat="46.312520" lon="11.633770">
                <time>2017-07-15T08:49:16Z</time>
            </trkpt>
            <trkpt lat="46.312530" lon="11.633530">
                <time>2017-07-15T08:49:17Z</time>
            </trkpt>
            <trkpt lat="46.312560" lon="11.633300">
                <time>2017-07-15T08:49:18Z</time>
            </trkpt>
            <trkpt lat="46.312580" lon="11.633040">
                <time>2017-07-15T08:49:19Z</time>
            </trkpt>
            <trkpt lat="46.312570" lon="11.632820">
                <time>2017-07-15T08:49:20Z</time>
            </trkpt>
            <trkpt lat="46.312550" lon="11.632570">
                <time>2017-07-15T08:49:21Z</time>
            </trkpt>
            <trkpt lat="46.312530" lon="11.632320">
                <time>2017-07-15T08:49:22Z</time>
            </trkpt>
            <trkpt lat="46.312510" lon="11.632050">
                <time>2017-07-15T08:49:23Z</time>
            </trkpt>
            <trkpt lat="46.312470" lon="11.631760">
                <time>2017-07-15T08:49:24Z</time>
            </trkpt>
            <trkpt lat="46.312450" lon="11.631510">
                <time>2017-07-15T08:49:25Z</time>
            </trkpt>
            <trkpt lat="46.312420" lon="11.631270">
                <time>2017-07-15T08:49:26Z</time>
            </trkpt>
            <trkpt lat="46.312390" lon="11.631040">
                <time>2017-07-15T08:49:27Z</time>
            </trkpt>
            <trkpt lat="46.312340" lon="11.630850">
                <time>2017-07-15T08:49:28Z</time>
            </trkpt>
            <trkpt lat="46.312270" lon="11.630670">
                <time>2017-07-15T08:49:29Z</time>
            </trkpt>
            <trkpt lat="46.312170" lon="11.630500">
                <time>2017-07-15T08:49:30Z</time>
            </trkpt>
            <trkpt lat="46.312060" lon="11.630370">
                <time>2017-07-15T08:49:31Z</time>
            </trkpt>
            <trkpt lat="46.311950" lon="11.630240">
                <time>2017-07-15T08:49:32Z</time>
            </trkpt>
            <trkpt lat="46.311860" lon="11.630120">
                <time>2017-07-15T08:49:33Z</time>
            </trkpt>
            <trkpt lat="46.311780" lon="11.629970">
                <time>2017-07-15T08:49:34Z</time>
            </trkpt>
            <trkpt lat="46.311720" lon="11.629770">
                <time>2017-07-15T08:49:35Z</time>
            </trkpt>
            <trkpt lat="46.311680" lon="11.629570">
                <time>2017-07-15T08:49:36Z</time>
            </trkpt>
            <trkpt lat="46.311660" lon="11.629340">
                <time>2017-07-15T08:49:37Z</time>
            </trkpt>
            <trkpt lat="46.311630" lon="11.629080">
                <time>2017-07-15T08:49:38Z</time>
            </trkpt>
            <trkpt lat="46.311610" lon="11.628820">
                <time>2017-07-15T08:49:39Z</time>
            </trkpt>
            <trkpt lat="46.311580" lon="11.628540">
                <time>2017-07-15T08:49:40Z</time>
            </trkpt>
            <trkpt lat="46.311560" lon="11.628290">
                <time>2017-07-15T08:49:41Z</time>
            </trkpt>
            <trkpt lat="46.311550" lon="11.628010">
                <time>2017-07-15T08:49:42Z</time>
            </trkpt>
            <trkpt lat="46.311530" lon="11.627710">
                <time>2017-07-15T08:49:43Z</time>
            </trkpt>
            <trkpt lat="46.311530" lon="11.627430">
                <time>2017-07-15T08:49:44Z</time>
            </trkpt>
            <trkpt lat="46.311540" lon="11.627140">
                <time>2017-07-15T08:49:45Z</time>
            </trkpt>
            <trkpt lat="46.311550" lon="11.626820">
                <time>2017-07-15T08:49:46Z</time>
            </trkpt>
            <trkpt lat="46.311550" lon="11.626540">
                <time>2017-07-15T08:49:47Z</time>
            </trkpt>
            <trkpt lat="46.311550" lon="11.626210">
                <time>2017-07-15T08:49:48Z</time>
            </trkpt>
            <trkpt lat="46.311540" lon="11.625940">
                <time>2017-07-15T08:49:49Z</time>
            </trkpt>
            <trkpt lat="46.311530" lon="11.625640">
                <time>2017-07-15T08:49:50Z</time>
            </trkpt>
            <trkpt lat="46.311520" lon="11.625330">
                <time>2017-07-15T08:49:51Z</time>
            </trkpt>
            <trkpt lat="46.311520" lon="11.625060">
                <time>2017-07-15T08:49:52Z</time>
            </trkpt>
            <trkpt lat="46.311510" lon="11.624770">
                <time>2017-07-15T08:49:53Z</time>
            </trkpt>
            <trkpt lat="46.311510" lon="11.624480">
                <time>2017-07-15T08:49:54Z</time>
            </trkpt>
            <trkpt lat="46.311500" lon="11.624200">
                <time>2017-07-15T08:49:55Z</time>
            </trkpt>
            <trkpt lat="46.311500" lon="11.623900">
                <time>2017-07-15T08:49:56Z</time>
            </trkpt>
            <trkpt lat="46.311500" lon="11.623620">
                <time>2017-07-15T08:49:57Z</time>
            </trkpt>
            <trkpt lat="46.311530" lon="11.623350">
                <time>2017-07-15T08:49:58Z</time>
            </trkpt>
            <trkpt lat="46.311550" lon="11.623050">
                <time>2017-07-15T08:49:59Z</time>
            </trkpt>
            <trkpt lat="46.311570" lon="11.622800">
                <time>2017-07-15T08:50:00Z</time>
            </trkpt>
            <trkpt lat="46.311580" lon="11.622540">
                <time>2017-07-15T08:50:01Z</time>
            </trkpt>
            <trkpt lat="46.311580" lon="11.622260">
                <time>2017-07-15T08:50:02Z</time>
            </trkpt>
            <trkpt lat="46.311550" lon="11.622010">
                <time>2017-07-15T08:50:03Z</time>
            </trkpt>
            <trkpt lat="46.311510" lon="11.621710">
                <time>2017-07-15T08:50:04Z</time>
            </trkpt>
            <trkpt lat="46.311470" lon="11.621460">
                <time>2017-07-15T08:50:05Z</time>
            </trkpt>
            <trkpt lat="46.311420" lon="11.621210">
                <time>2017-07-15T08:50:06Z</time>
            </trkpt>
            <trkpt lat="46.311360" lon="11.620940">
                <time>2017-07-15T08:50:07Z</time>
            </trkpt>
            <trkpt lat="46.311290" lon="11.620710">
                <time>2017-07-15T08:50:08Z</time>
            </trkpt>
            <trkpt lat="46.311220" lon="11.620480">
                <time>2017-07-15T08:50:09Z</time>
            </trkpt>
            <trkpt lat="46.311150" lon="11.620260">
                <time>2017-07-15T08:50:10Z</time>
            </trkpt>
            <trkpt lat="46.311100" lon="11.620040">
                <time>2017-07-15T08:50:11Z</time>
            </trkpt>
            <trkpt lat="46.311070" lon="11.619810">
                <time>2017-07-15T08:50:12Z</time>
            </trkpt>
            <trkpt lat="46.311080" lon="11.619590">
                <time>2017-07-15T08:50:13Z</time>
            </trkpt>
            <trkpt lat="46.311100" lon="11.619340">
                <time>2017-07-15T08:50:14Z</time>
            </trkpt>
            <trkpt lat="46.311140" lon="11.619060">
                <time>2017-07-15T08:50:15Z</time>
            </trkpt>
            <trkpt lat="46.311170" lon="11.618820">
                <time>2017-07-15T08:50:16Z</time>
            </trkpt>
            <trkpt lat="46.311210" lon="11.618560">
                <time>2017-07-15T08:50:17Z</time>
            </trkpt>
            <trkpt lat="46.311240" lon="11.618300">
                <time>2017-07-15T08:50:18Z</time>
            </trkpt>
            <trkpt lat="46.311270" lon="11.618070">
                <time>2017-07-15T08:50:19Z</time>
            </trkpt>
            <trkpt lat="46.311310" lon="11.617810">
                <time>2017-07-15T08:50:20Z</time>
            </trkpt>
            <trkpt lat="46.311340" lon="11.617600">
                <time>2017-07-15T08:50:21Z</time>
            </trkpt>
            <trkpt lat="46.311370" lon="11.617370">
                <time>2017-07-15T08:50:22Z</time>
            </trkpt>
            <trkpt lat="46.311410" lon="11.617140">
                <time>2017-07-15T08:50:23Z</time>
            </trkpt>
            <trkpt lat="46.311430" lon="11.616950">
                <time>2017-07-15T08:50:24Z</time>
            </trkpt>
            <trkpt lat="46.311460" lon="11.616740">
                <time>2017-07-15T08:50:25Z</time>
            </trkpt>
            <trkpt lat="46.311480" lon="11.616530">
                <time>2017-07-15T08:50:26Z</time>
            </trkpt>
            <trkpt lat="46.311500" lon="11.616310">
                <time>2017-07-15T08:50:27Z</time>
            </trkpt>
            <trkpt lat="46.311520" lon="11.616060">
                <time>2017-07-15T08:50:28Z</time>
            </trkpt>
            <trkpt lat="46.311520" lon="11.615830">
                <time>2017-07-15T08:50:29Z</time>
            </trkpt>
            <trkpt lat="46.311510" lon="11.615580">
                <time>2017-07-15T08:50:30Z</time>
            </trkpt>
            <trkpt lat="46.311510" lon="11.615300">
                <time>2017-07-15T08:50:31Z</time>
            </trkpt>
            <trkpt lat="46.311500" lon="11.615060">
                <time>2017-07-15T08:50:32Z</time>
            </trkpt>
            <trkpt lat="46.311490" lon="11.614800">
                <time>2017-07-15T08:50:33Z</time>
            </trkpt>
            <trkpt lat="46.311490" lon="11.614530">
                <time>2017-07-15T08:50:34Z</time>
            </trkpt>
            <trkpt lat="46.311490" lon="11.614290">
                <time>2017-07-15T08:50:35Z</time>
            </trkpt>
            <trkpt lat="46.311480" lon="11.614020">
                <time>2017-07-15T08:50:36Z</time>
            </trkpt>
            <trkpt lat="46.311460" lon="11.613780">
                <time>2017-07-15T08:50:37Z</time>
            </trkpt>
            <trkpt lat="46.311450" lon="11.613540">
                <time>2017-07-15T08:50:38Z</time>
            </trkpt>
            <trkpt lat="46.311420" lon="11.613290">
                <time>2017-07-15T08:50:39Z</time>
            </trkpt>
            <trkpt lat="46.311400" lon="11.613080">
                <time>2017-07-15T08:50:40Z</time>
            </trkpt>
            <trkpt lat="46.311370" lon="11.612860">
                <time>2017-07-15T08:50:41Z</time>
            </trkpt>
            <trkpt lat="46.311340" lon="11.612640">
                <time>2017-07-15T08:50:42Z</time>
            </trkpt>
            <trkpt lat="46.311320" lon="11.612430">
                <time>2017-07-15T08:50:43Z</time>
            </trkpt>
            <trkpt lat="46.311310" lon="11.612220">
                <time>2017-07-15T08:50:44Z</time>
            </trkpt>
            <trkpt lat="46.311300" lon="11.612040">
                <time>2017-07-15T08:50:45Z</time>
            </trkpt>
            <trkpt lat="46.311290" lon="11.611850">
                <time>2017-07-15T08:50:46Z</time>
            </trkpt>
            <trkpt lat="46.311290" lon="11.611650">
                <time>2017-07-15T08:50:47Z</time>
            </trkpt>
            <trkpt lat="46.311280" lon="11.611490">
                <time>2017-07-15T08:50:48Z</time>
            </trkpt>
            <trkpt lat="46.311260" lon="11.611330">
                <time>2017-07-15T08:50:49Z</time>
            </trkpt>
            <trkpt lat="46.311210" lon="11.611180">
                <time>2017-07-15T08:50:50Z</time>
            </trkpt>
            <trkpt lat="46.311160" lon="11.611050">
                <time>2017-07-15T08:50:51Z</time>
            </trkpt>
            <trkpt lat="46.311080" lon="11.610900">
                <time>2017-07-15T08:50:52Z</time>
            </trkpt>
            <trkpt lat="46.311020" lon="11.610760">
                <time>2017-07-15T08:50:53Z</time>
            </trkpt>
            <trkpt lat="46.310950" lon="11.610600">
                <time>2017-07-15T08:50:54Z</time>
            </trkpt>
            <trkpt lat="46.310880" lon="11.610430">
                <time>2017-07-15T08:50:55Z</time>
            </trkpt>
            <trkpt lat="46.310840" lon="11.610280">
                <time>2017-07-15T08:50:56Z</time>
            </trkpt>
            <trkpt lat="46.310790" lon="11.610110">
                <time>2017-07-15T08:50:57Z</time>
            </trkpt>
            <trkpt lat="46.310740" lon="11.609940">
                <time>2017-07-15T08:50:58Z</time>
            </trkpt>
            <trkpt lat="46.310700" lon="11.609770">
                <time>2017-07-15T08:50:59Z</time>
            </trkpt>
            <trkpt lat="46.310650" lon="11.609590">
                <time>2017-07-15T08:51:00Z</time>
            </trkpt>
            <trkpt lat="46.310620" lon="11.609450">
                <time>2017-07-15T08:51:01Z</time>
            </trkpt>
            <trkpt lat="46.310580" lon="11.609310">
                <time>2017-07-15T08:51:02Z</time>
            </trkpt>
            <trkpt lat="46.310550" lon="11.609170">
                <time>2017-07-15T08:51:03Z</time>
            </trkpt>
            <trkpt lat="46.310510" lon="11.609060">
                <time>2017-07-15T08:51:04Z</time>
            </trkpt>
            <trkpt lat="46.310480" lon="11.608940">
                <time>2017-07-15T08:51:05Z</time>
            </trkpt>
            <trkpt lat="46.310460" lon="11.608830">
                <time>2017-07-15T08:51:06Z</time>
            </trkpt>
            <trkpt lat="46.310430" lon="11.608730">
                <time>2017-07-15T08:51:07Z</time>
            </trkpt>
            <trkpt lat="46.310390" lon="11.608620">
                <time>2017-07-15T08:51:08Z</time>
            </trkpt>
            <trkpt lat="46.310350" lon="11.608520">
                <time>2017-07-15T08:51:09Z</time>
            </trkpt>
            <trkpt lat="46.310320" lon="11.608400">
                <time>2017-07-15T08:51:10Z</time>
            </trkpt>
            <trkpt lat="46.310300" lon="11.608280">
                <time>2017-07-15T08:51:11Z</time>
            </trkpt>
            <trkpt lat="46.310280" lon="11.608190">
                <time>2017-07-15T08:51:12Z</time>
            </trkpt>
            <trkpt lat="46.310250" lon="11.608090">
                <time>2017-07-15T08:51:13Z</time>
            </trkpt>
            <trkpt lat="46.310220" lon="11.608000">
                <time>2017-07-15T08:51:14Z</time>
            </trkpt>
            <trkpt lat="46.310200" lon="11.607910">
                <time>2017-07-15T08:51:15Z</time>
            </trkpt>
            <trkpt lat="46.310180" lon="11.607820">
                <time>2017-07-15T08:51:16Z</time>
            </trkpt>
            <trkpt lat="46.310150" lon="11.607740">
                <time>2017-07-15T08:51:17Z</time>
            </trkpt>
            <trkpt lat="46.310120" lon="11.607650">
                <time>2017-07-15T08:51:18Z</time>
            </trkpt>
            <trkpt lat="46.310100" lon="11.607530">
                <time>2017-07-15T08:51:19Z</time>
            </trkpt>
            <trkpt lat="46.310060" lon="11.607440">
                <time>2017-07-15T08:51:20Z</time>
            </trkpt>
            <trkpt lat="46.310030" lon="11.607340">
                <time>2017-07-15T08:51:21Z</time>
            </trkpt>
            <trkpt lat="46.309990" lon="11.607230">
                <time>2017-07-15T08:51:22Z</time>
            </trkpt>
            <trkpt lat="46.309970" lon="11.607130">
                <time>2017-07-15T08:51:23Z</time>
            </trkpt>
            <trkpt lat="46.309940" lon="11.607030">
                <time>2017-07-15T08:51:24Z</time>
            </trkpt>
            <trkpt lat="46.309910" lon="11.606940">
                <time>2017-07-15T08:51:25Z</time>
            </trkpt>
            <trkpt lat="46.309890" lon="11.606850">
                <time>2017-07-15T08:51:26Z</time>
            </trkpt>
            <trkpt lat="46.309860" lon="11.606750">
                <time>2017-07-15T08:51:27Z</time>
            </trkpt>
            <trkpt lat="46.309830" lon="11.606660">
                <time>2017-07-15T08:51:28Z</time>
            </trkpt>
            <trkpt lat="46.309810" lon="11.606550">
                <time>2017-07-15T08:51:29Z</time>
            </trkpt>
            <trkpt lat="46.309780" lon="11.606410">
                <time>2017-07-15T08:51:30Z</time>
            </trkpt>
            <trkpt lat="46.309750" lon="11.606250">
                <time>2017-07-15T08:51:31Z</time>
            </trkpt>
            <trkpt lat="46.309720" lon="11.606070">
                <time>2017-07-15T08:51:32Z</time>
            </trkpt>
            <trkpt lat="46.309690" lon="11.605910">
                <time>2017-07-15T08:51:33Z</time>
            </trkpt>
            <trkpt lat="46.309670" lon="11.605750">
                <time>2017-07-15T08:51:34Z</time>
            </trkpt>
            <trkpt lat="46.309640" lon="11.605580">
                <time>2017-07-15T08:51:35Z</time>
            </trkpt>
            <trkpt lat="46.309620" lon="11.605430">
                <time>2017-07-15T08:51:36Z</time>
            </trkpt>
            <trkpt lat="46.309600" lon="11.605280">
                <time>2017-07-15T08:51:37Z</time>
            </trkpt>
            <trkpt lat="46.309570" lon="11.605140">
                <time>2017-07-15T08:51:38Z</time>
            </trkpt>
            <trkpt lat="46.309550" lon="11.605020">
                <time>2017-07-15T08:51:39Z</time>
            </trkpt>
            <trkpt lat="46.309530" lon="11.604890">
                <time>2017-07-15T08:51:40Z</time>
            </trkpt>
            <trkpt lat="46.309510" lon="11.604780">
                <time>2017-07-15T08:51:41Z</time>
            </trkpt>
            <trkpt lat="46.309500" lon="11.604660">
                <time>2017-07-15T08:51:42Z</time>
            </trkpt>
            <trkpt lat="46.309480" lon="11.604540">
                <time>2017-07-15T08:51:43Z</time>
            </trkpt>
            <trkpt lat="46.309460" lon="11.604440">
                <time>2017-07-15T08:51:44Z</time>
            </trkpt>
            <trkpt lat="46.309450" lon="11.604320">
                <time>2017-07-15T08:51:45Z</time>
            </trkpt>
            <trkpt lat="46.309420" lon="11.604200">
                <time>2017-07-15T08:51:46Z</time>
            </trkpt>
            <trkpt lat="46.309400" lon="11.604080">
                <time>2017-07-15T08:51:47Z</time>
            </trkpt>
            <trkpt lat="46.309380" lon="11.603960">
                <time>2017-07-15T08:51:48Z</time>
            </trkpt>
            <trkpt lat="46.309370" lon="11.603860">
                <time>2017-07-15T08:51:49Z</time>
            </trkpt>
            <trkpt lat="46.309350" lon="11.603760">
                <time>2017-07-15T08:51:50Z</time>
            </trkpt>
            <trkpt lat="46.309330" lon="11.603650">
                <time>2017-07-15T08:51:51Z</time>
            </trkpt>
            <trkpt lat="46.309320" lon="11.603570">
                <time>2017-07-15T08:51:52Z</time>
            </trkpt>
            <trkpt lat="46.309300" lon="11.603470">
                <time>2017-07-15T08:51:53Z</time>
            </trkpt>
            <trkpt lat="46.309290" lon="11.603370">
                <time>2017-07-15T08:51:54Z</time>
            </trkpt>
            <trkpt lat="46.309280" lon="11.603280">
                <time>2017-07-15T08:51:55Z</time>
            </trkpt>
            <trkpt lat="46.309270" lon="11.603160">
                <time>2017-07-15T08:51:56Z</time>
            </trkpt>
            <trkpt lat="46.309260" lon="11.603050">
                <time>2017-07-15T08:51:57Z</time>
            </trkpt>
            <trkpt lat="46.309260" lon="11.602930">
                <time>2017-07-15T08:51:58Z</time>
            </trkpt>
            <trkpt lat="46.309260" lon="11.602790">
                <time>2017-07-15T08:51:59Z</time>
            </trkpt>
            <trkpt lat="46.309260" lon="11.602680">
                <time>2017-07-15T08:52:00Z</time>
            </trkpt>
            <trkpt lat="46.309260" lon="11.602550">
                <time>2017-07-15T08:52:01Z</time>
            </trkpt>
            <trkpt lat="46.309260" lon="11.602440">
                <time>2017-07-15T08:52:02Z</time>
            </trkpt>
            <trkpt lat="46.309270" lon="11.602340">
                <time>2017-07-15T08:52:03Z</time>
            </trkpt>
            <trkpt lat="46.309270" lon="11.602230">
                <time>2017-07-15T08:52:04Z</time>
            </trkpt>
            <trkpt lat="46.309270" lon="11.602160">
                <time>2017-07-15T08:52:05Z</time>
            </trkpt>
            <trkpt lat="46.309270" lon="11.602110">
                <time>2017-07-15T08:52:06Z</time>
            </trkpt>
            <trkpt lat="46.309280" lon="11.602070">
                <time>2017-07-15T08:52:07Z</time>
            </trkpt>
            <trkpt lat="46.309280" lon="11.602040">
                <time>2017-07-15T08:52:08Z</time>
            </trkpt>
            <trkpt lat="46.309280" lon="11.602030">
                <time>2017-07-15T08:52:09Z</time>
            </trkpt>
            <trkpt lat="46.309280" lon="11.602020">
                <time>2017-07-15T08:52:10Z</time>
            </trkpt>
            <trkpt lat="46.309280" lon="11.602030">
                <time>2017-07-15T08:52:11Z</time>
            </trkpt>
            <trkpt lat="46.309280" lon="11.602030">
                <time>2017-07-15T08:52:12Z</time>
            </trkpt>
            <trkpt lat="46.309280" lon="11.602030">
                <time>2017-07-15T08:52:13Z</time>
            </trkpt>
            <trkpt lat="46.309280" lon="11.602030">
                <time>2017-07-15T08:52:14Z</time>
            </trkpt>
            <trkpt lat="46.309280" lon="11.602030">
                <time>2017-07-15T08:52:15Z</time>
            </trkpt>
            <trkpt lat="46.309280" lon="11.602030">
                <time>2017-07-15T08:52:16Z</time>
            </trkpt>
            <trkpt lat="46.309280" lon="11.602030">
                <time>2017-07-15T08:52:17Z</time>
            </trkpt>
            <trkpt lat="46.309280" lon="11.602030">
                <time>2017-07-15T08:52:18Z</time>
            </trkpt>
            <trkpt lat="46.309280" lon="11.602030">
                <time>2017-07-15T08:52:19Z</time>
            </trkpt>
            <trkpt lat="46.309280" lon="11.602030">
                <time>2017-07-15T08:52:20Z</time>
            </trkpt>
            <trkpt lat="46.309280" lon="11.602030">
                <time>2017-07-15T08:52:21Z</time>
            </trkpt>
            <trkpt lat="46.309280" lon="11.602030">
                <time>2017-07-15T08:52:22Z</time>
            </trkpt>
            <trkpt lat="46.309280" lon="11.602030">
                <time>2017-07-15T08:52:23Z</time>
            </trkpt>
            <trkpt lat="46.309280" lon="11.602020">
                <time>2017-07-15T08:52:24Z</time>
            </trkpt>
            <trkpt lat="46.309280" lon="11.602020">
                <time>2017-07-15T08:52:25Z</time>
            </trkpt>
            <trkpt lat="46.309280" lon="11.602020">
                <time>2017-07-15T08:52:26Z</time>
            </trkpt>
            <trkpt lat="46.309280" lon="11.602020">
                <time>2017-07-15T08:52:27Z</time>
            </trkpt>
            <trkpt lat="46.309280" lon="11.602020">
                <time>2017-07-15T08:52:28Z</time>
            </trkpt>
            <trkpt lat="46.309280" lon="11.602010">
                <time>2017-07-15T08:52:29Z</time>
            </trkpt>
            <trkpt lat="46.309280" lon="11.601990">
                <time>2017-07-15T08:52:30Z</time>
            </trkpt>
            <trkpt lat="46.309280" lon="11.601970">
                <time>2017-07-15T08:52:31Z</time>
            </trkpt>
            <trkpt lat="46.309280" lon="11.601950">
                <time>2017-07-15T08:52:32Z</time>
            </trkpt>
            <trkpt lat="46.309280" lon="11.601930">
                <time>2017-07-15T08:52:33Z</time>
            </trkpt>
            <trkpt lat="46.309290" lon="11.601920">
                <time>2017-07-15T08:52:34Z</time>
            </trkpt>
            <trkpt lat="46.309290" lon="11.601900">
                <time>2017-07-15T08:52:35Z</time>
            </trkpt>
            <trkpt lat="46.309290" lon="11.601880">
                <time>2017-07-15T08:52:36Z</time>
            </trkpt>
            <trkpt lat="46.309300" lon="11.601880">
                <time>2017-07-15T08:52:37Z</time>
            </trkpt>
            <trkpt lat="46.309300" lon="11.601880">
                <time>2017-07-15T08:52:38Z</time>
            </trkpt>
            <trkpt lat="46.309300" lon="11.601860">
                <time>2017-07-15T08:52:39Z</time>
            </trkpt>
            <trkpt lat="46.309320" lon="11.601840">
                <time>2017-07-15T08:52:40Z</time>
            </trkpt>
            <trkpt lat="46.309330" lon="11.601800">
                <time>2017-07-15T08:52:41Z</time>
            </trkpt>
            <trkpt lat="46.309340" lon="11.601740">
                <time>2017-07-15T08:52:42Z</time>
            </trkpt>
            <trkpt lat="46.309320" lon="11.601690">
                <time>2017-07-15T08:52:43Z</time>
            </trkpt>
            <trkpt lat="46.309290" lon="11.601660">
                <time>2017-07-15T08:52:44Z</time>
            </trkpt>
            <trkpt lat="46.309190" lon="11.601660">
                <time>2017-07-15T08:52:45Z</time>
            </trkpt>
            <trkpt lat="46.309130" lon="11.601650">
                <time>2017-07-15T08:52:46Z</time>
            </trkpt>
            <trkpt lat="46.309050" lon="11.601630">
                <time>2017-07-15T08:52:47Z</time>
            </trkpt>
            <trkpt lat="46.308980" lon="11.601600">
                <time>2017-07-15T08:52:48Z</time>
            </trkpt>
            <trkpt lat="46.308890" lon="11.601560">
                <time>2017-07-15T08:52:49Z</time>
            </trkpt>
            <trkpt lat="46.308810" lon="11.601510">
                <time>2017-07-15T08:52:50Z</time>
            </trkpt>
            <trkpt lat="46.308720" lon="11.601450">
                <time>2017-07-15T08:52:51Z</time>
            </trkpt>
            <trkpt lat="46.308630" lon="11.601410">
                <time>2017-07-15T08:52:52Z</time>
            </trkpt>
            <trkpt lat="46.308550" lon="11.601370">
                <time>2017-07-15T08:52:53Z</time>
            </trkpt>
            <trkpt lat="46.308450" lon="11.601330">
                <time>2017-07-15T08:52:54Z</time>
            </trkpt>
            <trkpt lat="46.308360" lon="11.601290">
                <time>2017-07-15T08:52:55Z</time>
            </trkpt>
            <trkpt lat="46.308290" lon="11.601250">
                <time>2017-07-15T08:52:56Z</time>
            </trkpt>
            <trkpt lat="46.308200" lon="11.601210">
                <time>2017-07-15T08:52:57Z</time>
            </trkpt>
            <trkpt lat="46.308110" lon="11.601160">
                <time>2017-07-15T08:52:58Z</time>
            </trkpt>
            <trkpt lat="46.308030" lon="11.601130">
                <time>2017-07-15T08:52:59Z</time>
            </trkpt>
            <trkpt lat="46.307940" lon="11.601080">
                <time>2017-07-15T08:53:00Z</time>
            </trkpt>
            <trkpt lat="46.307870" lon="11.601030">
                <time>2017-07-15T08:53:01Z</time>
            </trkpt>
            <trkpt lat="46.307800" lon="11.600960">
                <time>2017-07-15T08:53:02Z</time>
            </trkpt>
            <trkpt lat="46.307730" lon="11.600860">
                <time>2017-07-15T08:53:03Z</time>
            </trkpt>
            <trkpt lat="46.307670" lon="11.600760">
                <time>2017-07-15T08:53:04Z</time>
            </trkpt>
            <trkpt lat="46.307610" lon="11.600640">
                <time>2017-07-15T08:53:05Z</time>
            </trkpt>
            <trkpt lat="46.307540" lon="11.600510">
                <time>2017-07-15T08:53:06Z</time>
            </trkpt>
            <trkpt lat="46.307470" lon="11.600380">
                <time>2017-07-15T08:53:07Z</time>
            </trkpt>
            <trkpt lat="46.307390" lon="11.600240">
                <time>2017-07-15T08:53:08Z</time>
            </trkpt>
            <trkpt lat="46.307310" lon="11.600110">
                <time>2017-07-15T08:53:09Z</time>
            </trkpt>
            <trkpt lat="46.307230" lon="11.599960">
                <time>2017-07-15T08:53:10Z</time>
            </trkpt>
            <trkpt lat="46.307140" lon="11.599790">
                <time>2017-07-15T08:53:11Z</time>
            </trkpt>
            <trkpt lat="46.307050" lon="11.599640">
                <time>2017-07-15T08:53:12Z</time>
            </trkpt>
            <trkpt lat="46.306950" lon="11.599470">
                <time>2017-07-15T08:53:13Z</time>
            </trkpt>
            <trkpt lat="46.306850" lon="11.599290">
                <time>2017-07-15T08:53:14Z</time>
            </trkpt>
            <trkpt lat="46.306760" lon="11.599130">
                <time>2017-07-15T08:53:15Z</time>
            </trkpt>
            <trkpt lat="46.306660" lon="11.598950">
                <time>2017-07-15T08:53:16Z</time>
            </trkpt>
            <trkpt lat="46.306570" lon="11.598800">
                <time>2017-07-15T08:53:17Z</time>
            </trkpt>
            <trkpt lat="46.306470" lon="11.598630">
                <time>2017-07-15T08:53:18Z</time>
            </trkpt>
            <trkpt lat="46.306370" lon="11.598450">
                <time>2017-07-15T08:53:19Z</time>
            </trkpt>
            <trkpt lat="46.306280" lon="11.598290">
                <time>2017-07-15T08:53:20Z</time>
            </trkpt>
            <trkpt lat="46.306190" lon="11.598120">
                <time>2017-07-15T08:53:21Z</time>
            </trkpt>
            <trkpt lat="46.306090" lon="11.597960">
                <time>2017-07-15T08:53:22Z</time>
            </trkpt>
            <trkpt lat="46.306000" lon="11.597800">
                <time>2017-07-15T08:53:23Z</time>
            </trkpt>
            <trkpt lat="46.305900" lon="11.597640">
                <time>2017-07-15T08:53:24Z</time>
            </trkpt>
            <trkpt lat="46.305820" lon="11.597490">
                <time>2017-07-15T08:53:25Z</time>
            </trkpt>
            <trkpt lat="46.305740" lon="11.597330">
                <time>2017-07-15T08:53:26Z</time>
            </trkpt>
            <trkpt lat="46.305640" lon="11.597160">
                <time>2017-07-15T08:53:27Z</time>
            </trkpt>
            <trkpt lat="46.305540" lon="11.597000">
                <time>2017-07-15T08:53:28Z</time>
            </trkpt>
            <trkpt lat="46.305450" lon="11.596830">
                <time>2017-07-15T08:53:29Z</time>
            </trkpt>
            <trkpt lat="46.305350" lon="11.596660">
                <time>2017-07-15T08:53:30Z</time>
            </trkpt>
            <trkpt lat="46.305260" lon="11.596500">
                <time>2017-07-15T08:53:31Z</time>
            </trkpt>
            <trkpt lat="46.305160" lon="11.596320">
                <time>2017-07-15T08:53:32Z</time>
            </trkpt>
            <trkpt lat="46.305070" lon="11.596170">
                <time>2017-07-15T08:53:33Z</time>
            </trkpt>
            <trkpt lat="46.304980" lon="11.596000">
                <time>2017-07-15T08:53:34Z</time>
            </trkpt>
            <trkpt lat="46.304880" lon="11.595830">
                <time>2017-07-15T08:53:35Z</time>
            </trkpt>
            <trkpt lat="46.304780" lon="11.595670">
                <time>2017-07-15T08:53:36Z</time>
            </trkpt>
            <trkpt lat="46.304680" lon="11.595500">
                <time>2017-07-15T08:53:37Z</time>
            </trkpt>
            <trkpt lat="46.304590" lon="11.595330">
                <time>2017-07-15T08:53:38Z</time>
            </trkpt>
            <trkpt lat="46.304490" lon="11.595160">
                <time>2017-07-15T08:53:39Z</time>
            </trkpt>
            <trkpt lat="46.304390" lon="11.594980">
                <time>2017-07-15T08:53:40Z</time>
            </trkpt>
            <trkpt lat="46.304300" lon="11.594820">
                <time>2017-07-15T08:53:41Z</time>
            </trkpt>
            <trkpt lat="46.304200" lon="11.594650">
                <time>2017-07-15T08:53:42Z</time>
            </trkpt>
            <trkpt lat="46.304100" lon="11.594480">
                <time>2017-07-15T08:53:43Z</time>
            </trkpt>
            <trkpt lat="46.304020" lon="11.594330">
                <time>2017-07-15T08:53:44Z</time>
            </trkpt>
            <trkpt lat="46.303950" lon="11.594200">
                <time>2017-07-15T08:53:45Z</time>
            </trkpt>
            <trkpt lat="46.303890" lon="11.594100">
                <time>2017-07-15T08:53:46Z</time>
            </trkpt>
            <trkpt lat="46.303850" lon="11.594040">
                <time>2017-07-15T08:53:47Z</time>
            </trkpt>
            <trkpt lat="46.303820" lon="11.593970">
                <time>2017-07-15T08:53:48Z</time>
            </trkpt>
            <trkpt lat="46.303800" lon="11.593930">
                <time>2017-07-15T08:53:49Z</time>
            </trkpt>
            <trkpt lat="46.303770" lon="11.593860">
                <time>2017-07-15T08:53:50Z</time>
            </trkpt>
            <trkpt lat="46.303730" lon="11.593810">
                <time>2017-07-15T08:53:51Z</time>
            </trkpt>
            <trkpt lat="46.303700" lon="11.593750">
                <time>2017-07-15T08:53:52Z</time>
            </trkpt>
            <trkpt lat="46.303660" lon="11.593700">
                <time>2017-07-15T08:53:53Z</time>
            </trkpt>
            <trkpt lat="46.303630" lon="11.593630">
                <time>2017-07-15T08:53:54Z</time>
            </trkpt>
            <trkpt lat="46.303590" lon="11.593560">
                <time>2017-07-15T08:53:55Z</time>
            </trkpt>
            <trkpt lat="46.303530" lon="11.593470">
                <time>2017-07-15T08:53:56Z</time>
            </trkpt>
            <trkpt lat="46.303470" lon="11.593360">
                <time>2017-07-15T08:53:57Z</time>
            </trkpt>
            <trkpt lat="46.303410" lon="11.593250">
                <time>2017-07-15T08:53:58Z</time>
            </trkpt>
            <trkpt lat="46.303340" lon="11.593120">
                <time>2017-07-15T08:53:59Z</time>
            </trkpt>
            <trkpt lat="46.303270" lon="11.593010">
                <time>2017-07-15T08:54:00Z</time>
            </trkpt>
            <trkpt lat="46.303210" lon="11.592890">
                <time>2017-07-15T08:54:01Z</time>
            </trkpt>
            <trkpt lat="46.303140" lon="11.592760">
                <time>2017-07-15T08:54:02Z</time>
            </trkpt>
            <trkpt lat="46.303070" lon="11.592650">
                <time>2017-07-15T08:54:03Z</time>
            </trkpt>
            <trkpt lat="46.303000" lon="11.592530">
                <time>2017-07-15T08:54:04Z</time>
            </trkpt>
            <trkpt lat="46.302930" lon="11.592420">
                <time>2017-07-15T08:54:05Z</time>
            </trkpt>
            <trkpt lat="46.302860" lon="11.592290">
                <time>2017-07-15T08:54:06Z</time>
            </trkpt>
            <trkpt lat="46.302780" lon="11.592140">
                <time>2017-07-15T08:54:07Z</time>
            </trkpt>
            <trkpt lat="46.302700" lon="11.592010">
                <time>2017-07-15T08:54:08Z</time>
            </trkpt>
            <trkpt lat="46.302610" lon="11.591860">
                <time>2017-07-15T08:54:09Z</time>
            </trkpt>
            <trkpt lat="46.302510" lon="11.591720">
                <time>2017-07-15T08:54:10Z</time>
            </trkpt>
            <trkpt lat="46.302410" lon="11.591580">
                <time>2017-07-15T08:54:11Z</time>
            </trkpt>
            <trkpt lat="46.302300" lon="11.591430">
                <time>2017-07-15T08:54:12Z</time>
            </trkpt>
            <trkpt lat="46.302200" lon="11.591290">
                <time>2017-07-15T08:54:13Z</time>
            </trkpt>
            <trkpt lat="46.302100" lon="11.591150">
                <time>2017-07-15T08:54:14Z</time>
            </trkpt>
            <trkpt lat="46.301990" lon="11.591000">
                <time>2017-07-15T08:54:15Z</time>
            </trkpt>
            <trkpt lat="46.301900" lon="11.590880">
                <time>2017-07-15T08:54:16Z</time>
            </trkpt>
            <trkpt lat="46.301800" lon="11.590750">
                <time>2017-07-15T08:54:17Z</time>
            </trkpt>
            <trkpt lat="46.301700" lon="11.590630">
                <time>2017-07-15T08:54:18Z</time>
            </trkpt>
            <trkpt lat="46.301630" lon="11.590530">
                <time>2017-07-15T08:54:19Z</time>
            </trkpt>
            <trkpt lat="46.301570" lon="11.590440">
                <time>2017-07-15T08:54:20Z</time>
            </trkpt>
            <trkpt lat="46.301530" lon="11.590380">
                <time>2017-07-15T08:54:21Z</time>
            </trkpt>
            <trkpt lat="46.301500" lon="11.590330">
                <time>2017-07-15T08:54:22Z</time>
            </trkpt>
            <trkpt lat="46.301470" lon="11.590280">
                <time>2017-07-15T08:54:23Z</time>
            </trkpt>
            <trkpt lat="46.301470" lon="11.590250">
                <time>2017-07-15T08:54:24Z</time>
            </trkpt>
            <trkpt lat="46.301460" lon="11.590230">
                <time>2017-07-15T08:54:25Z</time>
            </trkpt>
            <trkpt lat="46.301460" lon="11.590200">
                <time>2017-07-15T08:54:26Z</time>
            </trkpt>
            <trkpt lat="46.301470" lon="11.590150">
                <time>2017-07-15T08:54:27Z</time>
            </trkpt>
            <trkpt lat="46.301480" lon="11.590090">
                <time>2017-07-15T08:54:28Z</time>
            </trkpt>
            <trkpt lat="46.301480" lon="11.590020">
                <time>2017-07-15T08:54:29Z</time>
            </trkpt>
            <trkpt lat="46.301470" lon="11.589950">
                <time>2017-07-15T08:54:30Z</time>
            </trkpt>
            <trkpt lat="46.301440" lon="11.589890">
                <time>2017-07-15T08:54:31Z</time>
            </trkpt>
            <trkpt lat="46.301400" lon="11.589850">
                <time>2017-07-15T08:54:32Z</time>
            </trkpt>
            <trkpt lat="46.301340" lon="11.589810">
                <time>2017-07-15T08:54:33Z</time>
            </trkpt>
            <trkpt lat="46.301260" lon="11.589800">
                <time>2017-07-15T08:54:34Z</time>
            </trkpt>
            <trkpt lat="46.301190" lon="11.589790">
                <time>2017-07-15T08:54:35Z</time>
            </trkpt>
            <trkpt lat="46.301100" lon="11.589750">
                <time>2017-07-15T08:54:36Z</time>
            </trkpt>
            <trkpt lat="46.301020" lon="11.589680">
                <time>2017-07-15T08:54:37Z</time>
            </trkpt>
            <trkpt lat="46.300950" lon="11.589600">
                <time>2017-07-15T08:54:38Z</time>
            </trkpt>
            <trkpt lat="46.300850" lon="11.589490">
                <time>2017-07-15T08:54:39Z</time>
            </trkpt>
            <trkpt lat="46.300770" lon="11.589380">
                <time>2017-07-15T08:54:40Z</time>
            </trkpt>
            <trkpt lat="46.300690" lon="11.589270">
                <time>2017-07-15T08:54:41Z</time>
            </trkpt>
            <trkpt lat="46.300600" lon="11.589150">
                <time>2017-07-15T08:54:42Z</time>
            </trkpt>
            <trkpt lat="46.300520" lon="11.589030">
                <time>2017-07-15T08:54:43Z</time>
            </trkpt>
            <trkpt lat="46.300430" lon="11.588910">
                <time>2017-07-15T08:54:44Z</time>
            </trkpt>
            <trkpt lat="46.300350" lon="11.588810">
                <time>2017-07-15T08:54:45Z</time>
            </trkpt>
            <trkpt lat="46.300260" lon="11.588680">
                <time>2017-07-15T08:54:46Z</time>
            </trkpt>
            <trkpt lat="46.300160" lon="11.588540">
                <time>2017-07-15T08:54:47Z</time>
            </trkpt>
            <trkpt lat="46.300070" lon="11.588420">
                <time>2017-07-15T08:54:48Z</time>
            </trkpt>
            <trkpt lat="46.299970" lon="11.588280">
                <time>2017-07-15T08:54:49Z</time>
            </trkpt>
            <trkpt lat="46.299860" lon="11.588130">
                <time>2017-07-15T08:54:50Z</time>
            </trkpt>
            <trkpt lat="46.299760" lon="11.587990">
                <time>2017-07-15T08:54:51Z</time>
            </trkpt>
            <trkpt lat="46.299650" lon="11.587830">
                <time>2017-07-15T08:54:52Z</time>
            </trkpt>
            <trkpt lat="46.299540" lon="11.587700">
                <time>2017-07-15T08:54:53Z</time>
            </trkpt>
            <trkpt lat="46.299420" lon="11.587550">
                <time>2017-07-15T08:54:54Z</time>
            </trkpt>
            <trkpt lat="46.299300" lon="11.587390">
                <time>2017-07-15T08:54:55Z</time>
            </trkpt>
            <trkpt lat="46.299190" lon="11.587250">
                <time>2017-07-15T08:54:56Z</time>
            </trkpt>
            <trkpt lat="46.299070" lon="11.587100">
                <time>2017-07-15T08:54:57Z</time>
            </trkpt>
            <trkpt lat="46.298950" lon="11.586940">
                <time>2017-07-15T08:54:58Z</time>
            </trkpt>
            <trkpt lat="46.298830" lon="11.586790">
                <time>2017-07-15T08:54:59Z</time>
            </trkpt>
            <trkpt lat="46.298710" lon="11.586640">
                <time>2017-07-15T08:55:00Z</time>
            </trkpt>
            <trkpt lat="46.298600" lon="11.586510">
                <time>2017-07-15T08:55:01Z</time>
            </trkpt>
            <trkpt lat="46.298490" lon="11.586380">
                <time>2017-07-15T08:55:02Z</time>
            </trkpt>
            <trkpt lat="46.298370" lon="11.586250">
                <time>2017-07-15T08:55:03Z</time>
            </trkpt>
            <trkpt lat="46.298260" lon="11.586150">
                <time>2017-07-15T08:55:04Z</time>
            </trkpt>
            <trkpt lat="46.298140" lon="11.586040">
                <time>2017-07-15T08:55:05Z</time>
            </trkpt>
            <trkpt lat="46.298020" lon="11.585920">
                <time>2017-07-15T08:55:06Z</time>
            </trkpt>
            <trkpt lat="46.297910" lon="11.585820">
                <time>2017-07-15T08:55:07Z</time>
            </trkpt>
            <trkpt lat="46.297790" lon="11.585700">
                <time>2017-07-15T08:55:08Z</time>
            </trkpt>
            <trkpt lat="46.297680" lon="11.585590">
                <time>2017-07-15T08:55:09Z</time>
            </trkpt>
            <trkpt lat="46.297570" lon="11.585470">
                <time>2017-07-15T08:55:10Z</time>
            </trkpt>
            <trkpt lat="46.297450" lon="11.585350">
                <time>2017-07-15T08:55:11Z</time>
            </trkpt>
            <trkpt lat="46.297350" lon="11.585250">
                <time>2017-07-15T08:55:12Z</time>
            </trkpt>
            <trkpt lat="46.297250" lon="11.585140">
                <time>2017-07-15T08:55:13Z</time>
            </trkpt>
            <trkpt lat="46.297150" lon="11.585030">
                <time>2017-07-15T08:55:14Z</time>
            </trkpt>
            <trkpt lat="46.297050" lon="11.584900">
                <time>2017-07-15T08:55:15Z</time>
            </trkpt>
            <trkpt lat="46.296940" lon="11.584740">
                <time>2017-07-15T08:55:16Z</time>
            </trkpt>
            <trkpt lat="46.296840" lon="11.584580">
                <time>2017-07-15T08:55:17Z</time>
            </trkpt>
            <trkpt lat="46.296740" lon="11.584400">
                <time>2017-07-15T08:55:18Z</time>
            </trkpt>
            <trkpt lat="46.296640" lon="11.584200">
                <time>2017-07-15T08:55:19Z</time>
            </trkpt>
            <trkpt lat="46.296570" lon="11.584020">
                <time>2017-07-15T08:55:20Z</time>
            </trkpt>
            <trkpt lat="46.296490" lon="11.583830">
                <time>2017-07-15T08:55:21Z</time>
            </trkpt>
            <trkpt lat="46.296430" lon="11.583630">
                <time>2017-07-15T08:55:22Z</time>
            </trkpt>
            <trkpt lat="46.296380" lon="11.583450">
                <time>2017-07-15T08:55:23Z</time>
            </trkpt>
            <trkpt lat="46.296320" lon="11.583250">
                <time>2017-07-15T08:55:24Z</time>
            </trkpt>
            <trkpt lat="46.296280" lon="11.583070">
                <time>2017-07-15T08:55:25Z</time>
            </trkpt>
            <trkpt lat="46.296230" lon="11.582880">
                <time>2017-07-15T08:55:26Z</time>
            </trkpt>
            <trkpt lat="46.296160" lon="11.582680">
                <time>2017-07-15T08:55:27Z</time>
            </trkpt>
            <trkpt lat="46.296110" lon="11.582490">
                <time>2017-07-15T08:55:28Z</time>
            </trkpt>
            <trkpt lat="46.296050" lon="11.582280">
                <time>2017-07-15T08:55:29Z</time>
            </trkpt>
            <trkpt lat="46.295980" lon="11.582060">
                <time>2017-07-15T08:55:30Z</time>
            </trkpt>
            <trkpt lat="46.295920" lon="11.581840">
                <time>2017-07-15T08:55:31Z</time>
            </trkpt>
            <trkpt lat="46.295860" lon="11.581600">
                <time>2017-07-15T08:55:32Z</time>
            </trkpt>
            <trkpt lat="46.295800" lon="11.581390">
                <time>2017-07-15T08:55:33Z</time>
            </trkpt>
            <trkpt lat="46.295730" lon="11.581170">
                <time>2017-07-15T08:55:34Z</time>
            </trkpt>
            <trkpt lat="46.295670" lon="11.580950">
                <time>2017-07-15T08:55:35Z</time>
            </trkpt>
            <trkpt lat="46.295610" lon="11.580750">
                <time>2017-07-15T08:55:36Z</time>
            </trkpt>
            <trkpt lat="46.295550" lon="11.580560">
                <time>2017-07-15T08:55:37Z</time>
            </trkpt>
            <trkpt lat="46.295500" lon="11.580350">
                <time>2017-07-15T08:55:38Z</time>
            </trkpt>
            <trkpt lat="46.295450" lon="11.580180">
                <time>2017-07-15T08:55:39Z</time>
            </trkpt>
            <trkpt lat="46.295400" lon="11.579970">
                <time>2017-07-15T08:55:40Z</time>
            </trkpt>
            <trkpt lat="46.295360" lon="11.579780">
                <time>2017-07-15T08:55:41Z</time>
            </trkpt>
            <trkpt lat="46.295310" lon="11.579570">
                <time>2017-07-15T08:55:42Z</time>
            </trkpt>
            <trkpt lat="46.295270" lon="11.579350">
                <time>2017-07-15T08:55:43Z</time>
            </trkpt>
            <trkpt lat="46.295230" lon="11.579160">
                <time>2017-07-15T08:55:44Z</time>
            </trkpt>
            <trkpt lat="46.295190" lon="11.578960">
                <time>2017-07-15T08:55:45Z</time>
            </trkpt>
            <trkpt lat="46.285630" lon="11.556730">
                <time>2017-07-15T08:57:33Z</time>
            </trkpt>
            <trkpt lat="46.285580" lon="11.556550">
                <time>2017-07-15T08:57:34Z</time>
            </trkpt>
            <trkpt lat="46.285530" lon="11.556350">
                <time>2017-07-15T08:57:35Z</time>
            </trkpt>
            <trkpt lat="46.285480" lon="11.556170">
                <time>2017-07-15T08:57:36Z</time>
            </trkpt>
            <trkpt lat="46.285440" lon="11.556000">
                <time>2017-07-15T08:57:37Z</time>
            </trkpt>
            <trkpt lat="46.285380" lon="11.555820">
                <time>2017-07-15T08:57:38Z</time>
            </trkpt>
            <trkpt lat="46.285320" lon="11.555640">
                <time>2017-07-15T08:57:39Z</time>
            </trkpt>
            <trkpt lat="46.285260" lon="11.555450">
                <time>2017-07-15T08:57:40Z</time>
            </trkpt>
            <trkpt lat="46.285210" lon="11.555280">
                <time>2017-07-15T08:57:41Z</time>
            </trkpt>
            <trkpt lat="46.285150" lon="11.555100">
                <time>2017-07-15T08:57:42Z</time>
            </trkpt>
            <trkpt lat="46.285090" lon="11.554910">
                <time>2017-07-15T08:57:43Z</time>
            </trkpt>
            <trkpt lat="46.285030" lon="11.554750">
                <time>2017-07-15T08:57:44Z</time>
            </trkpt>
            <trkpt lat="46.284960" lon="11.554580">
                <time>2017-07-15T08:57:45Z</time>
            </trkpt>
            <trkpt lat="46.284890" lon="11.554410">
                <time>2017-07-15T08:57:46Z</time>
            </trkpt>
            <trkpt lat="46.284810" lon="11.554260">
                <time>2017-07-15T08:57:47Z</time>
            </trkpt>
            <trkpt lat="46.284720" lon="11.554080">
                <time>2017-07-15T08:57:48Z</time>
            </trkpt>
            <trkpt lat="46.284630" lon="11.553920">
                <time>2017-07-15T08:57:49Z</time>
            </trkpt>
            <trkpt lat="46.284540" lon="11.553740">
                <time>2017-07-15T08:57:50Z</time>
            </trkpt>
            <trkpt lat="46.284420" lon="11.553570">
                <time>2017-07-15T08:57:51Z</time>
            </trkpt>
            <trkpt lat="46.284320" lon="11.553420">
                <time>2017-07-15T08:57:52Z</time>
            </trkpt>
            <trkpt lat="46.284200" lon="11.553270">
                <time>2017-07-15T08:57:53Z</time>
            </trkpt>
            <trkpt lat="46.284080" lon="11.553130">
                <time>2017-07-15T08:57:54Z</time>
            </trkpt>
            <trkpt lat="46.283970" lon="11.553000">
                <time>2017-07-15T08:57:55Z</time>
            </trkpt>
            <trkpt lat="46.283840" lon="11.552860">
                <time>2017-07-15T08:57:56Z</time>
            </trkpt>
            <trkpt lat="46.283730" lon="11.552750">
                <time>2017-07-15T08:57:57Z</time>
            </trkpt>
            <trkpt lat="46.283610" lon="11.552640">
                <time>2017-07-15T08:57:58Z</time>
            </trkpt>
            <trkpt lat="46.283480" lon="11.552520">
                <time>2017-07-15T08:57:59Z</time>
            </trkpt>
            <trkpt lat="46.283360" lon="11.552410">
                <time>2017-07-15T08:58:00Z</time>
            </trkpt>
            <trkpt lat="46.283230" lon="11.552300">
                <time>2017-07-15T08:58:01Z</time>
            </trkpt>
            <trkpt lat="46.283100" lon="11.552170">
                <time>2017-07-15T08:58:02Z</time>
            </trkpt>
            <trkpt lat="46.282980" lon="11.552050">
                <time>2017-07-15T08:58:03Z</time>
            </trkpt>
            <trkpt lat="46.282860" lon="11.551900">
                <time>2017-07-15T08:58:04Z</time>
            </trkpt>
            <trkpt lat="46.282750" lon="11.551750">
                <time>2017-07-15T08:58:05Z</time>
            </trkpt>
            <trkpt lat="46.282640" lon="11.551590">
                <time>2017-07-15T08:58:06Z</time>
            </trkpt>
            <trkpt lat="46.282530" lon="11.551400">
                <time>2017-07-15T08:58:07Z</time>
            </trkpt>
            <trkpt lat="46.282430" lon="11.551240">
                <time>2017-07-15T08:58:08Z</time>
            </trkpt>
            <trkpt lat="46.282330" lon="11.551070">
                <time>2017-07-15T08:58:09Z</time>
            </trkpt>
            <trkpt lat="46.282230" lon="11.550900">
                <time>2017-07-15T08:58:10Z</time>
            </trkpt>
            <trkpt lat="46.282120" lon="11.550730">
                <time>2017-07-15T08:58:11Z</time>
            </trkpt>
            <trkpt lat="46.282000" lon="11.550540">
                <time>2017-07-15T08:58:12Z</time>
            </trkpt>
            <trkpt lat="46.281900" lon="11.550380">
                <time>2017-07-15T08:58:13Z</time>
            </trkpt>
            <trkpt lat="46.281790" lon="11.550190">
                <time>2017-07-15T08:58:14Z</time>
            </trkpt>
            <trkpt lat="46.281670" lon="11.549990">
                <time>2017-07-15T08:58:15Z</time>
            </trkpt>
            <trkpt lat="46.281580" lon="11.549800">
                <time>2017-07-15T08:58:16Z</time>
            </trkpt>
            <trkpt lat="46.281500" lon="11.549590">
                <time>2017-07-15T08:58:17Z</time>
            </trkpt>
            <trkpt lat="46.281430" lon="11.549350">
                <time>2017-07-15T08:58:18Z</time>
            </trkpt>
            <trkpt lat="46.281370" lon="11.549130">
                <time>2017-07-15T08:58:19Z</time>
            </trkpt>
            <trkpt lat="46.281320" lon="11.548870">
                <time>2017-07-15T08:58:20Z</time>
            </trkpt>
            <trkpt lat="46.281280" lon="11.548640">
                <time>2017-07-15T08:58:21Z</time>
            </trkpt>
            <trkpt lat="46.281250" lon="11.548390">
                <time>2017-07-15T08:58:22Z</time>
            </trkpt>
            <trkpt lat="46.281230" lon="11.548130">
                <time>2017-07-15T08:58:23Z</time>
            </trkpt>
            <trkpt lat="46.281210" lon="11.547890">
                <time>2017-07-15T08:58:24Z</time>
            </trkpt>
            <trkpt lat="46.281220" lon="11.547640">
                <time>2017-07-15T08:58:25Z</time>
            </trkpt>
            <trkpt lat="46.281240" lon="11.547390">
                <time>2017-07-15T08:58:26Z</time>
            </trkpt>
            <trkpt lat="46.281260" lon="11.547150">
                <time>2017-07-15T08:58:27Z</time>
            </trkpt>
            <trkpt lat="46.281300" lon="11.546910">
                <time>2017-07-15T08:58:28Z</time>
            </trkpt>
            <trkpt lat="46.281330" lon="11.546710">
                <time>2017-07-15T08:58:29Z</time>
            </trkpt>
            <trkpt lat="46.281370" lon="11.546510">
                <time>2017-07-15T08:58:30Z</time>
            </trkpt>
            <trkpt lat="46.281410" lon="11.546300">
                <time>2017-07-15T08:58:31Z</time>
            </trkpt>
            <trkpt lat="46.281450" lon="11.546120">
                <time>2017-07-15T08:58:32Z</time>
            </trkpt>
            <trkpt lat="46.282050" lon="11.542690">
                <time>2017-07-15T08:58:47Z</time>
            </trkpt>
            <trkpt lat="46.282090" lon="11.542430">
                <time>2017-07-15T08:58:48Z</time>
            </trkpt>
            <trkpt lat="46.282110" lon="11.542180">
                <time>2017-07-15T08:58:49Z</time>
            </trkpt>
            <trkpt lat="46.282130" lon="11.541890">
                <time>2017-07-15T08:58:50Z</time>
            </trkpt>
            <trkpt lat="46.282130" lon="11.541640">
                <time>2017-07-15T08:58:51Z</time>
            </trkpt>
            <trkpt lat="46.282120" lon="11.541340">
                <time>2017-07-15T08:58:52Z</time>
            </trkpt>
            <trkpt lat="46.282100" lon="11.541080">
                <time>2017-07-15T08:58:53Z</time>
            </trkpt>
            <trkpt lat="46.282060" lon="11.540800">
                <time>2017-07-15T08:58:54Z</time>
            </trkpt>
            <trkpt lat="46.282020" lon="11.540510">
                <time>2017-07-15T08:58:55Z</time>
            </trkpt>
            <trkpt lat="46.281980" lon="11.540250">
                <time>2017-07-15T08:58:56Z</time>
            </trkpt>
            <trkpt lat="46.281950" lon="11.539990">
                <time>2017-07-15T08:58:57Z</time>
            </trkpt>
            <trkpt lat="46.281910" lon="11.539720">
                <time>2017-07-15T08:58:58Z</time>
            </trkpt>
            <trkpt lat="46.281880" lon="11.539450">
                <time>2017-07-15T08:58:59Z</time>
            </trkpt>
            <trkpt lat="46.281860" lon="11.539160">
                <time>2017-07-15T08:59:00Z</time>
            </trkpt>
            <trkpt lat="46.281860" lon="11.538890">
                <time>2017-07-15T08:59:01Z</time>
            </trkpt>
            <trkpt lat="46.281850" lon="11.538600">
                <time>2017-07-15T08:59:02Z</time>
            </trkpt>
            <trkpt lat="46.281860" lon="11.538290">
                <time>2017-07-15T08:59:03Z</time>
            </trkpt>
            <trkpt lat="46.281880" lon="11.538010">
                <time>2017-07-15T08:59:04Z</time>
            </trkpt>
            <trkpt lat="46.281910" lon="11.537710">
                <time>2017-07-15T08:59:05Z</time>
            </trkpt>
            <trkpt lat="46.281950" lon="11.537390">
                <time>2017-07-15T08:59:06Z</time>
            </trkpt>
            <trkpt lat="46.281990" lon="11.537120">
                <time>2017-07-15T08:59:07Z</time>
            </trkpt>
            <trkpt lat="46.282030" lon="11.536800">
                <time>2017-07-15T08:59:08Z</time>
            </trkpt>
            <trkpt lat="46.282060" lon="11.536530">
                <time>2017-07-15T08:59:09Z</time>
            </trkpt>
            <trkpt lat="46.282110" lon="11.536240">
                <time>2017-07-15T08:59:10Z</time>
            </trkpt>
            <trkpt lat="46.282160" lon="11.535930">
                <time>2017-07-15T08:59:11Z</time>
            </trkpt>
            <trkpt lat="46.282200" lon="11.535670">
                <time>2017-07-15T08:59:12Z</time>
            </trkpt>
            <trkpt lat="46.282250" lon="11.535400">
                <time>2017-07-15T08:59:13Z</time>
            </trkpt>
            <trkpt lat="46.282310" lon="11.535120">
                <time>2017-07-15T08:59:14Z</time>
            </trkpt>
            <trkpt lat="46.282360" lon="11.534840">
                <time>2017-07-15T08:59:15Z</time>
            </trkpt>
            <trkpt lat="46.282410" lon="11.534550">
                <time>2017-07-15T08:59:16Z</time>
            </trkpt>
            <trkpt lat="46.282460" lon="11.534300">
                <time>2017-07-15T08:59:17Z</time>
            </trkpt>
            <trkpt lat="46.282510" lon="11.534030">
                <time>2017-07-15T08:59:18Z</time>
            </trkpt>
            <trkpt lat="46.282570" lon="11.533750">
                <time>2017-07-15T08:59:19Z</time>
            </trkpt>
            <trkpt lat="46.282610" lon="11.533520">
                <time>2017-07-15T08:59:20Z</time>
            </trkpt>
            <trkpt lat="46.282670" lon="11.533280">
                <time>2017-07-15T08:59:21Z</time>
            </trkpt>
            <trkpt lat="46.282720" lon="11.533030">
                <time>2017-07-15T08:59:22Z</time>
            </trkpt>
            <trkpt lat="46.282770" lon="11.532810">
                <time>2017-07-15T08:59:23Z</time>
            </trkpt>
            <trkpt lat="46.282840" lon="11.532550">
                <time>2017-07-15T08:59:24Z</time>
            </trkpt>
            <trkpt lat="46.282900" lon="11.532320">
                <time>2017-07-15T08:59:25Z</time>
            </trkpt>
            <trkpt lat="46.282980" lon="11.532070">
                <time>2017-07-15T08:59:26Z</time>
            </trkpt>
            <trkpt lat="46.283060" lon="11.531800">
                <time>2017-07-15T08:59:27Z</time>
            </trkpt>
            <trkpt lat="46.283110" lon="11.531570">
                <time>2017-07-15T08:59:28Z</time>
            </trkpt>
            <trkpt lat="46.283160" lon="11.531330">
                <time>2017-07-15T08:59:29Z</time>
            </trkpt>
            <trkpt lat="46.283200" lon="11.531080">
                <time>2017-07-15T08:59:30Z</time>
            </trkpt>
            <trkpt lat="46.283220" lon="11.530840">
                <time>2017-07-15T08:59:31Z</time>
            </trkpt>
            <trkpt lat="46.283240" lon="11.530580">
                <time>2017-07-15T08:59:32Z</time>
            </trkpt>
            <trkpt lat="46.283250" lon="11.530340">
                <time>2017-07-15T08:59:33Z</time>
            </trkpt>
            <trkpt lat="46.283260" lon="11.530090">
                <time>2017-07-15T08:59:34Z</time>
            </trkpt>
            <trkpt lat="46.283270" lon="11.529820">
                <time>2017-07-15T08:59:35Z</time>
            </trkpt>
            <trkpt lat="46.283280" lon="11.529600">
                <time>2017-07-15T08:59:36Z</time>
            </trkpt>
            <trkpt lat="46.283300" lon="11.529350">
                <time>2017-07-15T08:59:37Z</time>
            </trkpt>
            <trkpt lat="46.283340" lon="11.529090">
                <time>2017-07-15T08:59:38Z</time>
            </trkpt>
            <trkpt lat="46.283380" lon="11.528870">
                <time>2017-07-15T08:59:39Z</time>
            </trkpt>
            <trkpt lat="46.283440" lon="11.528610">
                <time>2017-07-15T08:59:40Z</time>
            </trkpt>
            <trkpt lat="46.283500" lon="11.528390">
                <time>2017-07-15T08:59:41Z</time>
            </trkpt>
            <trkpt lat="46.283570" lon="11.528160">
                <time>2017-07-15T08:59:42Z</time>
            </trkpt>
            <trkpt lat="46.283660" lon="11.527910">
                <time>2017-07-15T08:59:43Z</time>
            </trkpt>
            <trkpt lat="46.283740" lon="11.527700">
                <time>2017-07-15T08:59:44Z</time>
            </trkpt>
            <trkpt lat="46.283840" lon="11.527480">
                <time>2017-07-15T08:59:45Z</time>
            </trkpt>
            <trkpt lat="46.283930" lon="11.527270">
                <time>2017-07-15T08:59:46Z</time>
            </trkpt>
            <trkpt lat="46.284020" lon="11.527070">
                <time>2017-07-15T08:59:47Z</time>
            </trkpt>
            <trkpt lat="46.284100" lon="11.526860">
                <time>2017-07-15T08:59:48Z</time>
            </trkpt>
            <trkpt lat="46.284180" lon="11.526680">
                <time>2017-07-15T08:59:49Z</time>
            </trkpt>
            <trkpt lat="46.284240" lon="11.526490">
                <time>2017-07-15T08:59:50Z</time>
            </trkpt>
            <trkpt lat="46.284310" lon="11.526290">
                <time>2017-07-15T08:59:51Z</time>
            </trkpt>
            <trkpt lat="46.284370" lon="11.526130">
                <time>2017-07-15T08:59:52Z</time>
            </trkpt>
            <trkpt lat="46.284430" lon="11.525950">
                <time>2017-07-15T08:59:53Z</time>
            </trkpt>
            <trkpt lat="46.284490" lon="11.525780">
                <time>2017-07-15T08:59:54Z</time>
            </trkpt>
            <trkpt lat="46.284540" lon="11.525650">
                <time>2017-07-15T08:59:55Z</time>
            </trkpt>
            <trkpt lat="46.284580" lon="11.525510">
                <time>2017-07-15T08:59:56Z</time>
            </trkpt>
            <trkpt lat="46.284620" lon="11.525410">
                <time>2017-07-15T08:59:57Z</time>
            </trkpt>
            <trkpt lat="46.284650" lon="11.525310">
                <time>2017-07-15T08:59:58Z</time>
            </trkpt>
            <trkpt lat="46.284680" lon="11.525210">
                <time>2017-07-15T08:59:59Z</time>
            </trkpt>
            <trkpt lat="46.284700" lon="11.525140">
                <time>2017-07-15T09:00:00Z</time>
            </trkpt>
            <trkpt lat="46.284730" lon="11.525070">
                <time>2017-07-15T09:00:01Z</time>
            </trkpt>
            <trkpt lat="46.284750" lon="11.525010">
                <time>2017-07-15T09:00:02Z</time>
            </trkpt>
            <trkpt lat="46.284770" lon="11.524950">
                <time>2017-07-15T09:00:03Z</time>
            </trkpt>
            <trkpt lat="46.284790" lon="11.524920">
                <time>2017-07-15T09:00:04Z</time>
            </trkpt>
            <trkpt lat="46.284810" lon="11.524880">
                <time>2017-07-15T09:00:05Z</time>
            </trkpt>
            <trkpt lat="46.284820" lon="11.524840">
                <time>2017-07-15T09:00:06Z</time>
            </trkpt>
            <trkpt lat="46.284830" lon="11.524800">
                <time>2017-07-15T09:00:07Z</time>
            </trkpt>
            <trkpt lat="46.284840" lon="11.524760">
                <time>2017-07-15T09:00:08Z</time>
            </trkpt>
            <trkpt lat="46.284860" lon="11.524720">
                <time>2017-07-15T09:00:09Z</time>
            </trkpt>
            <trkpt lat="46.284870" lon="11.524680">
                <time>2017-07-15T09:00:10Z</time>
            </trkpt>
            <trkpt lat="46.284890" lon="11.524630">
                <time>2017-07-15T09:00:11Z</time>
            </trkpt>
            <trkpt lat="46.284910" lon="11.524550">
                <time>2017-07-15T09:00:12Z</time>
            </trkpt>
            <trkpt lat="46.284930" lon="11.524480">
                <time>2017-07-15T09:00:13Z</time>
            </trkpt>
            <trkpt lat="46.284950" lon="11.524390">
                <time>2017-07-15T09:00:14Z</time>
            </trkpt>
            <trkpt lat="46.284970" lon="11.524280">
                <time>2017-07-15T09:00:15Z</time>
            </trkpt>
            <trkpt lat="46.284990" lon="11.524190">
                <time>2017-07-15T09:00:16Z</time>
            </trkpt>
            <trkpt lat="46.285010" lon="11.524100">
                <time>2017-07-15T09:00:17Z</time>
            </trkpt>
            <trkpt lat="46.285030" lon="11.524030">
                <time>2017-07-15T09:00:18Z</time>
            </trkpt>
            <trkpt lat="46.285040" lon="11.523980">
                <time>2017-07-15T09:00:19Z</time>
            </trkpt>
            <trkpt lat="46.285070" lon="11.523940">
                <time>2017-07-15T09:00:20Z</time>
            </trkpt>
            <trkpt lat="46.285100" lon="11.523900">
                <time>2017-07-15T09:00:21Z</time>
            </trkpt>
            <trkpt lat="46.285150" lon="11.523840">
                <time>2017-07-15T09:00:22Z</time>
            </trkpt>
            <trkpt lat="46.285190" lon="11.523770">
                <time>2017-07-15T09:00:23Z</time>
            </trkpt>
            <trkpt lat="46.285220" lon="11.523690">
                <time>2017-07-15T09:00:24Z</time>
            </trkpt>
            <trkpt lat="46.285220" lon="11.523600">
                <time>2017-07-15T09:00:25Z</time>
            </trkpt>
            <trkpt lat="46.285200" lon="11.523480">
                <time>2017-07-15T09:00:26Z</time>
            </trkpt>
            <trkpt lat="46.285170" lon="11.523370">
                <time>2017-07-15T09:00:27Z</time>
            </trkpt>
            <trkpt lat="46.285160" lon="11.523240">
                <time>2017-07-15T09:00:28Z</time>
            </trkpt>
            <trkpt lat="46.285160" lon="11.523100">
                <time>2017-07-15T09:00:29Z</time>
            </trkpt>
            <trkpt lat="46.285170" lon="11.522940">
                <time>2017-07-15T09:00:30Z</time>
            </trkpt>
            <trkpt lat="46.285180" lon="11.522750">
                <time>2017-07-15T09:00:31Z</time>
            </trkpt>
            <trkpt lat="46.285190" lon="11.522580">
                <time>2017-07-15T09:00:32Z</time>
            </trkpt>
            <trkpt lat="46.285190" lon="11.522380">
                <time>2017-07-15T09:00:33Z</time>
            </trkpt>
            <trkpt lat="46.285190" lon="11.522170">
                <time>2017-07-15T09:00:34Z</time>
            </trkpt>
            <trkpt lat="46.285180" lon="11.521960">
                <time>2017-07-15T09:00:35Z</time>
            </trkpt>
            <trkpt lat="46.285160" lon="11.521720">
                <time>2017-07-15T09:00:36Z</time>
            </trkpt>
            <trkpt lat="46.285140" lon="11.521500">
                <time>2017-07-15T09:00:37Z</time>
            </trkpt>
            <trkpt lat="46.285110" lon="11.521250">
                <time>2017-07-15T09:00:38Z</time>
            </trkpt>
            <trkpt lat="46.285080" lon="11.520980">
                <time>2017-07-15T09:00:39Z</time>
            </trkpt>
            <trkpt lat="46.285050" lon="11.520730">
                <time>2017-07-15T09:00:40Z</time>
            </trkpt>
            <trkpt lat="46.285030" lon="11.520460">
                <time>2017-07-15T09:00:41Z</time>
            </trkpt>
            <trkpt lat="46.285000" lon="11.520180">
                <time>2017-07-15T09:00:42Z</time>
            </trkpt>
            <trkpt lat="46.284970" lon="11.519940">
                <time>2017-07-15T09:00:43Z</time>
            </trkpt>
            <trkpt lat="46.284950" lon="11.519670">
                <time>2017-07-15T09:00:44Z</time>
            </trkpt>
            <trkpt lat="46.284930" lon="11.519440">
                <time>2017-07-15T09:00:45Z</time>
            </trkpt>
            <trkpt lat="46.284910" lon="11.519200">
                <time>2017-07-15T09:00:46Z</time>
            </trkpt>
            <trkpt lat="46.284880" lon="11.518930">
                <time>2017-07-15T09:00:47Z</time>
            </trkpt>
            <trkpt lat="46.284860" lon="11.518700">
                <time>2017-07-15T09:00:48Z</time>
            </trkpt>
            <trkpt lat="46.284830" lon="11.518440">
                <time>2017-07-15T09:00:49Z</time>
            </trkpt>
            <trkpt lat="46.284810" lon="11.518180">
                <time>2017-07-15T09:00:50Z</time>
            </trkpt>
            <trkpt lat="46.284780" lon="11.517910">
                <time>2017-07-15T09:00:51Z</time>
            </trkpt>
            <trkpt lat="46.284760" lon="11.517640">
                <time>2017-07-15T09:00:52Z</time>
            </trkpt>
            <trkpt lat="46.284730" lon="11.517390">
                <time>2017-07-15T09:00:53Z</time>
            </trkpt>
            <trkpt lat="46.284710" lon="11.517120">
                <time>2017-07-15T09:00:54Z</time>
            </trkpt>
            <trkpt lat="46.284680" lon="11.516840">
                <time>2017-07-15T09:00:55Z</time>
            </trkpt>
            <trkpt lat="46.284660" lon="11.516590">
                <time>2017-07-15T09:00:56Z</time>
            </trkpt>
            <trkpt lat="46.284640" lon="11.516330">
                <time>2017-07-15T09:00:57Z</time>
            </trkpt>
            <trkpt lat="46.284630" lon="11.516050">
                <time>2017-07-15T09:00:58Z</time>
            </trkpt>
            <trkpt lat="46.284610" lon="11.515810">
                <time>2017-07-15T09:00:59Z</time>
            </trkpt>
            <trkpt lat="46.284590" lon="11.515530">
                <time>2017-07-15T09:01:00Z</time>
            </trkpt>
            <trkpt lat="46.284570" lon="11.515290">
                <time>2017-07-15T09:01:01Z</time>
            </trkpt>
            <trkpt lat="46.284550" lon="11.515040">
                <time>2017-07-15T09:01:02Z</time>
            </trkpt>
            <trkpt lat="46.284530" lon="11.514770">
                <time>2017-07-15T09:01:03Z</time>
            </trkpt>
            <trkpt lat="46.284510" lon="11.514540">
                <time>2017-07-15T09:01:04Z</time>
            </trkpt>
            <trkpt lat="46.284480" lon="11.514300">
                <time>2017-07-15T09:01:05Z</time>
            </trkpt>
            <trkpt lat="46.284450" lon="11.514050">
                <time>2017-07-15T09:01:06Z</time>
            </trkpt>
            <trkpt lat="46.284410" lon="11.513790">
                <time>2017-07-15T09:01:07Z</time>
            </trkpt>
            <trkpt lat="46.284380" lon="11.513520">
                <time>2017-07-15T09:01:08Z</time>
            </trkpt>
            <trkpt lat="46.284360" lon="11.513270">
                <time>2017-07-15T09:01:09Z</time>
            </trkpt>
            <trkpt lat="46.284330" lon="11.513010">
                <time>2017-07-15T09:01:10Z</time>
            </trkpt>
            <trkpt lat="46.284300" lon="11.512720">
                <time>2017-07-15T09:01:11Z</time>
            </trkpt>
            <trkpt lat="46.284280" lon="11.512460">
                <time>2017-07-15T09:01:12Z</time>
            </trkpt>
            <trkpt lat="46.284250" lon="11.512180">
                <time>2017-07-15T09:01:13Z</time>
            </trkpt>
            <trkpt lat="46.284230" lon="11.511890">
                <time>2017-07-15T09:01:14Z</time>
            </trkpt>
            <trkpt lat="46.284220" lon="11.511620">
                <time>2017-07-15T09:01:15Z</time>
            </trkpt>
            <trkpt lat="46.284220" lon="11.511310">
                <time>2017-07-15T09:01:16Z</time>
            </trkpt>
            <trkpt lat="46.284230" lon="11.511040">
                <time>2017-07-15T09:01:17Z</time>
            </trkpt>
            <trkpt lat="46.284250" lon="11.510740">
                <time>2017-07-15T09:01:18Z</time>
            </trkpt>
            <trkpt lat="46.284270" lon="11.510420">
                <time>2017-07-15T09:01:19Z</time>
            </trkpt>
            <trkpt lat="46.284290" lon="11.510150">
                <time>2017-07-15T09:01:20Z</time>
            </trkpt>
            <trkpt lat="46.284310" lon="11.509850">
                <time>2017-07-15T09:01:21Z</time>
            </trkpt>
            <trkpt lat="46.284340" lon="11.509550">
                <time>2017-07-15T09:01:22Z</time>
            </trkpt>
            <trkpt lat="46.284360" lon="11.509260">
                <time>2017-07-15T09:01:23Z</time>
            </trkpt>
            <trkpt lat="46.284390" lon="11.508950">
                <time>2017-07-15T09:01:24Z</time>
            </trkpt>
            <trkpt lat="46.284440" lon="11.508690">
                <time>2017-07-15T09:01:25Z</time>
            </trkpt>
            <trkpt lat="46.284490" lon="11.508420">
                <time>2017-07-15T09:01:26Z</time>
            </trkpt>
            <trkpt lat="46.284570" lon="11.508130">
                <time>2017-07-15T09:01:27Z</time>
            </trkpt>
            <trkpt lat="46.284650" lon="11.507890">
                <time>2017-07-15T09:01:28Z</time>
            </trkpt>
            <trkpt lat="46.284750" lon="11.507630">
                <time>2017-07-15T09:01:29Z</time>
            </trkpt>
            <trkpt lat="46.284880" lon="11.507370">
                <time>2017-07-15T09:01:30Z</time>
            </trkpt>
            <trkpt lat="46.285010" lon="11.507160">
                <time>2017-07-15T09:01:31Z</time>
            </trkpt>
            <trkpt lat="46.285160" lon="11.506930">
                <time>2017-07-15T09:01:32Z</time>
            </trkpt>
            <trkpt lat="46.285290" lon="11.506740">
                <time>2017-07-15T09:01:33Z</time>
            </trkpt>
            <trkpt lat="46.285430" lon="11.506530">
                <time>2017-07-15T09:01:34Z</time>
            </trkpt>
            <trkpt lat="46.285580" lon="11.506310">
                <time>2017-07-15T09:01:35Z</time>
            </trkpt>
            <trkpt lat="46.285710" lon="11.506120">
                <time>2017-07-15T09:01:36Z</time>
            </trkpt>
            <trkpt lat="46.285840" lon="11.505900">
                <time>2017-07-15T09:01:37Z</time>
            </trkpt>
            <trkpt lat="46.285970" lon="11.505690">
                <time>2017-07-15T09:01:38Z</time>
            </trkpt>
            <trkpt lat="46.286080" lon="11.505460">
                <time>2017-07-15T09:01:39Z</time>
            </trkpt>
            <trkpt lat="46.286200" lon="11.505210">
                <time>2017-07-15T09:01:40Z</time>
            </trkpt>
            <trkpt lat="46.286300" lon="11.504970">
                <time>2017-07-15T09:01:41Z</time>
            </trkpt>
            <trkpt lat="46.286400" lon="11.504720">
                <time>2017-07-15T09:01:42Z</time>
            </trkpt>
            <trkpt lat="46.286490" lon="11.504440">
                <time>2017-07-15T09:01:43Z</time>
            </trkpt>
            <trkpt lat="46.286570" lon="11.504190">
                <time>2017-07-15T09:01:44Z</time>
            </trkpt>
            <trkpt lat="46.286640" lon="11.503920">
                <time>2017-07-15T09:01:45Z</time>
            </trkpt>
            <trkpt lat="46.286710" lon="11.503640">
                <time>2017-07-15T09:01:46Z</time>
            </trkpt>
            <trkpt lat="46.286760" lon="11.503380">
                <time>2017-07-15T09:01:47Z</time>
            </trkpt>
            <trkpt lat="46.286810" lon="11.503080">
                <time>2017-07-15T09:01:48Z</time>
            </trkpt>
            <trkpt lat="46.286840" lon="11.502810">
                <time>2017-07-15T09:01:49Z</time>
            </trkpt>
            <trkpt lat="46.286870" lon="11.502530">
                <time>2017-07-15T09:01:50Z</time>
            </trkpt>
            <trkpt lat="46.286890" lon="11.502220">
                <time>2017-07-15T09:01:51Z</time>
            </trkpt>
            <trkpt lat="46.286890" lon="11.501940">
                <time>2017-07-15T09:01:52Z</time>
            </trkpt>
            <trkpt lat="46.286890" lon="11.501660">
                <time>2017-07-15T09:01:53Z</time>
            </trkpt>
            <trkpt lat="46.286880" lon="11.501380">
                <time>2017-07-15T09:01:54Z</time>
            </trkpt>
            <trkpt lat="46.286860" lon="11.501100">
                <time>2017-07-15T09:01:55Z</time>
            </trkpt>
            <trkpt lat="46.286830" lon="11.500800">
                <time>2017-07-15T09:01:56Z</time>
            </trkpt>
            <trkpt lat="46.286800" lon="11.500550">
                <time>2017-07-15T09:01:57Z</time>
            </trkpt>
            <trkpt lat="46.286760" lon="11.500270">
                <time>2017-07-15T09:01:58Z</time>
            </trkpt>
            <trkpt lat="46.286710" lon="11.499990">
                <time>2017-07-15T09:01:59Z</time>
            </trkpt>
            <trkpt lat="46.286660" lon="11.499750">
                <time>2017-07-15T09:02:00Z</time>
            </trkpt>
            <trkpt lat="46.286610" lon="11.499490">
                <time>2017-07-15T09:02:01Z</time>
            </trkpt>
            <trkpt lat="46.286560" lon="11.499220">
                <time>2017-07-15T09:02:02Z</time>
            </trkpt>
            <trkpt lat="46.286520" lon="11.498990">
                <time>2017-07-15T09:02:03Z</time>
            </trkpt>
            <trkpt lat="46.286460" lon="11.498710">
                <time>2017-07-15T09:02:04Z</time>
            </trkpt>
            <trkpt lat="46.286420" lon="11.498470">
                <time>2017-07-15T09:02:05Z</time>
            </trkpt>
            <trkpt lat="46.286370" lon="11.498220">
                <time>2017-07-15T09:02:06Z</time>
            </trkpt>
            <trkpt lat="46.286330" lon="11.497970">
                <time>2017-07-15T09:02:07Z</time>
            </trkpt>
            <trkpt lat="46.286290" lon="11.497750">
                <time>2017-07-15T09:02:08Z</time>
            </trkpt>
            <trkpt lat="46.286250" lon="11.497540">
                <time>2017-07-15T09:02:09Z</time>
            </trkpt>
            <trkpt lat="46.286220" lon="11.497320">
                <time>2017-07-15T09:02:10Z</time>
            </trkpt>
            <trkpt lat="46.286190" lon="11.497100">
                <time>2017-07-15T09:02:11Z</time>
            </trkpt>
            <trkpt lat="46.286160" lon="11.496880">
                <time>2017-07-15T09:02:12Z</time>
            </trkpt>
            <trkpt lat="46.286130" lon="11.496680">
                <time>2017-07-15T09:02:13Z</time>
            </trkpt>
            <trkpt lat="46.286110" lon="11.496470">
                <time>2017-07-15T09:02:14Z</time>
            </trkpt>
            <trkpt lat="46.286090" lon="11.496260">
                <time>2017-07-15T09:02:15Z</time>
            </trkpt>
            <trkpt lat="46.286070" lon="11.496070">
                <time>2017-07-15T09:02:16Z</time>
            </trkpt>
            <trkpt lat="46.286060" lon="11.495870">
                <time>2017-07-15T09:02:17Z</time>
            </trkpt>
            <trkpt lat="46.286040" lon="11.495660">
                <time>2017-07-15T09:02:18Z</time>
            </trkpt>
            <trkpt lat="46.286020" lon="11.495470">
                <time>2017-07-15T09:02:19Z</time>
            </trkpt>
            <trkpt lat="46.286010" lon="11.495250">
                <time>2017-07-15T09:02:20Z</time>
            </trkpt>
            <trkpt lat="46.286000" lon="11.495040">
                <time>2017-07-15T09:02:21Z</time>
            </trkpt>
            <trkpt lat="46.285990" lon="11.494810">
                <time>2017-07-15T09:02:22Z</time>
            </trkpt>
            <trkpt lat="46.285980" lon="11.494560">
                <time>2017-07-15T09:02:23Z</time>
            </trkpt>
            <trkpt lat="46.285970" lon="11.494340">
                <time>2017-07-15T09:02:24Z</time>
            </trkpt>
            <trkpt lat="46.285970" lon="11.494100">
                <time>2017-07-15T09:02:25Z</time>
            </trkpt>
            <trkpt lat="46.285960" lon="11.493870">
                <time>2017-07-15T09:02:26Z</time>
            </trkpt>
            <trkpt lat="46.285970" lon="11.493640">
                <time>2017-07-15T09:02:27Z</time>
            </trkpt>
            <trkpt lat="46.285980" lon="11.493380">
                <time>2017-07-15T09:02:28Z</time>
            </trkpt>
            <trkpt lat="46.286080" lon="11.491590">
                <time>2017-07-15T09:02:35Z</time>
            </trkpt>
            <trkpt lat="46.286130" lon="11.491350">
                <time>2017-07-15T09:02:36Z</time>
            </trkpt>
            <trkpt lat="46.286160" lon="11.491130">
                <time>2017-07-15T09:02:37Z</time>
            </trkpt>
            <trkpt lat="46.286180" lon="11.490890">
                <time>2017-07-15T09:02:38Z</time>
            </trkpt>
            <trkpt lat="46.286210" lon="11.490620">
                <time>2017-07-15T09:02:39Z</time>
            </trkpt>
            <trkpt lat="46.286250" lon="11.490380">
                <time>2017-07-15T09:02:40Z</time>
            </trkpt>
            <trkpt lat="46.286280" lon="11.490120">
                <time>2017-07-15T09:02:41Z</time>
            </trkpt>
            <trkpt lat="46.286310" lon="11.489850">
                <time>2017-07-15T09:02:42Z</time>
            </trkpt>
            <trkpt lat="46.286340" lon="11.489580">
                <time>2017-07-15T09:02:43Z</time>
            </trkpt>
            <trkpt lat="46.286370" lon="11.489290">
                <time>2017-07-15T09:02:44Z</time>
            </trkpt>
            <trkpt lat="46.286400" lon="11.489030">
                <time>2017-07-15T09:02:45Z</time>
            </trkpt>
            <trkpt lat="46.286420" lon="11.488750">
                <time>2017-07-15T09:02:46Z</time>
            </trkpt>
            <trkpt lat="46.286430" lon="11.488430">
                <time>2017-07-15T09:02:47Z</time>
            </trkpt>
            <trkpt lat="46.286440" lon="11.488150">
                <time>2017-07-15T09:02:48Z</time>
            </trkpt>
            <trkpt lat="46.286450" lon="11.487860">
                <time>2017-07-15T09:02:49Z</time>
            </trkpt>
            <trkpt lat="46.286440" lon="11.487550">
                <time>2017-07-15T09:02:50Z</time>
            </trkpt>
            <trkpt lat="46.286430" lon="11.487290">
                <time>2017-07-15T09:02:51Z</time>
            </trkpt>
            <trkpt lat="46.286420" lon="11.487000">
                <time>2017-07-15T09:02:52Z</time>
            </trkpt>
            <trkpt lat="46.286400" lon="11.486740">
                <time>2017-07-15T09:02:53Z</time>
            </trkpt>
            <trkpt lat="46.286370" lon="11.486470">
                <time>2017-07-15T09:02:54Z</time>
            </trkpt>
            <trkpt lat="46.286340" lon="11.486170">
                <time>2017-07-15T09:02:55Z</time>
            </trkpt>
            <trkpt lat="46.286310" lon="11.485900">
                <time>2017-07-15T09:02:56Z</time>
            </trkpt>
            <trkpt lat="46.286280" lon="11.485610">
                <time>2017-07-15T09:02:57Z</time>
            </trkpt>
            <trkpt lat="46.286250" lon="11.485330">
                <time>2017-07-15T09:02:58Z</time>
            </trkpt>
            <trkpt lat="46.286220" lon="11.485040">
                <time>2017-07-15T09:02:59Z</time>
            </trkpt>
            <trkpt lat="46.286180" lon="11.484750">
                <time>2017-07-15T09:03:00Z</time>
            </trkpt>
            <trkpt lat="46.286150" lon="11.484490">
                <time>2017-07-15T09:03:01Z</time>
            </trkpt>
            <trkpt lat="46.286120" lon="11.484230">
                <time>2017-07-15T09:03:02Z</time>
            </trkpt>
            <trkpt lat="46.286090" lon="11.483950">
                <time>2017-07-15T09:03:03Z</time>
            </trkpt>
            <trkpt lat="46.286060" lon="11.483710">
                <time>2017-07-15T09:03:04Z</time>
            </trkpt>
            <trkpt lat="46.286020" lon="11.483450">
                <time>2017-07-15T09:03:05Z</time>
            </trkpt>
            <trkpt lat="46.285990" lon="11.483190">
                <time>2017-07-15T09:03:06Z</time>
            </trkpt>
            <trkpt lat="46.285970" lon="11.482960">
                <time>2017-07-15T09:03:07Z</time>
            </trkpt>
            <trkpt lat="46.285940" lon="11.482700">
                <time>2017-07-15T09:03:08Z</time>
            </trkpt>
            <trkpt lat="46.285910" lon="11.482450">
                <time>2017-07-15T09:03:09Z</time>
            </trkpt>
            <trkpt lat="46.285880" lon="11.482190">
                <time>2017-07-15T09:03:10Z</time>
            </trkpt>
            <trkpt lat="46.285840" lon="11.481910">
                <time>2017-07-15T09:03:11Z</time>
            </trkpt>
            <trkpt lat="46.285810" lon="11.481660">
                <time>2017-07-15T09:03:12Z</time>
            </trkpt>
            <trkpt lat="46.285790" lon="11.481430">
                <time>2017-07-15T09:03:13Z</time>
            </trkpt>
            <trkpt lat="46.285760" lon="11.481240">
                <time>2017-07-15T09:03:14Z</time>
            </trkpt>
            <trkpt lat="46.285740" lon="11.481070">
                <time>2017-07-15T09:03:15Z</time>
            </trkpt>
            <trkpt lat="46.285720" lon="11.480900">
                <time>2017-07-15T09:03:16Z</time>
            </trkpt>
            <trkpt lat="46.285710" lon="11.480760">
                <time>2017-07-15T09:03:17Z</time>
            </trkpt>
            <trkpt lat="46.285690" lon="11.480600">
                <time>2017-07-15T09:03:18Z</time>
            </trkpt>
            <trkpt lat="46.285660" lon="11.480430">
                <time>2017-07-15T09:03:19Z</time>
            </trkpt>
            <trkpt lat="46.285640" lon="11.480270">
                <time>2017-07-15T09:03:20Z</time>
            </trkpt>
            <trkpt lat="46.285620" lon="11.480080">
                <time>2017-07-15T09:03:21Z</time>
            </trkpt>
            <trkpt lat="46.285590" lon="11.479880">
                <time>2017-07-15T09:03:22Z</time>
            </trkpt>
            <trkpt lat="46.285560" lon="11.479710">
                <time>2017-07-15T09:03:23Z</time>
            </trkpt>
            <trkpt lat="46.285520" lon="11.479520">
                <time>2017-07-15T09:03:24Z</time>
            </trkpt>
            <trkpt lat="46.285490" lon="11.479360">
                <time>2017-07-15T09:03:25Z</time>
            </trkpt>
            <trkpt lat="46.285460" lon="11.479180">
                <time>2017-07-15T09:03:26Z</time>
            </trkpt>
            <trkpt lat="46.285430" lon="11.478970">
                <time>2017-07-15T09:03:27Z</time>
            </trkpt>
            <trkpt lat="46.285400" lon="11.478790">
                <time>2017-07-15T09:03:28Z</time>
            </trkpt>
            <trkpt lat="46.285370" lon="11.478580">
                <time>2017-07-15T09:03:29Z</time>
            </trkpt>
            <trkpt lat="46.285340" lon="11.478360">
                <time>2017-07-15T09:03:30Z</time>
            </trkpt>
            <trkpt lat="46.285300" lon="11.478140">
                <time>2017-07-15T09:03:31Z</time>
            </trkpt>
            <trkpt lat="46.285260" lon="11.477900">
                <time>2017-07-15T09:03:32Z</time>
            </trkpt>
            <trkpt lat="46.285220" lon="11.477690">
                <time>2017-07-15T09:03:33Z</time>
            </trkpt>
            <trkpt lat="46.285180" lon="11.477460">
                <time>2017-07-15T09:03:34Z</time>
            </trkpt>
            <trkpt lat="46.285140" lon="11.477230">
                <time>2017-07-15T09:03:35Z</time>
            </trkpt>
            <trkpt lat="46.285110" lon="11.477010">
                <time>2017-07-15T09:03:36Z</time>
            </trkpt>
            <trkpt lat="46.285070" lon="11.476780">
                <time>2017-07-15T09:03:37Z</time>
            </trkpt>
            <trkpt lat="46.285030" lon="11.476540">
                <time>2017-07-15T09:03:38Z</time>
            </trkpt>
            <trkpt lat="46.284990" lon="11.476320">
                <time>2017-07-15T09:03:39Z</time>
            </trkpt>
            <trkpt lat="46.284950" lon="11.476070">
                <time>2017-07-15T09:03:40Z</time>
            </trkpt>
            <trkpt lat="46.284910" lon="11.475850">
                <time>2017-07-15T09:03:41Z</time>
            </trkpt>
            <trkpt lat="46.284870" lon="11.475620">
                <time>2017-07-15T09:03:42Z</time>
            </trkpt>
            <trkpt lat="46.284840" lon="11.475370">
                <time>2017-07-15T09:03:43Z</time>
            </trkpt>
            <trkpt lat="46.284800" lon="11.475150">
                <time>2017-07-15T09:03:44Z</time>
            </trkpt>
            <trkpt lat="46.284770" lon="11.474920">
                <time>2017-07-15T09:03:45Z</time>
            </trkpt>
            <trkpt lat="46.284760" lon="11.474700">
                <time>2017-07-15T09:03:46Z</time>
            </trkpt>
            <trkpt lat="46.284760" lon="11.474480">
                <time>2017-07-15T09:03:47Z</time>
            </trkpt>
            <trkpt lat="46.284770" lon="11.474240">
                <time>2017-07-15T09:03:48Z</time>
            </trkpt>
            <trkpt lat="46.284780" lon="11.474030">
                <time>2017-07-15T09:03:49Z</time>
            </trkpt>
            <trkpt lat="46.284800" lon="11.473800">
                <time>2017-07-15T09:03:50Z</time>
            </trkpt>
            <trkpt lat="46.284820" lon="11.473560">
                <time>2017-07-15T09:03:51Z</time>
            </trkpt>
            <trkpt lat="46.284830" lon="11.473350">
                <time>2017-07-15T09:03:52Z</time>
            </trkpt>
            <trkpt lat="46.284840" lon="11.473120">
                <time>2017-07-15T09:03:53Z</time>
            </trkpt>
            <trkpt lat="46.284860" lon="11.472890">
                <time>2017-07-15T09:03:54Z</time>
            </trkpt>
            <trkpt lat="46.284870" lon="11.472690">
                <time>2017-07-15T09:03:55Z</time>
            </trkpt>
            <trkpt lat="46.284890" lon="11.472470">
                <time>2017-07-15T09:03:56Z</time>
            </trkpt>
            <trkpt lat="46.284900" lon="11.472280">
                <time>2017-07-15T09:03:57Z</time>
            </trkpt>
            <trkpt lat="46.284920" lon="11.472070">
                <time>2017-07-15T09:03:58Z</time>
            </trkpt>
            <trkpt lat="46.284940" lon="11.471840">
                <time>2017-07-15T09:03:59Z</time>
            </trkpt>
            <trkpt lat="46.284950" lon="11.471640">
                <time>2017-07-15T09:04:00Z</time>
            </trkpt>
            <trkpt lat="46.284970" lon="11.471440">
                <time>2017-07-15T09:04:01Z</time>
            </trkpt>
            <trkpt lat="46.284980" lon="11.471230">
                <time>2017-07-15T09:04:02Z</time>
            </trkpt>
            <trkpt lat="46.284990" lon="11.471020">
                <time>2017-07-15T09:04:03Z</time>
            </trkpt>
            <trkpt lat="46.285010" lon="11.470810">
                <time>2017-07-15T09:04:04Z</time>
            </trkpt>
            <trkpt lat="46.285020" lon="11.470610">
                <time>2017-07-15T09:04:05Z</time>
            </trkpt>
            <trkpt lat="46.285040" lon="11.470410">
                <time>2017-07-15T09:04:06Z</time>
            </trkpt>
            <trkpt lat="46.285050" lon="11.470180">
                <time>2017-07-15T09:04:07Z</time>
            </trkpt>
            <trkpt lat="46.285050" lon="11.469990">
                <time>2017-07-15T09:04:08Z</time>
            </trkpt>
            <trkpt lat="46.285060" lon="11.469780">
                <time>2017-07-15T09:04:09Z</time>
            </trkpt>
            <trkpt lat="46.285040" lon="11.469560">
                <time>2017-07-15T09:04:10Z</time>
            </trkpt>
            <trkpt lat="46.285030" lon="11.469370">
                <time>2017-07-15T09:04:11Z</time>
            </trkpt>
            <trkpt lat="46.285000" lon="11.469150">
                <time>2017-07-15T09:04:12Z</time>
            </trkpt>
            <trkpt lat="46.284970" lon="11.468950">
                <time>2017-07-15T09:04:13Z</time>
            </trkpt>
            <trkpt lat="46.284940" lon="11.468750">
                <time>2017-07-15T09:04:14Z</time>
            </trkpt>
            <trkpt lat="46.284900" lon="11.468530">
                <time>2017-07-15T09:04:15Z</time>
            </trkpt>
            <trkpt lat="46.284850" lon="11.468340">
                <time>2017-07-15T09:04:16Z</time>
            </trkpt>
            <trkpt lat="46.284800" lon="11.468130">
                <time>2017-07-15T09:04:17Z</time>
            </trkpt>
            <trkpt lat="46.284730" lon="11.467940">
                <time>2017-07-15T09:04:18Z</time>
            </trkpt>
            <trkpt lat="46.284660" lon="11.467750">
                <time>2017-07-15T09:04:19Z</time>
            </trkpt>
            <trkpt lat="46.284590" lon="11.467550">
                <time>2017-07-15T09:04:20Z</time>
            </trkpt>
            <trkpt lat="46.284530" lon="11.467370">
                <time>2017-07-15T09:04:21Z</time>
            </trkpt>
            <trkpt lat="46.284470" lon="11.467190">
                <time>2017-07-15T09:04:22Z</time>
            </trkpt>
            <trkpt lat="46.284410" lon="11.466990">
                <time>2017-07-15T09:04:23Z</time>
            </trkpt>
            <trkpt lat="46.284340" lon="11.466810">
                <time>2017-07-15T09:04:24Z</time>
            </trkpt>
            <trkpt lat="46.284280" lon="11.466620">
                <time>2017-07-15T09:04:25Z</time>
            </trkpt>
            <trkpt lat="46.284210" lon="11.466410">
                <time>2017-07-15T09:04:26Z</time>
            </trkpt>
            <trkpt lat="46.284150" lon="11.466230">
                <time>2017-07-15T09:04:27Z</time>
            </trkpt>
            <trkpt lat="46.284080" lon="11.466010">
                <time>2017-07-15T09:04:28Z</time>
            </trkpt>
            <trkpt lat="46.284010" lon="11.465820">
                <time>2017-07-15T09:04:29Z</time>
            </trkpt>
            <trkpt lat="46.283940" lon="11.465600">
                <time>2017-07-15T09:04:30Z</time>
            </trkpt>
            <trkpt lat="46.283860" lon="11.465380">
                <time>2017-07-15T09:04:31Z</time>
            </trkpt>
            <trkpt lat="46.283800" lon="11.465170">
                <time>2017-07-15T09:04:32Z</time>
            </trkpt>
            <trkpt lat="46.283730" lon="11.464950">
                <time>2017-07-15T09:04:33Z</time>
            </trkpt>
            <trkpt lat="46.283650" lon="11.464730">
                <time>2017-07-15T09:04:34Z</time>
            </trkpt>
            <trkpt lat="46.283580" lon="11.464510">
                <time>2017-07-15T09:04:35Z</time>
            </trkpt>
            <trkpt lat="46.283500" lon="11.464270">
                <time>2017-07-15T09:04:36Z</time>
            </trkpt>
            <trkpt lat="46.283430" lon="11.464060">
                <time>2017-07-15T09:04:37Z</time>
            </trkpt>
            <trkpt lat="46.283360" lon="11.463840">
                <time>2017-07-15T09:04:38Z</time>
            </trkpt>
            <trkpt lat="46.283270" lon="11.463610">
                <time>2017-07-15T09:04:39Z</time>
            </trkpt>
            <trkpt lat="46.283180" lon="11.463420">
                <time>2017-07-15T09:04:40Z</time>
            </trkpt>
            <trkpt lat="46.283080" lon="11.463220">
                <time>2017-07-15T09:04:41Z</time>
            </trkpt>
            <trkpt lat="46.282970" lon="11.463020">
                <time>2017-07-15T09:04:42Z</time>
            </trkpt>
            <trkpt lat="46.282860" lon="11.462860">
                <time>2017-07-15T09:04:43Z</time>
            </trkpt>
            <trkpt lat="46.282730" lon="11.462680">
                <time>2017-07-15T09:04:44Z</time>
            </trkpt>
            <trkpt lat="46.282620" lon="11.462530">
                <time>2017-07-15T09:04:45Z</time>
            </trkpt>
            <trkpt lat="46.282490" lon="11.462370">
                <time>2017-07-15T09:04:46Z</time>
            </trkpt>
            <trkpt lat="46.282350" lon="11.462210">
                <time>2017-07-15T09:04:47Z</time>
            </trkpt>
            <trkpt lat="46.282240" lon="11.462070">
                <time>2017-07-15T09:04:48Z</time>
            </trkpt>
            <trkpt lat="46.282120" lon="11.461920">
                <time>2017-07-15T09:04:49Z</time>
            </trkpt>
            <trkpt lat="46.282000" lon="11.461770">
                <time>2017-07-15T09:04:50Z</time>
            </trkpt>
            <trkpt lat="46.281890" lon="11.461620">
                <time>2017-07-15T09:04:51Z</time>
            </trkpt>
            <trkpt lat="46.281750" lon="11.461460">
                <time>2017-07-15T09:04:52Z</time>
            </trkpt>
            <trkpt lat="46.281630" lon="11.461320">
                <time>2017-07-15T09:04:53Z</time>
            </trkpt>
            <trkpt lat="46.281510" lon="11.461170">
                <time>2017-07-15T09:04:54Z</time>
            </trkpt>
            <trkpt lat="46.281380" lon="11.461010">
                <time>2017-07-15T09:04:55Z</time>
            </trkpt>
            <trkpt lat="46.281280" lon="11.460880">
                <time>2017-07-15T09:04:56Z</time>
            </trkpt>
            <trkpt lat="46.281160" lon="11.460730">
                <time>2017-07-15T09:04:57Z</time>
            </trkpt>
            <trkpt lat="46.281050" lon="11.460580">
                <time>2017-07-15T09:04:58Z</time>
            </trkpt>
            <trkpt lat="46.280950" lon="11.460430">
                <time>2017-07-15T09:04:59Z</time>
            </trkpt>
            <trkpt lat="46.280850" lon="11.460250">
                <time>2017-07-15T09:05:00Z</time>
            </trkpt>
            <trkpt lat="46.280750" lon="11.460070">
                <time>2017-07-15T09:05:01Z</time>
            </trkpt>
            <trkpt lat="46.280660" lon="11.459860">
                <time>2017-07-15T09:05:02Z</time>
            </trkpt>
            <trkpt lat="46.280570" lon="11.459610">
                <time>2017-07-15T09:05:03Z</time>
            </trkpt>
            <trkpt lat="46.280500" lon="11.459390">
                <time>2017-07-15T09:05:04Z</time>
            </trkpt>
            <trkpt lat="46.280430" lon="11.459160">
                <time>2017-07-15T09:05:05Z</time>
            </trkpt>
            <trkpt lat="46.280380" lon="11.458920">
                <time>2017-07-15T09:05:06Z</time>
            </trkpt>
            <trkpt lat="46.280340" lon="11.458680">
                <time>2017-07-15T09:05:07Z</time>
            </trkpt>
            <trkpt lat="46.280300" lon="11.458410">
                <time>2017-07-15T09:05:08Z</time>
            </trkpt>
            <trkpt lat="46.280280" lon="11.458160">
                <time>2017-07-15T09:05:09Z</time>
            </trkpt>
            <trkpt lat="46.280270" lon="11.457890">
                <time>2017-07-15T09:05:10Z</time>
            </trkpt>
            <trkpt lat="46.280280" lon="11.457620">
                <time>2017-07-15T09:05:11Z</time>
            </trkpt>
            <trkpt lat="46.280290" lon="11.457400">
                <time>2017-07-15T09:05:12Z</time>
            </trkpt>
            <trkpt lat="46.280320" lon="11.457160">
                <time>2017-07-15T09:05:13Z</time>
            </trkpt>
            <trkpt lat="46.280340" lon="11.456920">
                <time>2017-07-15T09:05:14Z</time>
            </trkpt>
            <trkpt lat="46.280370" lon="11.456710">
                <time>2017-07-15T09:05:15Z</time>
            </trkpt>
            <trkpt lat="46.280400" lon="11.456460">
                <time>2017-07-15T09:05:16Z</time>
            </trkpt>
            <trkpt lat="46.280430" lon="11.456240">
                <time>2017-07-15T09:05:17Z</time>
            </trkpt>
            <trkpt lat="46.280450" lon="11.456010">
                <time>2017-07-15T09:05:18Z</time>
            </trkpt>
            <trkpt lat="46.280480" lon="11.455760">
                <time>2017-07-15T09:05:19Z</time>
            </trkpt>
            <trkpt lat="46.280500" lon="11.455530">
                <time>2017-07-15T09:05:20Z</time>
            </trkpt>
            <trkpt lat="46.280530" lon="11.455300">
                <time>2017-07-15T09:05:21Z</time>
            </trkpt>
            <trkpt lat="46.280550" lon="11.455070">
                <time>2017-07-15T09:05:22Z</time>
            </trkpt>
            <trkpt lat="46.280560" lon="11.454840">
                <time>2017-07-15T09:05:23Z</time>
            </trkpt>
            <trkpt lat="46.280580" lon="11.454610">
                <time>2017-07-15T09:05:24Z</time>
            </trkpt>
            <trkpt lat="46.280600" lon="11.454410">
                <time>2017-07-15T09:05:25Z</time>
            </trkpt>
            <trkpt lat="46.280620" lon="11.454210">
                <time>2017-07-15T09:05:26Z</time>
            </trkpt>
            <trkpt lat="46.280640" lon="11.454010">
                <time>2017-07-15T09:05:27Z</time>
            </trkpt>
            <trkpt lat="46.280660" lon="11.453840">
                <time>2017-07-15T09:05:28Z</time>
            </trkpt>
            <trkpt lat="46.280670" lon="11.453650">
                <time>2017-07-15T09:05:29Z</time>
            </trkpt>
            <trkpt lat="46.280680" lon="11.453450">
                <time>2017-07-15T09:05:30Z</time>
            </trkpt>
            <trkpt lat="46.280680" lon="11.453270">
                <time>2017-07-15T09:05:31Z</time>
            </trkpt>
            <trkpt lat="46.280680" lon="11.453080">
                <time>2017-07-15T09:05:32Z</time>
            </trkpt>
            <trkpt lat="46.280660" lon="11.452920">
                <time>2017-07-15T09:05:33Z</time>
            </trkpt>
            <trkpt lat="46.280640" lon="11.452770">
                <time>2017-07-15T09:05:34Z</time>
            </trkpt>
            <trkpt lat="46.280620" lon="11.452600">
                <time>2017-07-15T09:05:35Z</time>
            </trkpt>
            <trkpt lat="46.280600" lon="11.452450">
                <time>2017-07-15T09:05:36Z</time>
            </trkpt>
            <trkpt lat="46.280570" lon="11.452280">
                <time>2017-07-15T09:05:37Z</time>
            </trkpt>
            <trkpt lat="46.280540" lon="11.452120">
                <time>2017-07-15T09:05:38Z</time>
            </trkpt>
            <trkpt lat="46.280500" lon="11.451960">
                <time>2017-07-15T09:05:39Z</time>
            </trkpt>
            <trkpt lat="46.280460" lon="11.451790">
                <time>2017-07-15T09:05:40Z</time>
            </trkpt>
            <trkpt lat="46.280410" lon="11.451640">
                <time>2017-07-15T09:05:41Z</time>
            </trkpt>
            <trkpt lat="46.280370" lon="11.451470">
                <time>2017-07-15T09:05:42Z</time>
            </trkpt>
            <trkpt lat="46.280330" lon="11.451290">
                <time>2017-07-15T09:05:43Z</time>
            </trkpt>
            <trkpt lat="46.280290" lon="11.451120">
                <time>2017-07-15T09:05:44Z</time>
            </trkpt>
            <trkpt lat="46.280250" lon="11.450950">
                <time>2017-07-15T09:05:45Z</time>
            </trkpt>
            <trkpt lat="46.280210" lon="11.450770">
                <time>2017-07-15T09:05:46Z</time>
            </trkpt>
            <trkpt lat="46.280180" lon="11.450610">
                <time>2017-07-15T09:05:47Z</time>
            </trkpt>
            <trkpt lat="46.280160" lon="11.450430">
                <time>2017-07-15T09:05:48Z</time>
            </trkpt>
            <trkpt lat="46.280150" lon="11.450270">
                <time>2017-07-15T09:05:49Z</time>
            </trkpt>
            <trkpt lat="46.280140" lon="11.450100">
                <time>2017-07-15T09:05:50Z</time>
            </trkpt>
            <trkpt lat="46.280150" lon="11.449910">
                <time>2017-07-15T09:05:51Z</time>
            </trkpt>
            <trkpt lat="46.280160" lon="11.449730">
                <time>2017-07-15T09:05:52Z</time>
            </trkpt>
            <trkpt lat="46.280170" lon="11.449530">
                <time>2017-07-15T09:05:53Z</time>
            </trkpt>
            <trkpt lat="46.280190" lon="11.449330">
                <time>2017-07-15T09:05:54Z</time>
            </trkpt>
            <trkpt lat="46.280210" lon="11.449130">
                <time>2017-07-15T09:05:55Z</time>
            </trkpt>
            <trkpt lat="46.280240" lon="11.448910">
                <time>2017-07-15T09:05:56Z</time>
            </trkpt>
            <trkpt lat="46.280250" lon="11.448720">
                <time>2017-07-15T09:05:57Z</time>
            </trkpt>
            <trkpt lat="46.280270" lon="11.448520">
                <time>2017-07-15T09:05:58Z</time>
            </trkpt>
            <trkpt lat="46.280290" lon="11.448320">
                <time>2017-07-15T09:05:59Z</time>
            </trkpt>
            <trkpt lat="46.280310" lon="11.448150">
                <time>2017-07-15T09:06:00Z</time>
            </trkpt>
            <trkpt lat="46.280320" lon="11.447980">
                <time>2017-07-15T09:06:01Z</time>
            </trkpt>
            <trkpt lat="46.280330" lon="11.447790">
                <time>2017-07-15T09:06:02Z</time>
            </trkpt>
            <trkpt lat="46.280340" lon="11.447620">
                <time>2017-07-15T09:06:03Z</time>
            </trkpt>
            <trkpt lat="46.280330" lon="11.447430">
                <time>2017-07-15T09:06:04Z</time>
            </trkpt>
            <trkpt lat="46.280330" lon="11.447260">
                <time>2017-07-15T09:06:05Z</time>
            </trkpt>
            <trkpt lat="46.280320" lon="11.447090">
                <time>2017-07-15T09:06:06Z</time>
            </trkpt>
            <trkpt lat="46.280310" lon="11.446910">
                <time>2017-07-15T09:06:07Z</time>
            </trkpt>
            <trkpt lat="46.280310" lon="11.446770">
                <time>2017-07-15T09:06:08Z</time>
            </trkpt>
            <trkpt lat="46.280310" lon="11.446640">
                <time>2017-07-15T09:06:09Z</time>
            </trkpt>
            <trkpt lat="46.280310" lon="11.446540">
                <time>2017-07-15T09:06:10Z</time>
            </trkpt>
            <trkpt lat="46.280300" lon="11.446460">
                <time>2017-07-15T09:06:11Z</time>
            </trkpt>
            <trkpt lat="46.280290" lon="11.446410">
                <time>2017-07-15T09:06:12Z</time>
            </trkpt>
            <trkpt lat="46.280290" lon="11.446390">
                <time>2017-07-15T09:06:13Z</time>
            </trkpt>
            <trkpt lat="46.280280" lon="11.446380">
                <time>2017-07-15T09:06:14Z</time>
            </trkpt>
            <trkpt lat="46.280280" lon="11.446380">
                <time>2017-07-15T09:06:15Z</time>
            </trkpt>
            <trkpt lat="46.280280" lon="11.446390">
                <time>2017-07-15T09:06:16Z</time>
            </trkpt>
            <trkpt lat="46.280280" lon="11.446370">
                <time>2017-07-15T09:06:17Z</time>
            </trkpt>
            <trkpt lat="46.280270" lon="11.446340">
                <time>2017-07-15T09:06:18Z</time>
            </trkpt>
            <trkpt lat="46.280270" lon="11.446280">
                <time>2017-07-15T09:06:19Z</time>
            </trkpt>
            <trkpt lat="46.280260" lon="11.446190">
                <time>2017-07-15T09:06:20Z</time>
            </trkpt>
            <trkpt lat="46.280240" lon="11.446120">
                <time>2017-07-15T09:06:21Z</time>
            </trkpt>
            <trkpt lat="46.280220" lon="11.446050">
                <time>2017-07-15T09:06:22Z</time>
            </trkpt>
            <trkpt lat="46.280200" lon="11.445970">
                <time>2017-07-15T09:06:23Z</time>
            </trkpt>
            <trkpt lat="46.280190" lon="11.445910">
                <time>2017-07-15T09:06:24Z</time>
            </trkpt>
            <trkpt lat="46.280170" lon="11.445840">
                <time>2017-07-15T09:06:25Z</time>
            </trkpt>
            <trkpt lat="46.280160" lon="11.445760">
                <time>2017-07-15T09:06:26Z</time>
            </trkpt>
            <trkpt lat="46.280140" lon="11.445670">
                <time>2017-07-15T09:06:27Z</time>
            </trkpt>
            <trkpt lat="46.280120" lon="11.445580">
                <time>2017-07-15T09:06:28Z</time>
            </trkpt>
            <trkpt lat="46.280120" lon="11.445480">
                <time>2017-07-15T09:06:29Z</time>
            </trkpt>
            <trkpt lat="46.280130" lon="11.445360">
                <time>2017-07-15T09:06:30Z</time>
            </trkpt>
            <trkpt lat="46.280130" lon="11.445240">
                <time>2017-07-15T09:06:31Z</time>
            </trkpt>
            <trkpt lat="46.280130" lon="11.445140">
                <time>2017-07-15T09:06:32Z</time>
            </trkpt>
            <trkpt lat="46.280120" lon="11.445020">
                <time>2017-07-15T09:06:33Z</time>
            </trkpt>
            <trkpt lat="46.280110" lon="11.444880">
                <time>2017-07-15T09:06:34Z</time>
            </trkpt>
            <trkpt lat="46.280100" lon="11.444750">
                <time>2017-07-15T09:06:35Z</time>
            </trkpt>
            <trkpt lat="46.280100" lon="11.444590">
                <time>2017-07-15T09:06:36Z</time>
            </trkpt>
            <trkpt lat="46.280090" lon="11.444450">
                <time>2017-07-15T09:06:37Z</time>
            </trkpt>
            <trkpt lat="46.280070" lon="11.444290">
                <time>2017-07-15T09:06:38Z</time>
            </trkpt>
            <trkpt lat="46.280040" lon="11.444120">
                <time>2017-07-15T09:06:39Z</time>
            </trkpt>
            <trkpt lat="46.280010" lon="11.443960">
                <time>2017-07-15T09:06:40Z</time>
            </trkpt>
            <trkpt lat="46.279980" lon="11.443780">
                <time>2017-07-15T09:06:41Z</time>
            </trkpt>
            <trkpt lat="46.279940" lon="11.443590">
                <time>2017-07-15T09:06:42Z</time>
            </trkpt>
            <trkpt lat="46.279900" lon="11.443400">
                <time>2017-07-15T09:06:43Z</time>
            </trkpt>
            <trkpt lat="46.279880" lon="11.443200">
                <time>2017-07-15T09:06:44Z</time>
            </trkpt>
            <trkpt lat="46.279870" lon="11.443030">
                <time>2017-07-15T09:06:45Z</time>
            </trkpt>
            <trkpt lat="46.279860" lon="11.442850">
                <time>2017-07-15T09:06:46Z</time>
            </trkpt>
            <trkpt lat="46.278770" lon="11.439600">
                <time>2017-07-15T09:07:03Z</time>
            </trkpt>
            <trkpt lat="46.278750" lon="11.439400">
                <time>2017-07-15T09:07:04Z</time>
            </trkpt>
            <trkpt lat="46.278680" lon="11.439220">
                <time>2017-07-15T09:07:05Z</time>
            </trkpt>
            <trkpt lat="46.278630" lon="11.439010">
                <time>2017-07-15T09:07:06Z</time>
            </trkpt>
            <trkpt lat="46.278570" lon="11.438830">
                <time>2017-07-15T09:07:07Z</time>
            </trkpt>
            <trkpt lat="46.277750" lon="11.435120">
                <time>2017-07-15T09:07:24Z</time>
            </trkpt>
            <trkpt lat="46.277720" lon="11.434910">
                <time>2017-07-15T09:07:25Z</time>
            </trkpt>
            <trkpt lat="46.277700" lon="11.434690">
                <time>2017-07-15T09:07:26Z</time>
            </trkpt>
            <trkpt lat="46.277680" lon="11.431950">
                <time>2017-07-15T09:07:37Z</time>
            </trkpt>
            <trkpt lat="46.277640" lon="11.431680">
                <time>2017-07-15T09:07:38Z</time>
            </trkpt>
            <trkpt lat="46.277590" lon="11.431450">
                <time>2017-07-15T09:07:39Z</time>
            </trkpt>
            <trkpt lat="46.277530" lon="11.431210">
                <time>2017-07-15T09:07:40Z</time>
            </trkpt>
            <trkpt lat="46.277460" lon="11.431010">
                <time>2017-07-15T09:07:41Z</time>
            </trkpt>
            <trkpt lat="46.277370" lon="11.430790">
                <time>2017-07-15T09:07:42Z</time>
            </trkpt>
            <trkpt lat="46.277260" lon="11.430560">
                <time>2017-07-15T09:07:43Z</time>
            </trkpt>
            <trkpt lat="46.277170" lon="11.430380">
                <time>2017-07-15T09:07:44Z</time>
            </trkpt>
            <trkpt lat="46.277050" lon="11.430200">
                <time>2017-07-15T09:07:45Z</time>
            </trkpt>
            <trkpt lat="46.276930" lon="11.430010">
                <time>2017-07-15T09:07:46Z</time>
            </trkpt>
            <trkpt lat="46.276820" lon="11.429810">
                <time>2017-07-15T09:07:47Z</time>
            </trkpt>
            <trkpt lat="46.276710" lon="11.429590">
                <time>2017-07-15T09:07:48Z</time>
            </trkpt>
            <trkpt lat="46.276630" lon="11.429380">
                <time>2017-07-15T09:07:49Z</time>
            </trkpt>
            <trkpt lat="46.276550" lon="11.429150">
                <time>2017-07-15T09:07:50Z</time>
            </trkpt>
            <trkpt lat="46.276480" lon="11.428890">
                <time>2017-07-15T09:07:51Z</time>
            </trkpt>
            <trkpt lat="46.276420" lon="11.428660">
                <time>2017-07-15T09:07:52Z</time>
            </trkpt>
            <trkpt lat="46.276380" lon="11.428410">
                <time>2017-07-15T09:07:53Z</time>
            </trkpt>
            <trkpt lat="46.276340" lon="11.428150">
                <time>2017-07-15T09:07:54Z</time>
            </trkpt>
            <trkpt lat="46.276330" lon="11.427910">
                <time>2017-07-15T09:07:55Z</time>
            </trkpt>
            <trkpt lat="46.276320" lon="11.427640">
                <time>2017-07-15T09:07:56Z</time>
            </trkpt>
            <trkpt lat="46.276320" lon="11.427410">
                <time>2017-07-15T09:07:57Z</time>
            </trkpt>
            <trkpt lat="46.276330" lon="11.427150">
                <time>2017-07-15T09:07:58Z</time>
            </trkpt>
            <trkpt lat="46.276340" lon="11.426890">
                <time>2017-07-15T09:07:59Z</time>
            </trkpt>
            <trkpt lat="46.276330" lon="11.426650">
                <time>2017-07-15T09:08:00Z</time>
            </trkpt>
            <trkpt lat="46.276330" lon="11.426390">
                <time>2017-07-15T09:08:01Z</time>
            </trkpt>
            <trkpt lat="46.276330" lon="11.426140">
                <time>2017-07-15T09:08:02Z</time>
            </trkpt>
            <trkpt lat="46.276320" lon="11.425910">
                <time>2017-07-15T09:08:03Z</time>
            </trkpt>
            <trkpt lat="46.276300" lon="11.425670">
                <time>2017-07-15T09:08:04Z</time>
            </trkpt>
            <trkpt lat="46.276280" lon="11.425460">
                <time>2017-07-15T09:08:05Z</time>
            </trkpt>
            <trkpt lat="46.276260" lon="11.425220">
                <time>2017-07-15T09:08:06Z</time>
            </trkpt>
            <trkpt lat="46.276230" lon="11.424970">
                <time>2017-07-15T09:08:07Z</time>
            </trkpt>
            <trkpt lat="46.276200" lon="11.424740">
                <time>2017-07-15T09:08:08Z</time>
            </trkpt>
            <trkpt lat="46.276170" lon="11.424480">
                <time>2017-07-15T09:08:09Z</time>
            </trkpt>
            <trkpt lat="46.276140" lon="11.424220">
                <time>2017-07-15T09:08:10Z</time>
            </trkpt>
            <trkpt lat="46.276120" lon="11.423980">
                <time>2017-07-15T09:08:11Z</time>
            </trkpt>
            <trkpt lat="46.276100" lon="11.423700">
                <time>2017-07-15T09:08:12Z</time>
            </trkpt>
            <trkpt lat="46.276110" lon="11.423450">
                <time>2017-07-15T09:08:13Z</time>
            </trkpt>
            <trkpt lat="46.276140" lon="11.423180">
                <time>2017-07-15T09:08:14Z</time>
            </trkpt>
            <trkpt lat="46.276190" lon="11.422900">
                <time>2017-07-15T09:08:15Z</time>
            </trkpt>
            <trkpt lat="46.276250" lon="11.422660">
                <time>2017-07-15T09:08:16Z</time>
            </trkpt>
            <trkpt lat="46.276330" lon="11.422420">
                <time>2017-07-15T09:08:17Z</time>
            </trkpt>
            <trkpt lat="46.276410" lon="11.422190">
                <time>2017-07-15T09:08:18Z</time>
            </trkpt>
            <trkpt lat="46.276500" lon="11.421980">
                <time>2017-07-15T09:08:19Z</time>
            </trkpt>
            <trkpt lat="46.276610" lon="11.421780">
                <time>2017-07-15T09:08:20Z</time>
            </trkpt>
            <trkpt lat="46.276720" lon="11.421620">
                <time>2017-07-15T09:08:21Z</time>
            </trkpt>
            <trkpt lat="46.276840" lon="11.421460">
                <time>2017-07-15T09:08:22Z</time>
            </trkpt>
            <trkpt lat="46.276980" lon="11.421300">
                <time>2017-07-15T09:08:23Z</time>
            </trkpt>
            <trkpt lat="46.277110" lon="11.421160">
                <time>2017-07-15T09:08:24Z</time>
            </trkpt>
            <trkpt lat="46.277260" lon="11.421040">
                <time>2017-07-15T09:08:25Z</time>
            </trkpt>
            <trkpt lat="46.277420" lon="11.420920">
                <time>2017-07-15T09:08:26Z</time>
            </trkpt>
            <trkpt lat="46.277570" lon="11.420830">
                <time>2017-07-15T09:08:27Z</time>
            </trkpt>
            <trkpt lat="46.277730" lon="11.420750">
                <time>2017-07-15T09:08:28Z</time>
            </trkpt>
            <trkpt lat="46.277880" lon="11.420690">
                <time>2017-07-15T09:08:29Z</time>
            </trkpt>
            <trkpt lat="46.278050" lon="11.420650">
                <time>2017-07-15T09:08:30Z</time>
            </trkpt>
            <trkpt lat="46.278230" lon="11.420630">
                <time>2017-07-15T09:08:31Z</time>
            </trkpt>
            <trkpt lat="46.278400" lon="11.420630">
                <time>2017-07-15T09:08:32Z</time>
            </trkpt>
            <trkpt lat="46.278580" lon="11.420650">
                <time>2017-07-15T09:08:33Z</time>
            </trkpt>
            <trkpt lat="46.278750" lon="11.420690">
                <time>2017-07-15T09:08:34Z</time>
            </trkpt>
            <trkpt lat="46.278930" lon="11.420740">
                <time>2017-07-15T09:08:35Z</time>
            </trkpt>
            <trkpt lat="46.279100" lon="11.420810">
                <time>2017-07-15T09:08:36Z</time>
            </trkpt>
            <trkpt lat="46.279260" lon="11.420880">
                <time>2017-07-15T09:08:37Z</time>
            </trkpt>
            <trkpt lat="46.279420" lon="11.420960">
                <time>2017-07-15T09:08:38Z</time>
            </trkpt>
            <trkpt lat="46.279590" lon="11.421040">
                <time>2017-07-15T09:08:39Z</time>
            </trkpt>
            <trkpt lat="46.279740" lon="11.421110">
                <time>2017-07-15T09:08:40Z</time>
            </trkpt>
            <trkpt lat="46.279900" lon="11.421180">
                <time>2017-07-15T09:08:41Z</time>
            </trkpt>
            <trkpt lat="46.280070" lon="11.421250">
                <time>2017-07-15T09:08:42Z</time>
            </trkpt>
            <trkpt lat="46.280220" lon="11.421300">
                <time>2017-07-15T09:08:43Z</time>
            </trkpt>
            <trkpt lat="46.280400" lon="11.421360">
                <time>2017-07-15T09:08:44Z</time>
            </trkpt>
            <trkpt lat="46.280550" lon="11.421400">
                <time>2017-07-15T09:08:45Z</time>
            </trkpt>
            <trkpt lat="46.280720" lon="11.421430">
                <time>2017-07-15T09:08:46Z</time>
            </trkpt>
            <trkpt lat="46.280880" lon="11.421460">
                <time>2017-07-15T09:08:47Z</time>
            </trkpt>
            <trkpt lat="46.281020" lon="11.421480">
                <time>2017-07-15T09:08:48Z</time>
            </trkpt>
            <trkpt lat="46.281180" lon="11.421510">
                <time>2017-07-15T09:08:49Z</time>
            </trkpt>
            <trkpt lat="46.281330" lon="11.421540">
                <time>2017-07-15T09:08:50Z</time>
            </trkpt>
            <trkpt lat="46.281480" lon="11.421560">
                <time>2017-07-15T09:08:51Z</time>
            </trkpt>
            <trkpt lat="46.281640" lon="11.421580">
                <time>2017-07-15T09:08:52Z</time>
            </trkpt>
            <trkpt lat="46.281770" lon="11.421600">
                <time>2017-07-15T09:08:53Z</time>
            </trkpt>
            <trkpt lat="46.281900" lon="11.421620">
                <time>2017-07-15T09:08:54Z</time>
            </trkpt>
            <trkpt lat="46.282040" lon="11.421630">
                <time>2017-07-15T09:08:55Z</time>
            </trkpt>
            <trkpt lat="46.282160" lon="11.421650">
                <time>2017-07-15T09:08:56Z</time>
            </trkpt>
            <trkpt lat="46.282290" lon="11.421660">
                <time>2017-07-15T09:08:57Z</time>
            </trkpt>
            <trkpt lat="46.282420" lon="11.421690">
                <time>2017-07-15T09:08:58Z</time>
            </trkpt>
            <trkpt lat="46.282540" lon="11.421730">
                <time>2017-07-15T09:08:59Z</time>
            </trkpt>
            <trkpt lat="46.282680" lon="11.421770">
                <time>2017-07-15T09:09:00Z</time>
            </trkpt>
            <trkpt lat="46.282810" lon="11.421830">
                <time>2017-07-15T09:09:01Z</time>
            </trkpt>
            <trkpt lat="46.282950" lon="11.421900">
                <time>2017-07-15T09:09:02Z</time>
            </trkpt>
            <trkpt lat="46.283100" lon="11.422000">
                <time>2017-07-15T09:09:03Z</time>
            </trkpt>
            <trkpt lat="46.283240" lon="11.422100">
                <time>2017-07-15T09:09:04Z</time>
            </trkpt>
            <trkpt lat="46.283380" lon="11.422190">
                <time>2017-07-15T09:09:05Z</time>
            </trkpt>
            <trkpt lat="46.283510" lon="11.422280">
                <time>2017-07-15T09:09:06Z</time>
            </trkpt>
            <trkpt lat="46.283660" lon="11.422390">
                <time>2017-07-15T09:09:07Z</time>
            </trkpt>
            <trkpt lat="46.283810" lon="11.422520">
                <time>2017-07-15T09:09:08Z</time>
            </trkpt>
            <trkpt lat="46.283930" lon="11.422660">
                <time>2017-07-15T09:09:09Z</time>
            </trkpt>
            <trkpt lat="46.284060" lon="11.422770">
                <time>2017-07-15T09:09:10Z</time>
            </trkpt>
            <trkpt lat="46.284210" lon="11.422900">
                <time>2017-07-15T09:09:11Z</time>
            </trkpt>
            <trkpt lat="46.284330" lon="11.423020">
                <time>2017-07-15T09:09:12Z</time>
            </trkpt>
            <trkpt lat="46.284460" lon="11.423150">
                <time>2017-07-15T09:09:13Z</time>
            </trkpt>
            <trkpt lat="46.284600" lon="11.423280">
                <time>2017-07-15T09:09:14Z</time>
            </trkpt>
            <trkpt lat="46.284720" lon="11.423370">
                <time>2017-07-15T09:09:15Z</time>
            </trkpt>
            <trkpt lat="46.284860" lon="11.423460">
                <time>2017-07-15T09:09:16Z</time>
            </trkpt>
            <trkpt lat="46.284980" lon="11.423520">
                <time>2017-07-15T09:09:17Z</time>
            </trkpt>
            <trkpt lat="46.285120" lon="11.423550">
                <time>2017-07-15T09:09:18Z</time>
            </trkpt>
            <trkpt lat="46.285260" lon="11.423580">
                <time>2017-07-15T09:09:19Z</time>
            </trkpt>
            <trkpt lat="46.285390" lon="11.423600">
                <time>2017-07-15T09:09:20Z</time>
            </trkpt>
            <trkpt lat="46.286350" lon="11.423220">
                <time>2017-07-15T09:09:26Z</time>
            </trkpt>
            <trkpt lat="46.286300" lon="11.422960">
                <time>2017-07-15T09:09:27Z</time>
            </trkpt>
            <trkpt lat="46.286380" lon="11.422810">
                <time>2017-07-15T09:09:28Z</time>
            </trkpt>
            <trkpt lat="46.286470" lon="11.422660">
                <time>2017-07-15T09:09:29Z</time>
            </trkpt>
            <trkpt lat="46.286530" lon="11.422530">
                <time>2017-07-15T09:09:30Z</time>
            </trkpt>
            <trkpt lat="46.286590" lon="11.422400">
                <time>2017-07-15T09:09:31Z</time>
            </trkpt>
            <trkpt lat="46.286650" lon="11.422270">
                <time>2017-07-15T09:09:32Z</time>
            </trkpt>
            <trkpt lat="46.286710" lon="11.422160">
                <time>2017-07-15T09:09:33Z</time>
            </trkpt>
            <trkpt lat="46.286780" lon="11.422040">
                <time>2017-07-15T09:09:34Z</time>
            </trkpt>
            <trkpt lat="46.286850" lon="11.421900">
                <time>2017-07-15T09:09:35Z</time>
            </trkpt>
            <trkpt lat="46.286900" lon="11.421770">
                <time>2017-07-15T09:09:36Z</time>
            </trkpt>
            <trkpt lat="46.286970" lon="11.421630">
                <time>2017-07-15T09:09:37Z</time>
            </trkpt>
            <trkpt lat="46.287040" lon="11.421470">
                <time>2017-07-15T09:09:38Z</time>
            </trkpt>
            <trkpt lat="46.287110" lon="11.421320">
                <time>2017-07-15T09:09:39Z</time>
            </trkpt>
            <trkpt lat="46.287180" lon="11.421150">
                <time>2017-07-15T09:09:40Z</time>
            </trkpt>
            <trkpt lat="46.287250" lon="11.421000">
                <time>2017-07-15T09:09:41Z</time>
            </trkpt>
            <trkpt lat="46.287320" lon="11.420840">
                <time>2017-07-15T09:09:42Z</time>
            </trkpt>
            <trkpt lat="46.287410" lon="11.420670">
                <time>2017-07-15T09:09:43Z</time>
            </trkpt>
            <trkpt lat="46.287480" lon="11.420520">
                <time>2017-07-15T09:09:44Z</time>
            </trkpt>
            <trkpt lat="46.287560" lon="11.420350">
                <time>2017-07-15T09:09:45Z</time>
            </trkpt>
            <trkpt lat="46.287640" lon="11.420160">
                <time>2017-07-15T09:09:46Z</time>
            </trkpt>
            <trkpt lat="46.287720" lon="11.420010">
                <time>2017-07-15T09:09:47Z</time>
            </trkpt>
            <trkpt lat="46.287820" lon="11.419840">
                <time>2017-07-15T09:09:48Z</time>
            </trkpt>
            <trkpt lat="46.287920" lon="11.419700">
                <time>2017-07-15T09:09:49Z</time>
            </trkpt>
            <trkpt lat="46.288040" lon="11.419570">
                <time>2017-07-15T09:09:50Z</time>
            </trkpt>
            <trkpt lat="46.288200" lon="11.419450">
                <time>2017-07-15T09:09:51Z</time>
            </trkpt>
            <trkpt lat="46.288340" lon="11.419390">
                <time>2017-07-15T09:09:52Z</time>
            </trkpt>
            <trkpt lat="46.288490" lon="11.419350">
                <time>2017-07-15T09:09:53Z</time>
            </trkpt>
            <trkpt lat="46.288660" lon="11.419310">
                <time>2017-07-15T09:09:54Z</time>
            </trkpt>
            <trkpt lat="46.288820" lon="11.419280">
                <time>2017-07-15T09:09:55Z</time>
            </trkpt>
            <trkpt lat="46.288990" lon="11.419250">
                <time>2017-07-15T09:09:56Z</time>
            </trkpt>
            <trkpt lat="46.289120" lon="11.419230">
                <time>2017-07-15T09:09:57Z</time>
            </trkpt>
            <trkpt lat="46.289270" lon="11.419200">
                <time>2017-07-15T09:09:58Z</time>
            </trkpt>
            <trkpt lat="46.289440" lon="11.419160">
                <time>2017-07-15T09:09:59Z</time>
            </trkpt>
            <trkpt lat="46.289580" lon="11.419140">
                <time>2017-07-15T09:10:00Z</time>
            </trkpt>
            <trkpt lat="46.289730" lon="11.419110">
                <time>2017-07-15T09:10:01Z</time>
            </trkpt>
            <trkpt lat="46.289900" lon="11.419080">
                <time>2017-07-15T09:10:02Z</time>
            </trkpt>
            <trkpt lat="46.290040" lon="11.419060">
                <time>2017-07-15T09:10:03Z</time>
            </trkpt>
            <trkpt lat="46.290200" lon="11.419030">
                <time>2017-07-15T09:10:04Z</time>
            </trkpt>
            <trkpt lat="46.290340" lon="11.419000">
                <time>2017-07-15T09:10:05Z</time>
            </trkpt>
            <trkpt lat="46.290490" lon="11.418970">
                <time>2017-07-15T09:10:06Z</time>
            </trkpt>
            <trkpt lat="46.290660" lon="11.418940">
                <time>2017-07-15T09:10:07Z</time>
            </trkpt>
            <trkpt lat="46.290810" lon="11.418910">
                <time>2017-07-15T09:10:08Z</time>
            </trkpt>
            <trkpt lat="46.290970" lon="11.418880">
                <time>2017-07-15T09:10:09Z</time>
            </trkpt>
            <trkpt lat="46.291120" lon="11.418850">
                <time>2017-07-15T09:10:10Z</time>
            </trkpt>
            <trkpt lat="46.291270" lon="11.418820">
                <time>2017-07-15T09:10:11Z</time>
            </trkpt>
            <trkpt lat="46.291430" lon="11.418780">
                <time>2017-07-15T09:10:12Z</time>
            </trkpt>
            <trkpt lat="46.291560" lon="11.418760">
                <time>2017-07-15T09:10:13Z</time>
            </trkpt>
            <trkpt lat="46.291700" lon="11.418730">
                <time>2017-07-15T09:10:14Z</time>
            </trkpt>
            <trkpt lat="46.291840" lon="11.418700">
                <time>2017-07-15T09:10:15Z</time>
            </trkpt>
            <trkpt lat="46.291960" lon="11.418670">
                <time>2017-07-15T09:10:16Z</time>
            </trkpt>
            <trkpt lat="46.292090" lon="11.418650">
                <time>2017-07-15T09:10:17Z</time>
            </trkpt>
            <trkpt lat="46.292230" lon="11.418620">
                <time>2017-07-15T09:10:18Z</time>
            </trkpt>
            <trkpt lat="46.292340" lon="11.418600">
                <time>2017-07-15T09:10:19Z</time>
            </trkpt>
            <trkpt lat="46.292480" lon="11.418570">
                <time>2017-07-15T09:10:20Z</time>
            </trkpt>
            <trkpt lat="46.292610" lon="11.418550">
                <time>2017-07-15T09:10:21Z</time>
            </trkpt>
            <trkpt lat="46.292760" lon="11.418510">
                <time>2017-07-15T09:10:22Z</time>
            </trkpt>
            <trkpt lat="46.292910" lon="11.418470">
                <time>2017-07-15T09:10:23Z</time>
            </trkpt>
            <trkpt lat="46.293050" lon="11.418400">
                <time>2017-07-15T09:10:24Z</time>
            </trkpt>
            <trkpt lat="46.293190" lon="11.418310">
                <time>2017-07-15T09:10:25Z</time>
            </trkpt>
            <trkpt lat="46.293330" lon="11.418190">
                <time>2017-07-15T09:10:26Z</time>
            </trkpt>
            <trkpt lat="46.293460" lon="11.418050">
                <time>2017-07-15T09:10:27Z</time>
            </trkpt>
            <trkpt lat="46.293580" lon="11.417880">
                <time>2017-07-15T09:10:28Z</time>
            </trkpt>
            <trkpt lat="46.293680" lon="11.417720">
                <time>2017-07-15T09:10:29Z</time>
            </trkpt>
            <trkpt lat="46.293770" lon="11.417550">
                <time>2017-07-15T09:10:30Z</time>
            </trkpt>
            <trkpt lat="46.293850" lon="11.417350">
                <time>2017-07-15T09:10:31Z</time>
            </trkpt>
            <trkpt lat="46.293910" lon="11.417170">
                <time>2017-07-15T09:10:32Z</time>
            </trkpt>
            <trkpt lat="46.293960" lon="11.416950">
                <time>2017-07-15T09:10:33Z</time>
            </trkpt>
            <trkpt lat="46.294000" lon="11.416720">
                <time>2017-07-15T09:10:34Z</time>
            </trkpt>
            <trkpt lat="46.294040" lon="11.416500">
                <time>2017-07-15T09:10:35Z</time>
            </trkpt>
            <trkpt lat="46.294070" lon="11.416260">
                <time>2017-07-15T09:10:36Z</time>
            </trkpt>
            <trkpt lat="46.294110" lon="11.416050">
                <time>2017-07-15T09:10:37Z</time>
            </trkpt>
            <trkpt lat="46.294150" lon="11.415840">
                <time>2017-07-15T09:10:38Z</time>
            </trkpt>
            <trkpt lat="46.294200" lon="11.415620">
                <time>2017-07-15T09:10:39Z</time>
            </trkpt>
            <trkpt lat="46.294250" lon="11.415430">
                <time>2017-07-15T09:10:40Z</time>
            </trkpt>
            <trkpt lat="46.294290" lon="11.415240">
                <time>2017-07-15T09:10:41Z</time>
            </trkpt>
            <trkpt lat="46.294340" lon="11.415040">
                <time>2017-07-15T09:10:42Z</time>
            </trkpt>
            <trkpt lat="46.294380" lon="11.414850">
                <time>2017-07-15T09:10:43Z</time>
            </trkpt>
            <trkpt lat="46.294420" lon="11.414660">
                <time>2017-07-15T09:10:44Z</time>
            </trkpt>
            <trkpt lat="46.294470" lon="11.414480">
                <time>2017-07-15T09:10:45Z</time>
            </trkpt>
            <trkpt lat="46.294530" lon="11.414280">
                <time>2017-07-15T09:10:46Z</time>
            </trkpt>
            <trkpt lat="46.294600" lon="11.414060">
                <time>2017-07-15T09:10:47Z</time>
            </trkpt>
            <trkpt lat="46.294670" lon="11.413870">
                <time>2017-07-15T09:10:48Z</time>
            </trkpt>
            <trkpt lat="46.294750" lon="11.413660">
                <time>2017-07-15T09:10:49Z</time>
            </trkpt>
            <trkpt lat="46.294850" lon="11.413440">
                <time>2017-07-15T09:10:50Z</time>
            </trkpt>
            <trkpt lat="46.294920" lon="11.413240">
                <time>2017-07-15T09:10:51Z</time>
            </trkpt>
            <trkpt lat="46.295010" lon="11.413010">
                <time>2017-07-15T09:10:52Z</time>
            </trkpt>
            <trkpt lat="46.295090" lon="11.412810">
                <time>2017-07-15T09:10:53Z</time>
            </trkpt>
            <trkpt lat="46.295180" lon="11.412580">
                <time>2017-07-15T09:10:54Z</time>
            </trkpt>
            <trkpt lat="46.295270" lon="11.412340">
                <time>2017-07-15T09:10:55Z</time>
            </trkpt>
            <trkpt lat="46.295370" lon="11.412120">
                <time>2017-07-15T09:10:56Z</time>
            </trkpt>
            <trkpt lat="46.295470" lon="11.411900">
                <time>2017-07-15T09:10:57Z</time>
            </trkpt>
            <trkpt lat="46.295590" lon="11.411690">
                <time>2017-07-15T09:10:58Z</time>
            </trkpt>
            <trkpt lat="46.295720" lon="11.411490">
                <time>2017-07-15T09:10:59Z</time>
            </trkpt>
            <trkpt lat="46.295870" lon="11.411290">
                <time>2017-07-15T09:11:00Z</time>
            </trkpt>
            <trkpt lat="46.296010" lon="11.411130">
                <time>2017-07-15T09:11:01Z</time>
            </trkpt>
            <trkpt lat="46.296170" lon="11.410960">
                <time>2017-07-15T09:11:02Z</time>
            </trkpt>
            <trkpt lat="46.296340" lon="11.410790">
                <time>2017-07-15T09:11:03Z</time>
            </trkpt>
            <trkpt lat="46.296490" lon="11.410640">
                <time>2017-07-15T09:11:04Z</time>
            </trkpt>
            <trkpt lat="46.296640" lon="11.410490">
                <time>2017-07-15T09:11:05Z</time>
            </trkpt>
            <trkpt lat="46.296800" lon="11.410330">
                <time>2017-07-15T09:11:06Z</time>
            </trkpt>
            <trkpt lat="46.296950" lon="11.410190">
                <time>2017-07-15T09:11:07Z</time>
            </trkpt>
            <trkpt lat="46.297100" lon="11.410050">
                <time>2017-07-15T09:11:08Z</time>
            </trkpt>
            <trkpt lat="46.297250" lon="11.409940">
                <time>2017-07-15T09:11:09Z</time>
            </trkpt>
            <trkpt lat="46.297400" lon="11.409850">
                <time>2017-07-15T09:11:10Z</time>
            </trkpt>
            <trkpt lat="46.297580" lon="11.409760">
                <time>2017-07-15T09:11:11Z</time>
            </trkpt>
            <trkpt lat="46.297720" lon="11.409680">
                <time>2017-07-15T09:11:12Z</time>
            </trkpt>
            <trkpt lat="46.297860" lon="11.409590">
                <time>2017-07-15T09:11:13Z</time>
            </trkpt>
            <trkpt lat="46.298010" lon="11.409520">
                <time>2017-07-15T09:11:14Z</time>
            </trkpt>
            <trkpt lat="46.303020" lon="11.407280">
                <time>2017-07-15T09:11:46Z</time>
            </trkpt>
            <trkpt lat="46.303170" lon="11.407270">
                <time>2017-07-15T09:11:47Z</time>
            </trkpt>
            <trkpt lat="46.303350" lon="11.407270">
                <time>2017-07-15T09:11:48Z</time>
            </trkpt>
            <trkpt lat="46.303510" lon="11.407270">
                <time>2017-07-15T09:11:49Z</time>
            </trkpt>
            <trkpt lat="46.303670" lon="11.407250">
                <time>2017-07-15T09:11:50Z</time>
            </trkpt>
            <trkpt lat="46.303840" lon="11.407250">
                <time>2017-07-15T09:11:51Z</time>
            </trkpt>
            <trkpt lat="46.304000" lon="11.407260">
                <time>2017-07-15T09:11:52Z</time>
            </trkpt>
            <trkpt lat="46.304180" lon="11.407290">
                <time>2017-07-15T09:11:53Z</time>
            </trkpt>
            <trkpt lat="46.304380" lon="11.407290">
                <time>2017-07-15T09:11:54Z</time>
            </trkpt>
            <trkpt lat="46.304540" lon="11.407330">
                <time>2017-07-15T09:11:55Z</time>
            </trkpt>
            <trkpt lat="46.304710" lon="11.407320">
                <time>2017-07-15T09:11:56Z</time>
            </trkpt>
            <trkpt lat="46.304870" lon="11.407290">
                <time>2017-07-15T09:11:57Z</time>
            </trkpt>
            <trkpt lat="46.305030" lon="11.407260">
                <time>2017-07-15T09:11:58Z</time>
            </trkpt>
            <trkpt lat="46.305180" lon="11.407230">
                <time>2017-07-15T09:11:59Z</time>
            </trkpt>
            <trkpt lat="46.305310" lon="11.407210">
                <time>2017-07-15T09:12:00Z</time>
            </trkpt>
            <trkpt lat="46.305440" lon="11.407160">
                <time>2017-07-15T09:12:01Z</time>
            </trkpt>
            <trkpt lat="46.305570" lon="11.407080">
                <time>2017-07-15T09:12:02Z</time>
            </trkpt>
            <trkpt lat="46.305690" lon="11.406980">
                <time>2017-07-15T09:12:03Z</time>
            </trkpt>
            <trkpt lat="46.305830" lon="11.406860">
                <time>2017-07-15T09:12:04Z</time>
            </trkpt>
            <trkpt lat="46.305950" lon="11.406750">
                <time>2017-07-15T09:12:05Z</time>
            </trkpt>
            <trkpt lat="46.306090" lon="11.406660">
                <time>2017-07-15T09:12:06Z</time>
            </trkpt>
            <trkpt lat="46.306240" lon="11.406540">
                <time>2017-07-15T09:12:07Z</time>
            </trkpt>
            <trkpt lat="46.306360" lon="11.406430">
                <time>2017-07-15T09:12:08Z</time>
            </trkpt>
            <trkpt lat="46.306490" lon="11.406300">
                <time>2017-07-15T09:12:09Z</time>
            </trkpt>
            <trkpt lat="46.306610" lon="11.406150">
                <time>2017-07-15T09:12:10Z</time>
            </trkpt>
            <trkpt lat="46.306700" lon="11.406000">
                <time>2017-07-15T09:12:11Z</time>
            </trkpt>
            <trkpt lat="46.306800" lon="11.405820">
                <time>2017-07-15T09:12:12Z</time>
            </trkpt>
            <trkpt lat="46.306880" lon="11.405660">
                <time>2017-07-15T09:12:13Z</time>
            </trkpt>
            <trkpt lat="46.306970" lon="11.405510">
                <time>2017-07-15T09:12:14Z</time>
            </trkpt>
            <trkpt lat="46.307050" lon="11.405340">
                <time>2017-07-15T09:12:15Z</time>
            </trkpt>
            <trkpt lat="46.307130" lon="11.405200">
                <time>2017-07-15T09:12:16Z</time>
            </trkpt>
            <trkpt lat="46.307200" lon="11.405060">
                <time>2017-07-15T09:12:17Z</time>
            </trkpt>
            <trkpt lat="46.307290" lon="11.404910">
                <time>2017-07-15T09:12:18Z</time>
            </trkpt>
            <trkpt lat="46.307390" lon="11.404770">
                <time>2017-07-15T09:12:19Z</time>
            </trkpt>
            <trkpt lat="46.307530" lon="11.404660">
                <time>2017-07-15T09:12:20Z</time>
            </trkpt>
            <trkpt lat="46.307650" lon="11.404560">
                <time>2017-07-15T09:12:21Z</time>
            </trkpt>
            <trkpt lat="46.307810" lon="11.404480">
                <time>2017-07-15T09:12:22Z</time>
            </trkpt>
            <trkpt lat="46.307980" lon="11.404500">
                <time>2017-07-15T09:12:23Z</time>
            </trkpt>
            <trkpt lat="46.308130" lon="11.404530">
                <time>2017-07-15T09:12:24Z</time>
            </trkpt>
            <trkpt lat="46.308300" lon="11.404550">
                <time>2017-07-15T09:12:25Z</time>
            </trkpt>
            <trkpt lat="46.308450" lon="11.404590">
                <time>2017-07-15T09:12:26Z</time>
            </trkpt>
            <trkpt lat="46.308590" lon="11.404630">
                <time>2017-07-15T09:12:27Z</time>
            </trkpt>
            <trkpt lat="46.308730" lon="11.404670">
                <time>2017-07-15T09:12:28Z</time>
            </trkpt>
            <trkpt lat="46.308850" lon="11.404710">
                <time>2017-07-15T09:12:29Z</time>
            </trkpt>
            <trkpt lat="46.308980" lon="11.404710">
                <time>2017-07-15T09:12:30Z</time>
            </trkpt>
            <trkpt lat="46.309130" lon="11.404680">
                <time>2017-07-15T09:12:31Z</time>
            </trkpt>
            <trkpt lat="46.309240" lon="11.404630">
                <time>2017-07-15T09:12:32Z</time>
            </trkpt>
            <trkpt lat="46.309350" lon="11.404530">
                <time>2017-07-15T09:12:33Z</time>
            </trkpt>
            <trkpt lat="46.309460" lon="11.404410">
                <time>2017-07-15T09:12:34Z</time>
            </trkpt>
            <trkpt lat="46.309570" lon="11.404270">
                <time>2017-07-15T09:12:35Z</time>
            </trkpt>
            <trkpt lat="46.309680" lon="11.404140">
                <time>2017-07-15T09:12:36Z</time>
            </trkpt>
            <trkpt lat="46.309770" lon="11.404030">
                <time>2017-07-15T09:12:37Z</time>
            </trkpt>
            <trkpt lat="46.309850" lon="11.403930">
                <time>2017-07-15T09:12:38Z</time>
            </trkpt>
            <trkpt lat="46.309950" lon="11.403810">
                <time>2017-07-15T09:12:39Z</time>
            </trkpt>
            <trkpt lat="46.310030" lon="11.403720">
                <time>2017-07-15T09:12:40Z</time>
            </trkpt>
            <trkpt lat="46.310130" lon="11.403610">
                <time>2017-07-15T09:12:41Z</time>
            </trkpt>
            <trkpt lat="46.310230" lon="11.403480">
                <time>2017-07-15T09:12:42Z</time>
            </trkpt>
            <trkpt lat="46.310320" lon="11.403370">
                <time>2017-07-15T09:12:43Z</time>
            </trkpt>
            <trkpt lat="46.310430" lon="11.403250">
                <time>2017-07-15T09:12:44Z</time>
            </trkpt>
            <trkpt lat="46.310520" lon="11.403140">
                <time>2017-07-15T09:12:45Z</time>
            </trkpt>
            <trkpt lat="46.310610" lon="11.403020">
                <time>2017-07-15T09:12:46Z</time>
            </trkpt>
            <trkpt lat="46.310710" lon="11.402900">
                <time>2017-07-15T09:12:47Z</time>
            </trkpt>
            <trkpt lat="46.310800" lon="11.402790">
                <time>2017-07-15T09:12:48Z</time>
            </trkpt>
            <trkpt lat="46.310880" lon="11.402670">
                <time>2017-07-15T09:12:49Z</time>
            </trkpt>
            <trkpt lat="46.310960" lon="11.402530">
                <time>2017-07-15T09:12:50Z</time>
            </trkpt>
            <trkpt lat="46.311020" lon="11.402370">
                <time>2017-07-15T09:12:51Z</time>
            </trkpt>
            <trkpt lat="46.311070" lon="11.402190">
                <time>2017-07-15T09:12:52Z</time>
            </trkpt>
            <trkpt lat="46.311080" lon="11.402020">
                <time>2017-07-15T09:12:53Z</time>
            </trkpt>
            <trkpt lat="46.311070" lon="11.401840">
                <time>2017-07-15T09:12:54Z</time>
            </trkpt>
            <trkpt lat="46.311030" lon="11.401650">
                <time>2017-07-15T09:12:55Z</time>
            </trkpt>
            <trkpt lat="46.310970" lon="11.401500">
                <time>2017-07-15T09:12:56Z</time>
            </trkpt>
            <trkpt lat="46.310880" lon="11.401350">
                <time>2017-07-15T09:12:57Z</time>
            </trkpt>
            <trkpt lat="46.310780" lon="11.401230">
                <time>2017-07-15T09:12:58Z</time>
            </trkpt>
            <trkpt lat="46.310680" lon="11.401130">
                <time>2017-07-15T09:12:59Z</time>
            </trkpt>
            <trkpt lat="46.310580" lon="11.401020">
                <time>2017-07-15T09:13:00Z</time>
            </trkpt>
            <trkpt lat="46.310490" lon="11.400930">
                <time>2017-07-15T09:13:01Z</time>
            </trkpt>
            <trkpt lat="46.310410" lon="11.400820">
                <time>2017-07-15T09:13:02Z</time>
            </trkpt>
            <trkpt lat="46.310330" lon="11.400680">
                <time>2017-07-15T09:13:03Z</time>
            </trkpt>
            <trkpt lat="46.310290" lon="11.400530">
                <time>2017-07-15T09:13:04Z</time>
            </trkpt>
            <trkpt lat="46.310250" lon="11.400360">
                <time>2017-07-15T09:13:05Z</time>
            </trkpt>
            <trkpt lat="46.310220" lon="11.400170">
                <time>2017-07-15T09:13:06Z</time>
            </trkpt>
            <trkpt lat="46.310200" lon="11.399990">
                <time>2017-07-15T09:13:07Z</time>
            </trkpt>
            <trkpt lat="46.310180" lon="11.399790">
                <time>2017-07-15T09:13:08Z</time>
            </trkpt>
            <trkpt lat="46.310170" lon="11.399600">
                <time>2017-07-15T09:13:09Z</time>
            </trkpt>
            <trkpt lat="46.310160" lon="11.399410">
                <time>2017-07-15T09:13:10Z</time>
            </trkpt>
            <trkpt lat="46.310160" lon="11.399190">
                <time>2017-07-15T09:13:11Z</time>
            </trkpt>
            <trkpt lat="46.310170" lon="11.399000">
                <time>2017-07-15T09:13:12Z</time>
            </trkpt>
            <trkpt lat="46.310180" lon="11.398790">
                <time>2017-07-15T09:13:13Z</time>
            </trkpt>
            <trkpt lat="46.310200" lon="11.398590">
                <time>2017-07-15T09:13:14Z</time>
            </trkpt>
            <trkpt lat="46.310220" lon="11.398410">
                <time>2017-07-15T09:13:15Z</time>
            </trkpt>
            <trkpt lat="46.310240" lon="11.398220">
                <time>2017-07-15T09:13:16Z</time>
            </trkpt>
            <trkpt lat="46.310270" lon="11.398040">
                <time>2017-07-15T09:13:17Z</time>
            </trkpt>
            <trkpt lat="46.310300" lon="11.397840">
                <time>2017-07-15T09:13:18Z</time>
            </trkpt>
            <trkpt lat="46.310340" lon="11.397630">
                <time>2017-07-15T09:13:19Z</time>
            </trkpt>
            <trkpt lat="46.310390" lon="11.397450">
                <time>2017-07-15T09:13:20Z</time>
            </trkpt>
            <trkpt lat="46.310420" lon="11.397260">
                <time>2017-07-15T09:13:21Z</time>
            </trkpt>
            <trkpt lat="46.310450" lon="11.397070">
                <time>2017-07-15T09:13:22Z</time>
            </trkpt>
            <trkpt lat="46.310480" lon="11.396890">
                <time>2017-07-15T09:13:23Z</time>
            </trkpt>
            <trkpt lat="46.310520" lon="11.396680">
                <time>2017-07-15T09:13:24Z</time>
            </trkpt>
            <trkpt lat="46.310550" lon="11.396490">
                <time>2017-07-15T09:13:25Z</time>
            </trkpt>
            <trkpt lat="46.310590" lon="11.396290">
                <time>2017-07-15T09:13:26Z</time>
            </trkpt>
            <trkpt lat="46.310630" lon="11.396080">
                <time>2017-07-15T09:13:27Z</time>
            </trkpt>
            <trkpt lat="46.310660" lon="11.395890">
                <time>2017-07-15T09:13:28Z</time>
            </trkpt>
            <trkpt lat="46.310690" lon="11.395700">
                <time>2017-07-15T09:13:29Z</time>
            </trkpt>
            <trkpt lat="46.310720" lon="11.395510">
                <time>2017-07-15T09:13:30Z</time>
            </trkpt>
            <trkpt lat="46.310750" lon="11.395350">
                <time>2017-07-15T09:13:31Z</time>
            </trkpt>
            <trkpt lat="46.310800" lon="11.395190">
                <time>2017-07-15T09:13:32Z</time>
            </trkpt>
            <trkpt lat="46.310860" lon="11.395060">
                <time>2017-07-15T09:13:33Z</time>
            </trkpt>
            <trkpt lat="46.310930" lon="11.394920">
                <time>2017-07-15T09:13:34Z</time>
            </trkpt>
            <trkpt lat="46.311030" lon="11.394790">
                <time>2017-07-15T09:13:35Z</time>
            </trkpt>
            <trkpt lat="46.311120" lon="11.394680">
                <time>2017-07-15T09:13:36Z</time>
            </trkpt>
            <trkpt lat="46.311210" lon="11.394540">
                <time>2017-07-15T09:13:37Z</time>
            </trkpt>
            <trkpt lat="46.311300" lon="11.394430">
                <time>2017-07-15T09:13:38Z</time>
            </trkpt>
            <trkpt lat="46.311400" lon="11.394300">
                <time>2017-07-15T09:13:39Z</time>
            </trkpt>
            <trkpt lat="46.311500" lon="11.394170">
                <time>2017-07-15T09:13:40Z</time>
            </trkpt>
            <trkpt lat="46.311580" lon="11.394060">
                <time>2017-07-15T09:13:41Z</time>
            </trkpt>
            <trkpt lat="46.311670" lon="11.393930">
                <time>2017-07-15T09:13:42Z</time>
            </trkpt>
            <trkpt lat="46.311770" lon="11.393800">
                <time>2017-07-15T09:13:43Z</time>
            </trkpt>
            <trkpt lat="46.311840" lon="11.393690">
                <time>2017-07-15T09:13:44Z</time>
            </trkpt>
            <trkpt lat="46.311930" lon="11.393590">
                <time>2017-07-15T09:13:45Z</time>
            </trkpt>
            <trkpt lat="46.312010" lon="11.393470">
                <time>2017-07-15T09:13:46Z</time>
            </trkpt>
            <trkpt lat="46.312080" lon="11.393380">
                <time>2017-07-15T09:13:47Z</time>
            </trkpt>
            <trkpt lat="46.312160" lon="11.393280">
                <time>2017-07-15T09:13:48Z</time>
            </trkpt>
            <trkpt lat="46.312220" lon="11.393200">
                <time>2017-07-15T09:13:49Z</time>
            </trkpt>
            <trkpt lat="46.312290" lon="11.393110">
                <time>2017-07-15T09:13:50Z</time>
            </trkpt>
            <trkpt lat="46.312370" lon="11.393020">
                <time>2017-07-15T09:13:51Z</time>
            </trkpt>
            <trkpt lat="46.312440" lon="11.392930">
                <time>2017-07-15T09:13:52Z</time>
            </trkpt>
            <trkpt lat="46.312510" lon="11.392830">
                <time>2017-07-15T09:13:53Z</time>
            </trkpt>
            <trkpt lat="46.312580" lon="11.392730">
                <time>2017-07-15T09:13:54Z</time>
            </trkpt>
            <trkpt lat="46.312650" lon="11.392640">
                <time>2017-07-15T09:13:55Z</time>
            </trkpt>
            <trkpt lat="46.312710" lon="11.392540">
                <time>2017-07-15T09:13:56Z</time>
            </trkpt>
            <trkpt lat="46.312770" lon="11.392470">
                <time>2017-07-15T09:13:57Z</time>
            </trkpt>
            <trkpt lat="46.312820" lon="11.392390">
                <time>2017-07-15T09:13:58Z</time>
            </trkpt>
            <trkpt lat="46.312870" lon="11.392320">
                <time>2017-07-15T09:13:59Z</time>
            </trkpt>
            <trkpt lat="46.312910" lon="11.392260">
                <time>2017-07-15T09:14:00Z</time>
            </trkpt>
            <trkpt lat="46.312940" lon="11.392210">
                <time>2017-07-15T09:14:01Z</time>
            </trkpt>
            <trkpt lat="46.312990" lon="11.392140">
                <time>2017-07-15T09:14:02Z</time>
            </trkpt>
            <trkpt lat="46.313040" lon="11.392080">
                <time>2017-07-15T09:14:03Z</time>
            </trkpt>
            <trkpt lat="46.313100" lon="11.392000">
                <time>2017-07-15T09:14:04Z</time>
            </trkpt>
            <trkpt lat="46.313160" lon="11.391920">
                <time>2017-07-15T09:14:05Z</time>
            </trkpt>
            <trkpt lat="46.313230" lon="11.391820">
                <time>2017-07-15T09:14:06Z</time>
            </trkpt>
            <trkpt lat="46.313310" lon="11.391720">
                <time>2017-07-15T09:14:07Z</time>
            </trkpt>
            <trkpt lat="46.313380" lon="11.391630">
                <time>2017-07-15T09:14:08Z</time>
            </trkpt>
            <trkpt lat="46.313460" lon="11.391530">
                <time>2017-07-15T09:14:09Z</time>
            </trkpt>
            <trkpt lat="46.313540" lon="11.391430">
                <time>2017-07-15T09:14:10Z</time>
            </trkpt>
            <trkpt lat="46.313630" lon="11.391320">
                <time>2017-07-15T09:14:11Z</time>
            </trkpt>
            <trkpt lat="46.313740" lon="11.391220">
                <time>2017-07-15T09:14:12Z</time>
            </trkpt>
            <trkpt lat="46.313840" lon="11.391140">
                <time>2017-07-15T09:14:13Z</time>
            </trkpt>
            <trkpt lat="46.313950" lon="11.391040">
                <time>2017-07-15T09:14:14Z</time>
            </trkpt>
            <trkpt lat="46.314060" lon="11.390950">
                <time>2017-07-15T09:14:15Z</time>
            </trkpt>
            <trkpt lat="46.314160" lon="11.390870">
                <time>2017-07-15T09:14:16Z</time>
            </trkpt>
            <trkpt lat="46.314260" lon="11.390790">
                <time>2017-07-15T09:14:17Z</time>
            </trkpt>
            <trkpt lat="46.314370" lon="11.390700">
                <time>2017-07-15T09:14:18Z</time>
            </trkpt>
            <trkpt lat="46.314460" lon="11.390640">
                <time>2017-07-15T09:14:19Z</time>
            </trkpt>
            <trkpt lat="46.314560" lon="11.390570">
                <time>2017-07-15T09:14:20Z</time>
            </trkpt>
            <trkpt lat="46.314640" lon="11.390510">
                <time>2017-07-15T09:14:21Z</time>
            </trkpt>
            <trkpt lat="46.314730" lon="11.390450">
                <time>2017-07-15T09:14:22Z</time>
            </trkpt>
            <trkpt lat="46.314820" lon="11.390370">
                <time>2017-07-15T09:14:23Z</time>
            </trkpt>
            <trkpt lat="46.314910" lon="11.390310">
                <time>2017-07-15T09:14:24Z</time>
            </trkpt>
            <trkpt lat="46.315000" lon="11.390240">
                <time>2017-07-15T09:14:25Z</time>
            </trkpt>
            <trkpt lat="46.315090" lon="11.390160">
                <time>2017-07-15T09:14:26Z</time>
            </trkpt>
            <trkpt lat="46.315190" lon="11.390090">
                <time>2017-07-15T09:14:27Z</time>
            </trkpt>
            <trkpt lat="46.315280" lon="11.390010">
                <time>2017-07-15T09:14:28Z</time>
            </trkpt>
            <trkpt lat="46.315360" lon="11.389940">
                <time>2017-07-15T09:14:29Z</time>
            </trkpt>
            <trkpt lat="46.315460" lon="11.389900">
                <time>2017-07-15T09:14:30Z</time>
            </trkpt>
            <trkpt lat="46.315560" lon="11.389850">
                <time>2017-07-15T09:14:31Z</time>
            </trkpt>
            <trkpt lat="46.315660" lon="11.389830">
                <time>2017-07-15T09:14:32Z</time>
            </trkpt>
            <trkpt lat="46.315760" lon="11.389800">
                <time>2017-07-15T09:14:33Z</time>
            </trkpt>
            <trkpt lat="46.315870" lon="11.389790">
                <time>2017-07-15T09:14:34Z</time>
            </trkpt>
            <trkpt lat="46.315980" lon="11.389790">
                <time>2017-07-15T09:14:35Z</time>
            </trkpt>
            <trkpt lat="46.316110" lon="11.389810">
                <time>2017-07-15T09:14:36Z</time>
            </trkpt>
            <trkpt lat="46.316220" lon="11.389830">
                <time>2017-07-15T09:14:37Z</time>
            </trkpt>
            <trkpt lat="46.316330" lon="11.389840">
                <time>2017-07-15T09:14:38Z</time>
            </trkpt>
            <trkpt lat="46.316450" lon="11.389860">
                <time>2017-07-15T09:14:39Z</time>
            </trkpt>
            <trkpt lat="46.316550" lon="11.389870">
                <time>2017-07-15T09:14:40Z</time>
            </trkpt>
            <trkpt lat="46.316650" lon="11.389880">
                <time>2017-07-15T09:14:41Z</time>
            </trkpt>
            <trkpt lat="46.316750" lon="11.389890">
                <time>2017-07-15T09:14:42Z</time>
            </trkpt>
            <trkpt lat="46.316850" lon="11.389910">
                <time>2017-07-15T09:14:43Z</time>
            </trkpt>
            <trkpt lat="46.316940" lon="11.389930">
                <time>2017-07-15T09:14:44Z</time>
            </trkpt>
            <trkpt lat="46.317030" lon="11.389940">
                <time>2017-07-15T09:14:45Z</time>
            </trkpt>
            <trkpt lat="46.317120" lon="11.389950">
                <time>2017-07-15T09:14:46Z</time>
            </trkpt>
            <trkpt lat="46.317220" lon="11.389970">
                <time>2017-07-15T09:14:47Z</time>
            </trkpt>
            <trkpt lat="46.317320" lon="11.389980">
                <time>2017-07-15T09:14:48Z</time>
            </trkpt>
            <trkpt lat="46.317420" lon="11.390000">
                <time>2017-07-15T09:14:49Z</time>
            </trkpt>
            <trkpt lat="46.317540" lon="11.390010">
                <time>2017-07-15T09:14:50Z</time>
            </trkpt>
            <trkpt lat="46.317640" lon="11.390020">
                <time>2017-07-15T09:14:51Z</time>
            </trkpt>
            <trkpt lat="46.317750" lon="11.390040">
                <time>2017-07-15T09:14:52Z</time>
            </trkpt>
            <trkpt lat="46.317860" lon="11.390050">
                <time>2017-07-15T09:14:53Z</time>
            </trkpt>
            <trkpt lat="46.317960" lon="11.390040">
                <time>2017-07-15T09:14:54Z</time>
            </trkpt>
            <trkpt lat="46.318070" lon="11.390020">
                <time>2017-07-15T09:14:55Z</time>
            </trkpt>
            <trkpt lat="46.318160" lon="11.389990">
                <time>2017-07-15T09:14:56Z</time>
            </trkpt>
            <trkpt lat="46.318250" lon="11.389930">
                <time>2017-07-15T09:14:57Z</time>
            </trkpt>
            <trkpt lat="46.318340" lon="11.389850">
                <time>2017-07-15T09:14:58Z</time>
            </trkpt>
            <trkpt lat="46.318430" lon="11.389750">
                <time>2017-07-15T09:14:59Z</time>
            </trkpt>
            <trkpt lat="46.318520" lon="11.389630">
                <time>2017-07-15T09:15:00Z</time>
            </trkpt>
            <trkpt lat="46.318600" lon="11.389530">
                <time>2017-07-15T09:15:01Z</time>
            </trkpt>
            <trkpt lat="46.318680" lon="11.389410">
                <time>2017-07-15T09:15:02Z</time>
            </trkpt>
            <trkpt lat="46.318780" lon="11.389280">
                <time>2017-07-15T09:15:03Z</time>
            </trkpt>
            <trkpt lat="46.318860" lon="11.389170">
                <time>2017-07-15T09:15:04Z</time>
            </trkpt>
            <trkpt lat="46.318950" lon="11.389050">
                <time>2017-07-15T09:15:05Z</time>
            </trkpt>
            <trkpt lat="46.319050" lon="11.388920">
                <time>2017-07-15T09:15:06Z</time>
            </trkpt>
            <trkpt lat="46.319130" lon="11.388810">
                <time>2017-07-15T09:15:07Z</time>
            </trkpt>
            <trkpt lat="46.319210" lon="11.388690">
                <time>2017-07-15T09:15:08Z</time>
            </trkpt>
            <trkpt lat="46.319300" lon="11.388580">
                <time>2017-07-15T09:15:09Z</time>
            </trkpt>
            <trkpt lat="46.319380" lon="11.388470">
                <time>2017-07-15T09:15:10Z</time>
            </trkpt>
            <trkpt lat="46.319470" lon="11.388330">
                <time>2017-07-15T09:15:11Z</time>
            </trkpt>
            <trkpt lat="46.319560" lon="11.388210">
                <time>2017-07-15T09:15:12Z</time>
            </trkpt>
            <trkpt lat="46.319650" lon="11.388090">
                <time>2017-07-15T09:15:13Z</time>
            </trkpt>
            <trkpt lat="46.319750" lon="11.387960">
                <time>2017-07-15T09:15:14Z</time>
            </trkpt>
            <trkpt lat="46.319840" lon="11.387830">
                <time>2017-07-15T09:15:15Z</time>
            </trkpt>
            <trkpt lat="46.319940" lon="11.387690">
                <time>2017-07-15T09:15:16Z</time>
            </trkpt>
            <trkpt lat="46.320030" lon="11.387570">
                <time>2017-07-15T09:15:17Z</time>
            </trkpt>
            <trkpt lat="46.320140" lon="11.387460">
                <time>2017-07-15T09:15:18Z</time>
            </trkpt>
            <trkpt lat="46.320250" lon="11.387350">
                <time>2017-07-15T09:15:19Z</time>
            </trkpt>
            <trkpt lat="46.320360" lon="11.387260">
                <time>2017-07-15T09:15:20Z</time>
            </trkpt>
            <trkpt lat="46.320480" lon="11.387180">
                <time>2017-07-15T09:15:21Z</time>
            </trkpt>
            <trkpt lat="46.320620" lon="11.387100">
                <time>2017-07-15T09:15:22Z</time>
            </trkpt>
            <trkpt lat="46.320750" lon="11.387030">
                <time>2017-07-15T09:15:23Z</time>
            </trkpt>
            <trkpt lat="46.320890" lon="11.386950">
                <time>2017-07-15T09:15:24Z</time>
            </trkpt>
            <trkpt lat="46.321010" lon="11.386880">
                <time>2017-07-15T09:15:25Z</time>
            </trkpt>
            <trkpt lat="46.321140" lon="11.386810">
                <time>2017-07-15T09:15:26Z</time>
            </trkpt>
            <trkpt lat="46.321280" lon="11.386730">
                <time>2017-07-15T09:15:27Z</time>
            </trkpt>
            <trkpt lat="46.321400" lon="11.386650">
                <time>2017-07-15T09:15:28Z</time>
            </trkpt>
            <trkpt lat="46.321530" lon="11.386550">
                <time>2017-07-15T09:15:29Z</time>
            </trkpt>
            <trkpt lat="46.321650" lon="11.386430">
                <time>2017-07-15T09:15:30Z</time>
            </trkpt>
            <trkpt lat="46.321760" lon="11.386280">
                <time>2017-07-15T09:15:31Z</time>
            </trkpt>
            <trkpt lat="46.321850" lon="11.386090">
                <time>2017-07-15T09:15:32Z</time>
            </trkpt>
            <trkpt lat="46.321940" lon="11.385920">
                <time>2017-07-15T09:15:33Z</time>
            </trkpt>
            <trkpt lat="46.322020" lon="11.385740">
                <time>2017-07-15T09:15:34Z</time>
            </trkpt>
            <trkpt lat="46.322110" lon="11.385530">
                <time>2017-07-15T09:15:35Z</time>
            </trkpt>
            <trkpt lat="46.322180" lon="11.385360">
                <time>2017-07-15T09:15:36Z</time>
            </trkpt>
            <trkpt lat="46.322270" lon="11.385190">
                <time>2017-07-15T09:15:37Z</time>
            </trkpt>
            <trkpt lat="46.322350" lon="11.385010">
                <time>2017-07-15T09:15:38Z</time>
            </trkpt>
            <trkpt lat="46.322420" lon="11.384860">
                <time>2017-07-15T09:15:39Z</time>
            </trkpt>
            <trkpt lat="46.322510" lon="11.384680">
                <time>2017-07-15T09:15:40Z</time>
            </trkpt>
            <trkpt lat="46.322580" lon="11.384530">
                <time>2017-07-15T09:15:41Z</time>
            </trkpt>
            <trkpt lat="46.322660" lon="11.384370">
                <time>2017-07-15T09:15:42Z</time>
            </trkpt>
            <trkpt lat="46.322760" lon="11.384200">
                <time>2017-07-15T09:15:43Z</time>
            </trkpt>
            <trkpt lat="46.322850" lon="11.384060">
                <time>2017-07-15T09:15:44Z</time>
            </trkpt>
            <trkpt lat="46.322950" lon="11.383910">
                <time>2017-07-15T09:15:45Z</time>
            </trkpt>
            <trkpt lat="46.323050" lon="11.383760">
                <time>2017-07-15T09:15:46Z</time>
            </trkpt>
            <trkpt lat="46.323150" lon="11.383610">
                <time>2017-07-15T09:15:47Z</time>
            </trkpt>
            <trkpt lat="46.323260" lon="11.383450">
                <time>2017-07-15T09:15:48Z</time>
            </trkpt>
            <trkpt lat="46.323360" lon="11.383310">
                <time>2017-07-15T09:15:49Z</time>
            </trkpt>
            <trkpt lat="46.323460" lon="11.383170">
                <time>2017-07-15T09:15:50Z</time>
            </trkpt>
            <trkpt lat="46.323560" lon="11.383030">
                <time>2017-07-15T09:15:51Z</time>
            </trkpt>
            <trkpt lat="46.323650" lon="11.382900">
                <time>2017-07-15T09:15:52Z</time>
            </trkpt>
            <trkpt lat="46.323740" lon="11.382780">
                <time>2017-07-15T09:15:53Z</time>
            </trkpt>
            <trkpt lat="46.323840" lon="11.382650">
                <time>2017-07-15T09:15:54Z</time>
            </trkpt>
            <trkpt lat="46.323920" lon="11.382530">
                <time>2017-07-15T09:15:55Z</time>
            </trkpt>
            <trkpt lat="46.324010" lon="11.382410">
                <time>2017-07-15T09:15:56Z</time>
            </trkpt>
            <trkpt lat="46.324100" lon="11.382290">
                <time>2017-07-15T09:15:57Z</time>
            </trkpt>
            <trkpt lat="46.324200" lon="11.382170">
                <time>2017-07-15T09:15:58Z</time>
            </trkpt>
            <trkpt lat="46.324300" lon="11.382030">
                <time>2017-07-15T09:15:59Z</time>
            </trkpt>
            <trkpt lat="46.324390" lon="11.381910">
                <time>2017-07-15T09:16:00Z</time>
            </trkpt>
            <trkpt lat="46.324480" lon="11.381780">
                <time>2017-07-15T09:16:01Z</time>
            </trkpt>
            <trkpt lat="46.324570" lon="11.381650">
                <time>2017-07-15T09:16:02Z</time>
            </trkpt>
            <trkpt lat="46.324660" lon="11.381520">
                <time>2017-07-15T09:16:03Z</time>
            </trkpt>
            <trkpt lat="46.324770" lon="11.381370">
                <time>2017-07-15T09:16:04Z</time>
            </trkpt>
            <trkpt lat="46.324860" lon="11.381250">
                <time>2017-07-15T09:16:05Z</time>
            </trkpt>
            <trkpt lat="46.324970" lon="11.381100">
                <time>2017-07-15T09:16:06Z</time>
            </trkpt>
            <trkpt lat="46.325080" lon="11.380930">
                <time>2017-07-15T09:16:07Z</time>
            </trkpt>
            <trkpt lat="46.325190" lon="11.380790">
                <time>2017-07-15T09:16:08Z</time>
            </trkpt>
            <trkpt lat="46.325300" lon="11.380630">
                <time>2017-07-15T09:16:09Z</time>
            </trkpt>
            <trkpt lat="46.325440" lon="11.380460">
                <time>2017-07-15T09:16:10Z</time>
            </trkpt>
            <trkpt lat="46.325550" lon="11.380310">
                <time>2017-07-15T09:16:11Z</time>
            </trkpt>
            <trkpt lat="46.325670" lon="11.380150">
                <time>2017-07-15T09:16:12Z</time>
            </trkpt>
            <trkpt lat="46.325780" lon="11.380010">
                <time>2017-07-15T09:16:13Z</time>
            </trkpt>
            <trkpt lat="46.325880" lon="11.379860">
                <time>2017-07-15T09:16:14Z</time>
            </trkpt>
            <trkpt lat="46.326010" lon="11.379710">
                <time>2017-07-15T09:16:15Z</time>
            </trkpt>
            <trkpt lat="46.326130" lon="11.379610">
                <time>2017-07-15T09:16:16Z</time>
            </trkpt>
            <trkpt lat="46.326260" lon="11.379490">
                <time>2017-07-15T09:16:17Z</time>
            </trkpt>
            <trkpt lat="46.326390" lon="11.379370">
                <time>2017-07-15T09:16:18Z</time>
            </trkpt>
            <trkpt lat="46.326520" lon="11.379250">
                <time>2017-07-15T09:16:19Z</time>
            </trkpt>
            <trkpt lat="46.326660" lon="11.379130">
                <time>2017-07-15T09:16:20Z</time>
            </trkpt>
            <trkpt lat="46.326780" lon="11.379040">
                <time>2017-07-15T09:16:21Z</time>
            </trkpt>
            <trkpt lat="46.326910" lon="11.378930">
                <time>2017-07-15T09:16:22Z</time>
            </trkpt>
            <trkpt lat="46.327050" lon="11.378810">
                <time>2017-07-15T09:16:23Z</time>
            </trkpt>
            <trkpt lat="46.327170" lon="11.378700">
                <time>2017-07-15T09:16:24Z</time>
            </trkpt>
            <trkpt lat="46.327300" lon="11.378590">
                <time>2017-07-15T09:16:25Z</time>
            </trkpt>
            <trkpt lat="46.327440" lon="11.378460">
                <time>2017-07-15T09:16:26Z</time>
            </trkpt>
            <trkpt lat="46.327570" lon="11.378350">
                <time>2017-07-15T09:16:27Z</time>
            </trkpt>
            <trkpt lat="46.327710" lon="11.378210">
                <time>2017-07-15T09:16:28Z</time>
            </trkpt>
            <trkpt lat="46.327830" lon="11.378090">
                <time>2017-07-15T09:16:29Z</time>
            </trkpt>
            <trkpt lat="46.327960" lon="11.377960">
                <time>2017-07-15T09:16:30Z</time>
            </trkpt>
            <trkpt lat="46.328080" lon="11.377810">
                <time>2017-07-15T09:16:31Z</time>
            </trkpt>
            <trkpt lat="46.328180" lon="11.377650">
                <time>2017-07-15T09:16:32Z</time>
            </trkpt>
            <trkpt lat="46.328280" lon="11.377490">
                <time>2017-07-15T09:16:33Z</time>
            </trkpt>
            <trkpt lat="46.328380" lon="11.377320">
                <time>2017-07-15T09:16:34Z</time>
            </trkpt>
            <trkpt lat="46.328490" lon="11.377170">
                <time>2017-07-15T09:16:35Z</time>
            </trkpt>
            <trkpt lat="46.328590" lon="11.377000">
                <time>2017-07-15T09:16:36Z</time>
            </trkpt>
            <trkpt lat="46.328690" lon="11.376850">
                <time>2017-07-15T09:16:37Z</time>
            </trkpt>
            <trkpt lat="46.328790" lon="11.376690">
                <time>2017-07-15T09:16:38Z</time>
            </trkpt>
            <trkpt lat="46.328900" lon="11.376520">
                <time>2017-07-15T09:16:39Z</time>
            </trkpt>
            <trkpt lat="46.328990" lon="11.376370">
                <time>2017-07-15T09:16:40Z</time>
            </trkpt>
            <trkpt lat="46.329090" lon="11.376230">
                <time>2017-07-15T09:16:41Z</time>
            </trkpt>
            <trkpt lat="46.329190" lon="11.376070">
                <time>2017-07-15T09:16:42Z</time>
            </trkpt>
            <trkpt lat="46.329290" lon="11.375940">
                <time>2017-07-15T09:16:43Z</time>
            </trkpt>
            <trkpt lat="46.329400" lon="11.375800">
                <time>2017-07-15T09:16:44Z</time>
            </trkpt>
            <trkpt lat="46.329480" lon="11.375670">
                <time>2017-07-15T09:16:45Z</time>
            </trkpt>
            <trkpt lat="46.329570" lon="11.375560">
                <time>2017-07-15T09:16:46Z</time>
            </trkpt>
            <trkpt lat="46.329660" lon="11.375430">
                <time>2017-07-15T09:16:47Z</time>
            </trkpt>
            <trkpt lat="46.329730" lon="11.375310">
                <time>2017-07-15T09:16:48Z</time>
            </trkpt>
            <trkpt lat="46.329810" lon="11.375190">
                <time>2017-07-15T09:16:49Z</time>
            </trkpt>
            <trkpt lat="46.329890" lon="11.375070">
                <time>2017-07-15T09:16:50Z</time>
            </trkpt>
            <trkpt lat="46.329960" lon="11.374950">
                <time>2017-07-15T09:16:51Z</time>
            </trkpt>
            <trkpt lat="46.330050" lon="11.374830">
                <time>2017-07-15T09:16:52Z</time>
            </trkpt>
            <trkpt lat="46.330120" lon="11.374710">
                <time>2017-07-15T09:16:53Z</time>
            </trkpt>
            <trkpt lat="46.330200" lon="11.374590">
                <time>2017-07-15T09:16:54Z</time>
            </trkpt>
            <trkpt lat="46.330280" lon="11.374460">
                <time>2017-07-15T09:16:55Z</time>
            </trkpt>
            <trkpt lat="46.330370" lon="11.374340">
                <time>2017-07-15T09:16:56Z</time>
            </trkpt>
            <trkpt lat="46.330450" lon="11.374220">
                <time>2017-07-15T09:16:57Z</time>
            </trkpt>
            <trkpt lat="46.330550" lon="11.374090">
                <time>2017-07-15T09:16:58Z</time>
            </trkpt>
            <trkpt lat="46.330640" lon="11.373990">
                <time>2017-07-15T09:16:59Z</time>
            </trkpt>
            <trkpt lat="46.330740" lon="11.373850">
                <time>2017-07-15T09:17:00Z</time>
            </trkpt>
            <trkpt lat="46.330820" lon="11.373720">
                <time>2017-07-15T09:17:01Z</time>
            </trkpt>
            <trkpt lat="46.330900" lon="11.373580">
                <time>2017-07-15T09:17:02Z</time>
            </trkpt>
            <trkpt lat="46.330980" lon="11.373410">
                <time>2017-07-15T09:17:03Z</time>
            </trkpt>
            <trkpt lat="46.331050" lon="11.373260">
                <time>2017-07-15T09:17:04Z</time>
            </trkpt>
            <trkpt lat="46.331120" lon="11.373070">
                <time>2017-07-15T09:17:05Z</time>
            </trkpt>
            <trkpt lat="46.331170" lon="11.372870">
                <time>2017-07-15T09:17:06Z</time>
            </trkpt>
            <trkpt lat="46.331220" lon="11.372670">
                <time>2017-07-15T09:17:07Z</time>
            </trkpt>
            <trkpt lat="46.331270" lon="11.372450">
                <time>2017-07-15T09:17:08Z</time>
            </trkpt>
            <trkpt lat="46.331310" lon="11.372260">
                <time>2017-07-15T09:17:09Z</time>
            </trkpt>
            <trkpt lat="46.331370" lon="11.372060">
                <time>2017-07-15T09:17:10Z</time>
            </trkpt>
            <trkpt lat="46.331450" lon="11.371870">
                <time>2017-07-15T09:17:11Z</time>
            </trkpt>
            <trkpt lat="46.331530" lon="11.371730">
                <time>2017-07-15T09:17:12Z</time>
            </trkpt>
            <trkpt lat="46.331630" lon="11.371600">
                <time>2017-07-15T09:17:13Z</time>
            </trkpt>
            <trkpt lat="46.331750" lon="11.371460">
                <time>2017-07-15T09:17:14Z</time>
            </trkpt>
            <trkpt lat="46.331840" lon="11.371320">
                <time>2017-07-15T09:17:15Z</time>
            </trkpt>
            <trkpt lat="46.331940" lon="11.371140">
                <time>2017-07-15T09:17:16Z</time>
            </trkpt>
            <trkpt lat="46.332000" lon="11.370960">
                <time>2017-07-15T09:17:17Z</time>
            </trkpt>
            <trkpt lat="46.332060" lon="11.370760">
                <time>2017-07-15T09:17:18Z</time>
            </trkpt>
            <trkpt lat="46.332090" lon="11.370530">
                <time>2017-07-15T09:17:19Z</time>
            </trkpt>
            <trkpt lat="46.332090" lon="11.370330">
                <time>2017-07-15T09:17:20Z</time>
            </trkpt>
            <trkpt lat="46.332090" lon="11.370110">
                <time>2017-07-15T09:17:21Z</time>
            </trkpt>
            <trkpt lat="46.332090" lon="11.369880">
                <time>2017-07-15T09:17:22Z</time>
            </trkpt>
            <trkpt lat="46.332100" lon="11.369640">
                <time>2017-07-15T09:17:23Z</time>
            </trkpt>
            <trkpt lat="46.332130" lon="11.369390">
                <time>2017-07-15T09:17:24Z</time>
            </trkpt>
            <trkpt lat="46.332180" lon="11.369170">
                <time>2017-07-15T09:17:25Z</time>
            </trkpt>
            <trkpt lat="46.332250" lon="11.368930">
                <time>2017-07-15T09:17:26Z</time>
            </trkpt>
            <trkpt lat="46.332340" lon="11.368680">
                <time>2017-07-15T09:17:27Z</time>
            </trkpt>
            <trkpt lat="46.332420" lon="11.368450">
                <time>2017-07-15T09:17:28Z</time>
            </trkpt>
            <trkpt lat="46.332520" lon="11.368220">
                <time>2017-07-15T09:17:29Z</time>
            </trkpt>
            <trkpt lat="46.332620" lon="11.367970">
                <time>2017-07-15T09:17:30Z</time>
            </trkpt>
            <trkpt lat="46.332720" lon="11.367760">
                <time>2017-07-15T09:17:31Z</time>
            </trkpt>
            <trkpt lat="46.332830" lon="11.367510">
                <time>2017-07-15T09:17:32Z</time>
            </trkpt>
            <trkpt lat="46.332920" lon="11.367300">
                <time>2017-07-15T09:17:33Z</time>
            </trkpt>
            <trkpt lat="46.333030" lon="11.367070">
                <time>2017-07-15T09:17:34Z</time>
            </trkpt>
            <trkpt lat="46.333150" lon="11.366840">
                <time>2017-07-15T09:17:35Z</time>
            </trkpt>
            <trkpt lat="46.333260" lon="11.366660">
                <time>2017-07-15T09:17:36Z</time>
            </trkpt>
            <trkpt lat="46.333400" lon="11.366480">
                <time>2017-07-15T09:17:37Z</time>
            </trkpt>
            <trkpt lat="46.333560" lon="11.366310">
                <time>2017-07-15T09:17:38Z</time>
            </trkpt>
            <trkpt lat="46.333710" lon="11.366150">
                <time>2017-07-15T09:17:39Z</time>
            </trkpt>
            <trkpt lat="46.333860" lon="11.365970">
                <time>2017-07-15T09:17:40Z</time>
            </trkpt>
            <trkpt lat="46.333980" lon="11.365790">
                <time>2017-07-15T09:17:41Z</time>
            </trkpt>
            <trkpt lat="46.334110" lon="11.365600">
                <time>2017-07-15T09:17:42Z</time>
            </trkpt>
            <trkpt lat="46.334240" lon="11.365390">
                <time>2017-07-15T09:17:43Z</time>
            </trkpt>
            <trkpt lat="46.334330" lon="11.365190">
                <time>2017-07-15T09:17:44Z</time>
            </trkpt>
            <trkpt lat="46.334440" lon="11.365000">
                <time>2017-07-15T09:17:45Z</time>
            </trkpt>
            <trkpt lat="46.334540" lon="11.364800">
                <time>2017-07-15T09:17:46Z</time>
            </trkpt>
            <trkpt lat="46.334590" lon="11.364610">
                <time>2017-07-15T09:17:47Z</time>
            </trkpt>
            <trkpt lat="46.334630" lon="11.364380">
                <time>2017-07-15T09:17:48Z</time>
            </trkpt>
            <trkpt lat="46.334640" lon="11.364160">
                <time>2017-07-15T09:17:49Z</time>
            </trkpt>
            <trkpt lat="46.334630" lon="11.363930">
                <time>2017-07-15T09:17:50Z</time>
            </trkpt>
            <trkpt lat="46.334600" lon="11.363700">
                <time>2017-07-15T09:17:51Z</time>
            </trkpt>
            <trkpt lat="46.334560" lon="11.363490">
                <time>2017-07-15T09:17:52Z</time>
            </trkpt>
            <trkpt lat="46.334520" lon="11.363300">
                <time>2017-07-15T09:17:53Z</time>
            </trkpt>
            <trkpt lat="46.334510" lon="11.363110">
                <time>2017-07-15T09:17:54Z</time>
            </trkpt>
            <trkpt lat="46.334530" lon="11.362930">
                <time>2017-07-15T09:17:55Z</time>
            </trkpt>
            <trkpt lat="46.334590" lon="11.362740">
                <time>2017-07-15T09:17:56Z</time>
            </trkpt>
            <trkpt lat="46.334670" lon="11.362600">
                <time>2017-07-15T09:17:57Z</time>
            </trkpt>
            <trkpt lat="46.334780" lon="11.362460">
                <time>2017-07-15T09:17:58Z</time>
            </trkpt>
            <trkpt lat="46.334920" lon="11.362330">
                <time>2017-07-15T09:17:59Z</time>
            </trkpt>
            <trkpt lat="46.335040" lon="11.362210">
                <time>2017-07-15T09:18:00Z</time>
            </trkpt>
            <trkpt lat="46.335180" lon="11.362080">
                <time>2017-07-15T09:18:01Z</time>
            </trkpt>
            <trkpt lat="46.335330" lon="11.361940">
                <time>2017-07-15T09:18:02Z</time>
            </trkpt>
            <trkpt lat="46.335460" lon="11.361820">
                <time>2017-07-15T09:18:03Z</time>
            </trkpt>
            <trkpt lat="46.335610" lon="11.361670">
                <time>2017-07-15T09:18:04Z</time>
            </trkpt>
            <trkpt lat="46.335750" lon="11.361540">
                <time>2017-07-15T09:18:05Z</time>
            </trkpt>
            <trkpt lat="46.335890" lon="11.361410">
                <time>2017-07-15T09:18:06Z</time>
            </trkpt>
            <trkpt lat="46.336040" lon="11.361260">
                <time>2017-07-15T09:18:07Z</time>
            </trkpt>
            <trkpt lat="46.336180" lon="11.361140">
                <time>2017-07-15T09:18:08Z</time>
            </trkpt>
            <trkpt lat="46.336310" lon="11.361010">
                <time>2017-07-15T09:18:09Z</time>
            </trkpt>
            <trkpt lat="46.336430" lon="11.360870">
                <time>2017-07-15T09:18:10Z</time>
            </trkpt>
            <trkpt lat="46.336570" lon="11.360730">
                <time>2017-07-15T09:18:11Z</time>
            </trkpt>
            <trkpt lat="46.336720" lon="11.360590">
                <time>2017-07-15T09:18:12Z</time>
            </trkpt>
            <trkpt lat="46.336850" lon="11.360460">
                <time>2017-07-15T09:18:13Z</time>
            </trkpt>
            <trkpt lat="46.336990" lon="11.360330">
                <time>2017-07-15T09:18:14Z</time>
            </trkpt>
            <trkpt lat="46.337140" lon="11.360180">
                <time>2017-07-15T09:18:15Z</time>
            </trkpt>
            <trkpt lat="46.337270" lon="11.360060">
                <time>2017-07-15T09:18:16Z</time>
            </trkpt>
            <trkpt lat="46.337410" lon="11.359920">
                <time>2017-07-15T09:18:17Z</time>
            </trkpt>
            <trkpt lat="46.337550" lon="11.359770">
                <time>2017-07-15T09:18:18Z</time>
            </trkpt>
            <trkpt lat="46.337680" lon="11.359650">
                <time>2017-07-15T09:18:19Z</time>
            </trkpt>
            <trkpt lat="46.337840" lon="11.359500">
                <time>2017-07-15T09:18:20Z</time>
            </trkpt>
            <trkpt lat="46.337970" lon="11.359380">
                <time>2017-07-15T09:18:21Z</time>
            </trkpt>
            <trkpt lat="46.338100" lon="11.359250">
                <time>2017-07-15T09:18:22Z</time>
            </trkpt>
            <trkpt lat="46.338240" lon="11.359130">
                <time>2017-07-15T09:18:23Z</time>
            </trkpt>
            <trkpt lat="46.338360" lon="11.359010">
                <time>2017-07-15T09:18:24Z</time>
            </trkpt>
            <trkpt lat="46.338500" lon="11.358900">
                <time>2017-07-15T09:18:25Z</time>
            </trkpt>
            <trkpt lat="46.338650" lon="11.358830">
                <time>2017-07-15T09:18:26Z</time>
            </trkpt>
            <trkpt lat="46.338810" lon="11.358790">
                <time>2017-07-15T09:18:27Z</time>
            </trkpt>
            <trkpt lat="46.338990" lon="11.358780">
                <time>2017-07-15T09:18:28Z</time>
            </trkpt>
            <trkpt lat="46.339140" lon="11.358810">
                <time>2017-07-15T09:18:29Z</time>
            </trkpt>
            <trkpt lat="46.339290" lon="11.358830">
                <time>2017-07-15T09:18:30Z</time>
            </trkpt>
            <trkpt lat="46.339440" lon="11.358840">
                <time>2017-07-15T09:18:31Z</time>
            </trkpt>
            <trkpt lat="46.339570" lon="11.358820">
                <time>2017-07-15T09:18:32Z</time>
            </trkpt>
            <trkpt lat="46.339710" lon="11.358770">
                <time>2017-07-15T09:18:33Z</time>
            </trkpt>
            <trkpt lat="46.339840" lon="11.358680">
                <time>2017-07-15T09:18:34Z</time>
            </trkpt>
            <trkpt lat="46.339960" lon="11.358590">
                <time>2017-07-15T09:18:35Z</time>
            </trkpt>
            <trkpt lat="46.340090" lon="11.358470">
                <time>2017-07-15T09:18:36Z</time>
            </trkpt>
            <trkpt lat="46.340190" lon="11.358330">
                <time>2017-07-15T09:18:37Z</time>
            </trkpt>
            <trkpt lat="46.340290" lon="11.358160">
                <time>2017-07-15T09:18:38Z</time>
            </trkpt>
            <trkpt lat="46.340400" lon="11.357980">
                <time>2017-07-15T09:18:39Z</time>
            </trkpt>
            <trkpt lat="46.340490" lon="11.357820">
                <time>2017-07-15T09:18:40Z</time>
            </trkpt>
            <trkpt lat="46.340590" lon="11.357680">
                <time>2017-07-15T09:18:41Z</time>
            </trkpt>
            <trkpt lat="46.340710" lon="11.357590">
                <time>2017-07-15T09:18:42Z</time>
            </trkpt>
            <trkpt lat="46.340830" lon="11.357510">
                <time>2017-07-15T09:18:43Z</time>
            </trkpt>
            <trkpt lat="46.340980" lon="11.357520">
                <time>2017-07-15T09:18:44Z</time>
            </trkpt>
            <trkpt lat="46.341120" lon="11.357520">
                <time>2017-07-15T09:18:45Z</time>
            </trkpt>
            <trkpt lat="46.341260" lon="11.357550">
                <time>2017-07-15T09:18:46Z</time>
            </trkpt>
            <trkpt lat="46.341400" lon="11.357560">
                <time>2017-07-15T09:18:47Z</time>
            </trkpt>
            <trkpt lat="46.341530" lon="11.357530">
                <time>2017-07-15T09:18:48Z</time>
            </trkpt>
            <trkpt lat="46.341640" lon="11.357490">
                <time>2017-07-15T09:18:49Z</time>
            </trkpt>
            <trkpt lat="46.341750" lon="11.357410">
                <time>2017-07-15T09:18:50Z</time>
            </trkpt>
            <trkpt lat="46.341850" lon="11.357300">
                <time>2017-07-15T09:18:51Z</time>
            </trkpt>
            <trkpt lat="46.341950" lon="11.357140">
                <time>2017-07-15T09:18:52Z</time>
            </trkpt>
            <trkpt lat="46.342050" lon="11.356980">
                <time>2017-07-15T09:18:53Z</time>
            </trkpt>
            <trkpt lat="46.342160" lon="11.356820">
                <time>2017-07-15T09:18:54Z</time>
            </trkpt>
            <trkpt lat="46.342260" lon="11.356640">
                <time>2017-07-15T09:18:55Z</time>
            </trkpt>
            <trkpt lat="46.342350" lon="11.356490">
                <time>2017-07-15T09:18:56Z</time>
            </trkpt>
            <trkpt lat="46.342450" lon="11.356330">
                <time>2017-07-15T09:18:57Z</time>
            </trkpt>
            <trkpt lat="46.342550" lon="11.356180">
                <time>2017-07-15T09:18:58Z</time>
            </trkpt>
            <trkpt lat="46.342650" lon="11.356030">
                <time>2017-07-15T09:18:59Z</time>
            </trkpt>
            <trkpt lat="46.342770" lon="11.355860">
                <time>2017-07-15T09:19:00Z</time>
            </trkpt>
            <trkpt lat="46.342870" lon="11.355720">
                <time>2017-07-15T09:19:01Z</time>
            </trkpt>
            <trkpt lat="46.342980" lon="11.355580">
                <time>2017-07-15T09:19:02Z</time>
            </trkpt>
            <trkpt lat="46.343090" lon="11.355430">
                <time>2017-07-15T09:19:03Z</time>
            </trkpt>
            <trkpt lat="46.343190" lon="11.355300">
                <time>2017-07-15T09:19:04Z</time>
            </trkpt>
            <trkpt lat="46.343280" lon="11.355170">
                <time>2017-07-15T09:19:05Z</time>
            </trkpt>
            <trkpt lat="46.343370" lon="11.355020">
                <time>2017-07-15T09:19:06Z</time>
            </trkpt>
            <trkpt lat="46.343440" lon="11.354880">
                <time>2017-07-15T09:19:07Z</time>
            </trkpt>
            <trkpt lat="46.343510" lon="11.354720">
                <time>2017-07-15T09:19:08Z</time>
            </trkpt>
            <trkpt lat="46.343560" lon="11.354570">
                <time>2017-07-15T09:19:09Z</time>
            </trkpt>
            <trkpt lat="46.343590" lon="11.354420">
                <time>2017-07-15T09:19:10Z</time>
            </trkpt>
            <trkpt lat="46.343580" lon="11.354250">
                <time>2017-07-15T09:19:11Z</time>
            </trkpt>
            <trkpt lat="46.343560" lon="11.354090">
                <time>2017-07-15T09:19:12Z</time>
            </trkpt>
            <trkpt lat="46.343490" lon="11.353910">
                <time>2017-07-15T09:19:13Z</time>
            </trkpt>
            <trkpt lat="46.343410" lon="11.353720">
                <time>2017-07-15T09:19:14Z</time>
            </trkpt>
            <trkpt lat="46.343340" lon="11.353520">
                <time>2017-07-15T09:19:15Z</time>
            </trkpt>
            <trkpt lat="46.343260" lon="11.353300">
                <time>2017-07-15T09:19:16Z</time>
            </trkpt>
            <trkpt lat="46.343200" lon="11.353110">
                <time>2017-07-15T09:19:17Z</time>
            </trkpt>
            <trkpt lat="46.343140" lon="11.352890">
                <time>2017-07-15T09:19:18Z</time>
            </trkpt>
            <trkpt lat="46.343090" lon="11.352660">
                <time>2017-07-15T09:19:19Z</time>
            </trkpt>
            <trkpt lat="46.343040" lon="11.352460">
                <time>2017-07-15T09:19:20Z</time>
            </trkpt>
            <trkpt lat="46.342980" lon="11.352250">
                <time>2017-07-15T09:19:21Z</time>
            </trkpt>
            <trkpt lat="46.342920" lon="11.352030">
                <time>2017-07-15T09:19:22Z</time>
            </trkpt>
            <trkpt lat="46.342850" lon="11.351840">
                <time>2017-07-15T09:19:23Z</time>
            </trkpt>
            <trkpt lat="46.342760" lon="11.351630">
                <time>2017-07-15T09:19:24Z</time>
            </trkpt>
            <trkpt lat="46.342670" lon="11.351460">
                <time>2017-07-15T09:19:25Z</time>
            </trkpt>
            <trkpt lat="46.342560" lon="11.351260">
                <time>2017-07-15T09:19:26Z</time>
            </trkpt>
            <trkpt lat="46.342440" lon="11.351050">
                <time>2017-07-15T09:19:27Z</time>
            </trkpt>
            <trkpt lat="46.342330" lon="11.350870">
                <time>2017-07-15T09:19:28Z</time>
            </trkpt>
            <trkpt lat="46.342230" lon="11.350670">
                <time>2017-07-15T09:19:29Z</time>
            </trkpt>
            <trkpt lat="46.342140" lon="11.350490">
                <time>2017-07-15T09:19:30Z</time>
            </trkpt>
            <trkpt lat="46.342040" lon="11.350320">
                <time>2017-07-15T09:19:31Z</time>
            </trkpt>
            <trkpt lat="46.341950" lon="11.350160">
                <time>2017-07-15T09:19:32Z</time>
            </trkpt>
            <trkpt lat="46.341890" lon="11.350010">
                <time>2017-07-15T09:19:33Z</time>
            </trkpt>
            <trkpt lat="46.341840" lon="11.349840">
                <time>2017-07-15T09:19:34Z</time>
            </trkpt>
            <trkpt lat="46.341810" lon="11.349650">
                <time>2017-07-15T09:19:35Z</time>
            </trkpt>
            <trkpt lat="46.341810" lon="11.349460">
                <time>2017-07-15T09:19:36Z</time>
            </trkpt>
            <trkpt lat="46.341830" lon="11.349260">
                <time>2017-07-15T09:19:37Z</time>
            </trkpt>
            <trkpt lat="46.341880" lon="11.349020">
                <time>2017-07-15T09:19:38Z</time>
            </trkpt>
            <trkpt lat="46.341930" lon="11.348820">
                <time>2017-07-15T09:19:39Z</time>
            </trkpt>
            <trkpt lat="46.341970" lon="11.348590">
                <time>2017-07-15T09:19:40Z</time>
            </trkpt>
            <trkpt lat="46.342010" lon="11.348390">
                <time>2017-07-15T09:19:41Z</time>
            </trkpt>
            <trkpt lat="46.342040" lon="11.348180">
                <time>2017-07-15T09:19:42Z</time>
            </trkpt>
            <trkpt lat="46.342060" lon="11.347950">
                <time>2017-07-15T09:19:43Z</time>
            </trkpt>
            <trkpt lat="46.342070" lon="11.347750">
                <time>2017-07-15T09:19:44Z</time>
            </trkpt>
            <trkpt lat="46.342110" lon="11.347550">
                <time>2017-07-15T09:19:45Z</time>
            </trkpt>
            <trkpt lat="46.342170" lon="11.347370">
                <time>2017-07-15T09:19:46Z</time>
            </trkpt>
            <trkpt lat="46.342250" lon="11.347210">
                <time>2017-07-15T09:19:47Z</time>
            </trkpt>
            <trkpt lat="46.342350" lon="11.347050">
                <time>2017-07-15T09:19:48Z</time>
            </trkpt>
            <trkpt lat="46.342440" lon="11.346940">
                <time>2017-07-15T09:19:49Z</time>
            </trkpt>
            <trkpt lat="46.342520" lon="11.346810">
                <time>2017-07-15T09:19:50Z</time>
            </trkpt>
            <trkpt lat="46.342590" lon="11.346680">
                <time>2017-07-15T09:19:51Z</time>
            </trkpt>
            <trkpt lat="46.342610" lon="11.346550">
                <time>2017-07-15T09:19:52Z</time>
            </trkpt>
            <trkpt lat="46.342600" lon="11.346420">
                <time>2017-07-15T09:19:53Z</time>
            </trkpt>
            <trkpt lat="46.342560" lon="11.346300">
                <time>2017-07-15T09:19:54Z</time>
            </trkpt>
            <trkpt lat="46.342470" lon="11.346220">
                <time>2017-07-15T09:19:55Z</time>
            </trkpt>
            <trkpt lat="46.342360" lon="11.346160">
                <time>2017-07-15T09:19:56Z</time>
            </trkpt>
            <trkpt lat="46.342240" lon="11.346130">
                <time>2017-07-15T09:19:57Z</time>
            </trkpt>
            <trkpt lat="46.342090" lon="11.346100">
                <time>2017-07-15T09:19:58Z</time>
            </trkpt>
            <trkpt lat="46.341940" lon="11.346060">
                <time>2017-07-15T09:19:59Z</time>
            </trkpt>
            <trkpt lat="46.341810" lon="11.346010">
                <time>2017-07-15T09:20:00Z</time>
            </trkpt>
            <trkpt lat="46.341660" lon="11.345970">
                <time>2017-07-15T09:20:01Z</time>
            </trkpt>
            <trkpt lat="46.341520" lon="11.345930">
                <time>2017-07-15T09:20:02Z</time>
            </trkpt>
            <trkpt lat="46.341380" lon="11.345880">
                <time>2017-07-15T09:20:03Z</time>
            </trkpt>
            <trkpt lat="46.341240" lon="11.345840">
                <time>2017-07-15T09:20:04Z</time>
            </trkpt>
            <trkpt lat="46.341120" lon="11.345800">
                <time>2017-07-15T09:20:05Z</time>
            </trkpt>
            <trkpt lat="46.341010" lon="11.345730">
                <time>2017-07-15T09:20:06Z</time>
            </trkpt>
            <trkpt lat="46.340900" lon="11.345630">
                <time>2017-07-15T09:20:07Z</time>
            </trkpt>
            <trkpt lat="46.340800" lon="11.345520">
                <time>2017-07-15T09:20:08Z</time>
            </trkpt>
            <trkpt lat="46.340730" lon="11.345350">
                <time>2017-07-15T09:20:09Z</time>
            </trkpt>
            <trkpt lat="46.340640" lon="11.345180">
                <time>2017-07-15T09:20:10Z</time>
            </trkpt>
            <trkpt lat="46.340600" lon="11.345020">
                <time>2017-07-15T09:20:11Z</time>
            </trkpt>
            <trkpt lat="46.340540" lon="11.344830">
                <time>2017-07-15T09:20:12Z</time>
            </trkpt>
            <trkpt lat="46.340510" lon="11.344650">
                <time>2017-07-15T09:20:13Z</time>
            </trkpt>
            <trkpt lat="46.340500" lon="11.344460">
                <time>2017-07-15T09:20:14Z</time>
            </trkpt>
            <trkpt lat="46.340520" lon="11.344270">
                <time>2017-07-15T09:20:15Z</time>
            </trkpt>
            <trkpt lat="46.340580" lon="11.344120">
                <time>2017-07-15T09:20:16Z</time>
            </trkpt>
            <trkpt lat="46.340650" lon="11.343970">
                <time>2017-07-15T09:20:17Z</time>
            </trkpt>
            <trkpt lat="46.340750" lon="11.343820">
                <time>2017-07-15T09:20:18Z</time>
            </trkpt>
            <trkpt lat="46.340870" lon="11.343670">
                <time>2017-07-15T09:20:19Z</time>
            </trkpt>
            <trkpt lat="46.340990" lon="11.343530">
                <time>2017-07-15T09:20:20Z</time>
            </trkpt>
            <trkpt lat="46.341110" lon="11.343380">
                <time>2017-07-15T09:20:21Z</time>
            </trkpt>
            <trkpt lat="46.341230" lon="11.343240">
                <time>2017-07-15T09:20:22Z</time>
            </trkpt>
            <trkpt lat="46.341350" lon="11.343090">
                <time>2017-07-15T09:20:23Z</time>
            </trkpt>
            <trkpt lat="46.341450" lon="11.342990">
                <time>2017-07-15T09:20:24Z</time>
            </trkpt>
            <trkpt lat="46.341570" lon="11.342910">
                <time>2017-07-15T09:20:25Z</time>
            </trkpt>
            <trkpt lat="46.341680" lon="11.342880">
                <time>2017-07-15T09:20:26Z</time>
            </trkpt>
            <trkpt lat="46.341790" lon="11.342890">
                <time>2017-07-15T09:20:27Z</time>
            </trkpt>
            <trkpt lat="46.341910" lon="11.342900">
                <time>2017-07-15T09:20:28Z</time>
            </trkpt>
            <trkpt lat="46.342030" lon="11.342890">
                <time>2017-07-15T09:20:29Z</time>
            </trkpt>
            <trkpt lat="46.342150" lon="11.342870">
                <time>2017-07-15T09:20:30Z</time>
            </trkpt>
            <trkpt lat="46.342290" lon="11.342790">
                <time>2017-07-15T09:20:31Z</time>
            </trkpt>
            <trkpt lat="46.342410" lon="11.342680">
                <time>2017-07-15T09:20:32Z</time>
            </trkpt>
            <trkpt lat="46.342530" lon="11.342560">
                <time>2017-07-15T09:20:33Z</time>
            </trkpt>
            <trkpt lat="46.342650" lon="11.342400">
                <time>2017-07-15T09:20:34Z</time>
            </trkpt>
            <trkpt lat="46.342770" lon="11.342210">
                <time>2017-07-15T09:20:35Z</time>
            </trkpt>
            <trkpt lat="46.342890" lon="11.342020">
                <time>2017-07-15T09:20:36Z</time>
            </trkpt>
            <trkpt lat="46.342990" lon="11.341840">
                <time>2017-07-15T09:20:37Z</time>
            </trkpt>
            <trkpt lat="46.343100" lon="11.341660">
                <time>2017-07-15T09:20:38Z</time>
            </trkpt>
            <trkpt lat="46.343210" lon="11.341470">
                <time>2017-07-15T09:20:39Z</time>
            </trkpt>
            <trkpt lat="46.343290" lon="11.341320">
                <time>2017-07-15T09:20:40Z</time>
            </trkpt>
            <trkpt lat="46.343370" lon="11.341170">
                <time>2017-07-15T09:20:41Z</time>
            </trkpt>
            <trkpt lat="46.343430" lon="11.341000">
                <time>2017-07-15T09:20:42Z</time>
            </trkpt>
            <trkpt lat="46.343460" lon="11.340830">
                <time>2017-07-15T09:20:43Z</time>
            </trkpt>
            <trkpt lat="46.343460" lon="11.340600">
                <time>2017-07-15T09:20:44Z</time>
            </trkpt>
            <trkpt lat="46.343440" lon="11.340370">
                <time>2017-07-15T09:20:45Z</time>
            </trkpt>
            <trkpt lat="46.343410" lon="11.340090">
                <time>2017-07-15T09:20:46Z</time>
            </trkpt>
            <trkpt lat="46.343370" lon="11.339760">
                <time>2017-07-15T09:20:47Z</time>
            </trkpt>
            <trkpt lat="46.343350" lon="11.339440">
                <time>2017-07-15T09:20:48Z</time>
            </trkpt>
            <trkpt lat="46.343320" lon="11.339100">
                <time>2017-07-15T09:20:49Z</time>
            </trkpt>
            <trkpt lat="46.343290" lon="11.338770">
                <time>2017-07-15T09:20:50Z</time>
            </trkpt>
            <trkpt lat="46.343280" lon="11.338460">
                <time>2017-07-15T09:20:51Z</time>
            </trkpt>
            <trkpt lat="46.343250" lon="11.338160">
                <time>2017-07-15T09:20:52Z</time>
            </trkpt>
            <trkpt lat="46.343230" lon="11.337910">
                <time>2017-07-15T09:20:53Z</time>
            </trkpt>
            <trkpt lat="46.343220" lon="11.337660">
                <time>2017-07-15T09:20:54Z</time>
            </trkpt>
            <trkpt lat="46.343200" lon="11.337420">
                <time>2017-07-15T09:20:55Z</time>
            </trkpt>
            <trkpt lat="46.343180" lon="11.337230">
                <time>2017-07-15T09:20:56Z</time>
            </trkpt>
            <trkpt lat="46.343170" lon="11.337030">
                <time>2017-07-15T09:20:57Z</time>
            </trkpt>
            <trkpt lat="46.343150" lon="11.336820">
                <time>2017-07-15T09:20:58Z</time>
            </trkpt>
            <trkpt lat="46.343130" lon="11.336640">
                <time>2017-07-15T09:20:59Z</time>
            </trkpt>
            <trkpt lat="46.343100" lon="11.336450">
                <time>2017-07-15T09:21:00Z</time>
            </trkpt>
            <trkpt lat="46.343060" lon="11.336290">
                <time>2017-07-15T09:21:01Z</time>
            </trkpt>
            <trkpt lat="46.342980" lon="11.336130">
                <time>2017-07-15T09:21:02Z</time>
            </trkpt>
            <trkpt lat="46.342890" lon="11.335980">
                <time>2017-07-15T09:21:03Z</time>
            </trkpt>
            <trkpt lat="46.342790" lon="11.335880">
                <time>2017-07-15T09:21:04Z</time>
            </trkpt>
            <trkpt lat="46.342670" lon="11.335800">
                <time>2017-07-15T09:21:05Z</time>
            </trkpt>
            <trkpt lat="46.342540" lon="11.335730">
                <time>2017-07-15T09:21:06Z</time>
            </trkpt>
            <trkpt lat="46.342430" lon="11.335660">
                <time>2017-07-15T09:21:07Z</time>
            </trkpt>
            <trkpt lat="46.342320" lon="11.335560">
                <time>2017-07-15T09:21:08Z</time>
            </trkpt>
            <trkpt lat="46.342250" lon="11.335440">
                <time>2017-07-15T09:21:09Z</time>
            </trkpt>
            <trkpt lat="46.342200" lon="11.335300">
                <time>2017-07-15T09:21:10Z</time>
            </trkpt>
            <trkpt lat="46.342190" lon="11.335130">
                <time>2017-07-15T09:21:11Z</time>
            </trkpt>
            <trkpt lat="46.342200" lon="11.334970">
                <time>2017-07-15T09:21:12Z</time>
            </trkpt>
            <trkpt lat="46.342260" lon="11.334820">
                <time>2017-07-15T09:21:13Z</time>
            </trkpt>
            <trkpt lat="46.342350" lon="11.334660">
                <time>2017-07-15T09:21:14Z</time>
            </trkpt>
            <trkpt lat="46.342460" lon="11.334570">
                <time>2017-07-15T09:21:15Z</time>
            </trkpt>
            <trkpt lat="46.342580" lon="11.334460">
                <time>2017-07-15T09:21:16Z</time>
            </trkpt>
            <trkpt lat="46.342700" lon="11.334340">
                <time>2017-07-15T09:21:17Z</time>
            </trkpt>
            <trkpt lat="46.342840" lon="11.334210">
                <time>2017-07-15T09:21:18Z</time>
            </trkpt>
            <trkpt lat="46.342980" lon="11.334070">
                <time>2017-07-15T09:21:19Z</time>
            </trkpt>
            <trkpt lat="46.343100" lon="11.333950">
                <time>2017-07-15T09:21:20Z</time>
            </trkpt>
            <trkpt lat="46.343210" lon="11.333810">
                <time>2017-07-15T09:21:21Z</time>
            </trkpt>
            <trkpt lat="46.343290" lon="11.333650">
                <time>2017-07-15T09:21:22Z</time>
            </trkpt>
            <trkpt lat="46.343360" lon="11.333470">
                <time>2017-07-15T09:21:23Z</time>
            </trkpt>
            <trkpt lat="46.343400" lon="11.333270">
                <time>2017-07-15T09:21:24Z</time>
            </trkpt>
            <trkpt lat="46.343420" lon="11.333070">
                <time>2017-07-15T09:21:25Z</time>
            </trkpt>
            <trkpt lat="46.343400" lon="11.332860">
                <time>2017-07-15T09:21:26Z</time>
            </trkpt>
            <trkpt lat="46.343370" lon="11.332620">
                <time>2017-07-15T09:21:27Z</time>
            </trkpt>
            <trkpt lat="46.343330" lon="11.332400">
                <time>2017-07-15T09:21:28Z</time>
            </trkpt>
            <trkpt lat="46.343290" lon="11.332170">
                <time>2017-07-15T09:21:29Z</time>
            </trkpt>
            <trkpt lat="46.343240" lon="11.331910">
                <time>2017-07-15T09:21:30Z</time>
            </trkpt>
            <trkpt lat="46.343190" lon="11.331680">
                <time>2017-07-15T09:21:31Z</time>
            </trkpt>
            <trkpt lat="46.343150" lon="11.331440">
                <time>2017-07-15T09:21:32Z</time>
            </trkpt>
            <trkpt lat="46.343110" lon="11.331220">
                <time>2017-07-15T09:21:33Z</time>
            </trkpt>
            <trkpt lat="46.343060" lon="11.331000">
                <time>2017-07-15T09:21:34Z</time>
            </trkpt>
            <trkpt lat="46.342980" lon="11.330780">
                <time>2017-07-15T09:21:35Z</time>
            </trkpt>
            <trkpt lat="46.342900" lon="11.330590">
                <time>2017-07-15T09:21:36Z</time>
            </trkpt>
            <trkpt lat="46.342810" lon="11.330390">
                <time>2017-07-15T09:21:37Z</time>
            </trkpt>
            <trkpt lat="46.342720" lon="11.330180">
                <time>2017-07-15T09:21:38Z</time>
            </trkpt>
            <trkpt lat="46.342660" lon="11.329950">
                <time>2017-07-15T09:21:39Z</time>
            </trkpt>
            <trkpt lat="46.342630" lon="11.329690">
                <time>2017-07-15T09:21:40Z</time>
            </trkpt>
            <trkpt lat="46.342610" lon="11.329460">
                <time>2017-07-15T09:21:41Z</time>
            </trkpt>
            <trkpt lat="46.342620" lon="11.329210">
                <time>2017-07-15T09:21:42Z</time>
            </trkpt>
            <trkpt lat="46.342630" lon="11.328940">
                <time>2017-07-15T09:21:43Z</time>
            </trkpt>
            <trkpt lat="46.342640" lon="11.328710">
                <time>2017-07-15T09:21:44Z</time>
            </trkpt>
            <trkpt lat="46.342650" lon="11.328470">
                <time>2017-07-15T09:21:45Z</time>
            </trkpt>
            <trkpt lat="46.342660" lon="11.328220">
                <time>2017-07-15T09:21:46Z</time>
            </trkpt>
            <trkpt lat="46.342670" lon="11.328000">
                <time>2017-07-15T09:21:47Z</time>
            </trkpt>
            <trkpt lat="46.342680" lon="11.327770">
                <time>2017-07-15T09:21:48Z</time>
            </trkpt>
            <trkpt lat="46.342690" lon="11.327560">
                <time>2017-07-15T09:21:49Z</time>
            </trkpt>
            <trkpt lat="46.342690" lon="11.327350">
                <time>2017-07-15T09:21:50Z</time>
            </trkpt>
            <trkpt lat="46.342680" lon="11.327130">
                <time>2017-07-15T09:21:51Z</time>
            </trkpt>
            <trkpt lat="46.342660" lon="11.326930">
                <time>2017-07-15T09:21:52Z</time>
            </trkpt>
            <trkpt lat="46.342620" lon="11.326710">
                <time>2017-07-15T09:21:53Z</time>
            </trkpt>
            <trkpt lat="46.342570" lon="11.326500">
                <time>2017-07-15T09:21:54Z</time>
            </trkpt>
            <trkpt lat="46.342490" lon="11.326290">
                <time>2017-07-15T09:21:55Z</time>
            </trkpt>
            <trkpt lat="46.342400" lon="11.326070">
                <time>2017-07-15T09:21:56Z</time>
            </trkpt>
            <trkpt lat="46.342310" lon="11.325880">
                <time>2017-07-15T09:21:57Z</time>
            </trkpt>
            <trkpt lat="46.342230" lon="11.325700">
                <time>2017-07-15T09:21:58Z</time>
            </trkpt>
            <trkpt lat="46.342150" lon="11.325500">
                <time>2017-07-15T09:21:59Z</time>
            </trkpt>
            <trkpt lat="46.342080" lon="11.325330">
                <time>2017-07-15T09:22:00Z</time>
            </trkpt>
            <trkpt lat="46.342010" lon="11.325140">
                <time>2017-07-15T09:22:01Z</time>
            </trkpt>
            <trkpt lat="46.341930" lon="11.324950">
                <time>2017-07-15T09:22:02Z</time>
            </trkpt>
            <trkpt lat="46.341860" lon="11.324770">
                <time>2017-07-15T09:22:03Z</time>
            </trkpt>
            <trkpt lat="46.341790" lon="11.324560">
                <time>2017-07-15T09:22:04Z</time>
            </trkpt>
            <trkpt lat="46.341730" lon="11.324360">
                <time>2017-07-15T09:22:05Z</time>
            </trkpt>
            <trkpt lat="46.341680" lon="11.324150">
                <time>2017-07-15T09:22:06Z</time>
            </trkpt>
            <trkpt lat="46.341640" lon="11.323920">
                <time>2017-07-15T09:22:07Z</time>
            </trkpt>
            <trkpt lat="46.341620" lon="11.323730">
                <time>2017-07-15T09:22:08Z</time>
            </trkpt>
            <trkpt lat="46.341600" lon="11.323520">
                <time>2017-07-15T09:22:09Z</time>
            </trkpt>
            <trkpt lat="46.341580" lon="11.323320">
                <time>2017-07-15T09:22:10Z</time>
            </trkpt>
            <trkpt lat="46.341560" lon="11.323120">
                <time>2017-07-15T09:22:11Z</time>
            </trkpt>
            <trkpt lat="46.341540" lon="11.322910">
                <time>2017-07-15T09:22:12Z</time>
            </trkpt>
            <trkpt lat="46.341520" lon="11.322740">
                <time>2017-07-15T09:22:13Z</time>
            </trkpt>
            <trkpt lat="46.341500" lon="11.322550">
                <time>2017-07-15T09:22:14Z</time>
            </trkpt>
            <trkpt lat="46.341470" lon="11.322340">
                <time>2017-07-15T09:22:15Z</time>
            </trkpt>
            <trkpt lat="46.341440" lon="11.322150">
                <time>2017-07-15T09:22:16Z</time>
            </trkpt>
            <trkpt lat="46.341400" lon="11.321930">
                <time>2017-07-15T09:22:17Z</time>
            </trkpt>
            <trkpt lat="46.341330" lon="11.321700">
                <time>2017-07-15T09:22:18Z</time>
            </trkpt>
            <trkpt lat="46.341270" lon="11.321500">
                <time>2017-07-15T09:22:19Z</time>
            </trkpt>
            <trkpt lat="46.341170" lon="11.321260">
                <time>2017-07-15T09:22:20Z</time>
            </trkpt>
            <trkpt lat="46.341080" lon="11.321060">
                <time>2017-07-15T09:22:21Z</time>
            </trkpt>
            <trkpt lat="46.340990" lon="11.320840">
                <time>2017-07-15T09:22:22Z</time>
            </trkpt>
            <trkpt lat="46.340890" lon="11.320600">
                <time>2017-07-15T09:22:23Z</time>
            </trkpt>
            <trkpt lat="46.340800" lon="11.320400">
                <time>2017-07-15T09:22:24Z</time>
            </trkpt>
            <trkpt lat="46.340710" lon="11.320180">
                <time>2017-07-15T09:22:25Z</time>
            </trkpt>
            <trkpt lat="46.340620" lon="11.319980">
                <time>2017-07-15T09:22:26Z</time>
            </trkpt>
            <trkpt lat="46.340540" lon="11.319770">
                <time>2017-07-15T09:22:27Z</time>
            </trkpt>
            <trkpt lat="46.340450" lon="11.319560">
                <time>2017-07-15T09:22:28Z</time>
            </trkpt>
            <trkpt lat="46.340380" lon="11.319370">
                <time>2017-07-15T09:22:29Z</time>
            </trkpt>
            <trkpt lat="46.340320" lon="11.319140">
                <time>2017-07-15T09:22:30Z</time>
            </trkpt>
            <trkpt lat="46.340250" lon="11.318900">
                <time>2017-07-15T09:22:31Z</time>
            </trkpt>
            <trkpt lat="46.340210" lon="11.318660">
                <time>2017-07-15T09:22:32Z</time>
            </trkpt>
            <trkpt lat="46.340170" lon="11.318410">
                <time>2017-07-15T09:22:33Z</time>
            </trkpt>
            <trkpt lat="46.340130" lon="11.318140">
                <time>2017-07-15T09:22:34Z</time>
            </trkpt>
            <trkpt lat="46.340100" lon="11.317910">
                <time>2017-07-15T09:22:35Z</time>
            </trkpt>
            <trkpt lat="46.340070" lon="11.317650">
                <time>2017-07-15T09:22:36Z</time>
            </trkpt>
            <trkpt lat="46.340050" lon="11.317440">
                <time>2017-07-15T09:22:37Z</time>
            </trkpt>
            <trkpt lat="46.340020" lon="11.317200">
                <time>2017-07-15T09:22:38Z</time>
            </trkpt>
            <trkpt lat="46.340000" lon="11.316960">
                <time>2017-07-15T09:22:39Z</time>
            </trkpt>
            <trkpt lat="46.339980" lon="11.316740">
                <time>2017-07-15T09:22:40Z</time>
            </trkpt>
            <trkpt lat="46.339950" lon="11.316520">
                <time>2017-07-15T09:22:41Z</time>
            </trkpt>
            <trkpt lat="46.339930" lon="11.316290">
                <time>2017-07-15T09:22:42Z</time>
            </trkpt>
            <trkpt lat="46.339900" lon="11.316070">
                <time>2017-07-15T09:22:43Z</time>
            </trkpt>
            <trkpt lat="46.339870" lon="11.315840">
                <time>2017-07-15T09:22:44Z</time>
            </trkpt>
            <trkpt lat="46.339850" lon="11.315640">
                <time>2017-07-15T09:22:45Z</time>
            </trkpt>
            <trkpt lat="46.339830" lon="11.315430">
                <time>2017-07-15T09:22:46Z</time>
            </trkpt>
            <trkpt lat="46.339810" lon="11.315200">
                <time>2017-07-15T09:22:47Z</time>
            </trkpt>
            <trkpt lat="46.339790" lon="11.315010">
                <time>2017-07-15T09:22:48Z</time>
            </trkpt>
            <trkpt lat="46.339760" lon="11.314800">
                <time>2017-07-15T09:22:49Z</time>
            </trkpt>
            <trkpt lat="46.339740" lon="11.314580">
                <time>2017-07-15T09:22:50Z</time>
            </trkpt>
            <trkpt lat="46.339730" lon="11.314400">
                <time>2017-07-15T09:22:51Z</time>
            </trkpt>
            <trkpt lat="46.339700" lon="11.314190">
                <time>2017-07-15T09:22:52Z</time>
            </trkpt>
            <trkpt lat="46.339680" lon="11.314020">
                <time>2017-07-15T09:22:53Z</time>
            </trkpt>
            <trkpt lat="46.339660" lon="11.313850">
                <time>2017-07-15T09:22:54Z</time>
            </trkpt>
            <trkpt lat="46.339630" lon="11.313690">
                <time>2017-07-15T09:22:55Z</time>
            </trkpt>
            <trkpt lat="46.339620" lon="11.313560">
                <time>2017-07-15T09:22:56Z</time>
            </trkpt>
            <trkpt lat="46.339600" lon="11.313400">
                <time>2017-07-15T09:22:57Z</time>
            </trkpt>
            <trkpt lat="46.339580" lon="11.313220">
                <time>2017-07-15T09:22:58Z</time>
            </trkpt>
            <trkpt lat="46.339550" lon="11.313040">
                <time>2017-07-15T09:22:59Z</time>
            </trkpt>
            <trkpt lat="46.339520" lon="11.312850">
                <time>2017-07-15T09:23:00Z</time>
            </trkpt>
            <trkpt lat="46.339500" lon="11.312670">
                <time>2017-07-15T09:23:01Z</time>
            </trkpt>
            <trkpt lat="46.339480" lon="11.312480">
                <time>2017-07-15T09:23:02Z</time>
            </trkpt>
            <trkpt lat="46.339460" lon="11.312280">
                <time>2017-07-15T09:23:03Z</time>
            </trkpt>
            <trkpt lat="46.339460" lon="11.312110">
                <time>2017-07-15T09:23:04Z</time>
            </trkpt>
            <trkpt lat="46.339460" lon="11.311920">
                <time>2017-07-15T09:23:05Z</time>
            </trkpt>
            <trkpt lat="46.339490" lon="11.311720">
                <time>2017-07-15T09:23:06Z</time>
            </trkpt>
            <trkpt lat="46.339530" lon="11.311550">
                <time>2017-07-15T09:23:07Z</time>
            </trkpt>
            <trkpt lat="46.339580" lon="11.311360">
                <time>2017-07-15T09:23:08Z</time>
            </trkpt>
            <trkpt lat="46.339650" lon="11.311180">
                <time>2017-07-15T09:23:09Z</time>
            </trkpt>
            <trkpt lat="46.339720" lon="11.311000">
                <time>2017-07-15T09:23:10Z</time>
            </trkpt>
            <trkpt lat="46.339800" lon="11.310810">
                <time>2017-07-15T09:23:11Z</time>
            </trkpt>
            <trkpt lat="46.339870" lon="11.310650">
                <time>2017-07-15T09:23:12Z</time>
            </trkpt>
            <trkpt lat="46.339940" lon="11.310470">
                <time>2017-07-15T09:23:13Z</time>
            </trkpt>
            <trkpt lat="46.340020" lon="11.310290">
                <time>2017-07-15T09:23:14Z</time>
            </trkpt>
            <trkpt lat="46.340090" lon="11.310120">
                <time>2017-07-15T09:23:15Z</time>
            </trkpt>
            <trkpt lat="46.340160" lon="11.309940">
                <time>2017-07-15T09:23:16Z</time>
            </trkpt>
            <trkpt lat="46.340230" lon="11.309780">
                <time>2017-07-15T09:23:17Z</time>
            </trkpt>
            <trkpt lat="46.340300" lon="11.309610">
                <time>2017-07-15T09:23:18Z</time>
            </trkpt>
            <trkpt lat="46.340370" lon="11.309430">
                <time>2017-07-15T09:23:19Z</time>
            </trkpt>
            <trkpt lat="46.340440" lon="11.309270">
                <time>2017-07-15T09:23:20Z</time>
            </trkpt>
            <trkpt lat="46.340500" lon="11.309100">
                <time>2017-07-15T09:23:21Z</time>
            </trkpt>
            <trkpt lat="46.340550" lon="11.308920">
                <time>2017-07-15T09:23:22Z</time>
            </trkpt>
            <trkpt lat="46.340580" lon="11.308750">
                <time>2017-07-15T09:23:23Z</time>
            </trkpt>
            <trkpt lat="46.340590" lon="11.308560">
                <time>2017-07-15T09:23:24Z</time>
            </trkpt>
            <trkpt lat="46.340570" lon="11.308390">
                <time>2017-07-15T09:23:25Z</time>
            </trkpt>
            <trkpt lat="46.340520" lon="11.308220">
                <time>2017-07-15T09:23:26Z</time>
            </trkpt>
            <trkpt lat="46.340460" lon="11.308040">
                <time>2017-07-15T09:23:27Z</time>
            </trkpt>
            <trkpt lat="46.340370" lon="11.307900">
                <time>2017-07-15T09:23:28Z</time>
            </trkpt>
            <trkpt lat="46.340260" lon="11.307770">
                <time>2017-07-15T09:23:29Z</time>
            </trkpt>
            <trkpt lat="46.340120" lon="11.307650">
                <time>2017-07-15T09:23:30Z</time>
            </trkpt>
            <trkpt lat="46.339990" lon="11.307550">
                <time>2017-07-15T09:23:31Z</time>
            </trkpt>
            <trkpt lat="46.339840" lon="11.307440">
                <time>2017-07-15T09:23:32Z</time>
            </trkpt>
            <trkpt lat="46.339720" lon="11.307350">
                <time>2017-07-15T09:23:33Z</time>
            </trkpt>
            <trkpt lat="46.339580" lon="11.307260">
                <time>2017-07-15T09:23:34Z</time>
            </trkpt>
            <trkpt lat="46.339450" lon="11.307160">
                <time>2017-07-15T09:23:35Z</time>
            </trkpt>
            <trkpt lat="46.339320" lon="11.307080">
                <time>2017-07-15T09:23:36Z</time>
            </trkpt>
            <trkpt lat="46.339200" lon="11.306980">
                <time>2017-07-15T09:23:37Z</time>
            </trkpt>
            <trkpt lat="46.339070" lon="11.306880">
                <time>2017-07-15T09:23:38Z</time>
            </trkpt>
            <trkpt lat="46.338950" lon="11.306800">
                <time>2017-07-15T09:23:39Z</time>
            </trkpt>
            <trkpt lat="46.338820" lon="11.306710">
                <time>2017-07-15T09:23:40Z</time>
            </trkpt>
            <trkpt lat="46.338710" lon="11.306650">
                <time>2017-07-15T09:23:41Z</time>
            </trkpt>
            <trkpt lat="46.338590" lon="11.306630">
                <time>2017-07-15T09:23:42Z</time>
            </trkpt>
            <trkpt lat="46.338480" lon="11.306650">
                <time>2017-07-15T09:23:43Z</time>
            </trkpt>
            <trkpt lat="46.338400" lon="11.306690">
                <time>2017-07-15T09:23:44Z</time>
            </trkpt>
            <trkpt lat="46.338320" lon="11.306770">
                <time>2017-07-15T09:23:45Z</time>
            </trkpt>
            <trkpt lat="46.338250" lon="11.306860">
                <time>2017-07-15T09:23:46Z</time>
            </trkpt>
            <trkpt lat="46.338190" lon="11.306970">
                <time>2017-07-15T09:23:47Z</time>
            </trkpt>
            <trkpt lat="46.338120" lon="11.307090">
                <time>2017-07-15T09:23:48Z</time>
            </trkpt>
            <trkpt lat="46.338070" lon="11.307190">
                <time>2017-07-15T09:23:49Z</time>
            </trkpt>
            <trkpt lat="46.338020" lon="11.307300">
                <time>2017-07-15T09:23:50Z</time>
            </trkpt>
            <trkpt lat="46.337960" lon="11.307400">
                <time>2017-07-15T09:23:51Z</time>
            </trkpt>
            <trkpt lat="46.337890" lon="11.307490">
                <time>2017-07-15T09:23:52Z</time>
            </trkpt>
            <trkpt lat="46.337810" lon="11.307570">
                <time>2017-07-15T09:23:53Z</time>
            </trkpt>
            <trkpt lat="46.337710" lon="11.307630">
                <time>2017-07-15T09:23:54Z</time>
            </trkpt>
            <trkpt lat="46.337610" lon="11.307650">
                <time>2017-07-15T09:23:55Z</time>
            </trkpt>
            <trkpt lat="46.337490" lon="11.307650">
                <time>2017-07-15T09:23:56Z</time>
            </trkpt>
            <trkpt lat="46.337380" lon="11.307630">
                <time>2017-07-15T09:23:57Z</time>
            </trkpt>
            <trkpt lat="46.337250" lon="11.307600">
                <time>2017-07-15T09:23:58Z</time>
            </trkpt>
            <trkpt lat="46.337130" lon="11.307560">
                <time>2017-07-15T09:23:59Z</time>
            </trkpt>
            <trkpt lat="46.337020" lon="11.307520">
                <time>2017-07-15T09:24:00Z</time>
            </trkpt>
            <trkpt lat="46.336910" lon="11.307480">
                <time>2017-07-15T09:24:01Z</time>
            </trkpt>
            <trkpt lat="46.336800" lon="11.307450">
                <time>2017-07-15T09:24:02Z</time>
            </trkpt>
            <trkpt lat="46.336690" lon="11.307410">
                <time>2017-07-15T09:24:03Z</time>
            </trkpt>
            <trkpt lat="46.336570" lon="11.307370">
                <time>2017-07-15T09:24:04Z</time>
            </trkpt>
            <trkpt lat="46.336480" lon="11.307350">
                <time>2017-07-15T09:24:05Z</time>
            </trkpt>
            <trkpt lat="46.336370" lon="11.307320">
                <time>2017-07-15T09:24:06Z</time>
            </trkpt>
            <trkpt lat="46.336260" lon="11.307310">
                <time>2017-07-15T09:24:07Z</time>
            </trkpt>
            <trkpt lat="46.336150" lon="11.307320">
                <time>2017-07-15T09:24:08Z</time>
            </trkpt>
            <trkpt lat="46.336040" lon="11.307350">
                <time>2017-07-15T09:24:09Z</time>
            </trkpt>
            <trkpt lat="46.335920" lon="11.307410">
                <time>2017-07-15T09:24:10Z</time>
            </trkpt>
            <trkpt lat="46.335820" lon="11.307490">
                <time>2017-07-15T09:24:11Z</time>
            </trkpt>
            <trkpt lat="46.335720" lon="11.307600">
                <time>2017-07-15T09:24:12Z</time>
            </trkpt>
            <trkpt lat="46.335630" lon="11.307710">
                <time>2017-07-15T09:24:13Z</time>
            </trkpt>
            <trkpt lat="46.335530" lon="11.307820">
                <time>2017-07-15T09:24:14Z</time>
            </trkpt>
            <trkpt lat="46.335410" lon="11.307900">
                <time>2017-07-15T09:24:15Z</time>
            </trkpt>
            <trkpt lat="46.335310" lon="11.307950">
                <time>2017-07-15T09:24:16Z</time>
            </trkpt>
            <trkpt lat="46.335190" lon="11.307970">
                <time>2017-07-15T09:24:17Z</time>
            </trkpt>
            <trkpt lat="46.335070" lon="11.307970">
                <time>2017-07-15T09:24:18Z</time>
            </trkpt>
            <trkpt lat="46.334940" lon="11.307950">
                <time>2017-07-15T09:24:19Z</time>
            </trkpt>
            <trkpt lat="46.334800" lon="11.307900">
                <time>2017-07-15T09:24:20Z</time>
            </trkpt>
            <trkpt lat="46.334680" lon="11.307860">
                <time>2017-07-15T09:24:21Z</time>
            </trkpt>
            <trkpt lat="46.334560" lon="11.307820">
                <time>2017-07-15T09:24:22Z</time>
            </trkpt>
            <trkpt lat="46.334420" lon="11.307770">
                <time>2017-07-15T09:24:23Z</time>
            </trkpt>
            <trkpt lat="46.334310" lon="11.307730">
                <time>2017-07-15T09:24:24Z</time>
            </trkpt>
            <trkpt lat="46.334200" lon="11.307690">
                <time>2017-07-15T09:24:25Z</time>
            </trkpt>
            <trkpt lat="46.334090" lon="11.307640">
                <time>2017-07-15T09:24:26Z</time>
            </trkpt>
            <trkpt lat="46.334020" lon="11.307560">
                <time>2017-07-15T09:24:27Z</time>
            </trkpt>
            <trkpt lat="46.333950" lon="11.307450">
                <time>2017-07-15T09:24:28Z</time>
            </trkpt>
            <trkpt lat="46.333910" lon="11.307320">
                <time>2017-07-15T09:24:29Z</time>
            </trkpt>
            <trkpt lat="46.333900" lon="11.307180">
                <time>2017-07-15T09:24:30Z</time>
            </trkpt>
            <trkpt lat="46.333920" lon="11.307020">
                <time>2017-07-15T09:24:31Z</time>
            </trkpt>
            <trkpt lat="46.333970" lon="11.306890">
                <time>2017-07-15T09:24:32Z</time>
            </trkpt>
            <trkpt lat="46.334040" lon="11.306760">
                <time>2017-07-15T09:24:33Z</time>
            </trkpt>
            <trkpt lat="46.334120" lon="11.306630">
                <time>2017-07-15T09:24:34Z</time>
            </trkpt>
            <trkpt lat="46.334200" lon="11.306490">
                <time>2017-07-15T09:24:35Z</time>
            </trkpt>
            <trkpt lat="46.334290" lon="11.306350">
                <time>2017-07-15T09:24:36Z</time>
            </trkpt>
            <trkpt lat="46.334370" lon="11.306220">
                <time>2017-07-15T09:24:37Z</time>
            </trkpt>
            <trkpt lat="46.334460" lon="11.306080">
                <time>2017-07-15T09:24:38Z</time>
            </trkpt>
            <trkpt lat="46.334550" lon="11.305940">
                <time>2017-07-15T09:24:39Z</time>
            </trkpt>
            <trkpt lat="46.334630" lon="11.305820">
                <time>2017-07-15T09:24:40Z</time>
            </trkpt>
            <trkpt lat="46.334710" lon="11.305690">
                <time>2017-07-15T09:24:41Z</time>
            </trkpt>
            <trkpt lat="46.334820" lon="11.305570">
                <time>2017-07-15T09:24:42Z</time>
            </trkpt>
            <trkpt lat="46.334910" lon="11.305470">
                <time>2017-07-15T09:24:43Z</time>
            </trkpt>
            <trkpt lat="46.335030" lon="11.305380">
                <time>2017-07-15T09:24:44Z</time>
            </trkpt>
            <trkpt lat="46.335140" lon="11.305320">
                <time>2017-07-15T09:24:45Z</time>
            </trkpt>
            <trkpt lat="46.335270" lon="11.305290">
                <time>2017-07-15T09:24:46Z</time>
            </trkpt>
            <trkpt lat="46.335400" lon="11.305280">
                <time>2017-07-15T09:24:47Z</time>
            </trkpt>
            <trkpt lat="46.335520" lon="11.305280">
                <time>2017-07-15T09:24:48Z</time>
            </trkpt>
            <trkpt lat="46.335650" lon="11.305260">
                <time>2017-07-15T09:24:49Z</time>
            </trkpt>
            <trkpt lat="46.335770" lon="11.305240">
                <time>2017-07-15T09:24:50Z</time>
            </trkpt>
            <trkpt lat="46.335920" lon="11.305230">
                <time>2017-07-15T09:24:51Z</time>
            </trkpt>
            <trkpt lat="46.336090" lon="11.305210">
                <time>2017-07-15T09:24:52Z</time>
            </trkpt>
            <trkpt lat="46.336260" lon="11.305210">
                <time>2017-07-15T09:24:53Z</time>
            </trkpt>
            <trkpt lat="46.336440" lon="11.305210">
                <time>2017-07-15T09:24:54Z</time>
            </trkpt>
            <trkpt lat="46.336640" lon="11.305210">
                <time>2017-07-15T09:24:55Z</time>
            </trkpt>
            <trkpt lat="46.336810" lon="11.305200">
                <time>2017-07-15T09:24:56Z</time>
            </trkpt>
            <trkpt lat="46.336980" lon="11.305170">
                <time>2017-07-15T09:24:57Z</time>
            </trkpt>
            <trkpt lat="46.337160" lon="11.305150">
                <time>2017-07-15T09:24:58Z</time>
            </trkpt>
            <trkpt lat="46.337310" lon="11.305130">
                <time>2017-07-15T09:24:59Z</time>
            </trkpt>
            <trkpt lat="46.337470" lon="11.305090">
                <time>2017-07-15T09:25:00Z</time>
            </trkpt>
            <trkpt lat="46.337610" lon="11.305070">
                <time>2017-07-15T09:25:01Z</time>
            </trkpt>
            <trkpt lat="46.337760" lon="11.305040">
                <time>2017-07-15T09:25:02Z</time>
            </trkpt>
            <trkpt lat="46.337920" lon="11.305040">
                <time>2017-07-15T09:25:03Z</time>
            </trkpt>
            <trkpt lat="46.338060" lon="11.305070">
                <time>2017-07-15T09:25:04Z</time>
            </trkpt>
            <trkpt lat="46.338210" lon="11.305110">
                <time>2017-07-15T09:25:05Z</time>
            </trkpt>
            <trkpt lat="46.338350" lon="11.305160">
                <time>2017-07-15T09:25:06Z</time>
            </trkpt>
            <trkpt lat="46.338480" lon="11.305220">
                <time>2017-07-15T09:25:07Z</time>
            </trkpt>
            <trkpt lat="46.338610" lon="11.305310">
                <time>2017-07-15T09:25:08Z</time>
            </trkpt>
            <trkpt lat="46.338700" lon="11.305390">
                <time>2017-07-15T09:25:09Z</time>
            </trkpt>
            <trkpt lat="46.338800" lon="11.305490">
                <time>2017-07-15T09:25:10Z</time>
            </trkpt>
            <trkpt lat="46.338890" lon="11.305610">
                <time>2017-07-15T09:25:11Z</time>
            </trkpt>
            <trkpt lat="46.338960" lon="11.305720">
                <time>2017-07-15T09:25:12Z</time>
            </trkpt>
            <trkpt lat="46.339040" lon="11.305820">
                <time>2017-07-15T09:25:13Z</time>
            </trkpt>
            <trkpt lat="46.339140" lon="11.305930">
                <time>2017-07-15T09:25:14Z</time>
            </trkpt>
            <trkpt lat="46.339230" lon="11.306000">
                <time>2017-07-15T09:25:15Z</time>
            </trkpt>
            <trkpt lat="46.339350" lon="11.306070">
                <time>2017-07-15T09:25:16Z</time>
            </trkpt>
            <trkpt lat="46.339470" lon="11.306110">
                <time>2017-07-15T09:25:17Z</time>
            </trkpt>
            <trkpt lat="46.339590" lon="11.306150">
                <time>2017-07-15T09:25:18Z</time>
            </trkpt>
            <trkpt lat="46.339710" lon="11.306200">
                <time>2017-07-15T09:25:19Z</time>
            </trkpt>
            <trkpt lat="46.339820" lon="11.306250">
                <time>2017-07-15T09:25:20Z</time>
            </trkpt>
            <trkpt lat="46.339940" lon="11.306310">
                <time>2017-07-15T09:25:21Z</time>
            </trkpt>
            <trkpt lat="46.340050" lon="11.306370">
                <time>2017-07-15T09:25:22Z</time>
            </trkpt>
            <trkpt lat="46.340140" lon="11.306430">
                <time>2017-07-15T09:25:23Z</time>
            </trkpt>
            <trkpt lat="46.340220" lon="11.306470">
                <time>2017-07-15T09:25:24Z</time>
            </trkpt>
            <trkpt lat="46.340290" lon="11.306500">
                <time>2017-07-15T09:25:25Z</time>
            </trkpt>
            <trkpt lat="46.340360" lon="11.306530">
                <time>2017-07-15T09:25:26Z</time>
            </trkpt>
            <trkpt lat="46.340440" lon="11.306570">
                <time>2017-07-15T09:25:27Z</time>
            </trkpt>
            <trkpt lat="46.340520" lon="11.306600">
                <time>2017-07-15T09:25:28Z</time>
            </trkpt>
            <trkpt lat="46.340600" lon="11.306630">
                <time>2017-07-15T09:25:29Z</time>
            </trkpt>
            <trkpt lat="46.340680" lon="11.306670">
                <time>2017-07-15T09:25:30Z</time>
            </trkpt>
            <trkpt lat="46.340760" lon="11.306710">
                <time>2017-07-15T09:25:31Z</time>
            </trkpt>
            <trkpt lat="46.340840" lon="11.306750">
                <time>2017-07-15T09:25:32Z</time>
            </trkpt>
            <trkpt lat="46.340900" lon="11.306790">
                <time>2017-07-15T09:25:33Z</time>
            </trkpt>
            <trkpt lat="46.340960" lon="11.306830">
                <time>2017-07-15T09:25:34Z</time>
            </trkpt>
            <trkpt lat="46.341010" lon="11.306870">
                <time>2017-07-15T09:25:35Z</time>
            </trkpt>
            <trkpt lat="46.341070" lon="11.306890">
                <time>2017-07-15T09:25:36Z</time>
            </trkpt>
            <trkpt lat="46.341130" lon="11.306920">
                <time>2017-07-15T09:25:37Z</time>
            </trkpt>
            <trkpt lat="46.341190" lon="11.306940">
                <time>2017-07-15T09:25:38Z</time>
            </trkpt>
            <trkpt lat="46.341260" lon="11.306940">
                <time>2017-07-15T09:25:39Z</time>
            </trkpt>
            <trkpt lat="46.341320" lon="11.306890">
                <time>2017-07-15T09:25:40Z</time>
            </trkpt>
            <trkpt lat="46.341340" lon="11.306830">
                <time>2017-07-15T09:25:41Z</time>
            </trkpt>
            <trkpt lat="46.341340" lon="11.306760">
                <time>2017-07-15T09:25:42Z</time>
            </trkpt>
            <trkpt lat="46.341330" lon="11.306680">
                <time>2017-07-15T09:25:43Z</time>
            </trkpt>
            <trkpt lat="46.341310" lon="11.306620">
                <time>2017-07-15T09:25:44Z</time>
            </trkpt>
            <trkpt lat="46.341250" lon="11.306570">
                <time>2017-07-15T09:25:45Z</time>
            </trkpt>
            <trkpt lat="46.341180" lon="11.306550">
                <time>2017-07-15T09:25:46Z</time>
            </trkpt>
            <trkpt lat="46.341090" lon="11.306550">
                <time>2017-07-15T09:25:47Z</time>
            </trkpt>
            <trkpt lat="46.340990" lon="11.306550">
                <time>2017-07-15T09:25:48Z</time>
            </trkpt>
            <trkpt lat="46.340890" lon="11.306530">
                <time>2017-07-15T09:25:49Z</time>
            </trkpt>
            <trkpt lat="46.340790" lon="11.306490">
                <time>2017-07-15T09:25:50Z</time>
            </trkpt>
            <trkpt lat="46.340680" lon="11.306450">
                <time>2017-07-15T09:25:51Z</time>
            </trkpt>
            <trkpt lat="46.340570" lon="11.306410">
                <time>2017-07-15T09:25:52Z</time>
            </trkpt>
            <trkpt lat="46.340470" lon="11.306360">
                <time>2017-07-15T09:25:53Z</time>
            </trkpt>
            <trkpt lat="46.340360" lon="11.306310">
                <time>2017-07-15T09:25:54Z</time>
            </trkpt>
            <trkpt lat="46.340240" lon="11.306260">
                <time>2017-07-15T09:25:55Z</time>
            </trkpt>
            <trkpt lat="46.340110" lon="11.306190">
                <time>2017-07-15T09:25:56Z</time>
            </trkpt>
            <trkpt lat="46.340000" lon="11.306120">
                <time>2017-07-15T09:25:57Z</time>
            </trkpt>
            <trkpt lat="46.339890" lon="11.306040">
                <time>2017-07-15T09:25:58Z</time>
            </trkpt>
            <trkpt lat="46.339760" lon="11.305970">
                <time>2017-07-15T09:25:59Z</time>
            </trkpt>
            <trkpt lat="46.339650" lon="11.305920">
                <time>2017-07-15T09:26:00Z</time>
            </trkpt>
            <trkpt lat="46.339530" lon="11.305880">
                <time>2017-07-15T09:26:01Z</time>
            </trkpt>
            <trkpt lat="46.339410" lon="11.305830">
                <time>2017-07-15T09:26:02Z</time>
            </trkpt>
            <trkpt lat="46.339300" lon="11.305760">
                <time>2017-07-15T09:26:03Z</time>
            </trkpt>
            <trkpt lat="46.339180" lon="11.305660">
                <time>2017-07-15T09:26:04Z</time>
            </trkpt>
            <trkpt lat="46.339090" lon="11.305570">
                <time>2017-07-15T09:26:05Z</time>
            </trkpt>
            <trkpt lat="46.338990" lon="11.305470">
                <time>2017-07-15T09:26:06Z</time>
            </trkpt>
            <trkpt lat="46.338900" lon="11.305350">
                <time>2017-07-15T09:26:07Z</time>
            </trkpt>
            <trkpt lat="46.338810" lon="11.305250">
                <time>2017-07-15T09:26:08Z</time>
            </trkpt>
            <trkpt lat="46.338710" lon="11.305160">
                <time>2017-07-15T09:26:09Z</time>
            </trkpt>
            <trkpt lat="46.338610" lon="11.305060">
                <time>2017-07-15T09:26:10Z</time>
            </trkpt>
            <trkpt lat="46.338520" lon="11.304960">
                <time>2017-07-15T09:26:11Z</time>
            </trkpt>
            <trkpt lat="46.338420" lon="11.304860">
                <time>2017-07-15T09:26:12Z</time>
            </trkpt>
            <trkpt lat="46.338340" lon="11.304770">
                <time>2017-07-15T09:26:13Z</time>
            </trkpt>
            <trkpt lat="46.338240" lon="11.304700">
                <time>2017-07-15T09:26:14Z</time>
            </trkpt>
            <trkpt lat="46.338130" lon="11.304630">
                <time>2017-07-15T09:26:15Z</time>
            </trkpt>
            <trkpt lat="46.338020" lon="11.304580">
                <time>2017-07-15T09:26:16Z</time>
            </trkpt>
            <trkpt lat="46.337910" lon="11.304520">
                <time>2017-07-15T09:26:17Z</time>
            </trkpt>
            <trkpt lat="46.337790" lon="11.304460">
                <time>2017-07-15T09:26:18Z</time>
            </trkpt>
            <trkpt lat="46.337690" lon="11.304400">
                <time>2017-07-15T09:26:19Z</time>
            </trkpt>
            <trkpt lat="46.337570" lon="11.304350">
                <time>2017-07-15T09:26:20Z</time>
            </trkpt>
            <trkpt lat="46.337450" lon="11.304320">
                <time>2017-07-15T09:26:21Z</time>
            </trkpt>
            <trkpt lat="46.337330" lon="11.304290">
                <time>2017-07-15T09:26:22Z</time>
            </trkpt>
            <trkpt lat="46.337190" lon="11.304270">
                <time>2017-07-15T09:26:23Z</time>
            </trkpt>
            <trkpt lat="46.337080" lon="11.304250">
                <time>2017-07-15T09:26:24Z</time>
            </trkpt>
            <trkpt lat="46.336960" lon="11.304250">
                <time>2017-07-15T09:26:25Z</time>
            </trkpt>
            <trkpt lat="46.336840" lon="11.304250">
                <time>2017-07-15T09:26:26Z</time>
            </trkpt>
            <trkpt lat="46.336720" lon="11.304250">
                <time>2017-07-15T09:26:27Z</time>
            </trkpt>
            <trkpt lat="46.336600" lon="11.304260">
                <time>2017-07-15T09:26:28Z</time>
            </trkpt>
            <trkpt lat="46.336480" lon="11.304240">
                <time>2017-07-15T09:26:29Z</time>
            </trkpt>
            <trkpt lat="46.336360" lon="11.304220">
                <time>2017-07-15T09:26:30Z</time>
            </trkpt>
            <trkpt lat="46.336230" lon="11.304190">
                <time>2017-07-15T09:26:31Z</time>
            </trkpt>
            <trkpt lat="46.336120" lon="11.304150">
                <time>2017-07-15T09:26:32Z</time>
            </trkpt>
            <trkpt lat="46.336000" lon="11.304110">
                <time>2017-07-15T09:26:33Z</time>
            </trkpt>
            <trkpt lat="46.335880" lon="11.304050">
                <time>2017-07-15T09:26:34Z</time>
            </trkpt>
            <trkpt lat="46.335780" lon="11.304030">
                <time>2017-07-15T09:26:35Z</time>
            </trkpt>
            <trkpt lat="46.335660" lon="11.303990">
                <time>2017-07-15T09:26:36Z</time>
            </trkpt>
            <trkpt lat="46.335560" lon="11.303940">
                <time>2017-07-15T09:26:37Z</time>
            </trkpt>
            <trkpt lat="46.335440" lon="11.303900">
                <time>2017-07-15T09:26:38Z</time>
            </trkpt>
            <trkpt lat="46.335310" lon="11.303860">
                <time>2017-07-15T09:26:39Z</time>
            </trkpt>
            <trkpt lat="46.335220" lon="11.303790">
                <time>2017-07-15T09:26:40Z</time>
            </trkpt>
            <trkpt lat="46.335100" lon="11.303720">
                <time>2017-07-15T09:26:41Z</time>
            </trkpt>
            <trkpt lat="46.334990" lon="11.303640">
                <time>2017-07-15T09:26:42Z</time>
            </trkpt>
            <trkpt lat="46.334890" lon="11.303570">
                <time>2017-07-15T09:26:43Z</time>
            </trkpt>
            <trkpt lat="46.334760" lon="11.303490">
                <time>2017-07-15T09:26:44Z</time>
            </trkpt>
            <trkpt lat="46.334660" lon="11.303430">
                <time>2017-07-15T09:26:45Z</time>
            </trkpt>
            <trkpt lat="46.334550" lon="11.303360">
                <time>2017-07-15T09:26:46Z</time>
            </trkpt>
            <trkpt lat="46.334410" lon="11.303310">
                <time>2017-07-15T09:26:47Z</time>
            </trkpt>
            <trkpt lat="46.334300" lon="11.303250">
                <time>2017-07-15T09:26:48Z</time>
            </trkpt>
            <trkpt lat="46.334190" lon="11.303200">
                <time>2017-07-15T09:26:49Z</time>
            </trkpt>
            <trkpt lat="46.334060" lon="11.303130">
                <time>2017-07-15T09:26:50Z</time>
            </trkpt>
            <trkpt lat="46.333960" lon="11.303080">
                <time>2017-07-15T09:26:51Z</time>
            </trkpt>
            <trkpt lat="46.333840" lon="11.303020">
                <time>2017-07-15T09:26:52Z</time>
            </trkpt>
            <trkpt lat="46.333740" lon="11.302960">
                <time>2017-07-15T09:26:53Z</time>
            </trkpt>
            <trkpt lat="46.333630" lon="11.302900">
                <time>2017-07-15T09:26:54Z</time>
            </trkpt>
            <trkpt lat="46.333530" lon="11.302830">
                <time>2017-07-15T09:26:55Z</time>
            </trkpt>
            <trkpt lat="46.333440" lon="11.302730">
                <time>2017-07-15T09:26:56Z</time>
            </trkpt>
            <trkpt lat="46.333360" lon="11.302610">
                <time>2017-07-15T09:26:57Z</time>
            </trkpt>
            <trkpt lat="46.333300" lon="11.302480">
                <time>2017-07-15T09:26:58Z</time>
            </trkpt>
            <trkpt lat="46.333250" lon="11.302310">
                <time>2017-07-15T09:26:59Z</time>
            </trkpt>
            <trkpt lat="46.333220" lon="11.302150">
                <time>2017-07-15T09:27:00Z</time>
            </trkpt>
            <trkpt lat="46.333210" lon="11.302000">
                <time>2017-07-15T09:27:01Z</time>
            </trkpt>
            <trkpt lat="46.333210" lon="11.301850">
                <time>2017-07-15T09:27:02Z</time>
            </trkpt>
            <trkpt lat="46.333200" lon="11.301690">
                <time>2017-07-15T09:27:03Z</time>
            </trkpt>
            <trkpt lat="46.333200" lon="11.301550">
                <time>2017-07-15T09:27:04Z</time>
            </trkpt>
            <trkpt lat="46.333190" lon="11.301410">
                <time>2017-07-15T09:27:05Z</time>
            </trkpt>
            <trkpt lat="46.333180" lon="11.301270">
                <time>2017-07-15T09:27:06Z</time>
            </trkpt>
            <trkpt lat="46.333180" lon="11.301150">
                <time>2017-07-15T09:27:07Z</time>
            </trkpt>
            <trkpt lat="46.333170" lon="11.301010">
                <time>2017-07-15T09:27:08Z</time>
            </trkpt>
            <trkpt lat="46.333160" lon="11.300900">
                <time>2017-07-15T09:27:09Z</time>
            </trkpt>
            <trkpt lat="46.333160" lon="11.300800">
                <time>2017-07-15T09:27:10Z</time>
            </trkpt>
            <trkpt lat="46.333160" lon="11.300710">
                <time>2017-07-15T09:27:11Z</time>
            </trkpt>
            <trkpt lat="46.333160" lon="11.300610">
                <time>2017-07-15T09:27:12Z</time>
            </trkpt>
            <trkpt lat="46.333150" lon="11.300510">
                <time>2017-07-15T09:27:13Z</time>
            </trkpt>
            <trkpt lat="46.333150" lon="11.300410">
                <time>2017-07-15T09:27:14Z</time>
            </trkpt>
            <trkpt lat="46.333140" lon="11.300290">
                <time>2017-07-15T09:27:15Z</time>
            </trkpt>
            <trkpt lat="46.333130" lon="11.300160">
                <time>2017-07-15T09:27:16Z</time>
            </trkpt>
            <trkpt lat="46.333140" lon="11.300040">
                <time>2017-07-15T09:27:17Z</time>
            </trkpt>
            <trkpt lat="46.333130" lon="11.299910">
                <time>2017-07-15T09:27:18Z</time>
            </trkpt>
            <trkpt lat="46.333130" lon="11.299760">
                <time>2017-07-15T09:27:19Z</time>
            </trkpt>
            <trkpt lat="46.333130" lon="11.299630">
                <time>2017-07-15T09:27:20Z</time>
            </trkpt>
            <trkpt lat="46.333110" lon="11.299490">
                <time>2017-07-15T09:27:21Z</time>
            </trkpt>
            <trkpt lat="46.333090" lon="11.299320">
                <time>2017-07-15T09:27:22Z</time>
            </trkpt>
            <trkpt lat="46.333060" lon="11.299180">
                <time>2017-07-15T09:27:23Z</time>
            </trkpt>
            <trkpt lat="46.333020" lon="11.299010">
                <time>2017-07-15T09:27:24Z</time>
            </trkpt>
            <trkpt lat="46.332990" lon="11.298850">
                <time>2017-07-15T09:27:25Z</time>
            </trkpt>
            <trkpt lat="46.332940" lon="11.298690">
                <time>2017-07-15T09:27:26Z</time>
            </trkpt>
            <trkpt lat="46.332880" lon="11.298520">
                <time>2017-07-15T09:27:27Z</time>
            </trkpt>
            <trkpt lat="46.332830" lon="11.298370">
                <time>2017-07-15T09:27:28Z</time>
            </trkpt>
            <trkpt lat="46.332770" lon="11.298210">
                <time>2017-07-15T09:27:29Z</time>
            </trkpt>
            <trkpt lat="46.332710" lon="11.298050">
                <time>2017-07-15T09:27:30Z</time>
            </trkpt>
            <trkpt lat="46.332650" lon="11.297880">
                <time>2017-07-15T09:27:31Z</time>
            </trkpt>
            <trkpt lat="46.332580" lon="11.297710">
                <time>2017-07-15T09:27:32Z</time>
            </trkpt>
            <trkpt lat="46.332520" lon="11.297560">
                <time>2017-07-15T09:27:33Z</time>
            </trkpt>
            <trkpt lat="46.332450" lon="11.297400">
                <time>2017-07-15T09:27:34Z</time>
            </trkpt>
            <trkpt lat="46.332390" lon="11.297230">
                <time>2017-07-15T09:27:35Z</time>
            </trkpt>
            <trkpt lat="46.332330" lon="11.297090">
                <time>2017-07-15T09:27:36Z</time>
            </trkpt>
            <trkpt lat="46.332270" lon="11.296950">
                <time>2017-07-15T09:27:37Z</time>
            </trkpt>
            <trkpt lat="46.332210" lon="11.296790">
                <time>2017-07-15T09:27:38Z</time>
            </trkpt>
            <trkpt lat="46.332150" lon="11.296660">
                <time>2017-07-15T09:27:39Z</time>
            </trkpt>
            <trkpt lat="46.332090" lon="11.296510">
                <time>2017-07-15T09:27:40Z</time>
            </trkpt>
            <trkpt lat="46.332040" lon="11.296380">
                <time>2017-07-15T09:27:41Z</time>
            </trkpt>
            <trkpt lat="46.331980" lon="11.296230">
                <time>2017-07-15T09:27:42Z</time>
            </trkpt>
            <trkpt lat="46.331920" lon="11.296080">
                <time>2017-07-15T09:27:43Z</time>
            </trkpt>
            <trkpt lat="46.331880" lon="11.295960">
                <time>2017-07-15T09:27:44Z</time>
            </trkpt>
            <trkpt lat="46.331830" lon="11.295810">
                <time>2017-07-15T09:27:45Z</time>
            </trkpt>
            <trkpt lat="46.331810" lon="11.295660">
                <time>2017-07-15T09:27:46Z</time>
            </trkpt>
            <trkpt lat="46.331810" lon="11.295510">
                <time>2017-07-15T09:27:47Z</time>
            </trkpt>
            <trkpt lat="46.331840" lon="11.295340">
                <time>2017-07-15T09:27:48Z</time>
            </trkpt>
            <trkpt lat="46.331870" lon="11.295210">
                <time>2017-07-15T09:27:49Z</time>
            </trkpt>
            <trkpt lat="46.331940" lon="11.295080">
                <time>2017-07-15T09:27:50Z</time>
            </trkpt>
            <trkpt lat="46.332030" lon="11.294950">
                <time>2017-07-15T09:27:51Z</time>
            </trkpt>
            <trkpt lat="46.332120" lon="11.294880">
                <time>2017-07-15T09:27:52Z</time>
            </trkpt>
            <trkpt lat="46.332240" lon="11.294810">
                <time>2017-07-15T09:27:53Z</time>
            </trkpt>
            <trkpt lat="46.332380" lon="11.294750">
                <time>2017-07-15T09:27:54Z</time>
            </trkpt>
            <trkpt lat="46.332510" lon="11.294690">
                <time>2017-07-15T09:27:55Z</time>
            </trkpt>
            <trkpt lat="46.332650" lon="11.294630">
                <time>2017-07-15T09:27:56Z</time>
            </trkpt>
            <trkpt lat="46.332780" lon="11.294570">
                <time>2017-07-15T09:27:57Z</time>
            </trkpt>
            <trkpt lat="46.332910" lon="11.294520">
                <time>2017-07-15T09:27:58Z</time>
            </trkpt>
            <trkpt lat="46.333050" lon="11.294470">
                <time>2017-07-15T09:27:59Z</time>
            </trkpt>
            <trkpt lat="46.333170" lon="11.294440">
                <time>2017-07-15T09:28:00Z</time>
            </trkpt>
            <trkpt lat="46.333300" lon="11.294420">
                <time>2017-07-15T09:28:01Z</time>
            </trkpt>
            <trkpt lat="46.333440" lon="11.294430">
                <time>2017-07-15T09:28:02Z</time>
            </trkpt>
            <trkpt lat="46.333580" lon="11.294450">
                <time>2017-07-15T09:28:03Z</time>
            </trkpt>
            <trkpt lat="46.333750" lon="11.294490">
                <time>2017-07-15T09:28:04Z</time>
            </trkpt>
            <trkpt lat="46.333890" lon="11.294530">
                <time>2017-07-15T09:28:05Z</time>
            </trkpt>
            <trkpt lat="46.334040" lon="11.294560">
                <time>2017-07-15T09:28:06Z</time>
            </trkpt>
            <trkpt lat="46.334200" lon="11.294580">
                <time>2017-07-15T09:28:07Z</time>
            </trkpt>
            <trkpt lat="46.334330" lon="11.294580">
                <time>2017-07-15T09:28:08Z</time>
            </trkpt>
            <trkpt lat="46.334460" lon="11.294540">
                <time>2017-07-15T09:28:09Z</time>
            </trkpt>
            <trkpt lat="46.334600" lon="11.294490">
                <time>2017-07-15T09:28:10Z</time>
            </trkpt>
            <trkpt lat="46.334720" lon="11.294440">
                <time>2017-07-15T09:28:11Z</time>
            </trkpt>
            <trkpt lat="46.334860" lon="11.294430">
                <time>2017-07-15T09:28:12Z</time>
            </trkpt>
            <trkpt lat="46.334980" lon="11.294450">
                <time>2017-07-15T09:28:13Z</time>
            </trkpt>
            <trkpt lat="46.335110" lon="11.294510">
                <time>2017-07-15T09:28:14Z</time>
            </trkpt>
            <trkpt lat="46.335240" lon="11.294580">
                <time>2017-07-15T09:28:15Z</time>
            </trkpt>
            <trkpt lat="46.335360" lon="11.294660">
                <time>2017-07-15T09:28:16Z</time>
            </trkpt>
            <trkpt lat="46.335490" lon="11.294750">
                <time>2017-07-15T09:28:17Z</time>
            </trkpt>
            <trkpt lat="46.335620" lon="11.294850">
                <time>2017-07-15T09:28:18Z</time>
            </trkpt>
            <trkpt lat="46.335740" lon="11.294960">
                <time>2017-07-15T09:28:19Z</time>
            </trkpt>
            <trkpt lat="46.335880" lon="11.295050">
                <time>2017-07-15T09:28:20Z</time>
            </trkpt>
            <trkpt lat="46.335990" lon="11.295140">
                <time>2017-07-15T09:28:21Z</time>
            </trkpt>
            <trkpt lat="46.336120" lon="11.295240">
                <time>2017-07-15T09:28:22Z</time>
            </trkpt>
            <trkpt lat="46.336260" lon="11.295350">
                <time>2017-07-15T09:28:23Z</time>
            </trkpt>
            <trkpt lat="46.336390" lon="11.295430">
                <time>2017-07-15T09:28:24Z</time>
            </trkpt>
            <trkpt lat="46.336520" lon="11.295520">
                <time>2017-07-15T09:28:25Z</time>
            </trkpt>
            <trkpt lat="46.336660" lon="11.295610">
                <time>2017-07-15T09:28:26Z</time>
            </trkpt>
            <trkpt lat="46.336780" lon="11.295670">
                <time>2017-07-15T09:28:27Z</time>
            </trkpt>
            <trkpt lat="46.336920" lon="11.295720">
                <time>2017-07-15T09:28:28Z</time>
            </trkpt>
            <trkpt lat="46.337030" lon="11.295770">
                <time>2017-07-15T09:28:29Z</time>
            </trkpt>
            <trkpt lat="46.337160" lon="11.295830">
                <time>2017-07-15T09:28:30Z</time>
            </trkpt>
            <trkpt lat="46.337290" lon="11.295880">
                <time>2017-07-15T09:28:31Z</time>
            </trkpt>
            <trkpt lat="46.337410" lon="11.295930">
                <time>2017-07-15T09:28:32Z</time>
            </trkpt>
            <trkpt lat="46.337520" lon="11.295980">
                <time>2017-07-15T09:28:33Z</time>
            </trkpt>
            <trkpt lat="46.337630" lon="11.296020">
                <time>2017-07-15T09:28:34Z</time>
            </trkpt>
            <trkpt lat="46.337730" lon="11.296070">
                <time>2017-07-15T09:28:35Z</time>
            </trkpt>
            <trkpt lat="46.337830" lon="11.296130">
                <time>2017-07-15T09:28:36Z</time>
            </trkpt>
            <trkpt lat="46.337920" lon="11.296190">
                <time>2017-07-15T09:28:37Z</time>
            </trkpt>
            <trkpt lat="46.338020" lon="11.296280">
                <time>2017-07-15T09:28:38Z</time>
            </trkpt>
            <trkpt lat="46.338110" lon="11.296400">
                <time>2017-07-15T09:28:39Z</time>
            </trkpt>
            <trkpt lat="46.338190" lon="11.296520">
                <time>2017-07-15T09:28:40Z</time>
            </trkpt>
            <trkpt lat="46.338260" lon="11.296660">
                <time>2017-07-15T09:28:41Z</time>
            </trkpt>
            <trkpt lat="46.338320" lon="11.296810">
                <time>2017-07-15T09:28:42Z</time>
            </trkpt>
            <trkpt lat="46.338360" lon="11.296940">
                <time>2017-07-15T09:28:43Z</time>
            </trkpt>
            <trkpt lat="46.338410" lon="11.297080">
                <time>2017-07-15T09:28:44Z</time>
            </trkpt>
            <trkpt lat="46.338450" lon="11.297200">
                <time>2017-07-15T09:28:45Z</time>
            </trkpt>
            <trkpt lat="46.338490" lon="11.297300">
                <time>2017-07-15T09:28:46Z</time>
            </trkpt>
            <trkpt lat="46.338550" lon="11.297370">
                <time>2017-07-15T09:28:47Z</time>
            </trkpt>
            <trkpt lat="46.338620" lon="11.297390">
                <time>2017-07-15T09:28:48Z</time>
            </trkpt>
            <trkpt lat="46.338680" lon="11.297370">
                <time>2017-07-15T09:28:49Z</time>
            </trkpt>
            <trkpt lat="46.338740" lon="11.297290">
                <time>2017-07-15T09:28:50Z</time>
            </trkpt>
            <trkpt lat="46.338780" lon="11.297190">
                <time>2017-07-15T09:28:51Z</time>
            </trkpt>
            <trkpt lat="46.338770" lon="11.297060">
                <time>2017-07-15T09:28:52Z</time>
            </trkpt>
            <trkpt lat="46.338730" lon="11.296970">
                <time>2017-07-15T09:28:53Z</time>
            </trkpt>
            <trkpt lat="46.338660" lon="11.296870">
                <time>2017-07-15T09:28:54Z</time>
            </trkpt>
            <trkpt lat="46.338580" lon="11.296760">
                <time>2017-07-15T09:28:55Z</time>
            </trkpt>
            <trkpt lat="46.338500" lon="11.296650">
                <time>2017-07-15T09:28:56Z</time>
            </trkpt>
            <trkpt lat="46.338420" lon="11.296510">
                <time>2017-07-15T09:28:57Z</time>
            </trkpt>
            <trkpt lat="46.338320" lon="11.296360">
                <time>2017-07-15T09:28:58Z</time>
            </trkpt>
            <trkpt lat="46.338230" lon="11.296220">
                <time>2017-07-15T09:28:59Z</time>
            </trkpt>
            <trkpt lat="46.338130" lon="11.296060">
                <time>2017-07-15T09:29:00Z</time>
            </trkpt>
            <trkpt lat="46.338030" lon="11.295900">
                <time>2017-07-15T09:29:01Z</time>
            </trkpt>
            <trkpt lat="46.337930" lon="11.295750">
                <time>2017-07-15T09:29:02Z</time>
            </trkpt>
            <trkpt lat="46.337830" lon="11.295590">
                <time>2017-07-15T09:29:03Z</time>
            </trkpt>
            <trkpt lat="46.337750" lon="11.295450">
                <time>2017-07-15T09:29:04Z</time>
            </trkpt>
            <trkpt lat="46.337650" lon="11.295320">
                <time>2017-07-15T09:29:05Z</time>
            </trkpt>
            <trkpt lat="46.337550" lon="11.295190">
                <time>2017-07-15T09:29:06Z</time>
            </trkpt>
            <trkpt lat="46.337450" lon="11.295090">
                <time>2017-07-15T09:29:07Z</time>
            </trkpt>
            <trkpt lat="46.337330" lon="11.294990">
                <time>2017-07-15T09:29:08Z</time>
            </trkpt>
            <trkpt lat="46.337220" lon="11.294910">
                <time>2017-07-15T09:29:09Z</time>
            </trkpt>
            <trkpt lat="46.337090" lon="11.294840">
                <time>2017-07-15T09:29:10Z</time>
            </trkpt>
            <trkpt lat="46.336950" lon="11.294750">
                <time>2017-07-15T09:29:11Z</time>
            </trkpt>
            <trkpt lat="46.336840" lon="11.294670">
                <time>2017-07-15T09:29:12Z</time>
            </trkpt>
            <trkpt lat="46.336720" lon="11.294590">
                <time>2017-07-15T09:29:13Z</time>
            </trkpt>
            <trkpt lat="46.336600" lon="11.294500">
                <time>2017-07-15T09:29:14Z</time>
            </trkpt>
            <trkpt lat="46.336500" lon="11.294410">
                <time>2017-07-15T09:29:15Z</time>
            </trkpt>
            <trkpt lat="46.336390" lon="11.294300">
                <time>2017-07-15T09:29:16Z</time>
            </trkpt>
            <trkpt lat="46.336300" lon="11.294210">
                <time>2017-07-15T09:29:17Z</time>
            </trkpt>
            <trkpt lat="46.336230" lon="11.294120">
                <time>2017-07-15T09:29:18Z</time>
            </trkpt>
            <trkpt lat="46.336160" lon="11.294020">
                <time>2017-07-15T09:29:19Z</time>
            </trkpt>
            <trkpt lat="46.336110" lon="11.293930">
                <time>2017-07-15T09:29:20Z</time>
            </trkpt>
            <trkpt lat="46.336060" lon="11.293840">
                <time>2017-07-15T09:29:21Z</time>
            </trkpt>
            <trkpt lat="46.336050" lon="11.293740">
                <time>2017-07-15T09:29:22Z</time>
            </trkpt>
            <trkpt lat="46.336060" lon="11.293660">
                <time>2017-07-15T09:29:23Z</time>
            </trkpt>
            <trkpt lat="46.336100" lon="11.293580">
                <time>2017-07-15T09:29:24Z</time>
            </trkpt>
            <trkpt lat="46.336160" lon="11.293540">
                <time>2017-07-15T09:29:25Z</time>
            </trkpt>
            <trkpt lat="46.336230" lon="11.293530">
                <time>2017-07-15T09:29:26Z</time>
            </trkpt>
            <trkpt lat="46.336300" lon="11.293550">
                <time>2017-07-15T09:29:27Z</time>
            </trkpt>
            <trkpt lat="46.336360" lon="11.293590">
                <time>2017-07-15T09:29:28Z</time>
            </trkpt>
            <trkpt lat="46.336420" lon="11.293670">
                <time>2017-07-15T09:29:29Z</time>
            </trkpt>
            <trkpt lat="46.336490" lon="11.293770">
                <time>2017-07-15T09:29:30Z</time>
            </trkpt>
            <trkpt lat="46.336560" lon="11.293850">
                <time>2017-07-15T09:29:31Z</time>
            </trkpt>
            <trkpt lat="46.336650" lon="11.293970">
                <time>2017-07-15T09:29:32Z</time>
            </trkpt>
            <trkpt lat="46.336730" lon="11.294070">
                <time>2017-07-15T09:29:33Z</time>
            </trkpt>
            <trkpt lat="46.336830" lon="11.294170">
                <time>2017-07-15T09:29:34Z</time>
            </trkpt>
            <trkpt lat="46.336930" lon="11.294270">
                <time>2017-07-15T09:29:35Z</time>
            </trkpt>
            <trkpt lat="46.337020" lon="11.294350">
                <time>2017-07-15T09:29:36Z</time>
            </trkpt>
            <trkpt lat="46.337120" lon="11.294420">
                <time>2017-07-15T09:29:37Z</time>
            </trkpt>
            <trkpt lat="46.337220" lon="11.294470">
                <time>2017-07-15T09:29:38Z</time>
            </trkpt>
            <trkpt lat="46.337320" lon="11.294520">
                <time>2017-07-15T09:29:39Z</time>
            </trkpt>
            <trkpt lat="46.337420" lon="11.294570">
                <time>2017-07-15T09:29:40Z</time>
            </trkpt>
            <trkpt lat="46.337520" lon="11.294630">
                <time>2017-07-15T09:29:41Z</time>
            </trkpt>
            <trkpt lat="46.337610" lon="11.294710">
                <time>2017-07-15T09:29:42Z</time>
            </trkpt>
            <trkpt lat="46.337720" lon="11.294810">
                <time>2017-07-15T09:29:43Z</time>
            </trkpt>
            <trkpt lat="46.337800" lon="11.294900">
                <time>2017-07-15T09:29:44Z</time>
            </trkpt>
            <trkpt lat="46.337890" lon="11.295010">
                <time>2017-07-15T09:29:45Z</time>
            </trkpt>
            <trkpt lat="46.337970" lon="11.295130">
                <time>2017-07-15T09:29:46Z</time>
            </trkpt>
            <trkpt lat="46.338040" lon="11.295250">
                <time>2017-07-15T09:29:47Z</time>
            </trkpt>
            <trkpt lat="46.338120" lon="11.295370">
                <time>2017-07-15T09:29:48Z</time>
            </trkpt>
            <trkpt lat="46.338190" lon="11.295480">
                <time>2017-07-15T09:29:49Z</time>
            </trkpt>
            <trkpt lat="46.338270" lon="11.295600">
                <time>2017-07-15T09:29:50Z</time>
            </trkpt>
            <trkpt lat="46.338350" lon="11.295730">
                <time>2017-07-15T09:29:51Z</time>
            </trkpt>
            <trkpt lat="46.338420" lon="11.295840">
                <time>2017-07-15T09:29:52Z</time>
            </trkpt>
            <trkpt lat="46.338510" lon="11.295960">
                <time>2017-07-15T09:29:53Z</time>
            </trkpt>
            <trkpt lat="46.338600" lon="11.296080">
                <time>2017-07-15T09:29:54Z</time>
            </trkpt>
            <trkpt lat="46.338700" lon="11.296200">
                <time>2017-07-15T09:29:55Z</time>
            </trkpt>
            <trkpt lat="46.338800" lon="11.296300">
                <time>2017-07-15T09:29:56Z</time>
            </trkpt>
            <trkpt lat="46.338900" lon="11.296360">
                <time>2017-07-15T09:29:57Z</time>
            </trkpt>
            <trkpt lat="46.339000" lon="11.296420">
                <time>2017-07-15T09:29:58Z</time>
            </trkpt>
            <trkpt lat="46.339120" lon="11.296480">
                <time>2017-07-15T09:29:59Z</time>
            </trkpt>
            <trkpt lat="46.339210" lon="11.296540">
                <time>2017-07-15T09:30:00Z</time>
            </trkpt>
            <trkpt lat="46.339300" lon="11.296630">
                <time>2017-07-15T09:30:01Z</time>
            </trkpt>
            <trkpt lat="46.339400" lon="11.296740">
                <time>2017-07-15T09:30:02Z</time>
            </trkpt>
            <trkpt lat="46.339490" lon="11.296850">
                <time>2017-07-15T09:30:03Z</time>
            </trkpt>
            <trkpt lat="46.339590" lon="11.296960">
                <time>2017-07-15T09:30:04Z</time>
            </trkpt>
            <trkpt lat="46.339680" lon="11.297070">
                <time>2017-07-15T09:30:05Z</time>
            </trkpt>
            <trkpt lat="46.339770" lon="11.297170">
                <time>2017-07-15T09:30:06Z</time>
            </trkpt>
            <trkpt lat="46.339870" lon="11.297270">
                <time>2017-07-15T09:30:07Z</time>
            </trkpt>
            <trkpt lat="46.339950" lon="11.297360">
                <time>2017-07-15T09:30:08Z</time>
            </trkpt>
            <trkpt lat="46.340050" lon="11.297450">
                <time>2017-07-15T09:30:09Z</time>
            </trkpt>
            <trkpt lat="46.340130" lon="11.297550">
                <time>2017-07-15T09:30:10Z</time>
            </trkpt>
            <trkpt lat="46.340230" lon="11.297650">
                <time>2017-07-15T09:30:11Z</time>
            </trkpt>
            <trkpt lat="46.340340" lon="11.297760">
                <time>2017-07-15T09:30:12Z</time>
            </trkpt>
            <trkpt lat="46.340420" lon="11.297850">
                <time>2017-07-15T09:30:13Z</time>
            </trkpt>
            <trkpt lat="46.340520" lon="11.297950">
                <time>2017-07-15T09:30:14Z</time>
            </trkpt>
            <trkpt lat="46.340610" lon="11.298050">
                <time>2017-07-15T09:30:15Z</time>
            </trkpt>
            <trkpt lat="46.340690" lon="11.298110">
                <time>2017-07-15T09:30:16Z</time>
            </trkpt>
            <trkpt lat="46.340780" lon="11.298140">
                <time>2017-07-15T09:30:17Z</time>
            </trkpt>
            <trkpt lat="46.340860" lon="11.298130">
                <time>2017-07-15T09:30:18Z</time>
            </trkpt>
            <trkpt lat="46.340930" lon="11.298070">
                <time>2017-07-15T09:30:19Z</time>
            </trkpt>
            <trkpt lat="46.340970" lon="11.297970">
                <time>2017-07-15T09:30:20Z</time>
            </trkpt>
            <trkpt lat="46.340970" lon="11.297870">
                <time>2017-07-15T09:30:21Z</time>
            </trkpt>
            <trkpt lat="46.340950" lon="11.297740">
                <time>2017-07-15T09:30:22Z</time>
            </trkpt>
            <trkpt lat="46.340880" lon="11.297610">
                <time>2017-07-15T09:30:23Z</time>
            </trkpt>
            <trkpt lat="46.340810" lon="11.297490">
                <time>2017-07-15T09:30:24Z</time>
            </trkpt>
            <trkpt lat="46.340720" lon="11.297350">
                <time>2017-07-15T09:30:25Z</time>
            </trkpt>
            <trkpt lat="46.340640" lon="11.297210">
                <time>2017-07-15T09:30:26Z</time>
            </trkpt>
            <trkpt lat="46.340550" lon="11.297070">
                <time>2017-07-15T09:30:27Z</time>
            </trkpt>
            <trkpt lat="46.340440" lon="11.296950">
                <time>2017-07-15T09:30:28Z</time>
            </trkpt>
            <trkpt lat="46.340340" lon="11.296870">
                <time>2017-07-15T09:30:29Z</time>
            </trkpt>
            <trkpt lat="46.340230" lon="11.296790">
                <time>2017-07-15T09:30:30Z</time>
            </trkpt>
            <trkpt lat="46.340120" lon="11.296700">
                <time>2017-07-15T09:30:31Z</time>
            </trkpt>
            <trkpt lat="46.340030" lon="11.296620">
                <time>2017-07-15T09:30:32Z</time>
            </trkpt>
            <trkpt lat="46.339940" lon="11.296510">
                <time>2017-07-15T09:30:33Z</time>
            </trkpt>
            <trkpt lat="46.339860" lon="11.296380">
                <time>2017-07-15T09:30:34Z</time>
            </trkpt>
            <trkpt lat="46.339800" lon="11.296270">
                <time>2017-07-15T09:30:35Z</time>
            </trkpt>
            <trkpt lat="46.339720" lon="11.296150">
                <time>2017-07-15T09:30:36Z</time>
            </trkpt>
            <trkpt lat="46.339650" lon="11.296060">
                <time>2017-07-15T09:30:37Z</time>
            </trkpt>
            <trkpt lat="46.339580" lon="11.295990">
                <time>2017-07-15T09:30:38Z</time>
            </trkpt>
            <trkpt lat="46.339490" lon="11.295930">
                <time>2017-07-15T09:30:39Z</time>
            </trkpt>
            <trkpt lat="46.339420" lon="11.295870">
                <time>2017-07-15T09:30:40Z</time>
            </trkpt>
            <trkpt lat="46.339340" lon="11.295810">
                <time>2017-07-15T09:30:41Z</time>
            </trkpt>
            <trkpt lat="46.339290" lon="11.295730">
                <time>2017-07-15T09:30:42Z</time>
            </trkpt>
            <trkpt lat="46.339250" lon="11.295640">
                <time>2017-07-15T09:30:43Z</time>
            </trkpt>
            <trkpt lat="46.339250" lon="11.295540">
                <time>2017-07-15T09:30:44Z</time>
            </trkpt>
            <trkpt lat="46.339270" lon="11.295460">
                <time>2017-07-15T09:30:45Z</time>
            </trkpt>
            <trkpt lat="46.339330" lon="11.295380">
                <time>2017-07-15T09:30:46Z</time>
            </trkpt>
            <trkpt lat="46.339390" lon="11.295350">
                <time>2017-07-15T09:30:47Z</time>
            </trkpt>
            <trkpt lat="46.339460" lon="11.295370">
                <time>2017-07-15T09:30:48Z</time>
            </trkpt>
            <trkpt lat="46.339530" lon="11.295420">
                <time>2017-07-15T09:30:49Z</time>
            </trkpt>
            <trkpt lat="46.339590" lon="11.295510">
                <time>2017-07-15T09:30:50Z</time>
            </trkpt>
            <trkpt lat="46.339650" lon="11.295620">
                <time>2017-07-15T09:30:51Z</time>
            </trkpt>
            <trkpt lat="46.339710" lon="11.295760">
                <time>2017-07-15T09:30:52Z</time>
            </trkpt>
            <trkpt lat="46.339770" lon="11.295890">
                <time>2017-07-15T09:30:53Z</time>
            </trkpt>
            <trkpt lat="46.339840" lon="11.296020">
                <time>2017-07-15T09:30:54Z</time>
            </trkpt>
            <trkpt lat="46.339930" lon="11.296160">
                <time>2017-07-15T09:30:55Z</time>
            </trkpt>
            <trkpt lat="46.340000" lon="11.296260">
                <time>2017-07-15T09:30:56Z</time>
            </trkpt>
            <trkpt lat="46.340080" lon="11.296370">
                <time>2017-07-15T09:30:57Z</time>
            </trkpt>
            <trkpt lat="46.340150" lon="11.296460">
                <time>2017-07-15T09:30:58Z</time>
            </trkpt>
            <trkpt lat="46.340240" lon="11.296540">
                <time>2017-07-15T09:30:59Z</time>
            </trkpt>
            <trkpt lat="46.340330" lon="11.296620">
                <time>2017-07-15T09:31:00Z</time>
            </trkpt>
            <trkpt lat="46.340410" lon="11.296680">
                <time>2017-07-15T09:31:01Z</time>
            </trkpt>
            <trkpt lat="46.340500" lon="11.296760">
                <time>2017-07-15T09:31:02Z</time>
            </trkpt>
            <trkpt lat="46.340590" lon="11.296840">
                <time>2017-07-15T09:31:03Z</time>
            </trkpt>
            <trkpt lat="46.340680" lon="11.296910">
                <time>2017-07-15T09:31:04Z</time>
            </trkpt>
            <trkpt lat="46.340770" lon="11.296990">
                <time>2017-07-15T09:31:05Z</time>
            </trkpt>
            <trkpt lat="46.340870" lon="11.297060">
                <time>2017-07-15T09:31:06Z</time>
            </trkpt>
            <trkpt lat="46.340950" lon="11.297150">
                <time>2017-07-15T09:31:07Z</time>
            </trkpt>
            <trkpt lat="46.341020" lon="11.297260">
                <time>2017-07-15T09:31:08Z</time>
            </trkpt>
            <trkpt lat="46.341070" lon="11.297380">
                <time>2017-07-15T09:31:09Z</time>
            </trkpt>
            <trkpt lat="46.341110" lon="11.297520">
                <time>2017-07-15T09:31:10Z</time>
            </trkpt>
            <trkpt lat="46.341140" lon="11.297670">
                <time>2017-07-15T09:31:11Z</time>
            </trkpt>
            <trkpt lat="46.341170" lon="11.297810">
                <time>2017-07-15T09:31:12Z</time>
            </trkpt>
            <trkpt lat="46.341330" lon="11.298820">
                <time>2017-07-15T09:31:19Z</time>
            </trkpt>
            <trkpt lat="46.341340" lon="11.298880">
                <time>2017-07-15T09:31:20Z</time>
            </trkpt>
            <trkpt lat="46.341320" lon="11.298880">
                <time>2017-07-15T09:31:21Z</time>
            </trkpt>
            <trkpt lat="46.341350" lon="11.298880">
                <time>2017-07-15T09:31:22Z</time>
            </trkpt>
            <trkpt lat="46.341340" lon="11.298890">
                <time>2017-07-15T09:31:23Z</time>
            </trkpt>
            <trkpt lat="46.341360" lon="11.298870">
                <time>2017-07-15T09:31:24Z</time>
            </trkpt>
            <trkpt lat="46.341350" lon="11.298890">
                <time>2017-07-15T09:31:25Z</time>
            </trkpt>
            <trkpt lat="46.341330" lon="11.298910">
                <time>2017-07-15T09:31:26Z</time>
            </trkpt>
            <trkpt lat="46.341330" lon="11.298920">
                <time>2017-07-15T09:31:27Z</time>
            </trkpt>
            <trkpt lat="46.341320" lon="11.298950">
                <time>2017-07-15T09:31:28Z</time>
            </trkpt>
            <trkpt lat="46.341340" lon="11.298990">
                <time>2017-07-15T09:31:29Z</time>
            </trkpt>
            <trkpt lat="46.341340" lon="11.299020">
                <time>2017-07-15T09:31:30Z</time>
            </trkpt>
            <trkpt lat="46.341340" lon="11.299040">
                <time>2017-07-15T09:31:31Z</time>
            </trkpt>
            <trkpt lat="46.341360" lon="11.299070">
                <time>2017-07-15T09:31:32Z</time>
            </trkpt>
            <trkpt lat="46.341370" lon="11.299090">
                <time>2017-07-15T09:31:33Z</time>
            </trkpt>
            <trkpt lat="46.341400" lon="11.299120">
                <time>2017-07-15T09:31:34Z</time>
            </trkpt>
            <trkpt lat="46.341490" lon="11.299120">
                <time>2017-07-15T09:31:35Z</time>
            </trkpt>
            <trkpt lat="46.341510" lon="11.299140">
                <time>2017-07-15T09:31:36Z</time>
            </trkpt>
            <trkpt lat="46.341590" lon="11.299150">
                <time>2017-07-15T09:31:37Z</time>
            </trkpt>
            <trkpt lat="46.341650" lon="11.299200">
                <time>2017-07-15T09:31:38Z</time>
            </trkpt>
            <trkpt lat="46.341680" lon="11.299260">
                <time>2017-07-15T09:31:39Z</time>
            </trkpt>
            <trkpt lat="46.341740" lon="11.299330">
                <time>2017-07-15T09:31:40Z</time>
            </trkpt>
            <trkpt lat="46.341800" lon="11.299370">
                <time>2017-07-15T09:31:41Z</time>
            </trkpt>
            <trkpt lat="46.341860" lon="11.299400">
                <time>2017-07-15T09:31:42Z</time>
            </trkpt>
            <trkpt lat="46.341940" lon="11.299410">
                <time>2017-07-15T09:31:43Z</time>
            </trkpt>
            <trkpt lat="46.342000" lon="11.299440">
                <time>2017-07-15T09:31:44Z</time>
            </trkpt>
            <trkpt lat="46.342060" lon="11.299510">
                <time>2017-07-15T09:31:45Z</time>
            </trkpt>
            <trkpt lat="46.342100" lon="11.299620">
                <time>2017-07-15T09:31:46Z</time>
            </trkpt>
            <trkpt lat="46.342140" lon="11.299750">
                <time>2017-07-15T09:31:47Z</time>
            </trkpt>
            <trkpt lat="46.342180" lon="11.299880">
                <time>2017-07-15T09:31:48Z</time>
            </trkpt>
            <trkpt lat="46.342240" lon="11.300000">
                <time>2017-07-15T09:31:49Z</time>
            </trkpt>
            <trkpt lat="46.342320" lon="11.300110">
                <time>2017-07-15T09:31:50Z</time>
            </trkpt>
            <trkpt lat="46.342430" lon="11.300180">
                <time>2017-07-15T09:31:51Z</time>
            </trkpt>
            <trkpt lat="46.342540" lon="11.300210">
                <time>2017-07-15T09:31:52Z</time>
            </trkpt>
            <trkpt lat="46.342670" lon="11.300240">
                <time>2017-07-15T09:31:53Z</time>
            </trkpt>
            <trkpt lat="46.342800" lon="11.300250">
                <time>2017-07-15T09:31:54Z</time>
            </trkpt>
            <trkpt lat="46.342920" lon="11.300230">
                <time>2017-07-15T09:31:55Z</time>
            </trkpt>
            <trkpt lat="46.343040" lon="11.300210">
                <time>2017-07-15T09:31:56Z</time>
            </trkpt>
            <trkpt lat="46.343130" lon="11.300150">
                <time>2017-07-15T09:31:57Z</time>
            </trkpt>
            <trkpt lat="46.343210" lon="11.300050">
                <time>2017-07-15T09:31:58Z</time>
            </trkpt>
            <trkpt lat="46.343300" lon="11.299910">
                <time>2017-07-15T09:31:59Z</time>
            </trkpt>
            <trkpt lat="46.343360" lon="11.299760">
                <time>2017-07-15T09:32:00Z</time>
            </trkpt>
            <trkpt lat="46.343380" lon="11.299580">
                <time>2017-07-15T09:32:01Z</time>
            </trkpt>
            <trkpt lat="46.343380" lon="11.299380">
                <time>2017-07-15T09:32:02Z</time>
            </trkpt>
            <trkpt lat="46.343360" lon="11.299170">
                <time>2017-07-15T09:32:03Z</time>
            </trkpt>
            <trkpt lat="46.343340" lon="11.298950">
                <time>2017-07-15T09:32:04Z</time>
            </trkpt>
            <trkpt lat="46.343310" lon="11.298750">
                <time>2017-07-15T09:32:05Z</time>
            </trkpt>
            <trkpt lat="46.343300" lon="11.298570">
                <time>2017-07-15T09:32:06Z</time>
            </trkpt>
            <trkpt lat="46.343290" lon="11.298390">
                <time>2017-07-15T09:32:07Z</time>
            </trkpt>
            <trkpt lat="46.343280" lon="11.298240">
                <time>2017-07-15T09:32:08Z</time>
            </trkpt>
            <trkpt lat="46.343290" lon="11.298070">
                <time>2017-07-15T09:32:09Z</time>
            </trkpt>
            <trkpt lat="46.343280" lon="11.297900">
                <time>2017-07-15T09:32:10Z</time>
            </trkpt>
            <trkpt lat="46.343290" lon="11.297740">
                <time>2017-07-15T09:32:11Z</time>
            </trkpt>
            <trkpt lat="46.343300" lon="11.297580">
                <time>2017-07-15T09:32:12Z</time>
            </trkpt>
            <trkpt lat="46.343330" lon="11.297440">
                <time>2017-07-15T09:32:13Z</time>
            </trkpt>
            <trkpt lat="46.343380" lon="11.297290">
                <time>2017-07-15T09:32:14Z</time>
            </trkpt>
            <trkpt lat="46.343430" lon="11.297150">
                <time>2017-07-15T09:32:15Z</time>
            </trkpt>
            <trkpt lat="46.343480" lon="11.297020">
                <time>2017-07-15T09:32:16Z</time>
            </trkpt>
            <trkpt lat="46.343550" lon="11.296920">
                <time>2017-07-15T09:32:17Z</time>
            </trkpt>
            <trkpt lat="46.343630" lon="11.296810">
                <time>2017-07-15T09:32:18Z</time>
            </trkpt>
            <trkpt lat="46.343720" lon="11.296710">
                <time>2017-07-15T09:32:19Z</time>
            </trkpt>
            <trkpt lat="46.343820" lon="11.296610">
                <time>2017-07-15T09:32:20Z</time>
            </trkpt>
            <trkpt lat="46.343920" lon="11.296530">
                <time>2017-07-15T09:32:21Z</time>
            </trkpt>
            <trkpt lat="46.344040" lon="11.296460">
                <time>2017-07-15T09:32:22Z</time>
            </trkpt>
            <trkpt lat="46.344150" lon="11.296380">
                <time>2017-07-15T09:32:23Z</time>
            </trkpt>
            <trkpt lat="46.344250" lon="11.296310">
                <time>2017-07-15T09:32:24Z</time>
            </trkpt>
            <trkpt lat="46.344330" lon="11.296250">
                <time>2017-07-15T09:32:25Z</time>
            </trkpt>
            <trkpt lat="46.344420" lon="11.296180">
                <time>2017-07-15T09:32:26Z</time>
            </trkpt>
            <trkpt lat="46.344500" lon="11.296130">
                <time>2017-07-15T09:32:27Z</time>
            </trkpt>
            <trkpt lat="46.344590" lon="11.296060">
                <time>2017-07-15T09:32:28Z</time>
            </trkpt>
            <trkpt lat="46.344670" lon="11.296000">
                <time>2017-07-15T09:32:29Z</time>
            </trkpt>
            <trkpt lat="46.344750" lon="11.295940">
                <time>2017-07-15T09:32:30Z</time>
            </trkpt>
            <trkpt lat="46.344840" lon="11.295880">
                <time>2017-07-15T09:32:31Z</time>
            </trkpt>
            <trkpt lat="46.344910" lon="11.295850">
                <time>2017-07-15T09:32:32Z</time>
            </trkpt>
            <trkpt lat="46.345000" lon="11.295820">
                <time>2017-07-15T09:32:33Z</time>
            </trkpt>
            <trkpt lat="46.345080" lon="11.295790">
                <time>2017-07-15T09:32:34Z</time>
            </trkpt>
            <trkpt lat="46.345170" lon="11.295760">
                <time>2017-07-15T09:32:35Z</time>
            </trkpt>
            <trkpt lat="46.345280" lon="11.295730">
                <time>2017-07-15T09:32:36Z</time>
            </trkpt>
            <trkpt lat="46.345370" lon="11.295700">
                <time>2017-07-15T09:32:37Z</time>
            </trkpt>
            <trkpt lat="46.345460" lon="11.295670">
                <time>2017-07-15T09:32:38Z</time>
            </trkpt>
            <trkpt lat="46.345560" lon="11.295640">
                <time>2017-07-15T09:32:39Z</time>
            </trkpt>
            <trkpt lat="46.345650" lon="11.295620">
                <time>2017-07-15T09:32:40Z</time>
            </trkpt>
            <trkpt lat="46.345760" lon="11.295620">
                <time>2017-07-15T09:32:41Z</time>
            </trkpt>
            <trkpt lat="46.345870" lon="11.295610">
                <time>2017-07-15T09:32:42Z</time>
            </trkpt>
            <trkpt lat="46.345960" lon="11.295610">
                <time>2017-07-15T09:32:43Z</time>
            </trkpt>
            <trkpt lat="46.346060" lon="11.295600">
                <time>2017-07-15T09:32:44Z</time>
            </trkpt>
            <trkpt lat="46.346130" lon="11.295590">
                <time>2017-07-15T09:32:45Z</time>
            </trkpt>
            <trkpt lat="46.346190" lon="11.295580">
                <time>2017-07-15T09:32:46Z</time>
            </trkpt>
            <trkpt lat="46.346230" lon="11.295560">
                <time>2017-07-15T09:32:47Z</time>
            </trkpt>
            <trkpt lat="46.346240" lon="11.295540">
                <time>2017-07-15T09:32:48Z</time>
            </trkpt>
            <trkpt lat="46.346240" lon="11.295540">
                <time>2017-07-15T09:32:49Z</time>
            </trkpt>
            <trkpt lat="46.346240" lon="11.295550">
                <time>2017-07-15T09:32:50Z</time>
            </trkpt>
            <trkpt lat="46.346240" lon="11.295550">
                <time>2017-07-15T09:32:51Z</time>
            </trkpt>
            <trkpt lat="46.346240" lon="11.295550">
                <time>2017-07-15T09:32:52Z</time>
            </trkpt>
            <trkpt lat="46.346240" lon="11.295550">
                <time>2017-07-15T09:32:53Z</time>
            </trkpt>
            <trkpt lat="46.346240" lon="11.295550">
                <time>2017-07-15T09:32:54Z</time>
            </trkpt>
            <trkpt lat="46.346240" lon="11.295550">
                <time>2017-07-15T09:32:55Z</time>
            </trkpt>
            <trkpt lat="46.346240" lon="11.295550">
                <time>2017-07-15T09:32:56Z</time>
            </trkpt>
            <trkpt lat="46.346240" lon="11.295550">
                <time>2017-07-15T09:32:57Z</time>
            </trkpt>
            <trkpt lat="46.346250" lon="11.295550">
                <time>2017-07-15T09:32:58Z</time>
            </trkpt>
            <trkpt lat="46.346270" lon="11.295530">
                <time>2017-07-15T09:32:59Z</time>
            </trkpt>
            <trkpt lat="46.346300" lon="11.295500">
                <time>2017-07-15T09:33:00Z</time>
            </trkpt>
            <trkpt lat="46.346330" lon="11.295450">
                <time>2017-07-15T09:33:01Z</time>
            </trkpt>
            <trkpt lat="46.346380" lon="11.295390">
                <time>2017-07-15T09:33:02Z</time>
            </trkpt>
            <trkpt lat="46.346440" lon="11.295320">
                <time>2017-07-15T09:33:03Z</time>
            </trkpt>
            <trkpt lat="46.346510" lon="11.295260">
                <time>2017-07-15T09:33:04Z</time>
            </trkpt>
            <trkpt lat="46.346570" lon="11.295180">
                <time>2017-07-15T09:33:05Z</time>
            </trkpt>
            <trkpt lat="46.346650" lon="11.295110">
                <time>2017-07-15T09:33:06Z</time>
            </trkpt>
            <trkpt lat="46.346720" lon="11.295030">
                <time>2017-07-15T09:33:07Z</time>
            </trkpt>
            <trkpt lat="46.346800" lon="11.294950">
                <time>2017-07-15T09:33:08Z</time>
            </trkpt>
            <trkpt lat="46.346860" lon="11.294880">
                <time>2017-07-15T09:33:09Z</time>
            </trkpt>
            <trkpt lat="46.346920" lon="11.294800">
                <time>2017-07-15T09:33:10Z</time>
            </trkpt>
            <trkpt lat="46.347000" lon="11.294730">
                <time>2017-07-15T09:33:11Z</time>
            </trkpt>
            <trkpt lat="46.347060" lon="11.294670">
                <time>2017-07-15T09:33:12Z</time>
            </trkpt>
            <trkpt lat="46.347120" lon="11.294610">
                <time>2017-07-15T09:33:13Z</time>
            </trkpt>
            <trkpt lat="46.347160" lon="11.294560">
                <time>2017-07-15T09:33:14Z</time>
            </trkpt>
            <trkpt lat="46.347210" lon="11.294540">
                <time>2017-07-15T09:33:15Z</time>
            </trkpt>
            <trkpt lat="46.347260" lon="11.294530">
                <time>2017-07-15T09:33:16Z</time>
            </trkpt>
            <trkpt lat="46.347310" lon="11.294540">
                <time>2017-07-15T09:33:17Z</time>
            </trkpt>
            <trkpt lat="46.347370" lon="11.294530">
                <time>2017-07-15T09:33:18Z</time>
            </trkpt>
            <trkpt lat="46.347430" lon="11.294490">
                <time>2017-07-15T09:33:19Z</time>
            </trkpt>
            <trkpt lat="46.347480" lon="11.294410">
                <time>2017-07-15T09:33:20Z</time>
            </trkpt>
            <trkpt lat="46.347500" lon="11.294320">
                <time>2017-07-15T09:33:21Z</time>
            </trkpt>
            <trkpt lat="46.347530" lon="11.294220">
                <time>2017-07-15T09:33:22Z</time>
            </trkpt>
            <trkpt lat="46.347580" lon="11.294120">
                <time>2017-07-15T09:33:23Z</time>
            </trkpt>
            <trkpt lat="46.347660" lon="11.294020">
                <time>2017-07-15T09:33:24Z</time>
            </trkpt>
            <trkpt lat="46.347740" lon="11.293930">
                <time>2017-07-15T09:33:25Z</time>
            </trkpt>
            <trkpt lat="46.347830" lon="11.293820">
                <time>2017-07-15T09:33:26Z</time>
            </trkpt>
            <trkpt lat="46.347920" lon="11.293690">
                <time>2017-07-15T09:33:27Z</time>
            </trkpt>
            <trkpt lat="46.348000" lon="11.293570">
                <time>2017-07-15T09:33:28Z</time>
            </trkpt>
            <trkpt lat="46.348100" lon="11.293450">
                <time>2017-07-15T09:33:29Z</time>
            </trkpt>
            <trkpt lat="46.348200" lon="11.293310">
                <time>2017-07-15T09:33:30Z</time>
            </trkpt>
            <trkpt lat="46.348300" lon="11.293190">
                <time>2017-07-15T09:33:31Z</time>
            </trkpt>
            <trkpt lat="46.348420" lon="11.293070">
                <time>2017-07-15T09:33:32Z</time>
            </trkpt>
            <trkpt lat="46.348530" lon="11.292970">
                <time>2017-07-15T09:33:33Z</time>
            </trkpt>
            <trkpt lat="46.348660" lon="11.292880">
                <time>2017-07-15T09:33:34Z</time>
            </trkpt>
            <trkpt lat="46.348800" lon="11.292790">
                <time>2017-07-15T09:33:35Z</time>
            </trkpt>
            <trkpt lat="46.348940" lon="11.292700">
                <time>2017-07-15T09:33:36Z</time>
            </trkpt>
            <trkpt lat="46.349090" lon="11.292610">
                <time>2017-07-15T09:33:37Z</time>
            </trkpt>
            <trkpt lat="46.349250" lon="11.292520">
                <time>2017-07-15T09:33:38Z</time>
            </trkpt>
            <trkpt lat="46.349410" lon="11.292420">
                <time>2017-07-15T09:33:39Z</time>
            </trkpt>
            <trkpt lat="46.349560" lon="11.292330">
                <time>2017-07-15T09:33:40Z</time>
            </trkpt>
            <trkpt lat="46.349700" lon="11.292250">
                <time>2017-07-15T09:33:41Z</time>
            </trkpt>
            <trkpt lat="46.349850" lon="11.292160">
                <time>2017-07-15T09:33:42Z</time>
            </trkpt>
            <trkpt lat="46.350000" lon="11.292070">
                <time>2017-07-15T09:33:43Z</time>
            </trkpt>
            <trkpt lat="46.350130" lon="11.292000">
                <time>2017-07-15T09:33:44Z</time>
            </trkpt>
            <trkpt lat="46.350260" lon="11.291910">
                <time>2017-07-15T09:33:45Z</time>
            </trkpt>
            <trkpt lat="46.350400" lon="11.291830">
                <time>2017-07-15T09:33:46Z</time>
            </trkpt>
            <trkpt lat="46.350520" lon="11.291760">
                <time>2017-07-15T09:33:47Z</time>
            </trkpt>
            <trkpt lat="46.350660" lon="11.291670">
                <time>2017-07-15T09:33:48Z</time>
            </trkpt>
            <trkpt lat="46.350790" lon="11.291600">
                <time>2017-07-15T09:33:49Z</time>
            </trkpt>
            <trkpt lat="46.350920" lon="11.291510">
                <time>2017-07-15T09:33:50Z</time>
            </trkpt>
            <trkpt lat="46.351060" lon="11.291400">
                <time>2017-07-15T09:33:51Z</time>
            </trkpt>
            <trkpt lat="46.351170" lon="11.291300">
                <time>2017-07-15T09:33:52Z</time>
            </trkpt>
            <trkpt lat="46.351280" lon="11.291180">
                <time>2017-07-15T09:33:53Z</time>
            </trkpt>
            <trkpt lat="46.351400" lon="11.291060">
                <time>2017-07-15T09:33:54Z</time>
            </trkpt>
            <trkpt lat="46.351500" lon="11.290930">
                <time>2017-07-15T09:33:55Z</time>
            </trkpt>
            <trkpt lat="46.351600" lon="11.290800">
                <time>2017-07-15T09:33:56Z</time>
            </trkpt>
            <trkpt lat="46.351680" lon="11.290680">
                <time>2017-07-15T09:33:57Z</time>
            </trkpt>
            <trkpt lat="46.351750" lon="11.290570">
                <time>2017-07-15T09:33:58Z</time>
            </trkpt>
            <trkpt lat="46.351820" lon="11.290430">
                <time>2017-07-15T09:33:59Z</time>
            </trkpt>
            <trkpt lat="46.351880" lon="11.290300">
                <time>2017-07-15T09:34:00Z</time>
            </trkpt>
            <trkpt lat="46.351960" lon="11.290140">
                <time>2017-07-15T09:34:01Z</time>
            </trkpt>
            <trkpt lat="46.352040" lon="11.289940">
                <time>2017-07-15T09:34:02Z</time>
            </trkpt>
            <trkpt lat="46.352120" lon="11.289750">
                <time>2017-07-15T09:34:03Z</time>
            </trkpt>
            <trkpt lat="46.352210" lon="11.289510">
                <time>2017-07-15T09:34:04Z</time>
            </trkpt>
            <trkpt lat="46.352280" lon="11.289300">
                <time>2017-07-15T09:34:05Z</time>
            </trkpt>
            <trkpt lat="46.352340" lon="11.289080">
                <time>2017-07-15T09:34:06Z</time>
            </trkpt>
            <trkpt lat="46.352400" lon="11.288840">
                <time>2017-07-15T09:34:07Z</time>
            </trkpt>
            <trkpt lat="46.352440" lon="11.288640">
                <time>2017-07-15T09:34:08Z</time>
            </trkpt>
            <trkpt lat="46.352490" lon="11.288450">
                <time>2017-07-15T09:34:09Z</time>
            </trkpt>
            <trkpt lat="46.352520" lon="11.288290">
                <time>2017-07-15T09:34:10Z</time>
            </trkpt>
            <trkpt lat="46.352550" lon="11.288170">
                <time>2017-07-15T09:34:11Z</time>
            </trkpt>
            <trkpt lat="46.352570" lon="11.288050">
                <time>2017-07-15T09:34:12Z</time>
            </trkpt>
            <trkpt lat="46.352590" lon="11.287950">
                <time>2017-07-15T09:34:13Z</time>
            </trkpt>
            <trkpt lat="46.352610" lon="11.287840">
                <time>2017-07-15T09:34:14Z</time>
            </trkpt>
            <trkpt lat="46.352640" lon="11.287710">
                <time>2017-07-15T09:34:15Z</time>
            </trkpt>
            <trkpt lat="46.352670" lon="11.287590">
                <time>2017-07-15T09:34:16Z</time>
            </trkpt>
            <trkpt lat="46.352710" lon="11.287450">
                <time>2017-07-15T09:34:17Z</time>
            </trkpt>
            <trkpt lat="46.352750" lon="11.287290">
                <time>2017-07-15T09:34:18Z</time>
            </trkpt>
            <trkpt lat="46.352790" lon="11.287130">
                <time>2017-07-15T09:34:19Z</time>
            </trkpt>
            <trkpt lat="46.352830" lon="11.286950">
                <time>2017-07-15T09:34:20Z</time>
            </trkpt>
            <trkpt lat="46.352880" lon="11.286780">
                <time>2017-07-15T09:34:21Z</time>
            </trkpt>
            <trkpt lat="46.352920" lon="11.286600">
                <time>2017-07-15T09:34:22Z</time>
            </trkpt>
            <trkpt lat="46.352970" lon="11.286400">
                <time>2017-07-15T09:34:23Z</time>
            </trkpt>
            <trkpt lat="46.353010" lon="11.286240">
                <time>2017-07-15T09:34:24Z</time>
            </trkpt>
            <trkpt lat="46.353060" lon="11.286080">
                <time>2017-07-15T09:34:25Z</time>
            </trkpt>
            <trkpt lat="46.353110" lon="11.285930">
                <time>2017-07-15T09:34:26Z</time>
            </trkpt>
            <trkpt lat="46.353190" lon="11.285800">
                <time>2017-07-15T09:34:27Z</time>
            </trkpt>
            <trkpt lat="46.353290" lon="11.285670">
                <time>2017-07-15T09:34:28Z</time>
            </trkpt>
            <trkpt lat="46.353390" lon="11.285560">
                <time>2017-07-15T09:34:29Z</time>
            </trkpt>
            <trkpt lat="46.353510" lon="11.285480">
                <time>2017-07-15T09:34:30Z</time>
            </trkpt>
            <trkpt lat="46.353650" lon="11.285420">
                <time>2017-07-15T09:34:31Z</time>
            </trkpt>
            <trkpt lat="46.353780" lon="11.285370">
                <time>2017-07-15T09:34:32Z</time>
            </trkpt>
            <trkpt lat="46.353930" lon="11.285310">
                <time>2017-07-15T09:34:33Z</time>
            </trkpt>
            <trkpt lat="46.354060" lon="11.285240">
                <time>2017-07-15T09:34:34Z</time>
            </trkpt>
            <trkpt lat="46.354170" lon="11.285150">
                <time>2017-07-15T09:34:35Z</time>
            </trkpt>
            <trkpt lat="46.354290" lon="11.285020">
                <time>2017-07-15T09:34:36Z</time>
            </trkpt>
            <trkpt lat="46.354380" lon="11.284870">
                <time>2017-07-15T09:34:37Z</time>
            </trkpt>
            <trkpt lat="46.354460" lon="11.284690">
                <time>2017-07-15T09:34:38Z</time>
            </trkpt>
            <trkpt lat="46.354540" lon="11.284470">
                <time>2017-07-15T09:34:39Z</time>
            </trkpt>
            <trkpt lat="46.354600" lon="11.284270">
                <time>2017-07-15T09:34:40Z</time>
            </trkpt>
            <trkpt lat="46.354670" lon="11.284060">
                <time>2017-07-15T09:34:41Z</time>
            </trkpt>
            <trkpt lat="46.354740" lon="11.283840">
                <time>2017-07-15T09:34:42Z</time>
            </trkpt>
            <trkpt lat="46.354810" lon="11.283620">
                <time>2017-07-15T09:34:43Z</time>
            </trkpt>
            <trkpt lat="46.354870" lon="11.283400">
                <time>2017-07-15T09:34:44Z</time>
            </trkpt>
            <trkpt lat="46.354900" lon="11.283200">
                <time>2017-07-15T09:34:45Z</time>
            </trkpt>
            <trkpt lat="46.354920" lon="11.282990">
                <time>2017-07-15T09:34:46Z</time>
            </trkpt>
            <trkpt lat="46.354920" lon="11.282780">
                <time>2017-07-15T09:34:47Z</time>
            </trkpt>
            <trkpt lat="46.354890" lon="11.282600">
                <time>2017-07-15T09:34:48Z</time>
            </trkpt>
            <trkpt lat="46.354870" lon="11.282410">
                <time>2017-07-15T09:34:49Z</time>
            </trkpt>
            <trkpt lat="46.354830" lon="11.282200">
                <time>2017-07-15T09:34:50Z</time>
            </trkpt>
            <trkpt lat="46.354800" lon="11.282020">
                <time>2017-07-15T09:34:51Z</time>
            </trkpt>
            <trkpt lat="46.354760" lon="11.281810">
                <time>2017-07-15T09:34:52Z</time>
            </trkpt>
            <trkpt lat="46.354730" lon="11.281630">
                <time>2017-07-15T09:34:53Z</time>
            </trkpt>
            <trkpt lat="46.354680" lon="11.281430">
                <time>2017-07-15T09:34:54Z</time>
            </trkpt>
            <trkpt lat="46.354620" lon="11.281250">
                <time>2017-07-15T09:34:55Z</time>
            </trkpt>
            <trkpt lat="46.354550" lon="11.281090">
                <time>2017-07-15T09:34:56Z</time>
            </trkpt>
            <trkpt lat="46.354470" lon="11.280910">
                <time>2017-07-15T09:34:57Z</time>
            </trkpt>
            <trkpt lat="46.354380" lon="11.280730">
                <time>2017-07-15T09:34:58Z</time>
            </trkpt>
            <trkpt lat="46.354290" lon="11.280550">
                <time>2017-07-15T09:34:59Z</time>
            </trkpt>
            <trkpt lat="46.354190" lon="11.280340">
                <time>2017-07-15T09:35:00Z</time>
            </trkpt>
            <trkpt lat="46.354100" lon="11.280140">
                <time>2017-07-15T09:35:01Z</time>
            </trkpt>
            <trkpt lat="46.354000" lon="11.279940">
                <time>2017-07-15T09:35:02Z</time>
            </trkpt>
            <trkpt lat="46.353900" lon="11.279720">
                <time>2017-07-15T09:35:03Z</time>
            </trkpt>
            <trkpt lat="46.353810" lon="11.279530">
                <time>2017-07-15T09:35:04Z</time>
            </trkpt>
            <trkpt lat="46.353710" lon="11.279320">
                <time>2017-07-15T09:35:05Z</time>
            </trkpt>
            <trkpt lat="46.353610" lon="11.279110">
                <time>2017-07-15T09:35:06Z</time>
            </trkpt>
            <trkpt lat="46.353530" lon="11.278920">
                <time>2017-07-15T09:35:07Z</time>
            </trkpt>
            <trkpt lat="46.353420" lon="11.278710">
                <time>2017-07-15T09:35:08Z</time>
            </trkpt>
            <trkpt lat="46.353330" lon="11.278520">
                <time>2017-07-15T09:35:09Z</time>
            </trkpt>
            <trkpt lat="46.353230" lon="11.278310">
                <time>2017-07-15T09:35:10Z</time>
            </trkpt>
            <trkpt lat="46.353110" lon="11.278090">
                <time>2017-07-15T09:35:11Z</time>
            </trkpt>
            <trkpt lat="46.353000" lon="11.277880">
                <time>2017-07-15T09:35:12Z</time>
            </trkpt>
            <trkpt lat="46.352890" lon="11.277670">
                <time>2017-07-15T09:35:13Z</time>
            </trkpt>
            <trkpt lat="46.352770" lon="11.277460">
                <time>2017-07-15T09:35:14Z</time>
            </trkpt>
            <trkpt lat="46.352640" lon="11.277240">
                <time>2017-07-15T09:35:15Z</time>
            </trkpt>
            <trkpt lat="46.352510" lon="11.277000">
                <time>2017-07-15T09:35:16Z</time>
            </trkpt>
            <trkpt lat="46.352400" lon="11.276790">
                <time>2017-07-15T09:35:17Z</time>
            </trkpt>
            <trkpt lat="46.352270" lon="11.276550">
                <time>2017-07-15T09:35:18Z</time>
            </trkpt>
            <trkpt lat="46.352140" lon="11.276320">
                <time>2017-07-15T09:35:19Z</time>
            </trkpt>
            <trkpt lat="46.352030" lon="11.276120">
                <time>2017-07-15T09:35:20Z</time>
            </trkpt>
            <trkpt lat="46.351920" lon="11.275890">
                <time>2017-07-15T09:35:21Z</time>
            </trkpt>
            <trkpt lat="46.351820" lon="11.275650">
                <time>2017-07-15T09:35:22Z</time>
            </trkpt>
            <trkpt lat="46.351730" lon="11.275430">
                <time>2017-07-15T09:35:23Z</time>
            </trkpt>
            <trkpt lat="46.351630" lon="11.275170">
                <time>2017-07-15T09:35:24Z</time>
            </trkpt>
            <trkpt lat="46.351530" lon="11.274950">
                <time>2017-07-15T09:35:25Z</time>
            </trkpt>
            <trkpt lat="46.351440" lon="11.274700">
                <time>2017-07-15T09:35:26Z</time>
            </trkpt>
            <trkpt lat="46.351330" lon="11.274430">
                <time>2017-07-15T09:35:27Z</time>
            </trkpt>
            <trkpt lat="46.351240" lon="11.274190">
                <time>2017-07-15T09:35:28Z</time>
            </trkpt>
            <trkpt lat="46.351140" lon="11.273940">
                <time>2017-07-15T09:35:29Z</time>
            </trkpt>
            <trkpt lat="46.351050" lon="11.273680">
                <time>2017-07-15T09:35:30Z</time>
            </trkpt>
            <trkpt lat="46.350950" lon="11.273430">
                <time>2017-07-15T09:35:31Z</time>
            </trkpt>
            <trkpt lat="46.350850" lon="11.273170">
                <time>2017-07-15T09:35:32Z</time>
            </trkpt>
            <trkpt lat="46.350760" lon="11.272940">
                <time>2017-07-15T09:35:33Z</time>
            </trkpt>
            <trkpt lat="46.350670" lon="11.272710">
                <time>2017-07-15T09:35:34Z</time>
            </trkpt>
            <trkpt lat="46.350580" lon="11.272450">
                <time>2017-07-15T09:35:35Z</time>
            </trkpt>
            <trkpt lat="46.350490" lon="11.272220">
                <time>2017-07-15T09:35:36Z</time>
            </trkpt>
            <trkpt lat="46.350400" lon="11.271980">
                <time>2017-07-15T09:35:37Z</time>
            </trkpt>
            <trkpt lat="46.350300" lon="11.271720">
                <time>2017-07-15T09:35:38Z</time>
            </trkpt>
            <trkpt lat="46.350210" lon="11.271500">
                <time>2017-07-15T09:35:39Z</time>
            </trkpt>
            <trkpt lat="46.350120" lon="11.271250">
                <time>2017-07-15T09:35:40Z</time>
            </trkpt>
            <trkpt lat="46.350030" lon="11.271040">
                <time>2017-07-15T09:35:41Z</time>
            </trkpt>
            <trkpt lat="46.349950" lon="11.270810">
                <time>2017-07-15T09:35:42Z</time>
            </trkpt>
            <trkpt lat="46.349860" lon="11.270570">
                <time>2017-07-15T09:35:43Z</time>
            </trkpt>
            <trkpt lat="46.349790" lon="11.270350">
                <time>2017-07-15T09:35:44Z</time>
            </trkpt>
            <trkpt lat="46.349720" lon="11.270110">
                <time>2017-07-15T09:35:45Z</time>
            </trkpt>
            <trkpt lat="46.349650" lon="11.269860">
                <time>2017-07-15T09:35:46Z</time>
            </trkpt>
            <trkpt lat="46.349580" lon="11.269640">
                <time>2017-07-15T09:35:47Z</time>
            </trkpt>
            <trkpt lat="46.349510" lon="11.269400">
                <time>2017-07-15T09:35:48Z</time>
            </trkpt>
            <trkpt lat="46.349450" lon="11.269200">
                <time>2017-07-15T09:35:49Z</time>
            </trkpt>
            <trkpt lat="46.349380" lon="11.269000">
                <time>2017-07-15T09:35:50Z</time>
            </trkpt>
            <trkpt lat="46.349290" lon="11.268790">
                <time>2017-07-15T09:35:51Z</time>
            </trkpt>
            <trkpt lat="46.349200" lon="11.268620">
                <time>2017-07-15T09:35:52Z</time>
            </trkpt>
            <trkpt lat="46.349100" lon="11.268430">
                <time>2017-07-15T09:35:53Z</time>
            </trkpt>
            <trkpt lat="46.348990" lon="11.268240">
                <time>2017-07-15T09:35:54Z</time>
            </trkpt>
            <trkpt lat="46.348900" lon="11.268060">
                <time>2017-07-15T09:35:55Z</time>
            </trkpt>
            <trkpt lat="46.348800" lon="11.267860">
                <time>2017-07-15T09:35:56Z</time>
            </trkpt>
            <trkpt lat="46.348720" lon="11.267680">
                <time>2017-07-15T09:35:57Z</time>
            </trkpt>
            <trkpt lat="46.348660" lon="11.267480">
                <time>2017-07-15T09:35:58Z</time>
            </trkpt>
            <trkpt lat="46.348610" lon="11.267260">
                <time>2017-07-15T09:35:59Z</time>
            </trkpt>
            <trkpt lat="46.348560" lon="11.267070">
                <time>2017-07-15T09:36:00Z</time>
            </trkpt>
            <trkpt lat="46.348510" lon="11.266860">
                <time>2017-07-15T09:36:01Z</time>
            </trkpt>
            <trkpt lat="46.348460" lon="11.266660">
                <time>2017-07-15T09:36:02Z</time>
            </trkpt>
            <trkpt lat="46.348410" lon="11.266470">
                <time>2017-07-15T09:36:03Z</time>
            </trkpt>
            <trkpt lat="46.348350" lon="11.266250">
                <time>2017-07-15T09:36:04Z</time>
            </trkpt>
            <trkpt lat="46.348300" lon="11.266070">
                <time>2017-07-15T09:36:05Z</time>
            </trkpt>
            <trkpt lat="46.348250" lon="11.265870">
                <time>2017-07-15T09:36:06Z</time>
            </trkpt>
            <trkpt lat="46.348200" lon="11.265660">
                <time>2017-07-15T09:36:07Z</time>
            </trkpt>
            <trkpt lat="46.348150" lon="11.265480">
                <time>2017-07-15T09:36:08Z</time>
            </trkpt>
            <trkpt lat="46.348100" lon="11.265290">
                <time>2017-07-15T09:36:09Z</time>
            </trkpt>
            <trkpt lat="46.348050" lon="11.265110">
                <time>2017-07-15T09:36:10Z</time>
            </trkpt>
            <trkpt lat="46.348020" lon="11.264980">
                <time>2017-07-15T09:36:11Z</time>
            </trkpt>
            <trkpt lat="46.347990" lon="11.264840">
                <time>2017-07-15T09:36:12Z</time>
            </trkpt>
            <trkpt lat="46.347960" lon="11.264740">
                <time>2017-07-15T09:36:13Z</time>
            </trkpt>
            <trkpt lat="46.347940" lon="11.264640">
                <time>2017-07-15T09:36:14Z</time>
            </trkpt>
            <trkpt lat="46.347920" lon="11.264530">
                <time>2017-07-15T09:36:15Z</time>
            </trkpt>
            <trkpt lat="46.347910" lon="11.264450">
                <time>2017-07-15T09:36:16Z</time>
            </trkpt>
            <trkpt lat="46.347910" lon="11.264370">
                <time>2017-07-15T09:36:17Z</time>
            </trkpt>
            <trkpt lat="46.347930" lon="11.264290">
                <time>2017-07-15T09:36:18Z</time>
            </trkpt>
            <trkpt lat="46.347970" lon="11.264210">
                <time>2017-07-15T09:36:19Z</time>
            </trkpt>
            <trkpt lat="46.348030" lon="11.264120">
                <time>2017-07-15T09:36:20Z</time>
            </trkpt>
            <trkpt lat="46.348100" lon="11.264050">
                <time>2017-07-15T09:36:21Z</time>
            </trkpt>
            <trkpt lat="46.348190" lon="11.264000">
                <time>2017-07-15T09:36:22Z</time>
            </trkpt>
            <trkpt lat="46.348300" lon="11.263960">
                <time>2017-07-15T09:36:23Z</time>
            </trkpt>
            <trkpt lat="46.348410" lon="11.263930">
                <time>2017-07-15T09:36:24Z</time>
            </trkpt>
            <trkpt lat="46.348540" lon="11.263910">
                <time>2017-07-15T09:36:25Z</time>
            </trkpt>
            <trkpt lat="46.348670" lon="11.263870">
                <time>2017-07-15T09:36:26Z</time>
            </trkpt>
            <trkpt lat="46.348800" lon="11.263850">
                <time>2017-07-15T09:36:27Z</time>
            </trkpt>
            <trkpt lat="46.348960" lon="11.263800">
                <time>2017-07-15T09:36:28Z</time>
            </trkpt>
            <trkpt lat="46.349110" lon="11.263770">
                <time>2017-07-15T09:36:29Z</time>
            </trkpt>
            <trkpt lat="46.349290" lon="11.263730">
                <time>2017-07-15T09:36:30Z</time>
            </trkpt>
            <trkpt lat="46.349490" lon="11.263690">
                <time>2017-07-15T09:36:31Z</time>
            </trkpt>
            <trkpt lat="46.349670" lon="11.263650">
                <time>2017-07-15T09:36:32Z</time>
            </trkpt>
            <trkpt lat="46.349870" lon="11.263600">
                <time>2017-07-15T09:36:33Z</time>
            </trkpt>
            <trkpt lat="46.350070" lon="11.263550">
                <time>2017-07-15T09:36:34Z</time>
            </trkpt>
            <trkpt lat="46.350270" lon="11.263490">
                <time>2017-07-15T09:36:35Z</time>
            </trkpt>
            <trkpt lat="46.350470" lon="11.263440">
                <time>2017-07-15T09:36:36Z</time>
            </trkpt>
            <trkpt lat="46.350650" lon="11.263390">
                <time>2017-07-15T09:36:37Z</time>
            </trkpt>
            <trkpt lat="46.350840" lon="11.263340">
                <time>2017-07-15T09:36:38Z</time>
            </trkpt>
            <trkpt lat="46.351040" lon="11.263300">
                <time>2017-07-15T09:36:39Z</time>
            </trkpt>
            <trkpt lat="46.351220" lon="11.263250">
                <time>2017-07-15T09:36:40Z</time>
            </trkpt>
            <trkpt lat="46.351400" lon="11.263210">
                <time>2017-07-15T09:36:41Z</time>
            </trkpt>
            <trkpt lat="46.351600" lon="11.263160">
                <time>2017-07-15T09:36:42Z</time>
            </trkpt>
            <trkpt lat="46.351780" lon="11.263120">
                <time>2017-07-15T09:36:43Z</time>
            </trkpt>
            <trkpt lat="46.351980" lon="11.263080">
                <time>2017-07-15T09:36:44Z</time>
            </trkpt>
            <trkpt lat="46.352160" lon="11.263030">
                <time>2017-07-15T09:36:45Z</time>
            </trkpt>
            <trkpt lat="46.352340" lon="11.262980">
                <time>2017-07-15T09:36:46Z</time>
            </trkpt>
            <trkpt lat="46.352540" lon="11.262930">
                <time>2017-07-15T09:36:47Z</time>
            </trkpt>
            <trkpt lat="46.352720" lon="11.262890">
                <time>2017-07-15T09:36:48Z</time>
            </trkpt>
            <trkpt lat="46.352920" lon="11.262840">
                <time>2017-07-15T09:36:49Z</time>
            </trkpt>
            <trkpt lat="46.353120" lon="11.262790">
                <time>2017-07-15T09:36:50Z</time>
            </trkpt>
            <trkpt lat="46.353310" lon="11.262740">
                <time>2017-07-15T09:36:51Z</time>
            </trkpt>
            <trkpt lat="46.353530" lon="11.262690">
                <time>2017-07-15T09:36:52Z</time>
            </trkpt>
            <trkpt lat="46.353720" lon="11.262630">
                <time>2017-07-15T09:36:53Z</time>
            </trkpt>
            <trkpt lat="46.353920" lon="11.262570">
                <time>2017-07-15T09:36:54Z</time>
            </trkpt>
            <trkpt lat="46.354140" lon="11.262520">
                <time>2017-07-15T09:36:55Z</time>
            </trkpt>
            <trkpt lat="46.354320" lon="11.262470">
                <time>2017-07-15T09:36:56Z</time>
            </trkpt>
            <trkpt lat="46.354520" lon="11.262430">
                <time>2017-07-15T09:36:57Z</time>
            </trkpt>
            <trkpt lat="46.354720" lon="11.262390">
                <time>2017-07-15T09:36:58Z</time>
            </trkpt>
            <trkpt lat="46.354900" lon="11.262350">
                <time>2017-07-15T09:36:59Z</time>
            </trkpt>
            <trkpt lat="46.355100" lon="11.262310">
                <time>2017-07-15T09:37:00Z</time>
            </trkpt>
            <trkpt lat="46.355280" lon="11.262260">
                <time>2017-07-15T09:37:01Z</time>
            </trkpt>
            <trkpt lat="46.355450" lon="11.262220">
                <time>2017-07-15T09:37:02Z</time>
            </trkpt>
            <trkpt lat="46.355630" lon="11.262170">
                <time>2017-07-15T09:37:03Z</time>
            </trkpt>
            <trkpt lat="46.355780" lon="11.262120">
                <time>2017-07-15T09:37:04Z</time>
            </trkpt>
            <trkpt lat="46.355950" lon="11.262050">
                <time>2017-07-15T09:37:05Z</time>
            </trkpt>
            <trkpt lat="46.356100" lon="11.261950">
                <time>2017-07-15T09:37:06Z</time>
            </trkpt>
            <trkpt lat="46.356250" lon="11.261820">
                <time>2017-07-15T09:37:07Z</time>
            </trkpt>
            <trkpt lat="46.356420" lon="11.261670">
                <time>2017-07-15T09:37:08Z</time>
            </trkpt>
            <trkpt lat="46.356560" lon="11.261540">
                <time>2017-07-15T09:37:09Z</time>
            </trkpt>
            <trkpt lat="46.356710" lon="11.261400">
                <time>2017-07-15T09:37:10Z</time>
            </trkpt>
            <trkpt lat="46.356860" lon="11.261250">
                <time>2017-07-15T09:37:11Z</time>
            </trkpt>
            <trkpt lat="46.357000" lon="11.261120">
                <time>2017-07-15T09:37:12Z</time>
            </trkpt>
            <trkpt lat="46.357140" lon="11.260980">
                <time>2017-07-15T09:37:13Z</time>
            </trkpt>
            <trkpt lat="46.357300" lon="11.260830">
                <time>2017-07-15T09:37:14Z</time>
            </trkpt>
            <trkpt lat="46.357430" lon="11.260700">
                <time>2017-07-15T09:37:15Z</time>
            </trkpt>
            <trkpt lat="46.357590" lon="11.260540">
                <time>2017-07-15T09:37:16Z</time>
            </trkpt>
            <trkpt lat="46.357730" lon="11.260390">
                <time>2017-07-15T09:37:17Z</time>
            </trkpt>
            <trkpt lat="46.357890" lon="11.260230">
                <time>2017-07-15T09:37:18Z</time>
            </trkpt>
            <trkpt lat="46.358070" lon="11.260070">
                <time>2017-07-15T09:37:19Z</time>
            </trkpt>
            <trkpt lat="46.358220" lon="11.259930">
                <time>2017-07-15T09:37:20Z</time>
            </trkpt>
            <trkpt lat="46.358390" lon="11.259790">
                <time>2017-07-15T09:37:21Z</time>
            </trkpt>
            <trkpt lat="46.358570" lon="11.259660">
                <time>2017-07-15T09:37:22Z</time>
            </trkpt>
            <trkpt lat="46.358730" lon="11.259540">
                <time>2017-07-15T09:37:23Z</time>
            </trkpt>
            <trkpt lat="46.358900" lon="11.259410">
                <time>2017-07-15T09:37:24Z</time>
            </trkpt>
            <trkpt lat="46.359050" lon="11.259300">
                <time>2017-07-15T09:37:25Z</time>
            </trkpt>
            <trkpt lat="46.359210" lon="11.259180">
                <time>2017-07-15T09:37:26Z</time>
            </trkpt>
            <trkpt lat="46.359380" lon="11.259050">
                <time>2017-07-15T09:37:27Z</time>
            </trkpt>
            <trkpt lat="46.359520" lon="11.258950">
                <time>2017-07-15T09:37:28Z</time>
            </trkpt>
            <trkpt lat="46.359680" lon="11.258830">
                <time>2017-07-15T09:37:29Z</time>
            </trkpt>
            <trkpt lat="46.359850" lon="11.258710">
                <time>2017-07-15T09:37:30Z</time>
            </trkpt>
            <trkpt lat="46.360000" lon="11.258600">
                <time>2017-07-15T09:37:31Z</time>
            </trkpt>
            <trkpt lat="46.360170" lon="11.258470">
                <time>2017-07-15T09:37:32Z</time>
            </trkpt>
            <trkpt lat="46.360310" lon="11.258360">
                <time>2017-07-15T09:37:33Z</time>
            </trkpt>
            <trkpt lat="46.360470" lon="11.258250">
                <time>2017-07-15T09:37:34Z</time>
            </trkpt>
            <trkpt lat="46.360640" lon="11.258110">
                <time>2017-07-15T09:37:35Z</time>
            </trkpt>
            <trkpt lat="46.360780" lon="11.257990">
                <time>2017-07-15T09:37:36Z</time>
            </trkpt>
            <trkpt lat="46.360920" lon="11.257840">
                <time>2017-07-15T09:37:37Z</time>
            </trkpt>
            <trkpt lat="46.361060" lon="11.257670">
                <time>2017-07-15T09:37:38Z</time>
            </trkpt>
            <trkpt lat="46.361200" lon="11.257500">
                <time>2017-07-15T09:37:39Z</time>
            </trkpt>
            <trkpt lat="46.361350" lon="11.257320">
                <time>2017-07-15T09:37:40Z</time>
            </trkpt>
            <trkpt lat="46.361480" lon="11.257160">
                <time>2017-07-15T09:37:41Z</time>
            </trkpt>
            <trkpt lat="46.361610" lon="11.256990">
                <time>2017-07-15T09:37:42Z</time>
            </trkpt>
            <trkpt lat="46.361740" lon="11.256810">
                <time>2017-07-15T09:37:43Z</time>
            </trkpt>
            <trkpt lat="46.361860" lon="11.256660">
                <time>2017-07-15T09:37:44Z</time>
            </trkpt>
            <trkpt lat="46.361980" lon="11.256500">
                <time>2017-07-15T09:37:45Z</time>
            </trkpt>
            <trkpt lat="46.362110" lon="11.256330">
                <time>2017-07-15T09:37:46Z</time>
            </trkpt>
            <trkpt lat="46.362230" lon="11.256180">
                <time>2017-07-15T09:37:47Z</time>
            </trkpt>
            <trkpt lat="46.362370" lon="11.256000">
                <time>2017-07-15T09:37:48Z</time>
            </trkpt>
            <trkpt lat="46.362500" lon="11.255840">
                <time>2017-07-15T09:37:49Z</time>
            </trkpt>
            <trkpt lat="46.362630" lon="11.255680">
                <time>2017-07-15T09:37:50Z</time>
            </trkpt>
            <trkpt lat="46.362770" lon="11.255490">
                <time>2017-07-15T09:37:51Z</time>
            </trkpt>
            <trkpt lat="46.362890" lon="11.255330">
                <time>2017-07-15T09:37:52Z</time>
            </trkpt>
            <trkpt lat="46.363020" lon="11.255160">
                <time>2017-07-15T09:37:53Z</time>
            </trkpt>
            <trkpt lat="46.363160" lon="11.254990">
                <time>2017-07-15T09:37:54Z</time>
            </trkpt>
            <trkpt lat="46.363290" lon="11.254830">
                <time>2017-07-15T09:37:55Z</time>
            </trkpt>
            <trkpt lat="46.363420" lon="11.254650">
                <time>2017-07-15T09:37:56Z</time>
            </trkpt>
            <trkpt lat="46.363540" lon="11.254500">
                <time>2017-07-15T09:37:57Z</time>
            </trkpt>
            <trkpt lat="46.363660" lon="11.254330">
                <time>2017-07-15T09:37:58Z</time>
            </trkpt>
            <trkpt lat="46.363790" lon="11.254170">
                <time>2017-07-15T09:37:59Z</time>
            </trkpt>
            <trkpt lat="46.363900" lon="11.254030">
                <time>2017-07-15T09:38:00Z</time>
            </trkpt>
            <trkpt lat="46.363990" lon="11.253890">
                <time>2017-07-15T09:38:01Z</time>
            </trkpt>
            <trkpt lat="46.364090" lon="11.253760">
                <time>2017-07-15T09:38:02Z</time>
            </trkpt>
            <trkpt lat="46.364170" lon="11.253650">
                <time>2017-07-15T09:38:03Z</time>
            </trkpt>
            <trkpt lat="46.364260" lon="11.253520">
                <time>2017-07-15T09:38:04Z</time>
            </trkpt>
            <trkpt lat="46.364350" lon="11.253420">
                <time>2017-07-15T09:38:05Z</time>
            </trkpt>
            <trkpt lat="46.364450" lon="11.253310">
                <time>2017-07-15T09:38:06Z</time>
            </trkpt>
            <trkpt lat="46.364550" lon="11.253200">
                <time>2017-07-15T09:38:07Z</time>
            </trkpt>
            <trkpt lat="46.364660" lon="11.253110">
                <time>2017-07-15T09:38:08Z</time>
            </trkpt>
            <trkpt lat="46.364770" lon="11.252990">
                <time>2017-07-15T09:38:09Z</time>
            </trkpt>
            <trkpt lat="46.364900" lon="11.252870">
                <time>2017-07-15T09:38:10Z</time>
            </trkpt>
            <trkpt lat="46.365030" lon="11.252740">
                <time>2017-07-15T09:38:11Z</time>
            </trkpt>
            <trkpt lat="46.365190" lon="11.252610">
                <time>2017-07-15T09:38:12Z</time>
            </trkpt>
            <trkpt lat="46.365330" lon="11.252480">
                <time>2017-07-15T09:38:13Z</time>
            </trkpt>
            <trkpt lat="46.365480" lon="11.252340">
                <time>2017-07-15T09:38:14Z</time>
            </trkpt>
            <trkpt lat="46.365640" lon="11.252200">
                <time>2017-07-15T09:38:15Z</time>
            </trkpt>
            <trkpt lat="46.365770" lon="11.252080">
                <time>2017-07-15T09:38:16Z</time>
            </trkpt>
            <trkpt lat="46.365920" lon="11.251960">
                <time>2017-07-15T09:38:17Z</time>
            </trkpt>
            <trkpt lat="46.366070" lon="11.251830">
                <time>2017-07-15T09:38:18Z</time>
            </trkpt>
            <trkpt lat="46.366200" lon="11.251710">
                <time>2017-07-15T09:38:19Z</time>
            </trkpt>
            <trkpt lat="46.366350" lon="11.251590">
                <time>2017-07-15T09:38:20Z</time>
            </trkpt>
            <trkpt lat="46.366490" lon="11.251490">
                <time>2017-07-15T09:38:21Z</time>
            </trkpt>
            <trkpt lat="46.366640" lon="11.251400">
                <time>2017-07-15T09:38:22Z</time>
            </trkpt>
            <trkpt lat="46.366810" lon="11.251310">
                <time>2017-07-15T09:38:23Z</time>
            </trkpt>
            <trkpt lat="46.366970" lon="11.251240">
                <time>2017-07-15T09:38:24Z</time>
            </trkpt>
            <trkpt lat="46.367150" lon="11.251190">
                <time>2017-07-15T09:38:25Z</time>
            </trkpt>
            <trkpt lat="46.367330" lon="11.251140">
                <time>2017-07-15T09:38:26Z</time>
            </trkpt>
            <trkpt lat="46.367510" lon="11.251110">
                <time>2017-07-15T09:38:27Z</time>
            </trkpt>
            <trkpt lat="46.367720" lon="11.251100">
                <time>2017-07-15T09:38:28Z</time>
            </trkpt>
            <trkpt lat="46.367890" lon="11.251100">
                <time>2017-07-15T09:38:29Z</time>
            </trkpt>
            <trkpt lat="46.368070" lon="11.251100">
                <time>2017-07-15T09:38:30Z</time>
            </trkpt>
            <trkpt lat="46.368260" lon="11.251090">
                <time>2017-07-15T09:38:31Z</time>
            </trkpt>
            <trkpt lat="46.368420" lon="11.251070">
                <time>2017-07-15T09:38:32Z</time>
            </trkpt>
            <trkpt lat="46.368580" lon="11.251070">
                <time>2017-07-15T09:38:33Z</time>
            </trkpt>
            <trkpt lat="46.368730" lon="11.251070">
                <time>2017-07-15T09:38:34Z</time>
            </trkpt>
            <trkpt lat="46.368850" lon="11.251080">
                <time>2017-07-15T09:38:35Z</time>
            </trkpt>
            <trkpt lat="46.368970" lon="11.251100">
                <time>2017-07-15T09:38:36Z</time>
            </trkpt>
            <trkpt lat="46.369060" lon="11.251130">
                <time>2017-07-15T09:38:37Z</time>
            </trkpt>
            <trkpt lat="46.369140" lon="11.251180">
                <time>2017-07-15T09:38:38Z</time>
            </trkpt>
            <trkpt lat="46.369230" lon="11.251240">
                <time>2017-07-15T09:38:39Z</time>
            </trkpt>
            <trkpt lat="46.369310" lon="11.251300">
                <time>2017-07-15T09:38:40Z</time>
            </trkpt>
            <trkpt lat="46.369390" lon="11.251390">
                <time>2017-07-15T09:38:41Z</time>
            </trkpt>
            <trkpt lat="46.369480" lon="11.251490">
                <time>2017-07-15T09:38:42Z</time>
            </trkpt>
            <trkpt lat="46.369590" lon="11.251620">
                <time>2017-07-15T09:38:43Z</time>
            </trkpt>
            <trkpt lat="46.369690" lon="11.251790">
                <time>2017-07-15T09:38:44Z</time>
            </trkpt>
            <trkpt lat="46.369790" lon="11.251940">
                <time>2017-07-15T09:38:45Z</time>
            </trkpt>
            <trkpt lat="46.369890" lon="11.252110">
                <time>2017-07-15T09:38:46Z</time>
            </trkpt>
            <trkpt lat="46.370000" lon="11.252280">
                <time>2017-07-15T09:38:47Z</time>
            </trkpt>
            <trkpt lat="46.370100" lon="11.252420">
                <time>2017-07-15T09:38:48Z</time>
            </trkpt>
            <trkpt lat="46.370220" lon="11.252540">
                <time>2017-07-15T09:38:49Z</time>
            </trkpt>
            <trkpt lat="46.370360" lon="11.252650">
                <time>2017-07-15T09:38:50Z</time>
            </trkpt>
            <trkpt lat="46.370490" lon="11.252710">
                <time>2017-07-15T09:38:51Z</time>
            </trkpt>
            <trkpt lat="46.370650" lon="11.252740">
                <time>2017-07-15T09:38:52Z</time>
            </trkpt>
            <trkpt lat="46.370790" lon="11.252740">
                <time>2017-07-15T09:38:53Z</time>
            </trkpt>
            <trkpt lat="46.370940" lon="11.252720">
                <time>2017-07-15T09:38:54Z</time>
            </trkpt>
            <trkpt lat="46.371100" lon="11.252680">
                <time>2017-07-15T09:38:55Z</time>
            </trkpt>
            <trkpt lat="46.371250" lon="11.252650">
                <time>2017-07-15T09:38:56Z</time>
            </trkpt>
            <trkpt lat="46.371410" lon="11.252610">
                <time>2017-07-15T09:38:57Z</time>
            </trkpt>
            <trkpt lat="46.371570" lon="11.252570">
                <time>2017-07-15T09:38:58Z</time>
            </trkpt>
            <trkpt lat="46.371720" lon="11.252520">
                <time>2017-07-15T09:38:59Z</time>
            </trkpt>
            <trkpt lat="46.371890" lon="11.252440">
                <time>2017-07-15T09:39:00Z</time>
            </trkpt>
            <trkpt lat="46.372020" lon="11.252360">
                <time>2017-07-15T09:39:01Z</time>
            </trkpt>
            <trkpt lat="46.372150" lon="11.252250">
                <time>2017-07-15T09:39:02Z</time>
            </trkpt>
            <trkpt lat="46.372290" lon="11.252120">
                <time>2017-07-15T09:39:03Z</time>
            </trkpt>
            <trkpt lat="46.372410" lon="11.251990">
                <time>2017-07-15T09:39:04Z</time>
            </trkpt>
            <trkpt lat="46.372530" lon="11.251870">
                <time>2017-07-15T09:39:05Z</time>
            </trkpt>
            <trkpt lat="46.372670" lon="11.251730">
                <time>2017-07-15T09:39:06Z</time>
            </trkpt>
            <trkpt lat="46.372780" lon="11.251600">
                <time>2017-07-15T09:39:07Z</time>
            </trkpt>
            <trkpt lat="46.372910" lon="11.251460">
                <time>2017-07-15T09:39:08Z</time>
            </trkpt>
            <trkpt lat="46.373020" lon="11.251350">
                <time>2017-07-15T09:39:09Z</time>
            </trkpt>
            <trkpt lat="46.373140" lon="11.251250">
                <time>2017-07-15T09:39:10Z</time>
            </trkpt>
            <trkpt lat="46.373270" lon="11.251160">
                <time>2017-07-15T09:39:11Z</time>
            </trkpt>
            <trkpt lat="46.373380" lon="11.251110">
                <time>2017-07-15T09:39:12Z</time>
            </trkpt>
            <trkpt lat="46.373510" lon="11.251080">
                <time>2017-07-15T09:39:13Z</time>
            </trkpt>
            <trkpt lat="46.373650" lon="11.251080">
                <time>2017-07-15T09:39:14Z</time>
            </trkpt>
            <trkpt lat="46.373790" lon="11.251110">
                <time>2017-07-15T09:39:15Z</time>
            </trkpt>
            <trkpt lat="46.373940" lon="11.251170">
                <time>2017-07-15T09:39:16Z</time>
            </trkpt>
            <trkpt lat="46.374070" lon="11.251240">
                <time>2017-07-15T09:39:17Z</time>
            </trkpt>
            <trkpt lat="46.374210" lon="11.251330">
                <time>2017-07-15T09:39:18Z</time>
            </trkpt>
            <trkpt lat="46.374370" lon="11.251420">
                <time>2017-07-15T09:39:19Z</time>
            </trkpt>
            <trkpt lat="46.374500" lon="11.251500">
                <time>2017-07-15T09:39:20Z</time>
            </trkpt>
            <trkpt lat="46.374650" lon="11.251600">
                <time>2017-07-15T09:39:21Z</time>
            </trkpt>
            <trkpt lat="46.374810" lon="11.251690">
                <time>2017-07-15T09:39:22Z</time>
            </trkpt>
            <trkpt lat="46.374940" lon="11.251770">
                <time>2017-07-15T09:39:23Z</time>
            </trkpt>
            <trkpt lat="46.375090" lon="11.251860">
                <time>2017-07-15T09:39:24Z</time>
            </trkpt>
            <trkpt lat="46.375220" lon="11.251940">
                <time>2017-07-15T09:39:25Z</time>
            </trkpt>
            <trkpt lat="46.375350" lon="11.252010">
                <time>2017-07-15T09:39:26Z</time>
            </trkpt>
            <trkpt lat="46.375490" lon="11.252090">
                <time>2017-07-15T09:39:27Z</time>
            </trkpt>
            <trkpt lat="46.375610" lon="11.252150">
                <time>2017-07-15T09:39:28Z</time>
            </trkpt>
            <trkpt lat="46.375740" lon="11.252190">
                <time>2017-07-15T09:39:29Z</time>
            </trkpt>
            <trkpt lat="46.375870" lon="11.252210">
                <time>2017-07-15T09:39:30Z</time>
            </trkpt>
            <trkpt lat="46.376000" lon="11.252220">
                <time>2017-07-15T09:39:31Z</time>
            </trkpt>
            <trkpt lat="46.376140" lon="11.252230">
                <time>2017-07-15T09:39:32Z</time>
            </trkpt>
            <trkpt lat="46.376270" lon="11.252230">
                <time>2017-07-15T09:39:33Z</time>
            </trkpt>
            <trkpt lat="46.376420" lon="11.252230">
                <time>2017-07-15T09:39:34Z</time>
            </trkpt>
            <trkpt lat="46.376580" lon="11.252240">
                <time>2017-07-15T09:39:35Z</time>
            </trkpt>
            <trkpt lat="46.376720" lon="11.252250">
                <time>2017-07-15T09:39:36Z</time>
            </trkpt>
            <trkpt lat="46.376880" lon="11.252250">
                <time>2017-07-15T09:39:37Z</time>
            </trkpt>
            <trkpt lat="46.377060" lon="11.252260">
                <time>2017-07-15T09:39:38Z</time>
            </trkpt>
            <trkpt lat="46.377220" lon="11.252270">
                <time>2017-07-15T09:39:39Z</time>
            </trkpt>
            <trkpt lat="46.377390" lon="11.252280">
                <time>2017-07-15T09:39:40Z</time>
            </trkpt>
            <trkpt lat="46.377540" lon="11.252300">
                <time>2017-07-15T09:39:41Z</time>
            </trkpt>
            <trkpt lat="46.377690" lon="11.252320">
                <time>2017-07-15T09:39:42Z</time>
            </trkpt>
            <trkpt lat="46.377850" lon="11.252390">
                <time>2017-07-15T09:39:43Z</time>
            </trkpt>
            <trkpt lat="46.377980" lon="11.252470">
                <time>2017-07-15T09:39:44Z</time>
            </trkpt>
            <trkpt lat="46.378110" lon="11.252570">
                <time>2017-07-15T09:39:45Z</time>
            </trkpt>
            <trkpt lat="46.378250" lon="11.252690">
                <time>2017-07-15T09:39:46Z</time>
            </trkpt>
            <trkpt lat="46.378370" lon="11.252830">
                <time>2017-07-15T09:39:47Z</time>
            </trkpt>
            <trkpt lat="46.378500" lon="11.253000">
                <time>2017-07-15T09:39:48Z</time>
            </trkpt>
            <trkpt lat="46.378610" lon="11.253150">
                <time>2017-07-15T09:39:49Z</time>
            </trkpt>
            <trkpt lat="46.378730" lon="11.253310">
                <time>2017-07-15T09:39:50Z</time>
            </trkpt>
            <trkpt lat="46.378860" lon="11.253480">
                <time>2017-07-15T09:39:51Z</time>
            </trkpt>
            <trkpt lat="46.378970" lon="11.253640">
                <time>2017-07-15T09:39:52Z</time>
            </trkpt>
            <trkpt lat="46.379070" lon="11.253790">
                <time>2017-07-15T09:39:53Z</time>
            </trkpt>
            <trkpt lat="46.379190" lon="11.253930">
                <time>2017-07-15T09:39:54Z</time>
            </trkpt>
            <trkpt lat="46.379290" lon="11.254040">
                <time>2017-07-15T09:39:55Z</time>
            </trkpt>
            <trkpt lat="46.379430" lon="11.254140">
                <time>2017-07-15T09:39:56Z</time>
            </trkpt>
            <trkpt lat="46.379550" lon="11.254210">
                <time>2017-07-15T09:39:57Z</time>
            </trkpt>
            <trkpt lat="46.379700" lon="11.254270">
                <time>2017-07-15T09:39:58Z</time>
            </trkpt>
            <trkpt lat="46.379850" lon="11.254320">
                <time>2017-07-15T09:39:59Z</time>
            </trkpt>
            <trkpt lat="46.379980" lon="11.254330">
                <time>2017-07-15T09:40:00Z</time>
            </trkpt>
            <trkpt lat="46.380110" lon="11.254350">
                <time>2017-07-15T09:40:01Z</time>
            </trkpt>
            <trkpt lat="46.380240" lon="11.254360">
                <time>2017-07-15T09:40:02Z</time>
            </trkpt>
            <trkpt lat="46.380360" lon="11.254380">
                <time>2017-07-15T09:40:03Z</time>
            </trkpt>
            <trkpt lat="46.380480" lon="11.254390">
                <time>2017-07-15T09:40:04Z</time>
            </trkpt>
            <trkpt lat="46.380610" lon="11.254410">
                <time>2017-07-15T09:40:05Z</time>
            </trkpt>
            <trkpt lat="46.380750" lon="11.254430">
                <time>2017-07-15T09:40:06Z</time>
            </trkpt>
            <trkpt lat="46.380900" lon="11.254450">
                <time>2017-07-15T09:40:07Z</time>
            </trkpt>
            <trkpt lat="46.381040" lon="11.254470">
                <time>2017-07-15T09:40:08Z</time>
            </trkpt>
            <trkpt lat="46.381190" lon="11.254490">
                <time>2017-07-15T09:40:09Z</time>
            </trkpt>
            <trkpt lat="46.381350" lon="11.254510">
                <time>2017-07-15T09:40:10Z</time>
            </trkpt>
            <trkpt lat="46.381490" lon="11.254520">
                <time>2017-07-15T09:40:11Z</time>
            </trkpt>
            <trkpt lat="46.381650" lon="11.254560">
                <time>2017-07-15T09:40:12Z</time>
            </trkpt>
            <trkpt lat="46.381800" lon="11.254580">
                <time>2017-07-15T09:40:13Z</time>
            </trkpt>
            <trkpt lat="46.381970" lon="11.254590">
                <time>2017-07-15T09:40:14Z</time>
            </trkpt>
            <trkpt lat="46.382140" lon="11.254600">
                <time>2017-07-15T09:40:15Z</time>
            </trkpt>
            <trkpt lat="46.382300" lon="11.254590">
                <time>2017-07-15T09:40:16Z</time>
            </trkpt>
            <trkpt lat="46.382470" lon="11.254560">
                <time>2017-07-15T09:40:17Z</time>
            </trkpt>
            <trkpt lat="46.382640" lon="11.254530">
                <time>2017-07-15T09:40:18Z</time>
            </trkpt>
            <trkpt lat="46.382810" lon="11.254500">
                <time>2017-07-15T09:40:19Z</time>
            </trkpt>
            <trkpt lat="46.382990" lon="11.254460">
                <time>2017-07-15T09:40:20Z</time>
            </trkpt>
            <trkpt lat="46.383150" lon="11.254420">
                <time>2017-07-15T09:40:21Z</time>
            </trkpt>
            <trkpt lat="46.383310" lon="11.254380">
                <time>2017-07-15T09:40:22Z</time>
            </trkpt>
            <trkpt lat="46.383480" lon="11.254320">
                <time>2017-07-15T09:40:23Z</time>
            </trkpt>
            <trkpt lat="46.383620" lon="11.254260">
                <time>2017-07-15T09:40:24Z</time>
            </trkpt>
            <trkpt lat="46.383760" lon="11.254190">
                <time>2017-07-15T09:40:25Z</time>
            </trkpt>
            <trkpt lat="46.383900" lon="11.254100">
                <time>2017-07-15T09:40:26Z</time>
            </trkpt>
            <trkpt lat="46.384020" lon="11.254030">
                <time>2017-07-15T09:40:27Z</time>
            </trkpt>
            <trkpt lat="46.384150" lon="11.253960">
                <time>2017-07-15T09:40:28Z</time>
            </trkpt>
            <trkpt lat="46.384290" lon="11.253910">
                <time>2017-07-15T09:40:29Z</time>
            </trkpt>
            <trkpt lat="46.384440" lon="11.253860">
                <time>2017-07-15T09:40:30Z</time>
            </trkpt>
            <trkpt lat="46.384600" lon="11.253820">
                <time>2017-07-15T09:40:31Z</time>
            </trkpt>
            <trkpt lat="46.384730" lon="11.253780">
                <time>2017-07-15T09:40:32Z</time>
            </trkpt>
            <trkpt lat="46.384870" lon="11.253750">
                <time>2017-07-15T09:40:33Z</time>
            </trkpt>
            <trkpt lat="46.385010" lon="11.253730">
                <time>2017-07-15T09:40:34Z</time>
            </trkpt>
            <trkpt lat="46.385140" lon="11.253730">
                <time>2017-07-15T09:40:35Z</time>
            </trkpt>
            <trkpt lat="46.385280" lon="11.253750">
                <time>2017-07-15T09:40:36Z</time>
            </trkpt>
            <trkpt lat="46.385400" lon="11.253780">
                <time>2017-07-15T09:40:37Z</time>
            </trkpt>
            <trkpt lat="46.385520" lon="11.253840">
                <time>2017-07-15T09:40:38Z</time>
            </trkpt>
            <trkpt lat="46.385650" lon="11.253920">
                <time>2017-07-15T09:40:39Z</time>
            </trkpt>
            <trkpt lat="46.385750" lon="11.254000">
                <time>2017-07-15T09:40:40Z</time>
            </trkpt>
            <trkpt lat="46.385860" lon="11.254110">
                <time>2017-07-15T09:40:41Z</time>
            </trkpt>
            <trkpt lat="46.385970" lon="11.254240">
                <time>2017-07-15T09:40:42Z</time>
            </trkpt>
            <trkpt lat="46.386060" lon="11.254370">
                <time>2017-07-15T09:40:43Z</time>
            </trkpt>
            <trkpt lat="46.386150" lon="11.254510">
                <time>2017-07-15T09:40:44Z</time>
            </trkpt>
            <trkpt lat="46.386230" lon="11.254640">
                <time>2017-07-15T09:40:45Z</time>
            </trkpt>
            <trkpt lat="46.386320" lon="11.254780">
                <time>2017-07-15T09:40:46Z</time>
            </trkpt>
            <trkpt lat="46.386420" lon="11.254920">
                <time>2017-07-15T09:40:47Z</time>
            </trkpt>
            <trkpt lat="46.386510" lon="11.255030">
                <time>2017-07-15T09:40:48Z</time>
            </trkpt>
            <trkpt lat="46.386620" lon="11.255150">
                <time>2017-07-15T09:40:49Z</time>
            </trkpt>
            <trkpt lat="46.386740" lon="11.255270">
                <time>2017-07-15T09:40:50Z</time>
            </trkpt>
            <trkpt lat="46.386850" lon="11.255390">
                <time>2017-07-15T09:40:51Z</time>
            </trkpt>
            <trkpt lat="46.386980" lon="11.255520">
                <time>2017-07-15T09:40:52Z</time>
            </trkpt>
            <trkpt lat="46.387080" lon="11.255630">
                <time>2017-07-15T09:40:53Z</time>
            </trkpt>
            <trkpt lat="46.387200" lon="11.255770">
                <time>2017-07-15T09:40:54Z</time>
            </trkpt>
            <trkpt lat="46.387340" lon="11.255900">
                <time>2017-07-15T09:40:55Z</time>
            </trkpt>
            <trkpt lat="46.387460" lon="11.256020">
                <time>2017-07-15T09:40:56Z</time>
            </trkpt>
            <trkpt lat="46.387600" lon="11.256150">
                <time>2017-07-15T09:40:57Z</time>
            </trkpt>
            <trkpt lat="46.387760" lon="11.256280">
                <time>2017-07-15T09:40:58Z</time>
            </trkpt>
            <trkpt lat="46.387910" lon="11.256390">
                <time>2017-07-15T09:40:59Z</time>
            </trkpt>
            <trkpt lat="46.388080" lon="11.256520">
                <time>2017-07-15T09:41:00Z</time>
            </trkpt>
            <trkpt lat="46.388230" lon="11.256630">
                <time>2017-07-15T09:41:01Z</time>
            </trkpt>
            <trkpt lat="46.388380" lon="11.256740">
                <time>2017-07-15T09:41:02Z</time>
            </trkpt>
            <trkpt lat="46.388530" lon="11.256850">
                <time>2017-07-15T09:41:03Z</time>
            </trkpt>
            <trkpt lat="46.388660" lon="11.256920">
                <time>2017-07-15T09:41:04Z</time>
            </trkpt>
            <trkpt lat="46.388800" lon="11.256980">
                <time>2017-07-15T09:41:05Z</time>
            </trkpt>
            <trkpt lat="46.388960" lon="11.257020">
                <time>2017-07-15T09:41:06Z</time>
            </trkpt>
            <trkpt lat="46.389120" lon="11.257040">
                <time>2017-07-15T09:41:07Z</time>
            </trkpt>
            <trkpt lat="46.389300" lon="11.257030">
                <time>2017-07-15T09:41:08Z</time>
            </trkpt>
            <trkpt lat="46.389450" lon="11.256990">
                <time>2017-07-15T09:41:09Z</time>
            </trkpt>
            <trkpt lat="46.389610" lon="11.256920">
                <time>2017-07-15T09:41:10Z</time>
            </trkpt>
            <trkpt lat="46.389780" lon="11.256820">
                <time>2017-07-15T09:41:11Z</time>
            </trkpt>
            <trkpt lat="46.389930" lon="11.256720">
                <time>2017-07-15T09:41:12Z</time>
            </trkpt>
            <trkpt lat="46.390080" lon="11.256600">
                <time>2017-07-15T09:41:13Z</time>
            </trkpt>
            <trkpt lat="46.390240" lon="11.256470">
                <time>2017-07-15T09:41:14Z</time>
            </trkpt>
            <trkpt lat="46.390370" lon="11.256340">
                <time>2017-07-15T09:41:15Z</time>
            </trkpt>
            <trkpt lat="46.390520" lon="11.256170">
                <time>2017-07-15T09:41:16Z</time>
            </trkpt>
            <trkpt lat="46.390640" lon="11.256020">
                <time>2017-07-15T09:41:17Z</time>
            </trkpt>
            <trkpt lat="46.390770" lon="11.255860">
                <time>2017-07-15T09:41:18Z</time>
            </trkpt>
            <trkpt lat="46.390900" lon="11.255680">
                <time>2017-07-15T09:41:19Z</time>
            </trkpt>
            <trkpt lat="46.391010" lon="11.255530">
                <time>2017-07-15T09:41:20Z</time>
            </trkpt>
            <trkpt lat="46.391140" lon="11.255380">
                <time>2017-07-15T09:41:21Z</time>
            </trkpt>
            <trkpt lat="46.391270" lon="11.255260">
                <time>2017-07-15T09:41:22Z</time>
            </trkpt>
            <trkpt lat="46.391400" lon="11.255170">
                <time>2017-07-15T09:41:23Z</time>
            </trkpt>
            <trkpt lat="46.391540" lon="11.255080">
                <time>2017-07-15T09:41:24Z</time>
            </trkpt>
            <trkpt lat="46.391670" lon="11.255030">
                <time>2017-07-15T09:41:25Z</time>
            </trkpt>
            <trkpt lat="46.391820" lon="11.254990">
                <time>2017-07-15T09:41:26Z</time>
            </trkpt>
            <trkpt lat="46.391970" lon="11.254960">
                <time>2017-07-15T09:41:27Z</time>
            </trkpt>
            <trkpt lat="46.392090" lon="11.254970">
                <time>2017-07-15T09:41:28Z</time>
            </trkpt>
            <trkpt lat="46.392220" lon="11.254980">
                <time>2017-07-15T09:41:29Z</time>
            </trkpt>
            <trkpt lat="46.392370" lon="11.254980">
                <time>2017-07-15T09:41:30Z</time>
            </trkpt>
            <trkpt lat="46.392490" lon="11.254980">
                <time>2017-07-15T09:41:31Z</time>
            </trkpt>
            <trkpt lat="46.392640" lon="11.254990">
                <time>2017-07-15T09:41:32Z</time>
            </trkpt>
            <trkpt lat="46.392770" lon="11.254990">
                <time>2017-07-15T09:41:33Z</time>
            </trkpt>
            <trkpt lat="46.392930" lon="11.254990">
                <time>2017-07-15T09:41:34Z</time>
            </trkpt>
            <trkpt lat="46.393090" lon="11.254970">
                <time>2017-07-15T09:41:35Z</time>
            </trkpt>
            <trkpt lat="46.393230" lon="11.254950">
                <time>2017-07-15T09:41:36Z</time>
            </trkpt>
            <trkpt lat="46.393400" lon="11.254930">
                <time>2017-07-15T09:41:37Z</time>
            </trkpt>
            <trkpt lat="46.393550" lon="11.254900">
                <time>2017-07-15T09:41:38Z</time>
            </trkpt>
            <trkpt lat="46.393690" lon="11.254860">
                <time>2017-07-15T09:41:39Z</time>
            </trkpt>
            <trkpt lat="46.393830" lon="11.254830">
                <time>2017-07-15T09:41:40Z</time>
            </trkpt>
            <trkpt lat="46.393960" lon="11.254780">
                <time>2017-07-15T09:41:41Z</time>
            </trkpt>
            <trkpt lat="46.394090" lon="11.254740">
                <time>2017-07-15T09:41:42Z</time>
            </trkpt>
            <trkpt lat="46.394240" lon="11.254680">
                <time>2017-07-15T09:41:43Z</time>
            </trkpt>
            <trkpt lat="46.394370" lon="11.254630">
                <time>2017-07-15T09:41:44Z</time>
            </trkpt>
            <trkpt lat="46.394520" lon="11.254560">
                <time>2017-07-15T09:41:45Z</time>
            </trkpt>
            <trkpt lat="46.394670" lon="11.254480">
                <time>2017-07-15T09:41:46Z</time>
            </trkpt>
            <trkpt lat="46.394810" lon="11.254410">
                <time>2017-07-15T09:41:47Z</time>
            </trkpt>
            <trkpt lat="46.394970" lon="11.254310">
                <time>2017-07-15T09:41:48Z</time>
            </trkpt>
            <trkpt lat="46.395120" lon="11.254220">
                <time>2017-07-15T09:41:49Z</time>
            </trkpt>
            <trkpt lat="46.395280" lon="11.254120">
                <time>2017-07-15T09:41:50Z</time>
            </trkpt>
            <trkpt lat="46.395450" lon="11.254020">
                <time>2017-07-15T09:41:51Z</time>
            </trkpt>
            <trkpt lat="46.395590" lon="11.253930">
                <time>2017-07-15T09:41:52Z</time>
            </trkpt>
            <trkpt lat="46.395760" lon="11.253830">
                <time>2017-07-15T09:41:53Z</time>
            </trkpt>
            <trkpt lat="46.395920" lon="11.253720">
                <time>2017-07-15T09:41:54Z</time>
            </trkpt>
            <trkpt lat="46.396080" lon="11.253600">
                <time>2017-07-15T09:41:55Z</time>
            </trkpt>
            <trkpt lat="46.396250" lon="11.253480">
                <time>2017-07-15T09:41:56Z</time>
            </trkpt>
            <trkpt lat="46.396400" lon="11.253380">
                <time>2017-07-15T09:41:57Z</time>
            </trkpt>
            <trkpt lat="46.396570" lon="11.253270">
                <time>2017-07-15T09:41:58Z</time>
            </trkpt>
            <trkpt lat="46.396750" lon="11.253160">
                <time>2017-07-15T09:41:59Z</time>
            </trkpt>
            <trkpt lat="46.396900" lon="11.253060">
                <time>2017-07-15T09:42:00Z</time>
            </trkpt>
            <trkpt lat="46.397070" lon="11.252950">
                <time>2017-07-15T09:42:01Z</time>
            </trkpt>
            <trkpt lat="46.397240" lon="11.252830">
                <time>2017-07-15T09:42:02Z</time>
            </trkpt>
            <trkpt lat="46.397390" lon="11.252730">
                <time>2017-07-15T09:42:03Z</time>
            </trkpt>
            <trkpt lat="46.397570" lon="11.252610">
                <time>2017-07-15T09:42:04Z</time>
            </trkpt>
            <trkpt lat="46.397720" lon="11.252500">
                <time>2017-07-15T09:42:05Z</time>
            </trkpt>
            <trkpt lat="46.397870" lon="11.252390">
                <time>2017-07-15T09:42:06Z</time>
            </trkpt>
            <trkpt lat="46.398030" lon="11.252260">
                <time>2017-07-15T09:42:07Z</time>
            </trkpt>
            <trkpt lat="46.398170" lon="11.252160">
                <time>2017-07-15T09:42:08Z</time>
            </trkpt>
            <trkpt lat="46.398320" lon="11.252070">
                <time>2017-07-15T09:42:09Z</time>
            </trkpt>
            <trkpt lat="46.398480" lon="11.251990">
                <time>2017-07-15T09:42:10Z</time>
            </trkpt>
            <trkpt lat="46.398620" lon="11.251920">
                <time>2017-07-15T09:42:11Z</time>
            </trkpt>
            <trkpt lat="46.398760" lon="11.251860">
                <time>2017-07-15T09:42:12Z</time>
            </trkpt>
            <trkpt lat="46.398870" lon="11.251800">
                <time>2017-07-15T09:42:13Z</time>
            </trkpt>
            <trkpt lat="46.398970" lon="11.251750">
                <time>2017-07-15T09:42:14Z</time>
            </trkpt>
            <trkpt lat="46.399090" lon="11.251680">
                <time>2017-07-15T09:42:15Z</time>
            </trkpt>
            <trkpt lat="46.399190" lon="11.251600">
                <time>2017-07-15T09:42:16Z</time>
            </trkpt>
            <trkpt lat="46.399310" lon="11.251530">
                <time>2017-07-15T09:42:17Z</time>
            </trkpt>
            <trkpt lat="46.399440" lon="11.251440">
                <time>2017-07-15T09:42:18Z</time>
            </trkpt>
            <trkpt lat="46.399560" lon="11.251360">
                <time>2017-07-15T09:42:19Z</time>
            </trkpt>
            <trkpt lat="46.399710" lon="11.251250">
                <time>2017-07-15T09:42:20Z</time>
            </trkpt>
            <trkpt lat="46.399830" lon="11.251130">
                <time>2017-07-15T09:42:21Z</time>
            </trkpt>
            <trkpt lat="46.399960" lon="11.251000">
                <time>2017-07-15T09:42:22Z</time>
            </trkpt>
            <trkpt lat="46.400100" lon="11.250850">
                <time>2017-07-15T09:42:23Z</time>
            </trkpt>
            <trkpt lat="46.400210" lon="11.250710">
                <time>2017-07-15T09:42:24Z</time>
            </trkpt>
            <trkpt lat="46.400320" lon="11.250560">
                <time>2017-07-15T09:42:25Z</time>
            </trkpt>
            <trkpt lat="46.400430" lon="11.250410">
                <time>2017-07-15T09:42:26Z</time>
            </trkpt>
            <trkpt lat="46.400550" lon="11.250270">
                <time>2017-07-15T09:42:27Z</time>
            </trkpt>
            <trkpt lat="46.400680" lon="11.250140">
                <time>2017-07-15T09:42:28Z</time>
            </trkpt>
            <trkpt lat="46.400800" lon="11.250050">
                <time>2017-07-15T09:42:29Z</time>
            </trkpt>
            <trkpt lat="46.400930" lon="11.249970">
                <time>2017-07-15T09:42:30Z</time>
            </trkpt>
            <trkpt lat="46.401080" lon="11.249920">
                <time>2017-07-15T09:42:31Z</time>
            </trkpt>
            <trkpt lat="46.401210" lon="11.249890">
                <time>2017-07-15T09:42:32Z</time>
            </trkpt>
            <trkpt lat="46.401360" lon="11.249870">
                <time>2017-07-15T09:42:33Z</time>
            </trkpt>
            <trkpt lat="46.401530" lon="11.249840">
                <time>2017-07-15T09:42:34Z</time>
            </trkpt>
            <trkpt lat="46.401680" lon="11.249810">
                <time>2017-07-15T09:42:35Z</time>
            </trkpt>
            <trkpt lat="46.401850" lon="11.249760">
                <time>2017-07-15T09:42:36Z</time>
            </trkpt>
            <trkpt lat="46.402000" lon="11.249710">
                <time>2017-07-15T09:42:37Z</time>
            </trkpt>
            <trkpt lat="46.402170" lon="11.249650">
                <time>2017-07-15T09:42:38Z</time>
            </trkpt>
            <trkpt lat="46.402350" lon="11.249590">
                <time>2017-07-15T09:42:39Z</time>
            </trkpt>
            <trkpt lat="46.402510" lon="11.249530">
                <time>2017-07-15T09:42:40Z</time>
            </trkpt>
            <trkpt lat="46.402680" lon="11.249470">
                <time>2017-07-15T09:42:41Z</time>
            </trkpt>
            <trkpt lat="46.402840" lon="11.249400">
                <time>2017-07-15T09:42:42Z</time>
            </trkpt>
            <trkpt lat="46.403010" lon="11.249320">
                <time>2017-07-15T09:42:43Z</time>
            </trkpt>
            <trkpt lat="46.403180" lon="11.249220">
                <time>2017-07-15T09:42:44Z</time>
            </trkpt>
            <trkpt lat="46.403340" lon="11.249130">
                <time>2017-07-15T09:42:45Z</time>
            </trkpt>
            <trkpt lat="46.403510" lon="11.249030">
                <time>2017-07-15T09:42:46Z</time>
            </trkpt>
            <trkpt lat="46.403680" lon="11.248930">
                <time>2017-07-15T09:42:47Z</time>
            </trkpt>
            <trkpt lat="46.403830" lon="11.248840">
                <time>2017-07-15T09:42:48Z</time>
            </trkpt>
            <trkpt lat="46.403990" lon="11.248760">
                <time>2017-07-15T09:42:49Z</time>
            </trkpt>
            <trkpt lat="46.404150" lon="11.248700">
                <time>2017-07-15T09:42:50Z</time>
            </trkpt>
            <trkpt lat="46.404280" lon="11.248660">
                <time>2017-07-15T09:42:51Z</time>
            </trkpt>
            <trkpt lat="46.404440" lon="11.248630">
                <time>2017-07-15T09:42:52Z</time>
            </trkpt>
            <trkpt lat="46.404590" lon="11.248600">
                <time>2017-07-15T09:42:53Z</time>
            </trkpt>
            <trkpt lat="46.404740" lon="11.248570">
                <time>2017-07-15T09:42:54Z</time>
            </trkpt>
            <trkpt lat="46.404910" lon="11.248550">
                <time>2017-07-15T09:42:55Z</time>
            </trkpt>
            <trkpt lat="46.405060" lon="11.248540">
                <time>2017-07-15T09:42:56Z</time>
            </trkpt>
            <trkpt lat="46.405230" lon="11.248530">
                <time>2017-07-15T09:42:57Z</time>
            </trkpt>
            <trkpt lat="46.405380" lon="11.248520">
                <time>2017-07-15T09:42:58Z</time>
            </trkpt>
            <trkpt lat="46.405550" lon="11.248500">
                <time>2017-07-15T09:42:59Z</time>
            </trkpt>
            <trkpt lat="46.405710" lon="11.248470">
                <time>2017-07-15T09:43:00Z</time>
            </trkpt>
            <trkpt lat="46.405840" lon="11.248430">
                <time>2017-07-15T09:43:01Z</time>
            </trkpt>
            <trkpt lat="46.405960" lon="11.248360">
                <time>2017-07-15T09:43:02Z</time>
            </trkpt>
            <trkpt lat="46.406070" lon="11.248280">
                <time>2017-07-15T09:43:03Z</time>
            </trkpt>
            <trkpt lat="46.406150" lon="11.248200">
                <time>2017-07-15T09:43:04Z</time>
            </trkpt>
            <trkpt lat="46.406210" lon="11.248140">
                <time>2017-07-15T09:43:05Z</time>
            </trkpt>
            <trkpt lat="46.406250" lon="11.248110">
                <time>2017-07-15T09:43:06Z</time>
            </trkpt>
            <trkpt lat="46.406270" lon="11.248090">
                <time>2017-07-15T09:43:07Z</time>
            </trkpt>
            <trkpt lat="46.406300" lon="11.248080">
                <time>2017-07-15T09:43:08Z</time>
            </trkpt>
            <trkpt lat="46.406350" lon="11.248060">
                <time>2017-07-15T09:43:09Z</time>
            </trkpt>
            <trkpt lat="46.406400" lon="11.248010">
                <time>2017-07-15T09:43:10Z</time>
            </trkpt>
            <trkpt lat="46.406430" lon="11.247960">
                <time>2017-07-15T09:43:11Z</time>
            </trkpt>
            <trkpt lat="46.406440" lon="11.247900">
                <time>2017-07-15T09:43:12Z</time>
            </trkpt>
            <trkpt lat="46.406440" lon="11.247830">
                <time>2017-07-15T09:43:13Z</time>
            </trkpt>
            <trkpt lat="46.406410" lon="11.247760">
                <time>2017-07-15T09:43:14Z</time>
            </trkpt>
            <trkpt lat="46.406370" lon="11.247680">
                <time>2017-07-15T09:43:15Z</time>
            </trkpt>
            <trkpt lat="46.406350" lon="11.247570">
                <time>2017-07-15T09:43:16Z</time>
            </trkpt>
            <trkpt lat="46.406350" lon="11.247460">
                <time>2017-07-15T09:43:17Z</time>
            </trkpt>
            <trkpt lat="46.406370" lon="11.247350">
                <time>2017-07-15T09:43:18Z</time>
            </trkpt>
            <trkpt lat="46.406400" lon="11.247210">
                <time>2017-07-15T09:43:19Z</time>
            </trkpt>
            <trkpt lat="46.406430" lon="11.247080">
                <time>2017-07-15T09:43:20Z</time>
            </trkpt>
            <trkpt lat="46.406470" lon="11.246930">
                <time>2017-07-15T09:43:21Z</time>
            </trkpt>
            <trkpt lat="46.406520" lon="11.246770">
                <time>2017-07-15T09:43:22Z</time>
            </trkpt>
            <trkpt lat="46.406560" lon="11.246620">
                <time>2017-07-15T09:43:23Z</time>
            </trkpt>
            <trkpt lat="46.406610" lon="11.246440">
                <time>2017-07-15T09:43:24Z</time>
            </trkpt>
            <trkpt lat="46.406650" lon="11.246280">
                <time>2017-07-15T09:43:25Z</time>
            </trkpt>
            <trkpt lat="46.406700" lon="11.246110">
                <time>2017-07-15T09:43:26Z</time>
            </trkpt>
            <trkpt lat="46.406750" lon="11.245920">
                <time>2017-07-15T09:43:27Z</time>
            </trkpt>
            <trkpt lat="46.406800" lon="11.245750">
                <time>2017-07-15T09:43:28Z</time>
            </trkpt>
            <trkpt lat="46.406860" lon="11.245580">
                <time>2017-07-15T09:43:29Z</time>
            </trkpt>
            <trkpt lat="46.406920" lon="11.245390">
                <time>2017-07-15T09:43:30Z</time>
            </trkpt>
            <trkpt lat="46.406970" lon="11.245210">
                <time>2017-07-15T09:43:31Z</time>
            </trkpt>
            <trkpt lat="46.407040" lon="11.245030">
                <time>2017-07-15T09:43:32Z</time>
            </trkpt>
            <trkpt lat="46.407100" lon="11.244890">
                <time>2017-07-15T09:43:33Z</time>
            </trkpt>
            <trkpt lat="46.407180" lon="11.244760">
                <time>2017-07-15T09:43:34Z</time>
            </trkpt>
            <trkpt lat="46.407300" lon="11.244640">
                <time>2017-07-15T09:43:35Z</time>
            </trkpt>
            <trkpt lat="46.407410" lon="11.244560">
                <time>2017-07-15T09:43:36Z</time>
            </trkpt>
            <trkpt lat="46.407520" lon="11.244490">
                <time>2017-07-15T09:43:37Z</time>
            </trkpt>
            <trkpt lat="46.407640" lon="11.244400">
                <time>2017-07-15T09:43:38Z</time>
            </trkpt>
            <trkpt lat="46.407750" lon="11.244320">
                <time>2017-07-15T09:43:39Z</time>
            </trkpt>
            <trkpt lat="46.407850" lon="11.244190">
                <time>2017-07-15T09:43:40Z</time>
            </trkpt>
            <trkpt lat="46.407940" lon="11.244070">
                <time>2017-07-15T09:43:41Z</time>
            </trkpt>
            <trkpt lat="46.408030" lon="11.243920">
                <time>2017-07-15T09:43:42Z</time>
            </trkpt>
            <trkpt lat="46.408130" lon="11.243770">
                <time>2017-07-15T09:43:43Z</time>
            </trkpt>
            <trkpt lat="46.408240" lon="11.243660">
                <time>2017-07-15T09:43:44Z</time>
            </trkpt>
            <trkpt lat="46.408370" lon="11.243550">
                <time>2017-07-15T09:43:45Z</time>
            </trkpt>
            <trkpt lat="46.408500" lon="11.243470">
                <time>2017-07-15T09:43:46Z</time>
            </trkpt>
            <trkpt lat="46.408620" lon="11.243390">
                <time>2017-07-15T09:43:47Z</time>
            </trkpt>
            <trkpt lat="46.408740" lon="11.243310">
                <time>2017-07-15T09:43:48Z</time>
            </trkpt>
            <trkpt lat="46.408830" lon="11.243210">
                <time>2017-07-15T09:43:49Z</time>
            </trkpt>
            <trkpt lat="46.408920" lon="11.243090">
                <time>2017-07-15T09:43:50Z</time>
            </trkpt>
            <trkpt lat="46.408990" lon="11.242940">
                <time>2017-07-15T09:43:51Z</time>
            </trkpt>
            <trkpt lat="46.409050" lon="11.242790">
                <time>2017-07-15T09:43:52Z</time>
            </trkpt>
            <trkpt lat="46.409090" lon="11.242620">
                <time>2017-07-15T09:43:53Z</time>
            </trkpt>
            <trkpt lat="46.409140" lon="11.242450">
                <time>2017-07-15T09:43:54Z</time>
            </trkpt>
            <trkpt lat="46.409190" lon="11.242300">
                <time>2017-07-15T09:43:55Z</time>
            </trkpt>
            <trkpt lat="46.409280" lon="11.242140">
                <time>2017-07-15T09:43:56Z</time>
            </trkpt>
            <trkpt lat="46.409350" lon="11.242000">
                <time>2017-07-15T09:43:57Z</time>
            </trkpt>
            <trkpt lat="46.409430" lon="11.241870">
                <time>2017-07-15T09:43:58Z</time>
            </trkpt>
            <trkpt lat="46.409530" lon="11.241750">
                <time>2017-07-15T09:43:59Z</time>
            </trkpt>
            <trkpt lat="46.409620" lon="11.241660">
                <time>2017-07-15T09:44:00Z</time>
            </trkpt>
            <trkpt lat="46.409720" lon="11.241590">
                <time>2017-07-15T09:44:01Z</time>
            </trkpt>
            <trkpt lat="46.409820" lon="11.241530">
                <time>2017-07-15T09:44:02Z</time>
            </trkpt>
            <trkpt lat="46.409920" lon="11.241480">
                <time>2017-07-15T09:44:03Z</time>
            </trkpt>
            <trkpt lat="46.410040" lon="11.241430">
                <time>2017-07-15T09:44:04Z</time>
            </trkpt>
            <trkpt lat="46.410150" lon="11.241400">
                <time>2017-07-15T09:44:05Z</time>
            </trkpt>
            <trkpt lat="46.410250" lon="11.241360">
                <time>2017-07-15T09:44:06Z</time>
            </trkpt>
            <trkpt lat="46.410360" lon="11.241330">
                <time>2017-07-15T09:44:07Z</time>
            </trkpt>
            <trkpt lat="46.410440" lon="11.241300">
                <time>2017-07-15T09:44:08Z</time>
            </trkpt>
            <trkpt lat="46.410520" lon="11.241270">
                <time>2017-07-15T09:44:09Z</time>
            </trkpt>
            <trkpt lat="46.410620" lon="11.241230">
                <time>2017-07-15T09:44:10Z</time>
            </trkpt>
            <trkpt lat="46.410700" lon="11.241170">
                <time>2017-07-15T09:44:11Z</time>
            </trkpt>
            <trkpt lat="46.410780" lon="11.241080">
                <time>2017-07-15T09:44:12Z</time>
            </trkpt>
            <trkpt lat="46.410840" lon="11.240990">
                <time>2017-07-15T09:44:13Z</time>
            </trkpt>
            <trkpt lat="46.410880" lon="11.240900">
                <time>2017-07-15T09:44:14Z</time>
            </trkpt>
            <trkpt lat="46.410910" lon="11.240800">
                <time>2017-07-15T09:44:15Z</time>
            </trkpt>
            <trkpt lat="46.410920" lon="11.240720">
                <time>2017-07-15T09:44:16Z</time>
            </trkpt>
            <trkpt lat="46.410940" lon="11.240620">
                <time>2017-07-15T09:44:17Z</time>
            </trkpt>
            <trkpt lat="46.410950" lon="11.240510">
                <time>2017-07-15T09:44:18Z</time>
            </trkpt>
            <trkpt lat="46.410950" lon="11.240400">
                <time>2017-07-15T09:44:19Z</time>
            </trkpt>
            <trkpt lat="46.410950" lon="11.240260">
                <time>2017-07-15T09:44:20Z</time>
            </trkpt>
            <trkpt lat="46.410930" lon="11.240130">
                <time>2017-07-15T09:44:21Z</time>
            </trkpt>
            <trkpt lat="46.410900" lon="11.239990">
                <time>2017-07-15T09:44:22Z</time>
            </trkpt>
            <trkpt lat="46.410860" lon="11.239860">
                <time>2017-07-15T09:44:23Z</time>
            </trkpt>
            <trkpt lat="46.410800" lon="11.239750">
                <time>2017-07-15T09:44:24Z</time>
            </trkpt>
            <trkpt lat="46.410730" lon="11.239640">
                <time>2017-07-15T09:44:25Z</time>
            </trkpt>
            <trkpt lat="46.410640" lon="11.239520">
                <time>2017-07-15T09:44:26Z</time>
            </trkpt>
            <trkpt lat="46.410580" lon="11.239430">
                <time>2017-07-15T09:44:27Z</time>
            </trkpt>
            <trkpt lat="46.410490" lon="11.239320">
                <time>2017-07-15T09:44:28Z</time>
            </trkpt>
            <trkpt lat="46.410410" lon="11.239220">
                <time>2017-07-15T09:44:29Z</time>
            </trkpt>
            <trkpt lat="46.410310" lon="11.239120">
                <time>2017-07-15T09:44:30Z</time>
            </trkpt>
            <trkpt lat="46.410220" lon="11.239010">
                <time>2017-07-15T09:44:31Z</time>
            </trkpt>
            <trkpt lat="46.410130" lon="11.238920">
                <time>2017-07-15T09:44:32Z</time>
            </trkpt>
            <trkpt lat="46.410040" lon="11.238820">
                <time>2017-07-15T09:44:33Z</time>
            </trkpt>
            <trkpt lat="46.409950" lon="11.238730">
                <time>2017-07-15T09:44:34Z</time>
            </trkpt>
            <trkpt lat="46.409850" lon="11.238650">
                <time>2017-07-15T09:44:35Z</time>
            </trkpt>
            <trkpt lat="46.409730" lon="11.238590">
                <time>2017-07-15T09:44:36Z</time>
            </trkpt>
            <trkpt lat="46.409630" lon="11.238530">
                <time>2017-07-15T09:44:37Z</time>
            </trkpt>
            <trkpt lat="46.409510" lon="11.238480">
                <time>2017-07-15T09:44:38Z</time>
            </trkpt>
            <trkpt lat="46.409390" lon="11.238420">
                <time>2017-07-15T09:44:39Z</time>
            </trkpt>
            <trkpt lat="46.409270" lon="11.238370">
                <time>2017-07-15T09:44:40Z</time>
            </trkpt>
            <trkpt lat="46.409160" lon="11.238320">
                <time>2017-07-15T09:44:41Z</time>
            </trkpt>
            <trkpt lat="46.409040" lon="11.238270">
                <time>2017-07-15T09:44:42Z</time>
            </trkpt>
            <trkpt lat="46.408950" lon="11.238210">
                <time>2017-07-15T09:44:43Z</time>
            </trkpt>
            <trkpt lat="46.408840" lon="11.238140">
                <time>2017-07-15T09:44:44Z</time>
            </trkpt>
            <trkpt lat="46.408740" lon="11.238100">
                <time>2017-07-15T09:44:45Z</time>
            </trkpt>
            <trkpt lat="46.408640" lon="11.238040">
                <time>2017-07-15T09:44:46Z</time>
            </trkpt>
            <trkpt lat="46.408530" lon="11.237970">
                <time>2017-07-15T09:44:47Z</time>
            </trkpt>
            <trkpt lat="46.408430" lon="11.237910">
                <time>2017-07-15T09:44:48Z</time>
            </trkpt>
            <trkpt lat="46.408320" lon="11.237850">
                <time>2017-07-15T09:44:49Z</time>
            </trkpt>
            <trkpt lat="46.408210" lon="11.237790">
                <time>2017-07-15T09:44:50Z</time>
            </trkpt>
            <trkpt lat="46.408110" lon="11.237730">
                <time>2017-07-15T09:44:51Z</time>
            </trkpt>
            <trkpt lat="46.407990" lon="11.237660">
                <time>2017-07-15T09:44:52Z</time>
            </trkpt>
            <trkpt lat="46.407890" lon="11.237600">
                <time>2017-07-15T09:44:53Z</time>
            </trkpt>
            <trkpt lat="46.407790" lon="11.237540">
                <time>2017-07-15T09:44:54Z</time>
            </trkpt>
            <trkpt lat="46.407680" lon="11.237480">
                <time>2017-07-15T09:44:55Z</time>
            </trkpt>
            <trkpt lat="46.407580" lon="11.237430">
                <time>2017-07-15T09:44:56Z</time>
            </trkpt>
            <trkpt lat="46.407480" lon="11.237370">
                <time>2017-07-15T09:44:57Z</time>
            </trkpt>
            <trkpt lat="46.407370" lon="11.237310">
                <time>2017-07-15T09:44:58Z</time>
            </trkpt>
            <trkpt lat="46.407270" lon="11.237240">
                <time>2017-07-15T09:44:59Z</time>
            </trkpt>
            <trkpt lat="46.407170" lon="11.237160">
                <time>2017-07-15T09:45:00Z</time>
            </trkpt>
            <trkpt lat="46.407080" lon="11.237070">
                <time>2017-07-15T09:45:01Z</time>
            </trkpt>
            <trkpt lat="46.406980" lon="11.236980">
                <time>2017-07-15T09:45:02Z</time>
            </trkpt>
            <trkpt lat="46.406870" lon="11.236890">
                <time>2017-07-15T09:45:03Z</time>
            </trkpt>
            <trkpt lat="46.406770" lon="11.236810">
                <time>2017-07-15T09:45:04Z</time>
            </trkpt>
            <trkpt lat="46.406670" lon="11.236720">
                <time>2017-07-15T09:45:05Z</time>
            </trkpt>
            <trkpt lat="46.406580" lon="11.236640">
                <time>2017-07-15T09:45:06Z</time>
            </trkpt>
            <trkpt lat="46.406490" lon="11.236570">
                <time>2017-07-15T09:45:07Z</time>
            </trkpt>
            <trkpt lat="46.406410" lon="11.236500">
                <time>2017-07-15T09:45:08Z</time>
            </trkpt>
            <trkpt lat="46.406350" lon="11.236450">
                <time>2017-07-15T09:45:09Z</time>
            </trkpt>
            <trkpt lat="46.406290" lon="11.236390">
                <time>2017-07-15T09:45:10Z</time>
            </trkpt>
            <trkpt lat="46.406220" lon="11.236310">
                <time>2017-07-15T09:45:11Z</time>
            </trkpt>
            <trkpt lat="46.406170" lon="11.236220">
                <time>2017-07-15T09:45:12Z</time>
            </trkpt>
            <trkpt lat="46.406130" lon="11.236100">
                <time>2017-07-15T09:45:13Z</time>
            </trkpt>
            <trkpt lat="46.406110" lon="11.235950">
                <time>2017-07-15T09:45:14Z</time>
            </trkpt>
            <trkpt lat="46.406120" lon="11.235820">
                <time>2017-07-15T09:45:15Z</time>
            </trkpt>
            <trkpt lat="46.406170" lon="11.235690">
                <time>2017-07-15T09:45:16Z</time>
            </trkpt>
            <trkpt lat="46.406240" lon="11.235600">
                <time>2017-07-15T09:45:17Z</time>
            </trkpt>
            <trkpt lat="46.406330" lon="11.235550">
                <time>2017-07-15T09:45:18Z</time>
            </trkpt>
            <trkpt lat="46.406450" lon="11.235540">
                <time>2017-07-15T09:45:19Z</time>
            </trkpt>
            <trkpt lat="46.406560" lon="11.235550">
                <time>2017-07-15T09:45:20Z</time>
            </trkpt>
            <trkpt lat="46.406680" lon="11.235590">
                <time>2017-07-15T09:45:21Z</time>
            </trkpt>
            <trkpt lat="46.406810" lon="11.235620">
                <time>2017-07-15T09:45:22Z</time>
            </trkpt>
            <trkpt lat="46.406950" lon="11.235650">
                <time>2017-07-15T09:45:23Z</time>
            </trkpt>
            <trkpt lat="46.407090" lon="11.235690">
                <time>2017-07-15T09:45:24Z</time>
            </trkpt>
            <trkpt lat="46.407210" lon="11.235720">
                <time>2017-07-15T09:45:25Z</time>
            </trkpt>
            <trkpt lat="46.407340" lon="11.235750">
                <time>2017-07-15T09:45:26Z</time>
            </trkpt>
            <trkpt lat="46.407480" lon="11.235780">
                <time>2017-07-15T09:45:27Z</time>
            </trkpt>
            <trkpt lat="46.407600" lon="11.235800">
                <time>2017-07-15T09:45:28Z</time>
            </trkpt>
            <trkpt lat="46.407740" lon="11.235800">
                <time>2017-07-15T09:45:29Z</time>
            </trkpt>
            <trkpt lat="46.407890" lon="11.235790">
                <time>2017-07-15T09:45:30Z</time>
            </trkpt>
            <trkpt lat="46.408020" lon="11.235770">
                <time>2017-07-15T09:45:31Z</time>
            </trkpt>
            <trkpt lat="46.408180" lon="11.235760">
                <time>2017-07-15T09:45:32Z</time>
            </trkpt>
            <trkpt lat="46.408310" lon="11.235750">
                <time>2017-07-15T09:45:33Z</time>
            </trkpt>
            <trkpt lat="46.408450" lon="11.235740">
                <time>2017-07-15T09:45:34Z</time>
            </trkpt>
            <trkpt lat="46.408610" lon="11.235730">
                <time>2017-07-15T09:45:35Z</time>
            </trkpt>
            <trkpt lat="46.408740" lon="11.235730">
                <time>2017-07-15T09:45:36Z</time>
            </trkpt>
            <trkpt lat="46.408870" lon="11.235710">
                <time>2017-07-15T09:45:37Z</time>
            </trkpt>
            <trkpt lat="46.409000" lon="11.235690">
                <time>2017-07-15T09:45:38Z</time>
            </trkpt>
            <trkpt lat="46.409130" lon="11.235670">
                <time>2017-07-15T09:45:39Z</time>
            </trkpt>
            <trkpt lat="46.409260" lon="11.235630">
                <time>2017-07-15T09:45:40Z</time>
            </trkpt>
            <trkpt lat="46.409370" lon="11.235580">
                <time>2017-07-15T09:45:41Z</time>
            </trkpt>
            <trkpt lat="46.409490" lon="11.235520">
                <time>2017-07-15T09:45:42Z</time>
            </trkpt>
            <trkpt lat="46.409610" lon="11.235450">
                <time>2017-07-15T09:45:43Z</time>
            </trkpt>
            <trkpt lat="46.409720" lon="11.235390">
                <time>2017-07-15T09:45:44Z</time>
            </trkpt>
            <trkpt lat="46.409850" lon="11.235320">
                <time>2017-07-15T09:45:45Z</time>
            </trkpt>
            <trkpt lat="46.409980" lon="11.235240">
                <time>2017-07-15T09:45:46Z</time>
            </trkpt>
            <trkpt lat="46.410100" lon="11.235170">
                <time>2017-07-15T09:45:47Z</time>
            </trkpt>
            <trkpt lat="46.410250" lon="11.235100">
                <time>2017-07-15T09:45:48Z</time>
            </trkpt>
            <trkpt lat="46.410380" lon="11.235050">
                <time>2017-07-15T09:45:49Z</time>
            </trkpt>
            <trkpt lat="46.410520" lon="11.235010">
                <time>2017-07-15T09:45:50Z</time>
            </trkpt>
            <trkpt lat="46.410670" lon="11.234960">
                <time>2017-07-15T09:45:51Z</time>
            </trkpt>
            <trkpt lat="46.410820" lon="11.234920">
                <time>2017-07-15T09:45:52Z</time>
            </trkpt>
            <trkpt lat="46.410960" lon="11.234870">
                <time>2017-07-15T09:45:53Z</time>
            </trkpt>
            <trkpt lat="46.411110" lon="11.234800">
                <time>2017-07-15T09:45:54Z</time>
            </trkpt>
            <trkpt lat="46.411240" lon="11.234720">
                <time>2017-07-15T09:45:55Z</time>
            </trkpt>
            <trkpt lat="46.411390" lon="11.234630">
                <time>2017-07-15T09:45:56Z</time>
            </trkpt>
            <trkpt lat="46.411500" lon="11.234530">
                <time>2017-07-15T09:45:57Z</time>
            </trkpt>
            <trkpt lat="46.411630" lon="11.234420">
                <time>2017-07-15T09:45:58Z</time>
            </trkpt>
            <trkpt lat="46.411760" lon="11.234290">
                <time>2017-07-15T09:45:59Z</time>
            </trkpt>
            <trkpt lat="46.411870" lon="11.234180">
                <time>2017-07-15T09:46:00Z</time>
            </trkpt>
            <trkpt lat="46.411980" lon="11.234070">
                <time>2017-07-15T09:46:01Z</time>
            </trkpt>
            <trkpt lat="46.412110" lon="11.233950">
                <time>2017-07-15T09:46:02Z</time>
            </trkpt>
            <trkpt lat="46.412210" lon="11.233850">
                <time>2017-07-15T09:46:03Z</time>
            </trkpt>
            <trkpt lat="46.412320" lon="11.233750">
                <time>2017-07-15T09:46:04Z</time>
            </trkpt>
            <trkpt lat="46.412410" lon="11.233670">
                <time>2017-07-15T09:46:05Z</time>
            </trkpt>
            <trkpt lat="46.412510" lon="11.233590">
                <time>2017-07-15T09:46:06Z</time>
            </trkpt>
            <trkpt lat="46.412600" lon="11.233510">
                <time>2017-07-15T09:46:07Z</time>
            </trkpt>
            <trkpt lat="46.412690" lon="11.233440">
                <time>2017-07-15T09:46:08Z</time>
            </trkpt>
            <trkpt lat="46.412790" lon="11.233380">
                <time>2017-07-15T09:46:09Z</time>
            </trkpt>
            <trkpt lat="46.412880" lon="11.233310">
                <time>2017-07-15T09:46:10Z</time>
            </trkpt>
            <trkpt lat="46.412950" lon="11.233250">
                <time>2017-07-15T09:46:11Z</time>
            </trkpt>
            <trkpt lat="46.413030" lon="11.233190">
                <time>2017-07-15T09:46:12Z</time>
            </trkpt>
            <trkpt lat="46.413100" lon="11.233130">
                <time>2017-07-15T09:46:13Z</time>
            </trkpt>
            <trkpt lat="46.413190" lon="11.233060">
                <time>2017-07-15T09:46:14Z</time>
            </trkpt>
            <trkpt lat="46.413290" lon="11.232980">
                <time>2017-07-15T09:46:15Z</time>
            </trkpt>
            <trkpt lat="46.413380" lon="11.232910">
                <time>2017-07-15T09:46:16Z</time>
            </trkpt>
            <trkpt lat="46.413470" lon="11.232830">
                <time>2017-07-15T09:46:17Z</time>
            </trkpt>
            <trkpt lat="46.413520" lon="11.232700">
                <time>2017-07-15T09:46:18Z</time>
            </trkpt>
            <trkpt lat="46.413550" lon="11.232570">
                <time>2017-07-15T09:46:19Z</time>
            </trkpt>
            <trkpt lat="46.413570" lon="11.232410">
                <time>2017-07-15T09:46:20Z</time>
            </trkpt>
            <trkpt lat="46.413590" lon="11.232250">
                <time>2017-07-15T09:46:21Z</time>
            </trkpt>
            <trkpt lat="46.413610" lon="11.232100">
                <time>2017-07-15T09:46:22Z</time>
            </trkpt>
            <trkpt lat="46.413660" lon="11.231950">
                <time>2017-07-15T09:46:23Z</time>
            </trkpt>
            <trkpt lat="46.413740" lon="11.231830">
                <time>2017-07-15T09:46:24Z</time>
            </trkpt>
            <trkpt lat="46.413840" lon="11.231730">
                <time>2017-07-15T09:46:25Z</time>
            </trkpt>
            <trkpt lat="46.413950" lon="11.231660">
                <time>2017-07-15T09:46:26Z</time>
            </trkpt>
            <trkpt lat="46.414060" lon="11.231610">
                <time>2017-07-15T09:46:27Z</time>
            </trkpt>
            <trkpt lat="46.414190" lon="11.231550">
                <time>2017-07-15T09:46:28Z</time>
            </trkpt>
            <trkpt lat="46.414310" lon="11.231510">
                <time>2017-07-15T09:46:29Z</time>
            </trkpt>
            <trkpt lat="46.414440" lon="11.231470">
                <time>2017-07-15T09:46:30Z</time>
            </trkpt>
            <trkpt lat="46.414590" lon="11.231440">
                <time>2017-07-15T09:46:31Z</time>
            </trkpt>
            <trkpt lat="46.414720" lon="11.231440">
                <time>2017-07-15T09:46:32Z</time>
            </trkpt>
            <trkpt lat="46.414860" lon="11.231460">
                <time>2017-07-15T09:46:33Z</time>
            </trkpt>
            <trkpt lat="46.415020" lon="11.231520">
                <time>2017-07-15T09:46:34Z</time>
            </trkpt>
            <trkpt lat="46.415130" lon="11.231570">
                <time>2017-07-15T09:46:35Z</time>
            </trkpt>
            <trkpt lat="46.415260" lon="11.231620">
                <time>2017-07-15T09:46:36Z</time>
            </trkpt>
            <trkpt lat="46.415380" lon="11.231640">
                <time>2017-07-15T09:46:37Z</time>
            </trkpt>
            <trkpt lat="46.415500" lon="11.231630">
                <time>2017-07-15T09:46:38Z</time>
            </trkpt>
            <trkpt lat="46.415640" lon="11.231600">
                <time>2017-07-15T09:46:39Z</time>
            </trkpt>
            <trkpt lat="46.415760" lon="11.231560">
                <time>2017-07-15T09:46:40Z</time>
            </trkpt>
            <trkpt lat="46.415890" lon="11.231520">
                <time>2017-07-15T09:46:41Z</time>
            </trkpt>
            <trkpt lat="46.416020" lon="11.231480">
                <time>2017-07-15T09:46:42Z</time>
            </trkpt>
            <trkpt lat="46.416160" lon="11.231450">
                <time>2017-07-15T09:46:43Z</time>
            </trkpt>
            <trkpt lat="46.416300" lon="11.231430">
                <time>2017-07-15T09:46:44Z</time>
            </trkpt>
            <trkpt lat="46.416430" lon="11.231450">
                <time>2017-07-15T09:46:45Z</time>
            </trkpt>
            <trkpt lat="46.416550" lon="11.231500">
                <time>2017-07-15T09:46:46Z</time>
            </trkpt>
            <trkpt lat="46.416680" lon="11.231570">
                <time>2017-07-15T09:46:47Z</time>
            </trkpt>
            <trkpt lat="46.416800" lon="11.231640">
                <time>2017-07-15T09:46:48Z</time>
            </trkpt>
            <trkpt lat="46.416910" lon="11.231730">
                <time>2017-07-15T09:46:49Z</time>
            </trkpt>
            <trkpt lat="46.417030" lon="11.231850">
                <time>2017-07-15T09:46:50Z</time>
            </trkpt>
            <trkpt lat="46.417120" lon="11.231960">
                <time>2017-07-15T09:46:51Z</time>
            </trkpt>
            <trkpt lat="46.417210" lon="11.232090">
                <time>2017-07-15T09:46:52Z</time>
            </trkpt>
            <trkpt lat="46.417300" lon="11.232180">
                <time>2017-07-15T09:46:53Z</time>
            </trkpt>
            <trkpt lat="46.417390" lon="11.232260">
                <time>2017-07-15T09:46:54Z</time>
            </trkpt>
            <trkpt lat="46.417490" lon="11.232330">
                <time>2017-07-15T09:46:55Z</time>
            </trkpt>
            <trkpt lat="46.417560" lon="11.232380">
                <time>2017-07-15T09:46:56Z</time>
            </trkpt>
            <trkpt lat="46.417660" lon="11.232420">
                <time>2017-07-15T09:46:57Z</time>
            </trkpt>
            <trkpt lat="46.417750" lon="11.232430">
                <time>2017-07-15T09:46:58Z</time>
            </trkpt>
            <trkpt lat="46.417840" lon="11.232460">
                <time>2017-07-15T09:46:59Z</time>
            </trkpt>
            <trkpt lat="46.417910" lon="11.232540">
                <time>2017-07-15T09:47:00Z</time>
            </trkpt>
            <trkpt lat="46.417940" lon="11.232640">
                <time>2017-07-15T09:47:01Z</time>
            </trkpt>
            <trkpt lat="46.417980" lon="11.232760">
                <time>2017-07-15T09:47:02Z</time>
            </trkpt>
            <trkpt lat="46.418000" lon="11.232870">
                <time>2017-07-15T09:47:03Z</time>
            </trkpt>
            <trkpt lat="46.418040" lon="11.232950">
                <time>2017-07-15T09:47:04Z</time>
            </trkpt>
            <trkpt lat="46.418090" lon="11.233050">
                <time>2017-07-15T09:47:05Z</time>
            </trkpt>
            <trkpt lat="46.418150" lon="11.233130">
                <time>2017-07-15T09:47:06Z</time>
            </trkpt>
            <trkpt lat="46.418200" lon="11.233190">
                <time>2017-07-15T09:47:07Z</time>
            </trkpt>
            <trkpt lat="46.418240" lon="11.233230">
                <time>2017-07-15T09:47:08Z</time>
            </trkpt>
            <trkpt lat="46.418260" lon="11.233270">
                <time>2017-07-15T09:47:09Z</time>
            </trkpt>
            <trkpt lat="46.418280" lon="11.233290">
                <time>2017-07-15T09:47:10Z</time>
            </trkpt>
            <trkpt lat="46.418280" lon="11.233310">
                <time>2017-07-15T09:47:11Z</time>
            </trkpt>
            <trkpt lat="46.418290" lon="11.233300">
                <time>2017-07-15T09:47:12Z</time>
            </trkpt>
            <trkpt lat="46.418280" lon="11.233310">
                <time>2017-07-15T09:47:13Z</time>
            </trkpt>
            <trkpt lat="46.418280" lon="11.233300">
                <time>2017-07-15T09:47:14Z</time>
            </trkpt>
            <trkpt lat="46.418280" lon="11.233300">
                <time>2017-07-15T09:47:15Z</time>
            </trkpt>
            <trkpt lat="46.418280" lon="11.233300">
                <time>2017-07-15T09:47:16Z</time>
            </trkpt>
            <trkpt lat="46.418280" lon="11.233300">
                <time>2017-07-15T09:47:17Z</time>
            </trkpt>
            <trkpt lat="46.418280" lon="11.233300">
                <time>2017-07-15T09:47:18Z</time>
            </trkpt>
            <trkpt lat="46.418280" lon="11.233300">
                <time>2017-07-15T09:47:19Z</time>
            </trkpt>
            <trkpt lat="46.418280" lon="11.233300">
                <time>2017-07-15T09:47:20Z</time>
            </trkpt>
            <trkpt lat="46.418280" lon="11.233300">
                <time>2017-07-15T09:47:21Z</time>
            </trkpt>
            <trkpt lat="46.418280" lon="11.233300">
                <time>2017-07-15T09:47:22Z</time>
            </trkpt>
            <trkpt lat="46.418280" lon="11.233300">
                <time>2017-07-15T09:47:23Z</time>
            </trkpt>
            <trkpt lat="46.418280" lon="11.233300">
                <time>2017-07-15T09:47:24Z</time>
            </trkpt>
            <trkpt lat="46.418280" lon="11.233300">
                <time>2017-07-15T09:47:25Z</time>
            </trkpt>
            <trkpt lat="46.418280" lon="11.233300">
                <time>2017-07-15T09:47:26Z</time>
            </trkpt>
            <trkpt lat="46.418280" lon="11.233300">
                <time>2017-07-15T09:47:27Z</time>
            </trkpt>
            <trkpt lat="46.418280" lon="11.233300">
                <time>2017-07-15T09:47:28Z</time>
            </trkpt>
            <trkpt lat="46.418280" lon="11.233300">
                <time>2017-07-15T09:47:29Z</time>
            </trkpt>
            <trkpt lat="46.418280" lon="11.233300">
                <time>2017-07-15T09:47:30Z</time>
            </trkpt>
            <trkpt lat="46.418280" lon="11.233300">
                <time>2017-07-15T09:47:31Z</time>
            </trkpt>
            <trkpt lat="46.418280" lon="11.233300">
                <time>2017-07-15T09:47:32Z</time>
            </trkpt>
            <trkpt lat="46.418280" lon="11.233300">
                <time>2017-07-15T09:47:33Z</time>
            </trkpt>
            <trkpt lat="46.418280" lon="11.233300">
                <time>2017-07-15T09:47:34Z</time>
            </trkpt>
            <trkpt lat="46.418280" lon="11.233300">
                <time>2017-07-15T09:47:35Z</time>
            </trkpt>
            <trkpt lat="46.418280" lon="11.233300">
                <time>2017-07-15T09:47:36Z</time>
            </trkpt>
            <trkpt lat="46.418280" lon="11.233300">
                <time>2017-07-15T09:47:37Z</time>
            </trkpt>
            <trkpt lat="46.418280" lon="11.233300">
                <time>2017-07-15T09:47:38Z</time>
            </trkpt>
            <trkpt lat="46.418280" lon="11.233300">
                <time>2017-07-15T09:47:39Z</time>
            </trkpt>
            <trkpt lat="46.418280" lon="11.233300">
                <time>2017-07-15T09:47:40Z</time>
            </trkpt>
            <trkpt lat="46.418280" lon="11.233300">
                <time>2017-07-15T09:47:41Z</time>
            </trkpt>
            <trkpt lat="46.418280" lon="11.233300">
                <time>2017-07-15T09:47:42Z</time>
            </trkpt>
            <trkpt lat="46.418280" lon="11.233300">
                <time>2017-07-15T09:47:43Z</time>
            </trkpt>
            <trkpt lat="46.418350" lon="11.233250">
                <time>2017-07-15T09:50:18Z</time>
            </trkpt>
            <trkpt lat="46.418370" lon="11.233310">
                <time>2017-07-15T09:50:19Z</time>
            </trkpt>
            <trkpt lat="46.418320" lon="11.233310">
                <time>2017-07-15T09:50:20Z</time>
            </trkpt>
            <trkpt lat="46.418340" lon="11.233340">
                <time>2017-07-15T09:50:21Z</time>
            </trkpt>
            <trkpt lat="46.418320" lon="11.233340">
                <time>2017-07-15T09:50:22Z</time>
            </trkpt>
            <trkpt lat="46.418260" lon="11.233380">
                <time>2017-07-15T09:50:23Z</time>
            </trkpt>
            <trkpt lat="46.418310" lon="11.233320">
                <time>2017-07-15T09:50:24Z</time>
            </trkpt>
            <trkpt lat="46.418290" lon="11.233360">
                <time>2017-07-15T09:50:25Z</time>
            </trkpt>
            <trkpt lat="46.418290" lon="11.233280">
                <time>2017-07-15T09:50:27Z</time>
            </trkpt>
            <trkpt lat="46.418300" lon="11.233300">
                <time>2017-07-15T09:50:28Z</time>
            </trkpt>
            <trkpt lat="46.418360" lon="11.233340">
                <time>2017-07-15T09:50:29Z</time>
            </trkpt>
            <trkpt lat="46.418410" lon="11.233370">
                <time>2017-07-15T09:50:30Z</time>
            </trkpt>
            <trkpt lat="46.418460" lon="11.233400">
                <time>2017-07-15T09:50:31Z</time>
            </trkpt>
            <trkpt lat="46.418510" lon="11.233450">
                <time>2017-07-15T09:50:32Z</time>
            </trkpt>
            <trkpt lat="46.418540" lon="11.233500">
                <time>2017-07-15T09:50:33Z</time>
            </trkpt>
            <trkpt lat="46.418570" lon="11.233540">
                <time>2017-07-15T09:50:34Z</time>
            </trkpt>
            <trkpt lat="46.418610" lon="11.233580">
                <time>2017-07-15T09:50:35Z</time>
            </trkpt>
            <trkpt lat="46.418660" lon="11.233620">
                <time>2017-07-15T09:50:36Z</time>
            </trkpt>
            <trkpt lat="46.418700" lon="11.233650">
                <time>2017-07-15T09:50:37Z</time>
            </trkpt>
            <trkpt lat="46.418770" lon="11.233700">
                <time>2017-07-15T09:50:38Z</time>
            </trkpt>
            <trkpt lat="46.418830" lon="11.233740">
                <time>2017-07-15T09:50:39Z</time>
            </trkpt>
            <trkpt lat="46.418890" lon="11.233790">
                <time>2017-07-15T09:50:40Z</time>
            </trkpt>
            <trkpt lat="46.418950" lon="11.233830">
                <time>2017-07-15T09:50:41Z</time>
            </trkpt>
            <trkpt lat="46.419000" lon="11.233880">
                <time>2017-07-15T09:50:42Z</time>
            </trkpt>
            <trkpt lat="46.419060" lon="11.233940">
                <time>2017-07-15T09:50:43Z</time>
            </trkpt>
            <trkpt lat="46.419130" lon="11.234010">
                <time>2017-07-15T09:50:44Z</time>
            </trkpt>
            <trkpt lat="46.419190" lon="11.234060">
                <time>2017-07-15T09:50:45Z</time>
            </trkpt>
            <trkpt lat="46.419250" lon="11.234130">
                <time>2017-07-15T09:50:46Z</time>
            </trkpt>
            <trkpt lat="46.419330" lon="11.234190">
                <time>2017-07-15T09:50:47Z</time>
            </trkpt>
            <trkpt lat="46.419390" lon="11.234260">
                <time>2017-07-15T09:50:48Z</time>
            </trkpt>
            <trkpt lat="46.419460" lon="11.234330">
                <time>2017-07-15T09:50:49Z</time>
            </trkpt>
            <trkpt lat="46.419520" lon="11.234400">
                <time>2017-07-15T09:50:50Z</time>
            </trkpt>
            <trkpt lat="46.419580" lon="11.234450">
                <time>2017-07-15T09:50:51Z</time>
            </trkpt>
            <trkpt lat="46.419640" lon="11.234500">
                <time>2017-07-15T09:50:52Z</time>
            </trkpt>
            <trkpt lat="46.419700" lon="11.234520">
                <time>2017-07-15T09:50:53Z</time>
            </trkpt>
            <trkpt lat="46.419760" lon="11.234520">
                <time>2017-07-15T09:50:54Z</time>
            </trkpt>
            <trkpt lat="46.419830" lon="11.234470">
                <time>2017-07-15T09:50:55Z</time>
            </trkpt>
            <trkpt lat="46.419900" lon="11.234410">
                <time>2017-07-15T09:50:56Z</time>
            </trkpt>
            <trkpt lat="46.419970" lon="11.234360">
                <time>2017-07-15T09:50:57Z</time>
            </trkpt>
            <trkpt lat="46.420050" lon="11.234320">
                <time>2017-07-15T09:50:58Z</time>
            </trkpt>
            <trkpt lat="46.420130" lon="11.234320">
                <time>2017-07-15T09:50:59Z</time>
            </trkpt>
            <trkpt lat="46.420210" lon="11.234350">
                <time>2017-07-15T09:51:00Z</time>
            </trkpt>
            <trkpt lat="46.420280" lon="11.234370">
                <time>2017-07-15T09:51:01Z</time>
            </trkpt>
            <trkpt lat="46.420340" lon="11.234360">
                <time>2017-07-15T09:51:02Z</time>
            </trkpt>
            <trkpt lat="46.420400" lon="11.234300">
                <time>2017-07-15T09:51:03Z</time>
            </trkpt>
            <trkpt lat="46.420420" lon="11.234230">
                <time>2017-07-15T09:51:04Z</time>
            </trkpt>
            <trkpt lat="46.420410" lon="11.234140">
                <time>2017-07-15T09:51:05Z</time>
            </trkpt>
            <trkpt lat="46.420360" lon="11.234080">
                <time>2017-07-15T09:51:06Z</time>
            </trkpt>
            <trkpt lat="46.420290" lon="11.234040">
                <time>2017-07-15T09:51:07Z</time>
            </trkpt>
            <trkpt lat="46.420200" lon="11.234020">
                <time>2017-07-15T09:51:08Z</time>
            </trkpt>
            <trkpt lat="46.420120" lon="11.233990">
                <time>2017-07-15T09:51:09Z</time>
            </trkpt>
            <trkpt lat="46.420030" lon="11.233960">
                <time>2017-07-15T09:51:10Z</time>
            </trkpt>
            <trkpt lat="46.419970" lon="11.233870">
                <time>2017-07-15T09:51:11Z</time>
            </trkpt>
            <trkpt lat="46.419910" lon="11.233790">
                <time>2017-07-15T09:51:12Z</time>
            </trkpt>
            <trkpt lat="46.419850" lon="11.233680">
                <time>2017-07-15T09:51:13Z</time>
            </trkpt>
            <trkpt lat="46.419790" lon="11.233570">
                <time>2017-07-15T09:51:14Z</time>
            </trkpt>
            <trkpt lat="46.419730" lon="11.233470">
                <time>2017-07-15T09:51:15Z</time>
            </trkpt>
            <trkpt lat="46.419670" lon="11.233350">
                <time>2017-07-15T09:51:16Z</time>
            </trkpt>
            <trkpt lat="46.419650" lon="11.233250">
                <time>2017-07-15T09:51:17Z</time>
            </trkpt>
            <trkpt lat="46.419670" lon="11.233160">
                <time>2017-07-15T09:51:18Z</time>
            </trkpt>
            <trkpt lat="46.419710" lon="11.233100">
                <time>2017-07-15T09:51:19Z</time>
            </trkpt>
            <trkpt lat="46.419760" lon="11.233110">
                <time>2017-07-15T09:51:20Z</time>
            </trkpt>
            <trkpt lat="46.419840" lon="11.233140">
                <time>2017-07-15T09:51:21Z</time>
            </trkpt>
            <trkpt lat="46.419930" lon="11.233180">
                <time>2017-07-15T09:51:22Z</time>
            </trkpt>
            <trkpt lat="46.420030" lon="11.233200">
                <time>2017-07-15T09:51:23Z</time>
            </trkpt>
            <trkpt lat="46.420160" lon="11.233210">
                <time>2017-07-15T09:51:24Z</time>
            </trkpt>
            <trkpt lat="46.420270" lon="11.233200">
                <time>2017-07-15T09:51:25Z</time>
            </trkpt>
            <trkpt lat="46.420390" lon="11.233170">
                <time>2017-07-15T09:51:26Z</time>
            </trkpt>
            <trkpt lat="46.420520" lon="11.233120">
                <time>2017-07-15T09:51:27Z</time>
            </trkpt>
            <trkpt lat="46.420640" lon="11.233050">
                <time>2017-07-15T09:51:28Z</time>
            </trkpt>
            <trkpt lat="46.420770" lon="11.232960">
                <time>2017-07-15T09:51:29Z</time>
            </trkpt>
            <trkpt lat="46.420890" lon="11.232880">
                <time>2017-07-15T09:51:30Z</time>
            </trkpt>
            <trkpt lat="46.421010" lon="11.232810">
                <time>2017-07-15T09:51:31Z</time>
            </trkpt>
            <trkpt lat="46.421130" lon="11.232770">
                <time>2017-07-15T09:51:32Z</time>
            </trkpt>
            <trkpt lat="46.421240" lon="11.232770">
                <time>2017-07-15T09:51:33Z</time>
            </trkpt>
            <trkpt lat="46.421330" lon="11.232760">
                <time>2017-07-15T09:51:34Z</time>
            </trkpt>
            <trkpt lat="46.421410" lon="11.232720">
                <time>2017-07-15T09:51:35Z</time>
            </trkpt>
            <trkpt lat="46.421450" lon="11.232640">
                <time>2017-07-15T09:51:36Z</time>
            </trkpt>
            <trkpt lat="46.421460" lon="11.232550">
                <time>2017-07-15T09:51:37Z</time>
            </trkpt>
            <trkpt lat="46.421400" lon="11.232440">
                <time>2017-07-15T09:51:38Z</time>
            </trkpt>
            <trkpt lat="46.421330" lon="11.232340">
                <time>2017-07-15T09:51:39Z</time>
            </trkpt>
            <trkpt lat="46.421230" lon="11.232220">
                <time>2017-07-15T09:51:40Z</time>
            </trkpt>
            <trkpt lat="46.421130" lon="11.232130">
                <time>2017-07-15T09:51:41Z</time>
            </trkpt>
            <trkpt lat="46.421010" lon="11.232070">
                <time>2017-07-15T09:51:42Z</time>
            </trkpt>
            <trkpt lat="46.420880" lon="11.232020">
                <time>2017-07-15T09:51:43Z</time>
            </trkpt>
            <trkpt lat="46.420770" lon="11.232000">
                <time>2017-07-15T09:51:44Z</time>
            </trkpt>
            <trkpt lat="46.420680" lon="11.231960">
                <time>2017-07-15T09:51:45Z</time>
            </trkpt>
            <trkpt lat="46.420630" lon="11.231890">
                <time>2017-07-15T09:51:46Z</time>
            </trkpt>
            <trkpt lat="46.420630" lon="11.231820">
                <time>2017-07-15T09:51:47Z</time>
            </trkpt>
            <trkpt lat="46.420670" lon="11.231760">
                <time>2017-07-15T09:51:48Z</time>
            </trkpt>
            <trkpt lat="46.420730" lon="11.231720">
                <time>2017-07-15T09:51:49Z</time>
            </trkpt>
            <trkpt lat="46.420830" lon="11.231700">
                <time>2017-07-15T09:51:50Z</time>
            </trkpt>
            <trkpt lat="46.420950" lon="11.231690">
                <time>2017-07-15T09:51:51Z</time>
            </trkpt>
            <trkpt lat="46.421050" lon="11.231680">
                <time>2017-07-15T09:51:52Z</time>
            </trkpt>
            <trkpt lat="46.421170" lon="11.231680">
                <time>2017-07-15T09:51:53Z</time>
            </trkpt>
            <trkpt lat="46.421280" lon="11.231710">
                <time>2017-07-15T09:51:54Z</time>
            </trkpt>
            <trkpt lat="46.421370" lon="11.231790">
                <time>2017-07-15T09:51:55Z</time>
            </trkpt>
            <trkpt lat="46.421460" lon="11.231930">
                <time>2017-07-15T09:51:56Z</time>
            </trkpt>
            <trkpt lat="46.421530" lon="11.232070">
                <time>2017-07-15T09:51:57Z</time>
            </trkpt>
            <trkpt lat="46.421620" lon="11.232200">
                <time>2017-07-15T09:51:58Z</time>
            </trkpt>
            <trkpt lat="46.421740" lon="11.232320">
                <time>2017-07-15T09:51:59Z</time>
            </trkpt>
            <trkpt lat="46.421860" lon="11.232390">
                <time>2017-07-15T09:52:00Z</time>
            </trkpt>
            <trkpt lat="46.422000" lon="11.232460">
                <time>2017-07-15T09:52:01Z</time>
            </trkpt>
            <trkpt lat="46.422150" lon="11.232520">
                <time>2017-07-15T09:52:02Z</time>
            </trkpt>
            <trkpt lat="46.422310" lon="11.232560">
                <time>2017-07-15T09:52:03Z</time>
            </trkpt>
            <trkpt lat="46.422470" lon="11.232570">
                <time>2017-07-15T09:52:04Z</time>
            </trkpt>
            <trkpt lat="46.422610" lon="11.232570">
                <time>2017-07-15T09:52:05Z</time>
            </trkpt>
            <trkpt lat="46.422750" lon="11.232590">
                <time>2017-07-15T09:52:06Z</time>
            </trkpt>
            <trkpt lat="46.422900" lon="11.232650">
                <time>2017-07-15T09:52:07Z</time>
            </trkpt>
            <trkpt lat="46.423030" lon="11.232710">
                <time>2017-07-15T09:52:08Z</time>
            </trkpt>
            <trkpt lat="46.423180" lon="11.232780">
                <time>2017-07-15T09:52:09Z</time>
            </trkpt>
            <trkpt lat="46.423370" lon="11.232850">
                <time>2017-07-15T09:52:10Z</time>
            </trkpt>
            <trkpt lat="46.423540" lon="11.232910">
                <time>2017-07-15T09:52:11Z</time>
            </trkpt>
            <trkpt lat="46.423750" lon="11.232980">
                <time>2017-07-15T09:52:12Z</time>
            </trkpt>
            <trkpt lat="46.423930" lon="11.233070">
                <time>2017-07-15T09:52:13Z</time>
            </trkpt>
            <trkpt lat="46.424120" lon="11.233170">
                <time>2017-07-15T09:52:14Z</time>
            </trkpt>
            <trkpt lat="46.424330" lon="11.233290">
                <time>2017-07-15T09:52:15Z</time>
            </trkpt>
            <trkpt lat="46.424510" lon="11.233400">
                <time>2017-07-15T09:52:16Z</time>
            </trkpt>
            <trkpt lat="46.424710" lon="11.233510">
                <time>2017-07-15T09:52:17Z</time>
            </trkpt>
            <trkpt lat="46.424910" lon="11.233630">
                <time>2017-07-15T09:52:18Z</time>
            </trkpt>
            <trkpt lat="46.425090" lon="11.233740">
                <time>2017-07-15T09:52:19Z</time>
            </trkpt>
            <trkpt lat="46.425270" lon="11.233860">
                <time>2017-07-15T09:52:20Z</time>
            </trkpt>
            <trkpt lat="46.425400" lon="11.233980">
                <time>2017-07-15T09:52:21Z</time>
            </trkpt>
            <trkpt lat="46.425520" lon="11.234120">
                <time>2017-07-15T09:52:22Z</time>
            </trkpt>
            <trkpt lat="46.425630" lon="11.234290">
                <time>2017-07-15T09:52:23Z</time>
            </trkpt>
            <trkpt lat="46.425730" lon="11.234450">
                <time>2017-07-15T09:52:24Z</time>
            </trkpt>
            <trkpt lat="46.425840" lon="11.234620">
                <time>2017-07-15T09:52:25Z</time>
            </trkpt>
            <trkpt lat="46.425970" lon="11.234790">
                <time>2017-07-15T09:52:26Z</time>
            </trkpt>
            <trkpt lat="46.426100" lon="11.234920">
                <time>2017-07-15T09:52:27Z</time>
            </trkpt>
            <trkpt lat="46.426250" lon="11.235060">
                <time>2017-07-15T09:52:28Z</time>
            </trkpt>
            <trkpt lat="46.426370" lon="11.235190">
                <time>2017-07-15T09:52:29Z</time>
            </trkpt>
            <trkpt lat="46.426480" lon="11.235320">
                <time>2017-07-15T09:52:30Z</time>
            </trkpt>
            <trkpt lat="46.426570" lon="11.235450">
                <time>2017-07-15T09:52:31Z</time>
            </trkpt>
            <trkpt lat="46.426650" lon="11.235550">
                <time>2017-07-15T09:52:32Z</time>
            </trkpt>
            <trkpt lat="46.426710" lon="11.235640">
                <time>2017-07-15T09:52:33Z</time>
            </trkpt>
            <trkpt lat="46.426770" lon="11.235710">
                <time>2017-07-15T09:52:34Z</time>
            </trkpt>
            <trkpt lat="46.426810" lon="11.235770">
                <time>2017-07-15T09:52:35Z</time>
            </trkpt>
            <trkpt lat="46.426870" lon="11.235810">
                <time>2017-07-15T09:52:36Z</time>
            </trkpt>
            <trkpt lat="46.426910" lon="11.235830">
                <time>2017-07-15T09:52:37Z</time>
            </trkpt>
            <trkpt lat="46.426950" lon="11.235830">
                <time>2017-07-15T09:52:38Z</time>
            </trkpt>
            <trkpt lat="46.426970" lon="11.235810">
                <time>2017-07-15T09:52:39Z</time>
            </trkpt>
            <trkpt lat="46.426990" lon="11.235790">
                <time>2017-07-15T09:52:40Z</time>
            </trkpt>
            <trkpt lat="46.427010" lon="11.235740">
                <time>2017-07-15T09:52:41Z</time>
            </trkpt>
            <trkpt lat="46.427010" lon="11.235640">
                <time>2017-07-15T09:52:42Z</time>
            </trkpt>
            <trkpt lat="46.427020" lon="11.235540">
                <time>2017-07-15T09:52:43Z</time>
            </trkpt>
            <trkpt lat="46.427020" lon="11.235390">
                <time>2017-07-15T09:52:44Z</time>
            </trkpt>
            <trkpt lat="46.427020" lon="11.235250">
                <time>2017-07-15T09:52:45Z</time>
            </trkpt>
            <trkpt lat="46.427030" lon="11.235060">
                <time>2017-07-15T09:52:46Z</time>
            </trkpt>
            <trkpt lat="46.427040" lon="11.234860">
                <time>2017-07-15T09:52:47Z</time>
            </trkpt>
            <trkpt lat="46.427040" lon="11.234690">
                <time>2017-07-15T09:52:48Z</time>
            </trkpt>
            <trkpt lat="46.427030" lon="11.234510">
                <time>2017-07-15T09:52:49Z</time>
            </trkpt>
            <trkpt lat="46.426990" lon="11.234330">
                <time>2017-07-15T09:52:50Z</time>
            </trkpt>
            <trkpt lat="46.426930" lon="11.234170">
                <time>2017-07-15T09:52:51Z</time>
            </trkpt>
            <trkpt lat="46.426830" lon="11.234010">
                <time>2017-07-15T09:52:52Z</time>
            </trkpt>
            <trkpt lat="46.426720" lon="11.233870">
                <time>2017-07-15T09:52:53Z</time>
            </trkpt>
            <trkpt lat="46.426610" lon="11.233740">
                <time>2017-07-15T09:52:54Z</time>
            </trkpt>
            <trkpt lat="46.426510" lon="11.233590">
                <time>2017-07-15T09:52:55Z</time>
            </trkpt>
            <trkpt lat="46.426450" lon="11.233450">
                <time>2017-07-15T09:52:56Z</time>
            </trkpt>
            <trkpt lat="46.426410" lon="11.233280">
                <time>2017-07-15T09:52:57Z</time>
            </trkpt>
            <trkpt lat="46.426420" lon="11.233080">
                <time>2017-07-15T09:52:58Z</time>
            </trkpt>
            <trkpt lat="46.426450" lon="11.232900">
                <time>2017-07-15T09:52:59Z</time>
            </trkpt>
            <trkpt lat="46.426500" lon="11.232680">
                <time>2017-07-15T09:53:00Z</time>
            </trkpt>
            <trkpt lat="46.426540" lon="11.232500">
                <time>2017-07-15T09:53:01Z</time>
            </trkpt>
            <trkpt lat="46.426580" lon="11.232310">
                <time>2017-07-15T09:53:02Z</time>
            </trkpt>
            <trkpt lat="46.426620" lon="11.232150">
                <time>2017-07-15T09:53:03Z</time>
            </trkpt>
            <trkpt lat="46.426660" lon="11.232040">
                <time>2017-07-15T09:53:04Z</time>
            </trkpt>
            <trkpt lat="46.426720" lon="11.231960">
                <time>2017-07-15T09:53:05Z</time>
            </trkpt>
            <trkpt lat="46.426790" lon="11.231990">
                <time>2017-07-15T09:53:06Z</time>
            </trkpt>
            <trkpt lat="46.426870" lon="11.232030">
                <time>2017-07-15T09:53:07Z</time>
            </trkpt>
            <trkpt lat="46.426910" lon="11.232180">
                <time>2017-07-15T09:53:08Z</time>
            </trkpt>
            <trkpt lat="46.426940" lon="11.232350">
                <time>2017-07-15T09:53:09Z</time>
            </trkpt>
            <trkpt lat="46.426990" lon="11.232550">
                <time>2017-07-15T09:53:10Z</time>
            </trkpt>
            <trkpt lat="46.427070" lon="11.232780">
                <time>2017-07-15T09:53:11Z</time>
            </trkpt>
            <trkpt lat="46.427150" lon="11.232990">
                <time>2017-07-15T09:53:12Z</time>
            </trkpt>
            <trkpt lat="46.427250" lon="11.233200">
                <time>2017-07-15T09:53:13Z</time>
            </trkpt>
            <trkpt lat="46.427360" lon="11.233430">
                <time>2017-07-15T09:53:14Z</time>
            </trkpt>
            <trkpt lat="46.427470" lon="11.233630">
                <time>2017-07-15T09:53:15Z</time>
            </trkpt>
            <trkpt lat="46.427610" lon="11.233820">
                <time>2017-07-15T09:53:16Z</time>
            </trkpt>
            <trkpt lat="46.427740" lon="11.233960">
                <time>2017-07-15T09:53:17Z</time>
            </trkpt>
            <trkpt lat="46.427900" lon="11.234080">
                <time>2017-07-15T09:53:18Z</time>
            </trkpt>
            <trkpt lat="46.428070" lon="11.234190">
                <time>2017-07-15T09:53:19Z</time>
            </trkpt>
            <trkpt lat="46.428230" lon="11.234290">
                <time>2017-07-15T09:53:20Z</time>
            </trkpt>
            <trkpt lat="46.428400" lon="11.234400">
                <time>2017-07-15T09:53:21Z</time>
            </trkpt>
            <trkpt lat="46.428570" lon="11.234510">
                <time>2017-07-15T09:53:22Z</time>
            </trkpt>
            <trkpt lat="46.428730" lon="11.234620">
                <time>2017-07-15T09:53:23Z</time>
            </trkpt>
            <trkpt lat="46.428910" lon="11.234720">
                <time>2017-07-15T09:53:24Z</time>
            </trkpt>
            <trkpt lat="46.429070" lon="11.234820">
                <time>2017-07-15T09:53:25Z</time>
            </trkpt>
            <trkpt lat="46.429240" lon="11.234880">
                <time>2017-07-15T09:53:26Z</time>
            </trkpt>
            <trkpt lat="46.429420" lon="11.234910">
                <time>2017-07-15T09:53:27Z</time>
            </trkpt>
            <trkpt lat="46.429590" lon="11.234910">
                <time>2017-07-15T09:53:28Z</time>
            </trkpt>
            <trkpt lat="46.429770" lon="11.234900">
                <time>2017-07-15T09:53:29Z</time>
            </trkpt>
            <trkpt lat="46.429960" lon="11.234920">
                <time>2017-07-15T09:53:30Z</time>
            </trkpt>
            <trkpt lat="46.430120" lon="11.234970">
                <time>2017-07-15T09:53:31Z</time>
            </trkpt>
            <trkpt lat="46.430300" lon="11.235070">
                <time>2017-07-15T09:53:32Z</time>
            </trkpt>
            <trkpt lat="46.430430" lon="11.235170">
                <time>2017-07-15T09:53:33Z</time>
            </trkpt>
            <trkpt lat="46.430540" lon="11.235310">
                <time>2017-07-15T09:53:34Z</time>
            </trkpt>
            <trkpt lat="46.430640" lon="11.235450">
                <time>2017-07-15T09:53:35Z</time>
            </trkpt>
            <trkpt lat="46.430710" lon="11.235540">
                <time>2017-07-15T09:53:36Z</time>
            </trkpt>
            <trkpt lat="46.430790" lon="11.235590">
                <time>2017-07-15T09:53:37Z</time>
            </trkpt>
            <trkpt lat="46.430880" lon="11.235610">
                <time>2017-07-15T09:53:38Z</time>
            </trkpt>
            <trkpt lat="46.430930" lon="11.235580">
                <time>2017-07-15T09:53:39Z</time>
            </trkpt>
            <trkpt lat="46.430980" lon="11.235480">
                <time>2017-07-15T09:53:40Z</time>
            </trkpt>
            <trkpt lat="46.430940" lon="11.235330">
                <time>2017-07-15T09:53:41Z</time>
            </trkpt>
            <trkpt lat="46.430870" lon="11.235210">
                <time>2017-07-15T09:53:42Z</time>
            </trkpt>
            <trkpt lat="46.430750" lon="11.235110">
                <time>2017-07-15T09:53:43Z</time>
            </trkpt>
            <trkpt lat="46.430650" lon="11.235010">
                <time>2017-07-15T09:53:44Z</time>
            </trkpt>
            <trkpt lat="46.430510" lon="11.234920">
                <time>2017-07-15T09:53:45Z</time>
            </trkpt>
            <trkpt lat="46.430390" lon="11.234760">
                <time>2017-07-15T09:53:46Z</time>
            </trkpt>
            <trkpt lat="46.430280" lon="11.234650">
                <time>2017-07-15T09:53:47Z</time>
            </trkpt>
            <trkpt lat="46.430160" lon="11.234520">
                <time>2017-07-15T09:53:48Z</time>
            </trkpt>
            <trkpt lat="46.430070" lon="11.234380">
                <time>2017-07-15T09:53:49Z</time>
            </trkpt>
            <trkpt lat="46.430000" lon="11.234210">
                <time>2017-07-15T09:53:50Z</time>
            </trkpt>
            <trkpt lat="46.429930" lon="11.234030">
                <time>2017-07-15T09:53:51Z</time>
            </trkpt>
            <trkpt lat="46.429880" lon="11.233870">
                <time>2017-07-15T09:53:52Z</time>
            </trkpt>
            <trkpt lat="46.429820" lon="11.233690">
                <time>2017-07-15T09:53:53Z</time>
            </trkpt>
            <trkpt lat="46.429770" lon="11.233500">
                <time>2017-07-15T09:53:54Z</time>
            </trkpt>
            <trkpt lat="46.429710" lon="11.233320">
                <time>2017-07-15T09:53:55Z</time>
            </trkpt>
            <trkpt lat="46.429650" lon="11.233130">
                <time>2017-07-15T09:53:56Z</time>
            </trkpt>
            <trkpt lat="46.429590" lon="11.232970">
                <time>2017-07-15T09:53:57Z</time>
            </trkpt>
            <trkpt lat="46.429540" lon="11.232810">
                <time>2017-07-15T09:53:58Z</time>
            </trkpt>
            <trkpt lat="46.429480" lon="11.232650">
                <time>2017-07-15T09:53:59Z</time>
            </trkpt>
            <trkpt lat="46.429430" lon="11.232540">
                <time>2017-07-15T09:54:00Z</time>
            </trkpt>
            <trkpt lat="46.429370" lon="11.232440">
                <time>2017-07-15T09:54:01Z</time>
            </trkpt>
            <trkpt lat="46.429300" lon="11.232330">
                <time>2017-07-15T09:54:02Z</time>
            </trkpt>
            <trkpt lat="46.429250" lon="11.232230">
                <time>2017-07-15T09:54:03Z</time>
            </trkpt>
            <trkpt lat="46.429180" lon="11.232120">
                <time>2017-07-15T09:54:04Z</time>
            </trkpt>
            <trkpt lat="46.429110" lon="11.232020">
                <time>2017-07-15T09:54:05Z</time>
            </trkpt>
            <trkpt lat="46.429040" lon="11.231940">
                <time>2017-07-15T09:54:06Z</time>
            </trkpt>
            <trkpt lat="46.428980" lon="11.231850">
                <time>2017-07-15T09:54:07Z</time>
            </trkpt>
            <trkpt lat="46.428930" lon="11.231790">
                <time>2017-07-15T09:54:08Z</time>
            </trkpt>
            <trkpt lat="46.428910" lon="11.231720">
                <time>2017-07-15T09:54:09Z</time>
            </trkpt>
            <trkpt lat="46.428890" lon="11.231650">
                <time>2017-07-15T09:54:10Z</time>
            </trkpt>
            <trkpt lat="46.428910" lon="11.231610">
                <time>2017-07-15T09:54:11Z</time>
            </trkpt>
            <trkpt lat="46.428960" lon="11.231590">
                <time>2017-07-15T09:54:12Z</time>
            </trkpt>
            <trkpt lat="46.429010" lon="11.231610">
                <time>2017-07-15T09:54:13Z</time>
            </trkpt>
            <trkpt lat="46.429080" lon="11.231680">
                <time>2017-07-15T09:54:14Z</time>
            </trkpt>
            <trkpt lat="46.429160" lon="11.231800">
                <time>2017-07-15T09:54:15Z</time>
            </trkpt>
            <trkpt lat="46.429240" lon="11.231920">
                <time>2017-07-15T09:54:16Z</time>
            </trkpt>
            <trkpt lat="46.429340" lon="11.232040">
                <time>2017-07-15T09:54:17Z</time>
            </trkpt>
            <trkpt lat="46.429460" lon="11.232150">
                <time>2017-07-15T09:54:18Z</time>
            </trkpt>
            <trkpt lat="46.429560" lon="11.232220">
                <time>2017-07-15T09:54:19Z</time>
            </trkpt>
            <trkpt lat="46.429700" lon="11.232290">
                <time>2017-07-15T09:54:20Z</time>
            </trkpt>
            <trkpt lat="46.429850" lon="11.232310">
                <time>2017-07-15T09:54:21Z</time>
            </trkpt>
            <trkpt lat="46.430030" lon="11.232320">
                <time>2017-07-15T09:54:22Z</time>
            </trkpt>
            <trkpt lat="46.430240" lon="11.232320">
                <time>2017-07-15T09:54:23Z</time>
            </trkpt>
            <trkpt lat="46.430420" lon="11.232330">
                <time>2017-07-15T09:54:24Z</time>
            </trkpt>
            <trkpt lat="46.430580" lon="11.232390">
                <time>2017-07-15T09:54:25Z</time>
            </trkpt>
            <trkpt lat="46.430720" lon="11.232510">
                <time>2017-07-15T09:54:26Z</time>
            </trkpt>
            <trkpt lat="46.430830" lon="11.232670">
                <time>2017-07-15T09:54:27Z</time>
            </trkpt>
            <trkpt lat="46.430960" lon="11.232820">
                <time>2017-07-15T09:54:28Z</time>
            </trkpt>
            <trkpt lat="46.431070" lon="11.232940">
                <time>2017-07-15T09:54:29Z</time>
            </trkpt>
            <trkpt lat="46.431200" lon="11.233020">
                <time>2017-07-15T09:54:30Z</time>
            </trkpt>
            <trkpt lat="46.431360" lon="11.233080">
                <time>2017-07-15T09:54:31Z</time>
            </trkpt>
            <trkpt lat="46.431520" lon="11.233110">
                <time>2017-07-15T09:54:32Z</time>
            </trkpt>
            <trkpt lat="46.431710" lon="11.233130">
                <time>2017-07-15T09:54:33Z</time>
            </trkpt>
            <trkpt lat="46.431940" lon="11.233130">
                <time>2017-07-15T09:54:34Z</time>
            </trkpt>
            <trkpt lat="46.432150" lon="11.233170">
                <time>2017-07-15T09:54:35Z</time>
            </trkpt>
            <trkpt lat="46.432380" lon="11.233270">
                <time>2017-07-15T09:54:36Z</time>
            </trkpt>
            <trkpt lat="46.432570" lon="11.233370">
                <time>2017-07-15T09:54:37Z</time>
            </trkpt>
            <trkpt lat="46.432770" lon="11.233450">
                <time>2017-07-15T09:54:38Z</time>
            </trkpt>
            <trkpt lat="46.432960" lon="11.233580">
                <time>2017-07-15T09:54:39Z</time>
            </trkpt>
            <trkpt lat="46.433110" lon="11.233680">
                <time>2017-07-15T09:54:40Z</time>
            </trkpt>
            <trkpt lat="46.433250" lon="11.233740">
                <time>2017-07-15T09:54:41Z</time>
            </trkpt>
            <trkpt lat="46.433400" lon="11.233730">
                <time>2017-07-15T09:54:42Z</time>
            </trkpt>
            <trkpt lat="46.433560" lon="11.233680">
                <time>2017-07-15T09:54:43Z</time>
            </trkpt>
            <trkpt lat="46.433740" lon="11.233660">
                <time>2017-07-15T09:54:44Z</time>
            </trkpt>
            <trkpt lat="46.433910" lon="11.233630">
                <time>2017-07-15T09:54:45Z</time>
            </trkpt>
            <trkpt lat="46.434120" lon="11.233650">
                <time>2017-07-15T09:54:46Z</time>
            </trkpt>
            <trkpt lat="46.434330" lon="11.233720">
                <time>2017-07-15T09:54:47Z</time>
            </trkpt>
            <trkpt lat="46.434520" lon="11.233750">
                <time>2017-07-15T09:54:48Z</time>
            </trkpt>
            <trkpt lat="46.434720" lon="11.233790">
                <time>2017-07-15T09:54:49Z</time>
            </trkpt>
            <trkpt lat="46.434930" lon="11.233830">
                <time>2017-07-15T09:54:50Z</time>
            </trkpt>
            <trkpt lat="46.435100" lon="11.233900">
                <time>2017-07-15T09:54:51Z</time>
            </trkpt>
            <trkpt lat="46.435280" lon="11.233990">
                <time>2017-07-15T09:54:52Z</time>
            </trkpt>
            <trkpt lat="46.435420" lon="11.234080">
                <time>2017-07-15T09:54:53Z</time>
            </trkpt>
            <trkpt lat="46.435560" lon="11.234140">
                <time>2017-07-15T09:54:54Z</time>
            </trkpt>
            <trkpt lat="46.435690" lon="11.234210">
                <time>2017-07-15T09:54:55Z</time>
            </trkpt>
            <trkpt lat="46.435720" lon="11.234340">
                <time>2017-07-15T09:54:56Z</time>
            </trkpt>
            <trkpt lat="46.435740" lon="11.234480">
                <time>2017-07-15T09:54:57Z</time>
            </trkpt>
            <trkpt lat="46.435740" lon="11.234630">
                <time>2017-07-15T09:54:58Z</time>
            </trkpt>
            <trkpt lat="46.435610" lon="11.234730">
                <time>2017-07-15T09:54:59Z</time>
            </trkpt>
            <trkpt lat="46.435500" lon="11.234880">
                <time>2017-07-15T09:55:00Z</time>
            </trkpt>
            <trkpt lat="46.435410" lon="11.235030">
                <time>2017-07-15T09:55:01Z</time>
            </trkpt>
            <trkpt lat="46.435320" lon="11.235180">
                <time>2017-07-15T09:55:02Z</time>
            </trkpt>
            <trkpt lat="46.435270" lon="11.235340">
                <time>2017-07-15T09:55:03Z</time>
            </trkpt>
            <trkpt lat="46.435230" lon="11.235460">
                <time>2017-07-15T09:55:04Z</time>
            </trkpt>
            <trkpt lat="46.435220" lon="11.235570">
                <time>2017-07-15T09:55:05Z</time>
            </trkpt>
            <trkpt lat="46.435230" lon="11.235660">
                <time>2017-07-15T09:55:06Z</time>
            </trkpt>
            <trkpt lat="46.435280" lon="11.235700">
                <time>2017-07-15T09:55:07Z</time>
            </trkpt>
            <trkpt lat="46.435340" lon="11.235710">
                <time>2017-07-15T09:55:08Z</time>
            </trkpt>
            <trkpt lat="46.435410" lon="11.235630">
                <time>2017-07-15T09:55:09Z</time>
            </trkpt>
            <trkpt lat="46.435460" lon="11.235500">
                <time>2017-07-15T09:55:10Z</time>
            </trkpt>
            <trkpt lat="46.435520" lon="11.235260">
                <time>2017-07-15T09:55:11Z</time>
            </trkpt>
            <trkpt lat="46.435590" lon="11.235090">
                <time>2017-07-15T09:55:12Z</time>
            </trkpt>
            <trkpt lat="46.435680" lon="11.234950">
                <time>2017-07-15T09:55:13Z</time>
            </trkpt>
            <trkpt lat="46.435820" lon="11.234880">
                <time>2017-07-15T09:55:14Z</time>
            </trkpt>
            <trkpt lat="46.435970" lon="11.234800">
                <time>2017-07-15T09:55:15Z</time>
            </trkpt>
            <trkpt lat="46.436140" lon="11.234740">
                <time>2017-07-15T09:55:16Z</time>
            </trkpt>
            <trkpt lat="46.436300" lon="11.234700">
                <time>2017-07-15T09:55:17Z</time>
            </trkpt>
            <trkpt lat="46.436450" lon="11.234680">
                <time>2017-07-15T09:55:18Z</time>
            </trkpt>
            <trkpt lat="46.436610" lon="11.234690">
                <time>2017-07-15T09:55:19Z</time>
            </trkpt>
            <trkpt lat="46.436730" lon="11.234690">
                <time>2017-07-15T09:55:20Z</time>
            </trkpt>
            <trkpt lat="46.436860" lon="11.234660">
                <time>2017-07-15T09:55:21Z</time>
            </trkpt>
            <trkpt lat="46.436950" lon="11.234550">
                <time>2017-07-15T09:55:22Z</time>
            </trkpt>
            <trkpt lat="46.437030" lon="11.234440">
                <time>2017-07-15T09:55:23Z</time>
            </trkpt>
            <trkpt lat="46.437090" lon="11.234280">
                <time>2017-07-15T09:55:24Z</time>
            </trkpt>
            <trkpt lat="46.436990" lon="11.234090">
                <time>2017-07-15T09:55:25Z</time>
            </trkpt>
            <trkpt lat="46.436870" lon="11.233900">
                <time>2017-07-15T09:55:26Z</time>
            </trkpt>
            <trkpt lat="46.436730" lon="11.233680">
                <time>2017-07-15T09:55:27Z</time>
            </trkpt>
            <trkpt lat="46.436620" lon="11.233480">
                <time>2017-07-15T09:55:28Z</time>
            </trkpt>
            <trkpt lat="46.436470" lon="11.233290">
                <time>2017-07-15T09:55:29Z</time>
            </trkpt>
            <trkpt lat="46.436340" lon="11.233100">
                <time>2017-07-15T09:55:30Z</time>
            </trkpt>
            <trkpt lat="46.436220" lon="11.232920">
                <time>2017-07-15T09:55:31Z</time>
            </trkpt>
            <trkpt lat="46.436100" lon="11.232740">
                <time>2017-07-15T09:55:32Z</time>
            </trkpt>
            <trkpt lat="46.436010" lon="11.232620">
                <time>2017-07-15T09:55:33Z</time>
            </trkpt>
            <trkpt lat="46.435940" lon="11.232490">
                <time>2017-07-15T09:55:34Z</time>
            </trkpt>
            <trkpt lat="46.435830" lon="11.232380">
                <time>2017-07-15T09:55:35Z</time>
            </trkpt>
            <trkpt lat="46.435730" lon="11.232300">
                <time>2017-07-15T09:55:36Z</time>
            </trkpt>
            <trkpt lat="46.435550" lon="11.232290">
                <time>2017-07-15T09:55:37Z</time>
            </trkpt>
            <trkpt lat="46.435350" lon="11.232310">
                <time>2017-07-15T09:55:38Z</time>
            </trkpt>
            <trkpt lat="46.435200" lon="11.232340">
                <time>2017-07-15T09:55:39Z</time>
            </trkpt>
            <trkpt lat="46.435030" lon="11.232390">
                <time>2017-07-15T09:55:40Z</time>
            </trkpt>
            <trkpt lat="46.434860" lon="11.232380">
                <time>2017-07-15T09:55:41Z</time>
            </trkpt>
            <trkpt lat="46.434700" lon="11.232370">
                <time>2017-07-15T09:55:42Z</time>
            </trkpt>
            <trkpt lat="46.434570" lon="11.232340">
                <time>2017-07-15T09:55:43Z</time>
            </trkpt>
            <trkpt lat="46.434490" lon="11.232270">
                <time>2017-07-15T09:55:44Z</time>
            </trkpt>
            <trkpt lat="46.434460" lon="11.232170">
                <time>2017-07-15T09:55:45Z</time>
            </trkpt>
            <trkpt lat="46.434490" lon="11.232090">
                <time>2017-07-15T09:55:46Z</time>
            </trkpt>
            <trkpt lat="46.434530" lon="11.232020">
                <time>2017-07-15T09:55:47Z</time>
            </trkpt>
            <trkpt lat="46.434670" lon="11.231990">
                <time>2017-07-15T09:55:48Z</time>
            </trkpt>
            <trkpt lat="46.434850" lon="11.232010">
                <time>2017-07-15T09:55:49Z</time>
            </trkpt>
            <trkpt lat="46.435010" lon="11.231980">
                <time>2017-07-15T09:55:50Z</time>
            </trkpt>
            <trkpt lat="46.435190" lon="11.231960">
                <time>2017-07-15T09:55:51Z</time>
            </trkpt>
            <trkpt lat="46.435360" lon="11.231960">
                <time>2017-07-15T09:55:52Z</time>
            </trkpt>
            <trkpt lat="46.435550" lon="11.231960">
                <time>2017-07-15T09:55:53Z</time>
            </trkpt>
            <trkpt lat="46.435740" lon="11.231950">
                <time>2017-07-15T09:55:54Z</time>
            </trkpt>
            <trkpt lat="46.435870" lon="11.231930">
                <time>2017-07-15T09:55:55Z</time>
            </trkpt>
            <trkpt lat="46.435980" lon="11.231910">
                <time>2017-07-15T09:55:56Z</time>
            </trkpt>
            <trkpt lat="46.436080" lon="11.231890">
                <time>2017-07-15T09:55:57Z</time>
            </trkpt>
            <trkpt lat="46.436200" lon="11.231880">
                <time>2017-07-15T09:55:58Z</time>
            </trkpt>
            <trkpt lat="46.436320" lon="11.231860">
                <time>2017-07-15T09:55:59Z</time>
            </trkpt>
            <trkpt lat="46.436430" lon="11.231830">
                <time>2017-07-15T09:56:00Z</time>
            </trkpt>
            <trkpt lat="46.436530" lon="11.231800">
                <time>2017-07-15T09:56:01Z</time>
            </trkpt>
            <trkpt lat="46.436620" lon="11.231800">
                <time>2017-07-15T09:56:02Z</time>
            </trkpt>
            <trkpt lat="46.436700" lon="11.231830">
                <time>2017-07-15T09:56:03Z</time>
            </trkpt>
            <trkpt lat="46.436770" lon="11.231870">
                <time>2017-07-15T09:56:04Z</time>
            </trkpt>
            <trkpt lat="46.436850" lon="11.231930">
                <time>2017-07-15T09:56:05Z</time>
            </trkpt>
            <trkpt lat="46.436940" lon="11.231980">
                <time>2017-07-15T09:56:06Z</time>
            </trkpt>
            <trkpt lat="46.437050" lon="11.232000">
                <time>2017-07-15T09:56:07Z</time>
            </trkpt>
            <trkpt lat="46.437150" lon="11.232010">
                <time>2017-07-15T09:56:08Z</time>
            </trkpt>
            <trkpt lat="46.437270" lon="11.232010">
                <time>2017-07-15T09:56:09Z</time>
            </trkpt>
            <trkpt lat="46.437390" lon="11.232000">
                <time>2017-07-15T09:56:10Z</time>
            </trkpt>
            <trkpt lat="46.437490" lon="11.231980">
                <time>2017-07-15T09:56:11Z</time>
            </trkpt>
            <trkpt lat="46.437630" lon="11.231970">
                <time>2017-07-15T09:56:12Z</time>
            </trkpt>
            <trkpt lat="46.437770" lon="11.231940">
                <time>2017-07-15T09:56:13Z</time>
            </trkpt>
            <trkpt lat="46.437940" lon="11.231920">
                <time>2017-07-15T09:56:14Z</time>
            </trkpt>
            <trkpt lat="46.438130" lon="11.231920">
                <time>2017-07-15T09:56:15Z</time>
            </trkpt>
            <trkpt lat="46.438310" lon="11.231940">
                <time>2017-07-15T09:56:16Z</time>
            </trkpt>
            <trkpt lat="46.438490" lon="11.232000">
                <time>2017-07-15T09:56:17Z</time>
            </trkpt>
            <trkpt lat="46.438670" lon="11.232100">
                <time>2017-07-15T09:56:18Z</time>
            </trkpt>
            <trkpt lat="46.438840" lon="11.232210">
                <time>2017-07-15T09:56:19Z</time>
            </trkpt>
            <trkpt lat="46.439010" lon="11.232320">
                <time>2017-07-15T09:56:20Z</time>
            </trkpt>
            <trkpt lat="46.439150" lon="11.232380">
                <time>2017-07-15T09:56:21Z</time>
            </trkpt>
            <trkpt lat="46.439300" lon="11.232420">
                <time>2017-07-15T09:56:22Z</time>
            </trkpt>
            <trkpt lat="46.439460" lon="11.232410">
                <time>2017-07-15T09:56:23Z</time>
            </trkpt>
            <trkpt lat="46.439610" lon="11.232370">
                <time>2017-07-15T09:56:24Z</time>
            </trkpt>
            <trkpt lat="46.439760" lon="11.232300">
                <time>2017-07-15T09:56:25Z</time>
            </trkpt>
            <trkpt lat="46.439910" lon="11.232190">
                <time>2017-07-15T09:56:26Z</time>
            </trkpt>
            <trkpt lat="46.440040" lon="11.232100">
                <time>2017-07-15T09:56:27Z</time>
            </trkpt>
            <trkpt lat="46.440190" lon="11.232020">
                <time>2017-07-15T09:56:28Z</time>
            </trkpt>
            <trkpt lat="46.440320" lon="11.231980">
                <time>2017-07-15T09:56:29Z</time>
            </trkpt>
            <trkpt lat="46.440480" lon="11.231960">
                <time>2017-07-15T09:56:30Z</time>
            </trkpt>
            <trkpt lat="46.440630" lon="11.231940">
                <time>2017-07-15T09:56:31Z</time>
            </trkpt>
            <trkpt lat="46.440730" lon="11.231980">
                <time>2017-07-15T09:56:32Z</time>
            </trkpt>
            <trkpt lat="46.440800" lon="11.232060">
                <time>2017-07-15T09:56:33Z</time>
            </trkpt>
            <trkpt lat="46.440830" lon="11.232200">
                <time>2017-07-15T09:56:34Z</time>
            </trkpt>
            <trkpt lat="46.440800" lon="11.232470">
                <time>2017-07-15T09:56:35Z</time>
            </trkpt>
            <trkpt lat="46.440690" lon="11.232660">
                <time>2017-07-15T09:56:36Z</time>
            </trkpt>
            <trkpt lat="46.440630" lon="11.232820">
                <time>2017-07-15T09:56:37Z</time>
            </trkpt>
            <trkpt lat="46.440610" lon="11.232970">
                <time>2017-07-15T09:56:38Z</time>
            </trkpt>
            <trkpt lat="46.440610" lon="11.233120">
                <time>2017-07-15T09:56:39Z</time>
            </trkpt>
            <trkpt lat="46.440650" lon="11.233240">
                <time>2017-07-15T09:56:40Z</time>
            </trkpt>
            <trkpt lat="46.440710" lon="11.233350">
                <time>2017-07-15T09:56:41Z</time>
            </trkpt>
            <trkpt lat="46.440790" lon="11.233390">
                <time>2017-07-15T09:56:42Z</time>
            </trkpt>
            <trkpt lat="46.440980" lon="11.233450">
                <time>2017-07-15T09:56:43Z</time>
            </trkpt>
            <trkpt lat="46.441130" lon="11.233530">
                <time>2017-07-15T09:56:44Z</time>
            </trkpt>
            <trkpt lat="46.441270" lon="11.233550">
                <time>2017-07-15T09:56:45Z</time>
            </trkpt>
            <trkpt lat="46.441390" lon="11.233550">
                <time>2017-07-15T09:56:46Z</time>
            </trkpt>
            <trkpt lat="46.441520" lon="11.233490">
                <time>2017-07-15T09:56:47Z</time>
            </trkpt>
            <trkpt lat="46.441630" lon="11.233340">
                <time>2017-07-15T09:56:48Z</time>
            </trkpt>
            <trkpt lat="46.441730" lon="11.233120">
                <time>2017-07-15T09:56:49Z</time>
            </trkpt>
            <trkpt lat="46.441850" lon="11.232930">
                <time>2017-07-15T09:56:50Z</time>
            </trkpt>
            <trkpt lat="46.441950" lon="11.232730">
                <time>2017-07-15T09:56:51Z</time>
            </trkpt>
            <trkpt lat="46.442100" lon="11.232550">
                <time>2017-07-15T09:56:52Z</time>
            </trkpt>
            <trkpt lat="46.442260" lon="11.232430">
                <time>2017-07-15T09:56:53Z</time>
            </trkpt>
            <trkpt lat="46.442450" lon="11.232300">
                <time>2017-07-15T09:56:54Z</time>
            </trkpt>
            <trkpt lat="46.442660" lon="11.232190">
                <time>2017-07-15T09:56:55Z</time>
            </trkpt>
            <trkpt lat="46.442830" lon="11.232110">
                <time>2017-07-15T09:56:56Z</time>
            </trkpt>
            <trkpt lat="46.443010" lon="11.232050">
                <time>2017-07-15T09:56:57Z</time>
            </trkpt>
            <trkpt lat="46.443200" lon="11.231990">
                <time>2017-07-15T09:56:58Z</time>
            </trkpt>
            <trkpt lat="46.443340" lon="11.231960">
                <time>2017-07-15T09:56:59Z</time>
            </trkpt>
            <trkpt lat="46.443480" lon="11.231950">
                <time>2017-07-15T09:57:00Z</time>
            </trkpt>
            <trkpt lat="46.443580" lon="11.231930">
                <time>2017-07-15T09:57:01Z</time>
            </trkpt>
            <trkpt lat="46.443670" lon="11.231910">
                <time>2017-07-15T09:57:02Z</time>
            </trkpt>
            <trkpt lat="46.443740" lon="11.231860">
                <time>2017-07-15T09:57:03Z</time>
            </trkpt>
            <trkpt lat="46.443780" lon="11.231760">
                <time>2017-07-15T09:57:04Z</time>
            </trkpt>
            <trkpt lat="46.443790" lon="11.231660">
                <time>2017-07-15T09:57:05Z</time>
            </trkpt>
            <trkpt lat="46.443760" lon="11.231560">
                <time>2017-07-15T09:57:06Z</time>
            </trkpt>
            <trkpt lat="46.443690" lon="11.231500">
                <time>2017-07-15T09:57:07Z</time>
            </trkpt>
            <trkpt lat="46.443470" lon="11.231550">
                <time>2017-07-15T09:57:08Z</time>
            </trkpt>
            <trkpt lat="46.443320" lon="11.231530">
                <time>2017-07-15T09:57:09Z</time>
            </trkpt>
            <trkpt lat="46.443130" lon="11.231530">
                <time>2017-07-15T09:57:10Z</time>
            </trkpt>
            <trkpt lat="46.442920" lon="11.231470">
                <time>2017-07-15T09:57:11Z</time>
            </trkpt>
            <trkpt lat="46.442730" lon="11.231410">
                <time>2017-07-15T09:57:12Z</time>
            </trkpt>
            <trkpt lat="46.442520" lon="11.231340">
                <time>2017-07-15T09:57:13Z</time>
            </trkpt>
            <trkpt lat="46.442280" lon="11.231260">
                <time>2017-07-15T09:57:14Z</time>
            </trkpt>
            <trkpt lat="46.442070" lon="11.231200">
                <time>2017-07-15T09:57:15Z</time>
            </trkpt>
            <trkpt lat="46.441820" lon="11.231160">
                <time>2017-07-15T09:57:16Z</time>
            </trkpt>
            <trkpt lat="46.441600" lon="11.231120">
                <time>2017-07-15T09:57:17Z</time>
            </trkpt>
            <trkpt lat="46.441370" lon="11.231080">
                <time>2017-07-15T09:57:18Z</time>
            </trkpt>
            <trkpt lat="46.441150" lon="11.231030">
                <time>2017-07-15T09:57:19Z</time>
            </trkpt>
            <trkpt lat="46.440950" lon="11.230990">
                <time>2017-07-15T09:57:20Z</time>
            </trkpt>
            <trkpt lat="46.440740" lon="11.230920">
                <time>2017-07-15T09:57:21Z</time>
            </trkpt>
            <trkpt lat="46.440550" lon="11.230840">
                <time>2017-07-15T09:57:22Z</time>
            </trkpt>
            <trkpt lat="46.440360" lon="11.230740">
                <time>2017-07-15T09:57:23Z</time>
            </trkpt>
            <trkpt lat="46.440170" lon="11.230630">
                <time>2017-07-15T09:57:24Z</time>
            </trkpt>
            <trkpt lat="46.440020" lon="11.230520">
                <time>2017-07-15T09:57:25Z</time>
            </trkpt>
            <trkpt lat="46.439870" lon="11.230430">
                <time>2017-07-15T09:57:26Z</time>
            </trkpt>
            <trkpt lat="46.439720" lon="11.230290">
                <time>2017-07-15T09:57:27Z</time>
            </trkpt>
            <trkpt lat="46.439590" lon="11.230150">
                <time>2017-07-15T09:57:28Z</time>
            </trkpt>
            <trkpt lat="46.439440" lon="11.229990">
                <time>2017-07-15T09:57:29Z</time>
            </trkpt>
            <trkpt lat="46.439260" lon="11.229860">
                <time>2017-07-15T09:57:30Z</time>
            </trkpt>
            <trkpt lat="46.439080" lon="11.229750">
                <time>2017-07-15T09:57:31Z</time>
            </trkpt>
            <trkpt lat="46.438870" lon="11.229660">
                <time>2017-07-15T09:57:32Z</time>
            </trkpt>
            <trkpt lat="46.438690" lon="11.229590">
                <time>2017-07-15T09:57:33Z</time>
            </trkpt>
            <trkpt lat="46.438510" lon="11.229520">
                <time>2017-07-15T09:57:34Z</time>
            </trkpt>
            <trkpt lat="46.438330" lon="11.229450">
                <time>2017-07-15T09:57:35Z</time>
            </trkpt>
            <trkpt lat="46.438190" lon="11.229390">
                <time>2017-07-15T09:57:36Z</time>
            </trkpt>
            <trkpt lat="46.438080" lon="11.229260">
                <time>2017-07-15T09:57:37Z</time>
            </trkpt>
            <trkpt lat="46.438000" lon="11.229080">
                <time>2017-07-15T09:57:38Z</time>
            </trkpt>
            <trkpt lat="46.437930" lon="11.228940">
                <time>2017-07-15T09:57:39Z</time>
            </trkpt>
            <trkpt lat="46.437870" lon="11.228820">
                <time>2017-07-15T09:57:40Z</time>
            </trkpt>
            <trkpt lat="46.437790" lon="11.228760">
                <time>2017-07-15T09:57:41Z</time>
            </trkpt>
            <trkpt lat="46.437660" lon="11.228790">
                <time>2017-07-15T09:57:42Z</time>
            </trkpt>
            <trkpt lat="46.437530" lon="11.228920">
                <time>2017-07-15T09:57:43Z</time>
            </trkpt>
            <trkpt lat="46.437440" lon="11.228980">
                <time>2017-07-15T09:57:44Z</time>
            </trkpt>
            <trkpt lat="46.437330" lon="11.229000">
                <time>2017-07-15T09:57:45Z</time>
            </trkpt>
            <trkpt lat="46.437180" lon="11.228980">
                <time>2017-07-15T09:57:46Z</time>
            </trkpt>
            <trkpt lat="46.437060" lon="11.228960">
                <time>2017-07-15T09:57:47Z</time>
            </trkpt>
            <trkpt lat="46.436830" lon="11.228840">
                <time>2017-07-15T09:57:48Z</time>
            </trkpt>
            <trkpt lat="46.436650" lon="11.228760">
                <time>2017-07-15T09:57:49Z</time>
            </trkpt>
            <trkpt lat="46.436460" lon="11.228680">
                <time>2017-07-15T09:57:50Z</time>
            </trkpt>
            <trkpt lat="46.436240" lon="11.228560">
                <time>2017-07-15T09:57:51Z</time>
            </trkpt>
            <trkpt lat="46.436050" lon="11.228460">
                <time>2017-07-15T09:57:52Z</time>
            </trkpt>
            <trkpt lat="46.435830" lon="11.228410">
                <time>2017-07-15T09:57:53Z</time>
            </trkpt>
            <trkpt lat="46.435640" lon="11.228320">
                <time>2017-07-15T09:57:54Z</time>
            </trkpt>
            <trkpt lat="46.435460" lon="11.228230">
                <time>2017-07-15T09:57:55Z</time>
            </trkpt>
            <trkpt lat="46.435310" lon="11.228140">
                <time>2017-07-15T09:57:56Z</time>
            </trkpt>
            <trkpt lat="46.435200" lon="11.228070">
                <time>2017-07-15T09:57:57Z</time>
            </trkpt>
            <trkpt lat="46.435100" lon="11.228000">
                <time>2017-07-15T09:57:58Z</time>
            </trkpt>
            <trkpt lat="46.435000" lon="11.227900">
                <time>2017-07-15T09:57:59Z</time>
            </trkpt>
            <trkpt lat="46.434980" lon="11.227690">
                <time>2017-07-15T09:58:00Z</time>
            </trkpt>
            <trkpt lat="46.435020" lon="11.227500">
                <time>2017-07-15T09:58:01Z</time>
            </trkpt>
            <trkpt lat="46.435010" lon="11.227320">
                <time>2017-07-15T09:58:02Z</time>
            </trkpt>
            <trkpt lat="46.434990" lon="11.227190">
                <time>2017-07-15T09:58:03Z</time>
            </trkpt>
            <trkpt lat="46.434970" lon="11.227060">
                <time>2017-07-15T09:58:04Z</time>
            </trkpt>
            <trkpt lat="46.434930" lon="11.226960">
                <time>2017-07-15T09:58:05Z</time>
            </trkpt>
            <trkpt lat="46.434800" lon="11.227000">
                <time>2017-07-15T09:58:06Z</time>
            </trkpt>
            <trkpt lat="46.434660" lon="11.227010">
                <time>2017-07-15T09:58:07Z</time>
            </trkpt>
            <trkpt lat="46.434550" lon="11.227140">
                <time>2017-07-15T09:58:08Z</time>
            </trkpt>
            <trkpt lat="46.434450" lon="11.227200">
                <time>2017-07-15T09:58:09Z</time>
            </trkpt>
            <trkpt lat="46.434350" lon="11.227200">
                <time>2017-07-15T09:58:10Z</time>
            </trkpt>
            <trkpt lat="46.434250" lon="11.227180">
                <time>2017-07-15T09:58:11Z</time>
            </trkpt>
            <trkpt lat="46.434160" lon="11.227110">
                <time>2017-07-15T09:58:12Z</time>
            </trkpt>
            <trkpt lat="46.434140" lon="11.226940">
                <time>2017-07-15T09:58:13Z</time>
            </trkpt>
            <trkpt lat="46.434080" lon="11.226820">
                <time>2017-07-15T09:58:14Z</time>
            </trkpt>
            <trkpt lat="46.433990" lon="11.226710">
                <time>2017-07-15T09:58:15Z</time>
            </trkpt>
            <trkpt lat="46.433850" lon="11.226680">
                <time>2017-07-15T09:58:16Z</time>
            </trkpt>
            <trkpt lat="46.433710" lon="11.226580">
                <time>2017-07-15T09:58:17Z</time>
            </trkpt>
            <trkpt lat="46.433540" lon="11.226440">
                <time>2017-07-15T09:58:18Z</time>
            </trkpt>
            <trkpt lat="46.433400" lon="11.226260">
                <time>2017-07-15T09:58:19Z</time>
            </trkpt>
            <trkpt lat="46.433250" lon="11.226050">
                <time>2017-07-15T09:58:20Z</time>
            </trkpt>
            <trkpt lat="46.433110" lon="11.225850">
                <time>2017-07-15T09:58:21Z</time>
            </trkpt>
            <trkpt lat="46.432970" lon="11.225650">
                <time>2017-07-15T09:58:22Z</time>
            </trkpt>
            <trkpt lat="46.432810" lon="11.225450">
                <time>2017-07-15T09:58:23Z</time>
            </trkpt>
            <trkpt lat="46.432650" lon="11.225290">
                <time>2017-07-15T09:58:24Z</time>
            </trkpt>
            <trkpt lat="46.432460" lon="11.225120">
                <time>2017-07-15T09:58:25Z</time>
            </trkpt>
            <trkpt lat="46.432270" lon="11.224950">
                <time>2017-07-15T09:58:26Z</time>
            </trkpt>
            <trkpt lat="46.432080" lon="11.224770">
                <time>2017-07-15T09:58:27Z</time>
            </trkpt>
            <trkpt lat="46.431860" lon="11.224590">
                <time>2017-07-15T09:58:28Z</time>
            </trkpt>
            <trkpt lat="46.431670" lon="11.224440">
                <time>2017-07-15T09:58:29Z</time>
            </trkpt>
            <trkpt lat="46.431480" lon="11.224270">
                <time>2017-07-15T09:58:30Z</time>
            </trkpt>
            <trkpt lat="46.431300" lon="11.224090">
                <time>2017-07-15T09:58:31Z</time>
            </trkpt>
            <trkpt lat="46.431150" lon="11.223940">
                <time>2017-07-15T09:58:32Z</time>
            </trkpt>
            <trkpt lat="46.431030" lon="11.223780">
                <time>2017-07-15T09:58:33Z</time>
            </trkpt>
            <trkpt lat="46.430930" lon="11.223580">
                <time>2017-07-15T09:58:34Z</time>
            </trkpt>
            <trkpt lat="46.430860" lon="11.223390">
                <time>2017-07-15T09:58:35Z</time>
            </trkpt>
            <trkpt lat="46.430810" lon="11.223160">
                <time>2017-07-15T09:58:36Z</time>
            </trkpt>
            <trkpt lat="46.430800" lon="11.222930">
                <time>2017-07-15T09:58:37Z</time>
            </trkpt>
            <trkpt lat="46.430810" lon="11.222670">
                <time>2017-07-15T09:58:38Z</time>
            </trkpt>
            <trkpt lat="46.430820" lon="11.222390">
                <time>2017-07-15T09:58:39Z</time>
            </trkpt>
            <trkpt lat="46.430820" lon="11.222170">
                <time>2017-07-15T09:58:40Z</time>
            </trkpt>
            <trkpt lat="46.430790" lon="11.221930">
                <time>2017-07-15T09:58:41Z</time>
            </trkpt>
            <trkpt lat="46.430740" lon="11.221710">
                <time>2017-07-15T09:58:42Z</time>
            </trkpt>
            <trkpt lat="46.430670" lon="11.221510">
                <time>2017-07-15T09:58:43Z</time>
            </trkpt>
            <trkpt lat="46.430560" lon="11.221330">
                <time>2017-07-15T09:58:44Z</time>
            </trkpt>
            <trkpt lat="46.430440" lon="11.221190">
                <time>2017-07-15T09:58:45Z</time>
            </trkpt>
            <trkpt lat="46.430260" lon="11.221120">
                <time>2017-07-15T09:58:46Z</time>
            </trkpt>
            <trkpt lat="46.430110" lon="11.221030">
                <time>2017-07-15T09:58:47Z</time>
            </trkpt>
            <trkpt lat="46.429990" lon="11.220950">
                <time>2017-07-15T09:58:48Z</time>
            </trkpt>
            <trkpt lat="46.429910" lon="11.220830">
                <time>2017-07-15T09:58:49Z</time>
            </trkpt>
            <trkpt lat="46.429830" lon="11.220700">
                <time>2017-07-15T09:58:50Z</time>
            </trkpt>
            <trkpt lat="46.429770" lon="11.220550">
                <time>2017-07-15T09:58:51Z</time>
            </trkpt>
            <trkpt lat="46.429710" lon="11.220330">
                <time>2017-07-15T09:58:52Z</time>
            </trkpt>
            <trkpt lat="46.429650" lon="11.220160">
                <time>2017-07-15T09:58:53Z</time>
            </trkpt>
            <trkpt lat="46.429570" lon="11.219970">
                <time>2017-07-15T09:58:54Z</time>
            </trkpt>
            <trkpt lat="46.429430" lon="11.219900">
                <time>2017-07-15T09:58:55Z</time>
            </trkpt>
            <trkpt lat="46.429340" lon="11.219810">
                <time>2017-07-15T09:58:56Z</time>
            </trkpt>
            <trkpt lat="46.429300" lon="11.219680">
                <time>2017-07-15T09:58:57Z</time>
            </trkpt>
            <trkpt lat="46.429310" lon="11.219550">
                <time>2017-07-15T09:58:58Z</time>
            </trkpt>
            <trkpt lat="46.429340" lon="11.219400">
                <time>2017-07-15T09:58:59Z</time>
            </trkpt>
            <trkpt lat="46.429360" lon="11.219230">
                <time>2017-07-15T09:59:00Z</time>
            </trkpt>
            <trkpt lat="46.429380" lon="11.219060">
                <time>2017-07-15T09:59:01Z</time>
            </trkpt>
            <trkpt lat="46.429350" lon="11.218840">
                <time>2017-07-15T09:59:02Z</time>
            </trkpt>
            <trkpt lat="46.429270" lon="11.218630">
                <time>2017-07-15T09:59:03Z</time>
            </trkpt>
            <trkpt lat="46.429180" lon="11.218450">
                <time>2017-07-15T09:59:04Z</time>
            </trkpt>
            <trkpt lat="46.429080" lon="11.218280">
                <time>2017-07-15T09:59:05Z</time>
            </trkpt>
            <trkpt lat="46.428960" lon="11.218090">
                <time>2017-07-15T09:59:06Z</time>
            </trkpt>
            <trkpt lat="46.428860" lon="11.217900">
                <time>2017-07-15T09:59:07Z</time>
            </trkpt>
            <trkpt lat="46.428760" lon="11.217670">
                <time>2017-07-15T09:59:08Z</time>
            </trkpt>
            <trkpt lat="46.428680" lon="11.217490">
                <time>2017-07-15T09:59:09Z</time>
            </trkpt>
            <trkpt lat="46.428610" lon="11.217320">
                <time>2017-07-15T09:59:10Z</time>
            </trkpt>
            <trkpt lat="46.428550" lon="11.217170">
                <time>2017-07-15T09:59:11Z</time>
            </trkpt>
            <trkpt lat="46.428500" lon="11.217070">
                <time>2017-07-15T09:59:12Z</time>
            </trkpt>
            <trkpt lat="46.428470" lon="11.216990">
                <time>2017-07-15T09:59:13Z</time>
            </trkpt>
            <trkpt lat="46.428460" lon="11.216930">
                <time>2017-07-15T09:59:14Z</time>
            </trkpt>
            <trkpt lat="46.428450" lon="11.216910">
                <time>2017-07-15T09:59:15Z</time>
            </trkpt>
            <trkpt lat="46.428450" lon="11.216900">
                <time>2017-07-15T09:59:16Z</time>
            </trkpt>
            <trkpt lat="46.428450" lon="11.216920">
                <time>2017-07-15T09:59:17Z</time>
            </trkpt>
            <trkpt lat="46.428450" lon="11.216920">
                <time>2017-07-15T09:59:18Z</time>
            </trkpt>
            <trkpt lat="46.428450" lon="11.216920">
                <time>2017-07-15T09:59:19Z</time>
            </trkpt>
            <trkpt lat="46.428450" lon="11.216920">
                <time>2017-07-15T09:59:20Z</time>
            </trkpt>
            <trkpt lat="46.428450" lon="11.216920">
                <time>2017-07-15T09:59:21Z</time>
            </trkpt>
            <trkpt lat="46.428450" lon="11.216920">
                <time>2017-07-15T09:59:22Z</time>
            </trkpt>
            <trkpt lat="46.428450" lon="11.216920">
                <time>2017-07-15T09:59:23Z</time>
            </trkpt>
            <trkpt lat="46.428450" lon="11.216920">
                <time>2017-07-15T09:59:24Z</time>
            </trkpt>
            <trkpt lat="46.428450" lon="11.216920">
                <time>2017-07-15T09:59:25Z</time>
            </trkpt>
            <trkpt lat="46.428450" lon="11.216920">
                <time>2017-07-15T09:59:26Z</time>
            </trkpt>
            <trkpt lat="46.428450" lon="11.216920">
                <time>2017-07-15T09:59:27Z</time>
            </trkpt>
            <trkpt lat="46.428450" lon="11.216920">
                <time>2017-07-15T09:59:28Z</time>
            </trkpt>
            <trkpt lat="46.428450" lon="11.216920">
                <time>2017-07-15T09:59:29Z</time>
            </trkpt>
            <trkpt lat="46.428450" lon="11.216920">
                <time>2017-07-15T09:59:30Z</time>
            </trkpt>
            <trkpt lat="46.428450" lon="11.216920">
                <time>2017-07-15T09:59:31Z</time>
            </trkpt>
            <trkpt lat="46.428450" lon="11.216920">
                <time>2017-07-15T09:59:32Z</time>
            </trkpt>
            <trkpt lat="46.428450" lon="11.216920">
                <time>2017-07-15T09:59:33Z</time>
            </trkpt>
            <trkpt lat="46.428450" lon="11.216920">
                <time>2017-07-15T09:59:34Z</time>
            </trkpt>
            <trkpt lat="46.428450" lon="11.216920">
                <time>2017-07-15T09:59:35Z</time>
            </trkpt>
            <trkpt lat="46.428450" lon="11.216920">
                <time>2017-07-15T09:59:36Z</time>
            </trkpt>
            <trkpt lat="46.428450" lon="11.216920">
                <time>2017-07-15T09:59:37Z</time>
            </trkpt>
            <trkpt lat="46.428450" lon="11.216920">
                <time>2017-07-15T09:59:38Z</time>
            </trkpt>
            <trkpt lat="46.428450" lon="11.216920">
                <time>2017-07-15T09:59:39Z</time>
            </trkpt>
            <trkpt lat="46.428450" lon="11.216920">
                <time>2017-07-15T09:59:40Z</time>
            </trkpt>
            <trkpt lat="46.428450" lon="11.216920">
                <time>2017-07-15T09:59:41Z</time>
            </trkpt>
            <trkpt lat="46.428450" lon="11.216920">
                <time>2017-07-15T09:59:42Z</time>
            </trkpt>
            <trkpt lat="46.428450" lon="11.216920">
                <time>2017-07-15T09:59:43Z</time>
            </trkpt>
            <trkpt lat="46.428450" lon="11.216920">
                <time>2017-07-15T09:59:44Z</time>
            </trkpt>
            <trkpt lat="46.428450" lon="11.216920">
                <time>2017-07-15T09:59:45Z</time>
            </trkpt>
            <trkpt lat="46.428450" lon="11.216920">
                <time>2017-07-15T09:59:46Z</time>
            </trkpt>
            <trkpt lat="46.428450" lon="11.216920">
                <time>2017-07-15T09:59:47Z</time>
            </trkpt>
            <trkpt lat="46.428450" lon="11.216920">
                <time>2017-07-15T09:59:48Z</time>
            </trkpt>
            <trkpt lat="46.428450" lon="11.216920">
                <time>2017-07-15T09:59:49Z</time>
            </trkpt>
            <trkpt lat="46.428450" lon="11.216920">
                <time>2017-07-15T09:59:50Z</time>
            </trkpt>
            <trkpt lat="46.428450" lon="11.216920">
                <time>2017-07-15T09:59:51Z</time>
            </trkpt>
            <trkpt lat="46.428450" lon="11.216920">
                <time>2017-07-15T09:59:52Z</time>
            </trkpt>
            <trkpt lat="46.428450" lon="11.216920">
                <time>2017-07-15T09:59:53Z</time>
            </trkpt>
            <trkpt lat="46.428450" lon="11.216920">
                <time>2017-07-15T09:59:54Z</time>
            </trkpt>
            <trkpt lat="46.428450" lon="11.216920">
                <time>2017-07-15T09:59:55Z</time>
            </trkpt>
            <trkpt lat="46.428450" lon="11.216920">
                <time>2017-07-15T09:59:56Z</time>
            </trkpt>
            <trkpt lat="46.428450" lon="11.216920">
                <time>2017-07-15T09:59:57Z</time>
            </trkpt>
            <trkpt lat="46.428450" lon="11.216920">
                <time>2017-07-15T09:59:58Z</time>
            </trkpt>
            <trkpt lat="46.428450" lon="11.216920">
                <time>2017-07-15T09:59:59Z</time>
            </trkpt>
            <trkpt lat="46.428450" lon="11.216920">
                <time>2017-07-15T10:00:00Z</time>
            </trkpt>
            <trkpt lat="46.428450" lon="11.216920">
                <time>2017-07-15T10:00:01Z</time>
            </trkpt>
            <trkpt lat="46.428450" lon="11.216920">
                <time>2017-07-15T10:00:02Z</time>
            </trkpt>
            <trkpt lat="46.428450" lon="11.216920">
                <time>2017-07-15T10:00:03Z</time>
            </trkpt>
            <trkpt lat="46.428450" lon="11.216920">
                <time>2017-07-15T10:00:04Z</time>
            </trkpt>
            <trkpt lat="46.428450" lon="11.216940">
                <time>2017-07-15T10:00:35Z</time>
            </trkpt>
            <trkpt lat="46.428450" lon="11.216940">
                <time>2017-07-15T10:00:36Z</time>
            </trkpt>
            <trkpt lat="46.428430" lon="11.216930">
                <time>2017-07-15T10:00:37Z</time>
            </trkpt>
            <trkpt lat="46.428400" lon="11.216910">
                <time>2017-07-15T10:00:38Z</time>
            </trkpt>
            <trkpt lat="46.428370" lon="11.216810">
                <time>2017-07-15T10:00:39Z</time>
            </trkpt>
            <trkpt lat="46.428330" lon="11.216730">
                <time>2017-07-15T10:00:40Z</time>
            </trkpt>
            <trkpt lat="46.428300" lon="11.216640">
                <time>2017-07-15T10:00:41Z</time>
            </trkpt>
            <trkpt lat="46.428190" lon="11.216460">
                <time>2017-07-15T10:00:43Z</time>
            </trkpt>
            <trkpt lat="46.428100" lon="11.216360">
                <time>2017-07-15T10:00:44Z</time>
            </trkpt>
            <trkpt lat="46.428020" lon="11.216280">
                <time>2017-07-15T10:00:45Z</time>
            </trkpt>
            <trkpt lat="46.427940" lon="11.216170">
                <time>2017-07-15T10:00:46Z</time>
            </trkpt>
            <trkpt lat="46.427840" lon="11.216070">
                <time>2017-07-15T10:00:47Z</time>
            </trkpt>
            <trkpt lat="46.427740" lon="11.215970">
                <time>2017-07-15T10:00:48Z</time>
            </trkpt>
            <trkpt lat="46.427630" lon="11.215880">
                <time>2017-07-15T10:00:49Z</time>
            </trkpt>
            <trkpt lat="46.427520" lon="11.215820">
                <time>2017-07-15T10:00:50Z</time>
            </trkpt>
            <trkpt lat="46.427400" lon="11.215770">
                <time>2017-07-15T10:00:51Z</time>
            </trkpt>
            <trkpt lat="46.427270" lon="11.215720">
                <time>2017-07-15T10:00:52Z</time>
            </trkpt>
            <trkpt lat="46.427150" lon="11.215680">
                <time>2017-07-15T10:00:53Z</time>
            </trkpt>
            <trkpt lat="46.427030" lon="11.215640">
                <time>2017-07-15T10:00:54Z</time>
            </trkpt>
            <trkpt lat="46.426930" lon="11.215570">
                <time>2017-07-15T10:00:55Z</time>
            </trkpt>
            <trkpt lat="46.426830" lon="11.215510">
                <time>2017-07-15T10:00:56Z</time>
            </trkpt>
            <trkpt lat="46.426730" lon="11.215450">
                <time>2017-07-15T10:00:57Z</time>
            </trkpt>
            <trkpt lat="46.426610" lon="11.215380">
                <time>2017-07-15T10:00:58Z</time>
            </trkpt>
            <trkpt lat="46.426500" lon="11.215340">
                <time>2017-07-15T10:00:59Z</time>
            </trkpt>
            <trkpt lat="46.426360" lon="11.215280">
                <time>2017-07-15T10:01:00Z</time>
            </trkpt>
            <trkpt lat="46.426230" lon="11.215230">
                <time>2017-07-15T10:01:01Z</time>
            </trkpt>
            <trkpt lat="46.426090" lon="11.215170">
                <time>2017-07-15T10:01:02Z</time>
            </trkpt>
            <trkpt lat="46.425950" lon="11.215110">
                <time>2017-07-15T10:01:03Z</time>
            </trkpt>
            <trkpt lat="46.425840" lon="11.215070">
                <time>2017-07-15T10:01:04Z</time>
            </trkpt>
            <trkpt lat="46.425720" lon="11.215000">
                <time>2017-07-15T10:01:05Z</time>
            </trkpt>
            <trkpt lat="46.425590" lon="11.214900">
                <time>2017-07-15T10:01:06Z</time>
            </trkpt>
            <trkpt lat="46.425460" lon="11.214800">
                <time>2017-07-15T10:01:07Z</time>
            </trkpt>
            <trkpt lat="46.425340" lon="11.214700">
                <time>2017-07-15T10:01:08Z</time>
            </trkpt>
            <trkpt lat="46.425260" lon="11.214610">
                <time>2017-07-15T10:01:09Z</time>
            </trkpt>
            <trkpt lat="46.425190" lon="11.214500">
                <time>2017-07-15T10:01:10Z</time>
            </trkpt>
            <trkpt lat="46.425150" lon="11.214390">
                <time>2017-07-15T10:01:11Z</time>
            </trkpt>
            <trkpt lat="46.425140" lon="11.214280">
                <time>2017-07-15T10:01:12Z</time>
            </trkpt>
            <trkpt lat="46.425130" lon="11.214170">
                <time>2017-07-15T10:01:13Z</time>
            </trkpt>
            <trkpt lat="46.425100" lon="11.214060">
                <time>2017-07-15T10:01:14Z</time>
            </trkpt>
            <trkpt lat="46.425040" lon="11.213980">
                <time>2017-07-15T10:01:15Z</time>
            </trkpt>
            <trkpt lat="46.424960" lon="11.213920">
                <time>2017-07-15T10:01:16Z</time>
            </trkpt>
            <trkpt lat="46.424870" lon="11.213870">
                <time>2017-07-15T10:01:17Z</time>
            </trkpt>
            <trkpt lat="46.424750" lon="11.213850">
                <time>2017-07-15T10:01:18Z</time>
            </trkpt>
            <trkpt lat="46.424660" lon="11.213890">
                <time>2017-07-15T10:01:19Z</time>
            </trkpt>
            <trkpt lat="46.424560" lon="11.213980">
                <time>2017-07-15T10:01:20Z</time>
            </trkpt>
            <trkpt lat="46.424470" lon="11.214140">
                <time>2017-07-15T10:01:21Z</time>
            </trkpt>
            <trkpt lat="46.424380" lon="11.214280">
                <time>2017-07-15T10:01:22Z</time>
            </trkpt>
            <trkpt lat="46.424290" lon="11.214380">
                <time>2017-07-15T10:01:23Z</time>
            </trkpt>
            <trkpt lat="46.424200" lon="11.214450">
                <time>2017-07-15T10:01:24Z</time>
            </trkpt>
            <trkpt lat="46.424130" lon="11.214470">
                <time>2017-07-15T10:01:25Z</time>
            </trkpt>
            <trkpt lat="46.424060" lon="11.214460">
                <time>2017-07-15T10:01:26Z</time>
            </trkpt>
            <trkpt lat="46.423960" lon="11.214420">
                <time>2017-07-15T10:01:27Z</time>
            </trkpt>
            <trkpt lat="46.423870" lon="11.214400">
                <time>2017-07-15T10:01:28Z</time>
            </trkpt>
            <trkpt lat="46.423750" lon="11.214400">
                <time>2017-07-15T10:01:29Z</time>
            </trkpt>
            <trkpt lat="46.423620" lon="11.214390">
                <time>2017-07-15T10:01:30Z</time>
            </trkpt>
            <trkpt lat="46.423510" lon="11.214370">
                <time>2017-07-15T10:01:31Z</time>
            </trkpt>
            <trkpt lat="46.423380" lon="11.214310">
                <time>2017-07-15T10:01:32Z</time>
            </trkpt>
            <trkpt lat="46.423270" lon="11.214310">
                <time>2017-07-15T10:01:33Z</time>
            </trkpt>
            <trkpt lat="46.423150" lon="11.214320">
                <time>2017-07-15T10:01:34Z</time>
            </trkpt>
            <trkpt lat="46.423010" lon="11.214370">
                <time>2017-07-15T10:01:35Z</time>
            </trkpt>
            <trkpt lat="46.422910" lon="11.214410">
                <time>2017-07-15T10:01:36Z</time>
            </trkpt>
            <trkpt lat="46.422810" lon="11.214420">
                <time>2017-07-15T10:01:37Z</time>
            </trkpt>
            <trkpt lat="46.422700" lon="11.214390">
                <time>2017-07-15T10:01:38Z</time>
            </trkpt>
            <trkpt lat="46.422570" lon="11.214330">
                <time>2017-07-15T10:01:39Z</time>
            </trkpt>
            <trkpt lat="46.422410" lon="11.214300">
                <time>2017-07-15T10:01:40Z</time>
            </trkpt>
            <trkpt lat="46.422270" lon="11.214270">
                <time>2017-07-15T10:01:41Z</time>
            </trkpt>
            <trkpt lat="46.422120" lon="11.214230">
                <time>2017-07-15T10:01:42Z</time>
            </trkpt>
            <trkpt lat="46.422010" lon="11.214200">
                <time>2017-07-15T10:01:43Z</time>
            </trkpt>
            <trkpt lat="46.421940" lon="11.214230">
                <time>2017-07-15T10:01:44Z</time>
            </trkpt>
            <trkpt lat="46.421860" lon="11.214290">
                <time>2017-07-15T10:01:45Z</time>
            </trkpt>
            <trkpt lat="46.421780" lon="11.214370">
                <time>2017-07-15T10:01:46Z</time>
            </trkpt>
            <trkpt lat="46.421730" lon="11.214430">
                <time>2017-07-15T10:01:47Z</time>
            </trkpt>
            <trkpt lat="46.421670" lon="11.214460">
                <time>2017-07-15T10:01:48Z</time>
            </trkpt>
            <trkpt lat="46.421590" lon="11.214440">
                <time>2017-07-15T10:01:49Z</time>
            </trkpt>
            <trkpt lat="46.421470" lon="11.214440">
                <time>2017-07-15T10:01:50Z</time>
            </trkpt>
            <trkpt lat="46.421330" lon="11.214460">
                <time>2017-07-15T10:01:51Z</time>
            </trkpt>
            <trkpt lat="46.421190" lon="11.214490">
                <time>2017-07-15T10:01:52Z</time>
            </trkpt>
            <trkpt lat="46.421040" lon="11.214530">
                <time>2017-07-15T10:01:53Z</time>
            </trkpt>
            <trkpt lat="46.420880" lon="11.214550">
                <time>2017-07-15T10:01:54Z</time>
            </trkpt>
            <trkpt lat="46.420730" lon="11.214580">
                <time>2017-07-15T10:01:55Z</time>
            </trkpt>
            <trkpt lat="46.420570" lon="11.214600">
                <time>2017-07-15T10:01:56Z</time>
            </trkpt>
            <trkpt lat="46.420430" lon="11.214630">
                <time>2017-07-15T10:01:57Z</time>
            </trkpt>
            <trkpt lat="46.420300" lon="11.214660">
                <time>2017-07-15T10:01:58Z</time>
            </trkpt>
            <trkpt lat="46.420180" lon="11.214720">
                <time>2017-07-15T10:01:59Z</time>
            </trkpt>
            <trkpt lat="46.420080" lon="11.214780">
                <time>2017-07-15T10:02:00Z</time>
            </trkpt>
            <trkpt lat="46.419980" lon="11.214820">
                <time>2017-07-15T10:02:01Z</time>
            </trkpt>
            <trkpt lat="46.419880" lon="11.214880">
                <time>2017-07-15T10:02:02Z</time>
            </trkpt>
            <trkpt lat="46.419820" lon="11.214990">
                <time>2017-07-15T10:02:03Z</time>
            </trkpt>
            <trkpt lat="46.419730" lon="11.215080">
                <time>2017-07-15T10:02:04Z</time>
            </trkpt>
            <trkpt lat="46.419620" lon="11.215160">
                <time>2017-07-15T10:02:05Z</time>
            </trkpt>
            <trkpt lat="46.419500" lon="11.215270">
                <time>2017-07-15T10:02:06Z</time>
            </trkpt>
            <trkpt lat="46.419400" lon="11.215430">
                <time>2017-07-15T10:02:07Z</time>
            </trkpt>
            <trkpt lat="46.419300" lon="11.215570">
                <time>2017-07-15T10:02:08Z</time>
            </trkpt>
            <trkpt lat="46.419190" lon="11.215690">
                <time>2017-07-15T10:02:09Z</time>
            </trkpt>
            <trkpt lat="46.419040" lon="11.215810">
                <time>2017-07-15T10:02:10Z</time>
            </trkpt>
            <trkpt lat="46.418880" lon="11.215930">
                <time>2017-07-15T10:02:11Z</time>
            </trkpt>
            <trkpt lat="46.418720" lon="11.216080">
                <time>2017-07-15T10:02:12Z</time>
            </trkpt>
            <trkpt lat="46.418590" lon="11.216200">
                <time>2017-07-15T10:02:13Z</time>
            </trkpt>
            <trkpt lat="46.418450" lon="11.216330">
                <time>2017-07-15T10:02:14Z</time>
            </trkpt>
            <trkpt lat="46.418340" lon="11.216460">
                <time>2017-07-15T10:02:15Z</time>
            </trkpt>
            <trkpt lat="46.418220" lon="11.216550">
                <time>2017-07-15T10:02:16Z</time>
            </trkpt>
            <trkpt lat="46.418100" lon="11.216600">
                <time>2017-07-15T10:02:17Z</time>
            </trkpt>
            <trkpt lat="46.417950" lon="11.216620">
                <time>2017-07-15T10:02:18Z</time>
            </trkpt>
            <trkpt lat="46.417810" lon="11.216620">
                <time>2017-07-15T10:02:19Z</time>
            </trkpt>
            <trkpt lat="46.417650" lon="11.216610">
                <time>2017-07-15T10:02:20Z</time>
            </trkpt>
            <trkpt lat="46.417530" lon="11.216570">
                <time>2017-07-15T10:02:21Z</time>
            </trkpt>
            <trkpt lat="46.417400" lon="11.216490">
                <time>2017-07-15T10:02:22Z</time>
            </trkpt>
            <trkpt lat="46.417250" lon="11.216380">
                <time>2017-07-15T10:02:23Z</time>
            </trkpt>
            <trkpt lat="46.417110" lon="11.216280">
                <time>2017-07-15T10:02:24Z</time>
            </trkpt>
            <trkpt lat="46.416950" lon="11.216200">
                <time>2017-07-15T10:02:25Z</time>
            </trkpt>
            <trkpt lat="46.416800" lon="11.216120">
                <time>2017-07-15T10:02:26Z</time>
            </trkpt>
            <trkpt lat="46.416650" lon="11.216070">
                <time>2017-07-15T10:02:27Z</time>
            </trkpt>
            <trkpt lat="46.416510" lon="11.216010">
                <time>2017-07-15T10:02:28Z</time>
            </trkpt>
            <trkpt lat="46.416440" lon="11.215970">
                <time>2017-07-15T10:02:29Z</time>
            </trkpt>
            <trkpt lat="46.416350" lon="11.215980">
                <time>2017-07-15T10:02:30Z</time>
            </trkpt>
            <trkpt lat="46.416250" lon="11.215970">
                <time>2017-07-15T10:02:31Z</time>
            </trkpt>
            <trkpt lat="46.416200" lon="11.215930">
                <time>2017-07-15T10:02:32Z</time>
            </trkpt>
            <trkpt lat="46.416170" lon="11.215850">
                <time>2017-07-15T10:02:33Z</time>
            </trkpt>
            <trkpt lat="46.416190" lon="11.215770">
                <time>2017-07-15T10:02:34Z</time>
            </trkpt>
            <trkpt lat="46.416220" lon="11.215720">
                <time>2017-07-15T10:02:35Z</time>
            </trkpt>
            <trkpt lat="46.416270" lon="11.215720">
                <time>2017-07-15T10:02:36Z</time>
            </trkpt>
            <trkpt lat="46.416410" lon="11.215810">
                <time>2017-07-15T10:02:37Z</time>
            </trkpt>
            <trkpt lat="46.416550" lon="11.215870">
                <time>2017-07-15T10:02:38Z</time>
            </trkpt>
            <trkpt lat="46.416710" lon="11.215930">
                <time>2017-07-15T10:02:39Z</time>
            </trkpt>
            <trkpt lat="46.416870" lon="11.215980">
                <time>2017-07-15T10:02:40Z</time>
            </trkpt>
            <trkpt lat="46.417030" lon="11.216030">
                <time>2017-07-15T10:02:41Z</time>
            </trkpt>
            <trkpt lat="46.417180" lon="11.216080">
                <time>2017-07-15T10:02:42Z</time>
            </trkpt>
            <trkpt lat="46.417300" lon="11.216160">
                <time>2017-07-15T10:02:43Z</time>
            </trkpt>
            <trkpt lat="46.417420" lon="11.216250">
                <time>2017-07-15T10:02:44Z</time>
            </trkpt>
            <trkpt lat="46.417500" lon="11.216330">
                <time>2017-07-15T10:02:45Z</time>
            </trkpt>
            <trkpt lat="46.417580" lon="11.216380">
                <time>2017-07-15T10:02:46Z</time>
            </trkpt>
            <trkpt lat="46.417660" lon="11.216420">
                <time>2017-07-15T10:02:47Z</time>
            </trkpt>
            <trkpt lat="46.417730" lon="11.216390">
                <time>2017-07-15T10:02:48Z</time>
            </trkpt>
            <trkpt lat="46.417760" lon="11.216260">
                <time>2017-07-15T10:02:49Z</time>
            </trkpt>
            <trkpt lat="46.417750" lon="11.216160">
                <time>2017-07-15T10:02:50Z</time>
            </trkpt>
            <trkpt lat="46.417650" lon="11.216100">
                <time>2017-07-15T10:02:51Z</time>
            </trkpt>
            <trkpt lat="46.417540" lon="11.216080">
                <time>2017-07-15T10:02:52Z</time>
            </trkpt>
            <trkpt lat="46.417410" lon="11.216040">
                <time>2017-07-15T10:02:53Z</time>
            </trkpt>
            <trkpt lat="46.417270" lon="11.215990">
                <time>2017-07-15T10:02:54Z</time>
            </trkpt>
            <trkpt lat="46.417100" lon="11.215890">
                <time>2017-07-15T10:02:55Z</time>
            </trkpt>
            <trkpt lat="46.416950" lon="11.215800">
                <time>2017-07-15T10:02:56Z</time>
            </trkpt>
            <trkpt lat="46.416790" lon="11.215690">
                <time>2017-07-15T10:02:57Z</time>
            </trkpt>
            <trkpt lat="46.416640" lon="11.215590">
                <time>2017-07-15T10:02:58Z</time>
            </trkpt>
            <trkpt lat="46.416510" lon="11.215500">
                <time>2017-07-15T10:02:59Z</time>
            </trkpt>
            <trkpt lat="46.416410" lon="11.215360">
                <time>2017-07-15T10:03:00Z</time>
            </trkpt>
            <trkpt lat="46.416340" lon="11.215230">
                <time>2017-07-15T10:03:01Z</time>
            </trkpt>
            <trkpt lat="46.416290" lon="11.215060">
                <time>2017-07-15T10:03:02Z</time>
            </trkpt>
            <trkpt lat="46.416280" lon="11.214820">
                <time>2017-07-15T10:03:03Z</time>
            </trkpt>
            <trkpt lat="46.416280" lon="11.214540">
                <time>2017-07-15T10:03:04Z</time>
            </trkpt>
            <trkpt lat="46.416260" lon="11.214250">
                <time>2017-07-15T10:03:05Z</time>
            </trkpt>
            <trkpt lat="46.416240" lon="11.213960">
                <time>2017-07-15T10:03:06Z</time>
            </trkpt>
            <trkpt lat="46.416220" lon="11.213740">
                <time>2017-07-15T10:03:07Z</time>
            </trkpt>
            <trkpt lat="46.416200" lon="11.213510">
                <time>2017-07-15T10:03:08Z</time>
            </trkpt>
            <trkpt lat="46.416180" lon="11.213320">
                <time>2017-07-15T10:03:09Z</time>
            </trkpt>
            <trkpt lat="46.416170" lon="11.213150">
                <time>2017-07-15T10:03:10Z</time>
            </trkpt>
            <trkpt lat="46.416160" lon="11.213000">
                <time>2017-07-15T10:03:11Z</time>
            </trkpt>
            <trkpt lat="46.416140" lon="11.212880">
                <time>2017-07-15T10:03:12Z</time>
            </trkpt>
            <trkpt lat="46.416110" lon="11.212790">
                <time>2017-07-15T10:03:13Z</time>
            </trkpt>
            <trkpt lat="46.416090" lon="11.212700">
                <time>2017-07-15T10:03:14Z</time>
            </trkpt>
            <trkpt lat="46.416070" lon="11.212630">
                <time>2017-07-15T10:03:15Z</time>
            </trkpt>
            <trkpt lat="46.416050" lon="11.212590">
                <time>2017-07-15T10:03:16Z</time>
            </trkpt>
            <trkpt lat="46.416040" lon="11.212550">
                <time>2017-07-15T10:03:17Z</time>
            </trkpt>
            <trkpt lat="46.416020" lon="11.212500">
                <time>2017-07-15T10:03:18Z</time>
            </trkpt>
            <trkpt lat="46.416030" lon="11.212440">
                <time>2017-07-15T10:03:19Z</time>
            </trkpt>
            <trkpt lat="46.416030" lon="11.212380">
                <time>2017-07-15T10:03:20Z</time>
            </trkpt>
            <trkpt lat="46.416080" lon="11.212350">
                <time>2017-07-15T10:03:21Z</time>
            </trkpt>
            <trkpt lat="46.416130" lon="11.212360">
                <time>2017-07-15T10:03:22Z</time>
            </trkpt>
            <trkpt lat="46.416180" lon="11.212410">
                <time>2017-07-15T10:03:23Z</time>
            </trkpt>
            <trkpt lat="46.416220" lon="11.212540">
                <time>2017-07-15T10:03:24Z</time>
            </trkpt>
            <trkpt lat="46.416250" lon="11.212700">
                <time>2017-07-15T10:03:25Z</time>
            </trkpt>
            <trkpt lat="46.416280" lon="11.212910">
                <time>2017-07-15T10:03:26Z</time>
            </trkpt>
            <trkpt lat="46.416330" lon="11.213170">
                <time>2017-07-15T10:03:27Z</time>
            </trkpt>
            <trkpt lat="46.416390" lon="11.213410">
                <time>2017-07-15T10:03:28Z</time>
            </trkpt>
            <trkpt lat="46.416430" lon="11.213630">
                <time>2017-07-15T10:03:29Z</time>
            </trkpt>
            <trkpt lat="46.416460" lon="11.213820">
                <time>2017-07-15T10:03:30Z</time>
            </trkpt>
            <trkpt lat="46.416490" lon="11.213960">
                <time>2017-07-15T10:03:31Z</time>
            </trkpt>
            <trkpt lat="46.416490" lon="11.214070">
                <time>2017-07-15T10:03:32Z</time>
            </trkpt>
            <trkpt lat="46.416490" lon="11.214140">
                <time>2017-07-15T10:03:33Z</time>
            </trkpt>
            <trkpt lat="46.416500" lon="11.214220">
                <time>2017-07-15T10:03:34Z</time>
            </trkpt>
            <trkpt lat="46.416500" lon="11.214310">
                <time>2017-07-15T10:03:35Z</time>
            </trkpt>
            <trkpt lat="46.416530" lon="11.214380">
                <time>2017-07-15T10:03:36Z</time>
            </trkpt>
            <trkpt lat="46.416580" lon="11.214430">
                <time>2017-07-15T10:03:37Z</time>
            </trkpt>
            <trkpt lat="46.416640" lon="11.214430">
                <time>2017-07-15T10:03:38Z</time>
            </trkpt>
            <trkpt lat="46.416680" lon="11.214390">
                <time>2017-07-15T10:03:39Z</time>
            </trkpt>
            <trkpt lat="46.416700" lon="11.214300">
                <time>2017-07-15T10:03:40Z</time>
            </trkpt>
            <trkpt lat="46.416700" lon="11.214220">
                <time>2017-07-15T10:03:41Z</time>
            </trkpt>
            <trkpt lat="46.416660" lon="11.214110">
                <time>2017-07-15T10:03:42Z</time>
            </trkpt>
            <trkpt lat="46.416630" lon="11.213970">
                <time>2017-07-15T10:03:43Z</time>
            </trkpt>
            <trkpt lat="46.416590" lon="11.213810">
                <time>2017-07-15T10:03:44Z</time>
            </trkpt>
            <trkpt lat="46.416550" lon="11.213610">
                <time>2017-07-15T10:03:45Z</time>
            </trkpt>
            <trkpt lat="46.416510" lon="11.213390">
                <time>2017-07-15T10:03:46Z</time>
            </trkpt>
            <trkpt lat="46.416490" lon="11.213150">
                <time>2017-07-15T10:03:47Z</time>
            </trkpt>
            <trkpt lat="46.416470" lon="11.212870">
                <time>2017-07-15T10:03:48Z</time>
            </trkpt>
            <trkpt lat="46.416450" lon="11.212640">
                <time>2017-07-15T10:03:49Z</time>
            </trkpt>
            <trkpt lat="46.416400" lon="11.212400">
                <time>2017-07-15T10:03:50Z</time>
            </trkpt>
            <trkpt lat="46.416350" lon="11.212160">
                <time>2017-07-15T10:03:51Z</time>
            </trkpt>
            <trkpt lat="46.416300" lon="11.211970">
                <time>2017-07-15T10:03:52Z</time>
            </trkpt>
            <trkpt lat="46.416260" lon="11.211780">
                <time>2017-07-15T10:03:53Z</time>
            </trkpt>
            <trkpt lat="46.416220" lon="11.211590">
                <time>2017-07-15T10:03:54Z</time>
            </trkpt>
            <trkpt lat="46.416180" lon="11.211460">
                <time>2017-07-15T10:03:55Z</time>
            </trkpt>
            <trkpt lat="46.416120" lon="11.211340">
                <time>2017-07-15T10:03:56Z</time>
            </trkpt>
            <trkpt lat="46.416070" lon="11.211250">
                <time>2017-07-15T10:03:57Z</time>
            </trkpt>
            <trkpt lat="46.416030" lon="11.211160">
                <time>2017-07-15T10:03:58Z</time>
            </trkpt>
            <trkpt lat="46.416040" lon="11.211080">
                <time>2017-07-15T10:03:59Z</time>
            </trkpt>
            <trkpt lat="46.416110" lon="11.211060">
                <time>2017-07-15T10:04:00Z</time>
            </trkpt>
            <trkpt lat="46.416160" lon="11.211070">
                <time>2017-07-15T10:04:01Z</time>
            </trkpt>
            <trkpt lat="46.416210" lon="11.211130">
                <time>2017-07-15T10:04:02Z</time>
            </trkpt>
            <trkpt lat="46.416250" lon="11.211290">
                <time>2017-07-15T10:04:03Z</time>
            </trkpt>
            <trkpt lat="46.416300" lon="11.211470">
                <time>2017-07-15T10:04:04Z</time>
            </trkpt>
            <trkpt lat="46.416370" lon="11.211660">
                <time>2017-07-15T10:04:05Z</time>
            </trkpt>
            <trkpt lat="46.416470" lon="11.211870">
                <time>2017-07-15T10:04:06Z</time>
            </trkpt>
            <trkpt lat="46.416550" lon="11.212100">
                <time>2017-07-15T10:04:07Z</time>
            </trkpt>
            <trkpt lat="46.416600" lon="11.212280">
                <time>2017-07-15T10:04:08Z</time>
            </trkpt>
            <trkpt lat="46.416650" lon="11.212430">
                <time>2017-07-15T10:04:09Z</time>
            </trkpt>
            <trkpt lat="46.416710" lon="11.212550">
                <time>2017-07-15T10:04:10Z</time>
            </trkpt>
            <trkpt lat="46.416770" lon="11.212650">
                <time>2017-07-15T10:04:11Z</time>
            </trkpt>
            <trkpt lat="46.416820" lon="11.212700">
                <time>2017-07-15T10:04:12Z</time>
            </trkpt>
            <trkpt lat="46.416870" lon="11.212650">
                <time>2017-07-15T10:04:13Z</time>
            </trkpt>
            <trkpt lat="46.416870" lon="11.212410">
                <time>2017-07-15T10:04:14Z</time>
            </trkpt>
            <trkpt lat="46.416810" lon="11.212280">
                <time>2017-07-15T10:04:15Z</time>
            </trkpt>
            <trkpt lat="46.416710" lon="11.212120">
                <time>2017-07-15T10:04:16Z</time>
            </trkpt>
            <trkpt lat="46.416610" lon="11.211940">
                <time>2017-07-15T10:04:17Z</time>
            </trkpt>
            <trkpt lat="46.416520" lon="11.211720">
                <time>2017-07-15T10:04:18Z</time>
            </trkpt>
            <trkpt lat="46.416440" lon="11.211490">
                <time>2017-07-15T10:04:19Z</time>
            </trkpt>
            <trkpt lat="46.416380" lon="11.211250">
                <time>2017-07-15T10:04:20Z</time>
            </trkpt>
            <trkpt lat="46.416330" lon="11.211050">
                <time>2017-07-15T10:04:21Z</time>
            </trkpt>
            <trkpt lat="46.416270" lon="11.210870">
                <time>2017-07-15T10:04:22Z</time>
            </trkpt>
            <trkpt lat="46.416180" lon="11.210720">
                <time>2017-07-15T10:04:23Z</time>
            </trkpt>
            <trkpt lat="46.416090" lon="11.210630">
                <time>2017-07-15T10:04:24Z</time>
            </trkpt>
            <trkpt lat="46.415980" lon="11.210590">
                <time>2017-07-15T10:04:25Z</time>
            </trkpt>
            <trkpt lat="46.415870" lon="11.210600">
                <time>2017-07-15T10:04:26Z</time>
            </trkpt>
            <trkpt lat="46.415790" lon="11.210590">
                <time>2017-07-15T10:04:27Z</time>
            </trkpt>
            <trkpt lat="46.415720" lon="11.210550">
                <time>2017-07-15T10:04:28Z</time>
            </trkpt>
            <trkpt lat="46.415740" lon="11.210460">
                <time>2017-07-15T10:04:29Z</time>
            </trkpt>
            <trkpt lat="46.415750" lon="11.210400">
                <time>2017-07-15T10:04:30Z</time>
            </trkpt>
            <trkpt lat="46.415780" lon="11.210330">
                <time>2017-07-15T10:04:31Z</time>
            </trkpt>
            <trkpt lat="46.415860" lon="11.210340">
                <time>2017-07-15T10:04:32Z</time>
            </trkpt>
            <trkpt lat="46.415960" lon="11.210440">
                <time>2017-07-15T10:04:33Z</time>
            </trkpt>
            <trkpt lat="46.416140" lon="11.210560">
                <time>2017-07-15T10:04:34Z</time>
            </trkpt>
            <trkpt lat="46.416270" lon="11.210660">
                <time>2017-07-15T10:04:35Z</time>
            </trkpt>
            <trkpt lat="46.416400" lon="11.210800">
                <time>2017-07-15T10:04:36Z</time>
            </trkpt>
            <trkpt lat="46.416520" lon="11.210930">
                <time>2017-07-15T10:04:37Z</time>
            </trkpt>
            <trkpt lat="46.416630" lon="11.211090">
                <time>2017-07-15T10:04:38Z</time>
            </trkpt>
            <trkpt lat="46.416790" lon="11.211270">
                <time>2017-07-15T10:04:39Z</time>
            </trkpt>
            <trkpt lat="46.416930" lon="11.211440">
                <time>2017-07-15T10:04:40Z</time>
            </trkpt>
            <trkpt lat="46.417070" lon="11.211630">
                <time>2017-07-15T10:04:41Z</time>
            </trkpt>
            <trkpt lat="46.417210" lon="11.211810">
                <time>2017-07-15T10:04:42Z</time>
            </trkpt>
            <trkpt lat="46.417310" lon="11.211990">
                <time>2017-07-15T10:04:43Z</time>
            </trkpt>
            <trkpt lat="46.417400" lon="11.212220">
                <time>2017-07-15T10:04:44Z</time>
            </trkpt>
            <trkpt lat="46.417450" lon="11.212440">
                <time>2017-07-15T10:04:45Z</time>
            </trkpt>
            <trkpt lat="46.417480" lon="11.212690">
                <time>2017-07-15T10:04:46Z</time>
            </trkpt>
            <trkpt lat="46.417520" lon="11.212950">
                <time>2017-07-15T10:04:47Z</time>
            </trkpt>
            <trkpt lat="46.417540" lon="11.213180">
                <time>2017-07-15T10:04:48Z</time>
            </trkpt>
            <trkpt lat="46.417560" lon="11.213410">
                <time>2017-07-15T10:04:49Z</time>
            </trkpt>
            <trkpt lat="46.417570" lon="11.213610">
                <time>2017-07-15T10:04:50Z</time>
            </trkpt>
            <trkpt lat="46.417550" lon="11.213810">
                <time>2017-07-15T10:04:51Z</time>
            </trkpt>
            <trkpt lat="46.417520" lon="11.214010">
                <time>2017-07-15T10:04:52Z</time>
            </trkpt>
            <trkpt lat="46.417510" lon="11.214190">
                <time>2017-07-15T10:04:53Z</time>
            </trkpt>
            <trkpt lat="46.417550" lon="11.214370">
                <time>2017-07-15T10:04:54Z</time>
            </trkpt>
            <trkpt lat="46.417600" lon="11.214530">
                <time>2017-07-15T10:04:55Z</time>
            </trkpt>
            <trkpt lat="46.417690" lon="11.214630">
                <time>2017-07-15T10:04:56Z</time>
            </trkpt>
            <trkpt lat="46.417800" lon="11.214650">
                <time>2017-07-15T10:04:57Z</time>
            </trkpt>
            <trkpt lat="46.417940" lon="11.214630">
                <time>2017-07-15T10:04:58Z</time>
            </trkpt>
            <trkpt lat="46.418080" lon="11.214510">
                <time>2017-07-15T10:04:59Z</time>
            </trkpt>
            <trkpt lat="46.418220" lon="11.214320">
                <time>2017-07-15T10:05:00Z</time>
            </trkpt>
            <trkpt lat="46.418330" lon="11.214180">
                <time>2017-07-15T10:05:01Z</time>
            </trkpt>
            <trkpt lat="46.418410" lon="11.214040">
                <time>2017-07-15T10:05:02Z</time>
            </trkpt>
            <trkpt lat="46.418480" lon="11.213880">
                <time>2017-07-15T10:05:03Z</time>
            </trkpt>
            <trkpt lat="46.418500" lon="11.213720">
                <time>2017-07-15T10:05:04Z</time>
            </trkpt>
            <trkpt lat="46.418420" lon="11.213560">
                <time>2017-07-15T10:05:05Z</time>
            </trkpt>
            <trkpt lat="46.418280" lon="11.213420">
                <time>2017-07-15T10:05:06Z</time>
            </trkpt>
            <trkpt lat="46.418170" lon="11.213280">
                <time>2017-07-15T10:05:07Z</time>
            </trkpt>
            <trkpt lat="46.418070" lon="11.213140">
                <time>2017-07-15T10:05:08Z</time>
            </trkpt>
            <trkpt lat="46.417990" lon="11.213040">
                <time>2017-07-15T10:05:09Z</time>
            </trkpt>
            <trkpt lat="46.417940" lon="11.212930">
                <time>2017-07-15T10:05:10Z</time>
            </trkpt>
            <trkpt lat="46.417920" lon="11.212820">
                <time>2017-07-15T10:05:11Z</time>
            </trkpt>
            <trkpt lat="46.417930" lon="11.212760">
                <time>2017-07-15T10:05:12Z</time>
            </trkpt>
            <trkpt lat="46.417980" lon="11.212710">
                <time>2017-07-15T10:05:13Z</time>
            </trkpt>
            <trkpt lat="46.418020" lon="11.212730">
                <time>2017-07-15T10:05:14Z</time>
            </trkpt>
            <trkpt lat="46.418060" lon="11.212780">
                <time>2017-07-15T10:05:15Z</time>
            </trkpt>
            <trkpt lat="46.418100" lon="11.212900">
                <time>2017-07-15T10:05:16Z</time>
            </trkpt>
            <trkpt lat="46.418150" lon="11.213020">
                <time>2017-07-15T10:05:17Z</time>
            </trkpt>
            <trkpt lat="46.418220" lon="11.213160">
                <time>2017-07-15T10:05:18Z</time>
            </trkpt>
            <trkpt lat="46.418330" lon="11.213290">
                <time>2017-07-15T10:05:19Z</time>
            </trkpt>
            <trkpt lat="46.418450" lon="11.213370">
                <time>2017-07-15T10:05:20Z</time>
            </trkpt>
            <trkpt lat="46.418580" lon="11.213420">
                <time>2017-07-15T10:05:21Z</time>
            </trkpt>
            <trkpt lat="46.418710" lon="11.213450">
                <time>2017-07-15T10:05:22Z</time>
            </trkpt>
            <trkpt lat="46.418810" lon="11.213470">
                <time>2017-07-15T10:05:23Z</time>
            </trkpt>
            <trkpt lat="46.418920" lon="11.213480">
                <time>2017-07-15T10:05:24Z</time>
            </trkpt>
            <trkpt lat="46.419000" lon="11.213430">
                <time>2017-07-15T10:05:25Z</time>
            </trkpt>
            <trkpt lat="46.419060" lon="11.213330">
                <time>2017-07-15T10:05:26Z</time>
            </trkpt>
            <trkpt lat="46.419030" lon="11.213240">
                <time>2017-07-15T10:05:27Z</time>
            </trkpt>
            <trkpt lat="46.418970" lon="11.213170">
                <time>2017-07-15T10:05:28Z</time>
            </trkpt>
            <trkpt lat="46.418810" lon="11.213190">
                <time>2017-07-15T10:05:29Z</time>
            </trkpt>
            <trkpt lat="46.418690" lon="11.213230">
                <time>2017-07-15T10:05:30Z</time>
            </trkpt>
            <trkpt lat="46.418590" lon="11.213230">
                <time>2017-07-15T10:05:31Z</time>
            </trkpt>
            <trkpt lat="46.418470" lon="11.213210">
                <time>2017-07-15T10:05:32Z</time>
            </trkpt>
            <trkpt lat="46.418370" lon="11.213120">
                <time>2017-07-15T10:05:33Z</time>
            </trkpt>
            <trkpt lat="46.418270" lon="11.212950">
                <time>2017-07-15T10:05:34Z</time>
            </trkpt>
            <trkpt lat="46.418220" lon="11.212690">
                <time>2017-07-15T10:05:35Z</time>
            </trkpt>
            <trkpt lat="46.418170" lon="11.212470">
                <time>2017-07-15T10:05:36Z</time>
            </trkpt>
            <trkpt lat="46.418130" lon="11.212230">
                <time>2017-07-15T10:05:37Z</time>
            </trkpt>
            <trkpt lat="46.418100" lon="11.211980">
                <time>2017-07-15T10:05:38Z</time>
            </trkpt>
            <trkpt lat="46.418100" lon="11.211700">
                <time>2017-07-15T10:05:39Z</time>
            </trkpt>
            <trkpt lat="46.418070" lon="11.211410">
                <time>2017-07-15T10:05:40Z</time>
            </trkpt>
            <trkpt lat="46.418040" lon="11.211190">
                <time>2017-07-15T10:05:41Z</time>
            </trkpt>
            <trkpt lat="46.418000" lon="11.210980">
                <time>2017-07-15T10:05:42Z</time>
            </trkpt>
            <trkpt lat="46.417960" lon="11.210760">
                <time>2017-07-15T10:05:43Z</time>
            </trkpt>
            <trkpt lat="46.417890" lon="11.210590">
                <time>2017-07-15T10:05:44Z</time>
            </trkpt>
            <trkpt lat="46.417800" lon="11.210450">
                <time>2017-07-15T10:05:45Z</time>
            </trkpt>
            <trkpt lat="46.417710" lon="11.210290">
                <time>2017-07-15T10:05:46Z</time>
            </trkpt>
            <trkpt lat="46.417650" lon="11.210150">
                <time>2017-07-15T10:05:47Z</time>
            </trkpt>
            <trkpt lat="46.417580" lon="11.210000">
                <time>2017-07-15T10:05:48Z</time>
            </trkpt>
            <trkpt lat="46.417490" lon="11.209880">
                <time>2017-07-15T10:05:49Z</time>
            </trkpt>
            <trkpt lat="46.417390" lon="11.209750">
                <time>2017-07-15T10:05:50Z</time>
            </trkpt>
            <trkpt lat="46.417300" lon="11.209610">
                <time>2017-07-15T10:05:51Z</time>
            </trkpt>
            <trkpt lat="46.417210" lon="11.209490">
                <time>2017-07-15T10:05:52Z</time>
            </trkpt>
            <trkpt lat="46.417120" lon="11.209340">
                <time>2017-07-15T10:05:53Z</time>
            </trkpt>
            <trkpt lat="46.417050" lon="11.209200">
                <time>2017-07-15T10:05:54Z</time>
            </trkpt>
            <trkpt lat="46.416980" lon="11.209060">
                <time>2017-07-15T10:05:55Z</time>
            </trkpt>
            <trkpt lat="46.416930" lon="11.208900">
                <time>2017-07-15T10:05:56Z</time>
            </trkpt>
            <trkpt lat="46.416880" lon="11.208770">
                <time>2017-07-15T10:05:57Z</time>
            </trkpt>
            <trkpt lat="46.416840" lon="11.208640">
                <time>2017-07-15T10:05:58Z</time>
            </trkpt>
            <trkpt lat="46.416820" lon="11.208480">
                <time>2017-07-15T10:05:59Z</time>
            </trkpt>
            <trkpt lat="46.416790" lon="11.208340">
                <time>2017-07-15T10:06:00Z</time>
            </trkpt>
            <trkpt lat="46.416770" lon="11.208200">
                <time>2017-07-15T10:06:01Z</time>
            </trkpt>
            <trkpt lat="46.416760" lon="11.208050">
                <time>2017-07-15T10:06:02Z</time>
            </trkpt>
            <trkpt lat="46.416750" lon="11.207920">
                <time>2017-07-15T10:06:03Z</time>
            </trkpt>
            <trkpt lat="46.416740" lon="11.207790">
                <time>2017-07-15T10:06:04Z</time>
            </trkpt>
            <trkpt lat="46.416740" lon="11.207680">
                <time>2017-07-15T10:06:05Z</time>
            </trkpt>
            <trkpt lat="46.416750" lon="11.207590">
                <time>2017-07-15T10:06:06Z</time>
            </trkpt>
            <trkpt lat="46.416770" lon="11.207500">
                <time>2017-07-15T10:06:07Z</time>
            </trkpt>
            <trkpt lat="46.416780" lon="11.207430">
                <time>2017-07-15T10:06:08Z</time>
            </trkpt>
            <trkpt lat="46.416790" lon="11.207360">
                <time>2017-07-15T10:06:09Z</time>
            </trkpt>
            <trkpt lat="46.416810" lon="11.207310">
                <time>2017-07-15T10:06:10Z</time>
            </trkpt>
            <trkpt lat="46.416850" lon="11.207260">
                <time>2017-07-15T10:06:11Z</time>
            </trkpt>
            <trkpt lat="46.416860" lon="11.207220">
                <time>2017-07-15T10:06:12Z</time>
            </trkpt>
            <trkpt lat="46.416880" lon="11.207170">
                <time>2017-07-15T10:06:13Z</time>
            </trkpt>
            <trkpt lat="46.416890" lon="11.207130">
                <time>2017-07-15T10:06:14Z</time>
            </trkpt>
            <trkpt lat="46.416890" lon="11.207100">
                <time>2017-07-15T10:06:15Z</time>
            </trkpt>
            <trkpt lat="46.416870" lon="11.207080">
                <time>2017-07-15T10:06:16Z</time>
            </trkpt>
            <trkpt lat="46.416860" lon="11.207080">
                <time>2017-07-15T10:06:17Z</time>
            </trkpt>
            <trkpt lat="46.416840" lon="11.207080">
                <time>2017-07-15T10:06:18Z</time>
            </trkpt>
            <trkpt lat="46.416840" lon="11.207070">
                <time>2017-07-15T10:06:19Z</time>
            </trkpt>
            <trkpt lat="46.416840" lon="11.207070">
                <time>2017-07-15T10:06:20Z</time>
            </trkpt>
            <trkpt lat="46.416840" lon="11.207060">
                <time>2017-07-15T10:06:21Z</time>
            </trkpt>
            <trkpt lat="46.416840" lon="11.207060">
                <time>2017-07-15T10:06:22Z</time>
            </trkpt>
            <trkpt lat="46.416840" lon="11.207060">
                <time>2017-07-15T10:06:23Z</time>
            </trkpt>
            <trkpt lat="46.416840" lon="11.207060">
                <time>2017-07-15T10:06:24Z</time>
            </trkpt>
            <trkpt lat="46.416840" lon="11.207060">
                <time>2017-07-15T10:06:25Z</time>
            </trkpt>
            <trkpt lat="46.416840" lon="11.207060">
                <time>2017-07-15T10:06:26Z</time>
            </trkpt>
            <trkpt lat="46.416840" lon="11.207060">
                <time>2017-07-15T10:06:27Z</time>
            </trkpt>
            <trkpt lat="46.416840" lon="11.207060">
                <time>2017-07-15T10:06:28Z</time>
            </trkpt>
            <trkpt lat="46.416840" lon="11.207060">
                <time>2017-07-15T10:06:29Z</time>
            </trkpt>
            <trkpt lat="46.416840" lon="11.207060">
                <time>2017-07-15T10:06:30Z</time>
            </trkpt>
            <trkpt lat="46.416840" lon="11.207060">
                <time>2017-07-15T10:06:31Z</time>
            </trkpt>
            <trkpt lat="46.416840" lon="11.207060">
                <time>2017-07-15T10:06:32Z</time>
            </trkpt>
            <trkpt lat="46.416840" lon="11.207060">
                <time>2017-07-15T10:06:33Z</time>
            </trkpt>
            <trkpt lat="46.416840" lon="11.207060">
                <time>2017-07-15T10:06:34Z</time>
            </trkpt>
            <trkpt lat="46.416840" lon="11.207060">
                <time>2017-07-15T10:06:35Z</time>
            </trkpt>
            <trkpt lat="46.416840" lon="11.207060">
                <time>2017-07-15T10:06:36Z</time>
            </trkpt>
            <trkpt lat="46.416840" lon="11.207060">
                <time>2017-07-15T10:06:37Z</time>
            </trkpt>
            <trkpt lat="46.416840" lon="11.207060">
                <time>2017-07-15T10:06:38Z</time>
            </trkpt>
            <trkpt lat="46.416840" lon="11.207060">
                <time>2017-07-15T10:06:39Z</time>
            </trkpt>
            <trkpt lat="46.416840" lon="11.207060">
                <time>2017-07-15T10:06:40Z</time>
            </trkpt>
            <trkpt lat="46.416840" lon="11.207060">
                <time>2017-07-15T10:06:41Z</time>
            </trkpt>
            <trkpt lat="46.416840" lon="11.207060">
                <time>2017-07-15T10:06:42Z</time>
            </trkpt>
            <trkpt lat="46.416840" lon="11.207060">
                <time>2017-07-15T10:06:43Z</time>
            </trkpt>
            <trkpt lat="46.416840" lon="11.207060">
                <time>2017-07-15T10:06:44Z</time>
            </trkpt>
            <trkpt lat="46.416830" lon="11.207060">
                <time>2017-07-15T10:07:57Z</time>
            </trkpt>
            <trkpt lat="46.416830" lon="11.207060">
                <time>2017-07-15T10:07:58Z</time>
            </trkpt>
            <trkpt lat="46.416830" lon="11.207060">
                <time>2017-07-15T10:07:59Z</time>
            </trkpt>
            <trkpt lat="46.416830" lon="11.207060">
                <time>2017-07-15T10:08:00Z</time>
            </trkpt>
            <trkpt lat="46.416830" lon="11.207060">
                <time>2017-07-15T10:08:01Z</time>
            </trkpt>
            <trkpt lat="46.416830" lon="11.207060">
                <time>2017-07-15T10:08:02Z</time>
            </trkpt>
            <trkpt lat="46.416830" lon="11.207060">
                <time>2017-07-15T10:08:03Z</time>
            </trkpt>
            <trkpt lat="46.416830" lon="11.207060">
                <time>2017-07-15T10:08:04Z</time>
            </trkpt>
            <trkpt lat="46.416830" lon="11.207060">
                <time>2017-07-15T10:08:05Z</time>
            </trkpt>
            <trkpt lat="46.416830" lon="11.207060">
                <time>2017-07-15T10:08:06Z</time>
            </trkpt>
            <trkpt lat="46.416830" lon="11.207060">
                <time>2017-07-15T10:08:07Z</time>
            </trkpt>
            <trkpt lat="46.416830" lon="11.207060">
                <time>2017-07-15T10:08:08Z</time>
            </trkpt>
            <trkpt lat="46.416830" lon="11.207060">
                <time>2017-07-15T10:08:09Z</time>
            </trkpt>
            <trkpt lat="46.416830" lon="11.207060">
                <time>2017-07-15T10:08:10Z</time>
            </trkpt>
            <trkpt lat="46.416830" lon="11.207060">
                <time>2017-07-15T10:08:11Z</time>
            </trkpt>
            <trkpt lat="46.416830" lon="11.207060">
                <time>2017-07-15T10:08:12Z</time>
            </trkpt>
            <trkpt lat="46.416830" lon="11.207060">
                <time>2017-07-15T10:08:13Z</time>
            </trkpt>
            <trkpt lat="46.416830" lon="11.207060">
                <time>2017-07-15T10:08:14Z</time>
            </trkpt>
            <trkpt lat="46.416830" lon="11.207060">
                <time>2017-07-15T10:08:15Z</time>
            </trkpt>
            <trkpt lat="46.416830" lon="11.207060">
                <time>2017-07-15T10:08:16Z</time>
            </trkpt>
            <trkpt lat="46.416830" lon="11.207060">
                <time>2017-07-15T10:08:17Z</time>
            </trkpt>
            <trkpt lat="46.416830" lon="11.207060">
                <time>2017-07-15T10:08:18Z</time>
            </trkpt>
            <trkpt lat="46.416830" lon="11.207060">
                <time>2017-07-15T10:08:19Z</time>
            </trkpt>
            <trkpt lat="46.416830" lon="11.207060">
                <time>2017-07-15T10:08:20Z</time>
            </trkpt>
            <trkpt lat="46.416830" lon="11.207060">
                <time>2017-07-15T10:08:21Z</time>
            </trkpt>
            <trkpt lat="46.416830" lon="11.207060">
                <time>2017-07-15T10:08:22Z</time>
            </trkpt>
            <trkpt lat="46.416830" lon="11.207060">
                <time>2017-07-15T10:08:23Z</time>
            </trkpt>
            <trkpt lat="46.416830" lon="11.207060">
                <time>2017-07-15T10:08:24Z</time>
            </trkpt>
            <trkpt lat="46.416830" lon="11.207060">
                <time>2017-07-15T10:08:25Z</time>
            </trkpt>
            <trkpt lat="46.416830" lon="11.207060">
                <time>2017-07-15T10:08:26Z</time>
            </trkpt>
            <trkpt lat="46.416830" lon="11.207060">
                <time>2017-07-15T10:08:27Z</time>
            </trkpt>
            <trkpt lat="46.416830" lon="11.207060">
                <time>2017-07-15T10:08:28Z</time>
            </trkpt>
            <trkpt lat="46.416830" lon="11.207060">
                <time>2017-07-15T10:08:29Z</time>
            </trkpt>
            <trkpt lat="46.416830" lon="11.207060">
                <time>2017-07-15T10:08:30Z</time>
            </trkpt>
            <trkpt lat="46.416830" lon="11.207060">
                <time>2017-07-15T10:08:31Z</time>
            </trkpt>
            <trkpt lat="46.416830" lon="11.207060">
                <time>2017-07-15T10:08:32Z</time>
            </trkpt>
            <trkpt lat="46.416830" lon="11.207060">
                <time>2017-07-15T10:08:33Z</time>
            </trkpt>
            <trkpt lat="46.416830" lon="11.207060">
                <time>2017-07-15T10:08:34Z</time>
            </trkpt>
            <trkpt lat="46.416830" lon="11.207060">
                <time>2017-07-15T10:08:35Z</time>
            </trkpt>
            <trkpt lat="46.416830" lon="11.207060">
                <time>2017-07-15T10:08:36Z</time>
            </trkpt>
            <trkpt lat="46.416710" lon="11.207430">
                <time>2017-07-15T11:03:18Z</time>
            </trkpt>
            <trkpt lat="46.416720" lon="11.207140">
                <time>2017-07-15T11:03:20Z</time>
            </trkpt>
            <trkpt lat="46.416720" lon="11.207140">
                <time>2017-07-15T11:03:21Z</time>
            </trkpt>
            <trkpt lat="46.416720" lon="11.207140">
                <time>2017-07-15T11:03:22Z</time>
            </trkpt>
            <trkpt lat="46.416720" lon="11.207140">
                <time>2017-07-15T11:03:23Z</time>
            </trkpt>
            <trkpt lat="46.416720" lon="11.207140">
                <time>2017-07-15T11:03:24Z</time>
            </trkpt>
            <trkpt lat="46.416720" lon="11.207140">
                <time>2017-07-15T11:03:25Z</time>
            </trkpt>
            <trkpt lat="46.416720" lon="11.207140">
                <time>2017-07-15T11:03:26Z</time>
            </trkpt>
            <trkpt lat="46.416720" lon="11.207140">
                <time>2017-07-15T11:03:27Z</time>
            </trkpt>
            <trkpt lat="46.416720" lon="11.207140">
                <time>2017-07-15T11:03:28Z</time>
            </trkpt>
            <trkpt lat="46.416720" lon="11.207140">
                <time>2017-07-15T11:03:29Z</time>
            </trkpt>
            <trkpt lat="46.416720" lon="11.207140">
                <time>2017-07-15T11:03:30Z</time>
            </trkpt>
            <trkpt lat="46.416720" lon="11.207140">
                <time>2017-07-15T11:03:31Z</time>
            </trkpt>
            <trkpt lat="46.416720" lon="11.207140">
                <time>2017-07-15T11:03:32Z</time>
            </trkpt>
            <trkpt lat="46.416720" lon="11.207140">
                <time>2017-07-15T11:03:33Z</time>
            </trkpt>
            <trkpt lat="46.416720" lon="11.207140">
                <time>2017-07-15T11:03:34Z</time>
            </trkpt>
            <trkpt lat="46.416720" lon="11.207140">
                <time>2017-07-15T11:03:35Z</time>
            </trkpt>
            <trkpt lat="46.416720" lon="11.207140">
                <time>2017-07-15T11:03:36Z</time>
            </trkpt>
            <trkpt lat="46.416720" lon="11.207140">
                <time>2017-07-15T11:03:37Z</time>
            </trkpt>
            <trkpt lat="46.416720" lon="11.207140">
                <time>2017-07-15T11:03:38Z</time>
            </trkpt>
            <trkpt lat="46.416720" lon="11.207140">
                <time>2017-07-15T11:03:39Z</time>
            </trkpt>
            <trkpt lat="46.416720" lon="11.207140">
                <time>2017-07-15T11:03:40Z</time>
            </trkpt>
            <trkpt lat="46.416720" lon="11.207140">
                <time>2017-07-15T11:03:41Z</time>
            </trkpt>
            <trkpt lat="46.416720" lon="11.207140">
                <time>2017-07-15T11:03:42Z</time>
            </trkpt>
            <trkpt lat="46.416720" lon="11.207140">
                <time>2017-07-15T11:03:43Z</time>
            </trkpt>
            <trkpt lat="46.416720" lon="11.207140">
                <time>2017-07-15T11:03:44Z</time>
            </trkpt>
            <trkpt lat="46.416720" lon="11.207140">
                <time>2017-07-15T11:03:45Z</time>
            </trkpt>
            <trkpt lat="46.416720" lon="11.207140">
                <time>2017-07-15T11:03:46Z</time>
            </trkpt>
            <trkpt lat="46.416790" lon="11.207110">
                <time>2017-07-15T11:03:47Z</time>
            </trkpt>
            <trkpt lat="46.416790" lon="11.207110">
                <time>2017-07-15T11:03:48Z</time>
            </trkpt>
            <trkpt lat="46.416790" lon="11.207110">
                <time>2017-07-15T11:03:49Z</time>
            </trkpt>
            <trkpt lat="46.416790" lon="11.207110">
                <time>2017-07-15T11:03:50Z</time>
            </trkpt>
            <trkpt lat="46.416790" lon="11.207110">
                <time>2017-07-15T11:03:51Z</time>
            </trkpt>
            <trkpt lat="46.416790" lon="11.207110">
                <time>2017-07-15T11:03:52Z</time>
            </trkpt>
            <trkpt lat="46.416790" lon="11.207110">
                <time>2017-07-15T11:03:53Z</time>
            </trkpt>
            <trkpt lat="46.416790" lon="11.207110">
                <time>2017-07-15T11:03:54Z</time>
            </trkpt>
            <trkpt lat="46.416790" lon="11.207110">
                <time>2017-07-15T11:03:55Z</time>
            </trkpt>
            <trkpt lat="46.416790" lon="11.207110">
                <time>2017-07-15T11:03:56Z</time>
            </trkpt>
            <trkpt lat="46.416790" lon="11.207110">
                <time>2017-07-15T11:03:57Z</time>
            </trkpt>
            <trkpt lat="46.416790" lon="11.207110">
                <time>2017-07-15T11:03:58Z</time>
            </trkpt>
            <trkpt lat="46.416790" lon="11.207110">
                <time>2017-07-15T11:03:59Z</time>
            </trkpt>
            <trkpt lat="46.416790" lon="11.207110">
                <time>2017-07-15T11:04:00Z</time>
            </trkpt>
            <trkpt lat="46.416790" lon="11.207110">
                <time>2017-07-15T11:04:01Z</time>
            </trkpt>
            <trkpt lat="46.416790" lon="11.207110">
                <time>2017-07-15T11:04:02Z</time>
            </trkpt>
            <trkpt lat="46.416790" lon="11.207110">
                <time>2017-07-15T11:04:03Z</time>
            </trkpt>
            <trkpt lat="46.416800" lon="11.207110">
                <time>2017-07-15T11:04:04Z</time>
            </trkpt>
            <trkpt lat="46.416810" lon="11.207120">
                <time>2017-07-15T11:04:05Z</time>
            </trkpt>
            <trkpt lat="46.416810" lon="11.207120">
                <time>2017-07-15T11:04:06Z</time>
            </trkpt>
            <trkpt lat="46.416810" lon="11.207110">
                <time>2017-07-15T11:04:07Z</time>
            </trkpt>
            <trkpt lat="46.416810" lon="11.207120">
                <time>2017-07-15T11:04:08Z</time>
            </trkpt>
            <trkpt lat="46.416810" lon="11.207110">
                <time>2017-07-15T11:04:09Z</time>
            </trkpt>
            <trkpt lat="46.416810" lon="11.207110">
                <time>2017-07-15T11:04:10Z</time>
            </trkpt>
            <trkpt lat="46.416810" lon="11.207110">
                <time>2017-07-15T11:04:11Z</time>
            </trkpt>
            <trkpt lat="46.416810" lon="11.207110">
                <time>2017-07-15T11:04:12Z</time>
            </trkpt>
            <trkpt lat="46.416810" lon="11.207110">
                <time>2017-07-15T11:04:13Z</time>
            </trkpt>
            <trkpt lat="46.416810" lon="11.207110">
                <time>2017-07-15T11:04:14Z</time>
            </trkpt>
            <trkpt lat="46.416810" lon="11.207110">
                <time>2017-07-15T11:04:15Z</time>
            </trkpt>
            <trkpt lat="46.416810" lon="11.207110">
                <time>2017-07-15T11:04:16Z</time>
            </trkpt>
            <trkpt lat="46.416810" lon="11.207110">
                <time>2017-07-15T11:04:17Z</time>
            </trkpt>
            <trkpt lat="46.416810" lon="11.207110">
                <time>2017-07-15T11:04:18Z</time>
            </trkpt>
            <trkpt lat="46.416810" lon="11.207110">
                <time>2017-07-15T11:04:19Z</time>
            </trkpt>
            <trkpt lat="46.416810" lon="11.207110">
                <time>2017-07-15T11:04:20Z</time>
            </trkpt>
            <trkpt lat="46.416810" lon="11.207110">
                <time>2017-07-15T11:04:21Z</time>
            </trkpt>
            <trkpt lat="46.416800" lon="11.207120">
                <time>2017-07-15T11:04:22Z</time>
            </trkpt>
            <trkpt lat="46.416810" lon="11.207120">
                <time>2017-07-15T11:04:23Z</time>
            </trkpt>
            <trkpt lat="46.416810" lon="11.207120">
                <time>2017-07-15T11:04:24Z</time>
            </trkpt>
            <trkpt lat="46.416810" lon="11.207130">
                <time>2017-07-15T11:04:25Z</time>
            </trkpt>
            <trkpt lat="46.416810" lon="11.207130">
                <time>2017-07-15T11:04:26Z</time>
            </trkpt>
            <trkpt lat="46.416820" lon="11.207130">
                <time>2017-07-15T11:04:27Z</time>
            </trkpt>
            <trkpt lat="46.416820" lon="11.207130">
                <time>2017-07-15T11:04:28Z</time>
            </trkpt>
            <trkpt lat="46.416820" lon="11.207130">
                <time>2017-07-15T11:04:29Z</time>
            </trkpt>
            <trkpt lat="46.416820" lon="11.207130">
                <time>2017-07-15T11:04:30Z</time>
            </trkpt>
            <trkpt lat="46.416820" lon="11.207130">
                <time>2017-07-15T11:04:31Z</time>
            </trkpt>
            <trkpt lat="46.416820" lon="11.207130">
                <time>2017-07-15T11:04:32Z</time>
            </trkpt>
            <trkpt lat="46.416820" lon="11.207130">
                <time>2017-07-15T11:04:33Z</time>
            </trkpt>
            <trkpt lat="46.416820" lon="11.207130">
                <time>2017-07-15T11:04:34Z</time>
            </trkpt>
            <trkpt lat="46.416820" lon="11.207140">
                <time>2017-07-15T11:04:35Z</time>
            </trkpt>
            <trkpt lat="46.416830" lon="11.207140">
                <time>2017-07-15T11:04:36Z</time>
            </trkpt>
            <trkpt lat="46.416830" lon="11.207150">
                <time>2017-07-15T11:04:37Z</time>
            </trkpt>
            <trkpt lat="46.416840" lon="11.207160">
                <time>2017-07-15T11:04:38Z</time>
            </trkpt>
            <trkpt lat="46.416840" lon="11.207160">
                <time>2017-07-15T11:04:39Z</time>
            </trkpt>
            <trkpt lat="46.416840" lon="11.207170">
                <time>2017-07-15T11:04:40Z</time>
            </trkpt>
            <trkpt lat="46.416850" lon="11.207170">
                <time>2017-07-15T11:04:41Z</time>
            </trkpt>
            <trkpt lat="46.416850" lon="11.207170">
                <time>2017-07-15T11:04:42Z</time>
            </trkpt>
            <trkpt lat="46.416850" lon="11.207170">
                <time>2017-07-15T11:04:43Z</time>
            </trkpt>
            <trkpt lat="46.416850" lon="11.207170">
                <time>2017-07-15T11:04:44Z</time>
            </trkpt>
            <trkpt lat="46.416850" lon="11.207170">
                <time>2017-07-15T11:04:45Z</time>
            </trkpt>
            <trkpt lat="46.416850" lon="11.207170">
                <time>2017-07-15T11:04:46Z</time>
            </trkpt>
            <trkpt lat="46.416850" lon="11.207170">
                <time>2017-07-15T11:04:47Z</time>
            </trkpt>
            <trkpt lat="46.416850" lon="11.207170">
                <time>2017-07-15T11:04:48Z</time>
            </trkpt>
            <trkpt lat="46.416850" lon="11.207170">
                <time>2017-07-15T11:04:49Z</time>
            </trkpt>
            <trkpt lat="46.416850" lon="11.207170">
                <time>2017-07-15T11:04:50Z</time>
            </trkpt>
            <trkpt lat="46.416850" lon="11.207170">
                <time>2017-07-15T11:04:51Z</time>
            </trkpt>
            <trkpt lat="46.416850" lon="11.207170">
                <time>2017-07-15T11:04:52Z</time>
            </trkpt>
            <trkpt lat="46.416850" lon="11.207170">
                <time>2017-07-15T11:04:53Z</time>
            </trkpt>
            <trkpt lat="46.416850" lon="11.207170">
                <time>2017-07-15T11:04:54Z</time>
            </trkpt>
            <trkpt lat="46.416850" lon="11.207170">
                <time>2017-07-15T11:04:55Z</time>
            </trkpt>
            <trkpt lat="46.416850" lon="11.207170">
                <time>2017-07-15T11:04:56Z</time>
            </trkpt>
            <trkpt lat="46.416850" lon="11.207170">
                <time>2017-07-15T11:04:57Z</time>
            </trkpt>
            <trkpt lat="46.416850" lon="11.207170">
                <time>2017-07-15T11:04:58Z</time>
            </trkpt>
            <trkpt lat="46.416850" lon="11.207170">
                <time>2017-07-15T11:04:59Z</time>
            </trkpt>
            <trkpt lat="46.416850" lon="11.207170">
                <time>2017-07-15T11:05:00Z</time>
            </trkpt>
            <trkpt lat="46.416850" lon="11.207170">
                <time>2017-07-15T11:05:01Z</time>
            </trkpt>
            <trkpt lat="46.416850" lon="11.207170">
                <time>2017-07-15T11:05:02Z</time>
            </trkpt>
            <trkpt lat="46.416850" lon="11.207170">
                <time>2017-07-15T11:05:03Z</time>
            </trkpt>
            <trkpt lat="46.416850" lon="11.207170">
                <time>2017-07-15T11:05:04Z</time>
            </trkpt>
            <trkpt lat="46.416850" lon="11.207170">
                <time>2017-07-15T11:05:05Z</time>
            </trkpt>
            <trkpt lat="46.416850" lon="11.207170">
                <time>2017-07-15T11:05:06Z</time>
            </trkpt>
            <trkpt lat="46.416850" lon="11.207170">
                <time>2017-07-15T11:05:07Z</time>
            </trkpt>
            <trkpt lat="46.416850" lon="11.207170">
                <time>2017-07-15T11:05:08Z</time>
            </trkpt>
            <trkpt lat="46.416850" lon="11.207170">
                <time>2017-07-15T11:05:09Z</time>
            </trkpt>
            <trkpt lat="46.416850" lon="11.207170">
                <time>2017-07-15T11:05:10Z</time>
            </trkpt>
            <trkpt lat="46.416850" lon="11.207170">
                <time>2017-07-15T11:05:11Z</time>
            </trkpt>
            <trkpt lat="46.416850" lon="11.207170">
                <time>2017-07-15T11:05:12Z</time>
            </trkpt>
            <trkpt lat="46.416850" lon="11.207170">
                <time>2017-07-15T11:05:13Z</time>
            </trkpt>
            <trkpt lat="46.416850" lon="11.207170">
                <time>2017-07-15T11:05:14Z</time>
            </trkpt>
            <trkpt lat="46.416850" lon="11.207170">
                <time>2017-07-15T11:05:15Z</time>
            </trkpt>
            <trkpt lat="46.416850" lon="11.207170">
                <time>2017-07-15T11:05:16Z</time>
            </trkpt>
            <trkpt lat="46.416850" lon="11.207170">
                <time>2017-07-15T11:05:17Z</time>
            </trkpt>
            <trkpt lat="46.416850" lon="11.207170">
                <time>2017-07-15T11:05:18Z</time>
            </trkpt>
            <trkpt lat="46.416850" lon="11.207170">
                <time>2017-07-15T11:05:19Z</time>
            </trkpt>
            <trkpt lat="46.416850" lon="11.207170">
                <time>2017-07-15T11:05:20Z</time>
            </trkpt>
            <trkpt lat="46.416850" lon="11.207170">
                <time>2017-07-15T11:05:21Z</time>
            </trkpt>
            <trkpt lat="46.416850" lon="11.207170">
                <time>2017-07-15T11:05:22Z</time>
            </trkpt>
            <trkpt lat="46.416850" lon="11.207170">
                <time>2017-07-15T11:05:23Z</time>
            </trkpt>
            <trkpt lat="46.416850" lon="11.207160">
                <time>2017-07-15T11:05:24Z</time>
            </trkpt>
            <trkpt lat="46.416850" lon="11.207160">
                <time>2017-07-15T11:05:25Z</time>
            </trkpt>
            <trkpt lat="46.416850" lon="11.207160">
                <time>2017-07-15T11:05:26Z</time>
            </trkpt>
            <trkpt lat="46.416850" lon="11.207150">
                <time>2017-07-15T11:05:27Z</time>
            </trkpt>
            <trkpt lat="46.416850" lon="11.207150">
                <time>2017-07-15T11:05:28Z</time>
            </trkpt>
            <trkpt lat="46.416850" lon="11.207150">
                <time>2017-07-15T11:05:29Z</time>
            </trkpt>
            <trkpt lat="46.416850" lon="11.207150">
                <time>2017-07-15T11:05:30Z</time>
            </trkpt>
            <trkpt lat="46.416850" lon="11.207150">
                <time>2017-07-15T11:05:31Z</time>
            </trkpt>
            <trkpt lat="46.416850" lon="11.207150">
                <time>2017-07-15T11:05:32Z</time>
            </trkpt>
            <trkpt lat="46.416860" lon="11.207150">
                <time>2017-07-15T11:05:33Z</time>
            </trkpt>
            <trkpt lat="46.416870" lon="11.207150">
                <time>2017-07-15T11:05:34Z</time>
            </trkpt>
            <trkpt lat="46.416900" lon="11.207150">
                <time>2017-07-15T11:05:35Z</time>
            </trkpt>
            <trkpt lat="46.416930" lon="11.207140">
                <time>2017-07-15T11:05:36Z</time>
            </trkpt>
            <trkpt lat="46.416980" lon="11.207130">
                <time>2017-07-15T11:05:37Z</time>
            </trkpt>
            <trkpt lat="46.417020" lon="11.207110">
                <time>2017-07-15T11:05:38Z</time>
            </trkpt>
            <trkpt lat="46.417070" lon="11.207080">
                <time>2017-07-15T11:05:39Z</time>
            </trkpt>
            <trkpt lat="46.417110" lon="11.207050">
                <time>2017-07-15T11:05:40Z</time>
            </trkpt>
            <trkpt lat="46.417140" lon="11.207020">
                <time>2017-07-15T11:05:41Z</time>
            </trkpt>
            <trkpt lat="46.417180" lon="11.206990">
                <time>2017-07-15T11:05:42Z</time>
            </trkpt>
            <trkpt lat="46.417210" lon="11.206960">
                <time>2017-07-15T11:05:43Z</time>
            </trkpt>
            <trkpt lat="46.417240" lon="11.206930">
                <time>2017-07-15T11:05:44Z</time>
            </trkpt>
            <trkpt lat="46.417270" lon="11.206900">
                <time>2017-07-15T11:05:45Z</time>
            </trkpt>
            <trkpt lat="46.417300" lon="11.206870">
                <time>2017-07-15T11:05:46Z</time>
            </trkpt>
            <trkpt lat="46.417330" lon="11.206840">
                <time>2017-07-15T11:05:47Z</time>
            </trkpt>
            <trkpt lat="46.417370" lon="11.206800">
                <time>2017-07-15T11:05:48Z</time>
            </trkpt>
            <trkpt lat="46.417410" lon="11.206740">
                <time>2017-07-15T11:05:49Z</time>
            </trkpt>
            <trkpt lat="46.417450" lon="11.206690">
                <time>2017-07-15T11:05:50Z</time>
            </trkpt>
            <trkpt lat="46.417480" lon="11.206630">
                <time>2017-07-15T11:05:51Z</time>
            </trkpt>
            <trkpt lat="46.417510" lon="11.206570">
                <time>2017-07-15T11:05:52Z</time>
            </trkpt>
            <trkpt lat="46.417540" lon="11.206520">
                <time>2017-07-15T11:05:53Z</time>
            </trkpt>
            <trkpt lat="46.417580" lon="11.206460">
                <time>2017-07-15T11:05:54Z</time>
            </trkpt>
            <trkpt lat="46.417610" lon="11.206410">
                <time>2017-07-15T11:05:55Z</time>
            </trkpt>
            <trkpt lat="46.417630" lon="11.206350">
                <time>2017-07-15T11:05:56Z</time>
            </trkpt>
            <trkpt lat="46.417660" lon="11.206290">
                <time>2017-07-15T11:05:57Z</time>
            </trkpt>
            <trkpt lat="46.417690" lon="11.206230">
                <time>2017-07-15T11:05:58Z</time>
            </trkpt>
            <trkpt lat="46.417730" lon="11.206180">
                <time>2017-07-15T11:05:59Z</time>
            </trkpt>
            <trkpt lat="46.417750" lon="11.206130">
                <time>2017-07-15T11:06:00Z</time>
            </trkpt>
            <trkpt lat="46.417790" lon="11.206070">
                <time>2017-07-15T11:06:01Z</time>
            </trkpt>
            <trkpt lat="46.417830" lon="11.205990">
                <time>2017-07-15T11:06:02Z</time>
            </trkpt>
            <trkpt lat="46.417860" lon="11.205920">
                <time>2017-07-15T11:06:03Z</time>
            </trkpt>
            <trkpt lat="46.417900" lon="11.205830">
                <time>2017-07-15T11:06:04Z</time>
            </trkpt>
            <trkpt lat="46.417950" lon="11.205730">
                <time>2017-07-15T11:06:05Z</time>
            </trkpt>
            <trkpt lat="46.417990" lon="11.205610">
                <time>2017-07-15T11:06:06Z</time>
            </trkpt>
            <trkpt lat="46.418050" lon="11.205490">
                <time>2017-07-15T11:06:07Z</time>
            </trkpt>
            <trkpt lat="46.418090" lon="11.205350">
                <time>2017-07-15T11:06:08Z</time>
            </trkpt>
            <trkpt lat="46.418130" lon="11.205200">
                <time>2017-07-15T11:06:09Z</time>
            </trkpt>
            <trkpt lat="46.418180" lon="11.205050">
                <time>2017-07-15T11:06:10Z</time>
            </trkpt>
            <trkpt lat="46.418230" lon="11.204900">
                <time>2017-07-15T11:06:11Z</time>
            </trkpt>
            <trkpt lat="46.418290" lon="11.204740">
                <time>2017-07-15T11:06:12Z</time>
            </trkpt>
            <trkpt lat="46.418360" lon="11.204610">
                <time>2017-07-15T11:06:13Z</time>
            </trkpt>
            <trkpt lat="46.418430" lon="11.204460">
                <time>2017-07-15T11:06:14Z</time>
            </trkpt>
            <trkpt lat="46.418510" lon="11.204310">
                <time>2017-07-15T11:06:15Z</time>
            </trkpt>
            <trkpt lat="46.418570" lon="11.204180">
                <time>2017-07-15T11:06:16Z</time>
            </trkpt>
            <trkpt lat="46.418630" lon="11.204050">
                <time>2017-07-15T11:06:17Z</time>
            </trkpt>
            <trkpt lat="46.418690" lon="11.203910">
                <time>2017-07-15T11:06:18Z</time>
            </trkpt>
            <trkpt lat="46.418730" lon="11.203780">
                <time>2017-07-15T11:06:19Z</time>
            </trkpt>
            <trkpt lat="46.418750" lon="11.203620">
                <time>2017-07-15T11:06:20Z</time>
            </trkpt>
            <trkpt lat="46.418750" lon="11.203460">
                <time>2017-07-15T11:06:21Z</time>
            </trkpt>
            <trkpt lat="46.418740" lon="11.203280">
                <time>2017-07-15T11:06:22Z</time>
            </trkpt>
            <trkpt lat="46.418740" lon="11.203090">
                <time>2017-07-15T11:06:23Z</time>
            </trkpt>
            <trkpt lat="46.418760" lon="11.202920">
                <time>2017-07-15T11:06:24Z</time>
            </trkpt>
            <trkpt lat="46.418790" lon="11.202740">
                <time>2017-07-15T11:06:25Z</time>
            </trkpt>
            <trkpt lat="46.418830" lon="11.202570">
                <time>2017-07-15T11:06:26Z</time>
            </trkpt>
            <trkpt lat="46.418870" lon="11.202400">
                <time>2017-07-15T11:06:27Z</time>
            </trkpt>
            <trkpt lat="46.418910" lon="11.202210">
                <time>2017-07-15T11:06:28Z</time>
            </trkpt>
            <trkpt lat="46.418940" lon="11.202020">
                <time>2017-07-15T11:06:29Z</time>
            </trkpt>
            <trkpt lat="46.418950" lon="11.201820">
                <time>2017-07-15T11:06:30Z</time>
            </trkpt>
            <trkpt lat="46.418920" lon="11.201610">
                <time>2017-07-15T11:06:31Z</time>
            </trkpt>
            <trkpt lat="46.418890" lon="11.201430">
                <time>2017-07-15T11:06:32Z</time>
            </trkpt>
            <trkpt lat="46.418840" lon="11.201240">
                <time>2017-07-15T11:06:33Z</time>
            </trkpt>
            <trkpt lat="46.418780" lon="11.201020">
                <time>2017-07-15T11:06:34Z</time>
            </trkpt>
            <trkpt lat="46.418730" lon="11.200830">
                <time>2017-07-15T11:06:35Z</time>
            </trkpt>
            <trkpt lat="46.418690" lon="11.200620">
                <time>2017-07-15T11:06:36Z</time>
            </trkpt>
            <trkpt lat="46.418650" lon="11.200440">
                <time>2017-07-15T11:06:37Z</time>
            </trkpt>
            <trkpt lat="46.418600" lon="11.200240">
                <time>2017-07-15T11:06:38Z</time>
            </trkpt>
            <trkpt lat="46.418550" lon="11.200040">
                <time>2017-07-15T11:06:39Z</time>
            </trkpt>
            <trkpt lat="46.418480" lon="11.199880">
                <time>2017-07-15T11:06:40Z</time>
            </trkpt>
            <trkpt lat="46.418420" lon="11.199710">
                <time>2017-07-15T11:06:41Z</time>
            </trkpt>
            <trkpt lat="46.418370" lon="11.199560">
                <time>2017-07-15T11:06:42Z</time>
            </trkpt>
            <trkpt lat="46.418350" lon="11.199390">
                <time>2017-07-15T11:06:43Z</time>
            </trkpt>
            <trkpt lat="46.418340" lon="11.199190">
                <time>2017-07-15T11:06:44Z</time>
            </trkpt>
            <trkpt lat="46.418340" lon="11.199020">
                <time>2017-07-15T11:06:45Z</time>
            </trkpt>
            <trkpt lat="46.418320" lon="11.198840">
                <time>2017-07-15T11:06:46Z</time>
            </trkpt>
            <trkpt lat="46.418280" lon="11.198680">
                <time>2017-07-15T11:06:47Z</time>
            </trkpt>
            <trkpt lat="46.418250" lon="11.198530">
                <time>2017-07-15T11:06:48Z</time>
            </trkpt>
            <trkpt lat="46.418240" lon="11.198390">
                <time>2017-07-15T11:06:49Z</time>
            </trkpt>
            <trkpt lat="46.418260" lon="11.198230">
                <time>2017-07-15T11:06:50Z</time>
            </trkpt>
            <trkpt lat="46.418300" lon="11.198090">
                <time>2017-07-15T11:06:51Z</time>
            </trkpt>
            <trkpt lat="46.418380" lon="11.197930">
                <time>2017-07-15T11:06:52Z</time>
            </trkpt>
            <trkpt lat="46.418450" lon="11.197800">
                <time>2017-07-15T11:06:53Z</time>
            </trkpt>
            <trkpt lat="46.418520" lon="11.197670">
                <time>2017-07-15T11:06:54Z</time>
            </trkpt>
            <trkpt lat="46.418560" lon="11.197510">
                <time>2017-07-15T11:06:55Z</time>
            </trkpt>
            <trkpt lat="46.418570" lon="11.197360">
                <time>2017-07-15T11:06:56Z</time>
            </trkpt>
            <trkpt lat="46.418550" lon="11.197190">
                <time>2017-07-15T11:06:57Z</time>
            </trkpt>
            <trkpt lat="46.418520" lon="11.197020">
                <time>2017-07-15T11:06:58Z</time>
            </trkpt>
            <trkpt lat="46.418480" lon="11.196830">
                <time>2017-07-15T11:06:59Z</time>
            </trkpt>
            <trkpt lat="46.418420" lon="11.196640">
                <time>2017-07-15T11:07:00Z</time>
            </trkpt>
            <trkpt lat="46.418360" lon="11.196470">
                <time>2017-07-15T11:07:01Z</time>
            </trkpt>
            <trkpt lat="46.418280" lon="11.196300">
                <time>2017-07-15T11:07:02Z</time>
            </trkpt>
            <trkpt lat="46.418180" lon="11.196140">
                <time>2017-07-15T11:07:03Z</time>
            </trkpt>
            <trkpt lat="46.418090" lon="11.196000">
                <time>2017-07-15T11:07:04Z</time>
            </trkpt>
            <trkpt lat="46.417980" lon="11.195860">
                <time>2017-07-15T11:07:05Z</time>
            </trkpt>
            <trkpt lat="46.417870" lon="11.195680">
                <time>2017-07-15T11:07:06Z</time>
            </trkpt>
            <trkpt lat="46.417780" lon="11.195530">
                <time>2017-07-15T11:07:07Z</time>
            </trkpt>
            <trkpt lat="46.417680" lon="11.195360">
                <time>2017-07-15T11:07:08Z</time>
            </trkpt>
            <trkpt lat="46.417600" lon="11.195210">
                <time>2017-07-15T11:07:09Z</time>
            </trkpt>
            <trkpt lat="46.417520" lon="11.195060">
                <time>2017-07-15T11:07:10Z</time>
            </trkpt>
            <trkpt lat="46.417440" lon="11.194890">
                <time>2017-07-15T11:07:11Z</time>
            </trkpt>
            <trkpt lat="46.417390" lon="11.194730">
                <time>2017-07-15T11:07:12Z</time>
            </trkpt>
            <trkpt lat="46.417340" lon="11.194560">
                <time>2017-07-15T11:07:13Z</time>
            </trkpt>
            <trkpt lat="46.417290" lon="11.194370">
                <time>2017-07-15T11:07:14Z</time>
            </trkpt>
            <trkpt lat="46.417230" lon="11.194170">
                <time>2017-07-15T11:07:15Z</time>
            </trkpt>
            <trkpt lat="46.417170" lon="11.193950">
                <time>2017-07-15T11:07:16Z</time>
            </trkpt>
            <trkpt lat="46.417100" lon="11.193760">
                <time>2017-07-15T11:07:17Z</time>
            </trkpt>
            <trkpt lat="46.417030" lon="11.193570">
                <time>2017-07-15T11:07:18Z</time>
            </trkpt>
            <trkpt lat="46.416940" lon="11.193380">
                <time>2017-07-15T11:07:19Z</time>
            </trkpt>
            <trkpt lat="46.416870" lon="11.193210">
                <time>2017-07-15T11:07:20Z</time>
            </trkpt>
            <trkpt lat="46.416800" lon="11.193040">
                <time>2017-07-15T11:07:21Z</time>
            </trkpt>
            <trkpt lat="46.416730" lon="11.192860">
                <time>2017-07-15T11:07:22Z</time>
            </trkpt>
            <trkpt lat="46.416680" lon="11.192700">
                <time>2017-07-15T11:07:23Z</time>
            </trkpt>
            <trkpt lat="46.416660" lon="11.192520">
                <time>2017-07-15T11:07:24Z</time>
            </trkpt>
            <trkpt lat="46.416650" lon="11.192360">
                <time>2017-07-15T11:07:25Z</time>
            </trkpt>
            <trkpt lat="46.416630" lon="11.192190">
                <time>2017-07-15T11:07:26Z</time>
            </trkpt>
            <trkpt lat="46.416620" lon="11.192010">
                <time>2017-07-15T11:07:27Z</time>
            </trkpt>
            <trkpt lat="46.416610" lon="11.191850">
                <time>2017-07-15T11:07:28Z</time>
            </trkpt>
            <trkpt lat="46.416620" lon="11.191690">
                <time>2017-07-15T11:07:29Z</time>
            </trkpt>
            <trkpt lat="46.416640" lon="11.191530">
                <time>2017-07-15T11:07:30Z</time>
            </trkpt>
            <trkpt lat="46.416700" lon="11.191380">
                <time>2017-07-15T11:07:31Z</time>
            </trkpt>
            <trkpt lat="46.416790" lon="11.191230">
                <time>2017-07-15T11:07:32Z</time>
            </trkpt>
            <trkpt lat="46.416860" lon="11.191100">
                <time>2017-07-15T11:07:33Z</time>
            </trkpt>
            <trkpt lat="46.416940" lon="11.190950">
                <time>2017-07-15T11:07:34Z</time>
            </trkpt>
            <trkpt lat="46.417000" lon="11.190780">
                <time>2017-07-15T11:07:35Z</time>
            </trkpt>
            <trkpt lat="46.417060" lon="11.190630">
                <time>2017-07-15T11:07:36Z</time>
            </trkpt>
            <trkpt lat="46.417130" lon="11.190470">
                <time>2017-07-15T11:07:37Z</time>
            </trkpt>
            <trkpt lat="46.417210" lon="11.190290">
                <time>2017-07-15T11:07:38Z</time>
            </trkpt>
            <trkpt lat="46.417280" lon="11.190150">
                <time>2017-07-15T11:07:39Z</time>
            </trkpt>
            <trkpt lat="46.417380" lon="11.189990">
                <time>2017-07-15T11:07:40Z</time>
            </trkpt>
            <trkpt lat="46.417480" lon="11.189870">
                <time>2017-07-15T11:07:41Z</time>
            </trkpt>
            <trkpt lat="46.417580" lon="11.189760">
                <time>2017-07-15T11:07:42Z</time>
            </trkpt>
            <trkpt lat="46.417710" lon="11.189680">
                <time>2017-07-15T11:07:43Z</time>
            </trkpt>
            <trkpt lat="46.417820" lon="11.189620">
                <time>2017-07-15T11:07:44Z</time>
            </trkpt>
            <trkpt lat="46.417960" lon="11.189580">
                <time>2017-07-15T11:07:45Z</time>
            </trkpt>
            <trkpt lat="46.418100" lon="11.189540">
                <time>2017-07-15T11:07:46Z</time>
            </trkpt>
            <trkpt lat="46.418240" lon="11.189500">
                <time>2017-07-15T11:07:47Z</time>
            </trkpt>
            <trkpt lat="46.418380" lon="11.189460">
                <time>2017-07-15T11:07:48Z</time>
            </trkpt>
            <trkpt lat="46.418490" lon="11.189400">
                <time>2017-07-15T11:07:49Z</time>
            </trkpt>
            <trkpt lat="46.418610" lon="11.189330">
                <time>2017-07-15T11:07:50Z</time>
            </trkpt>
            <trkpt lat="46.418730" lon="11.189220">
                <time>2017-07-15T11:07:51Z</time>
            </trkpt>
            <trkpt lat="46.418820" lon="11.189110">
                <time>2017-07-15T11:07:52Z</time>
            </trkpt>
            <trkpt lat="46.418900" lon="11.188970">
                <time>2017-07-15T11:07:53Z</time>
            </trkpt>
            <trkpt lat="46.418970" lon="11.188790">
                <time>2017-07-15T11:07:54Z</time>
            </trkpt>
            <trkpt lat="46.419040" lon="11.188640">
                <time>2017-07-15T11:07:55Z</time>
            </trkpt>
            <trkpt lat="46.419130" lon="11.188460">
                <time>2017-07-15T11:07:56Z</time>
            </trkpt>
            <trkpt lat="46.419200" lon="11.188320">
                <time>2017-07-15T11:07:57Z</time>
            </trkpt>
            <trkpt lat="46.419280" lon="11.188170">
                <time>2017-07-15T11:07:58Z</time>
            </trkpt>
            <trkpt lat="46.419370" lon="11.188040">
                <time>2017-07-15T11:07:59Z</time>
            </trkpt>
            <trkpt lat="46.419470" lon="11.187940">
                <time>2017-07-15T11:08:00Z</time>
            </trkpt>
            <trkpt lat="46.419590" lon="11.187890">
                <time>2017-07-15T11:08:01Z</time>
            </trkpt>
            <trkpt lat="46.419710" lon="11.187880">
                <time>2017-07-15T11:08:02Z</time>
            </trkpt>
            <trkpt lat="46.419840" lon="11.187870">
                <time>2017-07-15T11:08:03Z</time>
            </trkpt>
            <trkpt lat="46.419990" lon="11.187850">
                <time>2017-07-15T11:08:04Z</time>
            </trkpt>
            <trkpt lat="46.420130" lon="11.187840">
                <time>2017-07-15T11:08:05Z</time>
            </trkpt>
            <trkpt lat="46.420270" lon="11.187840">
                <time>2017-07-15T11:08:06Z</time>
            </trkpt>
            <trkpt lat="46.420410" lon="11.187870">
                <time>2017-07-15T11:08:07Z</time>
            </trkpt>
            <trkpt lat="46.420530" lon="11.187920">
                <time>2017-07-15T11:08:08Z</time>
            </trkpt>
            <trkpt lat="46.420640" lon="11.187990">
                <time>2017-07-15T11:08:09Z</time>
            </trkpt>
            <trkpt lat="46.420740" lon="11.188060">
                <time>2017-07-15T11:08:10Z</time>
            </trkpt>
            <trkpt lat="46.420840" lon="11.188070">
                <time>2017-07-15T11:08:11Z</time>
            </trkpt>
            <trkpt lat="46.420950" lon="11.188050">
                <time>2017-07-15T11:08:12Z</time>
            </trkpt>
            <trkpt lat="46.421040" lon="11.187990">
                <time>2017-07-15T11:08:13Z</time>
            </trkpt>
            <trkpt lat="46.421130" lon="11.187940">
                <time>2017-07-15T11:08:14Z</time>
            </trkpt>
            <trkpt lat="46.421230" lon="11.187820">
                <time>2017-07-15T11:08:15Z</time>
            </trkpt>
            <trkpt lat="46.421300" lon="11.187670">
                <time>2017-07-15T11:08:16Z</time>
            </trkpt>
            <trkpt lat="46.421340" lon="11.187500">
                <time>2017-07-15T11:08:17Z</time>
            </trkpt>
            <trkpt lat="46.421370" lon="11.187310">
                <time>2017-07-15T11:08:18Z</time>
            </trkpt>
            <trkpt lat="46.421460" lon="11.187150">
                <time>2017-07-15T11:08:19Z</time>
            </trkpt>
            <trkpt lat="46.421620" lon="11.187040">
                <time>2017-07-15T11:08:20Z</time>
            </trkpt>
            <trkpt lat="46.421740" lon="11.186940">
                <time>2017-07-15T11:08:21Z</time>
            </trkpt>
            <trkpt lat="46.421870" lon="11.186830">
                <time>2017-07-15T11:08:22Z</time>
            </trkpt>
            <trkpt lat="46.422000" lon="11.186680">
                <time>2017-07-15T11:08:23Z</time>
            </trkpt>
            <trkpt lat="46.422110" lon="11.186530">
                <time>2017-07-15T11:08:24Z</time>
            </trkpt>
            <trkpt lat="46.422210" lon="11.186350">
                <time>2017-07-15T11:08:25Z</time>
            </trkpt>
            <trkpt lat="46.422300" lon="11.186130">
                <time>2017-07-15T11:08:26Z</time>
            </trkpt>
            <trkpt lat="46.422390" lon="11.185940">
                <time>2017-07-15T11:08:27Z</time>
            </trkpt>
            <trkpt lat="46.422480" lon="11.185710">
                <time>2017-07-15T11:08:28Z</time>
            </trkpt>
            <trkpt lat="46.422540" lon="11.185510">
                <time>2017-07-15T11:08:29Z</time>
            </trkpt>
            <trkpt lat="46.422630" lon="11.185310">
                <time>2017-07-15T11:08:30Z</time>
            </trkpt>
            <trkpt lat="46.422740" lon="11.185120">
                <time>2017-07-15T11:08:31Z</time>
            </trkpt>
            <trkpt lat="46.422840" lon="11.184970">
                <time>2017-07-15T11:08:32Z</time>
            </trkpt>
            <trkpt lat="46.422940" lon="11.184830">
                <time>2017-07-15T11:08:33Z</time>
            </trkpt>
            <trkpt lat="46.423060" lon="11.184710">
                <time>2017-07-15T11:08:34Z</time>
            </trkpt>
            <trkpt lat="46.423160" lon="11.184590">
                <time>2017-07-15T11:08:35Z</time>
            </trkpt>
            <trkpt lat="46.423260" lon="11.184450">
                <time>2017-07-15T11:08:36Z</time>
            </trkpt>
            <trkpt lat="46.423320" lon="11.184300">
                <time>2017-07-15T11:08:37Z</time>
            </trkpt>
            <trkpt lat="46.423360" lon="11.184110">
                <time>2017-07-15T11:08:38Z</time>
            </trkpt>
            <trkpt lat="46.423370" lon="11.183870">
                <time>2017-07-15T11:08:39Z</time>
            </trkpt>
            <trkpt lat="46.423390" lon="11.183670">
                <time>2017-07-15T11:08:40Z</time>
            </trkpt>
            <trkpt lat="46.423420" lon="11.183460">
                <time>2017-07-15T11:08:41Z</time>
            </trkpt>
            <trkpt lat="46.423460" lon="11.183230">
                <time>2017-07-15T11:08:42Z</time>
            </trkpt>
            <trkpt lat="46.423530" lon="11.183030">
                <time>2017-07-15T11:08:43Z</time>
            </trkpt>
            <trkpt lat="46.423620" lon="11.182820">
                <time>2017-07-15T11:08:44Z</time>
            </trkpt>
            <trkpt lat="46.423710" lon="11.182640">
                <time>2017-07-15T11:08:45Z</time>
            </trkpt>
            <trkpt lat="46.423800" lon="11.182450">
                <time>2017-07-15T11:08:46Z</time>
            </trkpt>
            <trkpt lat="46.423910" lon="11.182240">
                <time>2017-07-15T11:08:47Z</time>
            </trkpt>
            <trkpt lat="46.423990" lon="11.182070">
                <time>2017-07-15T11:08:48Z</time>
            </trkpt>
            <trkpt lat="46.424060" lon="11.181890">
                <time>2017-07-15T11:08:49Z</time>
            </trkpt>
            <trkpt lat="46.424100" lon="11.181690">
                <time>2017-07-15T11:08:50Z</time>
            </trkpt>
            <trkpt lat="46.424140" lon="11.181500">
                <time>2017-07-15T11:08:51Z</time>
            </trkpt>
            <trkpt lat="46.424190" lon="11.181280">
                <time>2017-07-15T11:08:52Z</time>
            </trkpt>
            <trkpt lat="46.424220" lon="11.181090">
                <time>2017-07-15T11:08:53Z</time>
            </trkpt>
            <trkpt lat="46.424260" lon="11.180910">
                <time>2017-07-15T11:08:54Z</time>
            </trkpt>
            <trkpt lat="46.424310" lon="11.180720">
                <time>2017-07-15T11:08:55Z</time>
            </trkpt>
            <trkpt lat="46.424350" lon="11.180570">
                <time>2017-07-15T11:08:56Z</time>
            </trkpt>
            <trkpt lat="46.424420" lon="11.180430">
                <time>2017-07-15T11:08:57Z</time>
            </trkpt>
            <trkpt lat="46.424530" lon="11.180290">
                <time>2017-07-15T11:08:58Z</time>
            </trkpt>
            <trkpt lat="46.424640" lon="11.180200">
                <time>2017-07-15T11:08:59Z</time>
            </trkpt>
            <trkpt lat="46.424780" lon="11.180120">
                <time>2017-07-15T11:09:00Z</time>
            </trkpt>
            <trkpt lat="46.424910" lon="11.180070">
                <time>2017-07-15T11:09:01Z</time>
            </trkpt>
            <trkpt lat="46.425030" lon="11.180020">
                <time>2017-07-15T11:09:02Z</time>
            </trkpt>
            <trkpt lat="46.425150" lon="11.179980">
                <time>2017-07-15T11:09:03Z</time>
            </trkpt>
            <trkpt lat="46.425230" lon="11.179930">
                <time>2017-07-15T11:09:04Z</time>
            </trkpt>
            <trkpt lat="46.425290" lon="11.179860">
                <time>2017-07-15T11:09:05Z</time>
            </trkpt>
            <trkpt lat="46.425340" lon="11.179770">
                <time>2017-07-15T11:09:06Z</time>
            </trkpt>
            <trkpt lat="46.425350" lon="11.179650">
                <time>2017-07-15T11:09:07Z</time>
            </trkpt>
            <trkpt lat="46.425340" lon="11.179520">
                <time>2017-07-15T11:09:08Z</time>
            </trkpt>
            <trkpt lat="46.425260" lon="11.179420">
                <time>2017-07-15T11:09:09Z</time>
            </trkpt>
            <trkpt lat="46.425170" lon="11.179310">
                <time>2017-07-15T11:09:10Z</time>
            </trkpt>
            <trkpt lat="46.425070" lon="11.179200">
                <time>2017-07-15T11:09:11Z</time>
            </trkpt>
            <trkpt lat="46.424960" lon="11.179080">
                <time>2017-07-15T11:09:12Z</time>
            </trkpt>
            <trkpt lat="46.424840" lon="11.178960">
                <time>2017-07-15T11:09:13Z</time>
            </trkpt>
            <trkpt lat="46.424710" lon="11.178820">
                <time>2017-07-15T11:09:14Z</time>
            </trkpt>
            <trkpt lat="46.424600" lon="11.178700">
                <time>2017-07-15T11:09:15Z</time>
            </trkpt>
            <trkpt lat="46.424450" lon="11.178600">
                <time>2017-07-15T11:09:16Z</time>
            </trkpt>
            <trkpt lat="46.424320" lon="11.178540">
                <time>2017-07-15T11:09:17Z</time>
            </trkpt>
            <trkpt lat="46.424150" lon="11.178520">
                <time>2017-07-15T11:09:18Z</time>
            </trkpt>
            <trkpt lat="46.423970" lon="11.178490">
                <time>2017-07-15T11:09:19Z</time>
            </trkpt>
            <trkpt lat="46.423830" lon="11.178470">
                <time>2017-07-15T11:09:20Z</time>
            </trkpt>
            <trkpt lat="46.423690" lon="11.178430">
                <time>2017-07-15T11:09:21Z</time>
            </trkpt>
            <trkpt lat="46.423560" lon="11.178360">
                <time>2017-07-15T11:09:22Z</time>
            </trkpt>
            <trkpt lat="46.423440" lon="11.178260">
                <time>2017-07-15T11:09:23Z</time>
            </trkpt>
            <trkpt lat="46.423330" lon="11.178110">
                <time>2017-07-15T11:09:24Z</time>
            </trkpt>
            <trkpt lat="46.423250" lon="11.177960">
                <time>2017-07-15T11:09:25Z</time>
            </trkpt>
            <trkpt lat="46.423200" lon="11.177790">
                <time>2017-07-15T11:09:26Z</time>
            </trkpt>
            <trkpt lat="46.423200" lon="11.177580">
                <time>2017-07-15T11:09:27Z</time>
            </trkpt>
            <trkpt lat="46.423190" lon="11.177380">
                <time>2017-07-15T11:09:28Z</time>
            </trkpt>
            <trkpt lat="46.423150" lon="11.177180">
                <time>2017-07-15T11:09:29Z</time>
            </trkpt>
            <trkpt lat="46.423090" lon="11.176980">
                <time>2017-07-15T11:09:30Z</time>
            </trkpt>
            <trkpt lat="46.423020" lon="11.176830">
                <time>2017-07-15T11:09:31Z</time>
            </trkpt>
            <trkpt lat="46.422920" lon="11.176670">
                <time>2017-07-15T11:09:32Z</time>
            </trkpt>
            <trkpt lat="46.422790" lon="11.176550">
                <time>2017-07-15T11:09:33Z</time>
            </trkpt>
            <trkpt lat="46.422640" lon="11.176420">
                <time>2017-07-15T11:09:34Z</time>
            </trkpt>
            <trkpt lat="46.422480" lon="11.176280">
                <time>2017-07-15T11:09:35Z</time>
            </trkpt>
            <trkpt lat="46.422330" lon="11.176160">
                <time>2017-07-15T11:09:36Z</time>
            </trkpt>
            <trkpt lat="46.422170" lon="11.176040">
                <time>2017-07-15T11:09:37Z</time>
            </trkpt>
            <trkpt lat="46.421980" lon="11.175930">
                <time>2017-07-15T11:09:38Z</time>
            </trkpt>
            <trkpt lat="46.421790" lon="11.175830">
                <time>2017-07-15T11:09:39Z</time>
            </trkpt>
            <trkpt lat="46.421590" lon="11.175710">
                <time>2017-07-15T11:09:40Z</time>
            </trkpt>
            <trkpt lat="46.421420" lon="11.175620">
                <time>2017-07-15T11:09:41Z</time>
            </trkpt>
            <trkpt lat="46.421230" lon="11.175520">
                <time>2017-07-15T11:09:42Z</time>
            </trkpt>
            <trkpt lat="46.421040" lon="11.175390">
                <time>2017-07-15T11:09:43Z</time>
            </trkpt>
            <trkpt lat="46.420880" lon="11.175250">
                <time>2017-07-15T11:09:44Z</time>
            </trkpt>
            <trkpt lat="46.420710" lon="11.175080">
                <time>2017-07-15T11:09:45Z</time>
            </trkpt>
            <trkpt lat="46.420540" lon="11.174900">
                <time>2017-07-15T11:09:46Z</time>
            </trkpt>
            <trkpt lat="46.420390" lon="11.174730">
                <time>2017-07-15T11:09:47Z</time>
            </trkpt>
            <trkpt lat="46.420210" lon="11.174540">
                <time>2017-07-15T11:09:48Z</time>
            </trkpt>
            <trkpt lat="46.420070" lon="11.174380">
                <time>2017-07-15T11:09:49Z</time>
            </trkpt>
            <trkpt lat="46.419910" lon="11.174220">
                <time>2017-07-15T11:09:50Z</time>
            </trkpt>
            <trkpt lat="46.419760" lon="11.174060">
                <time>2017-07-15T11:09:51Z</time>
            </trkpt>
            <trkpt lat="46.419630" lon="11.173930">
                <time>2017-07-15T11:09:52Z</time>
            </trkpt>
            <trkpt lat="46.419500" lon="11.173770">
                <time>2017-07-15T11:09:53Z</time>
            </trkpt>
            <trkpt lat="46.419400" lon="11.173590">
                <time>2017-07-15T11:09:54Z</time>
            </trkpt>
            <trkpt lat="46.419330" lon="11.173390">
                <time>2017-07-15T11:09:55Z</time>
            </trkpt>
            <trkpt lat="46.419260" lon="11.173150">
                <time>2017-07-15T11:09:56Z</time>
            </trkpt>
            <trkpt lat="46.419250" lon="11.172920">
                <time>2017-07-15T11:09:57Z</time>
            </trkpt>
            <trkpt lat="46.419250" lon="11.172650">
                <time>2017-07-15T11:09:58Z</time>
            </trkpt>
            <trkpt lat="46.419240" lon="11.172370">
                <time>2017-07-15T11:09:59Z</time>
            </trkpt>
            <trkpt lat="46.419260" lon="11.172120">
                <time>2017-07-15T11:10:00Z</time>
            </trkpt>
            <trkpt lat="46.419280" lon="11.171860">
                <time>2017-07-15T11:10:01Z</time>
            </trkpt>
            <trkpt lat="46.419270" lon="11.171620">
                <time>2017-07-15T11:10:02Z</time>
            </trkpt>
            <trkpt lat="46.419250" lon="11.171410">
                <time>2017-07-15T11:10:03Z</time>
            </trkpt>
            <trkpt lat="46.419220" lon="11.171170">
                <time>2017-07-15T11:10:04Z</time>
            </trkpt>
            <trkpt lat="46.419160" lon="11.170980">
                <time>2017-07-15T11:10:05Z</time>
            </trkpt>
            <trkpt lat="46.419040" lon="11.170820">
                <time>2017-07-15T11:10:06Z</time>
            </trkpt>
            <trkpt lat="46.418850" lon="11.170720">
                <time>2017-07-15T11:10:07Z</time>
            </trkpt>
            <trkpt lat="46.418680" lon="11.170650">
                <time>2017-07-15T11:10:08Z</time>
            </trkpt>
            <trkpt lat="46.418530" lon="11.170540">
                <time>2017-07-15T11:10:09Z</time>
            </trkpt>
            <trkpt lat="46.418410" lon="11.170400">
                <time>2017-07-15T11:10:10Z</time>
            </trkpt>
            <trkpt lat="46.418310" lon="11.170220">
                <time>2017-07-15T11:10:11Z</time>
            </trkpt>
            <trkpt lat="46.418220" lon="11.170030">
                <time>2017-07-15T11:10:12Z</time>
            </trkpt>
            <trkpt lat="46.418160" lon="11.169860">
                <time>2017-07-15T11:10:13Z</time>
            </trkpt>
            <trkpt lat="46.418140" lon="11.169680">
                <time>2017-07-15T11:10:14Z</time>
            </trkpt>
            <trkpt lat="46.418160" lon="11.169470">
                <time>2017-07-15T11:10:15Z</time>
            </trkpt>
            <trkpt lat="46.418200" lon="11.169290">
                <time>2017-07-15T11:10:16Z</time>
            </trkpt>
            <trkpt lat="46.418260" lon="11.169080">
                <time>2017-07-15T11:10:17Z</time>
            </trkpt>
            <trkpt lat="46.418330" lon="11.168850">
                <time>2017-07-15T11:10:18Z</time>
            </trkpt>
            <trkpt lat="46.418400" lon="11.168650">
                <time>2017-07-15T11:10:19Z</time>
            </trkpt>
            <trkpt lat="46.418490" lon="11.168430">
                <time>2017-07-15T11:10:20Z</time>
            </trkpt>
            <trkpt lat="46.418580" lon="11.168250">
                <time>2017-07-15T11:10:21Z</time>
            </trkpt>
            <trkpt lat="46.418680" lon="11.168080">
                <time>2017-07-15T11:10:22Z</time>
            </trkpt>
            <trkpt lat="46.418780" lon="11.167890">
                <time>2017-07-15T11:10:23Z</time>
            </trkpt>
            <trkpt lat="46.418820" lon="11.167710">
                <time>2017-07-15T11:10:24Z</time>
            </trkpt>
            <trkpt lat="46.418830" lon="11.167510">
                <time>2017-07-15T11:10:25Z</time>
            </trkpt>
            <trkpt lat="46.418810" lon="11.167310">
                <time>2017-07-15T11:10:26Z</time>
            </trkpt>
            <trkpt lat="46.418760" lon="11.167130">
                <time>2017-07-15T11:10:27Z</time>
            </trkpt>
            <trkpt lat="46.418690" lon="11.166930">
                <time>2017-07-15T11:10:28Z</time>
            </trkpt>
            <trkpt lat="46.418590" lon="11.166810">
                <time>2017-07-15T11:10:29Z</time>
            </trkpt>
            <trkpt lat="46.418390" lon="11.166810">
                <time>2017-07-15T11:10:30Z</time>
            </trkpt>
            <trkpt lat="46.418230" lon="11.166740">
                <time>2017-07-15T11:10:31Z</time>
            </trkpt>
            <trkpt lat="46.418090" lon="11.166660">
                <time>2017-07-15T11:10:32Z</time>
            </trkpt>
            <trkpt lat="46.417940" lon="11.166550">
                <time>2017-07-15T11:10:33Z</time>
            </trkpt>
            <trkpt lat="46.417800" lon="11.166380">
                <time>2017-07-15T11:10:34Z</time>
            </trkpt>
            <trkpt lat="46.417700" lon="11.166220">
                <time>2017-07-15T11:10:35Z</time>
            </trkpt>
            <trkpt lat="46.417610" lon="11.166030">
                <time>2017-07-15T11:10:36Z</time>
            </trkpt>
            <trkpt lat="46.417560" lon="11.165870">
                <time>2017-07-15T11:10:37Z</time>
            </trkpt>
            <trkpt lat="46.417540" lon="11.165680">
                <time>2017-07-15T11:10:38Z</time>
            </trkpt>
            <trkpt lat="46.417550" lon="11.165470">
                <time>2017-07-15T11:10:39Z</time>
            </trkpt>
            <trkpt lat="46.417580" lon="11.165280">
                <time>2017-07-15T11:10:40Z</time>
            </trkpt>
            <trkpt lat="46.417640" lon="11.165100">
                <time>2017-07-15T11:10:41Z</time>
            </trkpt>
            <trkpt lat="46.417730" lon="11.164950">
                <time>2017-07-15T11:10:42Z</time>
            </trkpt>
            <trkpt lat="46.417840" lon="11.164850">
                <time>2017-07-15T11:10:43Z</time>
            </trkpt>
            <trkpt lat="46.417970" lon="11.164810">
                <time>2017-07-15T11:10:44Z</time>
            </trkpt>
            <trkpt lat="46.418100" lon="11.164790">
                <time>2017-07-15T11:10:45Z</time>
            </trkpt>
            <trkpt lat="46.418250" lon="11.164800">
                <time>2017-07-15T11:10:46Z</time>
            </trkpt>
            <trkpt lat="46.418410" lon="11.164800">
                <time>2017-07-15T11:10:47Z</time>
            </trkpt>
            <trkpt lat="46.418550" lon="11.164800">
                <time>2017-07-15T11:10:48Z</time>
            </trkpt>
            <trkpt lat="46.418700" lon="11.164740">
                <time>2017-07-15T11:10:49Z</time>
            </trkpt>
            <trkpt lat="46.418840" lon="11.164650">
                <time>2017-07-15T11:10:50Z</time>
            </trkpt>
            <trkpt lat="46.418940" lon="11.164520">
                <time>2017-07-15T11:10:51Z</time>
            </trkpt>
            <trkpt lat="46.419060" lon="11.164340">
                <time>2017-07-15T11:10:52Z</time>
            </trkpt>
            <trkpt lat="46.419140" lon="11.164160">
                <time>2017-07-15T11:10:53Z</time>
            </trkpt>
            <trkpt lat="46.419180" lon="11.163940">
                <time>2017-07-15T11:10:54Z</time>
            </trkpt>
            <trkpt lat="46.419170" lon="11.163690">
                <time>2017-07-15T11:10:55Z</time>
            </trkpt>
            <trkpt lat="46.419170" lon="11.163480">
                <time>2017-07-15T11:10:56Z</time>
            </trkpt>
            <trkpt lat="46.419180" lon="11.163290">
                <time>2017-07-15T11:10:57Z</time>
            </trkpt>
            <trkpt lat="46.419190" lon="11.163120">
                <time>2017-07-15T11:10:58Z</time>
            </trkpt>
            <trkpt lat="46.419220" lon="11.162960">
                <time>2017-07-15T11:10:59Z</time>
            </trkpt>
            <trkpt lat="46.419320" lon="11.162810">
                <time>2017-07-15T11:11:00Z</time>
            </trkpt>
            <trkpt lat="46.419410" lon="11.162670">
                <time>2017-07-15T11:11:01Z</time>
            </trkpt>
            <trkpt lat="46.419510" lon="11.162520">
                <time>2017-07-15T11:11:02Z</time>
            </trkpt>
            <trkpt lat="46.419600" lon="11.162390">
                <time>2017-07-15T11:11:03Z</time>
            </trkpt>
            <trkpt lat="46.419700" lon="11.162300">
                <time>2017-07-15T11:11:04Z</time>
            </trkpt>
            <trkpt lat="46.419810" lon="11.162220">
                <time>2017-07-15T11:11:05Z</time>
            </trkpt>
            <trkpt lat="46.419950" lon="11.162230">
                <time>2017-07-15T11:11:06Z</time>
            </trkpt>
            <trkpt lat="46.420070" lon="11.162240">
                <time>2017-07-15T11:11:07Z</time>
            </trkpt>
            <trkpt lat="46.420190" lon="11.162200">
                <time>2017-07-15T11:11:08Z</time>
            </trkpt>
            <trkpt lat="46.420290" lon="11.162120">
                <time>2017-07-15T11:11:09Z</time>
            </trkpt>
            <trkpt lat="46.420370" lon="11.162000">
                <time>2017-07-15T11:11:10Z</time>
            </trkpt>
            <trkpt lat="46.420440" lon="11.161830">
                <time>2017-07-15T11:11:11Z</time>
            </trkpt>
            <trkpt lat="46.420460" lon="11.161640">
                <time>2017-07-15T11:11:12Z</time>
            </trkpt>
            <trkpt lat="46.420490" lon="11.161470">
                <time>2017-07-15T11:11:13Z</time>
            </trkpt>
            <trkpt lat="46.420550" lon="11.161320">
                <time>2017-07-15T11:11:14Z</time>
            </trkpt>
            <trkpt lat="46.420640" lon="11.161210">
                <time>2017-07-15T11:11:15Z</time>
            </trkpt>
            <trkpt lat="46.420750" lon="11.161120">
                <time>2017-07-15T11:11:16Z</time>
            </trkpt>
            <trkpt lat="46.420870" lon="11.161070">
                <time>2017-07-15T11:11:17Z</time>
            </trkpt>
            <trkpt lat="46.421010" lon="11.161020">
                <time>2017-07-15T11:11:18Z</time>
            </trkpt>
            <trkpt lat="46.421150" lon="11.160990">
                <time>2017-07-15T11:11:19Z</time>
            </trkpt>
            <trkpt lat="46.421290" lon="11.161010">
                <time>2017-07-15T11:11:20Z</time>
            </trkpt>
            <trkpt lat="46.421430" lon="11.161060">
                <time>2017-07-15T11:11:21Z</time>
            </trkpt>
            <trkpt lat="46.421570" lon="11.161110">
                <time>2017-07-15T11:11:22Z</time>
            </trkpt>
            <trkpt lat="46.421700" lon="11.161120">
                <time>2017-07-15T11:11:23Z</time>
            </trkpt>
            <trkpt lat="46.421850" lon="11.161100">
                <time>2017-07-15T11:11:24Z</time>
            </trkpt>
            <trkpt lat="46.421960" lon="11.161030">
                <time>2017-07-15T11:11:25Z</time>
            </trkpt>
            <trkpt lat="46.422080" lon="11.160950">
                <time>2017-07-15T11:11:26Z</time>
            </trkpt>
            <trkpt lat="46.422220" lon="11.160890">
                <time>2017-07-15T11:11:27Z</time>
            </trkpt>
            <trkpt lat="46.422340" lon="11.160880">
                <time>2017-07-15T11:11:28Z</time>
            </trkpt>
            <trkpt lat="46.422480" lon="11.160860">
                <time>2017-07-15T11:11:29Z</time>
            </trkpt>
            <trkpt lat="46.422610" lon="11.160810">
                <time>2017-07-15T11:11:30Z</time>
            </trkpt>
            <trkpt lat="46.422730" lon="11.160710">
                <time>2017-07-15T11:11:31Z</time>
            </trkpt>
            <trkpt lat="46.422850" lon="11.160580">
                <time>2017-07-15T11:11:32Z</time>
            </trkpt>
            <trkpt lat="46.422960" lon="11.160490">
                <time>2017-07-15T11:11:33Z</time>
            </trkpt>
            <trkpt lat="46.423090" lon="11.160390">
                <time>2017-07-15T11:11:34Z</time>
            </trkpt>
            <trkpt lat="46.423250" lon="11.160310">
                <time>2017-07-15T11:11:35Z</time>
            </trkpt>
            <trkpt lat="46.423400" lon="11.160250">
                <time>2017-07-15T11:11:36Z</time>
            </trkpt>
            <trkpt lat="46.423570" lon="11.160210">
                <time>2017-07-15T11:11:37Z</time>
            </trkpt>
            <trkpt lat="46.423750" lon="11.160180">
                <time>2017-07-15T11:11:38Z</time>
            </trkpt>
            <trkpt lat="46.423910" lon="11.160180">
                <time>2017-07-15T11:11:39Z</time>
            </trkpt>
            <trkpt lat="46.424080" lon="11.160200">
                <time>2017-07-15T11:11:40Z</time>
            </trkpt>
            <trkpt lat="46.424230" lon="11.160220">
                <time>2017-07-15T11:11:41Z</time>
            </trkpt>
            <trkpt lat="46.424370" lon="11.160280">
                <time>2017-07-15T11:11:42Z</time>
            </trkpt>
            <trkpt lat="46.424510" lon="11.160330">
                <time>2017-07-15T11:11:43Z</time>
            </trkpt>
            <trkpt lat="46.424630" lon="11.160360">
                <time>2017-07-15T11:11:44Z</time>
            </trkpt>
            <trkpt lat="46.424760" lon="11.160360">
                <time>2017-07-15T11:11:45Z</time>
            </trkpt>
            <trkpt lat="46.424880" lon="11.160350">
                <time>2017-07-15T11:11:46Z</time>
            </trkpt>
            <trkpt lat="46.425020" lon="11.160340">
                <time>2017-07-15T11:11:47Z</time>
            </trkpt>
            <trkpt lat="46.425150" lon="11.160340">
                <time>2017-07-15T11:11:48Z</time>
            </trkpt>
            <trkpt lat="46.425270" lon="11.160330">
                <time>2017-07-15T11:11:49Z</time>
            </trkpt>
            <trkpt lat="46.425390" lon="11.160310">
                <time>2017-07-15T11:11:50Z</time>
            </trkpt>
            <trkpt lat="46.425510" lon="11.160270">
                <time>2017-07-15T11:11:51Z</time>
            </trkpt>
            <trkpt lat="46.425620" lon="11.160230">
                <time>2017-07-15T11:11:52Z</time>
            </trkpt>
            <trkpt lat="46.425720" lon="11.160140">
                <time>2017-07-15T11:11:53Z</time>
            </trkpt>
            <trkpt lat="46.425840" lon="11.160020">
                <time>2017-07-15T11:11:54Z</time>
            </trkpt>
            <trkpt lat="46.425930" lon="11.159890">
                <time>2017-07-15T11:11:55Z</time>
            </trkpt>
            <trkpt lat="46.426050" lon="11.159740">
                <time>2017-07-15T11:11:56Z</time>
            </trkpt>
            <trkpt lat="46.426140" lon="11.159600">
                <time>2017-07-15T11:11:57Z</time>
            </trkpt>
            <trkpt lat="46.426240" lon="11.159460">
                <time>2017-07-15T11:11:58Z</time>
            </trkpt>
            <trkpt lat="46.426340" lon="11.159310">
                <time>2017-07-15T11:11:59Z</time>
            </trkpt>
            <trkpt lat="46.426420" lon="11.159180">
                <time>2017-07-15T11:12:00Z</time>
            </trkpt>
            <trkpt lat="46.426500" lon="11.159050">
                <time>2017-07-15T11:12:01Z</time>
            </trkpt>
            <trkpt lat="46.426580" lon="11.158910">
                <time>2017-07-15T11:12:02Z</time>
            </trkpt>
            <trkpt lat="46.426650" lon="11.158770">
                <time>2017-07-15T11:12:03Z</time>
            </trkpt>
            <trkpt lat="46.426710" lon="11.158600">
                <time>2017-07-15T11:12:04Z</time>
            </trkpt>
            <trkpt lat="46.426770" lon="11.158460">
                <time>2017-07-15T11:12:05Z</time>
            </trkpt>
            <trkpt lat="46.426840" lon="11.158310">
                <time>2017-07-15T11:12:06Z</time>
            </trkpt>
            <trkpt lat="46.426920" lon="11.158150">
                <time>2017-07-15T11:12:07Z</time>
            </trkpt>
            <trkpt lat="46.427000" lon="11.158030">
                <time>2017-07-15T11:12:08Z</time>
            </trkpt>
            <trkpt lat="46.427090" lon="11.157920">
                <time>2017-07-15T11:12:09Z</time>
            </trkpt>
            <trkpt lat="46.427200" lon="11.157810">
                <time>2017-07-15T11:12:10Z</time>
            </trkpt>
            <trkpt lat="46.427310" lon="11.157740">
                <time>2017-07-15T11:12:11Z</time>
            </trkpt>
            <trkpt lat="46.427430" lon="11.157650">
                <time>2017-07-15T11:12:12Z</time>
            </trkpt>
            <trkpt lat="46.427550" lon="11.157570">
                <time>2017-07-15T11:12:13Z</time>
            </trkpt>
            <trkpt lat="46.427680" lon="11.157490">
                <time>2017-07-15T11:12:14Z</time>
            </trkpt>
            <trkpt lat="46.427820" lon="11.157390">
                <time>2017-07-15T11:12:15Z</time>
            </trkpt>
            <trkpt lat="46.427950" lon="11.157310">
                <time>2017-07-15T11:12:16Z</time>
            </trkpt>
            <trkpt lat="46.428090" lon="11.157220">
                <time>2017-07-15T11:12:17Z</time>
            </trkpt>
            <trkpt lat="46.428220" lon="11.157140">
                <time>2017-07-15T11:12:18Z</time>
            </trkpt>
            <trkpt lat="46.428360" lon="11.157070">
                <time>2017-07-15T11:12:19Z</time>
            </trkpt>
            <trkpt lat="46.428510" lon="11.157020">
                <time>2017-07-15T11:12:20Z</time>
            </trkpt>
            <trkpt lat="46.428640" lon="11.156990">
                <time>2017-07-15T11:12:21Z</time>
            </trkpt>
            <trkpt lat="46.428770" lon="11.156940">
                <time>2017-07-15T11:12:22Z</time>
            </trkpt>
            <trkpt lat="46.428910" lon="11.156860">
                <time>2017-07-15T11:12:23Z</time>
            </trkpt>
            <trkpt lat="46.429030" lon="11.156790">
                <time>2017-07-15T11:12:24Z</time>
            </trkpt>
            <trkpt lat="46.429150" lon="11.156730">
                <time>2017-07-15T11:12:25Z</time>
            </trkpt>
            <trkpt lat="46.429290" lon="11.156700">
                <time>2017-07-15T11:12:26Z</time>
            </trkpt>
            <trkpt lat="46.429410" lon="11.156700">
                <time>2017-07-15T11:12:27Z</time>
            </trkpt>
            <trkpt lat="46.429550" lon="11.156720">
                <time>2017-07-15T11:12:28Z</time>
            </trkpt>
            <trkpt lat="46.429660" lon="11.156730">
                <time>2017-07-15T11:12:29Z</time>
            </trkpt>
            <trkpt lat="46.429750" lon="11.156740">
                <time>2017-07-15T11:12:30Z</time>
            </trkpt>
            <trkpt lat="46.429830" lon="11.156740">
                <time>2017-07-15T11:12:31Z</time>
            </trkpt>
            <trkpt lat="46.429890" lon="11.156720">
                <time>2017-07-15T11:12:32Z</time>
            </trkpt>
            <trkpt lat="46.429940" lon="11.156660">
                <time>2017-07-15T11:12:33Z</time>
            </trkpt>
            <trkpt lat="46.429930" lon="11.156560">
                <time>2017-07-15T11:12:34Z</time>
            </trkpt>
            <trkpt lat="46.429900" lon="11.156450">
                <time>2017-07-15T11:12:35Z</time>
            </trkpt>
            <trkpt lat="46.429790" lon="11.156310">
                <time>2017-07-15T11:12:36Z</time>
            </trkpt>
            <trkpt lat="46.429720" lon="11.156250">
                <time>2017-07-15T11:12:37Z</time>
            </trkpt>
            <trkpt lat="46.429620" lon="11.156160">
                <time>2017-07-15T11:12:38Z</time>
            </trkpt>
            <trkpt lat="46.429500" lon="11.156050">
                <time>2017-07-15T11:12:39Z</time>
            </trkpt>
            <trkpt lat="46.429400" lon="11.155950">
                <time>2017-07-15T11:12:40Z</time>
            </trkpt>
            <trkpt lat="46.429280" lon="11.155840">
                <time>2017-07-15T11:12:41Z</time>
            </trkpt>
            <trkpt lat="46.429160" lon="11.155730">
                <time>2017-07-15T11:12:42Z</time>
            </trkpt>
            <trkpt lat="46.429060" lon="11.155630">
                <time>2017-07-15T11:12:43Z</time>
            </trkpt>
            <trkpt lat="46.428940" lon="11.155520">
                <time>2017-07-15T11:12:44Z</time>
            </trkpt>
            <trkpt lat="46.428840" lon="11.155420">
                <time>2017-07-15T11:12:45Z</time>
            </trkpt>
            <trkpt lat="46.428740" lon="11.155320">
                <time>2017-07-15T11:12:46Z</time>
            </trkpt>
            <trkpt lat="46.428650" lon="11.155220">
                <time>2017-07-15T11:12:47Z</time>
            </trkpt>
            <trkpt lat="46.428570" lon="11.155130">
                <time>2017-07-15T11:12:48Z</time>
            </trkpt>
            <trkpt lat="46.428490" lon="11.155030">
                <time>2017-07-15T11:12:49Z</time>
            </trkpt>
            <trkpt lat="46.428430" lon="11.154920">
                <time>2017-07-15T11:12:50Z</time>
            </trkpt>
            <trkpt lat="46.428370" lon="11.154820">
                <time>2017-07-15T11:12:51Z</time>
            </trkpt>
            <trkpt lat="46.428300" lon="11.154720">
                <time>2017-07-15T11:12:52Z</time>
            </trkpt>
            <trkpt lat="46.428250" lon="11.154650">
                <time>2017-07-15T11:12:53Z</time>
            </trkpt>
            <trkpt lat="46.428210" lon="11.154570">
                <time>2017-07-15T11:12:54Z</time>
            </trkpt>
            <trkpt lat="46.428190" lon="11.154500">
                <time>2017-07-15T11:12:55Z</time>
            </trkpt>
            <trkpt lat="46.428200" lon="11.154430">
                <time>2017-07-15T11:12:56Z</time>
            </trkpt>
            <trkpt lat="46.428230" lon="11.154360">
                <time>2017-07-15T11:12:57Z</time>
            </trkpt>
            <trkpt lat="46.428290" lon="11.154310">
                <time>2017-07-15T11:12:58Z</time>
            </trkpt>
            <trkpt lat="46.428360" lon="11.154280">
                <time>2017-07-15T11:12:59Z</time>
            </trkpt>
            <trkpt lat="46.428460" lon="11.154250">
                <time>2017-07-15T11:13:00Z</time>
            </trkpt>
            <trkpt lat="46.428560" lon="11.154220">
                <time>2017-07-15T11:13:01Z</time>
            </trkpt>
            <trkpt lat="46.428670" lon="11.154200">
                <time>2017-07-15T11:13:02Z</time>
            </trkpt>
            <trkpt lat="46.428790" lon="11.154180">
                <time>2017-07-15T11:13:03Z</time>
            </trkpt>
            <trkpt lat="46.428900" lon="11.154180">
                <time>2017-07-15T11:13:04Z</time>
            </trkpt>
            <trkpt lat="46.429010" lon="11.154180">
                <time>2017-07-15T11:13:05Z</time>
            </trkpt>
            <trkpt lat="46.429130" lon="11.154170">
                <time>2017-07-15T11:13:06Z</time>
            </trkpt>
            <trkpt lat="46.429240" lon="11.154160">
                <time>2017-07-15T11:13:07Z</time>
            </trkpt>
            <trkpt lat="46.429350" lon="11.154120">
                <time>2017-07-15T11:13:08Z</time>
            </trkpt>
            <trkpt lat="46.429430" lon="11.154050">
                <time>2017-07-15T11:13:09Z</time>
            </trkpt>
            <trkpt lat="46.429510" lon="11.153960">
                <time>2017-07-15T11:13:10Z</time>
            </trkpt>
            <trkpt lat="46.429590" lon="11.153820">
                <time>2017-07-15T11:13:11Z</time>
            </trkpt>
            <trkpt lat="46.429630" lon="11.153690">
                <time>2017-07-15T11:13:12Z</time>
            </trkpt>
            <trkpt lat="46.429680" lon="11.153530">
                <time>2017-07-15T11:13:13Z</time>
            </trkpt>
            <trkpt lat="46.429730" lon="11.153380">
                <time>2017-07-15T11:13:14Z</time>
            </trkpt>
            <trkpt lat="46.429760" lon="11.153230">
                <time>2017-07-15T11:13:15Z</time>
            </trkpt>
            <trkpt lat="46.429810" lon="11.153070">
                <time>2017-07-15T11:13:16Z</time>
            </trkpt>
            <trkpt lat="46.429860" lon="11.152910">
                <time>2017-07-15T11:13:17Z</time>
            </trkpt>
            <trkpt lat="46.429940" lon="11.152730">
                <time>2017-07-15T11:13:18Z</time>
            </trkpt>
            <trkpt lat="46.430040" lon="11.152520">
                <time>2017-07-15T11:13:19Z</time>
            </trkpt>
            <trkpt lat="46.430140" lon="11.152310">
                <time>2017-07-15T11:13:20Z</time>
            </trkpt>
            <trkpt lat="46.430250" lon="11.152070">
                <time>2017-07-15T11:13:21Z</time>
            </trkpt>
            <trkpt lat="46.430360" lon="11.151850">
                <time>2017-07-15T11:13:22Z</time>
            </trkpt>
            <trkpt lat="46.430470" lon="11.151650">
                <time>2017-07-15T11:13:23Z</time>
            </trkpt>
            <trkpt lat="46.430570" lon="11.151460">
                <time>2017-07-15T11:13:24Z</time>
            </trkpt>
            <trkpt lat="46.430660" lon="11.151310">
                <time>2017-07-15T11:13:25Z</time>
            </trkpt>
            <trkpt lat="46.430740" lon="11.151180">
                <time>2017-07-15T11:13:26Z</time>
            </trkpt>
            <trkpt lat="46.430840" lon="11.151060">
                <time>2017-07-15T11:13:27Z</time>
            </trkpt>
            <trkpt lat="46.430930" lon="11.150990">
                <time>2017-07-15T11:13:28Z</time>
            </trkpt>
            <trkpt lat="46.431050" lon="11.150920">
                <time>2017-07-15T11:13:29Z</time>
            </trkpt>
            <trkpt lat="46.431180" lon="11.150850">
                <time>2017-07-15T11:13:30Z</time>
            </trkpt>
            <trkpt lat="46.431290" lon="11.150780">
                <time>2017-07-15T11:13:31Z</time>
            </trkpt>
            <trkpt lat="46.431420" lon="11.150670">
                <time>2017-07-15T11:13:32Z</time>
            </trkpt>
            <trkpt lat="46.431540" lon="11.150560">
                <time>2017-07-15T11:13:33Z</time>
            </trkpt>
            <trkpt lat="46.431660" lon="11.150450">
                <time>2017-07-15T11:13:34Z</time>
            </trkpt>
            <trkpt lat="46.431780" lon="11.150330">
                <time>2017-07-15T11:13:35Z</time>
            </trkpt>
            <trkpt lat="46.431900" lon="11.150220">
                <time>2017-07-15T11:13:36Z</time>
            </trkpt>
            <trkpt lat="46.432010" lon="11.150090">
                <time>2017-07-15T11:13:37Z</time>
            </trkpt>
            <trkpt lat="46.432120" lon="11.149980">
                <time>2017-07-15T11:13:38Z</time>
            </trkpt>
            <trkpt lat="46.432220" lon="11.149880">
                <time>2017-07-15T11:13:39Z</time>
            </trkpt>
            <trkpt lat="46.432330" lon="11.149760">
                <time>2017-07-15T11:13:40Z</time>
            </trkpt>
            <trkpt lat="46.432420" lon="11.149670">
                <time>2017-07-15T11:13:41Z</time>
            </trkpt>
            <trkpt lat="46.432520" lon="11.149570">
                <time>2017-07-15T11:13:42Z</time>
            </trkpt>
            <trkpt lat="46.432620" lon="11.149470">
                <time>2017-07-15T11:13:43Z</time>
            </trkpt>
            <trkpt lat="46.432710" lon="11.149390">
                <time>2017-07-15T11:13:44Z</time>
            </trkpt>
            <trkpt lat="46.432800" lon="11.149290">
                <time>2017-07-15T11:13:45Z</time>
            </trkpt>
            <trkpt lat="46.432900" lon="11.149180">
                <time>2017-07-15T11:13:46Z</time>
            </trkpt>
            <trkpt lat="46.432980" lon="11.149080">
                <time>2017-07-15T11:13:47Z</time>
            </trkpt>
            <trkpt lat="46.433060" lon="11.148940">
                <time>2017-07-15T11:13:48Z</time>
            </trkpt>
            <trkpt lat="46.433110" lon="11.148790">
                <time>2017-07-15T11:13:49Z</time>
            </trkpt>
            <trkpt lat="46.433140" lon="11.148610">
                <time>2017-07-15T11:13:50Z</time>
            </trkpt>
            <trkpt lat="46.433170" lon="11.148410">
                <time>2017-07-15T11:13:51Z</time>
            </trkpt>
            <trkpt lat="46.433200" lon="11.148220">
                <time>2017-07-15T11:13:52Z</time>
            </trkpt>
            <trkpt lat="46.433220" lon="11.148040">
                <time>2017-07-15T11:13:53Z</time>
            </trkpt>
            <trkpt lat="46.433270" lon="11.147860">
                <time>2017-07-15T11:13:54Z</time>
            </trkpt>
            <trkpt lat="46.433330" lon="11.147700">
                <time>2017-07-15T11:13:55Z</time>
            </trkpt>
            <trkpt lat="46.433410" lon="11.147520">
                <time>2017-07-15T11:13:56Z</time>
            </trkpt>
            <trkpt lat="46.433490" lon="11.147360">
                <time>2017-07-15T11:13:57Z</time>
            </trkpt>
            <trkpt lat="46.433560" lon="11.147200">
                <time>2017-07-15T11:13:58Z</time>
            </trkpt>
            <trkpt lat="46.433630" lon="11.147030">
                <time>2017-07-15T11:13:59Z</time>
            </trkpt>
            <trkpt lat="46.433700" lon="11.146880">
                <time>2017-07-15T11:14:00Z</time>
            </trkpt>
            <trkpt lat="46.433780" lon="11.146720">
                <time>2017-07-15T11:14:01Z</time>
            </trkpt>
            <trkpt lat="46.433850" lon="11.146550">
                <time>2017-07-15T11:14:02Z</time>
            </trkpt>
            <trkpt lat="46.433920" lon="11.146400">
                <time>2017-07-15T11:14:03Z</time>
            </trkpt>
            <trkpt lat="46.433980" lon="11.146240">
                <time>2017-07-15T11:14:04Z</time>
            </trkpt>
            <trkpt lat="46.434010" lon="11.146090">
                <time>2017-07-15T11:14:05Z</time>
            </trkpt>
            <trkpt lat="46.434040" lon="11.145920">
                <time>2017-07-15T11:14:06Z</time>
            </trkpt>
            <trkpt lat="46.434050" lon="11.145730">
                <time>2017-07-15T11:14:07Z</time>
            </trkpt>
            <trkpt lat="46.434050" lon="11.145570">
                <time>2017-07-15T11:14:08Z</time>
            </trkpt>
            <trkpt lat="46.434040" lon="11.145420">
                <time>2017-07-15T11:14:09Z</time>
            </trkpt>
            <trkpt lat="46.434040" lon="11.145290">
                <time>2017-07-15T11:14:10Z</time>
            </trkpt>
            <trkpt lat="46.434020" lon="11.145170">
                <time>2017-07-15T11:14:11Z</time>
            </trkpt>
            <trkpt lat="46.434000" lon="11.145060">
                <time>2017-07-15T11:14:12Z</time>
            </trkpt>
            <trkpt lat="46.433970" lon="11.144990">
                <time>2017-07-15T11:14:13Z</time>
            </trkpt>
            <trkpt lat="46.433930" lon="11.144940">
                <time>2017-07-15T11:14:14Z</time>
            </trkpt>
            <trkpt lat="46.433880" lon="11.144920">
                <time>2017-07-15T11:14:15Z</time>
            </trkpt>
            <trkpt lat="46.433840" lon="11.144940">
                <time>2017-07-15T11:14:16Z</time>
            </trkpt>
            <trkpt lat="46.433800" lon="11.144990">
                <time>2017-07-15T11:14:17Z</time>
            </trkpt>
            <trkpt lat="46.433750" lon="11.145090">
                <time>2017-07-15T11:14:18Z</time>
            </trkpt>
            <trkpt lat="46.433710" lon="11.145200">
                <time>2017-07-15T11:14:19Z</time>
            </trkpt>
            <trkpt lat="46.433650" lon="11.145350">
                <time>2017-07-15T11:14:20Z</time>
            </trkpt>
            <trkpt lat="46.433600" lon="11.145490">
                <time>2017-07-15T11:14:21Z</time>
            </trkpt>
            <trkpt lat="46.433550" lon="11.145640">
                <time>2017-07-15T11:14:22Z</time>
            </trkpt>
            <trkpt lat="46.433500" lon="11.145790">
                <time>2017-07-15T11:14:23Z</time>
            </trkpt>
            <trkpt lat="46.433450" lon="11.145890">
                <time>2017-07-15T11:14:24Z</time>
            </trkpt>
            <trkpt lat="46.433400" lon="11.145960">
                <time>2017-07-15T11:14:25Z</time>
            </trkpt>
            <trkpt lat="46.433340" lon="11.146000">
                <time>2017-07-15T11:14:26Z</time>
            </trkpt>
            <trkpt lat="46.433290" lon="11.145960">
                <time>2017-07-15T11:14:27Z</time>
            </trkpt>
            <trkpt lat="46.433240" lon="11.145870">
                <time>2017-07-15T11:14:28Z</time>
            </trkpt>
            <trkpt lat="46.433230" lon="11.145750">
                <time>2017-07-15T11:14:29Z</time>
            </trkpt>
            <trkpt lat="46.433230" lon="11.145610">
                <time>2017-07-15T11:14:30Z</time>
            </trkpt>
            <trkpt lat="46.433230" lon="11.145440">
                <time>2017-07-15T11:14:31Z</time>
            </trkpt>
            <trkpt lat="46.433230" lon="11.145260">
                <time>2017-07-15T11:14:32Z</time>
            </trkpt>
            <trkpt lat="46.433220" lon="11.145070">
                <time>2017-07-15T11:14:33Z</time>
            </trkpt>
            <trkpt lat="46.433190" lon="11.144860">
                <time>2017-07-15T11:14:34Z</time>
            </trkpt>
            <trkpt lat="46.433160" lon="11.144680">
                <time>2017-07-15T11:14:35Z</time>
            </trkpt>
            <trkpt lat="46.433120" lon="11.144480">
                <time>2017-07-15T11:14:36Z</time>
            </trkpt>
            <trkpt lat="46.433090" lon="11.144310">
                <time>2017-07-15T11:14:37Z</time>
            </trkpt>
            <trkpt lat="46.433060" lon="11.144120">
                <time>2017-07-15T11:14:38Z</time>
            </trkpt>
            <trkpt lat="46.433050" lon="11.143940">
                <time>2017-07-15T11:14:39Z</time>
            </trkpt>
            <trkpt lat="46.433070" lon="11.143780">
                <time>2017-07-15T11:14:40Z</time>
            </trkpt>
            <trkpt lat="46.433100" lon="11.143610">
                <time>2017-07-15T11:14:41Z</time>
            </trkpt>
            <trkpt lat="46.433160" lon="11.143430">
                <time>2017-07-15T11:14:42Z</time>
            </trkpt>
            <trkpt lat="46.433230" lon="11.143280">
                <time>2017-07-15T11:14:43Z</time>
            </trkpt>
            <trkpt lat="46.433320" lon="11.143130">
                <time>2017-07-15T11:14:44Z</time>
            </trkpt>
            <trkpt lat="46.433420" lon="11.143030">
                <time>2017-07-15T11:14:45Z</time>
            </trkpt>
            <trkpt lat="46.433530" lon="11.142950">
                <time>2017-07-15T11:14:46Z</time>
            </trkpt>
            <trkpt lat="46.433670" lon="11.142890">
                <time>2017-07-15T11:14:47Z</time>
            </trkpt>
            <trkpt lat="46.433790" lon="11.142850">
                <time>2017-07-15T11:14:48Z</time>
            </trkpt>
            <trkpt lat="46.433940" lon="11.142810">
                <time>2017-07-15T11:14:49Z</time>
            </trkpt>
            <trkpt lat="46.434090" lon="11.142770">
                <time>2017-07-15T11:14:50Z</time>
            </trkpt>
            <trkpt lat="46.434220" lon="11.142740">
                <time>2017-07-15T11:14:51Z</time>
            </trkpt>
            <trkpt lat="46.434360" lon="11.142670">
                <time>2017-07-15T11:14:52Z</time>
            </trkpt>
            <trkpt lat="46.434480" lon="11.142600">
                <time>2017-07-15T11:14:53Z</time>
            </trkpt>
            <trkpt lat="46.434600" lon="11.142520">
                <time>2017-07-15T11:14:54Z</time>
            </trkpt>
            <trkpt lat="46.434720" lon="11.142430">
                <time>2017-07-15T11:14:55Z</time>
            </trkpt>
            <trkpt lat="46.434830" lon="11.142360">
                <time>2017-07-15T11:14:56Z</time>
            </trkpt>
            <trkpt lat="46.434940" lon="11.142290">
                <time>2017-07-15T11:14:57Z</time>
            </trkpt>
            <trkpt lat="46.435040" lon="11.142210">
                <time>2017-07-15T11:14:58Z</time>
            </trkpt>
            <trkpt lat="46.435140" lon="11.142120">
                <time>2017-07-15T11:14:59Z</time>
            </trkpt>
            <trkpt lat="46.435230" lon="11.142010">
                <time>2017-07-15T11:15:00Z</time>
            </trkpt>
            <trkpt lat="46.435300" lon="11.141880">
                <time>2017-07-15T11:15:01Z</time>
            </trkpt>
            <trkpt lat="46.435360" lon="11.141720">
                <time>2017-07-15T11:15:02Z</time>
            </trkpt>
            <trkpt lat="46.435430" lon="11.141550">
                <time>2017-07-15T11:15:03Z</time>
            </trkpt>
            <trkpt lat="46.435490" lon="11.141400">
                <time>2017-07-15T11:15:04Z</time>
            </trkpt>
            <trkpt lat="46.435570" lon="11.141260">
                <time>2017-07-15T11:15:05Z</time>
            </trkpt>
            <trkpt lat="46.435680" lon="11.141140">
                <time>2017-07-15T11:15:06Z</time>
            </trkpt>
            <trkpt lat="46.435770" lon="11.141050">
                <time>2017-07-15T11:15:07Z</time>
            </trkpt>
            <trkpt lat="46.435890" lon="11.140960">
                <time>2017-07-15T11:15:08Z</time>
            </trkpt>
            <trkpt lat="46.435980" lon="11.140860">
                <time>2017-07-15T11:15:09Z</time>
            </trkpt>
            <trkpt lat="46.436060" lon="11.140740">
                <time>2017-07-15T11:15:10Z</time>
            </trkpt>
            <trkpt lat="46.436140" lon="11.140610">
                <time>2017-07-15T11:15:11Z</time>
            </trkpt>
            <trkpt lat="46.436220" lon="11.140490">
                <time>2017-07-15T11:15:12Z</time>
            </trkpt>
            <trkpt lat="46.436300" lon="11.140380">
                <time>2017-07-15T11:15:13Z</time>
            </trkpt>
            <trkpt lat="46.436380" lon="11.140300">
                <time>2017-07-15T11:15:14Z</time>
            </trkpt>
            <trkpt lat="46.436470" lon="11.140240">
                <time>2017-07-15T11:15:15Z</time>
            </trkpt>
            <trkpt lat="46.436570" lon="11.140200">
                <time>2017-07-15T11:15:16Z</time>
            </trkpt>
            <trkpt lat="46.436660" lon="11.140160">
                <time>2017-07-15T11:15:17Z</time>
            </trkpt>
            <trkpt lat="46.436750" lon="11.140120">
                <time>2017-07-15T11:15:18Z</time>
            </trkpt>
            <trkpt lat="46.436820" lon="11.140070">
                <time>2017-07-15T11:15:19Z</time>
            </trkpt>
            <trkpt lat="46.436870" lon="11.140030">
                <time>2017-07-15T11:15:20Z</time>
            </trkpt>
            <trkpt lat="46.436900" lon="11.139980">
                <time>2017-07-15T11:15:21Z</time>
            </trkpt>
            <trkpt lat="46.436940" lon="11.139950">
                <time>2017-07-15T11:15:22Z</time>
            </trkpt>
            <trkpt lat="46.436980" lon="11.139910">
                <time>2017-07-15T11:15:23Z</time>
            </trkpt>
            <trkpt lat="46.437040" lon="11.139880">
                <time>2017-07-15T11:15:24Z</time>
            </trkpt>
            <trkpt lat="46.437110" lon="11.139840">
                <time>2017-07-15T11:15:25Z</time>
            </trkpt>
            <trkpt lat="46.437190" lon="11.139780">
                <time>2017-07-15T11:15:26Z</time>
            </trkpt>
            <trkpt lat="46.437280" lon="11.139720">
                <time>2017-07-15T11:15:27Z</time>
            </trkpt>
            <trkpt lat="46.437350" lon="11.139660">
                <time>2017-07-15T11:15:28Z</time>
            </trkpt>
            <trkpt lat="46.437440" lon="11.139590">
                <time>2017-07-15T11:15:29Z</time>
            </trkpt>
            <trkpt lat="46.437520" lon="11.139530">
                <time>2017-07-15T11:15:30Z</time>
            </trkpt>
            <trkpt lat="46.437610" lon="11.139470">
                <time>2017-07-15T11:15:31Z</time>
            </trkpt>
            <trkpt lat="46.437700" lon="11.139430">
                <time>2017-07-15T11:15:32Z</time>
            </trkpt>
            <trkpt lat="46.437790" lon="11.139410">
                <time>2017-07-15T11:15:33Z</time>
            </trkpt>
            <trkpt lat="46.437890" lon="11.139390">
                <time>2017-07-15T11:15:34Z</time>
            </trkpt>
            <trkpt lat="46.438010" lon="11.139390">
                <time>2017-07-15T11:15:35Z</time>
            </trkpt>
            <trkpt lat="46.438120" lon="11.139400">
                <time>2017-07-15T11:15:36Z</time>
            </trkpt>
            <trkpt lat="46.438240" lon="11.139420">
                <time>2017-07-15T11:15:37Z</time>
            </trkpt>
            <trkpt lat="46.438350" lon="11.139430">
                <time>2017-07-15T11:15:38Z</time>
            </trkpt>
            <trkpt lat="46.438430" lon="11.139440">
                <time>2017-07-15T11:15:39Z</time>
            </trkpt>
            <trkpt lat="46.438510" lon="11.139460">
                <time>2017-07-15T11:15:40Z</time>
            </trkpt>
            <trkpt lat="46.438550" lon="11.139500">
                <time>2017-07-15T11:15:41Z</time>
            </trkpt>
            <trkpt lat="46.438580" lon="11.139510">
                <time>2017-07-15T11:15:42Z</time>
            </trkpt>
            <trkpt lat="46.438600" lon="11.139510">
                <time>2017-07-15T11:15:43Z</time>
            </trkpt>
            <trkpt lat="46.438610" lon="11.139510">
                <time>2017-07-15T11:15:44Z</time>
            </trkpt>
            <trkpt lat="46.438620" lon="11.139520">
                <time>2017-07-15T11:15:45Z</time>
            </trkpt>
            <trkpt lat="46.438620" lon="11.139520">
                <time>2017-07-15T11:15:46Z</time>
            </trkpt>
            <trkpt lat="46.438620" lon="11.139520">
                <time>2017-07-15T11:15:47Z</time>
            </trkpt>
            <trkpt lat="46.438620" lon="11.139510">
                <time>2017-07-15T11:15:48Z</time>
            </trkpt>
            <trkpt lat="46.438620" lon="11.139490">
                <time>2017-07-15T11:15:49Z</time>
            </trkpt>
            <trkpt lat="46.438600" lon="11.139470">
                <time>2017-07-15T11:15:50Z</time>
            </trkpt>
            <trkpt lat="46.438580" lon="11.139460">
                <time>2017-07-15T11:15:51Z</time>
            </trkpt>
            <trkpt lat="46.438550" lon="11.139450">
                <time>2017-07-15T11:15:52Z</time>
            </trkpt>
            <trkpt lat="46.438510" lon="11.139430">
                <time>2017-07-15T11:15:53Z</time>
            </trkpt>
            <trkpt lat="46.438450" lon="11.139420">
                <time>2017-07-15T11:15:54Z</time>
            </trkpt>
            <trkpt lat="46.438390" lon="11.139410">
                <time>2017-07-15T11:15:55Z</time>
            </trkpt>
            <trkpt lat="46.438320" lon="11.139400">
                <time>2017-07-15T11:15:56Z</time>
            </trkpt>
            <trkpt lat="46.438240" lon="11.139400">
                <time>2017-07-15T11:15:57Z</time>
            </trkpt>
            <trkpt lat="46.438170" lon="11.139400">
                <time>2017-07-15T11:15:58Z</time>
            </trkpt>
            <trkpt lat="46.438090" lon="11.139400">
                <time>2017-07-15T11:15:59Z</time>
            </trkpt>
            <trkpt lat="46.438020" lon="11.139410">
                <time>2017-07-15T11:16:00Z</time>
            </trkpt>
            <trkpt lat="46.437940" lon="11.139410">
                <time>2017-07-15T11:16:01Z</time>
            </trkpt>
            <trkpt lat="46.437880" lon="11.139400">
                <time>2017-07-15T11:16:02Z</time>
            </trkpt>
            <trkpt lat="46.437830" lon="11.139390">
                <time>2017-07-15T11:16:03Z</time>
            </trkpt>
            <trkpt lat="46.437800" lon="11.139350">
                <time>2017-07-15T11:16:04Z</time>
            </trkpt>
            <trkpt lat="46.437800" lon="11.139320">
                <time>2017-07-15T11:16:05Z</time>
            </trkpt>
            <trkpt lat="46.437820" lon="11.139290">
                <time>2017-07-15T11:16:06Z</time>
            </trkpt>
            <trkpt lat="46.437850" lon="11.139220">
                <time>2017-07-15T11:16:07Z</time>
            </trkpt>
            <trkpt lat="46.437890" lon="11.139150">
                <time>2017-07-15T11:16:08Z</time>
            </trkpt>
            <trkpt lat="46.437940" lon="11.139050">
                <time>2017-07-15T11:16:09Z</time>
            </trkpt>
            <trkpt lat="46.437990" lon="11.138940">
                <time>2017-07-15T11:16:10Z</time>
            </trkpt>
            <trkpt lat="46.438030" lon="11.138860">
                <time>2017-07-15T11:16:11Z</time>
            </trkpt>
            <trkpt lat="46.438070" lon="11.138760">
                <time>2017-07-15T11:16:12Z</time>
            </trkpt>
            <trkpt lat="46.438110" lon="11.138680">
                <time>2017-07-15T11:16:13Z</time>
            </trkpt>
            <trkpt lat="46.438140" lon="11.138580">
                <time>2017-07-15T11:16:14Z</time>
            </trkpt>
            <trkpt lat="46.438160" lon="11.138480">
                <time>2017-07-15T11:16:15Z</time>
            </trkpt>
            <trkpt lat="46.438160" lon="11.138390">
                <time>2017-07-15T11:16:16Z</time>
            </trkpt>
            <trkpt lat="46.438140" lon="11.138290">
                <time>2017-07-15T11:16:17Z</time>
            </trkpt>
            <trkpt lat="46.438100" lon="11.138200">
                <time>2017-07-15T11:16:18Z</time>
            </trkpt>
            <trkpt lat="46.438070" lon="11.138110">
                <time>2017-07-15T11:16:19Z</time>
            </trkpt>
            <trkpt lat="46.438030" lon="11.138020">
                <time>2017-07-15T11:16:20Z</time>
            </trkpt>
            <trkpt lat="46.438000" lon="11.137950">
                <time>2017-07-15T11:16:21Z</time>
            </trkpt>
            <trkpt lat="46.437960" lon="11.137890">
                <time>2017-07-15T11:16:22Z</time>
            </trkpt>
            <trkpt lat="46.437910" lon="11.137860">
                <time>2017-07-15T11:16:23Z</time>
            </trkpt>
            <trkpt lat="46.437870" lon="11.137840">
                <time>2017-07-15T11:16:24Z</time>
            </trkpt>
            <trkpt lat="46.437810" lon="11.137830">
                <time>2017-07-15T11:16:25Z</time>
            </trkpt>
            <trkpt lat="46.437750" lon="11.137820">
                <time>2017-07-15T11:16:26Z</time>
            </trkpt>
            <trkpt lat="46.437690" lon="11.137830">
                <time>2017-07-15T11:16:27Z</time>
            </trkpt>
            <trkpt lat="46.437610" lon="11.137820">
                <time>2017-07-15T11:16:28Z</time>
            </trkpt>
            <trkpt lat="46.437550" lon="11.137820">
                <time>2017-07-15T11:16:29Z</time>
            </trkpt>
            <trkpt lat="46.437490" lon="11.137810">
                <time>2017-07-15T11:16:30Z</time>
            </trkpt>
            <trkpt lat="46.437430" lon="11.137800">
                <time>2017-07-15T11:16:31Z</time>
            </trkpt>
            <trkpt lat="46.437390" lon="11.137790">
                <time>2017-07-15T11:16:32Z</time>
            </trkpt>
            <trkpt lat="46.437350" lon="11.137770">
                <time>2017-07-15T11:16:33Z</time>
            </trkpt>
            <trkpt lat="46.437330" lon="11.137720">
                <time>2017-07-15T11:16:34Z</time>
            </trkpt>
            <trkpt lat="46.437330" lon="11.137670">
                <time>2017-07-15T11:16:35Z</time>
            </trkpt>
            <trkpt lat="46.437340" lon="11.137600">
                <time>2017-07-15T11:16:36Z</time>
            </trkpt>
            <trkpt lat="46.437360" lon="11.137530">
                <time>2017-07-15T11:16:37Z</time>
            </trkpt>
            <trkpt lat="46.437390" lon="11.137450">
                <time>2017-07-15T11:16:38Z</time>
            </trkpt>
            <trkpt lat="46.437430" lon="11.137360">
                <time>2017-07-15T11:16:39Z</time>
            </trkpt>
            <trkpt lat="46.437460" lon="11.137270">
                <time>2017-07-15T11:16:40Z</time>
            </trkpt>
            <trkpt lat="46.437500" lon="11.137170">
                <time>2017-07-15T11:16:41Z</time>
            </trkpt>
            <trkpt lat="46.437550" lon="11.137070">
                <time>2017-07-15T11:16:42Z</time>
            </trkpt>
            <trkpt lat="46.437600" lon="11.137000">
                <time>2017-07-15T11:16:43Z</time>
            </trkpt>
            <trkpt lat="46.437660" lon="11.136920">
                <time>2017-07-15T11:16:44Z</time>
            </trkpt>
            <trkpt lat="46.437730" lon="11.136880">
                <time>2017-07-15T11:16:45Z</time>
            </trkpt>
            <trkpt lat="46.437810" lon="11.136840">
                <time>2017-07-15T11:16:46Z</time>
            </trkpt>
            <trkpt lat="46.437890" lon="11.136800">
                <time>2017-07-15T11:16:47Z</time>
            </trkpt>
            <trkpt lat="46.437980" lon="11.136780">
                <time>2017-07-15T11:16:48Z</time>
            </trkpt>
            <trkpt lat="46.438070" lon="11.136750">
                <time>2017-07-15T11:16:49Z</time>
            </trkpt>
            <trkpt lat="46.438150" lon="11.136730">
                <time>2017-07-15T11:16:50Z</time>
            </trkpt>
            <trkpt lat="46.438240" lon="11.136710">
                <time>2017-07-15T11:16:51Z</time>
            </trkpt>
            <trkpt lat="46.438330" lon="11.136680">
                <time>2017-07-15T11:16:52Z</time>
            </trkpt>
            <trkpt lat="46.438400" lon="11.136650">
                <time>2017-07-15T11:16:53Z</time>
            </trkpt>
            <trkpt lat="46.438480" lon="11.136620">
                <time>2017-07-15T11:16:54Z</time>
            </trkpt>
            <trkpt lat="46.438550" lon="11.136590">
                <time>2017-07-15T11:16:55Z</time>
            </trkpt>
            <trkpt lat="46.438610" lon="11.136570">
                <time>2017-07-15T11:16:56Z</time>
            </trkpt>
            <trkpt lat="46.438680" lon="11.136560">
                <time>2017-07-15T11:16:57Z</time>
            </trkpt>
            <trkpt lat="46.438740" lon="11.136560">
                <time>2017-07-15T11:16:58Z</time>
            </trkpt>
            <trkpt lat="46.438790" lon="11.136560">
                <time>2017-07-15T11:16:59Z</time>
            </trkpt>
            <trkpt lat="46.438860" lon="11.136570">
                <time>2017-07-15T11:17:00Z</time>
            </trkpt>
            <trkpt lat="46.438920" lon="11.136590">
                <time>2017-07-15T11:17:01Z</time>
            </trkpt>
            <trkpt lat="46.438980" lon="11.136600">
                <time>2017-07-15T11:17:02Z</time>
            </trkpt>
            <trkpt lat="46.439050" lon="11.136610">
                <time>2017-07-15T11:17:03Z</time>
            </trkpt>
            <trkpt lat="46.439110" lon="11.136620">
                <time>2017-07-15T11:17:04Z</time>
            </trkpt>
            <trkpt lat="46.439170" lon="11.136590">
                <time>2017-07-15T11:17:05Z</time>
            </trkpt>
            <trkpt lat="46.439240" lon="11.136570">
                <time>2017-07-15T11:17:06Z</time>
            </trkpt>
            <trkpt lat="46.439320" lon="11.136550">
                <time>2017-07-15T11:17:07Z</time>
            </trkpt>
            <trkpt lat="46.439380" lon="11.136510">
                <time>2017-07-15T11:17:08Z</time>
            </trkpt>
            <trkpt lat="46.439420" lon="11.136470">
                <time>2017-07-15T11:17:09Z</time>
            </trkpt>
            <trkpt lat="46.439460" lon="11.136400">
                <time>2017-07-15T11:17:10Z</time>
            </trkpt>
            <trkpt lat="46.439470" lon="11.136320">
                <time>2017-07-15T11:17:11Z</time>
            </trkpt>
            <trkpt lat="46.439480" lon="11.136240">
                <time>2017-07-15T11:17:12Z</time>
            </trkpt>
            <trkpt lat="46.439470" lon="11.136170">
                <time>2017-07-15T11:17:13Z</time>
            </trkpt>
            <trkpt lat="46.439450" lon="11.136070">
                <time>2017-07-15T11:17:14Z</time>
            </trkpt>
            <trkpt lat="46.439440" lon="11.135970">
                <time>2017-07-15T11:17:15Z</time>
            </trkpt>
            <trkpt lat="46.439410" lon="11.135860">
                <time>2017-07-15T11:17:16Z</time>
            </trkpt>
            <trkpt lat="46.439380" lon="11.135760">
                <time>2017-07-15T11:17:17Z</time>
            </trkpt>
            <trkpt lat="46.439360" lon="11.135660">
                <time>2017-07-15T11:17:18Z</time>
            </trkpt>
            <trkpt lat="46.439320" lon="11.135590">
                <time>2017-07-15T11:17:19Z</time>
            </trkpt>
            <trkpt lat="46.439280" lon="11.135520">
                <time>2017-07-15T11:17:20Z</time>
            </trkpt>
            <trkpt lat="46.439230" lon="11.135450">
                <time>2017-07-15T11:17:21Z</time>
            </trkpt>
            <trkpt lat="46.439180" lon="11.135380">
                <time>2017-07-15T11:17:22Z</time>
            </trkpt>
            <trkpt lat="46.439130" lon="11.135310">
                <time>2017-07-15T11:17:23Z</time>
            </trkpt>
            <trkpt lat="46.439070" lon="11.135230">
                <time>2017-07-15T11:17:24Z</time>
            </trkpt>
            <trkpt lat="46.439020" lon="11.135180">
                <time>2017-07-15T11:17:25Z</time>
            </trkpt>
            <trkpt lat="46.438930" lon="11.135130">
                <time>2017-07-15T11:17:26Z</time>
            </trkpt>
            <trkpt lat="46.438870" lon="11.135050">
                <time>2017-07-15T11:17:27Z</time>
            </trkpt>
            <trkpt lat="46.438830" lon="11.134980">
                <time>2017-07-15T11:17:28Z</time>
            </trkpt>
            <trkpt lat="46.438790" lon="11.134910">
                <time>2017-07-15T11:17:29Z</time>
            </trkpt>
            <trkpt lat="46.438750" lon="11.134830">
                <time>2017-07-15T11:17:30Z</time>
            </trkpt>
            <trkpt lat="46.438720" lon="11.134750">
                <time>2017-07-15T11:17:31Z</time>
            </trkpt>
            <trkpt lat="46.438690" lon="11.134650">
                <time>2017-07-15T11:17:32Z</time>
            </trkpt>
            <trkpt lat="46.438670" lon="11.134560">
                <time>2017-07-15T11:17:33Z</time>
            </trkpt>
            <trkpt lat="46.438650" lon="11.134450">
                <time>2017-07-15T11:17:34Z</time>
            </trkpt>
            <trkpt lat="46.438650" lon="11.134320">
                <time>2017-07-15T11:17:35Z</time>
            </trkpt>
            <trkpt lat="46.438660" lon="11.134200">
                <time>2017-07-15T11:17:36Z</time>
            </trkpt>
            <trkpt lat="46.438670" lon="11.134090">
                <time>2017-07-15T11:17:37Z</time>
            </trkpt>
            <trkpt lat="46.438690" lon="11.133980">
                <time>2017-07-15T11:17:38Z</time>
            </trkpt>
            <trkpt lat="46.438720" lon="11.133870">
                <time>2017-07-15T11:17:39Z</time>
            </trkpt>
            <trkpt lat="46.438760" lon="11.133750">
                <time>2017-07-15T11:17:40Z</time>
            </trkpt>
            <trkpt lat="46.438820" lon="11.133640">
                <time>2017-07-15T11:17:41Z</time>
            </trkpt>
            <trkpt lat="46.438880" lon="11.133530">
                <time>2017-07-15T11:17:42Z</time>
            </trkpt>
            <trkpt lat="46.438970" lon="11.133420">
                <time>2017-07-15T11:17:43Z</time>
            </trkpt>
            <trkpt lat="46.439050" lon="11.133330">
                <time>2017-07-15T11:17:44Z</time>
            </trkpt>
            <trkpt lat="46.439140" lon="11.133230">
                <time>2017-07-15T11:17:45Z</time>
            </trkpt>
            <trkpt lat="46.439240" lon="11.133130">
                <time>2017-07-15T11:17:46Z</time>
            </trkpt>
            <trkpt lat="46.439330" lon="11.133050">
                <time>2017-07-15T11:17:47Z</time>
            </trkpt>
            <trkpt lat="46.439430" lon="11.132980">
                <time>2017-07-15T11:17:48Z</time>
            </trkpt>
            <trkpt lat="46.439540" lon="11.132920">
                <time>2017-07-15T11:17:49Z</time>
            </trkpt>
            <trkpt lat="46.439640" lon="11.132890">
                <time>2017-07-15T11:17:50Z</time>
            </trkpt>
            <trkpt lat="46.439750" lon="11.132860">
                <time>2017-07-15T11:17:51Z</time>
            </trkpt>
            <trkpt lat="46.439850" lon="11.132830">
                <time>2017-07-15T11:17:52Z</time>
            </trkpt>
            <trkpt lat="46.439960" lon="11.132790">
                <time>2017-07-15T11:17:53Z</time>
            </trkpt>
            <trkpt lat="46.440080" lon="11.132760">
                <time>2017-07-15T11:17:54Z</time>
            </trkpt>
            <trkpt lat="46.440190" lon="11.132730">
                <time>2017-07-15T11:17:55Z</time>
            </trkpt>
            <trkpt lat="46.440310" lon="11.132690">
                <time>2017-07-15T11:17:56Z</time>
            </trkpt>
            <trkpt lat="46.440410" lon="11.132640">
                <time>2017-07-15T11:17:57Z</time>
            </trkpt>
            <trkpt lat="46.440510" lon="11.132590">
                <time>2017-07-15T11:17:58Z</time>
            </trkpt>
            <trkpt lat="46.440610" lon="11.132520">
                <time>2017-07-15T11:17:59Z</time>
            </trkpt>
            <trkpt lat="46.440700" lon="11.132460">
                <time>2017-07-15T11:18:00Z</time>
            </trkpt>
            <trkpt lat="46.440790" lon="11.132380">
                <time>2017-07-15T11:18:01Z</time>
            </trkpt>
            <trkpt lat="46.440880" lon="11.132280">
                <time>2017-07-15T11:18:02Z</time>
            </trkpt>
            <trkpt lat="46.440950" lon="11.132190">
                <time>2017-07-15T11:18:03Z</time>
            </trkpt>
            <trkpt lat="46.441040" lon="11.132070">
                <time>2017-07-15T11:18:04Z</time>
            </trkpt>
            <trkpt lat="46.441110" lon="11.131960">
                <time>2017-07-15T11:18:05Z</time>
            </trkpt>
            <trkpt lat="46.441190" lon="11.131830">
                <time>2017-07-15T11:18:06Z</time>
            </trkpt>
            <trkpt lat="46.441260" lon="11.131680">
                <time>2017-07-15T11:18:07Z</time>
            </trkpt>
            <trkpt lat="46.441320" lon="11.131550">
                <time>2017-07-15T11:18:08Z</time>
            </trkpt>
            <trkpt lat="46.441380" lon="11.131410">
                <time>2017-07-15T11:18:09Z</time>
            </trkpt>
            <trkpt lat="46.441430" lon="11.131260">
                <time>2017-07-15T11:18:10Z</time>
            </trkpt>
            <trkpt lat="46.441470" lon="11.131120">
                <time>2017-07-15T11:18:11Z</time>
            </trkpt>
            <trkpt lat="46.441500" lon="11.130970">
                <time>2017-07-15T11:18:12Z</time>
            </trkpt>
            <trkpt lat="46.441510" lon="11.130840">
                <time>2017-07-15T11:18:13Z</time>
            </trkpt>
            <trkpt lat="46.441510" lon="11.130690">
                <time>2017-07-15T11:18:14Z</time>
            </trkpt>
            <trkpt lat="46.441500" lon="11.130530">
                <time>2017-07-15T11:18:15Z</time>
            </trkpt>
            <trkpt lat="46.441490" lon="11.130390">
                <time>2017-07-15T11:18:16Z</time>
            </trkpt>
            <trkpt lat="46.441460" lon="11.130230">
                <time>2017-07-15T11:18:17Z</time>
            </trkpt>
            <trkpt lat="46.441430" lon="11.130060">
                <time>2017-07-15T11:18:18Z</time>
            </trkpt>
            <trkpt lat="46.441410" lon="11.129910">
                <time>2017-07-15T11:18:19Z</time>
            </trkpt>
            <trkpt lat="46.441390" lon="11.129730">
                <time>2017-07-15T11:18:20Z</time>
            </trkpt>
            <trkpt lat="46.441380" lon="11.129580">
                <time>2017-07-15T11:18:21Z</time>
            </trkpt>
            <trkpt lat="46.441400" lon="11.129420">
                <time>2017-07-15T11:18:22Z</time>
            </trkpt>
            <trkpt lat="46.441440" lon="11.129240">
                <time>2017-07-15T11:18:23Z</time>
            </trkpt>
            <trkpt lat="46.441500" lon="11.129090">
                <time>2017-07-15T11:18:24Z</time>
            </trkpt>
            <trkpt lat="46.441590" lon="11.128960">
                <time>2017-07-15T11:18:25Z</time>
            </trkpt>
            <trkpt lat="46.441690" lon="11.128860">
                <time>2017-07-15T11:18:26Z</time>
            </trkpt>
            <trkpt lat="46.441790" lon="11.128790">
                <time>2017-07-15T11:18:27Z</time>
            </trkpt>
            <trkpt lat="46.441900" lon="11.128720">
                <time>2017-07-15T11:18:28Z</time>
            </trkpt>
            <trkpt lat="46.441990" lon="11.128660">
                <time>2017-07-15T11:18:29Z</time>
            </trkpt>
            <trkpt lat="46.442070" lon="11.128600">
                <time>2017-07-15T11:18:30Z</time>
            </trkpt>
            <trkpt lat="46.442120" lon="11.128520">
                <time>2017-07-15T11:18:31Z</time>
            </trkpt>
            <trkpt lat="46.442140" lon="11.128420">
                <time>2017-07-15T11:18:32Z</time>
            </trkpt>
            <trkpt lat="46.442130" lon="11.128320">
                <time>2017-07-15T11:18:33Z</time>
            </trkpt>
            <trkpt lat="46.442080" lon="11.128230">
                <time>2017-07-15T11:18:34Z</time>
            </trkpt>
            <trkpt lat="46.442000" lon="11.128190">
                <time>2017-07-15T11:18:35Z</time>
            </trkpt>
            <trkpt lat="46.441900" lon="11.128180">
                <time>2017-07-15T11:18:36Z</time>
            </trkpt>
            <trkpt lat="46.441790" lon="11.128190">
                <time>2017-07-15T11:18:37Z</time>
            </trkpt>
            <trkpt lat="46.441670" lon="11.128200">
                <time>2017-07-15T11:18:38Z</time>
            </trkpt>
            <trkpt lat="46.441530" lon="11.128190">
                <time>2017-07-15T11:18:39Z</time>
            </trkpt>
            <trkpt lat="46.441400" lon="11.128170">
                <time>2017-07-15T11:18:40Z</time>
            </trkpt>
            <trkpt lat="46.441270" lon="11.128120">
                <time>2017-07-15T11:18:41Z</time>
            </trkpt>
            <trkpt lat="46.441130" lon="11.128040">
                <time>2017-07-15T11:18:42Z</time>
            </trkpt>
            <trkpt lat="46.440990" lon="11.127920">
                <time>2017-07-15T11:18:43Z</time>
            </trkpt>
            <trkpt lat="46.440840" lon="11.127790">
                <time>2017-07-15T11:18:44Z</time>
            </trkpt>
            <trkpt lat="46.440710" lon="11.127660">
                <time>2017-07-15T11:18:45Z</time>
            </trkpt>
            <trkpt lat="46.440570" lon="11.127540">
                <time>2017-07-15T11:18:46Z</time>
            </trkpt>
            <trkpt lat="46.440420" lon="11.127420">
                <time>2017-07-15T11:18:47Z</time>
            </trkpt>
            <trkpt lat="46.440280" lon="11.127350">
                <time>2017-07-15T11:18:48Z</time>
            </trkpt>
            <trkpt lat="46.440130" lon="11.127310">
                <time>2017-07-15T11:18:49Z</time>
            </trkpt>
            <trkpt lat="46.439960" lon="11.127310">
                <time>2017-07-15T11:18:50Z</time>
            </trkpt>
            <trkpt lat="46.439820" lon="11.127310">
                <time>2017-07-15T11:18:51Z</time>
            </trkpt>
            <trkpt lat="46.439660" lon="11.127290">
                <time>2017-07-15T11:18:52Z</time>
            </trkpt>
            <trkpt lat="46.439510" lon="11.127230">
                <time>2017-07-15T11:18:53Z</time>
            </trkpt>
            <trkpt lat="46.439380" lon="11.127120">
                <time>2017-07-15T11:18:54Z</time>
            </trkpt>
            <trkpt lat="46.439230" lon="11.126960">
                <time>2017-07-15T11:18:55Z</time>
            </trkpt>
            <trkpt lat="46.439100" lon="11.126800">
                <time>2017-07-15T11:18:56Z</time>
            </trkpt>
            <trkpt lat="46.438960" lon="11.126620">
                <time>2017-07-15T11:18:57Z</time>
            </trkpt>
            <trkpt lat="46.438810" lon="11.126450">
                <time>2017-07-15T11:18:58Z</time>
            </trkpt>
            <trkpt lat="46.438670" lon="11.126290">
                <time>2017-07-15T11:18:59Z</time>
            </trkpt>
            <trkpt lat="46.438520" lon="11.126130">
                <time>2017-07-15T11:19:00Z</time>
            </trkpt>
            <trkpt lat="46.438390" lon="11.126030">
                <time>2017-07-15T11:19:01Z</time>
            </trkpt>
            <trkpt lat="46.438250" lon="11.125920">
                <time>2017-07-15T11:19:02Z</time>
            </trkpt>
            <trkpt lat="46.438110" lon="11.125820">
                <time>2017-07-15T11:19:03Z</time>
            </trkpt>
            <trkpt lat="46.438000" lon="11.125720">
                <time>2017-07-15T11:19:04Z</time>
            </trkpt>
            <trkpt lat="46.437880" lon="11.125620">
                <time>2017-07-15T11:19:05Z</time>
            </trkpt>
            <trkpt lat="46.437750" lon="11.125540">
                <time>2017-07-15T11:19:06Z</time>
            </trkpt>
            <trkpt lat="46.437630" lon="11.125510">
                <time>2017-07-15T11:19:07Z</time>
            </trkpt>
            <trkpt lat="46.437490" lon="11.125490">
                <time>2017-07-15T11:19:08Z</time>
            </trkpt>
            <trkpt lat="46.437370" lon="11.125480">
                <time>2017-07-15T11:19:09Z</time>
            </trkpt>
            <trkpt lat="46.437260" lon="11.125470">
                <time>2017-07-15T11:19:10Z</time>
            </trkpt>
            <trkpt lat="46.437160" lon="11.125450">
                <time>2017-07-15T11:19:11Z</time>
            </trkpt>
            <trkpt lat="46.437080" lon="11.125390">
                <time>2017-07-15T11:19:12Z</time>
            </trkpt>
            <trkpt lat="46.437000" lon="11.125320">
                <time>2017-07-15T11:19:13Z</time>
            </trkpt>
            <trkpt lat="46.436970" lon="11.125200">
                <time>2017-07-15T11:19:14Z</time>
            </trkpt>
            <trkpt lat="46.437020" lon="11.125060">
                <time>2017-07-15T11:19:15Z</time>
            </trkpt>
            <trkpt lat="46.437090" lon="11.124910">
                <time>2017-07-15T11:19:16Z</time>
            </trkpt>
            <trkpt lat="46.437170" lon="11.124790">
                <time>2017-07-15T11:19:17Z</time>
            </trkpt>
            <trkpt lat="46.437260" lon="11.124640">
                <time>2017-07-15T11:19:18Z</time>
            </trkpt>
            <trkpt lat="46.437340" lon="11.124450">
                <time>2017-07-15T11:19:19Z</time>
            </trkpt>
            <trkpt lat="46.437400" lon="11.124270">
                <time>2017-07-15T11:19:20Z</time>
            </trkpt>
            <trkpt lat="46.437460" lon="11.124090">
                <time>2017-07-15T11:19:21Z</time>
            </trkpt>
            <trkpt lat="46.437550" lon="11.123950">
                <time>2017-07-15T11:19:22Z</time>
            </trkpt>
            <trkpt lat="46.437650" lon="11.123840">
                <time>2017-07-15T11:19:23Z</time>
            </trkpt>
            <trkpt lat="46.437770" lon="11.123750">
                <time>2017-07-15T11:19:24Z</time>
            </trkpt>
            <trkpt lat="46.437890" lon="11.123670">
                <time>2017-07-15T11:19:25Z</time>
            </trkpt>
            <trkpt lat="46.438020" lon="11.123590">
                <time>2017-07-15T11:19:26Z</time>
            </trkpt>
            <trkpt lat="46.438150" lon="11.123490">
                <time>2017-07-15T11:19:27Z</time>
            </trkpt>
            <trkpt lat="46.438260" lon="11.123380">
                <time>2017-07-15T11:19:28Z</time>
            </trkpt>
            <trkpt lat="46.438360" lon="11.123270">
                <time>2017-07-15T11:19:29Z</time>
            </trkpt>
            <trkpt lat="46.438450" lon="11.123150">
                <time>2017-07-15T11:19:30Z</time>
            </trkpt>
            <trkpt lat="46.438550" lon="11.123080">
                <time>2017-07-15T11:19:31Z</time>
            </trkpt>
            <trkpt lat="46.438660" lon="11.123040">
                <time>2017-07-15T11:19:32Z</time>
            </trkpt>
            <trkpt lat="46.438770" lon="11.123040">
                <time>2017-07-15T11:19:33Z</time>
            </trkpt>
            <trkpt lat="46.438890" lon="11.123080">
                <time>2017-07-15T11:19:34Z</time>
            </trkpt>
            <trkpt lat="46.439040" lon="11.123110">
                <time>2017-07-15T11:19:35Z</time>
            </trkpt>
            <trkpt lat="46.439180" lon="11.123130">
                <time>2017-07-15T11:19:36Z</time>
            </trkpt>
            <trkpt lat="46.439340" lon="11.123110">
                <time>2017-07-15T11:19:37Z</time>
            </trkpt>
            <trkpt lat="46.439510" lon="11.123060">
                <time>2017-07-15T11:19:38Z</time>
            </trkpt>
            <trkpt lat="46.439650" lon="11.123000">
                <time>2017-07-15T11:19:39Z</time>
            </trkpt>
            <trkpt lat="46.439800" lon="11.122950">
                <time>2017-07-15T11:19:40Z</time>
            </trkpt>
            <trkpt lat="46.439930" lon="11.122920">
                <time>2017-07-15T11:19:41Z</time>
            </trkpt>
            <trkpt lat="46.440070" lon="11.122920">
                <time>2017-07-15T11:19:42Z</time>
            </trkpt>
            <trkpt lat="46.440210" lon="11.122930">
                <time>2017-07-15T11:19:43Z</time>
            </trkpt>
            <trkpt lat="46.440330" lon="11.122940">
                <time>2017-07-15T11:19:44Z</time>
            </trkpt>
            <trkpt lat="46.440440" lon="11.122950">
                <time>2017-07-15T11:19:45Z</time>
            </trkpt>
            <trkpt lat="46.440540" lon="11.123000">
                <time>2017-07-15T11:19:46Z</time>
            </trkpt>
            <trkpt lat="46.440600" lon="11.123080">
                <time>2017-07-15T11:19:47Z</time>
            </trkpt>
            <trkpt lat="46.440630" lon="11.123220">
                <time>2017-07-15T11:19:48Z</time>
            </trkpt>
            <trkpt lat="46.440630" lon="11.123370">
                <time>2017-07-15T11:19:49Z</time>
            </trkpt>
            <trkpt lat="46.440630" lon="11.123560">
                <time>2017-07-15T11:19:50Z</time>
            </trkpt>
            <trkpt lat="46.440610" lon="11.123800">
                <time>2017-07-15T11:19:51Z</time>
            </trkpt>
            <trkpt lat="46.440590" lon="11.124000">
                <time>2017-07-15T11:19:52Z</time>
            </trkpt>
            <trkpt lat="46.440570" lon="11.124190">
                <time>2017-07-15T11:19:53Z</time>
            </trkpt>
            <trkpt lat="46.440560" lon="11.124390">
                <time>2017-07-15T11:19:54Z</time>
            </trkpt>
            <trkpt lat="46.440570" lon="11.124550">
                <time>2017-07-15T11:19:55Z</time>
            </trkpt>
            <trkpt lat="46.440610" lon="11.124710">
                <time>2017-07-15T11:19:56Z</time>
            </trkpt>
            <trkpt lat="46.440720" lon="11.124780">
                <time>2017-07-15T11:19:57Z</time>
            </trkpt>
            <trkpt lat="46.440820" lon="11.124840">
                <time>2017-07-15T11:19:58Z</time>
            </trkpt>
            <trkpt lat="46.440950" lon="11.124850">
                <time>2017-07-15T11:19:59Z</time>
            </trkpt>
            <trkpt lat="46.441080" lon="11.124770">
                <time>2017-07-15T11:20:00Z</time>
            </trkpt>
            <trkpt lat="46.441210" lon="11.124590">
                <time>2017-07-15T11:20:01Z</time>
            </trkpt>
            <trkpt lat="46.441350" lon="11.124460">
                <time>2017-07-15T11:20:02Z</time>
            </trkpt>
            <trkpt lat="46.441490" lon="11.124320">
                <time>2017-07-15T11:20:03Z</time>
            </trkpt>
            <trkpt lat="46.441640" lon="11.124150">
                <time>2017-07-15T11:20:04Z</time>
            </trkpt>
            <trkpt lat="46.441770" lon="11.124000">
                <time>2017-07-15T11:20:05Z</time>
            </trkpt>
            <trkpt lat="46.441910" lon="11.123840">
                <time>2017-07-15T11:20:06Z</time>
            </trkpt>
            <trkpt lat="46.442030" lon="11.123700">
                <time>2017-07-15T11:20:07Z</time>
            </trkpt>
            <trkpt lat="46.442140" lon="11.123620">
                <time>2017-07-15T11:20:08Z</time>
            </trkpt>
            <trkpt lat="46.442260" lon="11.123580">
                <time>2017-07-15T11:20:09Z</time>
            </trkpt>
            <trkpt lat="46.442390" lon="11.123600">
                <time>2017-07-15T11:20:10Z</time>
            </trkpt>
            <trkpt lat="46.442520" lon="11.123670">
                <time>2017-07-15T11:20:11Z</time>
            </trkpt>
            <trkpt lat="46.442660" lon="11.123750">
                <time>2017-07-15T11:20:12Z</time>
            </trkpt>
            <trkpt lat="46.442760" lon="11.123780">
                <time>2017-07-15T11:20:13Z</time>
            </trkpt>
            <trkpt lat="46.442890" lon="11.123770">
                <time>2017-07-15T11:20:14Z</time>
            </trkpt>
            <trkpt lat="46.442990" lon="11.123690">
                <time>2017-07-15T11:20:15Z</time>
            </trkpt>
            <trkpt lat="46.443060" lon="11.123570">
                <time>2017-07-15T11:20:16Z</time>
            </trkpt>
            <trkpt lat="46.443110" lon="11.123400">
                <time>2017-07-15T11:20:17Z</time>
            </trkpt>
            <trkpt lat="46.443130" lon="11.123210">
                <time>2017-07-15T11:20:18Z</time>
            </trkpt>
            <trkpt lat="46.443140" lon="11.122980">
                <time>2017-07-15T11:20:19Z</time>
            </trkpt>
            <trkpt lat="46.443160" lon="11.122750">
                <time>2017-07-15T11:20:20Z</time>
            </trkpt>
            <trkpt lat="46.443180" lon="11.122550">
                <time>2017-07-15T11:20:21Z</time>
            </trkpt>
            <trkpt lat="46.443210" lon="11.122360">
                <time>2017-07-15T11:20:22Z</time>
            </trkpt>
            <trkpt lat="46.443270" lon="11.122180">
                <time>2017-07-15T11:20:23Z</time>
            </trkpt>
            <trkpt lat="46.443360" lon="11.122040">
                <time>2017-07-15T11:20:24Z</time>
            </trkpt>
            <trkpt lat="46.443470" lon="11.121930">
                <time>2017-07-15T11:20:25Z</time>
            </trkpt>
            <trkpt lat="46.443590" lon="11.121820">
                <time>2017-07-15T11:20:26Z</time>
            </trkpt>
            <trkpt lat="46.443690" lon="11.121740">
                <time>2017-07-15T11:20:27Z</time>
            </trkpt>
            <trkpt lat="46.443790" lon="11.121660">
                <time>2017-07-15T11:20:28Z</time>
            </trkpt>
            <trkpt lat="46.443890" lon="11.121640">
                <time>2017-07-15T11:20:29Z</time>
            </trkpt>
            <trkpt lat="46.443990" lon="11.121650">
                <time>2017-07-15T11:20:30Z</time>
            </trkpt>
            <trkpt lat="46.444090" lon="11.121680">
                <time>2017-07-15T11:20:31Z</time>
            </trkpt>
            <trkpt lat="46.444180" lon="11.121710">
                <time>2017-07-15T11:20:32Z</time>
            </trkpt>
            <trkpt lat="46.444280" lon="11.121730">
                <time>2017-07-15T11:20:33Z</time>
            </trkpt>
            <trkpt lat="46.444370" lon="11.121730">
                <time>2017-07-15T11:20:34Z</time>
            </trkpt>
            <trkpt lat="46.444460" lon="11.121700">
                <time>2017-07-15T11:20:35Z</time>
            </trkpt>
            <trkpt lat="46.444550" lon="11.121630">
                <time>2017-07-15T11:20:36Z</time>
            </trkpt>
            <trkpt lat="46.444620" lon="11.121530">
                <time>2017-07-15T11:20:37Z</time>
            </trkpt>
            <trkpt lat="46.444690" lon="11.121390">
                <time>2017-07-15T11:20:38Z</time>
            </trkpt>
            <trkpt lat="46.444760" lon="11.121220">
                <time>2017-07-15T11:20:39Z</time>
            </trkpt>
            <trkpt lat="46.444830" lon="11.121080">
                <time>2017-07-15T11:20:40Z</time>
            </trkpt>
            <trkpt lat="46.444930" lon="11.120940">
                <time>2017-07-15T11:20:41Z</time>
            </trkpt>
            <trkpt lat="46.445060" lon="11.120860">
                <time>2017-07-15T11:20:42Z</time>
            </trkpt>
            <trkpt lat="46.445190" lon="11.120820">
                <time>2017-07-15T11:20:43Z</time>
            </trkpt>
            <trkpt lat="46.445350" lon="11.120780">
                <time>2017-07-15T11:20:44Z</time>
            </trkpt>
            <trkpt lat="46.445490" lon="11.120700">
                <time>2017-07-15T11:20:45Z</time>
            </trkpt>
            <trkpt lat="46.445620" lon="11.120580">
                <time>2017-07-15T11:20:46Z</time>
            </trkpt>
            <trkpt lat="46.445770" lon="11.120440">
                <time>2017-07-15T11:20:47Z</time>
            </trkpt>
            <trkpt lat="46.445910" lon="11.120350">
                <time>2017-07-15T11:20:48Z</time>
            </trkpt>
            <trkpt lat="46.446060" lon="11.120260">
                <time>2017-07-15T11:20:49Z</time>
            </trkpt>
            <trkpt lat="46.446190" lon="11.120200">
                <time>2017-07-15T11:20:50Z</time>
            </trkpt>
            <trkpt lat="46.446320" lon="11.120190">
                <time>2017-07-15T11:20:51Z</time>
            </trkpt>
            <trkpt lat="46.446450" lon="11.120230">
                <time>2017-07-15T11:20:52Z</time>
            </trkpt>
            <trkpt lat="46.446550" lon="11.120260">
                <time>2017-07-15T11:20:53Z</time>
            </trkpt>
            <trkpt lat="46.446650" lon="11.120260">
                <time>2017-07-15T11:20:54Z</time>
            </trkpt>
            <trkpt lat="46.446750" lon="11.120230">
                <time>2017-07-15T11:20:55Z</time>
            </trkpt>
            <trkpt lat="46.446820" lon="11.120160">
                <time>2017-07-15T11:20:56Z</time>
            </trkpt>
            <trkpt lat="46.446880" lon="11.120050">
                <time>2017-07-15T11:20:57Z</time>
            </trkpt>
            <trkpt lat="46.446870" lon="11.119860">
                <time>2017-07-15T11:20:58Z</time>
            </trkpt>
            <trkpt lat="46.446820" lon="11.119690">
                <time>2017-07-15T11:20:59Z</time>
            </trkpt>
            <trkpt lat="46.446670" lon="11.119450">
                <time>2017-07-15T11:21:00Z</time>
            </trkpt>
            <trkpt lat="46.446590" lon="11.119300">
                <time>2017-07-15T11:21:01Z</time>
            </trkpt>
            <trkpt lat="46.446480" lon="11.119180">
                <time>2017-07-15T11:21:02Z</time>
            </trkpt>
            <trkpt lat="46.446350" lon="11.119100">
                <time>2017-07-15T11:21:03Z</time>
            </trkpt>
            <trkpt lat="46.446240" lon="11.119060">
                <time>2017-07-15T11:21:04Z</time>
            </trkpt>
            <trkpt lat="46.446070" lon="11.119080">
                <time>2017-07-15T11:21:05Z</time>
            </trkpt>
            <trkpt lat="46.445950" lon="11.119010">
                <time>2017-07-15T11:21:06Z</time>
            </trkpt>
            <trkpt lat="46.445820" lon="11.118970">
                <time>2017-07-15T11:21:07Z</time>
            </trkpt>
            <trkpt lat="46.445690" lon="11.118870">
                <time>2017-07-15T11:21:08Z</time>
            </trkpt>
            <trkpt lat="46.445620" lon="11.118740">
                <time>2017-07-15T11:21:09Z</time>
            </trkpt>
            <trkpt lat="46.445590" lon="11.118560">
                <time>2017-07-15T11:21:10Z</time>
            </trkpt>
            <trkpt lat="46.445580" lon="11.118320">
                <time>2017-07-15T11:21:11Z</time>
            </trkpt>
            <trkpt lat="46.445640" lon="11.118040">
                <time>2017-07-15T11:21:12Z</time>
            </trkpt>
            <trkpt lat="46.445640" lon="11.117790">
                <time>2017-07-15T11:21:13Z</time>
            </trkpt>
            <trkpt lat="46.445590" lon="11.117560">
                <time>2017-07-15T11:21:14Z</time>
            </trkpt>
            <trkpt lat="46.445520" lon="11.117360">
                <time>2017-07-15T11:21:15Z</time>
            </trkpt>
            <trkpt lat="46.445430" lon="11.117150">
                <time>2017-07-15T11:21:16Z</time>
            </trkpt>
            <trkpt lat="46.445350" lon="11.116990">
                <time>2017-07-15T11:21:17Z</time>
            </trkpt>
            <trkpt lat="46.445220" lon="11.116860">
                <time>2017-07-15T11:21:18Z</time>
            </trkpt>
            <trkpt lat="46.445060" lon="11.116790">
                <time>2017-07-15T11:21:19Z</time>
            </trkpt>
            <trkpt lat="46.444900" lon="11.116760">
                <time>2017-07-15T11:21:20Z</time>
            </trkpt>
            <trkpt lat="46.444720" lon="11.116780">
                <time>2017-07-15T11:21:21Z</time>
            </trkpt>
            <trkpt lat="46.444560" lon="11.116830">
                <time>2017-07-15T11:21:22Z</time>
            </trkpt>
            <trkpt lat="46.444400" lon="11.116970">
                <time>2017-07-15T11:21:23Z</time>
            </trkpt>
            <trkpt lat="46.444230" lon="11.117130">
                <time>2017-07-15T11:21:24Z</time>
            </trkpt>
            <trkpt lat="46.444070" lon="11.117270">
                <time>2017-07-15T11:21:25Z</time>
            </trkpt>
            <trkpt lat="46.443910" lon="11.117410">
                <time>2017-07-15T11:21:26Z</time>
            </trkpt>
            <trkpt lat="46.443740" lon="11.117530">
                <time>2017-07-15T11:21:27Z</time>
            </trkpt>
            <trkpt lat="46.443600" lon="11.117640">
                <time>2017-07-15T11:21:28Z</time>
            </trkpt>
            <trkpt lat="46.443450" lon="11.117740">
                <time>2017-07-15T11:21:29Z</time>
            </trkpt>
            <trkpt lat="46.443310" lon="11.117810">
                <time>2017-07-15T11:21:30Z</time>
            </trkpt>
            <trkpt lat="46.443160" lon="11.117830">
                <time>2017-07-15T11:21:31Z</time>
            </trkpt>
            <trkpt lat="46.443000" lon="11.117820">
                <time>2017-07-15T11:21:32Z</time>
            </trkpt>
            <trkpt lat="46.442860" lon="11.117690">
                <time>2017-07-15T11:21:33Z</time>
            </trkpt>
            <trkpt lat="46.442720" lon="11.117520">
                <time>2017-07-15T11:21:34Z</time>
            </trkpt>
            <trkpt lat="46.442590" lon="11.117320">
                <time>2017-07-15T11:21:35Z</time>
            </trkpt>
            <trkpt lat="46.442480" lon="11.117130">
                <time>2017-07-15T11:21:36Z</time>
            </trkpt>
            <trkpt lat="46.442390" lon="11.116910">
                <time>2017-07-15T11:21:37Z</time>
            </trkpt>
            <trkpt lat="46.442290" lon="11.116680">
                <time>2017-07-15T11:21:38Z</time>
            </trkpt>
            <trkpt lat="46.442200" lon="11.116420">
                <time>2017-07-15T11:21:39Z</time>
            </trkpt>
            <trkpt lat="46.442110" lon="11.116120">
                <time>2017-07-15T11:21:40Z</time>
            </trkpt>
            <trkpt lat="46.442030" lon="11.115870">
                <time>2017-07-15T11:21:41Z</time>
            </trkpt>
            <trkpt lat="46.441940" lon="11.115610">
                <time>2017-07-15T11:21:42Z</time>
            </trkpt>
            <trkpt lat="46.441850" lon="11.115340">
                <time>2017-07-15T11:21:43Z</time>
            </trkpt>
            <trkpt lat="46.441760" lon="11.115110">
                <time>2017-07-15T11:21:44Z</time>
            </trkpt>
            <trkpt lat="46.441680" lon="11.114870">
                <time>2017-07-15T11:21:45Z</time>
            </trkpt>
            <trkpt lat="46.441610" lon="11.114650">
                <time>2017-07-15T11:21:46Z</time>
            </trkpt>
            <trkpt lat="46.441570" lon="11.114470">
                <time>2017-07-15T11:21:47Z</time>
            </trkpt>
            <trkpt lat="46.441570" lon="11.114280">
                <time>2017-07-15T11:21:48Z</time>
            </trkpt>
            <trkpt lat="46.441610" lon="11.114120">
                <time>2017-07-15T11:21:49Z</time>
            </trkpt>
            <trkpt lat="46.441680" lon="11.113980">
                <time>2017-07-15T11:21:50Z</time>
            </trkpt>
            <trkpt lat="46.441790" lon="11.113850">
                <time>2017-07-15T11:21:51Z</time>
            </trkpt>
            <trkpt lat="46.441890" lon="11.113740">
                <time>2017-07-15T11:21:52Z</time>
            </trkpt>
            <trkpt lat="46.441970" lon="11.113620">
                <time>2017-07-15T11:21:53Z</time>
            </trkpt>
            <trkpt lat="46.442030" lon="11.113470">
                <time>2017-07-15T11:21:54Z</time>
            </trkpt>
            <trkpt lat="46.442060" lon="11.113270">
                <time>2017-07-15T11:21:55Z</time>
            </trkpt>
            <trkpt lat="46.442040" lon="11.113030">
                <time>2017-07-15T11:21:56Z</time>
            </trkpt>
            <trkpt lat="46.441910" lon="11.112760">
                <time>2017-07-15T11:21:57Z</time>
            </trkpt>
            <trkpt lat="46.441840" lon="11.112520">
                <time>2017-07-15T11:21:58Z</time>
            </trkpt>
            <trkpt lat="46.441750" lon="11.112300">
                <time>2017-07-15T11:21:59Z</time>
            </trkpt>
            <trkpt lat="46.441640" lon="11.112130">
                <time>2017-07-15T11:22:00Z</time>
            </trkpt>
            <trkpt lat="46.441520" lon="11.111950">
                <time>2017-07-15T11:22:01Z</time>
            </trkpt>
            <trkpt lat="46.441390" lon="11.111750">
                <time>2017-07-15T11:22:02Z</time>
            </trkpt>
            <trkpt lat="46.441300" lon="11.111560">
                <time>2017-07-15T11:22:03Z</time>
            </trkpt>
            <trkpt lat="46.441210" lon="11.111350">
                <time>2017-07-15T11:22:04Z</time>
            </trkpt>
            <trkpt lat="46.441160" lon="11.111150">
                <time>2017-07-15T11:22:05Z</time>
            </trkpt>
            <trkpt lat="46.441110" lon="11.110950">
                <time>2017-07-15T11:22:06Z</time>
            </trkpt>
            <trkpt lat="46.441070" lon="11.110780">
                <time>2017-07-15T11:22:07Z</time>
            </trkpt>
            <trkpt lat="46.441030" lon="11.110660">
                <time>2017-07-15T11:22:08Z</time>
            </trkpt>
            <trkpt lat="46.440980" lon="11.110570">
                <time>2017-07-15T11:22:09Z</time>
            </trkpt>
            <trkpt lat="46.440900" lon="11.110570">
                <time>2017-07-15T11:22:10Z</time>
            </trkpt>
            <trkpt lat="46.440770" lon="11.110740">
                <time>2017-07-15T11:22:11Z</time>
            </trkpt>
            <trkpt lat="46.440670" lon="11.110870">
                <time>2017-07-15T11:22:12Z</time>
            </trkpt>
            <trkpt lat="46.440580" lon="11.110990">
                <time>2017-07-15T11:22:13Z</time>
            </trkpt>
            <trkpt lat="46.440480" lon="11.111110">
                <time>2017-07-15T11:22:14Z</time>
            </trkpt>
            <trkpt lat="46.440380" lon="11.111250">
                <time>2017-07-15T11:22:15Z</time>
            </trkpt>
            <trkpt lat="46.440230" lon="11.111290">
                <time>2017-07-15T11:22:16Z</time>
            </trkpt>
            <trkpt lat="46.440070" lon="11.111330">
                <time>2017-07-15T11:22:17Z</time>
            </trkpt>
            <trkpt lat="46.439880" lon="11.111380">
                <time>2017-07-15T11:22:18Z</time>
            </trkpt>
            <trkpt lat="46.439710" lon="11.111420">
                <time>2017-07-15T11:22:19Z</time>
            </trkpt>
            <trkpt lat="46.439520" lon="11.111460">
                <time>2017-07-15T11:22:20Z</time>
            </trkpt>
            <trkpt lat="46.439350" lon="11.111500">
                <time>2017-07-15T11:22:21Z</time>
            </trkpt>
            <trkpt lat="46.439160" lon="11.111500">
                <time>2017-07-15T11:22:22Z</time>
            </trkpt>
            <trkpt lat="46.438950" lon="11.111480">
                <time>2017-07-15T11:22:23Z</time>
            </trkpt>
            <trkpt lat="46.438760" lon="11.111450">
                <time>2017-07-15T11:22:24Z</time>
            </trkpt>
            <trkpt lat="46.438570" lon="11.111390">
                <time>2017-07-15T11:22:25Z</time>
            </trkpt>
            <trkpt lat="46.438370" lon="11.111300">
                <time>2017-07-15T11:22:26Z</time>
            </trkpt>
            <trkpt lat="46.438190" lon="11.111190">
                <time>2017-07-15T11:22:27Z</time>
            </trkpt>
            <trkpt lat="46.438010" lon="11.111070">
                <time>2017-07-15T11:22:28Z</time>
            </trkpt>
            <trkpt lat="46.437880" lon="11.110960">
                <time>2017-07-15T11:22:29Z</time>
            </trkpt>
            <trkpt lat="46.437770" lon="11.110850">
                <time>2017-07-15T11:22:30Z</time>
            </trkpt>
            <trkpt lat="46.437670" lon="11.110710">
                <time>2017-07-15T11:22:31Z</time>
            </trkpt>
            <trkpt lat="46.437620" lon="11.110560">
                <time>2017-07-15T11:22:32Z</time>
            </trkpt>
            <trkpt lat="46.437610" lon="11.110400">
                <time>2017-07-15T11:22:33Z</time>
            </trkpt>
            <trkpt lat="46.437630" lon="11.110210">
                <time>2017-07-15T11:22:34Z</time>
            </trkpt>
            <trkpt lat="46.437680" lon="11.110030">
                <time>2017-07-15T11:22:35Z</time>
            </trkpt>
            <trkpt lat="46.437760" lon="11.109820">
                <time>2017-07-15T11:22:36Z</time>
            </trkpt>
            <trkpt lat="46.437830" lon="11.109620">
                <time>2017-07-15T11:22:37Z</time>
            </trkpt>
            <trkpt lat="46.437900" lon="11.109410">
                <time>2017-07-15T11:22:38Z</time>
            </trkpt>
            <trkpt lat="46.437940" lon="11.109190">
                <time>2017-07-15T11:22:39Z</time>
            </trkpt>
            <trkpt lat="46.437930" lon="11.108980">
                <time>2017-07-15T11:22:40Z</time>
            </trkpt>
            <trkpt lat="46.437890" lon="11.108750">
                <time>2017-07-15T11:22:41Z</time>
            </trkpt>
            <trkpt lat="46.437830" lon="11.108530">
                <time>2017-07-15T11:22:42Z</time>
            </trkpt>
            <trkpt lat="46.437770" lon="11.108320">
                <time>2017-07-15T11:22:43Z</time>
            </trkpt>
            <trkpt lat="46.437720" lon="11.108120">
                <time>2017-07-15T11:22:44Z</time>
            </trkpt>
            <trkpt lat="46.437670" lon="11.107980">
                <time>2017-07-15T11:22:45Z</time>
            </trkpt>
            <trkpt lat="46.437610" lon="11.107860">
                <time>2017-07-15T11:22:46Z</time>
            </trkpt>
            <trkpt lat="46.437540" lon="11.107770">
                <time>2017-07-15T11:22:47Z</time>
            </trkpt>
            <trkpt lat="46.437450" lon="11.107730">
                <time>2017-07-15T11:22:48Z</time>
            </trkpt>
            <trkpt lat="46.437360" lon="11.107750">
                <time>2017-07-15T11:22:49Z</time>
            </trkpt>
            <trkpt lat="46.437230" lon="11.107850">
                <time>2017-07-15T11:22:50Z</time>
            </trkpt>
            <trkpt lat="46.437090" lon="11.107950">
                <time>2017-07-15T11:22:51Z</time>
            </trkpt>
            <trkpt lat="46.436910" lon="11.108050">
                <time>2017-07-15T11:22:52Z</time>
            </trkpt>
            <trkpt lat="46.436760" lon="11.108140">
                <time>2017-07-15T11:22:53Z</time>
            </trkpt>
            <trkpt lat="46.436600" lon="11.108240">
                <time>2017-07-15T11:22:54Z</time>
            </trkpt>
            <trkpt lat="46.436440" lon="11.108340">
                <time>2017-07-15T11:22:55Z</time>
            </trkpt>
            <trkpt lat="46.436320" lon="11.108430">
                <time>2017-07-15T11:22:56Z</time>
            </trkpt>
            <trkpt lat="46.436200" lon="11.108510">
                <time>2017-07-15T11:22:57Z</time>
            </trkpt>
            <trkpt lat="46.436080" lon="11.108580">
                <time>2017-07-15T11:22:58Z</time>
            </trkpt>
            <trkpt lat="46.435950" lon="11.108630">
                <time>2017-07-15T11:22:59Z</time>
            </trkpt>
            <trkpt lat="46.435800" lon="11.108650">
                <time>2017-07-15T11:23:00Z</time>
            </trkpt>
            <trkpt lat="46.435660" lon="11.108670">
                <time>2017-07-15T11:23:01Z</time>
            </trkpt>
            <trkpt lat="46.435520" lon="11.108690">
                <time>2017-07-15T11:23:02Z</time>
            </trkpt>
            <trkpt lat="46.435380" lon="11.108730">
                <time>2017-07-15T11:23:03Z</time>
            </trkpt>
            <trkpt lat="46.435260" lon="11.108810">
                <time>2017-07-15T11:23:04Z</time>
            </trkpt>
            <trkpt lat="46.435140" lon="11.108890">
                <time>2017-07-15T11:23:05Z</time>
            </trkpt>
            <trkpt lat="46.435020" lon="11.108970">
                <time>2017-07-15T11:23:06Z</time>
            </trkpt>
            <trkpt lat="46.434910" lon="11.109040">
                <time>2017-07-15T11:23:07Z</time>
            </trkpt>
            <trkpt lat="46.434790" lon="11.109100">
                <time>2017-07-15T11:23:08Z</time>
            </trkpt>
            <trkpt lat="46.434680" lon="11.109130">
                <time>2017-07-15T11:23:09Z</time>
            </trkpt>
            <trkpt lat="46.434560" lon="11.109130">
                <time>2017-07-15T11:23:10Z</time>
            </trkpt>
            <trkpt lat="46.434420" lon="11.109060">
                <time>2017-07-15T11:23:11Z</time>
            </trkpt>
            <trkpt lat="46.434310" lon="11.108970">
                <time>2017-07-15T11:23:12Z</time>
            </trkpt>
            <trkpt lat="46.434210" lon="11.108850">
                <time>2017-07-15T11:23:13Z</time>
            </trkpt>
            <trkpt lat="46.434130" lon="11.108700">
                <time>2017-07-15T11:23:14Z</time>
            </trkpt>
            <trkpt lat="46.434060" lon="11.108570">
                <time>2017-07-15T11:23:15Z</time>
            </trkpt>
            <trkpt lat="46.433960" lon="11.108450">
                <time>2017-07-15T11:23:16Z</time>
            </trkpt>
            <trkpt lat="46.433850" lon="11.108380">
                <time>2017-07-15T11:23:17Z</time>
            </trkpt>
            <trkpt lat="46.433720" lon="11.108350">
                <time>2017-07-15T11:23:18Z</time>
            </trkpt>
            <trkpt lat="46.433580" lon="11.108320">
                <time>2017-07-15T11:23:19Z</time>
            </trkpt>
            <trkpt lat="46.433450" lon="11.108310">
                <time>2017-07-15T11:23:20Z</time>
            </trkpt>
            <trkpt lat="46.433310" lon="11.108290">
                <time>2017-07-15T11:23:21Z</time>
            </trkpt>
            <trkpt lat="46.433150" lon="11.108260">
                <time>2017-07-15T11:23:22Z</time>
            </trkpt>
            <trkpt lat="46.433010" lon="11.108220">
                <time>2017-07-15T11:23:23Z</time>
            </trkpt>
            <trkpt lat="46.432850" lon="11.108170">
                <time>2017-07-15T11:23:24Z</time>
            </trkpt>
            <trkpt lat="46.432710" lon="11.108130">
                <time>2017-07-15T11:23:25Z</time>
            </trkpt>
            <trkpt lat="46.432570" lon="11.108080">
                <time>2017-07-15T11:23:26Z</time>
            </trkpt>
            <trkpt lat="46.432420" lon="11.108040">
                <time>2017-07-15T11:23:27Z</time>
            </trkpt>
            <trkpt lat="46.432290" lon="11.107990">
                <time>2017-07-15T11:23:28Z</time>
            </trkpt>
            <trkpt lat="46.432150" lon="11.107950">
                <time>2017-07-15T11:23:29Z</time>
            </trkpt>
            <trkpt lat="46.432020" lon="11.107910">
                <time>2017-07-15T11:23:30Z</time>
            </trkpt>
            <trkpt lat="46.431900" lon="11.107870">
                <time>2017-07-15T11:23:31Z</time>
            </trkpt>
            <trkpt lat="46.431770" lon="11.107810">
                <time>2017-07-15T11:23:32Z</time>
            </trkpt>
            <trkpt lat="46.431660" lon="11.107760">
                <time>2017-07-15T11:23:33Z</time>
            </trkpt>
            <trkpt lat="46.431540" lon="11.107730">
                <time>2017-07-15T11:23:34Z</time>
            </trkpt>
            <trkpt lat="46.431420" lon="11.107680">
                <time>2017-07-15T11:23:35Z</time>
            </trkpt>
            <trkpt lat="46.431310" lon="11.107650">
                <time>2017-07-15T11:23:36Z</time>
            </trkpt>
            <trkpt lat="46.431200" lon="11.107600">
                <time>2017-07-15T11:23:37Z</time>
            </trkpt>
            <trkpt lat="46.431100" lon="11.107520">
                <time>2017-07-15T11:23:38Z</time>
            </trkpt>
            <trkpt lat="46.431030" lon="11.107420">
                <time>2017-07-15T11:23:39Z</time>
            </trkpt>
            <trkpt lat="46.430980" lon="11.107270">
                <time>2017-07-15T11:23:40Z</time>
            </trkpt>
            <trkpt lat="46.430960" lon="11.107110">
                <time>2017-07-15T11:23:41Z</time>
            </trkpt>
            <trkpt lat="46.430910" lon="11.106920">
                <time>2017-07-15T11:23:42Z</time>
            </trkpt>
            <trkpt lat="46.430870" lon="11.106700">
                <time>2017-07-15T11:23:43Z</time>
            </trkpt>
            <trkpt lat="46.430840" lon="11.106500">
                <time>2017-07-15T11:23:44Z</time>
            </trkpt>
            <trkpt lat="46.430790" lon="11.106290">
                <time>2017-07-15T11:23:45Z</time>
            </trkpt>
            <trkpt lat="46.430730" lon="11.106090">
                <time>2017-07-15T11:23:46Z</time>
            </trkpt>
            <trkpt lat="46.430680" lon="11.105900">
                <time>2017-07-15T11:23:47Z</time>
            </trkpt>
            <trkpt lat="46.430610" lon="11.105710">
                <time>2017-07-15T11:23:48Z</time>
            </trkpt>
            <trkpt lat="46.430570" lon="11.105550">
                <time>2017-07-15T11:23:49Z</time>
            </trkpt>
            <trkpt lat="46.430520" lon="11.105360">
                <time>2017-07-15T11:23:50Z</time>
            </trkpt>
            <trkpt lat="46.430460" lon="11.105170">
                <time>2017-07-15T11:23:51Z</time>
            </trkpt>
            <trkpt lat="46.430410" lon="11.105000">
                <time>2017-07-15T11:23:52Z</time>
            </trkpt>
            <trkpt lat="46.430370" lon="11.104810">
                <time>2017-07-15T11:23:53Z</time>
            </trkpt>
            <trkpt lat="46.430350" lon="11.104600">
                <time>2017-07-15T11:23:54Z</time>
            </trkpt>
            <trkpt lat="46.430360" lon="11.104410">
                <time>2017-07-15T11:23:55Z</time>
            </trkpt>
            <trkpt lat="46.430400" lon="11.104200">
                <time>2017-07-15T11:23:56Z</time>
            </trkpt>
            <trkpt lat="46.430440" lon="11.104020">
                <time>2017-07-15T11:23:57Z</time>
            </trkpt>
            <trkpt lat="46.430460" lon="11.103840">
                <time>2017-07-15T11:23:58Z</time>
            </trkpt>
            <trkpt lat="46.430450" lon="11.103660">
                <time>2017-07-15T11:23:59Z</time>
            </trkpt>
            <trkpt lat="46.430420" lon="11.103520">
                <time>2017-07-15T11:24:00Z</time>
            </trkpt>
            <trkpt lat="46.430360" lon="11.103370">
                <time>2017-07-15T11:24:01Z</time>
            </trkpt>
            <trkpt lat="46.430280" lon="11.103250">
                <time>2017-07-15T11:24:02Z</time>
            </trkpt>
            <trkpt lat="46.430160" lon="11.103150">
                <time>2017-07-15T11:24:03Z</time>
            </trkpt>
            <trkpt lat="46.430000" lon="11.103060">
                <time>2017-07-15T11:24:04Z</time>
            </trkpt>
            <trkpt lat="46.429840" lon="11.102970">
                <time>2017-07-15T11:24:05Z</time>
            </trkpt>
            <trkpt lat="46.429660" lon="11.102880">
                <time>2017-07-15T11:24:06Z</time>
            </trkpt>
            <trkpt lat="46.429460" lon="11.102780">
                <time>2017-07-15T11:24:07Z</time>
            </trkpt>
            <trkpt lat="46.429310" lon="11.102690">
                <time>2017-07-15T11:24:08Z</time>
            </trkpt>
            <trkpt lat="46.429150" lon="11.102600">
                <time>2017-07-15T11:24:09Z</time>
            </trkpt>
            <trkpt lat="46.428970" lon="11.102500">
                <time>2017-07-15T11:24:10Z</time>
            </trkpt>
            <trkpt lat="46.428820" lon="11.102390">
                <time>2017-07-15T11:24:11Z</time>
            </trkpt>
            <trkpt lat="46.428660" lon="11.102240">
                <time>2017-07-15T11:24:12Z</time>
            </trkpt>
            <trkpt lat="46.428510" lon="11.102100">
                <time>2017-07-15T11:24:13Z</time>
            </trkpt>
            <trkpt lat="46.428360" lon="11.101920">
                <time>2017-07-15T11:24:14Z</time>
            </trkpt>
            <trkpt lat="46.428220" lon="11.101720">
                <time>2017-07-15T11:24:15Z</time>
            </trkpt>
            <trkpt lat="46.428100" lon="11.101510">
                <time>2017-07-15T11:24:16Z</time>
            </trkpt>
            <trkpt lat="46.427970" lon="11.101260">
                <time>2017-07-15T11:24:17Z</time>
            </trkpt>
            <trkpt lat="46.427840" lon="11.100990">
                <time>2017-07-15T11:24:18Z</time>
            </trkpt>
            <trkpt lat="46.427710" lon="11.100710">
                <time>2017-07-15T11:24:19Z</time>
            </trkpt>
            <trkpt lat="46.427590" lon="11.100430">
                <time>2017-07-15T11:24:20Z</time>
            </trkpt>
            <trkpt lat="46.427490" lon="11.100190">
                <time>2017-07-15T11:24:21Z</time>
            </trkpt>
            <trkpt lat="46.427380" lon="11.099910">
                <time>2017-07-15T11:24:22Z</time>
            </trkpt>
            <trkpt lat="46.427260" lon="11.099600">
                <time>2017-07-15T11:24:23Z</time>
            </trkpt>
            <trkpt lat="46.427150" lon="11.099310">
                <time>2017-07-15T11:24:24Z</time>
            </trkpt>
            <trkpt lat="46.427040" lon="11.099010">
                <time>2017-07-15T11:24:25Z</time>
            </trkpt>
            <trkpt lat="46.426930" lon="11.098720">
                <time>2017-07-15T11:24:26Z</time>
            </trkpt>
            <trkpt lat="46.426850" lon="11.098500">
                <time>2017-07-15T11:24:27Z</time>
            </trkpt>
            <trkpt lat="46.426770" lon="11.098270">
                <time>2017-07-15T11:24:28Z</time>
            </trkpt>
            <trkpt lat="46.426710" lon="11.098080">
                <time>2017-07-15T11:24:29Z</time>
            </trkpt>
            <trkpt lat="46.426660" lon="11.097870">
                <time>2017-07-15T11:24:30Z</time>
            </trkpt>
            <trkpt lat="46.426650" lon="11.097640">
                <time>2017-07-15T11:24:31Z</time>
            </trkpt>
            <trkpt lat="46.426630" lon="11.097420">
                <time>2017-07-15T11:24:32Z</time>
            </trkpt>
            <trkpt lat="46.426610" lon="11.097170">
                <time>2017-07-15T11:24:33Z</time>
            </trkpt>
            <trkpt lat="46.426590" lon="11.096910">
                <time>2017-07-15T11:24:34Z</time>
            </trkpt>
            <trkpt lat="46.426560" lon="11.096640">
                <time>2017-07-15T11:24:35Z</time>
            </trkpt>
            <trkpt lat="46.426540" lon="11.096350">
                <time>2017-07-15T11:24:36Z</time>
            </trkpt>
            <trkpt lat="46.426510" lon="11.096110">
                <time>2017-07-15T11:24:37Z</time>
            </trkpt>
            <trkpt lat="46.426490" lon="11.095860">
                <time>2017-07-15T11:24:38Z</time>
            </trkpt>
            <trkpt lat="46.426480" lon="11.095620">
                <time>2017-07-15T11:24:39Z</time>
            </trkpt>
            <trkpt lat="46.426460" lon="11.095410">
                <time>2017-07-15T11:24:40Z</time>
            </trkpt>
            <trkpt lat="46.426420" lon="11.095200">
                <time>2017-07-15T11:24:41Z</time>
            </trkpt>
            <trkpt lat="46.426350" lon="11.094990">
                <time>2017-07-15T11:24:42Z</time>
            </trkpt>
            <trkpt lat="46.426270" lon="11.094830">
                <time>2017-07-15T11:24:43Z</time>
            </trkpt>
            <trkpt lat="46.426140" lon="11.094680">
                <time>2017-07-15T11:24:44Z</time>
            </trkpt>
            <trkpt lat="46.426010" lon="11.094590">
                <time>2017-07-15T11:24:45Z</time>
            </trkpt>
            <trkpt lat="46.425840" lon="11.094510">
                <time>2017-07-15T11:24:46Z</time>
            </trkpt>
            <trkpt lat="46.425650" lon="11.094430">
                <time>2017-07-15T11:24:47Z</time>
            </trkpt>
            <trkpt lat="46.425470" lon="11.094350">
                <time>2017-07-15T11:24:48Z</time>
            </trkpt>
            <trkpt lat="46.425280" lon="11.094280">
                <time>2017-07-15T11:24:49Z</time>
            </trkpt>
            <trkpt lat="46.425110" lon="11.094210">
                <time>2017-07-15T11:24:50Z</time>
            </trkpt>
            <trkpt lat="46.424940" lon="11.094140">
                <time>2017-07-15T11:24:51Z</time>
            </trkpt>
            <trkpt lat="46.424760" lon="11.094070">
                <time>2017-07-15T11:24:52Z</time>
            </trkpt>
            <trkpt lat="46.424630" lon="11.093970">
                <time>2017-07-15T11:24:53Z</time>
            </trkpt>
            <trkpt lat="46.424480" lon="11.093850">
                <time>2017-07-15T11:24:54Z</time>
            </trkpt>
            <trkpt lat="46.424340" lon="11.093680">
                <time>2017-07-15T11:24:55Z</time>
            </trkpt>
            <trkpt lat="46.424210" lon="11.093500">
                <time>2017-07-15T11:24:56Z</time>
            </trkpt>
            <trkpt lat="46.424080" lon="11.093310">
                <time>2017-07-15T11:24:57Z</time>
            </trkpt>
            <trkpt lat="46.423950" lon="11.093110">
                <time>2017-07-15T11:24:58Z</time>
            </trkpt>
            <trkpt lat="46.423820" lon="11.092940">
                <time>2017-07-15T11:24:59Z</time>
            </trkpt>
            <trkpt lat="46.423690" lon="11.092760">
                <time>2017-07-15T11:25:00Z</time>
            </trkpt>
            <trkpt lat="46.423580" lon="11.092590">
                <time>2017-07-15T11:25:01Z</time>
            </trkpt>
            <trkpt lat="46.423460" lon="11.092430">
                <time>2017-07-15T11:25:02Z</time>
            </trkpt>
            <trkpt lat="46.423340" lon="11.092260">
                <time>2017-07-15T11:25:03Z</time>
            </trkpt>
            <trkpt lat="46.423240" lon="11.092120">
                <time>2017-07-15T11:25:04Z</time>
            </trkpt>
            <trkpt lat="46.423150" lon="11.091960">
                <time>2017-07-15T11:25:05Z</time>
            </trkpt>
            <trkpt lat="46.423050" lon="11.091820">
                <time>2017-07-15T11:25:06Z</time>
            </trkpt>
            <trkpt lat="46.422960" lon="11.091690">
                <time>2017-07-15T11:25:07Z</time>
            </trkpt>
            <trkpt lat="46.422870" lon="11.091550">
                <time>2017-07-15T11:25:08Z</time>
            </trkpt>
            <trkpt lat="46.422780" lon="11.091430">
                <time>2017-07-15T11:25:09Z</time>
            </trkpt>
            <trkpt lat="46.422690" lon="11.091300">
                <time>2017-07-15T11:25:10Z</time>
            </trkpt>
            <trkpt lat="46.422590" lon="11.091160">
                <time>2017-07-15T11:25:11Z</time>
            </trkpt>
            <trkpt lat="46.422500" lon="11.091040">
                <time>2017-07-15T11:25:12Z</time>
            </trkpt>
            <trkpt lat="46.422410" lon="11.090900">
                <time>2017-07-15T11:25:13Z</time>
            </trkpt>
            <trkpt lat="46.422310" lon="11.090760">
                <time>2017-07-15T11:25:14Z</time>
            </trkpt>
            <trkpt lat="46.422230" lon="11.090640">
                <time>2017-07-15T11:25:15Z</time>
            </trkpt>
            <trkpt lat="46.422130" lon="11.090480">
                <time>2017-07-15T11:25:16Z</time>
            </trkpt>
            <trkpt lat="46.422040" lon="11.090360">
                <time>2017-07-15T11:25:17Z</time>
            </trkpt>
            <trkpt lat="46.421950" lon="11.090230">
                <time>2017-07-15T11:25:18Z</time>
            </trkpt>
            <trkpt lat="46.421860" lon="11.090090">
                <time>2017-07-15T11:25:19Z</time>
            </trkpt>
            <trkpt lat="46.421770" lon="11.089970">
                <time>2017-07-15T11:25:20Z</time>
            </trkpt>
            <trkpt lat="46.421680" lon="11.089840">
                <time>2017-07-15T11:25:21Z</time>
            </trkpt>
            <trkpt lat="46.421590" lon="11.089700">
                <time>2017-07-15T11:25:22Z</time>
            </trkpt>
            <trkpt lat="46.421500" lon="11.089570">
                <time>2017-07-15T11:25:23Z</time>
            </trkpt>
            <trkpt lat="46.421400" lon="11.089420">
                <time>2017-07-15T11:25:24Z</time>
            </trkpt>
            <trkpt lat="46.421320" lon="11.089310">
                <time>2017-07-15T11:25:25Z</time>
            </trkpt>
            <trkpt lat="46.421230" lon="11.089180">
                <time>2017-07-15T11:25:26Z</time>
            </trkpt>
            <trkpt lat="46.421140" lon="11.089050">
                <time>2017-07-15T11:25:27Z</time>
            </trkpt>
            <trkpt lat="46.421060" lon="11.088950">
                <time>2017-07-15T11:25:28Z</time>
            </trkpt>
            <trkpt lat="46.420970" lon="11.088840">
                <time>2017-07-15T11:25:29Z</time>
            </trkpt>
            <trkpt lat="46.420880" lon="11.088740">
                <time>2017-07-15T11:25:30Z</time>
            </trkpt>
            <trkpt lat="46.420790" lon="11.088670">
                <time>2017-07-15T11:25:31Z</time>
            </trkpt>
            <trkpt lat="46.420680" lon="11.088600">
                <time>2017-07-15T11:25:32Z</time>
            </trkpt>
            <trkpt lat="46.420580" lon="11.088530">
                <time>2017-07-15T11:25:33Z</time>
            </trkpt>
            <trkpt lat="46.420480" lon="11.088440">
                <time>2017-07-15T11:25:34Z</time>
            </trkpt>
            <trkpt lat="46.420370" lon="11.088330">
                <time>2017-07-15T11:25:35Z</time>
            </trkpt>
            <trkpt lat="46.420280" lon="11.088240">
                <time>2017-07-15T11:25:36Z</time>
            </trkpt>
            <trkpt lat="46.420190" lon="11.088140">
                <time>2017-07-15T11:25:37Z</time>
            </trkpt>
            <trkpt lat="46.420100" lon="11.088050">
                <time>2017-07-15T11:25:38Z</time>
            </trkpt>
            <trkpt lat="46.420000" lon="11.087950">
                <time>2017-07-15T11:25:39Z</time>
            </trkpt>
            <trkpt lat="46.419910" lon="11.087840">
                <time>2017-07-15T11:25:40Z</time>
            </trkpt>
            <trkpt lat="46.419820" lon="11.087740">
                <time>2017-07-15T11:25:41Z</time>
            </trkpt>
            <trkpt lat="46.419720" lon="11.087620">
                <time>2017-07-15T11:25:42Z</time>
            </trkpt>
            <trkpt lat="46.419630" lon="11.087500">
                <time>2017-07-15T11:25:43Z</time>
            </trkpt>
            <trkpt lat="46.419560" lon="11.087370">
                <time>2017-07-15T11:25:44Z</time>
            </trkpt>
            <trkpt lat="46.419480" lon="11.087220">
                <time>2017-07-15T11:25:45Z</time>
            </trkpt>
            <trkpt lat="46.419400" lon="11.087060">
                <time>2017-07-15T11:25:46Z</time>
            </trkpt>
            <trkpt lat="46.419330" lon="11.086930">
                <time>2017-07-15T11:25:47Z</time>
            </trkpt>
            <trkpt lat="46.419250" lon="11.086790">
                <time>2017-07-15T11:25:48Z</time>
            </trkpt>
            <trkpt lat="46.419180" lon="11.086670">
                <time>2017-07-15T11:25:49Z</time>
            </trkpt>
            <trkpt lat="46.419090" lon="11.086550">
                <time>2017-07-15T11:25:50Z</time>
            </trkpt>
            <trkpt lat="46.418980" lon="11.086450">
                <time>2017-07-15T11:25:51Z</time>
            </trkpt>
            <trkpt lat="46.418870" lon="11.086380">
                <time>2017-07-15T11:25:52Z</time>
            </trkpt>
            <trkpt lat="46.418760" lon="11.086300">
                <time>2017-07-15T11:25:53Z</time>
            </trkpt>
            <trkpt lat="46.418640" lon="11.086220">
                <time>2017-07-15T11:25:54Z</time>
            </trkpt>
            <trkpt lat="46.418520" lon="11.086130">
                <time>2017-07-15T11:25:55Z</time>
            </trkpt>
            <trkpt lat="46.418390" lon="11.086040">
                <time>2017-07-15T11:25:56Z</time>
            </trkpt>
            <trkpt lat="46.418280" lon="11.085970">
                <time>2017-07-15T11:25:57Z</time>
            </trkpt>
            <trkpt lat="46.418170" lon="11.085880">
                <time>2017-07-15T11:25:58Z</time>
            </trkpt>
            <trkpt lat="46.418050" lon="11.085800">
                <time>2017-07-15T11:25:59Z</time>
            </trkpt>
            <trkpt lat="46.417940" lon="11.085730">
                <time>2017-07-15T11:26:00Z</time>
            </trkpt>
            <trkpt lat="46.417820" lon="11.085650">
                <time>2017-07-15T11:26:01Z</time>
            </trkpt>
            <trkpt lat="46.417700" lon="11.085570">
                <time>2017-07-15T11:26:02Z</time>
            </trkpt>
            <trkpt lat="46.417580" lon="11.085500">
                <time>2017-07-15T11:26:03Z</time>
            </trkpt>
            <trkpt lat="46.417460" lon="11.085420">
                <time>2017-07-15T11:26:04Z</time>
            </trkpt>
            <trkpt lat="46.417350" lon="11.085370">
                <time>2017-07-15T11:26:05Z</time>
            </trkpt>
            <trkpt lat="46.417230" lon="11.085310">
                <time>2017-07-15T11:26:06Z</time>
            </trkpt>
            <trkpt lat="46.417120" lon="11.085240">
                <time>2017-07-15T11:26:07Z</time>
            </trkpt>
            <trkpt lat="46.417030" lon="11.085160">
                <time>2017-07-15T11:26:08Z</time>
            </trkpt>
            <trkpt lat="46.416940" lon="11.085060">
                <time>2017-07-15T11:26:09Z</time>
            </trkpt>
            <trkpt lat="46.416860" lon="11.084970">
                <time>2017-07-15T11:26:10Z</time>
            </trkpt>
            <trkpt lat="46.416780" lon="11.084880">
                <time>2017-07-15T11:26:11Z</time>
            </trkpt>
            <trkpt lat="46.416690" lon="11.084790">
                <time>2017-07-15T11:26:12Z</time>
            </trkpt>
            <trkpt lat="46.416600" lon="11.084730">
                <time>2017-07-15T11:26:13Z</time>
            </trkpt>
            <trkpt lat="46.416480" lon="11.084650">
                <time>2017-07-15T11:26:14Z</time>
            </trkpt>
            <trkpt lat="46.416370" lon="11.084560">
                <time>2017-07-15T11:26:15Z</time>
            </trkpt>
            <trkpt lat="46.416280" lon="11.084460">
                <time>2017-07-15T11:26:16Z</time>
            </trkpt>
            <trkpt lat="46.416190" lon="11.084340">
                <time>2017-07-15T11:26:17Z</time>
            </trkpt>
            <trkpt lat="46.416110" lon="11.084180">
                <time>2017-07-15T11:26:18Z</time>
            </trkpt>
            <trkpt lat="46.416050" lon="11.084020">
                <time>2017-07-15T11:26:19Z</time>
            </trkpt>
            <trkpt lat="46.415980" lon="11.083840">
                <time>2017-07-15T11:26:20Z</time>
            </trkpt>
            <trkpt lat="46.415930" lon="11.083680">
                <time>2017-07-15T11:26:21Z</time>
            </trkpt>
            <trkpt lat="46.415860" lon="11.083520">
                <time>2017-07-15T11:26:22Z</time>
            </trkpt>
            <trkpt lat="46.415770" lon="11.083370">
                <time>2017-07-15T11:26:23Z</time>
            </trkpt>
            <trkpt lat="46.415660" lon="11.083260">
                <time>2017-07-15T11:26:24Z</time>
            </trkpt>
            <trkpt lat="46.415530" lon="11.083160">
                <time>2017-07-15T11:26:25Z</time>
            </trkpt>
            <trkpt lat="46.415390" lon="11.083070">
                <time>2017-07-15T11:26:26Z</time>
            </trkpt>
            <trkpt lat="46.415250" lon="11.083000">
                <time>2017-07-15T11:26:27Z</time>
            </trkpt>
            <trkpt lat="46.415100" lon="11.082910">
                <time>2017-07-15T11:26:28Z</time>
            </trkpt>
            <trkpt lat="46.414960" lon="11.082830">
                <time>2017-07-15T11:26:29Z</time>
            </trkpt>
            <trkpt lat="46.414820" lon="11.082740">
                <time>2017-07-15T11:26:30Z</time>
            </trkpt>
            <trkpt lat="46.414660" lon="11.082670">
                <time>2017-07-15T11:26:31Z</time>
            </trkpt>
            <trkpt lat="46.414530" lon="11.082600">
                <time>2017-07-15T11:26:32Z</time>
            </trkpt>
            <trkpt lat="46.414390" lon="11.082520">
                <time>2017-07-15T11:26:33Z</time>
            </trkpt>
            <trkpt lat="46.414260" lon="11.082440">
                <time>2017-07-15T11:26:34Z</time>
            </trkpt>
            <trkpt lat="46.414140" lon="11.082370">
                <time>2017-07-15T11:26:35Z</time>
            </trkpt>
            <trkpt lat="46.414030" lon="11.082270">
                <time>2017-07-15T11:26:36Z</time>
            </trkpt>
            <trkpt lat="46.413950" lon="11.082150">
                <time>2017-07-15T11:26:37Z</time>
            </trkpt>
            <trkpt lat="46.413870" lon="11.082000">
                <time>2017-07-15T11:26:38Z</time>
            </trkpt>
            <trkpt lat="46.413820" lon="11.081810">
                <time>2017-07-15T11:26:39Z</time>
            </trkpt>
            <trkpt lat="46.413790" lon="11.081640">
                <time>2017-07-15T11:26:40Z</time>
            </trkpt>
            <trkpt lat="46.413760" lon="11.081450">
                <time>2017-07-15T11:26:41Z</time>
            </trkpt>
            <trkpt lat="46.413720" lon="11.081280">
                <time>2017-07-15T11:26:42Z</time>
            </trkpt>
            <trkpt lat="46.413650" lon="11.081130">
                <time>2017-07-15T11:26:43Z</time>
            </trkpt>
            <trkpt lat="46.413560" lon="11.081000">
                <time>2017-07-15T11:26:44Z</time>
            </trkpt>
            <trkpt lat="46.413440" lon="11.080920">
                <time>2017-07-15T11:26:45Z</time>
            </trkpt>
            <trkpt lat="46.413310" lon="11.080880">
                <time>2017-07-15T11:26:46Z</time>
            </trkpt>
            <trkpt lat="46.413140" lon="11.080870">
                <time>2017-07-15T11:26:47Z</time>
            </trkpt>
            <trkpt lat="46.413000" lon="11.080890">
                <time>2017-07-15T11:26:48Z</time>
            </trkpt>
            <trkpt lat="46.412830" lon="11.080910">
                <time>2017-07-15T11:26:49Z</time>
            </trkpt>
            <trkpt lat="46.412640" lon="11.080910">
                <time>2017-07-15T11:26:50Z</time>
            </trkpt>
            <trkpt lat="46.412490" lon="11.080870">
                <time>2017-07-15T11:26:51Z</time>
            </trkpt>
            <trkpt lat="46.412320" lon="11.080770">
                <time>2017-07-15T11:26:52Z</time>
            </trkpt>
            <trkpt lat="46.412170" lon="11.080660">
                <time>2017-07-15T11:26:53Z</time>
            </trkpt>
            <trkpt lat="46.412020" lon="11.080520">
                <time>2017-07-15T11:26:54Z</time>
            </trkpt>
            <trkpt lat="46.411860" lon="11.080370">
                <time>2017-07-15T11:26:55Z</time>
            </trkpt>
            <trkpt lat="46.411720" lon="11.080230">
                <time>2017-07-15T11:26:56Z</time>
            </trkpt>
            <trkpt lat="46.411590" lon="11.080030">
                <time>2017-07-15T11:26:57Z</time>
            </trkpt>
            <trkpt lat="46.411470" lon="11.079810">
                <time>2017-07-15T11:26:58Z</time>
            </trkpt>
            <trkpt lat="46.411360" lon="11.079560">
                <time>2017-07-15T11:26:59Z</time>
            </trkpt>
            <trkpt lat="46.411250" lon="11.079270">
                <time>2017-07-15T11:27:00Z</time>
            </trkpt>
            <trkpt lat="46.411170" lon="11.079000">
                <time>2017-07-15T11:27:01Z</time>
            </trkpt>
            <trkpt lat="46.411080" lon="11.078720">
                <time>2017-07-15T11:27:02Z</time>
            </trkpt>
            <trkpt lat="46.410980" lon="11.078440">
                <time>2017-07-15T11:27:03Z</time>
            </trkpt>
            <trkpt lat="46.410900" lon="11.078210">
                <time>2017-07-15T11:27:04Z</time>
            </trkpt>
            <trkpt lat="46.410820" lon="11.077980">
                <time>2017-07-15T11:27:05Z</time>
            </trkpt>
            <trkpt lat="46.410730" lon="11.077770">
                <time>2017-07-15T11:27:06Z</time>
            </trkpt>
            <trkpt lat="46.410620" lon="11.077610">
                <time>2017-07-15T11:27:07Z</time>
            </trkpt>
            <trkpt lat="46.410480" lon="11.077470">
                <time>2017-07-15T11:27:08Z</time>
            </trkpt>
            <trkpt lat="46.410330" lon="11.077390">
                <time>2017-07-15T11:27:09Z</time>
            </trkpt>
            <trkpt lat="46.410150" lon="11.077330">
                <time>2017-07-15T11:27:10Z</time>
            </trkpt>
            <trkpt lat="46.409940" lon="11.077290">
                <time>2017-07-15T11:27:11Z</time>
            </trkpt>
            <trkpt lat="46.409740" lon="11.077250">
                <time>2017-07-15T11:27:12Z</time>
            </trkpt>
            <trkpt lat="46.409510" lon="11.077210">
                <time>2017-07-15T11:27:13Z</time>
            </trkpt>
            <trkpt lat="46.409280" lon="11.077170">
                <time>2017-07-15T11:27:14Z</time>
            </trkpt>
            <trkpt lat="46.409040" lon="11.077120">
                <time>2017-07-15T11:27:15Z</time>
            </trkpt>
            <trkpt lat="46.408780" lon="11.077080">
                <time>2017-07-15T11:27:16Z</time>
            </trkpt>
            <trkpt lat="46.408560" lon="11.077050">
                <time>2017-07-15T11:27:17Z</time>
            </trkpt>
            <trkpt lat="46.408320" lon="11.077000">
                <time>2017-07-15T11:27:18Z</time>
            </trkpt>
            <trkpt lat="46.408070" lon="11.076960">
                <time>2017-07-15T11:27:19Z</time>
            </trkpt>
            <trkpt lat="46.407850" lon="11.076920">
                <time>2017-07-15T11:27:20Z</time>
            </trkpt>
            <trkpt lat="46.407630" lon="11.076880">
                <time>2017-07-15T11:27:21Z</time>
            </trkpt>
            <trkpt lat="46.407400" lon="11.076830">
                <time>2017-07-15T11:27:22Z</time>
            </trkpt>
            <trkpt lat="46.407190" lon="11.076790">
                <time>2017-07-15T11:27:23Z</time>
            </trkpt>
            <trkpt lat="46.406960" lon="11.076740">
                <time>2017-07-15T11:27:24Z</time>
            </trkpt>
            <trkpt lat="46.406760" lon="11.076670">
                <time>2017-07-15T11:27:25Z</time>
            </trkpt>
            <trkpt lat="46.406540" lon="11.076570">
                <time>2017-07-15T11:27:26Z</time>
            </trkpt>
            <trkpt lat="46.406300" lon="11.076450">
                <time>2017-07-15T11:27:27Z</time>
            </trkpt>
            <trkpt lat="46.406110" lon="11.076330">
                <time>2017-07-15T11:27:28Z</time>
            </trkpt>
            <trkpt lat="46.405890" lon="11.076210">
                <time>2017-07-15T11:27:29Z</time>
            </trkpt>
            <trkpt lat="46.405690" lon="11.076090">
                <time>2017-07-15T11:27:30Z</time>
            </trkpt>
            <trkpt lat="46.405490" lon="11.075980">
                <time>2017-07-15T11:27:31Z</time>
            </trkpt>
            <trkpt lat="46.405280" lon="11.075850">
                <time>2017-07-15T11:27:32Z</time>
            </trkpt>
            <trkpt lat="46.405110" lon="11.075700">
                <time>2017-07-15T11:27:33Z</time>
            </trkpt>
            <trkpt lat="46.404940" lon="11.075530">
                <time>2017-07-15T11:27:34Z</time>
            </trkpt>
            <trkpt lat="46.404760" lon="11.075320">
                <time>2017-07-15T11:27:35Z</time>
            </trkpt>
            <trkpt lat="46.404590" lon="11.075130">
                <time>2017-07-15T11:27:36Z</time>
            </trkpt>
            <trkpt lat="46.404410" lon="11.074920">
                <time>2017-07-15T11:27:37Z</time>
            </trkpt>
            <trkpt lat="46.404220" lon="11.074690">
                <time>2017-07-15T11:27:38Z</time>
            </trkpt>
            <trkpt lat="46.404070" lon="11.074480">
                <time>2017-07-15T11:27:39Z</time>
            </trkpt>
            <trkpt lat="46.403890" lon="11.074240">
                <time>2017-07-15T11:27:40Z</time>
            </trkpt>
            <trkpt lat="46.403750" lon="11.074010">
                <time>2017-07-15T11:27:41Z</time>
            </trkpt>
            <trkpt lat="46.403600" lon="11.073770">
                <time>2017-07-15T11:27:42Z</time>
            </trkpt>
            <trkpt lat="46.403440" lon="11.073510">
                <time>2017-07-15T11:27:43Z</time>
            </trkpt>
            <trkpt lat="46.403310" lon="11.073270">
                <time>2017-07-15T11:27:44Z</time>
            </trkpt>
            <trkpt lat="46.403160" lon="11.073000">
                <time>2017-07-15T11:27:45Z</time>
            </trkpt>
            <trkpt lat="46.403010" lon="11.072730">
                <time>2017-07-15T11:27:46Z</time>
            </trkpt>
            <trkpt lat="46.402870" lon="11.072460">
                <time>2017-07-15T11:27:47Z</time>
            </trkpt>
            <trkpt lat="46.402720" lon="11.072190">
                <time>2017-07-15T11:27:48Z</time>
            </trkpt>
            <trkpt lat="46.402590" lon="11.071960">
                <time>2017-07-15T11:27:49Z</time>
            </trkpt>
            <trkpt lat="46.402450" lon="11.071730">
                <time>2017-07-15T11:27:50Z</time>
            </trkpt>
            <trkpt lat="46.402320" lon="11.071500">
                <time>2017-07-15T11:27:51Z</time>
            </trkpt>
            <trkpt lat="46.402220" lon="11.071310">
                <time>2017-07-15T11:27:52Z</time>
            </trkpt>
            <trkpt lat="46.402110" lon="11.071110">
                <time>2017-07-15T11:27:53Z</time>
            </trkpt>
            <trkpt lat="46.402000" lon="11.070920">
                <time>2017-07-15T11:27:54Z</time>
            </trkpt>
            <trkpt lat="46.401910" lon="11.070740">
                <time>2017-07-15T11:27:55Z</time>
            </trkpt>
            <trkpt lat="46.401810" lon="11.070560">
                <time>2017-07-15T11:27:56Z</time>
            </trkpt>
            <trkpt lat="46.401720" lon="11.070400">
                <time>2017-07-15T11:27:57Z</time>
            </trkpt>
            <trkpt lat="46.401630" lon="11.070240">
                <time>2017-07-15T11:27:58Z</time>
            </trkpt>
            <trkpt lat="46.401520" lon="11.070080">
                <time>2017-07-15T11:27:59Z</time>
            </trkpt>
            <trkpt lat="46.401440" lon="11.069950">
                <time>2017-07-15T11:28:00Z</time>
            </trkpt>
            <trkpt lat="46.401340" lon="11.069820">
                <time>2017-07-15T11:28:01Z</time>
            </trkpt>
            <trkpt lat="46.401240" lon="11.069690">
                <time>2017-07-15T11:28:02Z</time>
            </trkpt>
            <trkpt lat="46.401130" lon="11.069580">
                <time>2017-07-15T11:28:03Z</time>
            </trkpt>
            <trkpt lat="46.401020" lon="11.069460">
                <time>2017-07-15T11:28:04Z</time>
            </trkpt>
            <trkpt lat="46.400920" lon="11.069360">
                <time>2017-07-15T11:28:05Z</time>
            </trkpt>
            <trkpt lat="46.400800" lon="11.069260">
                <time>2017-07-15T11:28:06Z</time>
            </trkpt>
            <trkpt lat="46.400670" lon="11.069170">
                <time>2017-07-15T11:28:07Z</time>
            </trkpt>
            <trkpt lat="46.400550" lon="11.069080">
                <time>2017-07-15T11:28:08Z</time>
            </trkpt>
            <trkpt lat="46.400430" lon="11.069000">
                <time>2017-07-15T11:28:09Z</time>
            </trkpt>
            <trkpt lat="46.400290" lon="11.068910">
                <time>2017-07-15T11:28:10Z</time>
            </trkpt>
            <trkpt lat="46.400170" lon="11.068820">
                <time>2017-07-15T11:28:11Z</time>
            </trkpt>
            <trkpt lat="46.400030" lon="11.068730">
                <time>2017-07-15T11:28:12Z</time>
            </trkpt>
            <trkpt lat="46.399910" lon="11.068660">
                <time>2017-07-15T11:28:13Z</time>
            </trkpt>
            <trkpt lat="46.399780" lon="11.068570">
                <time>2017-07-15T11:28:14Z</time>
            </trkpt>
            <trkpt lat="46.399660" lon="11.068490">
                <time>2017-07-15T11:28:15Z</time>
            </trkpt>
            <trkpt lat="46.399550" lon="11.068410">
                <time>2017-07-15T11:28:16Z</time>
            </trkpt>
            <trkpt lat="46.399440" lon="11.068320">
                <time>2017-07-15T11:28:17Z</time>
            </trkpt>
            <trkpt lat="46.399320" lon="11.068250">
                <time>2017-07-15T11:28:18Z</time>
            </trkpt>
            <trkpt lat="46.399210" lon="11.068180">
                <time>2017-07-15T11:28:19Z</time>
            </trkpt>
            <trkpt lat="46.399080" lon="11.068090">
                <time>2017-07-15T11:28:20Z</time>
            </trkpt>
            <trkpt lat="46.398970" lon="11.068010">
                <time>2017-07-15T11:28:21Z</time>
            </trkpt>
            <trkpt lat="46.398840" lon="11.067930">
                <time>2017-07-15T11:28:22Z</time>
            </trkpt>
            <trkpt lat="46.398700" lon="11.067840">
                <time>2017-07-15T11:28:23Z</time>
            </trkpt>
            <trkpt lat="46.398580" lon="11.067760">
                <time>2017-07-15T11:28:24Z</time>
            </trkpt>
            <trkpt lat="46.398450" lon="11.067670">
                <time>2017-07-15T11:28:25Z</time>
            </trkpt>
            <trkpt lat="46.398300" lon="11.067580">
                <time>2017-07-15T11:28:26Z</time>
            </trkpt>
            <trkpt lat="46.398180" lon="11.067500">
                <time>2017-07-15T11:28:27Z</time>
            </trkpt>
            <trkpt lat="46.398030" lon="11.067410">
                <time>2017-07-15T11:28:28Z</time>
            </trkpt>
            <trkpt lat="46.397900" lon="11.067330">
                <time>2017-07-15T11:28:29Z</time>
            </trkpt>
            <trkpt lat="46.397760" lon="11.067250">
                <time>2017-07-15T11:28:30Z</time>
            </trkpt>
            <trkpt lat="46.397610" lon="11.067160">
                <time>2017-07-15T11:28:31Z</time>
            </trkpt>
            <trkpt lat="46.397480" lon="11.067080">
                <time>2017-07-15T11:28:32Z</time>
            </trkpt>
            <trkpt lat="46.397340" lon="11.067000">
                <time>2017-07-15T11:28:33Z</time>
            </trkpt>
            <trkpt lat="46.397200" lon="11.066920">
                <time>2017-07-15T11:28:34Z</time>
            </trkpt>
            <trkpt lat="46.397070" lon="11.066840">
                <time>2017-07-15T11:28:35Z</time>
            </trkpt>
            <trkpt lat="46.396940" lon="11.066760">
                <time>2017-07-15T11:28:36Z</time>
            </trkpt>
            <trkpt lat="46.396850" lon="11.066680">
                <time>2017-07-15T11:28:37Z</time>
            </trkpt>
            <trkpt lat="46.396760" lon="11.066580">
                <time>2017-07-15T11:28:38Z</time>
            </trkpt>
            <trkpt lat="46.396690" lon="11.066450">
                <time>2017-07-15T11:28:39Z</time>
            </trkpt>
            <trkpt lat="46.396630" lon="11.066330">
                <time>2017-07-15T11:28:40Z</time>
            </trkpt>
            <trkpt lat="46.396550" lon="11.066200">
                <time>2017-07-15T11:28:41Z</time>
            </trkpt>
            <trkpt lat="46.396440" lon="11.066080">
                <time>2017-07-15T11:28:42Z</time>
            </trkpt>
            <trkpt lat="46.396330" lon="11.065990">
                <time>2017-07-15T11:28:43Z</time>
            </trkpt>
            <trkpt lat="46.396200" lon="11.065900">
                <time>2017-07-15T11:28:44Z</time>
            </trkpt>
            <trkpt lat="46.396090" lon="11.065810">
                <time>2017-07-15T11:28:45Z</time>
            </trkpt>
            <trkpt lat="46.395970" lon="11.065710">
                <time>2017-07-15T11:28:46Z</time>
            </trkpt>
            <trkpt lat="46.395850" lon="11.065610">
                <time>2017-07-15T11:28:47Z</time>
            </trkpt>
            <trkpt lat="46.395760" lon="11.065540">
                <time>2017-07-15T11:28:48Z</time>
            </trkpt>
            <trkpt lat="46.395680" lon="11.065470">
                <time>2017-07-15T11:28:49Z</time>
            </trkpt>
            <trkpt lat="46.395610" lon="11.065360">
                <time>2017-07-15T11:28:50Z</time>
            </trkpt>
            <trkpt lat="46.395560" lon="11.065250">
                <time>2017-07-15T11:28:51Z</time>
            </trkpt>
            <trkpt lat="46.395520" lon="11.065110">
                <time>2017-07-15T11:28:52Z</time>
            </trkpt>
            <trkpt lat="46.395510" lon="11.064940">
                <time>2017-07-15T11:28:53Z</time>
            </trkpt>
            <trkpt lat="46.395500" lon="11.064760">
                <time>2017-07-15T11:28:54Z</time>
            </trkpt>
            <trkpt lat="46.395480" lon="11.064590">
                <time>2017-07-15T11:28:55Z</time>
            </trkpt>
            <trkpt lat="46.395440" lon="11.064470">
                <time>2017-07-15T11:28:56Z</time>
            </trkpt>
            <trkpt lat="46.395370" lon="11.064350">
                <time>2017-07-15T11:28:57Z</time>
            </trkpt>
            <trkpt lat="46.395280" lon="11.064250">
                <time>2017-07-15T11:28:58Z</time>
            </trkpt>
            <trkpt lat="46.395180" lon="11.064140">
                <time>2017-07-15T11:28:59Z</time>
            </trkpt>
            <trkpt lat="46.395040" lon="11.064030">
                <time>2017-07-15T11:29:00Z</time>
            </trkpt>
            <trkpt lat="46.394910" lon="11.063920">
                <time>2017-07-15T11:29:01Z</time>
            </trkpt>
            <trkpt lat="46.394770" lon="11.063820">
                <time>2017-07-15T11:29:02Z</time>
            </trkpt>
            <trkpt lat="46.394620" lon="11.063710">
                <time>2017-07-15T11:29:03Z</time>
            </trkpt>
            <trkpt lat="46.394470" lon="11.063610">
                <time>2017-07-15T11:29:04Z</time>
            </trkpt>
            <trkpt lat="46.394300" lon="11.063530">
                <time>2017-07-15T11:29:05Z</time>
            </trkpt>
            <trkpt lat="46.394130" lon="11.063440">
                <time>2017-07-15T11:29:06Z</time>
            </trkpt>
            <trkpt lat="46.393960" lon="11.063360">
                <time>2017-07-15T11:29:07Z</time>
            </trkpt>
            <trkpt lat="46.393770" lon="11.063270">
                <time>2017-07-15T11:29:08Z</time>
            </trkpt>
            <trkpt lat="46.393610" lon="11.063190">
                <time>2017-07-15T11:29:09Z</time>
            </trkpt>
            <trkpt lat="46.393440" lon="11.063110">
                <time>2017-07-15T11:29:10Z</time>
            </trkpt>
            <trkpt lat="46.393280" lon="11.063020">
                <time>2017-07-15T11:29:11Z</time>
            </trkpt>
            <trkpt lat="46.393130" lon="11.062950">
                <time>2017-07-15T11:29:12Z</time>
            </trkpt>
            <trkpt lat="46.392990" lon="11.062870">
                <time>2017-07-15T11:29:13Z</time>
            </trkpt>
            <trkpt lat="46.392840" lon="11.062780">
                <time>2017-07-15T11:29:14Z</time>
            </trkpt>
            <trkpt lat="46.392710" lon="11.062690">
                <time>2017-07-15T11:29:15Z</time>
            </trkpt>
            <trkpt lat="46.392580" lon="11.062560">
                <time>2017-07-15T11:29:16Z</time>
            </trkpt>
            <trkpt lat="46.392450" lon="11.062420">
                <time>2017-07-15T11:29:17Z</time>
            </trkpt>
            <trkpt lat="46.392320" lon="11.062260">
                <time>2017-07-15T11:29:18Z</time>
            </trkpt>
            <trkpt lat="46.392180" lon="11.062080">
                <time>2017-07-15T11:29:19Z</time>
            </trkpt>
            <trkpt lat="46.392060" lon="11.061900">
                <time>2017-07-15T11:29:20Z</time>
            </trkpt>
            <trkpt lat="46.391930" lon="11.061700">
                <time>2017-07-15T11:29:21Z</time>
            </trkpt>
            <trkpt lat="46.391820" lon="11.061470">
                <time>2017-07-15T11:29:22Z</time>
            </trkpt>
            <trkpt lat="46.391710" lon="11.061230">
                <time>2017-07-15T11:29:23Z</time>
            </trkpt>
            <trkpt lat="46.391600" lon="11.060980">
                <time>2017-07-15T11:29:24Z</time>
            </trkpt>
            <trkpt lat="46.391500" lon="11.060750">
                <time>2017-07-15T11:29:25Z</time>
            </trkpt>
            <trkpt lat="46.391400" lon="11.060510">
                <time>2017-07-15T11:29:26Z</time>
            </trkpt>
            <trkpt lat="46.391290" lon="11.060260">
                <time>2017-07-15T11:29:27Z</time>
            </trkpt>
            <trkpt lat="46.391200" lon="11.060050">
                <time>2017-07-15T11:29:28Z</time>
            </trkpt>
            <trkpt lat="46.391100" lon="11.059820">
                <time>2017-07-15T11:29:29Z</time>
            </trkpt>
            <trkpt lat="46.391000" lon="11.059600">
                <time>2017-07-15T11:29:30Z</time>
            </trkpt>
            <trkpt lat="46.390910" lon="11.059400">
                <time>2017-07-15T11:29:31Z</time>
            </trkpt>
            <trkpt lat="46.390810" lon="11.059190">
                <time>2017-07-15T11:29:32Z</time>
            </trkpt>
            <trkpt lat="46.390740" lon="11.059010">
                <time>2017-07-15T11:29:33Z</time>
            </trkpt>
            <trkpt lat="46.390660" lon="11.058830">
                <time>2017-07-15T11:29:34Z</time>
            </trkpt>
            <trkpt lat="46.390600" lon="11.058660">
                <time>2017-07-15T11:29:35Z</time>
            </trkpt>
            <trkpt lat="46.390560" lon="11.058540">
                <time>2017-07-15T11:29:36Z</time>
            </trkpt>
            <trkpt lat="46.390540" lon="11.058400">
                <time>2017-07-15T11:29:37Z</time>
            </trkpt>
            <trkpt lat="46.390560" lon="11.058270">
                <time>2017-07-15T11:29:38Z</time>
            </trkpt>
            <trkpt lat="46.390610" lon="11.058150">
                <time>2017-07-15T11:29:39Z</time>
            </trkpt>
            <trkpt lat="46.390690" lon="11.058060">
                <time>2017-07-15T11:29:40Z</time>
            </trkpt>
            <trkpt lat="46.390770" lon="11.057990">
                <time>2017-07-15T11:29:41Z</time>
            </trkpt>
            <trkpt lat="46.390850" lon="11.057910">
                <time>2017-07-15T11:29:42Z</time>
            </trkpt>
            <trkpt lat="46.390910" lon="11.057770">
                <time>2017-07-15T11:29:43Z</time>
            </trkpt>
            <trkpt lat="46.390970" lon="11.057650">
                <time>2017-07-15T11:29:44Z</time>
            </trkpt>
            <trkpt lat="46.391000" lon="11.057480">
                <time>2017-07-15T11:29:45Z</time>
            </trkpt>
            <trkpt lat="46.391050" lon="11.057340">
                <time>2017-07-15T11:29:46Z</time>
            </trkpt>
            <trkpt lat="46.391120" lon="11.057230">
                <time>2017-07-15T11:29:47Z</time>
            </trkpt>
            <trkpt lat="46.391190" lon="11.057110">
                <time>2017-07-15T11:29:48Z</time>
            </trkpt>
            <trkpt lat="46.391250" lon="11.056980">
                <time>2017-07-15T11:29:49Z</time>
            </trkpt>
            <trkpt lat="46.391330" lon="11.056810">
                <time>2017-07-15T11:29:50Z</time>
            </trkpt>
            <trkpt lat="46.391410" lon="11.056620">
                <time>2017-07-15T11:29:51Z</time>
            </trkpt>
            <trkpt lat="46.391510" lon="11.056440">
                <time>2017-07-15T11:29:52Z</time>
            </trkpt>
            <trkpt lat="46.391620" lon="11.056240">
                <time>2017-07-15T11:29:53Z</time>
            </trkpt>
            <trkpt lat="46.391740" lon="11.056050">
                <time>2017-07-15T11:29:54Z</time>
            </trkpt>
            <trkpt lat="46.391850" lon="11.055850">
                <time>2017-07-15T11:29:55Z</time>
            </trkpt>
            <trkpt lat="46.391970" lon="11.055660">
                <time>2017-07-15T11:29:56Z</time>
            </trkpt>
            <trkpt lat="46.392060" lon="11.055510">
                <time>2017-07-15T11:29:57Z</time>
            </trkpt>
            <trkpt lat="46.392180" lon="11.055350">
                <time>2017-07-15T11:29:58Z</time>
            </trkpt>
            <trkpt lat="46.392310" lon="11.055200">
                <time>2017-07-15T11:29:59Z</time>
            </trkpt>
            <trkpt lat="46.392430" lon="11.055070">
                <time>2017-07-15T11:30:00Z</time>
            </trkpt>
            <trkpt lat="46.392570" lon="11.054950">
                <time>2017-07-15T11:30:01Z</time>
            </trkpt>
            <trkpt lat="46.392710" lon="11.054820">
                <time>2017-07-15T11:30:02Z</time>
            </trkpt>
            <trkpt lat="46.392830" lon="11.054720">
                <time>2017-07-15T11:30:03Z</time>
            </trkpt>
            <trkpt lat="46.392950" lon="11.054630">
                <time>2017-07-15T11:30:04Z</time>
            </trkpt>
            <trkpt lat="46.393040" lon="11.054560">
                <time>2017-07-15T11:30:05Z</time>
            </trkpt>
            <trkpt lat="46.393120" lon="11.054480">
                <time>2017-07-15T11:30:06Z</time>
            </trkpt>
            <trkpt lat="46.393150" lon="11.054380">
                <time>2017-07-15T11:30:07Z</time>
            </trkpt>
            <trkpt lat="46.393150" lon="11.054280">
                <time>2017-07-15T11:30:08Z</time>
            </trkpt>
            <trkpt lat="46.393110" lon="11.054160">
                <time>2017-07-15T11:30:09Z</time>
            </trkpt>
            <trkpt lat="46.393030" lon="11.054040">
                <time>2017-07-15T11:30:10Z</time>
            </trkpt>
            <trkpt lat="46.392930" lon="11.053910">
                <time>2017-07-15T11:30:11Z</time>
            </trkpt>
            <trkpt lat="46.392800" lon="11.053780">
                <time>2017-07-15T11:30:12Z</time>
            </trkpt>
            <trkpt lat="46.392680" lon="11.053670">
                <time>2017-07-15T11:30:13Z</time>
            </trkpt>
            <trkpt lat="46.392530" lon="11.053560">
                <time>2017-07-15T11:30:14Z</time>
            </trkpt>
            <trkpt lat="46.392360" lon="11.053470">
                <time>2017-07-15T11:30:15Z</time>
            </trkpt>
            <trkpt lat="46.392210" lon="11.053390">
                <time>2017-07-15T11:30:16Z</time>
            </trkpt>
            <trkpt lat="46.392050" lon="11.053310">
                <time>2017-07-15T11:30:17Z</time>
            </trkpt>
            <trkpt lat="46.391890" lon="11.053210">
                <time>2017-07-15T11:30:18Z</time>
            </trkpt>
            <trkpt lat="46.391750" lon="11.053090">
                <time>2017-07-15T11:30:19Z</time>
            </trkpt>
            <trkpt lat="46.391610" lon="11.052940">
                <time>2017-07-15T11:30:20Z</time>
            </trkpt>
            <trkpt lat="46.391490" lon="11.052820">
                <time>2017-07-15T11:30:21Z</time>
            </trkpt>
            <trkpt lat="46.391370" lon="11.052690">
                <time>2017-07-15T11:30:22Z</time>
            </trkpt>
            <trkpt lat="46.391260" lon="11.052540">
                <time>2017-07-15T11:30:23Z</time>
            </trkpt>
            <trkpt lat="46.391180" lon="11.052400">
                <time>2017-07-15T11:30:24Z</time>
            </trkpt>
            <trkpt lat="46.391120" lon="11.052230">
                <time>2017-07-15T11:30:25Z</time>
            </trkpt>
            <trkpt lat="46.391080" lon="11.052050">
                <time>2017-07-15T11:30:26Z</time>
            </trkpt>
            <trkpt lat="46.391080" lon="11.051840">
                <time>2017-07-15T11:30:27Z</time>
            </trkpt>
            <trkpt lat="46.391110" lon="11.051610">
                <time>2017-07-15T11:30:28Z</time>
            </trkpt>
            <trkpt lat="46.391150" lon="11.051400">
                <time>2017-07-15T11:30:29Z</time>
            </trkpt>
            <trkpt lat="46.391210" lon="11.051160">
                <time>2017-07-15T11:30:30Z</time>
            </trkpt>
            <trkpt lat="46.391270" lon="11.050890">
                <time>2017-07-15T11:30:31Z</time>
            </trkpt>
            <trkpt lat="46.391320" lon="11.050660">
                <time>2017-07-15T11:30:32Z</time>
            </trkpt>
            <trkpt lat="46.391380" lon="11.050430">
                <time>2017-07-15T11:30:33Z</time>
            </trkpt>
            <trkpt lat="46.391460" lon="11.050220">
                <time>2017-07-15T11:30:34Z</time>
            </trkpt>
            <trkpt lat="46.391550" lon="11.050060">
                <time>2017-07-15T11:30:35Z</time>
            </trkpt>
            <trkpt lat="46.391660" lon="11.049920">
                <time>2017-07-15T11:30:36Z</time>
            </trkpt>
            <trkpt lat="46.391770" lon="11.049830">
                <time>2017-07-15T11:30:37Z</time>
            </trkpt>
            <trkpt lat="46.391900" lon="11.049770">
                <time>2017-07-15T11:30:38Z</time>
            </trkpt>
            <trkpt lat="46.392060" lon="11.049740">
                <time>2017-07-15T11:30:39Z</time>
            </trkpt>
            <trkpt lat="46.392210" lon="11.049730">
                <time>2017-07-15T11:30:40Z</time>
            </trkpt>
            <trkpt lat="46.392380" lon="11.049730">
                <time>2017-07-15T11:30:41Z</time>
            </trkpt>
            <trkpt lat="46.392540" lon="11.049730">
                <time>2017-07-15T11:30:42Z</time>
            </trkpt>
            <trkpt lat="46.392690" lon="11.049710">
                <time>2017-07-15T11:30:43Z</time>
            </trkpt>
            <trkpt lat="46.392830" lon="11.049650">
                <time>2017-07-15T11:30:44Z</time>
            </trkpt>
            <trkpt lat="46.392940" lon="11.049580">
                <time>2017-07-15T11:30:45Z</time>
            </trkpt>
            <trkpt lat="46.393050" lon="11.049470">
                <time>2017-07-15T11:30:46Z</time>
            </trkpt>
            <trkpt lat="46.393130" lon="11.049310">
                <time>2017-07-15T11:30:47Z</time>
            </trkpt>
            <trkpt lat="46.393170" lon="11.049130">
                <time>2017-07-15T11:30:48Z</time>
            </trkpt>
            <trkpt lat="46.393180" lon="11.048920">
                <time>2017-07-15T11:30:49Z</time>
            </trkpt>
            <trkpt lat="46.393160" lon="11.048680">
                <time>2017-07-15T11:30:50Z</time>
            </trkpt>
            <trkpt lat="46.393140" lon="11.048450">
                <time>2017-07-15T11:30:51Z</time>
            </trkpt>
            <trkpt lat="46.393110" lon="11.048180">
                <time>2017-07-15T11:30:52Z</time>
            </trkpt>
            <trkpt lat="46.393080" lon="11.047950">
                <time>2017-07-15T11:30:53Z</time>
            </trkpt>
            <trkpt lat="46.393020" lon="11.047710">
                <time>2017-07-15T11:30:54Z</time>
            </trkpt>
            <trkpt lat="46.392930" lon="11.047460">
                <time>2017-07-15T11:30:55Z</time>
            </trkpt>
            <trkpt lat="46.392820" lon="11.047250">
                <time>2017-07-15T11:30:56Z</time>
            </trkpt>
            <trkpt lat="46.392700" lon="11.047040">
                <time>2017-07-15T11:30:57Z</time>
            </trkpt>
            <trkpt lat="46.392580" lon="11.046840">
                <time>2017-07-15T11:30:58Z</time>
            </trkpt>
            <trkpt lat="46.392460" lon="11.046650">
                <time>2017-07-15T11:30:59Z</time>
            </trkpt>
            <trkpt lat="46.392350" lon="11.046460">
                <time>2017-07-15T11:31:00Z</time>
            </trkpt>
            <trkpt lat="46.392260" lon="11.046300">
                <time>2017-07-15T11:31:01Z</time>
            </trkpt>
            <trkpt lat="46.392170" lon="11.046150">
                <time>2017-07-15T11:31:02Z</time>
            </trkpt>
            <trkpt lat="46.392090" lon="11.046010">
                <time>2017-07-15T11:31:03Z</time>
            </trkpt>
            <trkpt lat="46.392050" lon="11.045890">
                <time>2017-07-15T11:31:04Z</time>
            </trkpt>
            <trkpt lat="46.392010" lon="11.045740">
                <time>2017-07-15T11:31:05Z</time>
            </trkpt>
            <trkpt lat="46.391990" lon="11.045570">
                <time>2017-07-15T11:31:06Z</time>
            </trkpt>
            <trkpt lat="46.392000" lon="11.045400">
                <time>2017-07-15T11:31:07Z</time>
            </trkpt>
            <trkpt lat="46.392040" lon="11.045220">
                <time>2017-07-15T11:31:08Z</time>
            </trkpt>
            <trkpt lat="46.392110" lon="11.045070">
                <time>2017-07-15T11:31:09Z</time>
            </trkpt>
            <trkpt lat="46.392200" lon="11.044920">
                <time>2017-07-15T11:31:10Z</time>
            </trkpt>
            <trkpt lat="46.392310" lon="11.044770">
                <time>2017-07-15T11:31:11Z</time>
            </trkpt>
            <trkpt lat="46.392420" lon="11.044620">
                <time>2017-07-15T11:31:12Z</time>
            </trkpt>
            <trkpt lat="46.392540" lon="11.044460">
                <time>2017-07-15T11:31:13Z</time>
            </trkpt>
            <trkpt lat="46.392670" lon="11.044290">
                <time>2017-07-15T11:31:14Z</time>
            </trkpt>
            <trkpt lat="46.392800" lon="11.044130">
                <time>2017-07-15T11:31:15Z</time>
            </trkpt>
            <trkpt lat="46.392940" lon="11.043970">
                <time>2017-07-15T11:31:16Z</time>
            </trkpt>
            <trkpt lat="46.393070" lon="11.043830">
                <time>2017-07-15T11:31:17Z</time>
            </trkpt>
            <trkpt lat="46.393200" lon="11.043690">
                <time>2017-07-15T11:31:18Z</time>
            </trkpt>
            <trkpt lat="46.393350" lon="11.043550">
                <time>2017-07-15T11:31:19Z</time>
            </trkpt>
            <trkpt lat="46.393470" lon="11.043420">
                <time>2017-07-15T11:31:20Z</time>
            </trkpt>
            <trkpt lat="46.393610" lon="11.043290">
                <time>2017-07-15T11:31:21Z</time>
            </trkpt>
            <trkpt lat="46.393750" lon="11.043150">
                <time>2017-07-15T11:31:22Z</time>
            </trkpt>
            <trkpt lat="46.393870" lon="11.043020">
                <time>2017-07-15T11:31:23Z</time>
            </trkpt>
            <trkpt lat="46.394020" lon="11.042870">
                <time>2017-07-15T11:31:24Z</time>
            </trkpt>
            <trkpt lat="46.394150" lon="11.042730">
                <time>2017-07-15T11:31:25Z</time>
            </trkpt>
            <trkpt lat="46.394290" lon="11.042590">
                <time>2017-07-15T11:31:26Z</time>
            </trkpt>
            <trkpt lat="46.394430" lon="11.042440">
                <time>2017-07-15T11:31:27Z</time>
            </trkpt>
            <trkpt lat="46.394550" lon="11.042320">
                <time>2017-07-15T11:31:28Z</time>
            </trkpt>
            <trkpt lat="46.394670" lon="11.042170">
                <time>2017-07-15T11:31:29Z</time>
            </trkpt>
            <trkpt lat="46.394770" lon="11.042000">
                <time>2017-07-15T11:31:30Z</time>
            </trkpt>
            <trkpt lat="46.394860" lon="11.041820">
                <time>2017-07-15T11:31:31Z</time>
            </trkpt>
            <trkpt lat="46.394930" lon="11.041620">
                <time>2017-07-15T11:31:32Z</time>
            </trkpt>
            <trkpt lat="46.394990" lon="11.041430">
                <time>2017-07-15T11:31:33Z</time>
            </trkpt>
            <trkpt lat="46.395040" lon="11.041220">
                <time>2017-07-15T11:31:34Z</time>
            </trkpt>
            <trkpt lat="46.395070" lon="11.041010">
                <time>2017-07-15T11:31:35Z</time>
            </trkpt>
            <trkpt lat="46.395090" lon="11.040820">
                <time>2017-07-15T11:31:36Z</time>
            </trkpt>
            <trkpt lat="46.395100" lon="11.040630">
                <time>2017-07-15T11:31:37Z</time>
            </trkpt>
            <trkpt lat="46.395110" lon="11.040450">
                <time>2017-07-15T11:31:38Z</time>
            </trkpt>
            <trkpt lat="46.395090" lon="11.040300">
                <time>2017-07-15T11:31:39Z</time>
            </trkpt>
            <trkpt lat="46.395060" lon="11.040150">
                <time>2017-07-15T11:31:40Z</time>
            </trkpt>
            <trkpt lat="46.395020" lon="11.040010">
                <time>2017-07-15T11:31:41Z</time>
            </trkpt>
            <trkpt lat="46.395010" lon="11.039840">
                <time>2017-07-15T11:31:42Z</time>
            </trkpt>
            <trkpt lat="46.395010" lon="11.039640">
                <time>2017-07-15T11:31:43Z</time>
            </trkpt>
            <trkpt lat="46.395010" lon="11.039450">
                <time>2017-07-15T11:31:44Z</time>
            </trkpt>
            <trkpt lat="46.394990" lon="11.039240">
                <time>2017-07-15T11:31:45Z</time>
            </trkpt>
            <trkpt lat="46.394960" lon="11.039030">
                <time>2017-07-15T11:31:46Z</time>
            </trkpt>
            <trkpt lat="46.394940" lon="11.038810">
                <time>2017-07-15T11:31:47Z</time>
            </trkpt>
            <trkpt lat="46.394930" lon="11.038580">
                <time>2017-07-15T11:31:48Z</time>
            </trkpt>
            <trkpt lat="46.394910" lon="11.038380">
                <time>2017-07-15T11:31:49Z</time>
            </trkpt>
            <trkpt lat="46.394890" lon="11.038180">
                <time>2017-07-15T11:31:50Z</time>
            </trkpt>
            <trkpt lat="46.394850" lon="11.037990">
                <time>2017-07-15T11:31:51Z</time>
            </trkpt>
            <trkpt lat="46.394790" lon="11.037840">
                <time>2017-07-15T11:31:52Z</time>
            </trkpt>
            <trkpt lat="46.394680" lon="11.037700">
                <time>2017-07-15T11:31:53Z</time>
            </trkpt>
            <trkpt lat="46.394560" lon="11.037570">
                <time>2017-07-15T11:31:54Z</time>
            </trkpt>
            <trkpt lat="46.394450" lon="11.037460">
                <time>2017-07-15T11:31:55Z</time>
            </trkpt>
            <trkpt lat="46.394320" lon="11.037320">
                <time>2017-07-15T11:31:56Z</time>
            </trkpt>
            <trkpt lat="46.394230" lon="11.037180">
                <time>2017-07-15T11:31:57Z</time>
            </trkpt>
            <trkpt lat="46.394170" lon="11.037010">
                <time>2017-07-15T11:31:58Z</time>
            </trkpt>
            <trkpt lat="46.394120" lon="11.036800">
                <time>2017-07-15T11:31:59Z</time>
            </trkpt>
            <trkpt lat="46.394090" lon="11.036600">
                <time>2017-07-15T11:32:00Z</time>
            </trkpt>
            <trkpt lat="46.394060" lon="11.036380">
                <time>2017-07-15T11:32:01Z</time>
            </trkpt>
            <trkpt lat="46.394030" lon="11.036170">
                <time>2017-07-15T11:32:02Z</time>
            </trkpt>
            <trkpt lat="46.394020" lon="11.035960">
                <time>2017-07-15T11:32:03Z</time>
            </trkpt>
            <trkpt lat="46.394040" lon="11.035730">
                <time>2017-07-15T11:32:04Z</time>
            </trkpt>
            <trkpt lat="46.394080" lon="11.035550">
                <time>2017-07-15T11:32:05Z</time>
            </trkpt>
            <trkpt lat="46.394130" lon="11.035370">
                <time>2017-07-15T11:32:06Z</time>
            </trkpt>
            <trkpt lat="46.394210" lon="11.035190">
                <time>2017-07-15T11:32:07Z</time>
            </trkpt>
            <trkpt lat="46.394280" lon="11.035060">
                <time>2017-07-15T11:32:08Z</time>
            </trkpt>
            <trkpt lat="46.394350" lon="11.034940">
                <time>2017-07-15T11:32:09Z</time>
            </trkpt>
            <trkpt lat="46.394400" lon="11.034790">
                <time>2017-07-15T11:32:10Z</time>
            </trkpt>
            <trkpt lat="46.394410" lon="11.034660">
                <time>2017-07-15T11:32:11Z</time>
            </trkpt>
            <trkpt lat="46.394390" lon="11.034510">
                <time>2017-07-15T11:32:12Z</time>
            </trkpt>
            <trkpt lat="46.394340" lon="11.034390">
                <time>2017-07-15T11:32:13Z</time>
            </trkpt>
            <trkpt lat="46.394260" lon="11.034270">
                <time>2017-07-15T11:32:14Z</time>
            </trkpt>
            <trkpt lat="46.394160" lon="11.034140">
                <time>2017-07-15T11:32:15Z</time>
            </trkpt>
            <trkpt lat="46.394080" lon="11.034030">
                <time>2017-07-15T11:32:16Z</time>
            </trkpt>
            <trkpt lat="46.394010" lon="11.033910">
                <time>2017-07-15T11:32:17Z</time>
            </trkpt>
            <trkpt lat="46.393960" lon="11.033800">
                <time>2017-07-15T11:32:18Z</time>
            </trkpt>
            <trkpt lat="46.393930" lon="11.033690">
                <time>2017-07-15T11:32:19Z</time>
            </trkpt>
            <trkpt lat="46.393900" lon="11.033590">
                <time>2017-07-15T11:32:20Z</time>
            </trkpt>
            <trkpt lat="46.393910" lon="11.033520">
                <time>2017-07-15T11:32:21Z</time>
            </trkpt>
            <trkpt lat="46.393940" lon="11.033460">
                <time>2017-07-15T11:32:22Z</time>
            </trkpt>
            <trkpt lat="46.393990" lon="11.033450">
                <time>2017-07-15T11:32:23Z</time>
            </trkpt>
            <trkpt lat="46.394050" lon="11.033480">
                <time>2017-07-15T11:32:24Z</time>
            </trkpt>
            <trkpt lat="46.394100" lon="11.033560">
                <time>2017-07-15T11:32:25Z</time>
            </trkpt>
            <trkpt lat="46.394160" lon="11.033710">
                <time>2017-07-15T11:32:26Z</time>
            </trkpt>
            <trkpt lat="46.394220" lon="11.033870">
                <time>2017-07-15T11:32:27Z</time>
            </trkpt>
            <trkpt lat="46.394310" lon="11.034040">
                <time>2017-07-15T11:32:28Z</time>
            </trkpt>
            <trkpt lat="46.394400" lon="11.034190">
                <time>2017-07-15T11:32:29Z</time>
            </trkpt>
            <trkpt lat="46.394510" lon="11.034320">
                <time>2017-07-15T11:32:30Z</time>
            </trkpt>
            <trkpt lat="46.394610" lon="11.034450">
                <time>2017-07-15T11:32:31Z</time>
            </trkpt>
            <trkpt lat="46.394690" lon="11.034550">
                <time>2017-07-15T11:32:32Z</time>
            </trkpt>
            <trkpt lat="46.394740" lon="11.034670">
                <time>2017-07-15T11:32:33Z</time>
            </trkpt>
            <trkpt lat="46.394770" lon="11.034810">
                <time>2017-07-15T11:32:34Z</time>
            </trkpt>
            <trkpt lat="46.394760" lon="11.034930">
                <time>2017-07-15T11:32:35Z</time>
            </trkpt>
            <trkpt lat="46.394720" lon="11.035060">
                <time>2017-07-15T11:32:36Z</time>
            </trkpt>
            <trkpt lat="46.394660" lon="11.035220">
                <time>2017-07-15T11:32:37Z</time>
            </trkpt>
            <trkpt lat="46.394590" lon="11.035370">
                <time>2017-07-15T11:32:38Z</time>
            </trkpt>
            <trkpt lat="46.394510" lon="11.035530">
                <time>2017-07-15T11:32:39Z</time>
            </trkpt>
            <trkpt lat="46.394500" lon="11.035700">
                <time>2017-07-15T11:32:40Z</time>
            </trkpt>
            <trkpt lat="46.394490" lon="11.035880">
                <time>2017-07-15T11:32:41Z</time>
            </trkpt>
            <trkpt lat="46.394520" lon="11.036070">
                <time>2017-07-15T11:32:42Z</time>
            </trkpt>
            <trkpt lat="46.394580" lon="11.036240">
                <time>2017-07-15T11:32:43Z</time>
            </trkpt>
            <trkpt lat="46.394640" lon="11.036430">
                <time>2017-07-15T11:32:44Z</time>
            </trkpt>
            <trkpt lat="46.394690" lon="11.036560">
                <time>2017-07-15T11:32:45Z</time>
            </trkpt>
            <trkpt lat="46.394770" lon="11.036670">
                <time>2017-07-15T11:32:46Z</time>
            </trkpt>
            <trkpt lat="46.394850" lon="11.036770">
                <time>2017-07-15T11:32:47Z</time>
            </trkpt>
            <trkpt lat="46.394960" lon="11.036770">
                <time>2017-07-15T11:32:48Z</time>
            </trkpt>
            <trkpt lat="46.395070" lon="11.036780">
                <time>2017-07-15T11:32:49Z</time>
            </trkpt>
            <trkpt lat="46.395180" lon="11.036820">
                <time>2017-07-15T11:32:50Z</time>
            </trkpt>
            <trkpt lat="46.395300" lon="11.036900">
                <time>2017-07-15T11:32:51Z</time>
            </trkpt>
            <trkpt lat="46.395430" lon="11.037010">
                <time>2017-07-15T11:32:52Z</time>
            </trkpt>
            <trkpt lat="46.395540" lon="11.037120">
                <time>2017-07-15T11:32:53Z</time>
            </trkpt>
            <trkpt lat="46.395670" lon="11.037220">
                <time>2017-07-15T11:32:54Z</time>
            </trkpt>
            <trkpt lat="46.395780" lon="11.037350">
                <time>2017-07-15T11:32:55Z</time>
            </trkpt>
            <trkpt lat="46.395830" lon="11.037490">
                <time>2017-07-15T11:32:56Z</time>
            </trkpt>
            <trkpt lat="46.395890" lon="11.037650">
                <time>2017-07-15T11:32:57Z</time>
            </trkpt>
            <trkpt lat="46.395950" lon="11.037820">
                <time>2017-07-15T11:32:58Z</time>
            </trkpt>
            <trkpt lat="46.395980" lon="11.037990">
                <time>2017-07-15T11:32:59Z</time>
            </trkpt>
            <trkpt lat="46.396010" lon="11.038200">
                <time>2017-07-15T11:33:00Z</time>
            </trkpt>
            <trkpt lat="46.396020" lon="11.038370">
                <time>2017-07-15T11:33:01Z</time>
            </trkpt>
            <trkpt lat="46.396030" lon="11.038550">
                <time>2017-07-15T11:33:02Z</time>
            </trkpt>
            <trkpt lat="46.396080" lon="11.038720">
                <time>2017-07-15T11:33:03Z</time>
            </trkpt>
            <trkpt lat="46.396130" lon="11.038850">
                <time>2017-07-15T11:33:04Z</time>
            </trkpt>
            <trkpt lat="46.396180" lon="11.038960">
                <time>2017-07-15T11:33:05Z</time>
            </trkpt>
            <trkpt lat="46.396260" lon="11.039040">
                <time>2017-07-15T11:33:06Z</time>
            </trkpt>
            <trkpt lat="46.396340" lon="11.039070">
                <time>2017-07-15T11:33:07Z</time>
            </trkpt>
            <trkpt lat="46.396430" lon="11.039040">
                <time>2017-07-15T11:33:08Z</time>
            </trkpt>
            <trkpt lat="46.396490" lon="11.038970">
                <time>2017-07-15T11:33:09Z</time>
            </trkpt>
            <trkpt lat="46.396550" lon="11.038880">
                <time>2017-07-15T11:33:10Z</time>
            </trkpt>
            <trkpt lat="46.396610" lon="11.038760">
                <time>2017-07-15T11:33:11Z</time>
            </trkpt>
            <trkpt lat="46.396650" lon="11.038590">
                <time>2017-07-15T11:33:12Z</time>
            </trkpt>
            <trkpt lat="46.396710" lon="11.038370">
                <time>2017-07-15T11:33:13Z</time>
            </trkpt>
            <trkpt lat="46.396750" lon="11.038120">
                <time>2017-07-15T11:33:14Z</time>
            </trkpt>
            <trkpt lat="46.396770" lon="11.037880">
                <time>2017-07-15T11:33:15Z</time>
            </trkpt>
            <trkpt lat="46.396780" lon="11.037590">
                <time>2017-07-15T11:33:16Z</time>
            </trkpt>
            <trkpt lat="46.396770" lon="11.037320">
                <time>2017-07-15T11:33:17Z</time>
            </trkpt>
            <trkpt lat="46.396760" lon="11.037050">
                <time>2017-07-15T11:33:18Z</time>
            </trkpt>
            <trkpt lat="46.396780" lon="11.036800">
                <time>2017-07-15T11:33:19Z</time>
            </trkpt>
            <trkpt lat="46.396810" lon="11.036620">
                <time>2017-07-15T11:33:20Z</time>
            </trkpt>
            <trkpt lat="46.396850" lon="11.036470">
                <time>2017-07-15T11:33:21Z</time>
            </trkpt>
            <trkpt lat="46.396910" lon="11.036340">
                <time>2017-07-15T11:33:22Z</time>
            </trkpt>
            <trkpt lat="46.396970" lon="11.036270">
                <time>2017-07-15T11:33:23Z</time>
            </trkpt>
            <trkpt lat="46.396980" lon="11.036190">
                <time>2017-07-15T11:33:24Z</time>
            </trkpt>
            <trkpt lat="46.396960" lon="11.036130">
                <time>2017-07-15T11:33:25Z</time>
            </trkpt>
            <trkpt lat="46.396920" lon="11.036090">
                <time>2017-07-15T11:33:26Z</time>
            </trkpt>
            <trkpt lat="46.396840" lon="11.036150">
                <time>2017-07-15T11:33:27Z</time>
            </trkpt>
            <trkpt lat="46.396760" lon="11.036240">
                <time>2017-07-15T11:33:28Z</time>
            </trkpt>
            <trkpt lat="46.396680" lon="11.036400">
                <time>2017-07-15T11:33:29Z</time>
            </trkpt>
            <trkpt lat="46.396660" lon="11.036680">
                <time>2017-07-15T11:33:30Z</time>
            </trkpt>
            <trkpt lat="46.396630" lon="11.036920">
                <time>2017-07-15T11:33:31Z</time>
            </trkpt>
            <trkpt lat="46.396600" lon="11.037190">
                <time>2017-07-15T11:33:32Z</time>
            </trkpt>
            <trkpt lat="46.396560" lon="11.037420">
                <time>2017-07-15T11:33:33Z</time>
            </trkpt>
            <trkpt lat="46.396530" lon="11.037600">
                <time>2017-07-15T11:33:34Z</time>
            </trkpt>
            <trkpt lat="46.396500" lon="11.037760">
                <time>2017-07-15T11:33:35Z</time>
            </trkpt>
            <trkpt lat="46.396450" lon="11.037840">
                <time>2017-07-15T11:33:36Z</time>
            </trkpt>
            <trkpt lat="46.396390" lon="11.037870">
                <time>2017-07-15T11:33:37Z</time>
            </trkpt>
            <trkpt lat="46.396320" lon="11.037860">
                <time>2017-07-15T11:33:38Z</time>
            </trkpt>
            <trkpt lat="46.396270" lon="11.037780">
                <time>2017-07-15T11:33:39Z</time>
            </trkpt>
            <trkpt lat="46.396220" lon="11.037680">
                <time>2017-07-15T11:33:40Z</time>
            </trkpt>
            <trkpt lat="46.396200" lon="11.037420">
                <time>2017-07-15T11:33:41Z</time>
            </trkpt>
            <trkpt lat="46.396140" lon="11.037190">
                <time>2017-07-15T11:33:42Z</time>
            </trkpt>
            <trkpt lat="46.396080" lon="11.036900">
                <time>2017-07-15T11:33:43Z</time>
            </trkpt>
            <trkpt lat="46.396030" lon="11.036660">
                <time>2017-07-15T11:33:44Z</time>
            </trkpt>
            <trkpt lat="46.395960" lon="11.036460">
                <time>2017-07-15T11:33:45Z</time>
            </trkpt>
            <trkpt lat="46.395870" lon="11.036310">
                <time>2017-07-15T11:33:46Z</time>
            </trkpt>
            <trkpt lat="46.395800" lon="11.036170">
                <time>2017-07-15T11:33:47Z</time>
            </trkpt>
            <trkpt lat="46.395740" lon="11.035990">
                <time>2017-07-15T11:33:48Z</time>
            </trkpt>
            <trkpt lat="46.395710" lon="11.035840">
                <time>2017-07-15T11:33:49Z</time>
            </trkpt>
            <trkpt lat="46.395710" lon="11.035660">
                <time>2017-07-15T11:33:50Z</time>
            </trkpt>
            <trkpt lat="46.395770" lon="11.035450">
                <time>2017-07-15T11:33:51Z</time>
            </trkpt>
            <trkpt lat="46.395920" lon="11.035300">
                <time>2017-07-15T11:33:52Z</time>
            </trkpt>
            <trkpt lat="46.396020" lon="11.035100">
                <time>2017-07-15T11:33:53Z</time>
            </trkpt>
            <trkpt lat="46.396110" lon="11.034930">
                <time>2017-07-15T11:33:54Z</time>
            </trkpt>
            <trkpt lat="46.396170" lon="11.034770">
                <time>2017-07-15T11:33:55Z</time>
            </trkpt>
            <trkpt lat="46.396200" lon="11.034600">
                <time>2017-07-15T11:33:56Z</time>
            </trkpt>
            <trkpt lat="46.396180" lon="11.034440">
                <time>2017-07-15T11:33:57Z</time>
            </trkpt>
            <trkpt lat="46.396140" lon="11.034250">
                <time>2017-07-15T11:33:58Z</time>
            </trkpt>
            <trkpt lat="46.396080" lon="11.034010">
                <time>2017-07-15T11:33:59Z</time>
            </trkpt>
            <trkpt lat="46.396020" lon="11.033800">
                <time>2017-07-15T11:34:00Z</time>
            </trkpt>
            <trkpt lat="46.395960" lon="11.033570">
                <time>2017-07-15T11:34:01Z</time>
            </trkpt>
            <trkpt lat="46.395910" lon="11.033330">
                <time>2017-07-15T11:34:02Z</time>
            </trkpt>
            <trkpt lat="46.395880" lon="11.033100">
                <time>2017-07-15T11:34:03Z</time>
            </trkpt>
            <trkpt lat="46.395850" lon="11.032860">
                <time>2017-07-15T11:34:04Z</time>
            </trkpt>
            <trkpt lat="46.395820" lon="11.032660">
                <time>2017-07-15T11:34:05Z</time>
            </trkpt>
            <trkpt lat="46.395750" lon="11.032480">
                <time>2017-07-15T11:34:06Z</time>
            </trkpt>
            <trkpt lat="46.395650" lon="11.032320">
                <time>2017-07-15T11:34:07Z</time>
            </trkpt>
            <trkpt lat="46.395550" lon="11.032230">
                <time>2017-07-15T11:34:08Z</time>
            </trkpt>
            <trkpt lat="46.395460" lon="11.032100">
                <time>2017-07-15T11:34:09Z</time>
            </trkpt>
            <trkpt lat="46.395410" lon="11.031930">
                <time>2017-07-15T11:34:10Z</time>
            </trkpt>
            <trkpt lat="46.395370" lon="11.031730">
                <time>2017-07-15T11:34:11Z</time>
            </trkpt>
            <trkpt lat="46.395360" lon="11.031450">
                <time>2017-07-15T11:34:12Z</time>
            </trkpt>
            <trkpt lat="46.395340" lon="11.031220">
                <time>2017-07-15T11:34:13Z</time>
            </trkpt>
            <trkpt lat="46.395320" lon="11.030970">
                <time>2017-07-15T11:34:14Z</time>
            </trkpt>
            <trkpt lat="46.395270" lon="11.030740">
                <time>2017-07-15T11:34:15Z</time>
            </trkpt>
            <trkpt lat="46.395220" lon="11.030560">
                <time>2017-07-15T11:34:16Z</time>
            </trkpt>
            <trkpt lat="46.395120" lon="11.030380">
                <time>2017-07-15T11:34:17Z</time>
            </trkpt>
            <trkpt lat="46.394990" lon="11.030180">
                <time>2017-07-15T11:34:18Z</time>
            </trkpt>
            <trkpt lat="46.394850" lon="11.030020">
                <time>2017-07-15T11:34:19Z</time>
            </trkpt>
            <trkpt lat="46.394690" lon="11.029800">
                <time>2017-07-15T11:34:20Z</time>
            </trkpt>
            <trkpt lat="46.394550" lon="11.029580">
                <time>2017-07-15T11:34:21Z</time>
            </trkpt>
            <trkpt lat="46.394390" lon="11.029360">
                <time>2017-07-15T11:34:22Z</time>
            </trkpt>
            <trkpt lat="46.394220" lon="11.029160">
                <time>2017-07-15T11:34:23Z</time>
            </trkpt>
            <trkpt lat="46.394080" lon="11.028990">
                <time>2017-07-15T11:34:24Z</time>
            </trkpt>
            <trkpt lat="46.393940" lon="11.028840">
                <time>2017-07-15T11:34:25Z</time>
            </trkpt>
            <trkpt lat="46.393780" lon="11.028740">
                <time>2017-07-15T11:34:26Z</time>
            </trkpt>
            <trkpt lat="46.393630" lon="11.028660">
                <time>2017-07-15T11:34:27Z</time>
            </trkpt>
            <trkpt lat="46.393480" lon="11.028560">
                <time>2017-07-15T11:34:28Z</time>
            </trkpt>
            <trkpt lat="46.393350" lon="11.028450">
                <time>2017-07-15T11:34:29Z</time>
            </trkpt>
            <trkpt lat="46.393230" lon="11.028310">
                <time>2017-07-15T11:34:30Z</time>
            </trkpt>
            <trkpt lat="46.393120" lon="11.028160">
                <time>2017-07-15T11:34:31Z</time>
            </trkpt>
            <trkpt lat="46.393060" lon="11.027990">
                <time>2017-07-15T11:34:32Z</time>
            </trkpt>
            <trkpt lat="46.393010" lon="11.027800">
                <time>2017-07-15T11:34:33Z</time>
            </trkpt>
            <trkpt lat="46.392940" lon="11.027580">
                <time>2017-07-15T11:34:34Z</time>
            </trkpt>
            <trkpt lat="46.392850" lon="11.027370">
                <time>2017-07-15T11:34:35Z</time>
            </trkpt>
            <trkpt lat="46.392740" lon="11.027130">
                <time>2017-07-15T11:34:36Z</time>
            </trkpt>
            <trkpt lat="46.392660" lon="11.026910">
                <time>2017-07-15T11:34:37Z</time>
            </trkpt>
            <trkpt lat="46.392590" lon="11.026660">
                <time>2017-07-15T11:34:38Z</time>
            </trkpt>
            <trkpt lat="46.392520" lon="11.026410">
                <time>2017-07-15T11:34:39Z</time>
            </trkpt>
            <trkpt lat="46.392460" lon="11.026200">
                <time>2017-07-15T11:34:40Z</time>
            </trkpt>
            <trkpt lat="46.392400" lon="11.025970">
                <time>2017-07-15T11:34:41Z</time>
            </trkpt>
            <trkpt lat="46.392340" lon="11.025750">
                <time>2017-07-15T11:34:42Z</time>
            </trkpt>
            <trkpt lat="46.392290" lon="11.025550">
                <time>2017-07-15T11:34:43Z</time>
            </trkpt>
            <trkpt lat="46.392260" lon="11.025340">
                <time>2017-07-15T11:34:44Z</time>
            </trkpt>
            <trkpt lat="46.392250" lon="11.025140">
                <time>2017-07-15T11:34:45Z</time>
            </trkpt>
            <trkpt lat="46.392280" lon="11.024920">
                <time>2017-07-15T11:34:46Z</time>
            </trkpt>
            <trkpt lat="46.392360" lon="11.024650">
                <time>2017-07-15T11:34:47Z</time>
            </trkpt>
            <trkpt lat="46.392430" lon="11.024390">
                <time>2017-07-15T11:34:48Z</time>
            </trkpt>
            <trkpt lat="46.392510" lon="11.024080">
                <time>2017-07-15T11:34:49Z</time>
            </trkpt>
            <trkpt lat="46.392620" lon="11.023740">
                <time>2017-07-15T11:34:50Z</time>
            </trkpt>
            <trkpt lat="46.392720" lon="11.023420">
                <time>2017-07-15T11:34:51Z</time>
            </trkpt>
            <trkpt lat="46.392830" lon="11.023090">
                <time>2017-07-15T11:34:52Z</time>
            </trkpt>
            <trkpt lat="46.392910" lon="11.022840">
                <time>2017-07-15T11:34:53Z</time>
            </trkpt>
            <trkpt lat="46.392990" lon="11.022610">
                <time>2017-07-15T11:34:54Z</time>
            </trkpt>
            <trkpt lat="46.393070" lon="11.022410">
                <time>2017-07-15T11:34:55Z</time>
            </trkpt>
            <trkpt lat="46.393130" lon="11.022270">
                <time>2017-07-15T11:34:56Z</time>
            </trkpt>
            <trkpt lat="46.393220" lon="11.022170">
                <time>2017-07-15T11:34:57Z</time>
            </trkpt>
            <trkpt lat="46.393340" lon="11.022130">
                <time>2017-07-15T11:34:58Z</time>
            </trkpt>
            <trkpt lat="46.393490" lon="11.022140">
                <time>2017-07-15T11:34:59Z</time>
            </trkpt>
            <trkpt lat="46.393670" lon="11.022170">
                <time>2017-07-15T11:35:00Z</time>
            </trkpt>
            <trkpt lat="46.393840" lon="11.022190">
                <time>2017-07-15T11:35:01Z</time>
            </trkpt>
            <trkpt lat="46.394020" lon="11.022210">
                <time>2017-07-15T11:35:02Z</time>
            </trkpt>
            <trkpt lat="46.394210" lon="11.022180">
                <time>2017-07-15T11:35:03Z</time>
            </trkpt>
            <trkpt lat="46.394380" lon="11.022110">
                <time>2017-07-15T11:35:04Z</time>
            </trkpt>
            <trkpt lat="46.394560" lon="11.022000">
                <time>2017-07-15T11:35:05Z</time>
            </trkpt>
            <trkpt lat="46.394740" lon="11.021850">
                <time>2017-07-15T11:35:06Z</time>
            </trkpt>
            <trkpt lat="46.394880" lon="11.021690">
                <time>2017-07-15T11:35:07Z</time>
            </trkpt>
            <trkpt lat="46.395050" lon="11.021480">
                <time>2017-07-15T11:35:08Z</time>
            </trkpt>
            <trkpt lat="46.395180" lon="11.021300">
                <time>2017-07-15T11:35:09Z</time>
            </trkpt>
            <trkpt lat="46.395310" lon="11.021120">
                <time>2017-07-15T11:35:10Z</time>
            </trkpt>
            <trkpt lat="46.395420" lon="11.020940">
                <time>2017-07-15T11:35:11Z</time>
            </trkpt>
            <trkpt lat="46.395490" lon="11.020750">
                <time>2017-07-15T11:35:12Z</time>
            </trkpt>
            <trkpt lat="46.395540" lon="11.020520">
                <time>2017-07-15T11:35:13Z</time>
            </trkpt>
            <trkpt lat="46.395580" lon="11.020300">
                <time>2017-07-15T11:35:14Z</time>
            </trkpt>
            <trkpt lat="46.395640" lon="11.020100">
                <time>2017-07-15T11:35:15Z</time>
            </trkpt>
            <trkpt lat="46.395750" lon="11.019920">
                <time>2017-07-15T11:35:16Z</time>
            </trkpt>
            <trkpt lat="46.395850" lon="11.019790">
                <time>2017-07-15T11:35:17Z</time>
            </trkpt>
            <trkpt lat="46.395960" lon="11.019650">
                <time>2017-07-15T11:35:18Z</time>
            </trkpt>
            <trkpt lat="46.396030" lon="11.019490">
                <time>2017-07-15T11:35:19Z</time>
            </trkpt>
            <trkpt lat="46.396060" lon="11.019310">
                <time>2017-07-15T11:35:20Z</time>
            </trkpt>
            <trkpt lat="46.396090" lon="11.019140">
                <time>2017-07-15T11:35:21Z</time>
            </trkpt>
            <trkpt lat="46.396120" lon="11.018980">
                <time>2017-07-15T11:35:22Z</time>
            </trkpt>
            <trkpt lat="46.396160" lon="11.018880">
                <time>2017-07-15T11:35:23Z</time>
            </trkpt>
            <trkpt lat="46.396240" lon="11.018820">
                <time>2017-07-15T11:35:24Z</time>
            </trkpt>
            <trkpt lat="46.396390" lon="11.018850">
                <time>2017-07-15T11:35:25Z</time>
            </trkpt>
            <trkpt lat="46.396540" lon="11.018850">
                <time>2017-07-15T11:35:26Z</time>
            </trkpt>
            <trkpt lat="46.396670" lon="11.018790">
                <time>2017-07-15T11:35:27Z</time>
            </trkpt>
            <trkpt lat="46.396770" lon="11.018710">
                <time>2017-07-15T11:35:28Z</time>
            </trkpt>
            <trkpt lat="46.396850" lon="11.018610">
                <time>2017-07-15T11:35:29Z</time>
            </trkpt>
            <trkpt lat="46.396920" lon="11.018480">
                <time>2017-07-15T11:35:30Z</time>
            </trkpt>
            <trkpt lat="46.396940" lon="11.018290">
                <time>2017-07-15T11:35:31Z</time>
            </trkpt>
            <trkpt lat="46.396930" lon="11.018060">
                <time>2017-07-15T11:35:32Z</time>
            </trkpt>
            <trkpt lat="46.396930" lon="11.017880">
                <time>2017-07-15T11:35:33Z</time>
            </trkpt>
            <trkpt lat="46.396960" lon="11.017690">
                <time>2017-07-15T11:35:34Z</time>
            </trkpt>
            <trkpt lat="46.397010" lon="11.017510">
                <time>2017-07-15T11:35:35Z</time>
            </trkpt>
            <trkpt lat="46.397080" lon="11.017370">
                <time>2017-07-15T11:35:36Z</time>
            </trkpt>
            <trkpt lat="46.397200" lon="11.017230">
                <time>2017-07-15T11:35:37Z</time>
            </trkpt>
            <trkpt lat="46.397370" lon="11.017230">
                <time>2017-07-15T11:35:38Z</time>
            </trkpt>
            <trkpt lat="46.397540" lon="11.017290">
                <time>2017-07-15T11:35:39Z</time>
            </trkpt>
            <trkpt lat="46.397690" lon="11.017330">
                <time>2017-07-15T11:35:40Z</time>
            </trkpt>
            <trkpt lat="46.397820" lon="11.017330">
                <time>2017-07-15T11:35:41Z</time>
            </trkpt>
            <trkpt lat="46.397950" lon="11.017280">
                <time>2017-07-15T11:35:42Z</time>
            </trkpt>
            <trkpt lat="46.398070" lon="11.017200">
                <time>2017-07-15T11:35:43Z</time>
            </trkpt>
            <trkpt lat="46.398180" lon="11.017160">
                <time>2017-07-15T11:35:44Z</time>
            </trkpt>
            <trkpt lat="46.398290" lon="11.017120">
                <time>2017-07-15T11:35:45Z</time>
            </trkpt>
            <trkpt lat="46.398410" lon="11.017110">
                <time>2017-07-15T11:35:46Z</time>
            </trkpt>
            <trkpt lat="46.398520" lon="11.017110">
                <time>2017-07-15T11:35:47Z</time>
            </trkpt>
            <trkpt lat="46.398640" lon="11.017070">
                <time>2017-07-15T11:35:48Z</time>
            </trkpt>
            <trkpt lat="46.398730" lon="11.016990">
                <time>2017-07-15T11:35:49Z</time>
            </trkpt>
            <trkpt lat="46.398810" lon="11.016850">
                <time>2017-07-15T11:35:50Z</time>
            </trkpt>
            <trkpt lat="46.398900" lon="11.016720">
                <time>2017-07-15T11:35:51Z</time>
            </trkpt>
            <trkpt lat="46.398980" lon="11.016630">
                <time>2017-07-15T11:35:52Z</time>
            </trkpt>
            <trkpt lat="46.399050" lon="11.016540">
                <time>2017-07-15T11:35:53Z</time>
            </trkpt>
            <trkpt lat="46.399080" lon="11.016420">
                <time>2017-07-15T11:35:54Z</time>
            </trkpt>
            <trkpt lat="46.399070" lon="11.016320">
                <time>2017-07-15T11:35:55Z</time>
            </trkpt>
            <trkpt lat="46.399040" lon="11.016220">
                <time>2017-07-15T11:35:56Z</time>
            </trkpt>
            <trkpt lat="46.398990" lon="11.016130">
                <time>2017-07-15T11:35:57Z</time>
            </trkpt>
            <trkpt lat="46.398820" lon="11.016150">
                <time>2017-07-15T11:35:58Z</time>
            </trkpt>
            <trkpt lat="46.398700" lon="11.016130">
                <time>2017-07-15T11:35:59Z</time>
            </trkpt>
            <trkpt lat="46.398610" lon="11.016100">
                <time>2017-07-15T11:36:00Z</time>
            </trkpt>
            <trkpt lat="46.398530" lon="11.016040">
                <time>2017-07-15T11:36:01Z</time>
            </trkpt>
            <trkpt lat="46.398520" lon="11.015930">
                <time>2017-07-15T11:36:02Z</time>
            </trkpt>
            <trkpt lat="46.398500" lon="11.015800">
                <time>2017-07-15T11:36:03Z</time>
            </trkpt>
            <trkpt lat="46.398470" lon="11.015630">
                <time>2017-07-15T11:36:04Z</time>
            </trkpt>
            <trkpt lat="46.398440" lon="11.015450">
                <time>2017-07-15T11:36:05Z</time>
            </trkpt>
            <trkpt lat="46.398420" lon="11.015280">
                <time>2017-07-15T11:36:06Z</time>
            </trkpt>
            <trkpt lat="46.398410" lon="11.015120">
                <time>2017-07-15T11:36:07Z</time>
            </trkpt>
            <trkpt lat="46.398430" lon="11.014980">
                <time>2017-07-15T11:36:08Z</time>
            </trkpt>
            <trkpt lat="46.398480" lon="11.014810">
                <time>2017-07-15T11:36:09Z</time>
            </trkpt>
            <trkpt lat="46.398550" lon="11.014610">
                <time>2017-07-15T11:36:10Z</time>
            </trkpt>
            <trkpt lat="46.398590" lon="11.014410">
                <time>2017-07-15T11:36:11Z</time>
            </trkpt>
            <trkpt lat="46.398620" lon="11.014190">
                <time>2017-07-15T11:36:12Z</time>
            </trkpt>
            <trkpt lat="46.398690" lon="11.014020">
                <time>2017-07-15T11:36:13Z</time>
            </trkpt>
            <trkpt lat="46.398790" lon="11.013830">
                <time>2017-07-15T11:36:14Z</time>
            </trkpt>
            <trkpt lat="46.398900" lon="11.013600">
                <time>2017-07-15T11:36:15Z</time>
            </trkpt>
            <trkpt lat="46.399000" lon="11.013380">
                <time>2017-07-15T11:36:16Z</time>
            </trkpt>
            <trkpt lat="46.399110" lon="11.013140">
                <time>2017-07-15T11:36:17Z</time>
            </trkpt>
            <trkpt lat="46.399210" lon="11.012910">
                <time>2017-07-15T11:36:18Z</time>
            </trkpt>
            <trkpt lat="46.399300" lon="11.012680">
                <time>2017-07-15T11:36:19Z</time>
            </trkpt>
            <trkpt lat="46.399370" lon="11.012430">
                <time>2017-07-15T11:36:20Z</time>
            </trkpt>
            <trkpt lat="46.399430" lon="11.012180">
                <time>2017-07-15T11:36:21Z</time>
            </trkpt>
            <trkpt lat="46.399490" lon="11.011920">
                <time>2017-07-15T11:36:22Z</time>
            </trkpt>
            <trkpt lat="46.399560" lon="11.011650">
                <time>2017-07-15T11:36:23Z</time>
            </trkpt>
            <trkpt lat="46.399630" lon="11.011410">
                <time>2017-07-15T11:36:24Z</time>
            </trkpt>
            <trkpt lat="46.399690" lon="11.011170">
                <time>2017-07-15T11:36:25Z</time>
            </trkpt>
            <trkpt lat="46.399760" lon="11.010910">
                <time>2017-07-15T11:36:26Z</time>
            </trkpt>
            <trkpt lat="46.399810" lon="11.010720">
                <time>2017-07-15T11:36:27Z</time>
            </trkpt>
            <trkpt lat="46.399870" lon="11.010520">
                <time>2017-07-15T11:36:28Z</time>
            </trkpt>
            <trkpt lat="46.399900" lon="11.010360">
                <time>2017-07-15T11:36:29Z</time>
            </trkpt>
            <trkpt lat="46.399920" lon="11.010200">
                <time>2017-07-15T11:36:30Z</time>
            </trkpt>
            <trkpt lat="46.399910" lon="11.010040">
                <time>2017-07-15T11:36:31Z</time>
            </trkpt>
            <trkpt lat="46.399880" lon="11.009900">
                <time>2017-07-15T11:36:32Z</time>
            </trkpt>
            <trkpt lat="46.399840" lon="11.009770">
                <time>2017-07-15T11:36:33Z</time>
            </trkpt>
            <trkpt lat="46.399780" lon="11.009670">
                <time>2017-07-15T11:36:34Z</time>
            </trkpt>
            <trkpt lat="46.399710" lon="11.009600">
                <time>2017-07-15T11:36:35Z</time>
            </trkpt>
            <trkpt lat="46.399620" lon="11.009580">
                <time>2017-07-15T11:36:36Z</time>
            </trkpt>
            <trkpt lat="46.399520" lon="11.009640">
                <time>2017-07-15T11:36:37Z</time>
            </trkpt>
            <trkpt lat="46.399380" lon="11.009720">
                <time>2017-07-15T11:36:38Z</time>
            </trkpt>
            <trkpt lat="46.399210" lon="11.009940">
                <time>2017-07-15T11:36:39Z</time>
            </trkpt>
            <trkpt lat="46.399080" lon="11.010100">
                <time>2017-07-15T11:36:40Z</time>
            </trkpt>
            <trkpt lat="46.398940" lon="11.010280">
                <time>2017-07-15T11:36:41Z</time>
            </trkpt>
            <trkpt lat="46.398790" lon="11.010490">
                <time>2017-07-15T11:36:42Z</time>
            </trkpt>
            <trkpt lat="46.398670" lon="11.010670">
                <time>2017-07-15T11:36:43Z</time>
            </trkpt>
            <trkpt lat="46.398530" lon="11.010860">
                <time>2017-07-15T11:36:44Z</time>
            </trkpt>
            <trkpt lat="46.398370" lon="11.011010">
                <time>2017-07-15T11:36:45Z</time>
            </trkpt>
            <trkpt lat="46.398220" lon="11.011180">
                <time>2017-07-15T11:36:46Z</time>
            </trkpt>
            <trkpt lat="46.398040" lon="11.011370">
                <time>2017-07-15T11:36:47Z</time>
            </trkpt>
            <trkpt lat="46.397890" lon="11.011550">
                <time>2017-07-15T11:36:48Z</time>
            </trkpt>
            <trkpt lat="46.397740" lon="11.011770">
                <time>2017-07-15T11:36:49Z</time>
            </trkpt>
            <trkpt lat="46.397620" lon="11.011990">
                <time>2017-07-15T11:36:50Z</time>
            </trkpt>
            <trkpt lat="46.397500" lon="11.012200">
                <time>2017-07-15T11:36:51Z</time>
            </trkpt>
            <trkpt lat="46.397360" lon="11.012410">
                <time>2017-07-15T11:36:52Z</time>
            </trkpt>
            <trkpt lat="46.397230" lon="11.012570">
                <time>2017-07-15T11:36:53Z</time>
            </trkpt>
            <trkpt lat="46.397080" lon="11.012750">
                <time>2017-07-15T11:36:54Z</time>
            </trkpt>
            <trkpt lat="46.396940" lon="11.012990">
                <time>2017-07-15T11:36:55Z</time>
            </trkpt>
            <trkpt lat="46.396830" lon="11.013220">
                <time>2017-07-15T11:36:56Z</time>
            </trkpt>
            <trkpt lat="46.396720" lon="11.013470">
                <time>2017-07-15T11:36:57Z</time>
            </trkpt>
            <trkpt lat="46.396620" lon="11.013720">
                <time>2017-07-15T11:36:58Z</time>
            </trkpt>
            <trkpt lat="46.396550" lon="11.013920">
                <time>2017-07-15T11:36:59Z</time>
            </trkpt>
            <trkpt lat="46.396470" lon="11.014110">
                <time>2017-07-15T11:37:00Z</time>
            </trkpt>
            <trkpt lat="46.396380" lon="11.014250">
                <time>2017-07-15T11:37:01Z</time>
            </trkpt>
            <trkpt lat="46.396240" lon="11.014360">
                <time>2017-07-15T11:37:02Z</time>
            </trkpt>
            <trkpt lat="46.396100" lon="11.014440">
                <time>2017-07-15T11:37:03Z</time>
            </trkpt>
            <trkpt lat="46.395990" lon="11.014490">
                <time>2017-07-15T11:37:04Z</time>
            </trkpt>
            <trkpt lat="46.395870" lon="11.014510">
                <time>2017-07-15T11:37:05Z</time>
            </trkpt>
            <trkpt lat="46.395730" lon="11.014480">
                <time>2017-07-15T11:37:06Z</time>
            </trkpt>
            <trkpt lat="46.395590" lon="11.014400">
                <time>2017-07-15T11:37:07Z</time>
            </trkpt>
            <trkpt lat="46.395400" lon="11.014370">
                <time>2017-07-15T11:37:08Z</time>
            </trkpt>
            <trkpt lat="46.395250" lon="11.014340">
                <time>2017-07-15T11:37:09Z</time>
            </trkpt>
            <trkpt lat="46.395070" lon="11.014310">
                <time>2017-07-15T11:37:10Z</time>
            </trkpt>
            <trkpt lat="46.394880" lon="11.014250">
                <time>2017-07-15T11:37:11Z</time>
            </trkpt>
            <trkpt lat="46.394730" lon="11.014150">
                <time>2017-07-15T11:37:12Z</time>
            </trkpt>
            <trkpt lat="46.394590" lon="11.014030">
                <time>2017-07-15T11:37:13Z</time>
            </trkpt>
            <trkpt lat="46.394450" lon="11.013920">
                <time>2017-07-15T11:37:14Z</time>
            </trkpt>
            <trkpt lat="46.394350" lon="11.013780">
                <time>2017-07-15T11:37:15Z</time>
            </trkpt>
            <trkpt lat="46.394250" lon="11.013610">
                <time>2017-07-15T11:37:16Z</time>
            </trkpt>
            <trkpt lat="46.394160" lon="11.013470">
                <time>2017-07-15T11:37:17Z</time>
            </trkpt>
            <trkpt lat="46.394060" lon="11.013350">
                <time>2017-07-15T11:37:18Z</time>
            </trkpt>
            <trkpt lat="46.393950" lon="11.013280">
                <time>2017-07-15T11:37:19Z</time>
            </trkpt>
            <trkpt lat="46.393860" lon="11.013250">
                <time>2017-07-15T11:37:20Z</time>
            </trkpt>
            <trkpt lat="46.393780" lon="11.013200">
                <time>2017-07-15T11:37:21Z</time>
            </trkpt>
            <trkpt lat="46.393720" lon="11.013150">
                <time>2017-07-15T11:37:22Z</time>
            </trkpt>
            <trkpt lat="46.393680" lon="11.013090">
                <time>2017-07-15T11:37:23Z</time>
            </trkpt>
            <trkpt lat="46.393670" lon="11.013020">
                <time>2017-07-15T11:37:24Z</time>
            </trkpt>
            <trkpt lat="46.393670" lon="11.012920">
                <time>2017-07-15T11:37:25Z</time>
            </trkpt>
            <trkpt lat="46.393690" lon="11.012810">
                <time>2017-07-15T11:37:26Z</time>
            </trkpt>
            <trkpt lat="46.393710" lon="11.012660">
                <time>2017-07-15T11:37:27Z</time>
            </trkpt>
            <trkpt lat="46.393730" lon="11.012510">
                <time>2017-07-15T11:37:28Z</time>
            </trkpt>
            <trkpt lat="46.393760" lon="11.012340">
                <time>2017-07-15T11:37:29Z</time>
            </trkpt>
            <trkpt lat="46.393790" lon="11.012140">
                <time>2017-07-15T11:37:30Z</time>
            </trkpt>
            <trkpt lat="46.393820" lon="11.011960">
                <time>2017-07-15T11:37:31Z</time>
            </trkpt>
            <trkpt lat="46.393860" lon="11.011760">
                <time>2017-07-15T11:37:32Z</time>
            </trkpt>
            <trkpt lat="46.393890" lon="11.011570">
                <time>2017-07-15T11:37:33Z</time>
            </trkpt>
            <trkpt lat="46.393940" lon="11.011380">
                <time>2017-07-15T11:37:34Z</time>
            </trkpt>
            <trkpt lat="46.393990" lon="11.011180">
                <time>2017-07-15T11:37:35Z</time>
            </trkpt>
            <trkpt lat="46.394060" lon="11.011010">
                <time>2017-07-15T11:37:36Z</time>
            </trkpt>
            <trkpt lat="46.394150" lon="11.010810">
                <time>2017-07-15T11:37:37Z</time>
            </trkpt>
            <trkpt lat="46.394240" lon="11.010590">
                <time>2017-07-15T11:37:38Z</time>
            </trkpt>
            <trkpt lat="46.394330" lon="11.010360">
                <time>2017-07-15T11:37:39Z</time>
            </trkpt>
            <trkpt lat="46.394440" lon="11.010110">
                <time>2017-07-15T11:37:40Z</time>
            </trkpt>
            <trkpt lat="46.394520" lon="11.009880">
                <time>2017-07-15T11:37:41Z</time>
            </trkpt>
            <trkpt lat="46.394600" lon="11.009640">
                <time>2017-07-15T11:37:42Z</time>
            </trkpt>
            <trkpt lat="46.394670" lon="11.009380">
                <time>2017-07-15T11:37:43Z</time>
            </trkpt>
            <trkpt lat="46.394720" lon="11.009160">
                <time>2017-07-15T11:37:44Z</time>
            </trkpt>
            <trkpt lat="46.394770" lon="11.008920">
                <time>2017-07-15T11:37:45Z</time>
            </trkpt>
            <trkpt lat="46.394830" lon="11.008680">
                <time>2017-07-15T11:37:46Z</time>
            </trkpt>
            <trkpt lat="46.394880" lon="11.008460">
                <time>2017-07-15T11:37:47Z</time>
            </trkpt>
            <trkpt lat="46.394930" lon="11.008220">
                <time>2017-07-15T11:37:48Z</time>
            </trkpt>
            <trkpt lat="46.394960" lon="11.008020">
                <time>2017-07-15T11:37:49Z</time>
            </trkpt>
            <trkpt lat="46.394970" lon="11.007800">
                <time>2017-07-15T11:37:50Z</time>
            </trkpt>
            <trkpt lat="46.394970" lon="11.007590">
                <time>2017-07-15T11:37:51Z</time>
            </trkpt>
            <trkpt lat="46.394950" lon="11.007410">
                <time>2017-07-15T11:37:52Z</time>
            </trkpt>
            <trkpt lat="46.394910" lon="11.007200">
                <time>2017-07-15T11:37:53Z</time>
            </trkpt>
            <trkpt lat="46.394860" lon="11.006990">
                <time>2017-07-15T11:37:54Z</time>
            </trkpt>
            <trkpt lat="46.394800" lon="11.006770">
                <time>2017-07-15T11:37:55Z</time>
            </trkpt>
            <trkpt lat="46.394740" lon="11.006520">
                <time>2017-07-15T11:37:56Z</time>
            </trkpt>
            <trkpt lat="46.394700" lon="11.006300">
                <time>2017-07-15T11:37:57Z</time>
            </trkpt>
            <trkpt lat="46.394660" lon="11.006070">
                <time>2017-07-15T11:37:58Z</time>
            </trkpt>
            <trkpt lat="46.394630" lon="11.005810">
                <time>2017-07-15T11:37:59Z</time>
            </trkpt>
            <trkpt lat="46.394620" lon="11.005600">
                <time>2017-07-15T11:38:00Z</time>
            </trkpt>
            <trkpt lat="46.394620" lon="11.005380">
                <time>2017-07-15T11:38:01Z</time>
            </trkpt>
            <trkpt lat="46.394610" lon="11.005170">
                <time>2017-07-15T11:38:02Z</time>
            </trkpt>
            <trkpt lat="46.394610" lon="11.004980">
                <time>2017-07-15T11:38:03Z</time>
            </trkpt>
            <trkpt lat="46.394620" lon="11.004770">
                <time>2017-07-15T11:38:04Z</time>
            </trkpt>
            <trkpt lat="46.394640" lon="11.004580">
                <time>2017-07-15T11:38:05Z</time>
            </trkpt>
            <trkpt lat="46.394690" lon="11.004380">
                <time>2017-07-15T11:38:06Z</time>
            </trkpt>
            <trkpt lat="46.394740" lon="11.004200">
                <time>2017-07-15T11:38:07Z</time>
            </trkpt>
            <trkpt lat="46.394770" lon="11.004050">
                <time>2017-07-15T11:38:08Z</time>
            </trkpt>
            <trkpt lat="46.394800" lon="11.003880">
                <time>2017-07-15T11:38:09Z</time>
            </trkpt>
            <trkpt lat="46.394810" lon="11.003710">
                <time>2017-07-15T11:38:10Z</time>
            </trkpt>
            <trkpt lat="46.394800" lon="11.003520">
                <time>2017-07-15T11:38:11Z</time>
            </trkpt>
            <trkpt lat="46.394760" lon="11.003300">
                <time>2017-07-15T11:38:12Z</time>
            </trkpt>
            <trkpt lat="46.394720" lon="11.003080">
                <time>2017-07-15T11:38:13Z</time>
            </trkpt>
            <trkpt lat="46.394670" lon="11.002820">
                <time>2017-07-15T11:38:14Z</time>
            </trkpt>
            <trkpt lat="46.394610" lon="11.002550">
                <time>2017-07-15T11:38:15Z</time>
            </trkpt>
            <trkpt lat="46.394540" lon="11.002310">
                <time>2017-07-15T11:38:16Z</time>
            </trkpt>
            <trkpt lat="46.394430" lon="11.002070">
                <time>2017-07-15T11:38:17Z</time>
            </trkpt>
            <trkpt lat="46.394290" lon="11.001820">
                <time>2017-07-15T11:38:18Z</time>
            </trkpt>
            <trkpt lat="46.394140" lon="11.001610">
                <time>2017-07-15T11:38:19Z</time>
            </trkpt>
            <trkpt lat="46.394000" lon="11.001350">
                <time>2017-07-15T11:38:20Z</time>
            </trkpt>
            <trkpt lat="46.393890" lon="11.001090">
                <time>2017-07-15T11:38:21Z</time>
            </trkpt>
            <trkpt lat="46.393790" lon="11.000800">
                <time>2017-07-15T11:38:22Z</time>
            </trkpt>
            <trkpt lat="46.393690" lon="11.000490">
                <time>2017-07-15T11:38:23Z</time>
            </trkpt>
            <trkpt lat="46.393570" lon="11.000240">
                <time>2017-07-15T11:38:24Z</time>
            </trkpt>
            <trkpt lat="46.393420" lon="10.999990">
                <time>2017-07-15T11:38:25Z</time>
            </trkpt>
            <trkpt lat="46.393260" lon="10.999760">
                <time>2017-07-15T11:38:26Z</time>
            </trkpt>
            <trkpt lat="46.393100" lon="10.999560">
                <time>2017-07-15T11:38:27Z</time>
            </trkpt>
            <trkpt lat="46.392920" lon="10.999380">
                <time>2017-07-15T11:38:28Z</time>
            </trkpt>
            <trkpt lat="46.392760" lon="10.999240">
                <time>2017-07-15T11:38:29Z</time>
            </trkpt>
            <trkpt lat="46.392600" lon="10.999090">
                <time>2017-07-15T11:38:30Z</time>
            </trkpt>
            <trkpt lat="46.392440" lon="10.998910">
                <time>2017-07-15T11:38:31Z</time>
            </trkpt>
            <trkpt lat="46.392320" lon="10.998740">
                <time>2017-07-15T11:38:32Z</time>
            </trkpt>
            <trkpt lat="46.392200" lon="10.998560">
                <time>2017-07-15T11:38:33Z</time>
            </trkpt>
            <trkpt lat="46.392080" lon="10.998340">
                <time>2017-07-15T11:38:34Z</time>
            </trkpt>
            <trkpt lat="46.391990" lon="10.998130">
                <time>2017-07-15T11:38:35Z</time>
            </trkpt>
            <trkpt lat="46.391890" lon="10.997880">
                <time>2017-07-15T11:38:36Z</time>
            </trkpt>
            <trkpt lat="46.391810" lon="10.997660">
                <time>2017-07-15T11:38:37Z</time>
            </trkpt>
            <trkpt lat="46.391710" lon="10.997420">
                <time>2017-07-15T11:38:38Z</time>
            </trkpt>
            <trkpt lat="46.391620" lon="10.997170">
                <time>2017-07-15T11:38:39Z</time>
            </trkpt>
            <trkpt lat="46.391550" lon="10.996960">
                <time>2017-07-15T11:38:40Z</time>
            </trkpt>
            <trkpt lat="46.391470" lon="10.996750">
                <time>2017-07-15T11:38:41Z</time>
            </trkpt>
            <trkpt lat="46.391390" lon="10.996550">
                <time>2017-07-15T11:38:42Z</time>
            </trkpt>
            <trkpt lat="46.391310" lon="10.996350">
                <time>2017-07-15T11:38:43Z</time>
            </trkpt>
            <trkpt lat="46.391230" lon="10.996130">
                <time>2017-07-15T11:38:44Z</time>
            </trkpt>
            <trkpt lat="46.391160" lon="10.995940">
                <time>2017-07-15T11:38:45Z</time>
            </trkpt>
            <trkpt lat="46.391090" lon="10.995730">
                <time>2017-07-15T11:38:46Z</time>
            </trkpt>
            <trkpt lat="46.391000" lon="10.995500">
                <time>2017-07-15T11:38:47Z</time>
            </trkpt>
            <trkpt lat="46.390920" lon="10.995290">
                <time>2017-07-15T11:38:48Z</time>
            </trkpt>
            <trkpt lat="46.390840" lon="10.995070">
                <time>2017-07-15T11:38:49Z</time>
            </trkpt>
            <trkpt lat="46.390740" lon="10.994840">
                <time>2017-07-15T11:38:50Z</time>
            </trkpt>
            <trkpt lat="46.390650" lon="10.994630">
                <time>2017-07-15T11:38:51Z</time>
            </trkpt>
            <trkpt lat="46.390540" lon="10.994390">
                <time>2017-07-15T11:38:52Z</time>
            </trkpt>
            <trkpt lat="46.390450" lon="10.994180">
                <time>2017-07-15T11:38:53Z</time>
            </trkpt>
            <trkpt lat="46.390380" lon="10.993970">
                <time>2017-07-15T11:38:54Z</time>
            </trkpt>
            <trkpt lat="46.390310" lon="10.993740">
                <time>2017-07-15T11:38:55Z</time>
            </trkpt>
            <trkpt lat="46.390250" lon="10.993540">
                <time>2017-07-15T11:38:56Z</time>
            </trkpt>
            <trkpt lat="46.390200" lon="10.993340">
                <time>2017-07-15T11:38:57Z</time>
            </trkpt>
            <trkpt lat="46.390140" lon="10.993130">
                <time>2017-07-15T11:38:58Z</time>
            </trkpt>
            <trkpt lat="46.390080" lon="10.992930">
                <time>2017-07-15T11:38:59Z</time>
            </trkpt>
            <trkpt lat="46.390010" lon="10.992720">
                <time>2017-07-15T11:39:00Z</time>
            </trkpt>
            <trkpt lat="46.389930" lon="10.992550">
                <time>2017-07-15T11:39:01Z</time>
            </trkpt>
            <trkpt lat="46.389840" lon="10.992380">
                <time>2017-07-15T11:39:02Z</time>
            </trkpt>
            <trkpt lat="46.389750" lon="10.992190">
                <time>2017-07-15T11:39:03Z</time>
            </trkpt>
            <trkpt lat="46.389690" lon="10.992020">
                <time>2017-07-15T11:39:04Z</time>
            </trkpt>
            <trkpt lat="46.389640" lon="10.991830">
                <time>2017-07-15T11:39:05Z</time>
            </trkpt>
            <trkpt lat="46.389600" lon="10.991620">
                <time>2017-07-15T11:39:06Z</time>
            </trkpt>
            <trkpt lat="46.389580" lon="10.991440">
                <time>2017-07-15T11:39:07Z</time>
            </trkpt>
            <trkpt lat="46.389550" lon="10.991230">
                <time>2017-07-15T11:39:08Z</time>
            </trkpt>
            <trkpt lat="46.389530" lon="10.991040">
                <time>2017-07-15T11:39:09Z</time>
            </trkpt>
            <trkpt lat="46.389510" lon="10.990850">
                <time>2017-07-15T11:39:10Z</time>
            </trkpt>
            <trkpt lat="46.389480" lon="10.990660">
                <time>2017-07-15T11:39:11Z</time>
            </trkpt>
            <trkpt lat="46.389460" lon="10.990490">
                <time>2017-07-15T11:39:12Z</time>
            </trkpt>
            <trkpt lat="46.389430" lon="10.990320">
                <time>2017-07-15T11:39:13Z</time>
            </trkpt>
            <trkpt lat="46.389390" lon="10.990150">
                <time>2017-07-15T11:39:14Z</time>
            </trkpt>
            <trkpt lat="46.389350" lon="10.990010">
                <time>2017-07-15T11:39:15Z</time>
            </trkpt>
            <trkpt lat="46.389310" lon="10.989870">
                <time>2017-07-15T11:39:16Z</time>
            </trkpt>
            <trkpt lat="46.389270" lon="10.989760">
                <time>2017-07-15T11:39:17Z</time>
            </trkpt>
            <trkpt lat="46.389210" lon="10.989640">
                <time>2017-07-15T11:39:18Z</time>
            </trkpt>
            <trkpt lat="46.389150" lon="10.989530">
                <time>2017-07-15T11:39:19Z</time>
            </trkpt>
            <trkpt lat="46.389090" lon="10.989430">
                <time>2017-07-15T11:39:20Z</time>
            </trkpt>
            <trkpt lat="46.389020" lon="10.989320">
                <time>2017-07-15T11:39:21Z</time>
            </trkpt>
            <trkpt lat="46.388960" lon="10.989190">
                <time>2017-07-15T11:39:22Z</time>
            </trkpt>
            <trkpt lat="46.388900" lon="10.989080">
                <time>2017-07-15T11:39:23Z</time>
            </trkpt>
            <trkpt lat="46.388850" lon="10.988940">
                <time>2017-07-15T11:39:24Z</time>
            </trkpt>
            <trkpt lat="46.388810" lon="10.988810">
                <time>2017-07-15T11:39:25Z</time>
            </trkpt>
            <trkpt lat="46.388760" lon="10.988660">
                <time>2017-07-15T11:39:26Z</time>
            </trkpt>
            <trkpt lat="46.388720" lon="10.988500">
                <time>2017-07-15T11:39:27Z</time>
            </trkpt>
            <trkpt lat="46.388690" lon="10.988350">
                <time>2017-07-15T11:39:28Z</time>
            </trkpt>
            <trkpt lat="46.388650" lon="10.988190">
                <time>2017-07-15T11:39:29Z</time>
            </trkpt>
            <trkpt lat="46.388630" lon="10.988010">
                <time>2017-07-15T11:39:30Z</time>
            </trkpt>
            <trkpt lat="46.388610" lon="10.987840">
                <time>2017-07-15T11:39:31Z</time>
            </trkpt>
            <trkpt lat="46.388600" lon="10.987650">
                <time>2017-07-15T11:39:32Z</time>
            </trkpt>
            <trkpt lat="46.388600" lon="10.987480">
                <time>2017-07-15T11:39:33Z</time>
            </trkpt>
            <trkpt lat="46.388590" lon="10.987280">
                <time>2017-07-15T11:39:34Z</time>
            </trkpt>
            <trkpt lat="46.388540" lon="10.987080">
                <time>2017-07-15T11:39:35Z</time>
            </trkpt>
            <trkpt lat="46.388480" lon="10.986920">
                <time>2017-07-15T11:39:36Z</time>
            </trkpt>
            <trkpt lat="46.388420" lon="10.986750">
                <time>2017-07-15T11:39:37Z</time>
            </trkpt>
            <trkpt lat="46.388370" lon="10.986540">
                <time>2017-07-15T11:39:38Z</time>
            </trkpt>
            <trkpt lat="46.388350" lon="10.986360">
                <time>2017-07-15T11:39:39Z</time>
            </trkpt>
            <trkpt lat="46.388340" lon="10.986160">
                <time>2017-07-15T11:39:40Z</time>
            </trkpt>
            <trkpt lat="46.388320" lon="10.985990">
                <time>2017-07-15T11:39:41Z</time>
            </trkpt>
            <trkpt lat="46.388270" lon="10.985820">
                <time>2017-07-15T11:39:42Z</time>
            </trkpt>
            <trkpt lat="46.388200" lon="10.985660">
                <time>2017-07-15T11:39:43Z</time>
            </trkpt>
            <trkpt lat="46.388120" lon="10.985530">
                <time>2017-07-15T11:39:44Z</time>
            </trkpt>
            <trkpt lat="46.388040" lon="10.985370">
                <time>2017-07-15T11:39:45Z</time>
            </trkpt>
            <trkpt lat="46.387970" lon="10.985190">
                <time>2017-07-15T11:39:46Z</time>
            </trkpt>
            <trkpt lat="46.387930" lon="10.985010">
                <time>2017-07-15T11:39:47Z</time>
            </trkpt>
            <trkpt lat="46.387890" lon="10.984800">
                <time>2017-07-15T11:39:48Z</time>
            </trkpt>
            <trkpt lat="46.387860" lon="10.984610">
                <time>2017-07-15T11:39:49Z</time>
            </trkpt>
            <trkpt lat="46.387840" lon="10.984410">
                <time>2017-07-15T11:39:50Z</time>
            </trkpt>
            <trkpt lat="46.387810" lon="10.984180">
                <time>2017-07-15T11:39:51Z</time>
            </trkpt>
            <trkpt lat="46.387780" lon="10.984000">
                <time>2017-07-15T11:39:52Z</time>
            </trkpt>
            <trkpt lat="46.387750" lon="10.983790">
                <time>2017-07-15T11:39:53Z</time>
            </trkpt>
            <trkpt lat="46.387700" lon="10.983580">
                <time>2017-07-15T11:39:54Z</time>
            </trkpt>
            <trkpt lat="46.387650" lon="10.983390">
                <time>2017-07-15T11:39:55Z</time>
            </trkpt>
            <trkpt lat="46.387590" lon="10.983180">
                <time>2017-07-15T11:39:56Z</time>
            </trkpt>
            <trkpt lat="46.387540" lon="10.983010">
                <time>2017-07-15T11:39:57Z</time>
            </trkpt>
            <trkpt lat="46.387490" lon="10.982840">
                <time>2017-07-15T11:39:58Z</time>
            </trkpt>
            <trkpt lat="46.387450" lon="10.982670">
                <time>2017-07-15T11:39:59Z</time>
            </trkpt>
            <trkpt lat="46.387410" lon="10.982540">
                <time>2017-07-15T11:40:00Z</time>
            </trkpt>
            <trkpt lat="46.387360" lon="10.982400">
                <time>2017-07-15T11:40:01Z</time>
            </trkpt>
            <trkpt lat="46.387320" lon="10.982260">
                <time>2017-07-15T11:40:02Z</time>
            </trkpt>
            <trkpt lat="46.387290" lon="10.982110">
                <time>2017-07-15T11:40:03Z</time>
            </trkpt>
            <trkpt lat="46.387240" lon="10.981970">
                <time>2017-07-15T11:40:04Z</time>
            </trkpt>
            <trkpt lat="46.387200" lon="10.981820">
                <time>2017-07-15T11:40:05Z</time>
            </trkpt>
            <trkpt lat="46.387160" lon="10.981670">
                <time>2017-07-15T11:40:06Z</time>
            </trkpt>
            <trkpt lat="46.387120" lon="10.981500">
                <time>2017-07-15T11:40:07Z</time>
            </trkpt>
            <trkpt lat="46.387080" lon="10.981340">
                <time>2017-07-15T11:40:08Z</time>
            </trkpt>
            <trkpt lat="46.387020" lon="10.981180">
                <time>2017-07-15T11:40:09Z</time>
            </trkpt>
            <trkpt lat="46.386960" lon="10.981020">
                <time>2017-07-15T11:40:10Z</time>
            </trkpt>
            <trkpt lat="46.386890" lon="10.980880">
                <time>2017-07-15T11:40:11Z</time>
            </trkpt>
            <trkpt lat="46.386810" lon="10.980720">
                <time>2017-07-15T11:40:12Z</time>
            </trkpt>
            <trkpt lat="46.386740" lon="10.980580">
                <time>2017-07-15T11:40:13Z</time>
            </trkpt>
            <trkpt lat="46.386660" lon="10.980430">
                <time>2017-07-15T11:40:14Z</time>
            </trkpt>
            <trkpt lat="46.386590" lon="10.980250">
                <time>2017-07-15T11:40:15Z</time>
            </trkpt>
            <trkpt lat="46.386530" lon="10.980090">
                <time>2017-07-15T11:40:16Z</time>
            </trkpt>
            <trkpt lat="46.386480" lon="10.979920">
                <time>2017-07-15T11:40:17Z</time>
            </trkpt>
            <trkpt lat="46.386440" lon="10.979740">
                <time>2017-07-15T11:40:18Z</time>
            </trkpt>
            <trkpt lat="46.386400" lon="10.979550">
                <time>2017-07-15T11:40:19Z</time>
            </trkpt>
            <trkpt lat="46.386350" lon="10.979350">
                <time>2017-07-15T11:40:20Z</time>
            </trkpt>
            <trkpt lat="46.386300" lon="10.979170">
                <time>2017-07-15T11:40:21Z</time>
            </trkpt>
            <trkpt lat="46.386220" lon="10.979010">
                <time>2017-07-15T11:40:22Z</time>
            </trkpt>
            <trkpt lat="46.386120" lon="10.978850">
                <time>2017-07-15T11:40:23Z</time>
            </trkpt>
            <trkpt lat="46.386010" lon="10.978730">
                <time>2017-07-15T11:40:24Z</time>
            </trkpt>
            <trkpt lat="46.385890" lon="10.978600">
                <time>2017-07-15T11:40:25Z</time>
            </trkpt>
            <trkpt lat="46.385770" lon="10.978480">
                <time>2017-07-15T11:40:26Z</time>
            </trkpt>
            <trkpt lat="46.385660" lon="10.978370">
                <time>2017-07-15T11:40:27Z</time>
            </trkpt>
            <trkpt lat="46.385530" lon="10.978250">
                <time>2017-07-15T11:40:28Z</time>
            </trkpt>
            <trkpt lat="46.385430" lon="10.978140">
                <time>2017-07-15T11:40:29Z</time>
            </trkpt>
            <trkpt lat="46.385320" lon="10.978030">
                <time>2017-07-15T11:40:30Z</time>
            </trkpt>
            <trkpt lat="46.385200" lon="10.977900">
                <time>2017-07-15T11:40:31Z</time>
            </trkpt>
            <trkpt lat="46.385080" lon="10.977780">
                <time>2017-07-15T11:40:32Z</time>
            </trkpt>
            <trkpt lat="46.384960" lon="10.977650">
                <time>2017-07-15T11:40:33Z</time>
            </trkpt>
            <trkpt lat="46.384830" lon="10.977520">
                <time>2017-07-15T11:40:34Z</time>
            </trkpt>
            <trkpt lat="46.384700" lon="10.977360">
                <time>2017-07-15T11:40:35Z</time>
            </trkpt>
            <trkpt lat="46.384560" lon="10.977200">
                <time>2017-07-15T11:40:36Z</time>
            </trkpt>
            <trkpt lat="46.384430" lon="10.977050">
                <time>2017-07-15T11:40:37Z</time>
            </trkpt>
            <trkpt lat="46.384290" lon="10.976920">
                <time>2017-07-15T11:40:38Z</time>
            </trkpt>
            <trkpt lat="46.384150" lon="10.976830">
                <time>2017-07-15T11:40:39Z</time>
            </trkpt>
            <trkpt lat="46.384030" lon="10.976770">
                <time>2017-07-15T11:40:40Z</time>
            </trkpt>
            <trkpt lat="46.383890" lon="10.976820">
                <time>2017-07-15T11:40:41Z</time>
            </trkpt>
            <trkpt lat="46.383770" lon="10.976810">
                <time>2017-07-15T11:40:42Z</time>
            </trkpt>
            <trkpt lat="46.383660" lon="10.976750">
                <time>2017-07-15T11:40:43Z</time>
            </trkpt>
            <trkpt lat="46.383540" lon="10.976640">
                <time>2017-07-15T11:40:44Z</time>
            </trkpt>
            <trkpt lat="46.383450" lon="10.976480">
                <time>2017-07-15T11:40:45Z</time>
            </trkpt>
            <trkpt lat="46.383330" lon="10.976290">
                <time>2017-07-15T11:40:46Z</time>
            </trkpt>
            <trkpt lat="46.383190" lon="10.976110">
                <time>2017-07-15T11:40:47Z</time>
            </trkpt>
            <trkpt lat="46.383080" lon="10.975960">
                <time>2017-07-15T11:40:48Z</time>
            </trkpt>
            <trkpt lat="46.383000" lon="10.975790">
                <time>2017-07-15T11:40:49Z</time>
            </trkpt>
            <trkpt lat="46.382940" lon="10.975580">
                <time>2017-07-15T11:40:50Z</time>
            </trkpt>
            <trkpt lat="46.382910" lon="10.975360">
                <time>2017-07-15T11:40:51Z</time>
            </trkpt>
            <trkpt lat="46.382930" lon="10.975120">
                <time>2017-07-15T11:40:52Z</time>
            </trkpt>
            <trkpt lat="46.382960" lon="10.974940">
                <time>2017-07-15T11:40:53Z</time>
            </trkpt>
            <trkpt lat="46.383030" lon="10.974770">
                <time>2017-07-15T11:40:54Z</time>
            </trkpt>
            <trkpt lat="46.383080" lon="10.974600">
                <time>2017-07-15T11:40:55Z</time>
            </trkpt>
            <trkpt lat="46.383090" lon="10.974470">
                <time>2017-07-15T11:40:56Z</time>
            </trkpt>
            <trkpt lat="46.383100" lon="10.974310">
                <time>2017-07-15T11:40:57Z</time>
            </trkpt>
            <trkpt lat="46.382990" lon="10.974190">
                <time>2017-07-15T11:40:58Z</time>
            </trkpt>
            <trkpt lat="46.382930" lon="10.974080">
                <time>2017-07-15T11:40:59Z</time>
            </trkpt>
            <trkpt lat="46.382880" lon="10.973950">
                <time>2017-07-15T11:41:00Z</time>
            </trkpt>
            <trkpt lat="46.382870" lon="10.973840">
                <time>2017-07-15T11:41:01Z</time>
            </trkpt>
            <trkpt lat="46.382870" lon="10.973710">
                <time>2017-07-15T11:41:02Z</time>
            </trkpt>
            <trkpt lat="46.382890" lon="10.973550">
                <time>2017-07-15T11:41:03Z</time>
            </trkpt>
            <trkpt lat="46.382910" lon="10.973410">
                <time>2017-07-15T11:41:04Z</time>
            </trkpt>
            <trkpt lat="46.382920" lon="10.973250">
                <time>2017-07-15T11:41:05Z</time>
            </trkpt>
            <trkpt lat="46.382930" lon="10.973070">
                <time>2017-07-15T11:41:06Z</time>
            </trkpt>
            <trkpt lat="46.382930" lon="10.972890">
                <time>2017-07-15T11:41:07Z</time>
            </trkpt>
            <trkpt lat="46.382900" lon="10.972700">
                <time>2017-07-15T11:41:08Z</time>
            </trkpt>
            <trkpt lat="46.382860" lon="10.972540">
                <time>2017-07-15T11:41:09Z</time>
            </trkpt>
            <trkpt lat="46.382800" lon="10.972370">
                <time>2017-07-15T11:41:10Z</time>
            </trkpt>
            <trkpt lat="46.382720" lon="10.972200">
                <time>2017-07-15T11:41:11Z</time>
            </trkpt>
            <trkpt lat="46.382640" lon="10.972060">
                <time>2017-07-15T11:41:12Z</time>
            </trkpt>
            <trkpt lat="46.382560" lon="10.971900">
                <time>2017-07-15T11:41:13Z</time>
            </trkpt>
            <trkpt lat="46.382470" lon="10.971730">
                <time>2017-07-15T11:41:14Z</time>
            </trkpt>
            <trkpt lat="46.382390" lon="10.971590">
                <time>2017-07-15T11:41:15Z</time>
            </trkpt>
            <trkpt lat="46.382290" lon="10.971410">
                <time>2017-07-15T11:41:16Z</time>
            </trkpt>
            <trkpt lat="46.382210" lon="10.971260">
                <time>2017-07-15T11:41:17Z</time>
            </trkpt>
            <trkpt lat="46.382130" lon="10.971120">
                <time>2017-07-15T11:41:18Z</time>
            </trkpt>
            <trkpt lat="46.382040" lon="10.970950">
                <time>2017-07-15T11:41:19Z</time>
            </trkpt>
            <trkpt lat="46.381960" lon="10.970810">
                <time>2017-07-15T11:41:20Z</time>
            </trkpt>
            <trkpt lat="46.381870" lon="10.970650">
                <time>2017-07-15T11:41:21Z</time>
            </trkpt>
            <trkpt lat="46.381780" lon="10.970470">
                <time>2017-07-15T11:41:22Z</time>
            </trkpt>
            <trkpt lat="46.381670" lon="10.970290">
                <time>2017-07-15T11:41:23Z</time>
            </trkpt>
            <trkpt lat="46.381550" lon="10.970080">
                <time>2017-07-15T11:41:24Z</time>
            </trkpt>
            <trkpt lat="46.381440" lon="10.969890">
                <time>2017-07-15T11:41:25Z</time>
            </trkpt>
            <trkpt lat="46.381330" lon="10.969670">
                <time>2017-07-15T11:41:26Z</time>
            </trkpt>
            <trkpt lat="46.381200" lon="10.969440">
                <time>2017-07-15T11:41:27Z</time>
            </trkpt>
            <trkpt lat="46.381090" lon="10.969250">
                <time>2017-07-15T11:41:28Z</time>
            </trkpt>
            <trkpt lat="46.380970" lon="10.969040">
                <time>2017-07-15T11:41:29Z</time>
            </trkpt>
            <trkpt lat="46.380840" lon="10.968860">
                <time>2017-07-15T11:41:30Z</time>
            </trkpt>
            <trkpt lat="46.380730" lon="10.968700">
                <time>2017-07-15T11:41:31Z</time>
            </trkpt>
            <trkpt lat="46.380610" lon="10.968520">
                <time>2017-07-15T11:41:32Z</time>
            </trkpt>
            <trkpt lat="46.380510" lon="10.968370">
                <time>2017-07-15T11:41:33Z</time>
            </trkpt>
            <trkpt lat="46.380390" lon="10.968230">
                <time>2017-07-15T11:41:34Z</time>
            </trkpt>
            <trkpt lat="46.380260" lon="10.968090">
                <time>2017-07-15T11:41:35Z</time>
            </trkpt>
            <trkpt lat="46.380140" lon="10.968000">
                <time>2017-07-15T11:41:36Z</time>
            </trkpt>
            <trkpt lat="46.379990" lon="10.967940">
                <time>2017-07-15T11:41:37Z</time>
            </trkpt>
            <trkpt lat="46.379830" lon="10.967900">
                <time>2017-07-15T11:41:38Z</time>
            </trkpt>
            <trkpt lat="46.379660" lon="10.967860">
                <time>2017-07-15T11:41:39Z</time>
            </trkpt>
            <trkpt lat="46.379470" lon="10.967830">
                <time>2017-07-15T11:41:40Z</time>
            </trkpt>
            <trkpt lat="46.379300" lon="10.967790">
                <time>2017-07-15T11:41:41Z</time>
            </trkpt>
            <trkpt lat="46.379120" lon="10.967760">
                <time>2017-07-15T11:41:42Z</time>
            </trkpt>
            <trkpt lat="46.378930" lon="10.967710">
                <time>2017-07-15T11:41:43Z</time>
            </trkpt>
            <trkpt lat="46.378770" lon="10.967680">
                <time>2017-07-15T11:41:44Z</time>
            </trkpt>
            <trkpt lat="46.378590" lon="10.967630">
                <time>2017-07-15T11:41:45Z</time>
            </trkpt>
            <trkpt lat="46.378400" lon="10.967540">
                <time>2017-07-15T11:41:46Z</time>
            </trkpt>
            <trkpt lat="46.378250" lon="10.967430">
                <time>2017-07-15T11:41:47Z</time>
            </trkpt>
            <trkpt lat="46.378100" lon="10.967250">
                <time>2017-07-15T11:41:48Z</time>
            </trkpt>
            <trkpt lat="46.377980" lon="10.967070">
                <time>2017-07-15T11:41:49Z</time>
            </trkpt>
            <trkpt lat="46.377870" lon="10.966840">
                <time>2017-07-15T11:41:50Z</time>
            </trkpt>
            <trkpt lat="46.377790" lon="10.966560">
                <time>2017-07-15T11:41:51Z</time>
            </trkpt>
            <trkpt lat="46.377750" lon="10.966290">
                <time>2017-07-15T11:41:52Z</time>
            </trkpt>
            <trkpt lat="46.377700" lon="10.966000">
                <time>2017-07-15T11:41:53Z</time>
            </trkpt>
            <trkpt lat="46.377650" lon="10.965700">
                <time>2017-07-15T11:41:54Z</time>
            </trkpt>
            <trkpt lat="46.377590" lon="10.965410">
                <time>2017-07-15T11:41:55Z</time>
            </trkpt>
            <trkpt lat="46.377500" lon="10.965110">
                <time>2017-07-15T11:41:56Z</time>
            </trkpt>
            <trkpt lat="46.377420" lon="10.964850">
                <time>2017-07-15T11:41:57Z</time>
            </trkpt>
            <trkpt lat="46.377330" lon="10.964590">
                <time>2017-07-15T11:41:58Z</time>
            </trkpt>
            <trkpt lat="46.377210" lon="10.964360">
                <time>2017-07-15T11:41:59Z</time>
            </trkpt>
            <trkpt lat="46.377090" lon="10.964170">
                <time>2017-07-15T11:42:00Z</time>
            </trkpt>
            <trkpt lat="46.376970" lon="10.963930">
                <time>2017-07-15T11:42:01Z</time>
            </trkpt>
            <trkpt lat="46.376860" lon="10.963660">
                <time>2017-07-15T11:42:02Z</time>
            </trkpt>
            <trkpt lat="46.376750" lon="10.963410">
                <time>2017-07-15T11:42:03Z</time>
            </trkpt>
            <trkpt lat="46.376630" lon="10.963110">
                <time>2017-07-15T11:42:04Z</time>
            </trkpt>
            <trkpt lat="46.376530" lon="10.962860">
                <time>2017-07-15T11:42:05Z</time>
            </trkpt>
            <trkpt lat="46.376430" lon="10.962580">
                <time>2017-07-15T11:42:06Z</time>
            </trkpt>
            <trkpt lat="46.376320" lon="10.962300">
                <time>2017-07-15T11:42:07Z</time>
            </trkpt>
            <trkpt lat="46.376230" lon="10.962040">
                <time>2017-07-15T11:42:08Z</time>
            </trkpt>
            <trkpt lat="46.376140" lon="10.961760">
                <time>2017-07-15T11:42:09Z</time>
            </trkpt>
            <trkpt lat="46.376040" lon="10.961490">
                <time>2017-07-15T11:42:10Z</time>
            </trkpt>
            <trkpt lat="46.375960" lon="10.961230">
                <time>2017-07-15T11:42:11Z</time>
            </trkpt>
            <trkpt lat="46.375870" lon="10.960970">
                <time>2017-07-15T11:42:12Z</time>
            </trkpt>
            <trkpt lat="46.375800" lon="10.960750">
                <time>2017-07-15T11:42:13Z</time>
            </trkpt>
            <trkpt lat="46.375700" lon="10.960530">
                <time>2017-07-15T11:42:14Z</time>
            </trkpt>
            <trkpt lat="46.375610" lon="10.960310">
                <time>2017-07-15T11:42:15Z</time>
            </trkpt>
            <trkpt lat="46.375520" lon="10.960150">
                <time>2017-07-15T11:42:16Z</time>
            </trkpt>
            <trkpt lat="46.375410" lon="10.960000">
                <time>2017-07-15T11:42:17Z</time>
            </trkpt>
            <trkpt lat="46.375280" lon="10.959890">
                <time>2017-07-15T11:42:18Z</time>
            </trkpt>
            <trkpt lat="46.375160" lon="10.959830">
                <time>2017-07-15T11:42:19Z</time>
            </trkpt>
            <trkpt lat="46.375020" lon="10.959800">
                <time>2017-07-15T11:42:20Z</time>
            </trkpt>
            <trkpt lat="46.374890" lon="10.959810">
                <time>2017-07-15T11:42:21Z</time>
            </trkpt>
            <trkpt lat="46.374760" lon="10.959820">
                <time>2017-07-15T11:42:22Z</time>
            </trkpt>
            <trkpt lat="46.374640" lon="10.959810">
                <time>2017-07-15T11:42:23Z</time>
            </trkpt>
            <trkpt lat="46.374540" lon="10.959770">
                <time>2017-07-15T11:42:24Z</time>
            </trkpt>
            <trkpt lat="46.374450" lon="10.959660">
                <time>2017-07-15T11:42:25Z</time>
            </trkpt>
            <trkpt lat="46.374380" lon="10.959530">
                <time>2017-07-15T11:42:26Z</time>
            </trkpt>
            <trkpt lat="46.374340" lon="10.959360">
                <time>2017-07-15T11:42:27Z</time>
            </trkpt>
            <trkpt lat="46.374340" lon="10.959150">
                <time>2017-07-15T11:42:28Z</time>
            </trkpt>
            <trkpt lat="46.374340" lon="10.958950">
                <time>2017-07-15T11:42:29Z</time>
            </trkpt>
            <trkpt lat="46.374330" lon="10.958730">
                <time>2017-07-15T11:42:30Z</time>
            </trkpt>
            <trkpt lat="46.374310" lon="10.958470">
                <time>2017-07-15T11:42:31Z</time>
            </trkpt>
            <trkpt lat="46.374280" lon="10.958220">
                <time>2017-07-15T11:42:32Z</time>
            </trkpt>
            <trkpt lat="46.374230" lon="10.957920">
                <time>2017-07-15T11:42:33Z</time>
            </trkpt>
            <trkpt lat="46.374170" lon="10.957580">
                <time>2017-07-15T11:42:34Z</time>
            </trkpt>
            <trkpt lat="46.374130" lon="10.957260">
                <time>2017-07-15T11:42:35Z</time>
            </trkpt>
            <trkpt lat="46.374060" lon="10.956900">
                <time>2017-07-15T11:42:36Z</time>
            </trkpt>
            <trkpt lat="46.373980" lon="10.956580">
                <time>2017-07-15T11:42:37Z</time>
            </trkpt>
            <trkpt lat="46.373890" lon="10.956260">
                <time>2017-07-15T11:42:38Z</time>
            </trkpt>
            <trkpt lat="46.373770" lon="10.955940">
                <time>2017-07-15T11:42:39Z</time>
            </trkpt>
            <trkpt lat="46.373660" lon="10.955680">
                <time>2017-07-15T11:42:40Z</time>
            </trkpt>
            <trkpt lat="46.373530" lon="10.955420">
                <time>2017-07-15T11:42:41Z</time>
            </trkpt>
            <trkpt lat="46.373390" lon="10.955180">
                <time>2017-07-15T11:42:42Z</time>
            </trkpt>
            <trkpt lat="46.373250" lon="10.954960">
                <time>2017-07-15T11:42:43Z</time>
            </trkpt>
            <trkpt lat="46.373100" lon="10.954760">
                <time>2017-07-15T11:42:44Z</time>
            </trkpt>
            <trkpt lat="46.372970" lon="10.954590">
                <time>2017-07-15T11:42:45Z</time>
            </trkpt>
            <trkpt lat="46.372820" lon="10.954420">
                <time>2017-07-15T11:42:46Z</time>
            </trkpt>
            <trkpt lat="46.372670" lon="10.954240">
                <time>2017-07-15T11:42:47Z</time>
            </trkpt>
            <trkpt lat="46.372520" lon="10.954080">
                <time>2017-07-15T11:42:48Z</time>
            </trkpt>
            <trkpt lat="46.372390" lon="10.953890">
                <time>2017-07-15T11:42:49Z</time>
            </trkpt>
            <trkpt lat="46.372280" lon="10.953650">
                <time>2017-07-15T11:42:50Z</time>
            </trkpt>
            <trkpt lat="46.372200" lon="10.953430">
                <time>2017-07-15T11:42:51Z</time>
            </trkpt>
            <trkpt lat="46.372090" lon="10.953180">
                <time>2017-07-15T11:42:52Z</time>
            </trkpt>
            <trkpt lat="46.372000" lon="10.952970">
                <time>2017-07-15T11:42:53Z</time>
            </trkpt>
            <trkpt lat="46.371900" lon="10.952740">
                <time>2017-07-15T11:42:54Z</time>
            </trkpt>
            <trkpt lat="46.371790" lon="10.952520">
                <time>2017-07-15T11:42:55Z</time>
            </trkpt>
            <trkpt lat="46.371700" lon="10.952330">
                <time>2017-07-15T11:42:56Z</time>
            </trkpt>
            <trkpt lat="46.371590" lon="10.952140">
                <time>2017-07-15T11:42:57Z</time>
            </trkpt>
            <trkpt lat="46.371470" lon="10.951960">
                <time>2017-07-15T11:42:58Z</time>
            </trkpt>
            <trkpt lat="46.371340" lon="10.951770">
                <time>2017-07-15T11:42:59Z</time>
            </trkpt>
            <trkpt lat="46.371190" lon="10.951560">
                <time>2017-07-15T11:43:00Z</time>
            </trkpt>
            <trkpt lat="46.371060" lon="10.951370">
                <time>2017-07-15T11:43:01Z</time>
            </trkpt>
            <trkpt lat="46.370930" lon="10.951170">
                <time>2017-07-15T11:43:02Z</time>
            </trkpt>
            <trkpt lat="46.370780" lon="10.950940">
                <time>2017-07-15T11:43:03Z</time>
            </trkpt>
            <trkpt lat="46.370650" lon="10.950730">
                <time>2017-07-15T11:43:04Z</time>
            </trkpt>
            <trkpt lat="46.370500" lon="10.950520">
                <time>2017-07-15T11:43:05Z</time>
            </trkpt>
            <trkpt lat="46.370340" lon="10.950290">
                <time>2017-07-15T11:43:06Z</time>
            </trkpt>
            <trkpt lat="46.370190" lon="10.950110">
                <time>2017-07-15T11:43:07Z</time>
            </trkpt>
            <trkpt lat="46.370010" lon="10.949900">
                <time>2017-07-15T11:43:08Z</time>
            </trkpt>
            <trkpt lat="46.369840" lon="10.949720">
                <time>2017-07-15T11:43:09Z</time>
            </trkpt>
            <trkpt lat="46.369670" lon="10.949520">
                <time>2017-07-15T11:43:10Z</time>
            </trkpt>
            <trkpt lat="46.369480" lon="10.949310">
                <time>2017-07-15T11:43:11Z</time>
            </trkpt>
            <trkpt lat="46.369320" lon="10.949120">
                <time>2017-07-15T11:43:12Z</time>
            </trkpt>
            <trkpt lat="46.369150" lon="10.948940">
                <time>2017-07-15T11:43:13Z</time>
            </trkpt>
            <trkpt lat="46.368990" lon="10.948760">
                <time>2017-07-15T11:43:14Z</time>
            </trkpt>
            <trkpt lat="46.368850" lon="10.948590">
                <time>2017-07-15T11:43:15Z</time>
            </trkpt>
            <trkpt lat="46.368690" lon="10.948430">
                <time>2017-07-15T11:43:16Z</time>
            </trkpt>
            <trkpt lat="46.368540" lon="10.948320">
                <time>2017-07-15T11:43:17Z</time>
            </trkpt>
            <trkpt lat="46.368370" lon="10.948240">
                <time>2017-07-15T11:43:18Z</time>
            </trkpt>
            <trkpt lat="46.368170" lon="10.948200">
                <time>2017-07-15T11:43:19Z</time>
            </trkpt>
            <trkpt lat="46.367990" lon="10.948190">
                <time>2017-07-15T11:43:20Z</time>
            </trkpt>
            <trkpt lat="46.367800" lon="10.948190">
                <time>2017-07-15T11:43:21Z</time>
            </trkpt>
            <trkpt lat="46.367610" lon="10.948190">
                <time>2017-07-15T11:43:22Z</time>
            </trkpt>
            <trkpt lat="46.367450" lon="10.948160">
                <time>2017-07-15T11:43:23Z</time>
            </trkpt>
            <trkpt lat="46.367270" lon="10.948080">
                <time>2017-07-15T11:43:24Z</time>
            </trkpt>
            <trkpt lat="46.367120" lon="10.947980">
                <time>2017-07-15T11:43:25Z</time>
            </trkpt>
            <trkpt lat="46.366990" lon="10.947800">
                <time>2017-07-15T11:43:26Z</time>
            </trkpt>
            <trkpt lat="46.366870" lon="10.947580">
                <time>2017-07-15T11:43:27Z</time>
            </trkpt>
            <trkpt lat="46.366790" lon="10.947350">
                <time>2017-07-15T11:43:28Z</time>
            </trkpt>
            <trkpt lat="46.366710" lon="10.947100">
                <time>2017-07-15T11:43:29Z</time>
            </trkpt>
            <trkpt lat="46.366640" lon="10.946840">
                <time>2017-07-15T11:43:30Z</time>
            </trkpt>
            <trkpt lat="46.366570" lon="10.946570">
                <time>2017-07-15T11:43:31Z</time>
            </trkpt>
            <trkpt lat="46.366510" lon="10.946280">
                <time>2017-07-15T11:43:32Z</time>
            </trkpt>
            <trkpt lat="46.366470" lon="10.946010">
                <time>2017-07-15T11:43:33Z</time>
            </trkpt>
            <trkpt lat="46.366440" lon="10.945720">
                <time>2017-07-15T11:43:34Z</time>
            </trkpt>
            <trkpt lat="46.366410" lon="10.945400">
                <time>2017-07-15T11:43:35Z</time>
            </trkpt>
            <trkpt lat="46.366390" lon="10.945110">
                <time>2017-07-15T11:43:36Z</time>
            </trkpt>
            <trkpt lat="46.366360" lon="10.944790">
                <time>2017-07-15T11:43:37Z</time>
            </trkpt>
            <trkpt lat="46.366330" lon="10.944460">
                <time>2017-07-15T11:43:38Z</time>
            </trkpt>
            <trkpt lat="46.366310" lon="10.944160">
                <time>2017-07-15T11:43:39Z</time>
            </trkpt>
            <trkpt lat="46.366280" lon="10.943810">
                <time>2017-07-15T11:43:40Z</time>
            </trkpt>
            <trkpt lat="46.366250" lon="10.943520">
                <time>2017-07-15T11:43:41Z</time>
            </trkpt>
            <trkpt lat="46.366230" lon="10.943210">
                <time>2017-07-15T11:43:42Z</time>
            </trkpt>
            <trkpt lat="46.366200" lon="10.942890">
                <time>2017-07-15T11:43:43Z</time>
            </trkpt>
            <trkpt lat="46.366180" lon="10.942620">
                <time>2017-07-15T11:43:44Z</time>
            </trkpt>
            <trkpt lat="46.366150" lon="10.942330">
                <time>2017-07-15T11:43:45Z</time>
            </trkpt>
            <trkpt lat="46.366130" lon="10.942040">
                <time>2017-07-15T11:43:46Z</time>
            </trkpt>
            <trkpt lat="46.366110" lon="10.941750">
                <time>2017-07-15T11:43:47Z</time>
            </trkpt>
            <trkpt lat="46.366080" lon="10.941450">
                <time>2017-07-15T11:43:48Z</time>
            </trkpt>
            <trkpt lat="46.366070" lon="10.941200">
                <time>2017-07-15T11:43:49Z</time>
            </trkpt>
            <trkpt lat="46.366050" lon="10.940930">
                <time>2017-07-15T11:43:50Z</time>
            </trkpt>
            <trkpt lat="46.366020" lon="10.940660">
                <time>2017-07-15T11:43:51Z</time>
            </trkpt>
            <trkpt lat="46.366000" lon="10.940430">
                <time>2017-07-15T11:43:52Z</time>
            </trkpt>
            <trkpt lat="46.365960" lon="10.940200">
                <time>2017-07-15T11:43:53Z</time>
            </trkpt>
            <trkpt lat="46.365920" lon="10.939970">
                <time>2017-07-15T11:43:54Z</time>
            </trkpt>
            <trkpt lat="46.365870" lon="10.939750">
                <time>2017-07-15T11:43:55Z</time>
            </trkpt>
            <trkpt lat="46.365810" lon="10.939510">
                <time>2017-07-15T11:43:56Z</time>
            </trkpt>
            <trkpt lat="46.365750" lon="10.939300">
                <time>2017-07-15T11:43:57Z</time>
            </trkpt>
            <trkpt lat="46.365680" lon="10.939070">
                <time>2017-07-15T11:43:58Z</time>
            </trkpt>
            <trkpt lat="46.365600" lon="10.938850">
                <time>2017-07-15T11:43:59Z</time>
            </trkpt>
            <trkpt lat="46.365540" lon="10.938650">
                <time>2017-07-15T11:44:00Z</time>
            </trkpt>
            <trkpt lat="46.365470" lon="10.938440">
                <time>2017-07-15T11:44:01Z</time>
            </trkpt>
            <trkpt lat="46.365410" lon="10.938220">
                <time>2017-07-15T11:44:02Z</time>
            </trkpt>
            <trkpt lat="46.365340" lon="10.938020">
                <time>2017-07-15T11:44:03Z</time>
            </trkpt>
            <trkpt lat="46.365280" lon="10.937820">
                <time>2017-07-15T11:44:04Z</time>
            </trkpt>
            <trkpt lat="46.365230" lon="10.937660">
                <time>2017-07-15T11:44:05Z</time>
            </trkpt>
            <trkpt lat="46.365180" lon="10.937510">
                <time>2017-07-15T11:44:06Z</time>
            </trkpt>
            <trkpt lat="46.365140" lon="10.937370">
                <time>2017-07-15T11:44:07Z</time>
            </trkpt>
            <trkpt lat="46.365120" lon="10.937270">
                <time>2017-07-15T11:44:08Z</time>
            </trkpt>
            <trkpt lat="46.365130" lon="10.937160">
                <time>2017-07-15T11:44:09Z</time>
            </trkpt>
            <trkpt lat="46.365150" lon="10.937050">
                <time>2017-07-15T11:44:10Z</time>
            </trkpt>
            <trkpt lat="46.365180" lon="10.936950">
                <time>2017-07-15T11:44:11Z</time>
            </trkpt>
            <trkpt lat="46.365200" lon="10.936830">
                <time>2017-07-15T11:44:12Z</time>
            </trkpt>
            <trkpt lat="46.365180" lon="10.936740">
                <time>2017-07-15T11:44:13Z</time>
            </trkpt>
            <trkpt lat="46.365130" lon="10.936680">
                <time>2017-07-15T11:44:14Z</time>
            </trkpt>
            <trkpt lat="46.365060" lon="10.936640">
                <time>2017-07-15T11:44:15Z</time>
            </trkpt>
            <trkpt lat="46.364990" lon="10.936630">
                <time>2017-07-15T11:44:16Z</time>
            </trkpt>
            <trkpt lat="46.364900" lon="10.936580">
                <time>2017-07-15T11:44:17Z</time>
            </trkpt>
            <trkpt lat="46.364840" lon="10.936490">
                <time>2017-07-15T11:44:18Z</time>
            </trkpt>
            <trkpt lat="46.364780" lon="10.936360">
                <time>2017-07-15T11:44:19Z</time>
            </trkpt>
            <trkpt lat="46.364720" lon="10.936190">
                <time>2017-07-15T11:44:20Z</time>
            </trkpt>
            <trkpt lat="46.364660" lon="10.936030">
                <time>2017-07-15T11:44:21Z</time>
            </trkpt>
            <trkpt lat="46.364600" lon="10.935840">
                <time>2017-07-15T11:44:22Z</time>
            </trkpt>
            <trkpt lat="46.364520" lon="10.935640">
                <time>2017-07-15T11:44:23Z</time>
            </trkpt>
            <trkpt lat="46.364440" lon="10.935470">
                <time>2017-07-15T11:44:24Z</time>
            </trkpt>
            <trkpt lat="46.364350" lon="10.935270">
                <time>2017-07-15T11:44:25Z</time>
            </trkpt>
            <trkpt lat="46.364240" lon="10.935060">
                <time>2017-07-15T11:44:26Z</time>
            </trkpt>
            <trkpt lat="46.364130" lon="10.934880">
                <time>2017-07-15T11:44:27Z</time>
            </trkpt>
            <trkpt lat="46.363980" lon="10.934690">
                <time>2017-07-15T11:44:28Z</time>
            </trkpt>
            <trkpt lat="46.363840" lon="10.934540">
                <time>2017-07-15T11:44:29Z</time>
            </trkpt>
            <trkpt lat="46.363680" lon="10.934390">
                <time>2017-07-15T11:44:30Z</time>
            </trkpt>
            <trkpt lat="46.363490" lon="10.934220">
                <time>2017-07-15T11:44:31Z</time>
            </trkpt>
            <trkpt lat="46.363320" lon="10.934070">
                <time>2017-07-15T11:44:32Z</time>
            </trkpt>
            <trkpt lat="46.363130" lon="10.933910">
                <time>2017-07-15T11:44:33Z</time>
            </trkpt>
            <trkpt lat="46.362940" lon="10.933750">
                <time>2017-07-15T11:44:34Z</time>
            </trkpt>
            <trkpt lat="46.362750" lon="10.933580">
                <time>2017-07-15T11:44:35Z</time>
            </trkpt>
            <trkpt lat="46.362540" lon="10.933400">
                <time>2017-07-15T11:44:36Z</time>
            </trkpt>
            <trkpt lat="46.362360" lon="10.933250">
                <time>2017-07-15T11:44:37Z</time>
            </trkpt>
            <trkpt lat="46.362170" lon="10.933080">
                <time>2017-07-15T11:44:38Z</time>
            </trkpt>
            <trkpt lat="46.361960" lon="10.932910">
                <time>2017-07-15T11:44:39Z</time>
            </trkpt>
            <trkpt lat="46.361780" lon="10.932750">
                <time>2017-07-15T11:44:40Z</time>
            </trkpt>
            <trkpt lat="46.361590" lon="10.932590">
                <time>2017-07-15T11:44:41Z</time>
            </trkpt>
            <trkpt lat="46.361390" lon="10.932420">
                <time>2017-07-15T11:44:42Z</time>
            </trkpt>
            <trkpt lat="46.361210" lon="10.932260">
                <time>2017-07-15T11:44:43Z</time>
            </trkpt>
            <trkpt lat="46.361020" lon="10.932080">
                <time>2017-07-15T11:44:44Z</time>
            </trkpt>
            <trkpt lat="46.360860" lon="10.931930">
                <time>2017-07-15T11:44:45Z</time>
            </trkpt>
            <trkpt lat="46.360710" lon="10.931740">
                <time>2017-07-15T11:44:46Z</time>
            </trkpt>
            <trkpt lat="46.360550" lon="10.931530">
                <time>2017-07-15T11:44:47Z</time>
            </trkpt>
            <trkpt lat="46.360430" lon="10.931320">
                <time>2017-07-15T11:44:48Z</time>
            </trkpt>
            <trkpt lat="46.360300" lon="10.931080">
                <time>2017-07-15T11:44:49Z</time>
            </trkpt>
            <trkpt lat="46.360170" lon="10.930840">
                <time>2017-07-15T11:44:50Z</time>
            </trkpt>
            <trkpt lat="46.360050" lon="10.930600">
                <time>2017-07-15T11:44:51Z</time>
            </trkpt>
            <trkpt lat="46.359910" lon="10.930330">
                <time>2017-07-15T11:44:52Z</time>
            </trkpt>
            <trkpt lat="46.359790" lon="10.930100">
                <time>2017-07-15T11:44:53Z</time>
            </trkpt>
            <trkpt lat="46.359670" lon="10.929860">
                <time>2017-07-15T11:44:54Z</time>
            </trkpt>
            <trkpt lat="46.359540" lon="10.929630">
                <time>2017-07-15T11:44:55Z</time>
            </trkpt>
            <trkpt lat="46.359430" lon="10.929420">
                <time>2017-07-15T11:44:56Z</time>
            </trkpt>
            <trkpt lat="46.359320" lon="10.929200">
                <time>2017-07-15T11:44:57Z</time>
            </trkpt>
            <trkpt lat="46.359210" lon="10.928990">
                <time>2017-07-15T11:44:58Z</time>
            </trkpt>
            <trkpt lat="46.359110" lon="10.928810">
                <time>2017-07-15T11:44:59Z</time>
            </trkpt>
            <trkpt lat="46.358980" lon="10.928620">
                <time>2017-07-15T11:45:00Z</time>
            </trkpt>
            <trkpt lat="46.358860" lon="10.928440">
                <time>2017-07-15T11:45:01Z</time>
            </trkpt>
            <trkpt lat="46.358740" lon="10.928250">
                <time>2017-07-15T11:45:02Z</time>
            </trkpt>
            <trkpt lat="46.358610" lon="10.928050">
                <time>2017-07-15T11:45:03Z</time>
            </trkpt>
            <trkpt lat="46.358490" lon="10.927860">
                <time>2017-07-15T11:45:04Z</time>
            </trkpt>
            <trkpt lat="46.358360" lon="10.927670">
                <time>2017-07-15T11:45:05Z</time>
            </trkpt>
            <trkpt lat="46.358240" lon="10.927470">
                <time>2017-07-15T11:45:06Z</time>
            </trkpt>
            <trkpt lat="46.358110" lon="10.927270">
                <time>2017-07-15T11:45:07Z</time>
            </trkpt>
            <trkpt lat="46.357970" lon="10.927060">
                <time>2017-07-15T11:45:08Z</time>
            </trkpt>
            <trkpt lat="46.357820" lon="10.926780">
                <time>2017-07-15T11:45:09Z</time>
            </trkpt>
            <trkpt lat="46.357640" lon="10.926670">
                <time>2017-07-15T11:45:10Z</time>
            </trkpt>
            <trkpt lat="46.357470" lon="10.926480">
                <time>2017-07-15T11:45:11Z</time>
            </trkpt>
            <trkpt lat="46.357330" lon="10.926280">
                <time>2017-07-15T11:45:12Z</time>
            </trkpt>
            <trkpt lat="46.357190" lon="10.926070">
                <time>2017-07-15T11:45:13Z</time>
            </trkpt>
            <trkpt lat="46.357030" lon="10.925840">
                <time>2017-07-15T11:45:14Z</time>
            </trkpt>
            <trkpt lat="46.356880" lon="10.925640">
                <time>2017-07-15T11:45:15Z</time>
            </trkpt>
            <trkpt lat="46.356710" lon="10.925410">
                <time>2017-07-15T11:45:16Z</time>
            </trkpt>
            <trkpt lat="46.356570" lon="10.925200">
                <time>2017-07-15T11:45:17Z</time>
            </trkpt>
            <trkpt lat="46.356410" lon="10.924980">
                <time>2017-07-15T11:45:18Z</time>
            </trkpt>
            <trkpt lat="46.356240" lon="10.924740">
                <time>2017-07-15T11:45:19Z</time>
            </trkpt>
            <trkpt lat="46.356100" lon="10.924520">
                <time>2017-07-15T11:45:20Z</time>
            </trkpt>
            <trkpt lat="46.355940" lon="10.924300">
                <time>2017-07-15T11:45:21Z</time>
            </trkpt>
            <trkpt lat="46.355780" lon="10.924070">
                <time>2017-07-15T11:45:22Z</time>
            </trkpt>
            <trkpt lat="46.355620" lon="10.923840">
                <time>2017-07-15T11:45:23Z</time>
            </trkpt>
            <trkpt lat="46.355440" lon="10.923600">
                <time>2017-07-15T11:45:24Z</time>
            </trkpt>
            <trkpt lat="46.355290" lon="10.923380">
                <time>2017-07-15T11:45:25Z</time>
            </trkpt>
            <trkpt lat="46.355130" lon="10.923160">
                <time>2017-07-15T11:45:26Z</time>
            </trkpt>
            <trkpt lat="46.354960" lon="10.922910">
                <time>2017-07-15T11:45:27Z</time>
            </trkpt>
            <trkpt lat="46.354810" lon="10.922700">
                <time>2017-07-15T11:45:28Z</time>
            </trkpt>
            <trkpt lat="46.354650" lon="10.922470">
                <time>2017-07-15T11:45:29Z</time>
            </trkpt>
            <trkpt lat="46.354490" lon="10.922230">
                <time>2017-07-15T11:45:30Z</time>
            </trkpt>
            <trkpt lat="46.354340" lon="10.922030">
                <time>2017-07-15T11:45:31Z</time>
            </trkpt>
            <trkpt lat="46.354180" lon="10.921800">
                <time>2017-07-15T11:45:32Z</time>
            </trkpt>
            <trkpt lat="46.354030" lon="10.921590">
                <time>2017-07-15T11:45:33Z</time>
            </trkpt>
            <trkpt lat="46.353870" lon="10.921370">
                <time>2017-07-15T11:45:34Z</time>
            </trkpt>
            <trkpt lat="46.353700" lon="10.921130">
                <time>2017-07-15T11:45:35Z</time>
            </trkpt>
            <trkpt lat="46.353540" lon="10.920910">
                <time>2017-07-15T11:45:36Z</time>
            </trkpt>
            <trkpt lat="46.353380" lon="10.920670">
                <time>2017-07-15T11:45:37Z</time>
            </trkpt>
            <trkpt lat="46.353210" lon="10.920430">
                <time>2017-07-15T11:45:38Z</time>
            </trkpt>
            <trkpt lat="46.353050" lon="10.920200">
                <time>2017-07-15T11:45:39Z</time>
            </trkpt>
            <trkpt lat="46.352880" lon="10.919960">
                <time>2017-07-15T11:45:40Z</time>
            </trkpt>
            <trkpt lat="46.352740" lon="10.919760">
                <time>2017-07-15T11:45:41Z</time>
            </trkpt>
            <trkpt lat="46.352590" lon="10.919550">
                <time>2017-07-15T11:45:42Z</time>
            </trkpt>
            <trkpt lat="46.352430" lon="10.919330">
                <time>2017-07-15T11:45:43Z</time>
            </trkpt>
            <trkpt lat="46.352300" lon="10.919150">
                <time>2017-07-15T11:45:44Z</time>
            </trkpt>
            <trkpt lat="46.352170" lon="10.918960">
                <time>2017-07-15T11:45:45Z</time>
            </trkpt>
            <trkpt lat="46.352040" lon="10.918770">
                <time>2017-07-15T11:45:46Z</time>
            </trkpt>
            <trkpt lat="46.351930" lon="10.918610">
                <time>2017-07-15T11:45:47Z</time>
            </trkpt>
            <trkpt lat="46.351800" lon="10.918430">
                <time>2017-07-15T11:45:48Z</time>
            </trkpt>
            <trkpt lat="46.351680" lon="10.918270">
                <time>2017-07-15T11:45:49Z</time>
            </trkpt>
            <trkpt lat="46.351560" lon="10.918090">
                <time>2017-07-15T11:45:50Z</time>
            </trkpt>
            <trkpt lat="46.350530" lon="10.916530">
                <time>2017-07-15T11:46:02Z</time>
            </trkpt>
            <trkpt lat="46.350470" lon="10.916410">
                <time>2017-07-15T11:46:03Z</time>
            </trkpt>
            <trkpt lat="46.350380" lon="10.916250">
                <time>2017-07-15T11:46:04Z</time>
            </trkpt>
            <trkpt lat="46.350300" lon="10.916090">
                <time>2017-07-15T11:46:05Z</time>
            </trkpt>
            <trkpt lat="46.350210" lon="10.915910">
                <time>2017-07-15T11:46:06Z</time>
            </trkpt>
            <trkpt lat="46.350110" lon="10.915740">
                <time>2017-07-15T11:46:07Z</time>
            </trkpt>
            <trkpt lat="46.350020" lon="10.915590">
                <time>2017-07-15T11:46:08Z</time>
            </trkpt>
            <trkpt lat="46.349940" lon="10.915440">
                <time>2017-07-15T11:46:09Z</time>
            </trkpt>
            <trkpt lat="46.349860" lon="10.915310">
                <time>2017-07-15T11:46:10Z</time>
            </trkpt>
            <trkpt lat="46.349780" lon="10.915170">
                <time>2017-07-15T11:46:11Z</time>
            </trkpt>
            <trkpt lat="46.349710" lon="10.915040">
                <time>2017-07-15T11:46:12Z</time>
            </trkpt>
            <trkpt lat="46.349650" lon="10.914920">
                <time>2017-07-15T11:46:13Z</time>
            </trkpt>
            <trkpt lat="46.349590" lon="10.914810">
                <time>2017-07-15T11:46:14Z</time>
            </trkpt>
            <trkpt lat="46.349520" lon="10.914710">
                <time>2017-07-15T11:46:15Z</time>
            </trkpt>
            <trkpt lat="46.349460" lon="10.914600">
                <time>2017-07-15T11:46:16Z</time>
            </trkpt>
            <trkpt lat="46.349400" lon="10.914490">
                <time>2017-07-15T11:46:17Z</time>
            </trkpt>
            <trkpt lat="46.349330" lon="10.914350">
                <time>2017-07-15T11:46:18Z</time>
            </trkpt>
            <trkpt lat="46.349250" lon="10.914220">
                <time>2017-07-15T11:46:19Z</time>
            </trkpt>
            <trkpt lat="46.349170" lon="10.914070">
                <time>2017-07-15T11:46:20Z</time>
            </trkpt>
            <trkpt lat="46.349090" lon="10.913930">
                <time>2017-07-15T11:46:21Z</time>
            </trkpt>
            <trkpt lat="46.349010" lon="10.913780">
                <time>2017-07-15T11:46:22Z</time>
            </trkpt>
            <trkpt lat="46.348910" lon="10.913610">
                <time>2017-07-15T11:46:23Z</time>
            </trkpt>
            <trkpt lat="46.348820" lon="10.913440">
                <time>2017-07-15T11:46:24Z</time>
            </trkpt>
            <trkpt lat="46.348710" lon="10.913240">
                <time>2017-07-15T11:46:25Z</time>
            </trkpt>
            <trkpt lat="46.348590" lon="10.913040">
                <time>2017-07-15T11:46:26Z</time>
            </trkpt>
            <trkpt lat="46.348480" lon="10.912820">
                <time>2017-07-15T11:46:27Z</time>
            </trkpt>
            <trkpt lat="46.348350" lon="10.912590">
                <time>2017-07-15T11:46:28Z</time>
            </trkpt>
            <trkpt lat="46.348230" lon="10.912370">
                <time>2017-07-15T11:46:29Z</time>
            </trkpt>
            <trkpt lat="46.348100" lon="10.912130">
                <time>2017-07-15T11:46:30Z</time>
            </trkpt>
            <trkpt lat="46.347950" lon="10.911870">
                <time>2017-07-15T11:46:31Z</time>
            </trkpt>
            <trkpt lat="46.347820" lon="10.911640">
                <time>2017-07-15T11:46:32Z</time>
            </trkpt>
            <trkpt lat="46.347680" lon="10.911400">
                <time>2017-07-15T11:46:33Z</time>
            </trkpt>
            <trkpt lat="46.347530" lon="10.911140">
                <time>2017-07-15T11:46:34Z</time>
            </trkpt>
            <trkpt lat="46.347400" lon="10.910910">
                <time>2017-07-15T11:46:35Z</time>
            </trkpt>
            <trkpt lat="46.347240" lon="10.910650">
                <time>2017-07-15T11:46:36Z</time>
            </trkpt>
            <trkpt lat="46.347090" lon="10.910420">
                <time>2017-07-15T11:46:37Z</time>
            </trkpt>
            <trkpt lat="46.346940" lon="10.910180">
                <time>2017-07-15T11:46:38Z</time>
            </trkpt>
            <trkpt lat="46.346770" lon="10.909940">
                <time>2017-07-15T11:46:39Z</time>
            </trkpt>
            <trkpt lat="46.346610" lon="10.909720">
                <time>2017-07-15T11:46:40Z</time>
            </trkpt>
            <trkpt lat="46.346450" lon="10.909500">
                <time>2017-07-15T11:46:41Z</time>
            </trkpt>
            <trkpt lat="46.346290" lon="10.909280">
                <time>2017-07-15T11:46:42Z</time>
            </trkpt>
            <trkpt lat="46.346120" lon="10.909060">
                <time>2017-07-15T11:46:43Z</time>
            </trkpt>
            <trkpt lat="46.345930" lon="10.908830">
                <time>2017-07-15T11:46:44Z</time>
            </trkpt>
            <trkpt lat="46.345770" lon="10.908630">
                <time>2017-07-15T11:46:45Z</time>
            </trkpt>
            <trkpt lat="46.345590" lon="10.908430">
                <time>2017-07-15T11:46:46Z</time>
            </trkpt>
            <trkpt lat="46.345390" lon="10.908210">
                <time>2017-07-15T11:46:47Z</time>
            </trkpt>
            <trkpt lat="46.345220" lon="10.908020">
                <time>2017-07-15T11:46:48Z</time>
            </trkpt>
            <trkpt lat="46.345030" lon="10.907830">
                <time>2017-07-15T11:46:49Z</time>
            </trkpt>
            <trkpt lat="46.344830" lon="10.907620">
                <time>2017-07-15T11:46:50Z</time>
            </trkpt>
            <trkpt lat="46.344650" lon="10.907430">
                <time>2017-07-15T11:46:51Z</time>
            </trkpt>
            <trkpt lat="46.344450" lon="10.907230">
                <time>2017-07-15T11:46:52Z</time>
            </trkpt>
            <trkpt lat="46.344280" lon="10.907040">
                <time>2017-07-15T11:46:53Z</time>
            </trkpt>
            <trkpt lat="46.344090" lon="10.906830">
                <time>2017-07-15T11:46:54Z</time>
            </trkpt>
            <trkpt lat="46.343890" lon="10.906610">
                <time>2017-07-15T11:46:55Z</time>
            </trkpt>
            <trkpt lat="46.343710" lon="10.906400">
                <time>2017-07-15T11:46:56Z</time>
            </trkpt>
            <trkpt lat="46.343530" lon="10.906160">
                <time>2017-07-15T11:46:57Z</time>
            </trkpt>
            <trkpt lat="46.343350" lon="10.905920">
                <time>2017-07-15T11:46:58Z</time>
            </trkpt>
            <trkpt lat="46.343170" lon="10.905660">
                <time>2017-07-15T11:46:59Z</time>
            </trkpt>
            <trkpt lat="46.342980" lon="10.905390">
                <time>2017-07-15T11:47:00Z</time>
            </trkpt>
            <trkpt lat="46.342820" lon="10.905150">
                <time>2017-07-15T11:47:01Z</time>
            </trkpt>
            <trkpt lat="46.342640" lon="10.904890">
                <time>2017-07-15T11:47:02Z</time>
            </trkpt>
            <trkpt lat="46.342460" lon="10.904600">
                <time>2017-07-15T11:47:03Z</time>
            </trkpt>
            <trkpt lat="46.342310" lon="10.904350">
                <time>2017-07-15T11:47:04Z</time>
            </trkpt>
            <trkpt lat="46.342160" lon="10.904080">
                <time>2017-07-15T11:47:05Z</time>
            </trkpt>
            <trkpt lat="46.342010" lon="10.903810">
                <time>2017-07-15T11:47:06Z</time>
            </trkpt>
            <trkpt lat="46.341880" lon="10.903560">
                <time>2017-07-15T11:47:07Z</time>
            </trkpt>
            <trkpt lat="46.341730" lon="10.903280">
                <time>2017-07-15T11:47:08Z</time>
            </trkpt>
            <trkpt lat="46.341600" lon="10.903030">
                <time>2017-07-15T11:47:09Z</time>
            </trkpt>
            <trkpt lat="46.341470" lon="10.902760">
                <time>2017-07-15T11:47:10Z</time>
            </trkpt>
            <trkpt lat="46.341330" lon="10.902460">
                <time>2017-07-15T11:47:11Z</time>
            </trkpt>
            <trkpt lat="46.341200" lon="10.902200">
                <time>2017-07-15T11:47:12Z</time>
            </trkpt>
            <trkpt lat="46.341070" lon="10.901910">
                <time>2017-07-15T11:47:13Z</time>
            </trkpt>
            <trkpt lat="46.340940" lon="10.901620">
                <time>2017-07-15T11:47:14Z</time>
            </trkpt>
            <trkpt lat="46.340810" lon="10.901340">
                <time>2017-07-15T11:47:15Z</time>
            </trkpt>
            <trkpt lat="46.340670" lon="10.901040">
                <time>2017-07-15T11:47:16Z</time>
            </trkpt>
            <trkpt lat="46.340550" lon="10.900770">
                <time>2017-07-15T11:47:17Z</time>
            </trkpt>
            <trkpt lat="46.340430" lon="10.900490">
                <time>2017-07-15T11:47:18Z</time>
            </trkpt>
            <trkpt lat="46.340290" lon="10.900190">
                <time>2017-07-15T11:47:19Z</time>
            </trkpt>
            <trkpt lat="46.340170" lon="10.899920">
                <time>2017-07-15T11:47:20Z</time>
            </trkpt>
            <trkpt lat="46.340040" lon="10.899640">
                <time>2017-07-15T11:47:21Z</time>
            </trkpt>
            <trkpt lat="46.339900" lon="10.899340">
                <time>2017-07-15T11:47:22Z</time>
            </trkpt>
            <trkpt lat="46.339780" lon="10.899080">
                <time>2017-07-15T11:47:23Z</time>
            </trkpt>
            <trkpt lat="46.339640" lon="10.898790">
                <time>2017-07-15T11:47:24Z</time>
            </trkpt>
            <trkpt lat="46.339510" lon="10.898540">
                <time>2017-07-15T11:47:25Z</time>
            </trkpt>
            <trkpt lat="46.339370" lon="10.898290">
                <time>2017-07-15T11:47:26Z</time>
            </trkpt>
            <trkpt lat="46.339220" lon="10.898020">
                <time>2017-07-15T11:47:27Z</time>
            </trkpt>
            <trkpt lat="46.339090" lon="10.897790">
                <time>2017-07-15T11:47:28Z</time>
            </trkpt>
            <trkpt lat="46.338940" lon="10.897560">
                <time>2017-07-15T11:47:29Z</time>
            </trkpt>
            <trkpt lat="46.338800" lon="10.897330">
                <time>2017-07-15T11:47:30Z</time>
            </trkpt>
            <trkpt lat="46.338640" lon="10.897100">
                <time>2017-07-15T11:47:31Z</time>
            </trkpt>
            <trkpt lat="46.338470" lon="10.896860">
                <time>2017-07-15T11:47:32Z</time>
            </trkpt>
            <trkpt lat="46.338320" lon="10.896640">
                <time>2017-07-15T11:47:33Z</time>
            </trkpt>
            <trkpt lat="46.338140" lon="10.896410">
                <time>2017-07-15T11:47:34Z</time>
            </trkpt>
            <trkpt lat="46.337960" lon="10.896150">
                <time>2017-07-15T11:47:35Z</time>
            </trkpt>
            <trkpt lat="46.337790" lon="10.895930">
                <time>2017-07-15T11:47:36Z</time>
            </trkpt>
            <trkpt lat="46.337620" lon="10.895670">
                <time>2017-07-15T11:47:37Z</time>
            </trkpt>
            <trkpt lat="46.337420" lon="10.895400">
                <time>2017-07-15T11:47:38Z</time>
            </trkpt>
            <trkpt lat="46.337250" lon="10.895160">
                <time>2017-07-15T11:47:39Z</time>
            </trkpt>
            <trkpt lat="46.337040" lon="10.894880">
                <time>2017-07-15T11:47:40Z</time>
            </trkpt>
            <trkpt lat="46.336870" lon="10.894630">
                <time>2017-07-15T11:47:41Z</time>
            </trkpt>
            <trkpt lat="46.336690" lon="10.894380">
                <time>2017-07-15T11:47:42Z</time>
            </trkpt>
            <trkpt lat="46.336490" lon="10.894110">
                <time>2017-07-15T11:47:43Z</time>
            </trkpt>
            <trkpt lat="46.336330" lon="10.893870">
                <time>2017-07-15T11:47:44Z</time>
            </trkpt>
            <trkpt lat="46.336150" lon="10.893610">
                <time>2017-07-15T11:47:45Z</time>
            </trkpt>
            <trkpt lat="46.335980" lon="10.893360">
                <time>2017-07-15T11:47:46Z</time>
            </trkpt>
            <trkpt lat="46.335800" lon="10.893100">
                <time>2017-07-15T11:47:47Z</time>
            </trkpt>
            <trkpt lat="46.335620" lon="10.892830">
                <time>2017-07-15T11:47:48Z</time>
            </trkpt>
            <trkpt lat="46.335450" lon="10.892600">
                <time>2017-07-15T11:47:49Z</time>
            </trkpt>
            <trkpt lat="46.335280" lon="10.892360">
                <time>2017-07-15T11:47:50Z</time>
            </trkpt>
            <trkpt lat="46.335090" lon="10.892100">
                <time>2017-07-15T11:47:51Z</time>
            </trkpt>
            <trkpt lat="46.334940" lon="10.891880">
                <time>2017-07-15T11:47:52Z</time>
            </trkpt>
            <trkpt lat="46.334790" lon="10.891650">
                <time>2017-07-15T11:47:53Z</time>
            </trkpt>
            <trkpt lat="46.334620" lon="10.891410">
                <time>2017-07-15T11:47:54Z</time>
            </trkpt>
            <trkpt lat="46.334490" lon="10.891180">
                <time>2017-07-15T11:47:55Z</time>
            </trkpt>
            <trkpt lat="46.334330" lon="10.890910">
                <time>2017-07-15T11:47:56Z</time>
            </trkpt>
            <trkpt lat="46.334210" lon="10.890670">
                <time>2017-07-15T11:47:57Z</time>
            </trkpt>
            <trkpt lat="46.334070" lon="10.890400">
                <time>2017-07-15T11:47:58Z</time>
            </trkpt>
            <trkpt lat="46.333950" lon="10.890090">
                <time>2017-07-15T11:47:59Z</time>
            </trkpt>
            <trkpt lat="46.333840" lon="10.889820">
                <time>2017-07-15T11:48:00Z</time>
            </trkpt>
            <trkpt lat="46.333720" lon="10.889530">
                <time>2017-07-15T11:48:01Z</time>
            </trkpt>
            <trkpt lat="46.333600" lon="10.889240">
                <time>2017-07-15T11:48:02Z</time>
            </trkpt>
            <trkpt lat="46.333480" lon="10.888960">
                <time>2017-07-15T11:48:03Z</time>
            </trkpt>
            <trkpt lat="46.333350" lon="10.888650">
                <time>2017-07-15T11:48:04Z</time>
            </trkpt>
            <trkpt lat="46.333240" lon="10.888370">
                <time>2017-07-15T11:48:05Z</time>
            </trkpt>
            <trkpt lat="46.333120" lon="10.888080">
                <time>2017-07-15T11:48:06Z</time>
            </trkpt>
            <trkpt lat="46.333000" lon="10.887760">
                <time>2017-07-15T11:48:07Z</time>
            </trkpt>
            <trkpt lat="46.332890" lon="10.887490">
                <time>2017-07-15T11:48:08Z</time>
            </trkpt>
            <trkpt lat="46.332780" lon="10.887200">
                <time>2017-07-15T11:48:09Z</time>
            </trkpt>
            <trkpt lat="46.332660" lon="10.886890">
                <time>2017-07-15T11:48:10Z</time>
            </trkpt>
            <trkpt lat="46.332560" lon="10.886620">
                <time>2017-07-15T11:48:11Z</time>
            </trkpt>
            <trkpt lat="46.332440" lon="10.886320">
                <time>2017-07-15T11:48:12Z</time>
            </trkpt>
            <trkpt lat="46.332350" lon="10.886060">
                <time>2017-07-15T11:48:13Z</time>
            </trkpt>
            <trkpt lat="46.332240" lon="10.885780">
                <time>2017-07-15T11:48:14Z</time>
            </trkpt>
            <trkpt lat="46.332140" lon="10.885480">
                <time>2017-07-15T11:48:15Z</time>
            </trkpt>
            <trkpt lat="46.332050" lon="10.885200">
                <time>2017-07-15T11:48:16Z</time>
            </trkpt>
            <trkpt lat="46.331970" lon="10.884880">
                <time>2017-07-15T11:48:17Z</time>
            </trkpt>
            <trkpt lat="46.331890" lon="10.884560">
                <time>2017-07-15T11:48:18Z</time>
            </trkpt>
            <trkpt lat="46.331820" lon="10.884230">
                <time>2017-07-15T11:48:19Z</time>
            </trkpt>
            <trkpt lat="46.331760" lon="10.883870">
                <time>2017-07-15T11:48:20Z</time>
            </trkpt>
            <trkpt lat="46.331710" lon="10.883560">
                <time>2017-07-15T11:48:21Z</time>
            </trkpt>
            <trkpt lat="46.331660" lon="10.883240">
                <time>2017-07-15T11:48:22Z</time>
            </trkpt>
            <trkpt lat="46.331610" lon="10.882880">
                <time>2017-07-15T11:48:23Z</time>
            </trkpt>
            <trkpt lat="46.331560" lon="10.882550">
                <time>2017-07-15T11:48:24Z</time>
            </trkpt>
            <trkpt lat="46.331510" lon="10.882190">
                <time>2017-07-15T11:48:25Z</time>
            </trkpt>
            <trkpt lat="46.331450" lon="10.881810">
                <time>2017-07-15T11:48:26Z</time>
            </trkpt>
            <trkpt lat="46.331400" lon="10.881460">
                <time>2017-07-15T11:48:27Z</time>
            </trkpt>
            <trkpt lat="46.331340" lon="10.881060">
                <time>2017-07-15T11:48:28Z</time>
            </trkpt>
            <trkpt lat="46.331280" lon="10.880710">
                <time>2017-07-15T11:48:29Z</time>
            </trkpt>
            <trkpt lat="46.331230" lon="10.880330">
                <time>2017-07-15T11:48:30Z</time>
            </trkpt>
            <trkpt lat="46.331180" lon="10.879960">
                <time>2017-07-15T11:48:31Z</time>
            </trkpt>
            <trkpt lat="46.331130" lon="10.879660">
                <time>2017-07-15T11:48:32Z</time>
            </trkpt>
            <trkpt lat="46.331070" lon="10.879370">
                <time>2017-07-15T11:48:33Z</time>
            </trkpt>
            <trkpt lat="46.331000" lon="10.879110">
                <time>2017-07-15T11:48:34Z</time>
            </trkpt>
            <trkpt lat="46.330900" lon="10.878870">
                <time>2017-07-15T11:48:35Z</time>
            </trkpt>
            <trkpt lat="46.330770" lon="10.878640">
                <time>2017-07-15T11:48:36Z</time>
            </trkpt>
            <trkpt lat="46.330630" lon="10.878450">
                <time>2017-07-15T11:48:37Z</time>
            </trkpt>
            <trkpt lat="46.330460" lon="10.878280">
                <time>2017-07-15T11:48:38Z</time>
            </trkpt>
            <trkpt lat="46.330250" lon="10.878110">
                <time>2017-07-15T11:48:39Z</time>
            </trkpt>
            <trkpt lat="46.330050" lon="10.877970">
                <time>2017-07-15T11:48:40Z</time>
            </trkpt>
            <trkpt lat="46.329840" lon="10.877810">
                <time>2017-07-15T11:48:41Z</time>
            </trkpt>
            <trkpt lat="46.329620" lon="10.877650">
                <time>2017-07-15T11:48:42Z</time>
            </trkpt>
            <trkpt lat="46.329430" lon="10.877510">
                <time>2017-07-15T11:48:43Z</time>
            </trkpt>
            <trkpt lat="46.329230" lon="10.877350">
                <time>2017-07-15T11:48:44Z</time>
            </trkpt>
            <trkpt lat="46.329040" lon="10.877220">
                <time>2017-07-15T11:48:45Z</time>
            </trkpt>
            <trkpt lat="46.328850" lon="10.877070">
                <time>2017-07-15T11:48:46Z</time>
            </trkpt>
            <trkpt lat="46.328650" lon="10.876930">
                <time>2017-07-15T11:48:47Z</time>
            </trkpt>
            <trkpt lat="46.328480" lon="10.876800">
                <time>2017-07-15T11:48:48Z</time>
            </trkpt>
            <trkpt lat="46.328330" lon="10.876670">
                <time>2017-07-15T11:48:49Z</time>
            </trkpt>
            <trkpt lat="46.328180" lon="10.876540">
                <time>2017-07-15T11:48:50Z</time>
            </trkpt>
            <trkpt lat="46.328050" lon="10.876380">
                <time>2017-07-15T11:48:51Z</time>
            </trkpt>
            <trkpt lat="46.327920" lon="10.876170">
                <time>2017-07-15T11:48:52Z</time>
            </trkpt>
            <trkpt lat="46.327810" lon="10.875960">
                <time>2017-07-15T11:48:53Z</time>
            </trkpt>
            <trkpt lat="46.327700" lon="10.875720">
                <time>2017-07-15T11:48:54Z</time>
            </trkpt>
            <trkpt lat="46.327610" lon="10.875460">
                <time>2017-07-15T11:48:55Z</time>
            </trkpt>
            <trkpt lat="46.327540" lon="10.875230">
                <time>2017-07-15T11:48:56Z</time>
            </trkpt>
            <trkpt lat="46.327500" lon="10.875000">
                <time>2017-07-15T11:48:57Z</time>
            </trkpt>
            <trkpt lat="46.327470" lon="10.874760">
                <time>2017-07-15T11:48:58Z</time>
            </trkpt>
            <trkpt lat="46.327470" lon="10.874560">
                <time>2017-07-15T11:48:59Z</time>
            </trkpt>
            <trkpt lat="46.327490" lon="10.874330">
                <time>2017-07-15T11:49:00Z</time>
            </trkpt>
            <trkpt lat="46.327520" lon="10.874130">
                <time>2017-07-15T11:49:01Z</time>
            </trkpt>
            <trkpt lat="46.327570" lon="10.873920">
                <time>2017-07-15T11:49:02Z</time>
            </trkpt>
            <trkpt lat="46.327650" lon="10.873690">
                <time>2017-07-15T11:49:03Z</time>
            </trkpt>
            <trkpt lat="46.327730" lon="10.873460">
                <time>2017-07-15T11:49:04Z</time>
            </trkpt>
            <trkpt lat="46.327840" lon="10.873210">
                <time>2017-07-15T11:49:05Z</time>
            </trkpt>
            <trkpt lat="46.327960" lon="10.872950">
                <time>2017-07-15T11:49:06Z</time>
            </trkpt>
            <trkpt lat="46.328060" lon="10.872690">
                <time>2017-07-15T11:49:07Z</time>
            </trkpt>
            <trkpt lat="46.328150" lon="10.872450">
                <time>2017-07-15T11:49:08Z</time>
            </trkpt>
            <trkpt lat="46.328180" lon="10.872270">
                <time>2017-07-15T11:49:09Z</time>
            </trkpt>
            <trkpt lat="46.328180" lon="10.872100">
                <time>2017-07-15T11:49:10Z</time>
            </trkpt>
            <trkpt lat="46.328180" lon="10.871960">
                <time>2017-07-15T11:49:11Z</time>
            </trkpt>
            <trkpt lat="46.328190" lon="10.871850">
                <time>2017-07-15T11:49:12Z</time>
            </trkpt>
            <trkpt lat="46.328220" lon="10.871740">
                <time>2017-07-15T11:49:13Z</time>
            </trkpt>
            <trkpt lat="46.328230" lon="10.871590">
                <time>2017-07-15T11:49:14Z</time>
            </trkpt>
            <trkpt lat="46.328220" lon="10.871440">
                <time>2017-07-15T11:49:15Z</time>
            </trkpt>
            <trkpt lat="46.328210" lon="10.871240">
                <time>2017-07-15T11:49:16Z</time>
            </trkpt>
            <trkpt lat="46.328200" lon="10.871070">
                <time>2017-07-15T11:49:17Z</time>
            </trkpt>
            <trkpt lat="46.328170" lon="10.870900">
                <time>2017-07-15T11:49:18Z</time>
            </trkpt>
            <trkpt lat="46.328110" lon="10.870730">
                <time>2017-07-15T11:49:19Z</time>
            </trkpt>
            <trkpt lat="46.328060" lon="10.870600">
                <time>2017-07-15T11:49:20Z</time>
            </trkpt>
            <trkpt lat="46.328000" lon="10.870460">
                <time>2017-07-15T11:49:21Z</time>
            </trkpt>
            <trkpt lat="46.327940" lon="10.870300">
                <time>2017-07-15T11:49:22Z</time>
            </trkpt>
            <trkpt lat="46.327880" lon="10.870150">
                <time>2017-07-15T11:49:23Z</time>
            </trkpt>
            <trkpt lat="46.327820" lon="10.869980">
                <time>2017-07-15T11:49:24Z</time>
            </trkpt>
            <trkpt lat="46.327750" lon="10.869820">
                <time>2017-07-15T11:49:25Z</time>
            </trkpt>
            <trkpt lat="46.327680" lon="10.869630">
                <time>2017-07-15T11:49:26Z</time>
            </trkpt>
            <trkpt lat="46.327600" lon="10.869400">
                <time>2017-07-15T11:49:27Z</time>
            </trkpt>
            <trkpt lat="46.327540" lon="10.869190">
                <time>2017-07-15T11:49:28Z</time>
            </trkpt>
            <trkpt lat="46.327490" lon="10.868940">
                <time>2017-07-15T11:49:29Z</time>
            </trkpt>
            <trkpt lat="46.327440" lon="10.868650">
                <time>2017-07-15T11:49:30Z</time>
            </trkpt>
            <trkpt lat="46.327420" lon="10.868390">
                <time>2017-07-15T11:49:31Z</time>
            </trkpt>
            <trkpt lat="46.327410" lon="10.868090">
                <time>2017-07-15T11:49:32Z</time>
            </trkpt>
            <trkpt lat="46.327410" lon="10.867820">
                <time>2017-07-15T11:49:33Z</time>
            </trkpt>
            <trkpt lat="46.327420" lon="10.867520">
                <time>2017-07-15T11:49:34Z</time>
            </trkpt>
            <trkpt lat="46.327430" lon="10.867190">
                <time>2017-07-15T11:49:35Z</time>
            </trkpt>
            <trkpt lat="46.327450" lon="10.866900">
                <time>2017-07-15T11:49:36Z</time>
            </trkpt>
            <trkpt lat="46.327460" lon="10.866590">
                <time>2017-07-15T11:49:37Z</time>
            </trkpt>
            <trkpt lat="46.327480" lon="10.866300">
                <time>2017-07-15T11:49:38Z</time>
            </trkpt>
            <trkpt lat="46.327480" lon="10.866010">
                <time>2017-07-15T11:49:39Z</time>
            </trkpt>
            <trkpt lat="46.327470" lon="10.865720">
                <time>2017-07-15T11:49:40Z</time>
            </trkpt>
            <trkpt lat="46.327450" lon="10.865460">
                <time>2017-07-15T11:49:41Z</time>
            </trkpt>
            <trkpt lat="46.327420" lon="10.865190">
                <time>2017-07-15T11:49:42Z</time>
            </trkpt>
            <trkpt lat="46.327370" lon="10.864890">
                <time>2017-07-15T11:49:43Z</time>
            </trkpt>
            <trkpt lat="46.327320" lon="10.864620">
                <time>2017-07-15T11:49:44Z</time>
            </trkpt>
            <trkpt lat="46.327240" lon="10.864340">
                <time>2017-07-15T11:49:45Z</time>
            </trkpt>
            <trkpt lat="46.327150" lon="10.864040">
                <time>2017-07-15T11:49:46Z</time>
            </trkpt>
            <trkpt lat="46.327050" lon="10.863780">
                <time>2017-07-15T11:49:47Z</time>
            </trkpt>
            <trkpt lat="46.326930" lon="10.863490">
                <time>2017-07-15T11:49:48Z</time>
            </trkpt>
            <trkpt lat="46.326810" lon="10.863240">
                <time>2017-07-15T11:49:49Z</time>
            </trkpt>
            <trkpt lat="46.326670" lon="10.862980">
                <time>2017-07-15T11:49:50Z</time>
            </trkpt>
            <trkpt lat="46.326510" lon="10.862710">
                <time>2017-07-15T11:49:51Z</time>
            </trkpt>
            <trkpt lat="46.326370" lon="10.862500">
                <time>2017-07-15T11:49:52Z</time>
            </trkpt>
            <trkpt lat="46.326210" lon="10.862270">
                <time>2017-07-15T11:49:53Z</time>
            </trkpt>
            <trkpt lat="46.326050" lon="10.862050">
                <time>2017-07-15T11:49:54Z</time>
            </trkpt>
            <trkpt lat="46.325890" lon="10.861840">
                <time>2017-07-15T11:49:55Z</time>
            </trkpt>
            <trkpt lat="46.325720" lon="10.861620">
                <time>2017-07-15T11:49:56Z</time>
            </trkpt>
            <trkpt lat="46.325580" lon="10.861440">
                <time>2017-07-15T11:49:57Z</time>
            </trkpt>
            <trkpt lat="46.325430" lon="10.861240">
                <time>2017-07-15T11:49:58Z</time>
            </trkpt>
            <trkpt lat="46.325250" lon="10.861030">
                <time>2017-07-15T11:49:59Z</time>
            </trkpt>
            <trkpt lat="46.325100" lon="10.860850">
                <time>2017-07-15T11:50:00Z</time>
            </trkpt>
            <trkpt lat="46.324930" lon="10.860650">
                <time>2017-07-15T11:50:01Z</time>
            </trkpt>
            <trkpt lat="46.324740" lon="10.860410">
                <time>2017-07-15T11:50:02Z</time>
            </trkpt>
            <trkpt lat="46.324570" lon="10.860200">
                <time>2017-07-15T11:50:03Z</time>
            </trkpt>
            <trkpt lat="46.324390" lon="10.859950">
                <time>2017-07-15T11:50:04Z</time>
            </trkpt>
            <trkpt lat="46.324240" lon="10.859720">
                <time>2017-07-15T11:50:05Z</time>
            </trkpt>
            <trkpt lat="46.324100" lon="10.859460">
                <time>2017-07-15T11:50:06Z</time>
            </trkpt>
            <trkpt lat="46.323980" lon="10.859160">
                <time>2017-07-15T11:50:07Z</time>
            </trkpt>
            <trkpt lat="46.323900" lon="10.858890">
                <time>2017-07-15T11:50:08Z</time>
            </trkpt>
            <trkpt lat="46.323840" lon="10.858590">
                <time>2017-07-15T11:50:09Z</time>
            </trkpt>
            <trkpt lat="46.323820" lon="10.858280">
                <time>2017-07-15T11:50:10Z</time>
            </trkpt>
            <trkpt lat="46.323820" lon="10.857960">
                <time>2017-07-15T11:50:11Z</time>
            </trkpt>
            <trkpt lat="46.323820" lon="10.857610">
                <time>2017-07-15T11:50:12Z</time>
            </trkpt>
            <trkpt lat="46.323820" lon="10.857280">
                <time>2017-07-15T11:50:13Z</time>
            </trkpt>
            <trkpt lat="46.323830" lon="10.856910">
                <time>2017-07-15T11:50:14Z</time>
            </trkpt>
            <trkpt lat="46.323830" lon="10.856510">
                <time>2017-07-15T11:50:15Z</time>
            </trkpt>
            <trkpt lat="46.323840" lon="10.856150">
                <time>2017-07-15T11:50:16Z</time>
            </trkpt>
            <trkpt lat="46.323840" lon="10.855770">
                <time>2017-07-15T11:50:17Z</time>
            </trkpt>
            <trkpt lat="46.323830" lon="10.855380">
                <time>2017-07-15T11:50:18Z</time>
            </trkpt>
            <trkpt lat="46.323820" lon="10.855040">
                <time>2017-07-15T11:50:19Z</time>
            </trkpt>
            <trkpt lat="46.323800" lon="10.854660">
                <time>2017-07-15T11:50:20Z</time>
            </trkpt>
            <trkpt lat="46.323770" lon="10.854330">
                <time>2017-07-15T11:50:21Z</time>
            </trkpt>
            <trkpt lat="46.323730" lon="10.853990">
                <time>2017-07-15T11:50:22Z</time>
            </trkpt>
            <trkpt lat="46.323690" lon="10.853640">
                <time>2017-07-15T11:50:23Z</time>
            </trkpt>
            <trkpt lat="46.323660" lon="10.853340">
                <time>2017-07-15T11:50:24Z</time>
            </trkpt>
            <trkpt lat="46.323630" lon="10.853030">
                <time>2017-07-15T11:50:25Z</time>
            </trkpt>
            <trkpt lat="46.323620" lon="10.852750">
                <time>2017-07-15T11:50:26Z</time>
            </trkpt>
            <trkpt lat="46.323640" lon="10.852470">
                <time>2017-07-15T11:50:27Z</time>
            </trkpt>
            <trkpt lat="46.323670" lon="10.852200">
                <time>2017-07-15T11:50:28Z</time>
            </trkpt>
            <trkpt lat="46.323700" lon="10.851970">
                <time>2017-07-15T11:50:29Z</time>
            </trkpt>
            <trkpt lat="46.323730" lon="10.851730">
                <time>2017-07-15T11:50:30Z</time>
            </trkpt>
            <trkpt lat="46.323760" lon="10.851470">
                <time>2017-07-15T11:50:31Z</time>
            </trkpt>
            <trkpt lat="46.323770" lon="10.851230">
                <time>2017-07-15T11:50:32Z</time>
            </trkpt>
            <trkpt lat="46.323780" lon="10.850960">
                <time>2017-07-15T11:50:33Z</time>
            </trkpt>
            <trkpt lat="46.323770" lon="10.850680">
                <time>2017-07-15T11:50:34Z</time>
            </trkpt>
            <trkpt lat="46.323750" lon="10.850440">
                <time>2017-07-15T11:50:35Z</time>
            </trkpt>
            <trkpt lat="46.323710" lon="10.850170">
                <time>2017-07-15T11:50:36Z</time>
            </trkpt>
            <trkpt lat="46.323660" lon="10.849940">
                <time>2017-07-15T11:50:37Z</time>
            </trkpt>
            <trkpt lat="46.323600" lon="10.849720">
                <time>2017-07-15T11:50:38Z</time>
            </trkpt>
            <trkpt lat="46.323510" lon="10.849480">
                <time>2017-07-15T11:50:39Z</time>
            </trkpt>
            <trkpt lat="46.323420" lon="10.849280">
                <time>2017-07-15T11:50:40Z</time>
            </trkpt>
            <trkpt lat="46.323330" lon="10.849070">
                <time>2017-07-15T11:50:41Z</time>
            </trkpt>
            <trkpt lat="46.323230" lon="10.848880">
                <time>2017-07-15T11:50:42Z</time>
            </trkpt>
            <trkpt lat="46.323130" lon="10.848700">
                <time>2017-07-15T11:50:43Z</time>
            </trkpt>
            <trkpt lat="46.323030" lon="10.848500">
                <time>2017-07-15T11:50:44Z</time>
            </trkpt>
            <trkpt lat="46.322930" lon="10.848320">
                <time>2017-07-15T11:50:45Z</time>
            </trkpt>
            <trkpt lat="46.322830" lon="10.848130">
                <time>2017-07-15T11:50:46Z</time>
            </trkpt>
            <trkpt lat="46.322730" lon="10.847940">
                <time>2017-07-15T11:50:47Z</time>
            </trkpt>
            <trkpt lat="46.322650" lon="10.847780">
                <time>2017-07-15T11:50:48Z</time>
            </trkpt>
            <trkpt lat="46.322570" lon="10.847630">
                <time>2017-07-15T11:50:49Z</time>
            </trkpt>
            <trkpt lat="46.322490" lon="10.847480">
                <time>2017-07-15T11:50:50Z</time>
            </trkpt>
            <trkpt lat="46.322430" lon="10.847350">
                <time>2017-07-15T11:50:51Z</time>
            </trkpt>
            <trkpt lat="46.322340" lon="10.847210">
                <time>2017-07-15T11:50:52Z</time>
            </trkpt>
            <trkpt lat="46.322280" lon="10.847070">
                <time>2017-07-15T11:50:53Z</time>
            </trkpt>
            <trkpt lat="46.322200" lon="10.846920">
                <time>2017-07-15T11:50:54Z</time>
            </trkpt>
            <trkpt lat="46.322110" lon="10.846760">
                <time>2017-07-15T11:50:55Z</time>
            </trkpt>
            <trkpt lat="46.322040" lon="10.846620">
                <time>2017-07-15T11:50:56Z</time>
            </trkpt>
            <trkpt lat="46.321950" lon="10.846460">
                <time>2017-07-15T11:50:57Z</time>
            </trkpt>
            <trkpt lat="46.321860" lon="10.846300">
                <time>2017-07-15T11:50:58Z</time>
            </trkpt>
            <trkpt lat="46.321790" lon="10.846150">
                <time>2017-07-15T11:50:59Z</time>
            </trkpt>
            <trkpt lat="46.321700" lon="10.845990">
                <time>2017-07-15T11:51:00Z</time>
            </trkpt>
            <trkpt lat="46.321620" lon="10.845850">
                <time>2017-07-15T11:51:01Z</time>
            </trkpt>
            <trkpt lat="46.321550" lon="10.845700">
                <time>2017-07-15T11:51:02Z</time>
            </trkpt>
            <trkpt lat="46.321460" lon="10.845530">
                <time>2017-07-15T11:51:03Z</time>
            </trkpt>
            <trkpt lat="46.321390" lon="10.845380">
                <time>2017-07-15T11:51:04Z</time>
            </trkpt>
            <trkpt lat="46.321320" lon="10.845200">
                <time>2017-07-15T11:51:05Z</time>
            </trkpt>
            <trkpt lat="46.321250" lon="10.845000">
                <time>2017-07-15T11:51:06Z</time>
            </trkpt>
            <trkpt lat="46.321180" lon="10.844820">
                <time>2017-07-15T11:51:07Z</time>
            </trkpt>
            <trkpt lat="46.321120" lon="10.844610">
                <time>2017-07-15T11:51:08Z</time>
            </trkpt>
            <trkpt lat="46.321080" lon="10.844410">
                <time>2017-07-15T11:51:09Z</time>
            </trkpt>
            <trkpt lat="46.321040" lon="10.844200">
                <time>2017-07-15T11:51:10Z</time>
            </trkpt>
            <trkpt lat="46.321000" lon="10.843960">
                <time>2017-07-15T11:51:11Z</time>
            </trkpt>
            <trkpt lat="46.320980" lon="10.843740">
                <time>2017-07-15T11:51:12Z</time>
            </trkpt>
            <trkpt lat="46.320960" lon="10.843500">
                <time>2017-07-15T11:51:13Z</time>
            </trkpt>
            <trkpt lat="46.320950" lon="10.843250">
                <time>2017-07-15T11:51:14Z</time>
            </trkpt>
            <trkpt lat="46.320940" lon="10.842990">
                <time>2017-07-15T11:51:15Z</time>
            </trkpt>
            <trkpt lat="46.320930" lon="10.842700">
                <time>2017-07-15T11:51:16Z</time>
            </trkpt>
            <trkpt lat="46.320920" lon="10.842450">
                <time>2017-07-15T11:51:17Z</time>
            </trkpt>
            <trkpt lat="46.320910" lon="10.842170">
                <time>2017-07-15T11:51:18Z</time>
            </trkpt>
            <trkpt lat="46.320900" lon="10.841860">
                <time>2017-07-15T11:51:19Z</time>
            </trkpt>
            <trkpt lat="46.320900" lon="10.841570">
                <time>2017-07-15T11:51:20Z</time>
            </trkpt>
            <trkpt lat="46.320890" lon="10.841250">
                <time>2017-07-15T11:51:21Z</time>
            </trkpt>
            <trkpt lat="46.320880" lon="10.840910">
                <time>2017-07-15T11:51:22Z</time>
            </trkpt>
            <trkpt lat="46.320860" lon="10.840610">
                <time>2017-07-15T11:51:23Z</time>
            </trkpt>
            <trkpt lat="46.320850" lon="10.840290">
                <time>2017-07-15T11:51:24Z</time>
            </trkpt>
            <trkpt lat="46.320850" lon="10.840020">
                <time>2017-07-15T11:51:25Z</time>
            </trkpt>
            <trkpt lat="46.320850" lon="10.839750">
                <time>2017-07-15T11:51:26Z</time>
            </trkpt>
            <trkpt lat="46.320860" lon="10.839490">
                <time>2017-07-15T11:51:27Z</time>
            </trkpt>
            <trkpt lat="46.320880" lon="10.839260">
                <time>2017-07-15T11:51:28Z</time>
            </trkpt>
            <trkpt lat="46.320910" lon="10.839030">
                <time>2017-07-15T11:51:29Z</time>
            </trkpt>
            <trkpt lat="46.320940" lon="10.838800">
                <time>2017-07-15T11:51:30Z</time>
            </trkpt>
            <trkpt lat="46.320970" lon="10.838570">
                <time>2017-07-15T11:51:31Z</time>
            </trkpt>
            <trkpt lat="46.321000" lon="10.838310">
                <time>2017-07-15T11:51:32Z</time>
            </trkpt>
            <trkpt lat="46.321030" lon="10.838080">
                <time>2017-07-15T11:51:33Z</time>
            </trkpt>
            <trkpt lat="46.321050" lon="10.837820">
                <time>2017-07-15T11:51:34Z</time>
            </trkpt>
            <trkpt lat="46.321060" lon="10.837550">
                <time>2017-07-15T11:51:35Z</time>
            </trkpt>
            <trkpt lat="46.321060" lon="10.837320">
                <time>2017-07-15T11:51:36Z</time>
            </trkpt>
            <trkpt lat="46.321040" lon="10.837070">
                <time>2017-07-15T11:51:37Z</time>
            </trkpt>
            <trkpt lat="46.321020" lon="10.836820">
                <time>2017-07-15T11:51:38Z</time>
            </trkpt>
            <trkpt lat="46.320980" lon="10.836610">
                <time>2017-07-15T11:51:39Z</time>
            </trkpt>
            <trkpt lat="46.320930" lon="10.836390">
                <time>2017-07-15T11:51:40Z</time>
            </trkpt>
            <trkpt lat="46.320890" lon="10.836220">
                <time>2017-07-15T11:51:41Z</time>
            </trkpt>
            <trkpt lat="46.320830" lon="10.836050">
                <time>2017-07-15T11:51:42Z</time>
            </trkpt>
            <trkpt lat="46.320780" lon="10.835900">
                <time>2017-07-15T11:51:43Z</time>
            </trkpt>
            <trkpt lat="46.320750" lon="10.835780">
                <time>2017-07-15T11:51:44Z</time>
            </trkpt>
            <trkpt lat="46.320710" lon="10.835670">
                <time>2017-07-15T11:51:45Z</time>
            </trkpt>
            <trkpt lat="46.320670" lon="10.835560">
                <time>2017-07-15T11:51:46Z</time>
            </trkpt>
            <trkpt lat="46.320640" lon="10.835450">
                <time>2017-07-15T11:51:47Z</time>
            </trkpt>
            <trkpt lat="46.320600" lon="10.835310">
                <time>2017-07-15T11:51:48Z</time>
            </trkpt>
            <trkpt lat="46.320560" lon="10.835190">
                <time>2017-07-15T11:51:49Z</time>
            </trkpt>
            <trkpt lat="46.320510" lon="10.835060">
                <time>2017-07-15T11:51:50Z</time>
            </trkpt>
            <trkpt lat="46.320460" lon="10.834910">
                <time>2017-07-15T11:51:51Z</time>
            </trkpt>
            <trkpt lat="46.320420" lon="10.834800">
                <time>2017-07-15T11:51:52Z</time>
            </trkpt>
            <trkpt lat="46.320380" lon="10.834670">
                <time>2017-07-15T11:51:53Z</time>
            </trkpt>
            <trkpt lat="46.320340" lon="10.834540">
                <time>2017-07-15T11:51:54Z</time>
            </trkpt>
            <trkpt lat="46.320300" lon="10.834420">
                <time>2017-07-15T11:51:55Z</time>
            </trkpt>
            <trkpt lat="46.320250" lon="10.834270">
                <time>2017-07-15T11:51:56Z</time>
            </trkpt>
            <trkpt lat="46.320200" lon="10.834130">
                <time>2017-07-15T11:51:57Z</time>
            </trkpt>
            <trkpt lat="46.320150" lon="10.833980">
                <time>2017-07-15T11:51:58Z</time>
            </trkpt>
            <trkpt lat="46.320100" lon="10.833820">
                <time>2017-07-15T11:51:59Z</time>
            </trkpt>
            <trkpt lat="46.320050" lon="10.833670">
                <time>2017-07-15T11:52:00Z</time>
            </trkpt>
            <trkpt lat="46.319990" lon="10.833510">
                <time>2017-07-15T11:52:01Z</time>
            </trkpt>
            <trkpt lat="46.319940" lon="10.833340">
                <time>2017-07-15T11:52:02Z</time>
            </trkpt>
            <trkpt lat="46.319880" lon="10.833180">
                <time>2017-07-15T11:52:03Z</time>
            </trkpt>
            <trkpt lat="46.319820" lon="10.833000">
                <time>2017-07-15T11:52:04Z</time>
            </trkpt>
            <trkpt lat="46.319770" lon="10.832830">
                <time>2017-07-15T11:52:05Z</time>
            </trkpt>
            <trkpt lat="46.319720" lon="10.832650">
                <time>2017-07-15T11:52:06Z</time>
            </trkpt>
            <trkpt lat="46.319670" lon="10.832450">
                <time>2017-07-15T11:52:07Z</time>
            </trkpt>
            <trkpt lat="46.319630" lon="10.832280">
                <time>2017-07-15T11:52:08Z</time>
            </trkpt>
            <trkpt lat="46.319580" lon="10.832100">
                <time>2017-07-15T11:52:09Z</time>
            </trkpt>
            <trkpt lat="46.319540" lon="10.831910">
                <time>2017-07-15T11:52:10Z</time>
            </trkpt>
            <trkpt lat="46.319510" lon="10.831740">
                <time>2017-07-15T11:52:11Z</time>
            </trkpt>
            <trkpt lat="46.319480" lon="10.831560">
                <time>2017-07-15T11:52:12Z</time>
            </trkpt>
            <trkpt lat="46.319450" lon="10.831390">
                <time>2017-07-15T11:52:13Z</time>
            </trkpt>
            <trkpt lat="46.319420" lon="10.831210">
                <time>2017-07-15T11:52:14Z</time>
            </trkpt>
            <trkpt lat="46.319390" lon="10.831010">
                <time>2017-07-15T11:52:15Z</time>
            </trkpt>
            <trkpt lat="46.319370" lon="10.830830">
                <time>2017-07-15T11:52:16Z</time>
            </trkpt>
            <trkpt lat="46.319340" lon="10.830660">
                <time>2017-07-15T11:52:17Z</time>
            </trkpt>
            <trkpt lat="46.319320" lon="10.830500">
                <time>2017-07-15T11:52:18Z</time>
            </trkpt>
            <trkpt lat="46.319310" lon="10.830380">
                <time>2017-07-15T11:52:19Z</time>
            </trkpt>
            <trkpt lat="46.319290" lon="10.830280">
                <time>2017-07-15T11:52:20Z</time>
            </trkpt>
            <trkpt lat="46.319290" lon="10.830220">
                <time>2017-07-15T11:52:21Z</time>
            </trkpt>
            <trkpt lat="46.319280" lon="10.830170">
                <time>2017-07-15T11:52:22Z</time>
            </trkpt>
            <trkpt lat="46.319280" lon="10.830120">
                <time>2017-07-15T11:52:23Z</time>
            </trkpt>
            <trkpt lat="46.319270" lon="10.830050">
                <time>2017-07-15T11:52:24Z</time>
            </trkpt>
            <trkpt lat="46.319250" lon="10.829960">
                <time>2017-07-15T11:52:25Z</time>
            </trkpt>
            <trkpt lat="46.319230" lon="10.829830">
                <time>2017-07-15T11:52:26Z</time>
            </trkpt>
            <trkpt lat="46.319210" lon="10.829700">
                <time>2017-07-15T11:52:27Z</time>
            </trkpt>
            <trkpt lat="46.319190" lon="10.829550">
                <time>2017-07-15T11:52:28Z</time>
            </trkpt>
            <trkpt lat="46.319170" lon="10.829400">
                <time>2017-07-15T11:52:29Z</time>
            </trkpt>
            <trkpt lat="46.319150" lon="10.829240">
                <time>2017-07-15T11:52:30Z</time>
            </trkpt>
            <trkpt lat="46.319120" lon="10.829050">
                <time>2017-07-15T11:52:31Z</time>
            </trkpt>
            <trkpt lat="46.319090" lon="10.828890">
                <time>2017-07-15T11:52:32Z</time>
            </trkpt>
            <trkpt lat="46.319060" lon="10.828700">
                <time>2017-07-15T11:52:33Z</time>
            </trkpt>
            <trkpt lat="46.319020" lon="10.828490">
                <time>2017-07-15T11:52:34Z</time>
            </trkpt>
            <trkpt lat="46.318990" lon="10.828280">
                <time>2017-07-15T11:52:35Z</time>
            </trkpt>
            <trkpt lat="46.318960" lon="10.828030">
                <time>2017-07-15T11:52:36Z</time>
            </trkpt>
            <trkpt lat="46.318950" lon="10.827820">
                <time>2017-07-15T11:52:37Z</time>
            </trkpt>
            <trkpt lat="46.318940" lon="10.827570">
                <time>2017-07-15T11:52:38Z</time>
            </trkpt>
            <trkpt lat="46.318950" lon="10.827300">
                <time>2017-07-15T11:52:39Z</time>
            </trkpt>
            <trkpt lat="46.318970" lon="10.827060">
                <time>2017-07-15T11:52:40Z</time>
            </trkpt>
            <trkpt lat="46.319010" lon="10.826820">
                <time>2017-07-15T11:52:41Z</time>
            </trkpt>
            <trkpt lat="46.319060" lon="10.826590">
                <time>2017-07-15T11:52:42Z</time>
            </trkpt>
            <trkpt lat="46.319110" lon="10.826400">
                <time>2017-07-15T11:52:43Z</time>
            </trkpt>
            <trkpt lat="46.319190" lon="10.826200">
                <time>2017-07-15T11:52:44Z</time>
            </trkpt>
            <trkpt lat="46.319260" lon="10.826030">
                <time>2017-07-15T11:52:45Z</time>
            </trkpt>
            <trkpt lat="46.319370" lon="10.825860">
                <time>2017-07-15T11:52:46Z</time>
            </trkpt>
            <trkpt lat="46.319480" lon="10.825670">
                <time>2017-07-15T11:52:47Z</time>
            </trkpt>
            <trkpt lat="46.319580" lon="10.825520">
                <time>2017-07-15T11:52:48Z</time>
            </trkpt>
            <trkpt lat="46.319700" lon="10.825360">
                <time>2017-07-15T11:52:49Z</time>
            </trkpt>
            <trkpt lat="46.319810" lon="10.825200">
                <time>2017-07-15T11:52:50Z</time>
            </trkpt>
            <trkpt lat="46.319910" lon="10.825040">
                <time>2017-07-15T11:52:51Z</time>
            </trkpt>
            <trkpt lat="46.320020" lon="10.824880">
                <time>2017-07-15T11:52:52Z</time>
            </trkpt>
            <trkpt lat="46.320100" lon="10.824740">
                <time>2017-07-15T11:52:53Z</time>
            </trkpt>
            <trkpt lat="46.320190" lon="10.824600">
                <time>2017-07-15T11:52:54Z</time>
            </trkpt>
            <trkpt lat="46.320260" lon="10.824450">
                <time>2017-07-15T11:52:55Z</time>
            </trkpt>
            <trkpt lat="46.320330" lon="10.824300">
                <time>2017-07-15T11:52:56Z</time>
            </trkpt>
            <trkpt lat="46.320390" lon="10.824130">
                <time>2017-07-15T11:52:57Z</time>
            </trkpt>
            <trkpt lat="46.320450" lon="10.823960">
                <time>2017-07-15T11:52:58Z</time>
            </trkpt>
            <trkpt lat="46.320500" lon="10.823800">
                <time>2017-07-15T11:52:59Z</time>
            </trkpt>
            <trkpt lat="46.320540" lon="10.823610">
                <time>2017-07-15T11:53:00Z</time>
            </trkpt>
            <trkpt lat="46.320570" lon="10.823450">
                <time>2017-07-15T11:53:01Z</time>
            </trkpt>
            <trkpt lat="46.320600" lon="10.823280">
                <time>2017-07-15T11:53:02Z</time>
            </trkpt>
            <trkpt lat="46.320620" lon="10.823120">
                <time>2017-07-15T11:53:03Z</time>
            </trkpt>
            <trkpt lat="46.320630" lon="10.822980">
                <time>2017-07-15T11:53:04Z</time>
            </trkpt>
            <trkpt lat="46.320630" lon="10.822840">
                <time>2017-07-15T11:53:05Z</time>
            </trkpt>
            <trkpt lat="46.320640" lon="10.822730">
                <time>2017-07-15T11:53:06Z</time>
            </trkpt>
            <trkpt lat="46.320640" lon="10.822640">
                <time>2017-07-15T11:53:07Z</time>
            </trkpt>
            <trkpt lat="46.320640" lon="10.822540">
                <time>2017-07-15T11:53:08Z</time>
            </trkpt>
            <trkpt lat="46.320620" lon="10.822440">
                <time>2017-07-15T11:53:09Z</time>
            </trkpt>
            <trkpt lat="46.320600" lon="10.822310">
                <time>2017-07-15T11:53:10Z</time>
            </trkpt>
            <trkpt lat="46.320580" lon="10.822160">
                <time>2017-07-15T11:53:11Z</time>
            </trkpt>
            <trkpt lat="46.320580" lon="10.822060">
                <time>2017-07-15T11:53:12Z</time>
            </trkpt>
            <trkpt lat="46.320570" lon="10.821960">
                <time>2017-07-15T11:53:13Z</time>
            </trkpt>
            <trkpt lat="46.320560" lon="10.821870">
                <time>2017-07-15T11:53:14Z</time>
            </trkpt>
            <trkpt lat="46.320550" lon="10.821820">
                <time>2017-07-15T11:53:15Z</time>
            </trkpt>
            <trkpt lat="46.320540" lon="10.821780">
                <time>2017-07-15T11:53:16Z</time>
            </trkpt>
            <trkpt lat="46.320530" lon="10.821770">
                <time>2017-07-15T11:53:17Z</time>
            </trkpt>
            <trkpt lat="46.320530" lon="10.821760">
                <time>2017-07-15T11:53:18Z</time>
            </trkpt>
            <trkpt lat="46.320530" lon="10.821770">
                <time>2017-07-15T11:53:19Z</time>
            </trkpt>
            <trkpt lat="46.320530" lon="10.821770">
                <time>2017-07-15T11:53:20Z</time>
            </trkpt>
            <trkpt lat="46.320530" lon="10.821770">
                <time>2017-07-15T11:53:21Z</time>
            </trkpt>
            <trkpt lat="46.320530" lon="10.821770">
                <time>2017-07-15T11:53:22Z</time>
            </trkpt>
            <trkpt lat="46.320530" lon="10.821770">
                <time>2017-07-15T11:53:23Z</time>
            </trkpt>
            <trkpt lat="46.320530" lon="10.821770">
                <time>2017-07-15T11:53:24Z</time>
            </trkpt>
            <trkpt lat="46.320530" lon="10.821770">
                <time>2017-07-15T11:53:25Z</time>
            </trkpt>
            <trkpt lat="46.320530" lon="10.821770">
                <time>2017-07-15T11:53:26Z</time>
            </trkpt>
            <trkpt lat="46.320530" lon="10.821770">
                <time>2017-07-15T11:53:27Z</time>
            </trkpt>
            <trkpt lat="46.320530" lon="10.821770">
                <time>2017-07-15T11:53:28Z</time>
            </trkpt>
            <trkpt lat="46.320530" lon="10.821770">
                <time>2017-07-15T11:53:29Z</time>
            </trkpt>
            <trkpt lat="46.320530" lon="10.821770">
                <time>2017-07-15T11:53:30Z</time>
            </trkpt>
            <trkpt lat="46.320530" lon="10.821770">
                <time>2017-07-15T11:53:31Z</time>
            </trkpt>
            <trkpt lat="46.320530" lon="10.821770">
                <time>2017-07-15T11:53:32Z</time>
            </trkpt>
            <trkpt lat="46.320530" lon="10.821770">
                <time>2017-07-15T11:53:33Z</time>
            </trkpt>
            <trkpt lat="46.320530" lon="10.821770">
                <time>2017-07-15T11:53:34Z</time>
            </trkpt>
            <trkpt lat="46.320530" lon="10.821770">
                <time>2017-07-15T11:53:35Z</time>
            </trkpt>
            <trkpt lat="46.320530" lon="10.821770">
                <time>2017-07-15T11:53:36Z</time>
            </trkpt>
            <trkpt lat="46.320530" lon="10.821770">
                <time>2017-07-15T11:53:37Z</time>
            </trkpt>
            <trkpt lat="46.320530" lon="10.821770">
                <time>2017-07-15T11:53:38Z</time>
            </trkpt>
            <trkpt lat="46.320530" lon="10.821770">
                <time>2017-07-15T11:53:39Z</time>
            </trkpt>
            <trkpt lat="46.320530" lon="10.821770">
                <time>2017-07-15T11:53:40Z</time>
            </trkpt>
            <trkpt lat="46.320530" lon="10.821770">
                <time>2017-07-15T11:53:41Z</time>
            </trkpt>
            <trkpt lat="46.320530" lon="10.821770">
                <time>2017-07-15T11:53:42Z</time>
            </trkpt>
            <trkpt lat="46.320530" lon="10.821770">
                <time>2017-07-15T11:53:43Z</time>
            </trkpt>
            <trkpt lat="46.320530" lon="10.821770">
                <time>2017-07-15T11:53:44Z</time>
            </trkpt>
            <trkpt lat="46.320530" lon="10.821770">
                <time>2017-07-15T11:53:45Z</time>
            </trkpt>
            <trkpt lat="46.320530" lon="10.821770">
                <time>2017-07-15T11:53:46Z</time>
            </trkpt>
            <trkpt lat="46.320530" lon="10.821770">
                <time>2017-07-15T11:53:47Z</time>
            </trkpt>
            <trkpt lat="46.320530" lon="10.821770">
                <time>2017-07-15T11:53:48Z</time>
            </trkpt>
            <trkpt lat="46.320530" lon="10.821770">
                <time>2017-07-15T11:53:49Z</time>
            </trkpt>
            <trkpt lat="46.320530" lon="10.821770">
                <time>2017-07-15T11:53:50Z</time>
            </trkpt>
            <trkpt lat="46.320530" lon="10.821770">
                <time>2017-07-15T11:53:51Z</time>
            </trkpt>
            <trkpt lat="46.320530" lon="10.821770">
                <time>2017-07-15T11:53:52Z</time>
            </trkpt>
            <trkpt lat="46.320530" lon="10.821770">
                <time>2017-07-15T11:53:53Z</time>
            </trkpt>
            <trkpt lat="46.320530" lon="10.821770">
                <time>2017-07-15T11:53:54Z</time>
            </trkpt>
            <trkpt lat="46.320530" lon="10.821770">
                <time>2017-07-15T11:53:55Z</time>
            </trkpt>
            <trkpt lat="46.320530" lon="10.821770">
                <time>2017-07-15T11:53:56Z</time>
            </trkpt>
            <trkpt lat="46.320530" lon="10.821770">
                <time>2017-07-15T11:53:57Z</time>
            </trkpt>
            <trkpt lat="46.320530" lon="10.821770">
                <time>2017-07-15T11:53:58Z</time>
            </trkpt>
            <trkpt lat="46.320530" lon="10.821770">
                <time>2017-07-15T11:53:59Z</time>
            </trkpt>
            <trkpt lat="46.320530" lon="10.821770">
                <time>2017-07-15T11:54:00Z</time>
            </trkpt>
            <trkpt lat="46.320530" lon="10.821760">
                <time>2017-07-15T11:54:01Z</time>
            </trkpt>
            <trkpt lat="46.320510" lon="10.821720">
                <time>2017-07-15T11:54:02Z</time>
            </trkpt>
            <trkpt lat="46.320490" lon="10.821670">
                <time>2017-07-15T11:54:03Z</time>
            </trkpt>
            <trkpt lat="46.320470" lon="10.821580">
                <time>2017-07-15T11:54:04Z</time>
            </trkpt>
            <trkpt lat="46.320450" lon="10.821480">
                <time>2017-07-15T11:54:05Z</time>
            </trkpt>
            <trkpt lat="46.320420" lon="10.821350">
                <time>2017-07-15T11:54:06Z</time>
            </trkpt>
            <trkpt lat="46.320390" lon="10.821210">
                <time>2017-07-15T11:54:07Z</time>
            </trkpt>
            <trkpt lat="46.320360" lon="10.821080">
                <time>2017-07-15T11:54:08Z</time>
            </trkpt>
            <trkpt lat="46.320330" lon="10.820940">
                <time>2017-07-15T11:54:09Z</time>
            </trkpt>
            <trkpt lat="46.320290" lon="10.820780">
                <time>2017-07-15T11:54:10Z</time>
            </trkpt>
            <trkpt lat="46.320260" lon="10.820620">
                <time>2017-07-15T11:54:11Z</time>
            </trkpt>
            <trkpt lat="46.320220" lon="10.820440">
                <time>2017-07-15T11:54:12Z</time>
            </trkpt>
            <trkpt lat="46.320180" lon="10.820260">
                <time>2017-07-15T11:54:13Z</time>
            </trkpt>
            <trkpt lat="46.320140" lon="10.820070">
                <time>2017-07-15T11:54:14Z</time>
            </trkpt>
            <trkpt lat="46.320100" lon="10.819870">
                <time>2017-07-15T11:54:15Z</time>
            </trkpt>
            <trkpt lat="46.320060" lon="10.819690">
                <time>2017-07-15T11:54:16Z</time>
            </trkpt>
            <trkpt lat="46.320020" lon="10.819490">
                <time>2017-07-15T11:54:17Z</time>
            </trkpt>
            <trkpt lat="46.319990" lon="10.819270">
                <time>2017-07-15T11:54:18Z</time>
            </trkpt>
            <trkpt lat="46.319970" lon="10.819100">
                <time>2017-07-15T11:54:19Z</time>
            </trkpt>
            <trkpt lat="46.319950" lon="10.818900">
                <time>2017-07-15T11:54:20Z</time>
            </trkpt>
            <trkpt lat="46.319940" lon="10.818710">
                <time>2017-07-15T11:54:21Z</time>
            </trkpt>
            <trkpt lat="46.319910" lon="10.818510">
                <time>2017-07-15T11:54:22Z</time>
            </trkpt>
            <trkpt lat="46.319870" lon="10.818280">
                <time>2017-07-15T11:54:23Z</time>
            </trkpt>
            <trkpt lat="46.319820" lon="10.818080">
                <time>2017-07-15T11:54:24Z</time>
            </trkpt>
            <trkpt lat="46.319780" lon="10.817880">
                <time>2017-07-15T11:54:25Z</time>
            </trkpt>
            <trkpt lat="46.319750" lon="10.817690">
                <time>2017-07-15T11:54:26Z</time>
            </trkpt>
            <trkpt lat="46.319750" lon="10.817480">
                <time>2017-07-15T11:54:27Z</time>
            </trkpt>
            <trkpt lat="46.319770" lon="10.817250">
                <time>2017-07-15T11:54:28Z</time>
            </trkpt>
            <trkpt lat="46.319770" lon="10.817030">
                <time>2017-07-15T11:54:29Z</time>
            </trkpt>
            <trkpt lat="46.319780" lon="10.816810">
                <time>2017-07-15T11:54:30Z</time>
            </trkpt>
            <trkpt lat="46.319780" lon="10.816570">
                <time>2017-07-15T11:54:31Z</time>
            </trkpt>
            <trkpt lat="46.319770" lon="10.816350">
                <time>2017-07-15T11:54:32Z</time>
            </trkpt>
            <trkpt lat="46.319770" lon="10.816110">
                <time>2017-07-15T11:54:33Z</time>
            </trkpt>
            <trkpt lat="46.319770" lon="10.815840">
                <time>2017-07-15T11:54:34Z</time>
            </trkpt>
            <trkpt lat="46.319770" lon="10.815620">
                <time>2017-07-15T11:54:35Z</time>
            </trkpt>
            <trkpt lat="46.319750" lon="10.815370">
                <time>2017-07-15T11:54:36Z</time>
            </trkpt>
            <trkpt lat="46.319710" lon="10.815160">
                <time>2017-07-15T11:54:37Z</time>
            </trkpt>
            <trkpt lat="46.319650" lon="10.814920">
                <time>2017-07-15T11:54:38Z</time>
            </trkpt>
            <trkpt lat="46.319550" lon="10.814650">
                <time>2017-07-15T11:54:39Z</time>
            </trkpt>
            <trkpt lat="46.319460" lon="10.814410">
                <time>2017-07-15T11:54:40Z</time>
            </trkpt>
            <trkpt lat="46.319360" lon="10.814180">
                <time>2017-07-15T11:54:41Z</time>
            </trkpt>
            <trkpt lat="46.319270" lon="10.813980">
                <time>2017-07-15T11:54:42Z</time>
            </trkpt>
            <trkpt lat="46.319210" lon="10.813790">
                <time>2017-07-15T11:54:43Z</time>
            </trkpt>
            <trkpt lat="46.319180" lon="10.813600">
                <time>2017-07-15T11:54:44Z</time>
            </trkpt>
            <trkpt lat="46.319170" lon="10.813410">
                <time>2017-07-15T11:54:45Z</time>
            </trkpt>
            <trkpt lat="46.319170" lon="10.813190">
                <time>2017-07-15T11:54:46Z</time>
            </trkpt>
            <trkpt lat="46.319150" lon="10.812930">
                <time>2017-07-15T11:54:47Z</time>
            </trkpt>
            <trkpt lat="46.319130" lon="10.812700">
                <time>2017-07-15T11:54:48Z</time>
            </trkpt>
            <trkpt lat="46.319100" lon="10.812450">
                <time>2017-07-15T11:54:49Z</time>
            </trkpt>
            <trkpt lat="46.319060" lon="10.812180">
                <time>2017-07-15T11:54:50Z</time>
            </trkpt>
            <trkpt lat="46.319030" lon="10.811960">
                <time>2017-07-15T11:54:51Z</time>
            </trkpt>
            <trkpt lat="46.318990" lon="10.811700">
                <time>2017-07-15T11:54:52Z</time>
            </trkpt>
            <trkpt lat="46.318930" lon="10.811500">
                <time>2017-07-15T11:54:53Z</time>
            </trkpt>
            <trkpt lat="46.318840" lon="10.811300">
                <time>2017-07-15T11:54:54Z</time>
            </trkpt>
            <trkpt lat="46.318730" lon="10.811070">
                <time>2017-07-15T11:54:55Z</time>
            </trkpt>
            <trkpt lat="46.318640" lon="10.810870">
                <time>2017-07-15T11:54:56Z</time>
            </trkpt>
            <trkpt lat="46.318560" lon="10.810640">
                <time>2017-07-15T11:54:57Z</time>
            </trkpt>
            <trkpt lat="46.318490" lon="10.810420">
                <time>2017-07-15T11:54:58Z</time>
            </trkpt>
            <trkpt lat="46.318430" lon="10.810200">
                <time>2017-07-15T11:54:59Z</time>
            </trkpt>
            <trkpt lat="46.318390" lon="10.809990">
                <time>2017-07-15T11:55:00Z</time>
            </trkpt>
            <trkpt lat="46.318360" lon="10.809820">
                <time>2017-07-15T11:55:01Z</time>
            </trkpt>
            <trkpt lat="46.318340" lon="10.809670">
                <time>2017-07-15T11:55:02Z</time>
            </trkpt>
            <trkpt lat="46.318330" lon="10.809540">
                <time>2017-07-15T11:55:03Z</time>
            </trkpt>
            <trkpt lat="46.318320" lon="10.809440">
                <time>2017-07-15T11:55:04Z</time>
            </trkpt>
            <trkpt lat="46.318310" lon="10.809340">
                <time>2017-07-15T11:55:05Z</time>
            </trkpt>
            <trkpt lat="46.318310" lon="10.809250">
                <time>2017-07-15T11:55:06Z</time>
            </trkpt>
            <trkpt lat="46.318310" lon="10.809160">
                <time>2017-07-15T11:55:07Z</time>
            </trkpt>
            <trkpt lat="46.318290" lon="10.809050">
                <time>2017-07-15T11:55:08Z</time>
            </trkpt>
            <trkpt lat="46.318250" lon="10.808960">
                <time>2017-07-15T11:55:09Z</time>
            </trkpt>
            <trkpt lat="46.318200" lon="10.808870">
                <time>2017-07-15T11:55:10Z</time>
            </trkpt>
            <trkpt lat="46.318140" lon="10.808740">
                <time>2017-07-15T11:55:11Z</time>
            </trkpt>
            <trkpt lat="46.318090" lon="10.808610">
                <time>2017-07-15T11:55:12Z</time>
            </trkpt>
            <trkpt lat="46.318040" lon="10.808460">
                <time>2017-07-15T11:55:13Z</time>
            </trkpt>
            <trkpt lat="46.317980" lon="10.808300">
                <time>2017-07-15T11:55:14Z</time>
            </trkpt>
            <trkpt lat="46.317920" lon="10.808140">
                <time>2017-07-15T11:55:15Z</time>
            </trkpt>
            <trkpt lat="46.317860" lon="10.807970">
                <time>2017-07-15T11:55:16Z</time>
            </trkpt>
            <trkpt lat="46.317800" lon="10.807820">
                <time>2017-07-15T11:55:17Z</time>
            </trkpt>
            <trkpt lat="46.317720" lon="10.807660">
                <time>2017-07-15T11:55:18Z</time>
            </trkpt>
            <trkpt lat="46.317640" lon="10.807500">
                <time>2017-07-15T11:55:19Z</time>
            </trkpt>
            <trkpt lat="46.317570" lon="10.807360">
                <time>2017-07-15T11:55:20Z</time>
            </trkpt>
            <trkpt lat="46.317490" lon="10.807200">
                <time>2017-07-15T11:55:21Z</time>
            </trkpt>
            <trkpt lat="46.317400" lon="10.807040">
                <time>2017-07-15T11:55:22Z</time>
            </trkpt>
            <trkpt lat="46.317320" lon="10.806900">
                <time>2017-07-15T11:55:23Z</time>
            </trkpt>
            <trkpt lat="46.317220" lon="10.806750">
                <time>2017-07-15T11:55:24Z</time>
            </trkpt>
            <trkpt lat="46.317140" lon="10.806620">
                <time>2017-07-15T11:55:25Z</time>
            </trkpt>
            <trkpt lat="46.317060" lon="10.806480">
                <time>2017-07-15T11:55:26Z</time>
            </trkpt>
            <trkpt lat="46.316980" lon="10.806340">
                <time>2017-07-15T11:55:27Z</time>
            </trkpt>
            <trkpt lat="46.316910" lon="10.806230">
                <time>2017-07-15T11:55:28Z</time>
            </trkpt>
            <trkpt lat="46.316840" lon="10.806110">
                <time>2017-07-15T11:55:29Z</time>
            </trkpt>
            <trkpt lat="46.316770" lon="10.806000">
                <time>2017-07-15T11:55:30Z</time>
            </trkpt>
            <trkpt lat="46.316700" lon="10.805910">
                <time>2017-07-15T11:55:31Z</time>
            </trkpt>
            <trkpt lat="46.316640" lon="10.805800">
                <time>2017-07-15T11:55:32Z</time>
            </trkpt>
            <trkpt lat="46.316570" lon="10.805700">
                <time>2017-07-15T11:55:33Z</time>
            </trkpt>
            <trkpt lat="46.316500" lon="10.805590">
                <time>2017-07-15T11:55:34Z</time>
            </trkpt>
            <trkpt lat="46.316430" lon="10.805460">
                <time>2017-07-15T11:55:35Z</time>
            </trkpt>
            <trkpt lat="46.316360" lon="10.805340">
                <time>2017-07-15T11:55:36Z</time>
            </trkpt>
            <trkpt lat="46.316300" lon="10.805220">
                <time>2017-07-15T11:55:37Z</time>
            </trkpt>
            <trkpt lat="46.316240" lon="10.805090">
                <time>2017-07-15T11:55:38Z</time>
            </trkpt>
            <trkpt lat="46.316180" lon="10.804970">
                <time>2017-07-15T11:55:39Z</time>
            </trkpt>
            <trkpt lat="46.316130" lon="10.804830">
                <time>2017-07-15T11:55:40Z</time>
            </trkpt>
            <trkpt lat="46.316100" lon="10.804700">
                <time>2017-07-15T11:55:41Z</time>
            </trkpt>
            <trkpt lat="46.316050" lon="10.804550">
                <time>2017-07-15T11:55:42Z</time>
            </trkpt>
            <trkpt lat="46.316010" lon="10.804390">
                <time>2017-07-15T11:55:43Z</time>
            </trkpt>
            <trkpt lat="46.315980" lon="10.804270">
                <time>2017-07-15T11:55:44Z</time>
            </trkpt>
            <trkpt lat="46.315950" lon="10.804140">
                <time>2017-07-15T11:55:45Z</time>
            </trkpt>
            <trkpt lat="46.315920" lon="10.804010">
                <time>2017-07-15T11:55:46Z</time>
            </trkpt>
            <trkpt lat="46.315900" lon="10.803910">
                <time>2017-07-15T11:55:47Z</time>
            </trkpt>
            <trkpt lat="46.315880" lon="10.803810">
                <time>2017-07-15T11:55:48Z</time>
            </trkpt>
            <trkpt lat="46.315880" lon="10.803740">
                <time>2017-07-15T11:55:49Z</time>
            </trkpt>
            <trkpt lat="46.315870" lon="10.803660">
                <time>2017-07-15T11:55:50Z</time>
            </trkpt>
            <trkpt lat="46.315850" lon="10.803570">
                <time>2017-07-15T11:55:51Z</time>
            </trkpt>
            <trkpt lat="46.315840" lon="10.803520">
                <time>2017-07-15T11:55:52Z</time>
            </trkpt>
            <trkpt lat="46.315810" lon="10.803500">
                <time>2017-07-15T11:55:53Z</time>
            </trkpt>
            <trkpt lat="46.315780" lon="10.803490">
                <time>2017-07-15T11:55:54Z</time>
            </trkpt>
            <trkpt lat="46.315770" lon="10.803500">
                <time>2017-07-15T11:55:55Z</time>
            </trkpt>
            <trkpt lat="46.315760" lon="10.803510">
                <time>2017-07-15T11:55:56Z</time>
            </trkpt>
            <trkpt lat="46.315760" lon="10.803510">
                <time>2017-07-15T11:55:57Z</time>
            </trkpt>
            <trkpt lat="46.315760" lon="10.803510">
                <time>2017-07-15T11:55:58Z</time>
            </trkpt>
            <trkpt lat="46.315760" lon="10.803510">
                <time>2017-07-15T11:55:59Z</time>
            </trkpt>
            <trkpt lat="46.315760" lon="10.803510">
                <time>2017-07-15T11:56:01Z</time>
            </trkpt>
            <trkpt lat="46.315760" lon="10.803510">
                <time>2017-07-15T11:56:02Z</time>
            </trkpt>
            <trkpt lat="46.315760" lon="10.803510">
                <time>2017-07-15T11:56:03Z</time>
            </trkpt>
            <trkpt lat="46.315760" lon="10.803510">
                <time>2017-07-15T11:56:04Z</time>
            </trkpt>
            <trkpt lat="46.315760" lon="10.803510">
                <time>2017-07-15T11:56:05Z</time>
            </trkpt>
            <trkpt lat="46.315760" lon="10.803510">
                <time>2017-07-15T11:56:06Z</time>
            </trkpt>
            <trkpt lat="46.315760" lon="10.803510">
                <time>2017-07-15T11:56:07Z</time>
            </trkpt>
            <trkpt lat="46.315760" lon="10.803510">
                <time>2017-07-15T11:56:08Z</time>
            </trkpt>
            <trkpt lat="46.315760" lon="10.803510">
                <time>2017-07-15T11:56:09Z</time>
            </trkpt>
            <trkpt lat="46.315760" lon="10.803510">
                <time>2017-07-15T11:56:10Z</time>
            </trkpt>
            <trkpt lat="46.315760" lon="10.803510">
                <time>2017-07-15T11:56:11Z</time>
            </trkpt>
            <trkpt lat="46.315760" lon="10.803510">
                <time>2017-07-15T11:56:12Z</time>
            </trkpt>
            <trkpt lat="46.315760" lon="10.803510">
                <time>2017-07-15T11:56:13Z</time>
            </trkpt>
            <trkpt lat="46.315760" lon="10.803510">
                <time>2017-07-15T11:56:14Z</time>
            </trkpt>
            <trkpt lat="46.315760" lon="10.803510">
                <time>2017-07-15T11:56:15Z</time>
            </trkpt>
            <trkpt lat="46.315760" lon="10.803420">
                <time>2017-07-15T12:07:50Z</time>
            </trkpt>
            <trkpt lat="46.315840" lon="10.803430">
                <time>2017-07-15T12:07:51Z</time>
            </trkpt>
            <trkpt lat="46.315710" lon="10.803390">
                <time>2017-07-15T12:07:52Z</time>
            </trkpt>
            <trkpt lat="46.315810" lon="10.803460">
                <time>2017-07-15T12:07:53Z</time>
            </trkpt>
            <trkpt lat="46.315860" lon="10.803430">
                <time>2017-07-15T12:07:54Z</time>
            </trkpt>
            <trkpt lat="46.315810" lon="10.803480">
                <time>2017-07-15T12:07:56Z</time>
            </trkpt>
            <trkpt lat="46.315810" lon="10.803480">
                <time>2017-07-15T12:07:57Z</time>
            </trkpt>
            <trkpt lat="46.315810" lon="10.803480">
                <time>2017-07-15T12:07:58Z</time>
            </trkpt>
            <trkpt lat="46.315810" lon="10.803480">
                <time>2017-07-15T12:07:59Z</time>
            </trkpt>
            <trkpt lat="46.315810" lon="10.803480">
                <time>2017-07-15T12:08:00Z</time>
            </trkpt>
            <trkpt lat="46.315810" lon="10.803480">
                <time>2017-07-15T12:08:01Z</time>
            </trkpt>
            <trkpt lat="46.315810" lon="10.803480">
                <time>2017-07-15T12:08:02Z</time>
            </trkpt>
            <trkpt lat="46.315810" lon="10.803480">
                <time>2017-07-15T12:08:03Z</time>
            </trkpt>
            <trkpt lat="46.315810" lon="10.803480">
                <time>2017-07-15T12:08:04Z</time>
            </trkpt>
            <trkpt lat="46.315810" lon="10.803480">
                <time>2017-07-15T12:08:05Z</time>
            </trkpt>
            <trkpt lat="46.315810" lon="10.803480">
                <time>2017-07-15T12:08:06Z</time>
            </trkpt>
            <trkpt lat="46.315810" lon="10.803480">
                <time>2017-07-15T12:08:07Z</time>
            </trkpt>
            <trkpt lat="46.315810" lon="10.803480">
                <time>2017-07-15T12:08:08Z</time>
            </trkpt>
            <trkpt lat="46.315810" lon="10.803480">
                <time>2017-07-15T12:08:09Z</time>
            </trkpt>
            <trkpt lat="46.315810" lon="10.803480">
                <time>2017-07-15T12:08:10Z</time>
            </trkpt>
            <trkpt lat="46.315810" lon="10.803480">
                <time>2017-07-15T12:08:11Z</time>
            </trkpt>
            <trkpt lat="46.315810" lon="10.803480">
                <time>2017-07-15T12:08:12Z</time>
            </trkpt>
            <trkpt lat="46.315810" lon="10.803480">
                <time>2017-07-15T12:08:13Z</time>
            </trkpt>
            <trkpt lat="46.315810" lon="10.803480">
                <time>2017-07-15T12:08:14Z</time>
            </trkpt>
            <trkpt lat="46.315810" lon="10.803480">
                <time>2017-07-15T12:08:15Z</time>
            </trkpt>
            <trkpt lat="46.315810" lon="10.803480">
                <time>2017-07-15T12:08:16Z</time>
            </trkpt>
            <trkpt lat="46.315810" lon="10.803480">
                <time>2017-07-15T12:08:17Z</time>
            </trkpt>
            <trkpt lat="46.315810" lon="10.803480">
                <time>2017-07-15T12:08:18Z</time>
            </trkpt>
            <trkpt lat="46.315810" lon="10.803480">
                <time>2017-07-15T12:08:19Z</time>
            </trkpt>
            <trkpt lat="46.315810" lon="10.803480">
                <time>2017-07-15T12:08:20Z</time>
            </trkpt>
            <trkpt lat="46.315810" lon="10.803480">
                <time>2017-07-15T12:08:21Z</time>
            </trkpt>
            <trkpt lat="46.315810" lon="10.803480">
                <time>2017-07-15T12:08:22Z</time>
            </trkpt>
            <trkpt lat="46.315810" lon="10.803480">
                <time>2017-07-15T12:08:23Z</time>
            </trkpt>
            <trkpt lat="46.315810" lon="10.803480">
                <time>2017-07-15T12:08:24Z</time>
            </trkpt>
            <trkpt lat="46.315810" lon="10.803480">
                <time>2017-07-15T12:08:25Z</time>
            </trkpt>
            <trkpt lat="46.315810" lon="10.803480">
                <time>2017-07-15T12:08:26Z</time>
            </trkpt>
            <trkpt lat="46.315810" lon="10.803480">
                <time>2017-07-15T12:08:27Z</time>
            </trkpt>
            <trkpt lat="46.315810" lon="10.803480">
                <time>2017-07-15T12:08:28Z</time>
            </trkpt>
            <trkpt lat="46.315810" lon="10.803480">
                <time>2017-07-15T12:08:29Z</time>
            </trkpt>
            <trkpt lat="46.315810" lon="10.803480">
                <time>2017-07-15T12:08:30Z</time>
            </trkpt>
            <trkpt lat="46.315810" lon="10.803480">
                <time>2017-07-15T12:08:31Z</time>
            </trkpt>
            <trkpt lat="46.315810" lon="10.803480">
                <time>2017-07-15T12:08:32Z</time>
            </trkpt>
            <trkpt lat="46.315810" lon="10.803480">
                <time>2017-07-15T12:08:33Z</time>
            </trkpt>
            <trkpt lat="46.315810" lon="10.803480">
                <time>2017-07-15T12:08:34Z</time>
            </trkpt>
            <trkpt lat="46.315810" lon="10.803480">
                <time>2017-07-15T12:08:35Z</time>
            </trkpt>
            <trkpt lat="46.315810" lon="10.803480">
                <time>2017-07-15T12:08:36Z</time>
            </trkpt>
            <trkpt lat="46.315810" lon="10.803480">
                <time>2017-07-15T12:08:37Z</time>
            </trkpt>
            <trkpt lat="46.315810" lon="10.803480">
                <time>2017-07-15T12:08:38Z</time>
            </trkpt>
            <trkpt lat="46.315810" lon="10.803480">
                <time>2017-07-15T12:08:39Z</time>
            </trkpt>
            <trkpt lat="46.315810" lon="10.803480">
                <time>2017-07-15T12:08:40Z</time>
            </trkpt>
            <trkpt lat="46.315810" lon="10.803480">
                <time>2017-07-15T12:08:41Z</time>
            </trkpt>
            <trkpt lat="46.315810" lon="10.803480">
                <time>2017-07-15T12:08:42Z</time>
            </trkpt>
            <trkpt lat="46.315810" lon="10.803480">
                <time>2017-07-15T12:08:43Z</time>
            </trkpt>
            <trkpt lat="46.315810" lon="10.803480">
                <time>2017-07-15T12:08:44Z</time>
            </trkpt>
            <trkpt lat="46.315810" lon="10.803480">
                <time>2017-07-15T12:08:45Z</time>
            </trkpt>
            <trkpt lat="46.315810" lon="10.803480">
                <time>2017-07-15T12:08:46Z</time>
            </trkpt>
            <trkpt lat="46.315810" lon="10.803480">
                <time>2017-07-15T12:08:47Z</time>
            </trkpt>
            <trkpt lat="46.315810" lon="10.803480">
                <time>2017-07-15T12:08:48Z</time>
            </trkpt>
            <trkpt lat="46.315810" lon="10.803480">
                <time>2017-07-15T12:08:49Z</time>
            </trkpt>
            <trkpt lat="46.315810" lon="10.803480">
                <time>2017-07-15T12:08:50Z</time>
            </trkpt>
            <trkpt lat="46.315810" lon="10.803480">
                <time>2017-07-15T12:08:51Z</time>
            </trkpt>
            <trkpt lat="46.315810" lon="10.803480">
                <time>2017-07-15T12:08:52Z</time>
            </trkpt>
            <trkpt lat="46.315810" lon="10.803480">
                <time>2017-07-15T12:08:53Z</time>
            </trkpt>
            <trkpt lat="46.315810" lon="10.803480">
                <time>2017-07-15T12:08:54Z</time>
            </trkpt>
            <trkpt lat="46.315810" lon="10.803480">
                <time>2017-07-15T12:08:55Z</time>
            </trkpt>
            <trkpt lat="46.315810" lon="10.803480">
                <time>2017-07-15T12:08:56Z</time>
            </trkpt>
            <trkpt lat="46.315810" lon="10.803480">
                <time>2017-07-15T12:08:57Z</time>
            </trkpt>
            <trkpt lat="46.315810" lon="10.803480">
                <time>2017-07-15T12:08:58Z</time>
            </trkpt>
            <trkpt lat="46.315810" lon="10.803480">
                <time>2017-07-15T12:08:59Z</time>
            </trkpt>
            <trkpt lat="46.315810" lon="10.803480">
                <time>2017-07-15T12:09:00Z</time>
            </trkpt>
            <trkpt lat="46.315810" lon="10.803480">
                <time>2017-07-15T12:09:01Z</time>
            </trkpt>
            <trkpt lat="46.315810" lon="10.803480">
                <time>2017-07-15T12:09:02Z</time>
            </trkpt>
            <trkpt lat="46.315810" lon="10.803480">
                <time>2017-07-15T12:09:03Z</time>
            </trkpt>
            <trkpt lat="46.315810" lon="10.803480">
                <time>2017-07-15T12:09:04Z</time>
            </trkpt>
            <trkpt lat="46.315810" lon="10.803480">
                <time>2017-07-15T12:09:05Z</time>
            </trkpt>
            <trkpt lat="46.315810" lon="10.803480">
                <time>2017-07-15T12:09:06Z</time>
            </trkpt>
            <trkpt lat="46.315810" lon="10.803480">
                <time>2017-07-15T12:09:07Z</time>
            </trkpt>
            <trkpt lat="46.315810" lon="10.803480">
                <time>2017-07-15T12:09:08Z</time>
            </trkpt>
            <trkpt lat="46.315810" lon="10.803480">
                <time>2017-07-15T12:09:09Z</time>
            </trkpt>
            <trkpt lat="46.315810" lon="10.803480">
                <time>2017-07-15T12:09:10Z</time>
            </trkpt>
            <trkpt lat="46.315810" lon="10.803480">
                <time>2017-07-15T12:09:11Z</time>
            </trkpt>
            <trkpt lat="46.315810" lon="10.803480">
                <time>2017-07-15T12:09:12Z</time>
            </trkpt>
            <trkpt lat="46.315810" lon="10.803480">
                <time>2017-07-15T12:09:13Z</time>
            </trkpt>
            <trkpt lat="46.315810" lon="10.803480">
                <time>2017-07-15T12:09:14Z</time>
            </trkpt>
            <trkpt lat="46.315810" lon="10.803480">
                <time>2017-07-15T12:09:15Z</time>
            </trkpt>
            <trkpt lat="46.315810" lon="10.803480">
                <time>2017-07-15T12:09:16Z</time>
            </trkpt>
            <trkpt lat="46.315810" lon="10.803480">
                <time>2017-07-15T12:09:17Z</time>
            </trkpt>
            <trkpt lat="46.315810" lon="10.803480">
                <time>2017-07-15T12:09:18Z</time>
            </trkpt>
            <trkpt lat="46.315810" lon="10.803480">
                <time>2017-07-15T12:09:19Z</time>
            </trkpt>
            <trkpt lat="46.315810" lon="10.803480">
                <time>2017-07-15T12:09:20Z</time>
            </trkpt>
            <trkpt lat="46.315810" lon="10.803480">
                <time>2017-07-15T12:09:21Z</time>
            </trkpt>
            <trkpt lat="46.315810" lon="10.803480">
                <time>2017-07-15T12:09:22Z</time>
            </trkpt>
            <trkpt lat="46.315810" lon="10.803480">
                <time>2017-07-15T12:09:23Z</time>
            </trkpt>
            <trkpt lat="46.315810" lon="10.803480">
                <time>2017-07-15T12:09:24Z</time>
            </trkpt>
            <trkpt lat="46.315810" lon="10.803480">
                <time>2017-07-15T12:09:25Z</time>
            </trkpt>
            <trkpt lat="46.315810" lon="10.803480">
                <time>2017-07-15T12:09:26Z</time>
            </trkpt>
            <trkpt lat="46.315810" lon="10.803480">
                <time>2017-07-15T12:09:27Z</time>
            </trkpt>
            <trkpt lat="46.315810" lon="10.803480">
                <time>2017-07-15T12:09:28Z</time>
            </trkpt>
            <trkpt lat="46.315810" lon="10.803480">
                <time>2017-07-15T12:09:29Z</time>
            </trkpt>
            <trkpt lat="46.315810" lon="10.803480">
                <time>2017-07-15T12:09:30Z</time>
            </trkpt>
            <trkpt lat="46.315810" lon="10.803480">
                <time>2017-07-15T12:09:31Z</time>
            </trkpt>
            <trkpt lat="46.315810" lon="10.803480">
                <time>2017-07-15T12:09:32Z</time>
            </trkpt>
            <trkpt lat="46.315810" lon="10.803480">
                <time>2017-07-15T12:09:33Z</time>
            </trkpt>
            <trkpt lat="46.315810" lon="10.803480">
                <time>2017-07-15T12:09:34Z</time>
            </trkpt>
            <trkpt lat="46.315810" lon="10.803480">
                <time>2017-07-15T12:09:35Z</time>
            </trkpt>
            <trkpt lat="46.315810" lon="10.803480">
                <time>2017-07-15T12:09:36Z</time>
            </trkpt>
            <trkpt lat="46.315810" lon="10.803480">
                <time>2017-07-15T12:09:37Z</time>
            </trkpt>
            <trkpt lat="46.315810" lon="10.803480">
                <time>2017-07-15T12:09:38Z</time>
            </trkpt>
            <trkpt lat="46.315810" lon="10.803480">
                <time>2017-07-15T12:09:39Z</time>
            </trkpt>
            <trkpt lat="46.315810" lon="10.803480">
                <time>2017-07-15T12:09:40Z</time>
            </trkpt>
            <trkpt lat="46.315810" lon="10.803480">
                <time>2017-07-15T12:09:41Z</time>
            </trkpt>
            <trkpt lat="46.315810" lon="10.803480">
                <time>2017-07-15T12:09:42Z</time>
            </trkpt>
            <trkpt lat="46.315810" lon="10.803480">
                <time>2017-07-15T12:09:43Z</time>
            </trkpt>
            <trkpt lat="46.315810" lon="10.803480">
                <time>2017-07-15T12:09:44Z</time>
            </trkpt>
            <trkpt lat="46.315810" lon="10.803480">
                <time>2017-07-15T12:09:45Z</time>
            </trkpt>
            <trkpt lat="46.315810" lon="10.803480">
                <time>2017-07-15T12:09:46Z</time>
            </trkpt>
            <trkpt lat="46.315810" lon="10.803480">
                <time>2017-07-15T12:09:47Z</time>
            </trkpt>
            <trkpt lat="46.315810" lon="10.803480">
                <time>2017-07-15T12:09:48Z</time>
            </trkpt>
            <trkpt lat="46.315810" lon="10.803480">
                <time>2017-07-15T12:09:49Z</time>
            </trkpt>
            <trkpt lat="46.315810" lon="10.803480">
                <time>2017-07-15T12:09:50Z</time>
            </trkpt>
            <trkpt lat="46.315810" lon="10.803480">
                <time>2017-07-15T12:09:51Z</time>
            </trkpt>
            <trkpt lat="46.315810" lon="10.803480">
                <time>2017-07-15T12:09:52Z</time>
            </trkpt>
            <trkpt lat="46.315810" lon="10.803480">
                <time>2017-07-15T12:09:53Z</time>
            </trkpt>
            <trkpt lat="46.315810" lon="10.803480">
                <time>2017-07-15T12:09:54Z</time>
            </trkpt>
            <trkpt lat="46.315810" lon="10.803480">
                <time>2017-07-15T12:09:55Z</time>
            </trkpt>
            <trkpt lat="46.315810" lon="10.803480">
                <time>2017-07-15T12:09:56Z</time>
            </trkpt>
            <trkpt lat="46.315810" lon="10.803480">
                <time>2017-07-15T12:09:57Z</time>
            </trkpt>
            <trkpt lat="46.315810" lon="10.803480">
                <time>2017-07-15T12:09:58Z</time>
            </trkpt>
            <trkpt lat="46.315810" lon="10.803480">
                <time>2017-07-15T12:09:59Z</time>
            </trkpt>
            <trkpt lat="46.315810" lon="10.803480">
                <time>2017-07-15T12:10:00Z</time>
            </trkpt>
            <trkpt lat="46.315810" lon="10.803480">
                <time>2017-07-15T12:10:01Z</time>
            </trkpt>
            <trkpt lat="46.315810" lon="10.803480">
                <time>2017-07-15T12:10:02Z</time>
            </trkpt>
            <trkpt lat="46.315810" lon="10.803480">
                <time>2017-07-15T12:10:03Z</time>
            </trkpt>
            <trkpt lat="46.315810" lon="10.803480">
                <time>2017-07-15T12:10:04Z</time>
            </trkpt>
            <trkpt lat="46.315810" lon="10.803480">
                <time>2017-07-15T12:10:05Z</time>
            </trkpt>
            <trkpt lat="46.315810" lon="10.803480">
                <time>2017-07-15T12:10:06Z</time>
            </trkpt>
            <trkpt lat="46.315810" lon="10.803480">
                <time>2017-07-15T12:10:07Z</time>
            </trkpt>
            <trkpt lat="46.315810" lon="10.803480">
                <time>2017-07-15T12:10:08Z</time>
            </trkpt>
            <trkpt lat="46.315810" lon="10.803480">
                <time>2017-07-15T12:10:09Z</time>
            </trkpt>
            <trkpt lat="46.315810" lon="10.803480">
                <time>2017-07-15T12:10:10Z</time>
            </trkpt>
            <trkpt lat="46.315810" lon="10.803480">
                <time>2017-07-15T12:10:11Z</time>
            </trkpt>
            <trkpt lat="46.315810" lon="10.803480">
                <time>2017-07-15T12:10:12Z</time>
            </trkpt>
            <trkpt lat="46.315810" lon="10.803480">
                <time>2017-07-15T12:10:13Z</time>
            </trkpt>
            <trkpt lat="46.315810" lon="10.803480">
                <time>2017-07-15T12:10:14Z</time>
            </trkpt>
            <trkpt lat="46.315810" lon="10.803480">
                <time>2017-07-15T12:10:15Z</time>
            </trkpt>
            <trkpt lat="46.315810" lon="10.803480">
                <time>2017-07-15T12:10:16Z</time>
            </trkpt>
            <trkpt lat="46.315810" lon="10.803480">
                <time>2017-07-15T12:10:17Z</time>
            </trkpt>
            <trkpt lat="46.315810" lon="10.803480">
                <time>2017-07-15T12:10:18Z</time>
            </trkpt>
            <trkpt lat="46.315810" lon="10.803480">
                <time>2017-07-15T12:10:19Z</time>
            </trkpt>
            <trkpt lat="46.315810" lon="10.803480">
                <time>2017-07-15T12:10:20Z</time>
            </trkpt>
            <trkpt lat="46.315810" lon="10.803480">
                <time>2017-07-15T12:10:21Z</time>
            </trkpt>
            <trkpt lat="46.315810" lon="10.803480">
                <time>2017-07-15T12:10:22Z</time>
            </trkpt>
            <trkpt lat="46.315810" lon="10.803480">
                <time>2017-07-15T12:10:23Z</time>
            </trkpt>
            <trkpt lat="46.315810" lon="10.803480">
                <time>2017-07-15T12:10:24Z</time>
            </trkpt>
            <trkpt lat="46.315810" lon="10.803480">
                <time>2017-07-15T12:10:25Z</time>
            </trkpt>
            <trkpt lat="46.315810" lon="10.803480">
                <time>2017-07-15T12:10:26Z</time>
            </trkpt>
            <trkpt lat="46.315810" lon="10.803480">
                <time>2017-07-15T12:10:27Z</time>
            </trkpt>
            <trkpt lat="46.315810" lon="10.803480">
                <time>2017-07-15T12:10:28Z</time>
            </trkpt>
            <trkpt lat="46.315810" lon="10.803480">
                <time>2017-07-15T12:10:29Z</time>
            </trkpt>
            <trkpt lat="46.315810" lon="10.803480">
                <time>2017-07-15T12:10:30Z</time>
            </trkpt>
            <trkpt lat="46.315810" lon="10.803480">
                <time>2017-07-15T12:10:31Z</time>
            </trkpt>
            <trkpt lat="46.315810" lon="10.803480">
                <time>2017-07-15T12:10:32Z</time>
            </trkpt>
            <trkpt lat="46.315810" lon="10.803480">
                <time>2017-07-15T12:10:33Z</time>
            </trkpt>
            <trkpt lat="46.315810" lon="10.803480">
                <time>2017-07-15T12:10:34Z</time>
            </trkpt>
            <trkpt lat="46.315810" lon="10.803480">
                <time>2017-07-15T12:10:35Z</time>
            </trkpt>
            <trkpt lat="46.315810" lon="10.803480">
                <time>2017-07-15T12:10:36Z</time>
            </trkpt>
            <trkpt lat="46.315810" lon="10.803480">
                <time>2017-07-15T12:10:37Z</time>
            </trkpt>
            <trkpt lat="46.315810" lon="10.803480">
                <time>2017-07-15T12:10:38Z</time>
            </trkpt>
            <trkpt lat="46.315810" lon="10.803480">
                <time>2017-07-15T12:10:39Z</time>
            </trkpt>
            <trkpt lat="46.315810" lon="10.803480">
                <time>2017-07-15T12:10:40Z</time>
            </trkpt>
            <trkpt lat="46.315810" lon="10.803480">
                <time>2017-07-15T12:10:41Z</time>
            </trkpt>
            <trkpt lat="46.315810" lon="10.803480">
                <time>2017-07-15T12:10:42Z</time>
            </trkpt>
            <trkpt lat="46.315810" lon="10.803480">
                <time>2017-07-15T12:10:43Z</time>
            </trkpt>
            <trkpt lat="46.315810" lon="10.803480">
                <time>2017-07-15T12:10:44Z</time>
            </trkpt>
            <trkpt lat="46.315810" lon="10.803480">
                <time>2017-07-15T12:10:45Z</time>
            </trkpt>
            <trkpt lat="46.315810" lon="10.803480">
                <time>2017-07-15T12:10:46Z</time>
            </trkpt>
            <trkpt lat="46.315810" lon="10.803480">
                <time>2017-07-15T12:10:47Z</time>
            </trkpt>
            <trkpt lat="46.315810" lon="10.803480">
                <time>2017-07-15T12:10:48Z</time>
            </trkpt>
            <trkpt lat="46.315810" lon="10.803480">
                <time>2017-07-15T12:10:49Z</time>
            </trkpt>
            <trkpt lat="46.315810" lon="10.803480">
                <time>2017-07-15T12:10:50Z</time>
            </trkpt>
            <trkpt lat="46.315810" lon="10.803480">
                <time>2017-07-15T12:10:51Z</time>
            </trkpt>
            <trkpt lat="46.315810" lon="10.803480">
                <time>2017-07-15T12:10:52Z</time>
            </trkpt>
            <trkpt lat="46.315810" lon="10.803480">
                <time>2017-07-15T12:10:53Z</time>
            </trkpt>
            <trkpt lat="46.315810" lon="10.803480">
                <time>2017-07-15T12:10:54Z</time>
            </trkpt>
            <trkpt lat="46.315810" lon="10.803480">
                <time>2017-07-15T12:10:55Z</time>
            </trkpt>
            <trkpt lat="46.315810" lon="10.803480">
                <time>2017-07-15T12:10:56Z</time>
            </trkpt>
            <trkpt lat="46.315810" lon="10.803480">
                <time>2017-07-15T12:10:57Z</time>
            </trkpt>
            <trkpt lat="46.315810" lon="10.803480">
                <time>2017-07-15T12:10:58Z</time>
            </trkpt>
            <trkpt lat="46.315810" lon="10.803480">
                <time>2017-07-15T12:10:59Z</time>
            </trkpt>
            <trkpt lat="46.315810" lon="10.803480">
                <time>2017-07-15T12:11:00Z</time>
            </trkpt>
            <trkpt lat="46.315810" lon="10.803480">
                <time>2017-07-15T12:11:01Z</time>
            </trkpt>
            <trkpt lat="46.315810" lon="10.803480">
                <time>2017-07-15T12:11:02Z</time>
            </trkpt>
            <trkpt lat="46.315810" lon="10.803480">
                <time>2017-07-15T12:11:03Z</time>
            </trkpt>
            <trkpt lat="46.315810" lon="10.803480">
                <time>2017-07-15T12:11:04Z</time>
            </trkpt>
            <trkpt lat="46.315810" lon="10.803480">
                <time>2017-07-15T12:11:05Z</time>
            </trkpt>
            <trkpt lat="46.315810" lon="10.803480">
                <time>2017-07-15T12:11:06Z</time>
            </trkpt>
            <trkpt lat="46.315810" lon="10.803480">
                <time>2017-07-15T12:11:07Z</time>
            </trkpt>
            <trkpt lat="46.315810" lon="10.803480">
                <time>2017-07-15T12:11:08Z</time>
            </trkpt>
            <trkpt lat="46.315810" lon="10.803480">
                <time>2017-07-15T12:11:09Z</time>
            </trkpt>
            <trkpt lat="46.315810" lon="10.803480">
                <time>2017-07-15T12:11:10Z</time>
            </trkpt>
            <trkpt lat="46.315810" lon="10.803480">
                <time>2017-07-15T12:11:11Z</time>
            </trkpt>
            <trkpt lat="46.315810" lon="10.803480">
                <time>2017-07-15T12:11:12Z</time>
            </trkpt>
            <trkpt lat="46.315810" lon="10.803480">
                <time>2017-07-15T12:11:13Z</time>
            </trkpt>
            <trkpt lat="46.315810" lon="10.803480">
                <time>2017-07-15T12:11:14Z</time>
            </trkpt>
            <trkpt lat="46.315810" lon="10.803480">
                <time>2017-07-15T12:11:15Z</time>
            </trkpt>
            <trkpt lat="46.315810" lon="10.803480">
                <time>2017-07-15T12:11:16Z</time>
            </trkpt>
            <trkpt lat="46.315810" lon="10.803480">
                <time>2017-07-15T12:11:17Z</time>
            </trkpt>
            <trkpt lat="46.315810" lon="10.803480">
                <time>2017-07-15T12:11:18Z</time>
            </trkpt>
            <trkpt lat="46.315810" lon="10.803480">
                <time>2017-07-15T12:11:19Z</time>
            </trkpt>
            <trkpt lat="46.315810" lon="10.803480">
                <time>2017-07-15T12:11:20Z</time>
            </trkpt>
            <trkpt lat="46.315810" lon="10.803480">
                <time>2017-07-15T12:11:21Z</time>
            </trkpt>
            <trkpt lat="46.315810" lon="10.803480">
                <time>2017-07-15T12:11:22Z</time>
            </trkpt>
            <trkpt lat="46.315810" lon="10.803480">
                <time>2017-07-15T12:11:23Z</time>
            </trkpt>
            <trkpt lat="46.315810" lon="10.803480">
                <time>2017-07-15T12:11:24Z</time>
            </trkpt>
            <trkpt lat="46.315810" lon="10.803480">
                <time>2017-07-15T12:11:25Z</time>
            </trkpt>
            <trkpt lat="46.315780" lon="10.803520">
                <time>2017-07-15T12:11:26Z</time>
            </trkpt>
            <trkpt lat="46.315780" lon="10.803520">
                <time>2017-07-15T12:11:27Z</time>
            </trkpt>
            <trkpt lat="46.315780" lon="10.803520">
                <time>2017-07-15T12:11:28Z</time>
            </trkpt>
            <trkpt lat="46.315780" lon="10.803520">
                <time>2017-07-15T12:11:29Z</time>
            </trkpt>
            <trkpt lat="46.315780" lon="10.803520">
                <time>2017-07-15T12:11:30Z</time>
            </trkpt>
            <trkpt lat="46.315780" lon="10.803520">
                <time>2017-07-15T12:11:31Z</time>
            </trkpt>
            <trkpt lat="46.315780" lon="10.803520">
                <time>2017-07-15T12:11:32Z</time>
            </trkpt>
            <trkpt lat="46.315780" lon="10.803520">
                <time>2017-07-15T12:11:33Z</time>
            </trkpt>
            <trkpt lat="46.315780" lon="10.803520">
                <time>2017-07-15T12:11:34Z</time>
            </trkpt>
            <trkpt lat="46.315780" lon="10.803520">
                <time>2017-07-15T12:11:35Z</time>
            </trkpt>
            <trkpt lat="46.315780" lon="10.803520">
                <time>2017-07-15T12:11:36Z</time>
            </trkpt>
            <trkpt lat="46.315780" lon="10.803520">
                <time>2017-07-15T12:11:37Z</time>
            </trkpt>
            <trkpt lat="46.315780" lon="10.803520">
                <time>2017-07-15T12:11:38Z</time>
            </trkpt>
            <trkpt lat="46.315780" lon="10.803520">
                <time>2017-07-15T12:11:39Z</time>
            </trkpt>
            <trkpt lat="46.315780" lon="10.803520">
                <time>2017-07-15T12:11:40Z</time>
            </trkpt>
            <trkpt lat="46.315780" lon="10.803520">
                <time>2017-07-15T12:11:41Z</time>
            </trkpt>
            <trkpt lat="46.315780" lon="10.803520">
                <time>2017-07-15T12:11:42Z</time>
            </trkpt>
            <trkpt lat="46.315780" lon="10.803520">
                <time>2017-07-15T12:11:43Z</time>
            </trkpt>
            <trkpt lat="46.315780" lon="10.803520">
                <time>2017-07-15T12:11:44Z</time>
            </trkpt>
            <trkpt lat="46.315780" lon="10.803520">
                <time>2017-07-15T12:11:45Z</time>
            </trkpt>
            <trkpt lat="46.315780" lon="10.803520">
                <time>2017-07-15T12:11:46Z</time>
            </trkpt>
            <trkpt lat="46.315780" lon="10.803520">
                <time>2017-07-15T12:11:47Z</time>
            </trkpt>
            <trkpt lat="46.315780" lon="10.803520">
                <time>2017-07-15T12:11:48Z</time>
            </trkpt>
            <trkpt lat="46.315780" lon="10.803520">
                <time>2017-07-15T12:11:49Z</time>
            </trkpt>
            <trkpt lat="46.315780" lon="10.803520">
                <time>2017-07-15T12:11:50Z</time>
            </trkpt>
            <trkpt lat="46.315780" lon="10.803520">
                <time>2017-07-15T12:11:51Z</time>
            </trkpt>
            <trkpt lat="46.315780" lon="10.803520">
                <time>2017-07-15T12:11:52Z</time>
            </trkpt>
            <trkpt lat="46.315780" lon="10.803520">
                <time>2017-07-15T12:11:53Z</time>
            </trkpt>
            <trkpt lat="46.315780" lon="10.803520">
                <time>2017-07-15T12:11:54Z</time>
            </trkpt>
            <trkpt lat="46.315780" lon="10.803520">
                <time>2017-07-15T12:11:55Z</time>
            </trkpt>
            <trkpt lat="46.315780" lon="10.803520">
                <time>2017-07-15T12:11:56Z</time>
            </trkpt>
            <trkpt lat="46.315780" lon="10.803520">
                <time>2017-07-15T12:11:57Z</time>
            </trkpt>
            <trkpt lat="46.315780" lon="10.803520">
                <time>2017-07-15T12:11:58Z</time>
            </trkpt>
            <trkpt lat="46.315780" lon="10.803520">
                <time>2017-07-15T12:11:59Z</time>
            </trkpt>
            <trkpt lat="46.315780" lon="10.803520">
                <time>2017-07-15T12:12:00Z</time>
            </trkpt>
            <trkpt lat="46.315780" lon="10.803520">
                <time>2017-07-15T12:12:01Z</time>
            </trkpt>
            <trkpt lat="46.315780" lon="10.803520">
                <time>2017-07-15T12:12:02Z</time>
            </trkpt>
            <trkpt lat="46.315780" lon="10.803520">
                <time>2017-07-15T12:12:03Z</time>
            </trkpt>
            <trkpt lat="46.315780" lon="10.803520">
                <time>2017-07-15T12:12:04Z</time>
            </trkpt>
            <trkpt lat="46.315780" lon="10.803520">
                <time>2017-07-15T12:12:05Z</time>
            </trkpt>
            <trkpt lat="46.315780" lon="10.803520">
                <time>2017-07-15T12:12:06Z</time>
            </trkpt>
            <trkpt lat="46.315780" lon="10.803520">
                <time>2017-07-15T12:12:07Z</time>
            </trkpt>
            <trkpt lat="46.315780" lon="10.803520">
                <time>2017-07-15T12:12:08Z</time>
            </trkpt>
            <trkpt lat="46.315780" lon="10.803520">
                <time>2017-07-15T12:12:09Z</time>
            </trkpt>
            <trkpt lat="46.315780" lon="10.803520">
                <time>2017-07-15T12:12:10Z</time>
            </trkpt>
            <trkpt lat="46.315780" lon="10.803520">
                <time>2017-07-15T12:12:11Z</time>
            </trkpt>
            <trkpt lat="46.315780" lon="10.803520">
                <time>2017-07-15T12:12:12Z</time>
            </trkpt>
            <trkpt lat="46.315780" lon="10.803520">
                <time>2017-07-15T12:12:13Z</time>
            </trkpt>
            <trkpt lat="46.315780" lon="10.803520">
                <time>2017-07-15T12:12:14Z</time>
            </trkpt>
            <trkpt lat="46.315780" lon="10.803520">
                <time>2017-07-15T12:12:15Z</time>
            </trkpt>
            <trkpt lat="46.315780" lon="10.803520">
                <time>2017-07-15T12:12:16Z</time>
            </trkpt>
            <trkpt lat="46.315780" lon="10.803520">
                <time>2017-07-15T12:12:17Z</time>
            </trkpt>
            <trkpt lat="46.315780" lon="10.803520">
                <time>2017-07-15T12:12:18Z</time>
            </trkpt>
            <trkpt lat="46.315780" lon="10.803520">
                <time>2017-07-15T12:12:19Z</time>
            </trkpt>
            <trkpt lat="46.315780" lon="10.803520">
                <time>2017-07-15T12:12:20Z</time>
            </trkpt>
            <trkpt lat="46.315780" lon="10.803520">
                <time>2017-07-15T12:12:21Z</time>
            </trkpt>
            <trkpt lat="46.315780" lon="10.803520">
                <time>2017-07-15T12:12:22Z</time>
            </trkpt>
            <trkpt lat="46.315780" lon="10.803520">
                <time>2017-07-15T12:12:23Z</time>
            </trkpt>
            <trkpt lat="46.315780" lon="10.803520">
                <time>2017-07-15T12:12:24Z</time>
            </trkpt>
            <trkpt lat="46.315780" lon="10.803520">
                <time>2017-07-15T12:12:25Z</time>
            </trkpt>
            <trkpt lat="46.315780" lon="10.803520">
                <time>2017-07-15T12:12:26Z</time>
            </trkpt>
            <trkpt lat="46.315780" lon="10.803520">
                <time>2017-07-15T12:12:27Z</time>
            </trkpt>
            <trkpt lat="46.315780" lon="10.803520">
                <time>2017-07-15T12:12:28Z</time>
            </trkpt>
            <trkpt lat="46.315780" lon="10.803520">
                <time>2017-07-15T12:12:29Z</time>
            </trkpt>
            <trkpt lat="46.315780" lon="10.803520">
                <time>2017-07-15T12:12:30Z</time>
            </trkpt>
            <trkpt lat="46.315780" lon="10.803520">
                <time>2017-07-15T12:12:31Z</time>
            </trkpt>
            <trkpt lat="46.315780" lon="10.803520">
                <time>2017-07-15T12:12:32Z</time>
            </trkpt>
            <trkpt lat="46.315780" lon="10.803520">
                <time>2017-07-15T12:12:33Z</time>
            </trkpt>
            <trkpt lat="46.315780" lon="10.803520">
                <time>2017-07-15T12:12:34Z</time>
            </trkpt>
            <trkpt lat="46.315780" lon="10.803520">
                <time>2017-07-15T12:12:35Z</time>
            </trkpt>
            <trkpt lat="46.315780" lon="10.803520">
                <time>2017-07-15T12:12:36Z</time>
            </trkpt>
            <trkpt lat="46.315780" lon="10.803520">
                <time>2017-07-15T12:12:37Z</time>
            </trkpt>
            <trkpt lat="46.315780" lon="10.803520">
                <time>2017-07-15T12:12:38Z</time>
            </trkpt>
            <trkpt lat="46.315780" lon="10.803520">
                <time>2017-07-15T12:12:39Z</time>
            </trkpt>
            <trkpt lat="46.315780" lon="10.803520">
                <time>2017-07-15T12:12:40Z</time>
            </trkpt>
            <trkpt lat="46.315780" lon="10.803520">
                <time>2017-07-15T12:12:41Z</time>
            </trkpt>
            <trkpt lat="46.315780" lon="10.803520">
                <time>2017-07-15T12:12:42Z</time>
            </trkpt>
            <trkpt lat="46.315780" lon="10.803520">
                <time>2017-07-15T12:12:43Z</time>
            </trkpt>
            <trkpt lat="46.315780" lon="10.803520">
                <time>2017-07-15T12:12:44Z</time>
            </trkpt>
            <trkpt lat="46.315780" lon="10.803520">
                <time>2017-07-15T12:12:45Z</time>
            </trkpt>
            <trkpt lat="46.315780" lon="10.803520">
                <time>2017-07-15T12:12:46Z</time>
            </trkpt>
            <trkpt lat="46.315780" lon="10.803520">
                <time>2017-07-15T12:12:47Z</time>
            </trkpt>
            <trkpt lat="46.315780" lon="10.803520">
                <time>2017-07-15T12:12:48Z</time>
            </trkpt>
            <trkpt lat="46.315780" lon="10.803520">
                <time>2017-07-15T12:12:49Z</time>
            </trkpt>
            <trkpt lat="46.315780" lon="10.803520">
                <time>2017-07-15T12:12:50Z</time>
            </trkpt>
            <trkpt lat="46.315780" lon="10.803520">
                <time>2017-07-15T12:12:51Z</time>
            </trkpt>
            <trkpt lat="46.315780" lon="10.803520">
                <time>2017-07-15T12:12:52Z</time>
            </trkpt>
            <trkpt lat="46.315780" lon="10.803520">
                <time>2017-07-15T12:12:53Z</time>
            </trkpt>
            <trkpt lat="46.315780" lon="10.803520">
                <time>2017-07-15T12:12:54Z</time>
            </trkpt>
            <trkpt lat="46.315780" lon="10.803520">
                <time>2017-07-15T12:12:55Z</time>
            </trkpt>
            <trkpt lat="46.315780" lon="10.803520">
                <time>2017-07-15T12:12:56Z</time>
            </trkpt>
            <trkpt lat="46.315780" lon="10.803520">
                <time>2017-07-15T12:12:57Z</time>
            </trkpt>
            <trkpt lat="46.315780" lon="10.803520">
                <time>2017-07-15T12:12:58Z</time>
            </trkpt>
            <trkpt lat="46.315780" lon="10.803520">
                <time>2017-07-15T12:12:59Z</time>
            </trkpt>
            <trkpt lat="46.315780" lon="10.803520">
                <time>2017-07-15T12:13:00Z</time>
            </trkpt>
            <trkpt lat="46.315780" lon="10.803520">
                <time>2017-07-15T12:13:01Z</time>
            </trkpt>
            <trkpt lat="46.315780" lon="10.803520">
                <time>2017-07-15T12:13:02Z</time>
            </trkpt>
            <trkpt lat="46.315780" lon="10.803520">
                <time>2017-07-15T12:13:03Z</time>
            </trkpt>
            <trkpt lat="46.315780" lon="10.803520">
                <time>2017-07-15T12:13:04Z</time>
            </trkpt>
            <trkpt lat="46.315780" lon="10.803520">
                <time>2017-07-15T12:13:05Z</time>
            </trkpt>
            <trkpt lat="46.315780" lon="10.803520">
                <time>2017-07-15T12:13:06Z</time>
            </trkpt>
            <trkpt lat="46.315780" lon="10.803520">
                <time>2017-07-15T12:13:07Z</time>
            </trkpt>
            <trkpt lat="46.315780" lon="10.803520">
                <time>2017-07-15T12:13:08Z</time>
            </trkpt>
            <trkpt lat="46.315780" lon="10.803520">
                <time>2017-07-15T12:13:09Z</time>
            </trkpt>
            <trkpt lat="46.315780" lon="10.803520">
                <time>2017-07-15T12:13:10Z</time>
            </trkpt>
            <trkpt lat="46.315780" lon="10.803520">
                <time>2017-07-15T12:13:11Z</time>
            </trkpt>
            <trkpt lat="46.315780" lon="10.803520">
                <time>2017-07-15T12:13:12Z</time>
            </trkpt>
            <trkpt lat="46.315780" lon="10.803520">
                <time>2017-07-15T12:13:13Z</time>
            </trkpt>
            <trkpt lat="46.315780" lon="10.803520">
                <time>2017-07-15T12:13:14Z</time>
            </trkpt>
            <trkpt lat="46.315780" lon="10.803520">
                <time>2017-07-15T12:13:15Z</time>
            </trkpt>
            <trkpt lat="46.315780" lon="10.803520">
                <time>2017-07-15T12:13:16Z</time>
            </trkpt>
            <trkpt lat="46.315780" lon="10.803520">
                <time>2017-07-15T12:13:17Z</time>
            </trkpt>
            <trkpt lat="46.315780" lon="10.803520">
                <time>2017-07-15T12:13:18Z</time>
            </trkpt>
            <trkpt lat="46.315780" lon="10.803520">
                <time>2017-07-15T12:13:19Z</time>
            </trkpt>
            <trkpt lat="46.315780" lon="10.803520">
                <time>2017-07-15T12:13:20Z</time>
            </trkpt>
            <trkpt lat="46.315780" lon="10.803520">
                <time>2017-07-15T12:13:21Z</time>
            </trkpt>
            <trkpt lat="46.315780" lon="10.803520">
                <time>2017-07-15T12:13:22Z</time>
            </trkpt>
            <trkpt lat="46.315780" lon="10.803520">
                <time>2017-07-15T12:13:23Z</time>
            </trkpt>
            <trkpt lat="46.315780" lon="10.803520">
                <time>2017-07-15T12:13:24Z</time>
            </trkpt>
            <trkpt lat="46.315780" lon="10.803520">
                <time>2017-07-15T12:13:25Z</time>
            </trkpt>
            <trkpt lat="46.315780" lon="10.803520">
                <time>2017-07-15T12:13:26Z</time>
            </trkpt>
            <trkpt lat="46.315780" lon="10.803520">
                <time>2017-07-15T12:13:27Z</time>
            </trkpt>
            <trkpt lat="46.315780" lon="10.803520">
                <time>2017-07-15T12:13:28Z</time>
            </trkpt>
            <trkpt lat="46.315780" lon="10.803520">
                <time>2017-07-15T12:13:29Z</time>
            </trkpt>
            <trkpt lat="46.315780" lon="10.803520">
                <time>2017-07-15T12:13:30Z</time>
            </trkpt>
            <trkpt lat="46.315780" lon="10.803520">
                <time>2017-07-15T12:13:31Z</time>
            </trkpt>
            <trkpt lat="46.315780" lon="10.803520">
                <time>2017-07-15T12:13:32Z</time>
            </trkpt>
            <trkpt lat="46.315780" lon="10.803520">
                <time>2017-07-15T12:13:33Z</time>
            </trkpt>
            <trkpt lat="46.315780" lon="10.803520">
                <time>2017-07-15T12:13:34Z</time>
            </trkpt>
            <trkpt lat="46.315780" lon="10.803520">
                <time>2017-07-15T12:13:35Z</time>
            </trkpt>
            <trkpt lat="46.315780" lon="10.803520">
                <time>2017-07-15T12:13:36Z</time>
            </trkpt>
            <trkpt lat="46.315780" lon="10.803520">
                <time>2017-07-15T12:13:37Z</time>
            </trkpt>
            <trkpt lat="46.315780" lon="10.803520">
                <time>2017-07-15T12:13:38Z</time>
            </trkpt>
            <trkpt lat="46.315780" lon="10.803520">
                <time>2017-07-15T12:13:39Z</time>
            </trkpt>
            <trkpt lat="46.315780" lon="10.803520">
                <time>2017-07-15T12:13:40Z</time>
            </trkpt>
            <trkpt lat="46.315780" lon="10.803520">
                <time>2017-07-15T12:13:41Z</time>
            </trkpt>
            <trkpt lat="46.315780" lon="10.803520">
                <time>2017-07-15T12:13:42Z</time>
            </trkpt>
            <trkpt lat="46.315780" lon="10.803520">
                <time>2017-07-15T12:13:43Z</time>
            </trkpt>
            <trkpt lat="46.315780" lon="10.803520">
                <time>2017-07-15T12:13:44Z</time>
            </trkpt>
            <trkpt lat="46.315780" lon="10.803520">
                <time>2017-07-15T12:13:45Z</time>
            </trkpt>
            <trkpt lat="46.315780" lon="10.803520">
                <time>2017-07-15T12:13:46Z</time>
            </trkpt>
            <trkpt lat="46.315780" lon="10.803520">
                <time>2017-07-15T12:13:47Z</time>
            </trkpt>
            <trkpt lat="46.315780" lon="10.803520">
                <time>2017-07-15T12:13:48Z</time>
            </trkpt>
            <trkpt lat="46.315780" lon="10.803520">
                <time>2017-07-15T12:13:49Z</time>
            </trkpt>
            <trkpt lat="46.315780" lon="10.803520">
                <time>2017-07-15T12:13:50Z</time>
            </trkpt>
            <trkpt lat="46.315780" lon="10.803520">
                <time>2017-07-15T12:13:51Z</time>
            </trkpt>
            <trkpt lat="46.315780" lon="10.803520">
                <time>2017-07-15T12:13:52Z</time>
            </trkpt>
            <trkpt lat="46.315780" lon="10.803520">
                <time>2017-07-15T12:13:53Z</time>
            </trkpt>
            <trkpt lat="46.315780" lon="10.803520">
                <time>2017-07-15T12:13:54Z</time>
            </trkpt>
            <trkpt lat="46.315780" lon="10.803520">
                <time>2017-07-15T12:13:55Z</time>
            </trkpt>
            <trkpt lat="46.315780" lon="10.803520">
                <time>2017-07-15T12:13:56Z</time>
            </trkpt>
            <trkpt lat="46.315780" lon="10.803520">
                <time>2017-07-15T12:13:57Z</time>
            </trkpt>
            <trkpt lat="46.315780" lon="10.803520">
                <time>2017-07-15T12:13:58Z</time>
            </trkpt>
            <trkpt lat="46.315780" lon="10.803520">
                <time>2017-07-15T12:13:59Z</time>
            </trkpt>
            <trkpt lat="46.315780" lon="10.803520">
                <time>2017-07-15T12:14:00Z</time>
            </trkpt>
            <trkpt lat="46.315780" lon="10.803520">
                <time>2017-07-15T12:14:01Z</time>
            </trkpt>
            <trkpt lat="46.315780" lon="10.803520">
                <time>2017-07-15T12:14:02Z</time>
            </trkpt>
            <trkpt lat="46.315780" lon="10.803520">
                <time>2017-07-15T12:14:03Z</time>
            </trkpt>
            <trkpt lat="46.315780" lon="10.803520">
                <time>2017-07-15T12:14:04Z</time>
            </trkpt>
            <trkpt lat="46.315780" lon="10.803520">
                <time>2017-07-15T12:14:05Z</time>
            </trkpt>
            <trkpt lat="46.315780" lon="10.803520">
                <time>2017-07-15T12:14:06Z</time>
            </trkpt>
            <trkpt lat="46.315780" lon="10.803520">
                <time>2017-07-15T12:14:07Z</time>
            </trkpt>
            <trkpt lat="46.315780" lon="10.803520">
                <time>2017-07-15T12:14:08Z</time>
            </trkpt>
            <trkpt lat="46.315780" lon="10.803520">
                <time>2017-07-15T12:14:09Z</time>
            </trkpt>
            <trkpt lat="46.315780" lon="10.803520">
                <time>2017-07-15T12:14:10Z</time>
            </trkpt>
            <trkpt lat="46.315780" lon="10.803520">
                <time>2017-07-15T12:14:11Z</time>
            </trkpt>
            <trkpt lat="46.315780" lon="10.803520">
                <time>2017-07-15T12:14:12Z</time>
            </trkpt>
            <trkpt lat="46.315780" lon="10.803520">
                <time>2017-07-15T12:14:13Z</time>
            </trkpt>
            <trkpt lat="46.315780" lon="10.803520">
                <time>2017-07-15T12:14:14Z</time>
            </trkpt>
            <trkpt lat="46.315780" lon="10.803520">
                <time>2017-07-15T12:14:15Z</time>
            </trkpt>
            <trkpt lat="46.315780" lon="10.803520">
                <time>2017-07-15T12:14:16Z</time>
            </trkpt>
            <trkpt lat="46.315780" lon="10.803520">
                <time>2017-07-15T12:14:17Z</time>
            </trkpt>
            <trkpt lat="46.315780" lon="10.803520">
                <time>2017-07-15T12:14:18Z</time>
            </trkpt>
            <trkpt lat="46.315780" lon="10.803520">
                <time>2017-07-15T12:14:19Z</time>
            </trkpt>
            <trkpt lat="46.315780" lon="10.803520">
                <time>2017-07-15T12:14:20Z</time>
            </trkpt>
            <trkpt lat="46.315780" lon="10.803520">
                <time>2017-07-15T12:14:21Z</time>
            </trkpt>
            <trkpt lat="46.315780" lon="10.803520">
                <time>2017-07-15T12:14:22Z</time>
            </trkpt>
            <trkpt lat="46.315780" lon="10.803520">
                <time>2017-07-15T12:14:23Z</time>
            </trkpt>
            <trkpt lat="46.315780" lon="10.803520">
                <time>2017-07-15T12:14:24Z</time>
            </trkpt>
            <trkpt lat="46.315780" lon="10.803520">
                <time>2017-07-15T12:14:25Z</time>
            </trkpt>
            <trkpt lat="46.315780" lon="10.803520">
                <time>2017-07-15T12:14:26Z</time>
            </trkpt>
            <trkpt lat="46.315780" lon="10.803520">
                <time>2017-07-15T12:14:27Z</time>
            </trkpt>
            <trkpt lat="46.315780" lon="10.803520">
                <time>2017-07-15T12:14:28Z</time>
            </trkpt>
            <trkpt lat="46.315780" lon="10.803520">
                <time>2017-07-15T12:14:29Z</time>
            </trkpt>
            <trkpt lat="46.315780" lon="10.803520">
                <time>2017-07-15T12:14:30Z</time>
            </trkpt>
            <trkpt lat="46.315780" lon="10.803520">
                <time>2017-07-15T12:14:31Z</time>
            </trkpt>
            <trkpt lat="46.315780" lon="10.803520">
                <time>2017-07-15T12:14:32Z</time>
            </trkpt>
            <trkpt lat="46.315780" lon="10.803520">
                <time>2017-07-15T12:14:33Z</time>
            </trkpt>
            <trkpt lat="46.315780" lon="10.803520">
                <time>2017-07-15T12:14:34Z</time>
            </trkpt>
            <trkpt lat="46.315780" lon="10.803520">
                <time>2017-07-15T12:14:35Z</time>
            </trkpt>
            <trkpt lat="46.315780" lon="10.803520">
                <time>2017-07-15T12:14:36Z</time>
            </trkpt>
            <trkpt lat="46.315780" lon="10.803520">
                <time>2017-07-15T12:14:37Z</time>
            </trkpt>
            <trkpt lat="46.315780" lon="10.803520">
                <time>2017-07-15T12:14:38Z</time>
            </trkpt>
            <trkpt lat="46.315780" lon="10.803520">
                <time>2017-07-15T12:14:39Z</time>
            </trkpt>
            <trkpt lat="46.315780" lon="10.803520">
                <time>2017-07-15T12:14:40Z</time>
            </trkpt>
            <trkpt lat="46.315780" lon="10.803520">
                <time>2017-07-15T12:14:41Z</time>
            </trkpt>
            <trkpt lat="46.315780" lon="10.803520">
                <time>2017-07-15T12:14:42Z</time>
            </trkpt>
            <trkpt lat="46.315780" lon="10.803520">
                <time>2017-07-15T12:14:43Z</time>
            </trkpt>
            <trkpt lat="46.315780" lon="10.803520">
                <time>2017-07-15T12:14:44Z</time>
            </trkpt>
            <trkpt lat="46.315780" lon="10.803520">
                <time>2017-07-15T12:14:45Z</time>
            </trkpt>
            <trkpt lat="46.315780" lon="10.803520">
                <time>2017-07-15T12:14:46Z</time>
            </trkpt>
            <trkpt lat="46.315780" lon="10.803520">
                <time>2017-07-15T12:14:47Z</time>
            </trkpt>
            <trkpt lat="46.315780" lon="10.803520">
                <time>2017-07-15T12:14:48Z</time>
            </trkpt>
            <trkpt lat="46.315780" lon="10.803520">
                <time>2017-07-15T12:14:49Z</time>
            </trkpt>
            <trkpt lat="46.315780" lon="10.803520">
                <time>2017-07-15T12:14:50Z</time>
            </trkpt>
            <trkpt lat="46.315780" lon="10.803520">
                <time>2017-07-15T12:14:51Z</time>
            </trkpt>
            <trkpt lat="46.315780" lon="10.803520">
                <time>2017-07-15T12:14:52Z</time>
            </trkpt>
            <trkpt lat="46.315780" lon="10.803520">
                <time>2017-07-15T12:14:53Z</time>
            </trkpt>
            <trkpt lat="46.315780" lon="10.803520">
                <time>2017-07-15T12:14:54Z</time>
            </trkpt>
            <trkpt lat="46.315780" lon="10.803520">
                <time>2017-07-15T12:14:55Z</time>
            </trkpt>
            <trkpt lat="46.315780" lon="10.803520">
                <time>2017-07-15T12:14:56Z</time>
            </trkpt>
            <trkpt lat="46.315780" lon="10.803520">
                <time>2017-07-15T12:14:57Z</time>
            </trkpt>
            <trkpt lat="46.315780" lon="10.803520">
                <time>2017-07-15T12:14:58Z</time>
            </trkpt>
            <trkpt lat="46.315780" lon="10.803520">
                <time>2017-07-15T12:14:59Z</time>
            </trkpt>
            <trkpt lat="46.315780" lon="10.803520">
                <time>2017-07-15T12:15:00Z</time>
            </trkpt>
            <trkpt lat="46.315780" lon="10.803520">
                <time>2017-07-15T12:15:01Z</time>
            </trkpt>
            <trkpt lat="46.315780" lon="10.803520">
                <time>2017-07-15T12:15:02Z</time>
            </trkpt>
            <trkpt lat="46.315780" lon="10.803520">
                <time>2017-07-15T12:15:03Z</time>
            </trkpt>
            <trkpt lat="46.315780" lon="10.803520">
                <time>2017-07-15T12:15:04Z</time>
            </trkpt>
            <trkpt lat="46.315780" lon="10.803520">
                <time>2017-07-15T12:15:05Z</time>
            </trkpt>
            <trkpt lat="46.315780" lon="10.803520">
                <time>2017-07-15T12:15:06Z</time>
            </trkpt>
            <trkpt lat="46.315780" lon="10.803520">
                <time>2017-07-15T12:15:07Z</time>
            </trkpt>
            <trkpt lat="46.315780" lon="10.803520">
                <time>2017-07-15T12:15:08Z</time>
            </trkpt>
            <trkpt lat="46.315780" lon="10.803520">
                <time>2017-07-15T12:15:09Z</time>
            </trkpt>
            <trkpt lat="46.315780" lon="10.803520">
                <time>2017-07-15T12:15:10Z</time>
            </trkpt>
            <trkpt lat="46.315780" lon="10.803520">
                <time>2017-07-15T12:15:11Z</time>
            </trkpt>
            <trkpt lat="46.315780" lon="10.803520">
                <time>2017-07-15T12:15:12Z</time>
            </trkpt>
            <trkpt lat="46.315780" lon="10.803520">
                <time>2017-07-15T12:15:13Z</time>
            </trkpt>
            <trkpt lat="46.315780" lon="10.803520">
                <time>2017-07-15T12:15:14Z</time>
            </trkpt>
            <trkpt lat="46.315780" lon="10.803520">
                <time>2017-07-15T12:15:15Z</time>
            </trkpt>
            <trkpt lat="46.315780" lon="10.803520">
                <time>2017-07-15T12:15:16Z</time>
            </trkpt>
            <trkpt lat="46.315780" lon="10.803520">
                <time>2017-07-15T12:15:17Z</time>
            </trkpt>
            <trkpt lat="46.315780" lon="10.803520">
                <time>2017-07-15T12:15:18Z</time>
            </trkpt>
            <trkpt lat="46.315780" lon="10.803520">
                <time>2017-07-15T12:15:19Z</time>
            </trkpt>
            <trkpt lat="46.315780" lon="10.803520">
                <time>2017-07-15T12:15:20Z</time>
            </trkpt>
            <trkpt lat="46.315780" lon="10.803520">
                <time>2017-07-15T12:15:21Z</time>
            </trkpt>
            <trkpt lat="46.315780" lon="10.803520">
                <time>2017-07-15T12:15:22Z</time>
            </trkpt>
            <trkpt lat="46.315780" lon="10.803520">
                <time>2017-07-15T12:15:23Z</time>
            </trkpt>
            <trkpt lat="46.315780" lon="10.803520">
                <time>2017-07-15T12:15:24Z</time>
            </trkpt>
            <trkpt lat="46.315780" lon="10.803520">
                <time>2017-07-15T12:15:25Z</time>
            </trkpt>
            <trkpt lat="46.315780" lon="10.803520">
                <time>2017-07-15T12:15:26Z</time>
            </trkpt>
            <trkpt lat="46.315780" lon="10.803520">
                <time>2017-07-15T12:15:27Z</time>
            </trkpt>
            <trkpt lat="46.315780" lon="10.803520">
                <time>2017-07-15T12:15:28Z</time>
            </trkpt>
            <trkpt lat="46.315780" lon="10.803520">
                <time>2017-07-15T12:15:29Z</time>
            </trkpt>
            <trkpt lat="46.315780" lon="10.803520">
                <time>2017-07-15T12:15:30Z</time>
            </trkpt>
            <trkpt lat="46.315780" lon="10.803520">
                <time>2017-07-15T12:15:31Z</time>
            </trkpt>
            <trkpt lat="46.315780" lon="10.803520">
                <time>2017-07-15T12:15:32Z</time>
            </trkpt>
            <trkpt lat="46.315780" lon="10.803520">
                <time>2017-07-15T12:15:33Z</time>
            </trkpt>
            <trkpt lat="46.315780" lon="10.803520">
                <time>2017-07-15T12:15:34Z</time>
            </trkpt>
            <trkpt lat="46.315780" lon="10.803520">
                <time>2017-07-15T12:15:35Z</time>
            </trkpt>
            <trkpt lat="46.315780" lon="10.803520">
                <time>2017-07-15T12:15:36Z</time>
            </trkpt>
            <trkpt lat="46.315780" lon="10.803520">
                <time>2017-07-15T12:15:37Z</time>
            </trkpt>
            <trkpt lat="46.315780" lon="10.803520">
                <time>2017-07-15T12:15:38Z</time>
            </trkpt>
            <trkpt lat="46.315780" lon="10.803520">
                <time>2017-07-15T12:15:39Z</time>
            </trkpt>
            <trkpt lat="46.315780" lon="10.803520">
                <time>2017-07-15T12:15:40Z</time>
            </trkpt>
            <trkpt lat="46.315780" lon="10.803520">
                <time>2017-07-15T12:15:41Z</time>
            </trkpt>
            <trkpt lat="46.315780" lon="10.803520">
                <time>2017-07-15T12:15:42Z</time>
            </trkpt>
            <trkpt lat="46.315780" lon="10.803520">
                <time>2017-07-15T12:15:43Z</time>
            </trkpt>
            <trkpt lat="46.315780" lon="10.803520">
                <time>2017-07-15T12:15:44Z</time>
            </trkpt>
            <trkpt lat="46.315780" lon="10.803520">
                <time>2017-07-15T12:15:45Z</time>
            </trkpt>
            <trkpt lat="46.315780" lon="10.803520">
                <time>2017-07-15T12:15:46Z</time>
            </trkpt>
            <trkpt lat="46.315780" lon="10.803520">
                <time>2017-07-15T12:15:47Z</time>
            </trkpt>
            <trkpt lat="46.315780" lon="10.803520">
                <time>2017-07-15T12:15:48Z</time>
            </trkpt>
            <trkpt lat="46.315780" lon="10.803520">
                <time>2017-07-15T12:15:49Z</time>
            </trkpt>
            <trkpt lat="46.315780" lon="10.803520">
                <time>2017-07-15T12:15:50Z</time>
            </trkpt>
            <trkpt lat="46.315780" lon="10.803520">
                <time>2017-07-15T12:15:51Z</time>
            </trkpt>
            <trkpt lat="46.315780" lon="10.803520">
                <time>2017-07-15T12:15:52Z</time>
            </trkpt>
            <trkpt lat="46.315780" lon="10.803520">
                <time>2017-07-15T12:15:53Z</time>
            </trkpt>
            <trkpt lat="46.315780" lon="10.803520">
                <time>2017-07-15T12:15:54Z</time>
            </trkpt>
            <trkpt lat="46.315780" lon="10.803520">
                <time>2017-07-15T12:15:55Z</time>
            </trkpt>
            <trkpt lat="46.315780" lon="10.803520">
                <time>2017-07-15T12:15:56Z</time>
            </trkpt>
            <trkpt lat="46.315780" lon="10.803520">
                <time>2017-07-15T12:15:57Z</time>
            </trkpt>
            <trkpt lat="46.315780" lon="10.803520">
                <time>2017-07-15T12:15:58Z</time>
            </trkpt>
            <trkpt lat="46.315780" lon="10.803520">
                <time>2017-07-15T12:15:59Z</time>
            </trkpt>
            <trkpt lat="46.315780" lon="10.803520">
                <time>2017-07-15T12:16:00Z</time>
            </trkpt>
            <trkpt lat="46.315780" lon="10.803520">
                <time>2017-07-15T12:16:01Z</time>
            </trkpt>
            <trkpt lat="46.315780" lon="10.803520">
                <time>2017-07-15T12:16:02Z</time>
            </trkpt>
            <trkpt lat="46.315780" lon="10.803520">
                <time>2017-07-15T12:16:03Z</time>
            </trkpt>
            <trkpt lat="46.315780" lon="10.803520">
                <time>2017-07-15T12:16:04Z</time>
            </trkpt>
            <trkpt lat="46.315780" lon="10.803520">
                <time>2017-07-15T12:16:05Z</time>
            </trkpt>
            <trkpt lat="46.315780" lon="10.803520">
                <time>2017-07-15T12:16:06Z</time>
            </trkpt>
            <trkpt lat="46.315780" lon="10.803520">
                <time>2017-07-15T12:16:07Z</time>
            </trkpt>
            <trkpt lat="46.315780" lon="10.803520">
                <time>2017-07-15T12:16:08Z</time>
            </trkpt>
            <trkpt lat="46.315780" lon="10.803520">
                <time>2017-07-15T12:16:09Z</time>
            </trkpt>
            <trkpt lat="46.315780" lon="10.803520">
                <time>2017-07-15T12:16:10Z</time>
            </trkpt>
            <trkpt lat="46.315780" lon="10.803520">
                <time>2017-07-15T12:16:11Z</time>
            </trkpt>
            <trkpt lat="46.315780" lon="10.803520">
                <time>2017-07-15T12:16:12Z</time>
            </trkpt>
            <trkpt lat="46.315780" lon="10.803520">
                <time>2017-07-15T12:16:13Z</time>
            </trkpt>
            <trkpt lat="46.315780" lon="10.803520">
                <time>2017-07-15T12:16:14Z</time>
            </trkpt>
            <trkpt lat="46.315780" lon="10.803520">
                <time>2017-07-15T12:16:15Z</time>
            </trkpt>
            <trkpt lat="46.315780" lon="10.803520">
                <time>2017-07-15T12:16:16Z</time>
            </trkpt>
            <trkpt lat="46.315780" lon="10.803520">
                <time>2017-07-15T12:16:17Z</time>
            </trkpt>
            <trkpt lat="46.315780" lon="10.803520">
                <time>2017-07-15T12:16:18Z</time>
            </trkpt>
            <trkpt lat="46.315780" lon="10.803520">
                <time>2017-07-15T12:16:19Z</time>
            </trkpt>
            <trkpt lat="46.315780" lon="10.803520">
                <time>2017-07-15T12:16:20Z</time>
            </trkpt>
            <trkpt lat="46.315780" lon="10.803520">
                <time>2017-07-15T12:16:21Z</time>
            </trkpt>
            <trkpt lat="46.315780" lon="10.803520">
                <time>2017-07-15T12:16:22Z</time>
            </trkpt>
            <trkpt lat="46.315780" lon="10.803520">
                <time>2017-07-15T12:16:23Z</time>
            </trkpt>
            <trkpt lat="46.315780" lon="10.803520">
                <time>2017-07-15T12:16:24Z</time>
            </trkpt>
            <trkpt lat="46.315780" lon="10.803520">
                <time>2017-07-15T12:16:25Z</time>
            </trkpt>
            <trkpt lat="46.315780" lon="10.803520">
                <time>2017-07-15T12:16:26Z</time>
            </trkpt>
            <trkpt lat="46.315780" lon="10.803520">
                <time>2017-07-15T12:16:27Z</time>
            </trkpt>
            <trkpt lat="46.315780" lon="10.803520">
                <time>2017-07-15T12:16:28Z</time>
            </trkpt>
            <trkpt lat="46.315780" lon="10.803520">
                <time>2017-07-15T12:16:29Z</time>
            </trkpt>
            <trkpt lat="46.315780" lon="10.803520">
                <time>2017-07-15T12:16:30Z</time>
            </trkpt>
            <trkpt lat="46.315780" lon="10.803520">
                <time>2017-07-15T12:16:31Z</time>
            </trkpt>
            <trkpt lat="46.315780" lon="10.803520">
                <time>2017-07-15T12:16:32Z</time>
            </trkpt>
            <trkpt lat="46.315780" lon="10.803520">
                <time>2017-07-15T12:16:33Z</time>
            </trkpt>
            <trkpt lat="46.315780" lon="10.803520">
                <time>2017-07-15T12:16:34Z</time>
            </trkpt>
            <trkpt lat="46.315780" lon="10.803520">
                <time>2017-07-15T12:16:35Z</time>
            </trkpt>
            <trkpt lat="46.315780" lon="10.803520">
                <time>2017-07-15T12:16:36Z</time>
            </trkpt>
            <trkpt lat="46.315780" lon="10.803520">
                <time>2017-07-15T12:16:37Z</time>
            </trkpt>
            <trkpt lat="46.315780" lon="10.803520">
                <time>2017-07-15T12:16:38Z</time>
            </trkpt>
            <trkpt lat="46.315780" lon="10.803520">
                <time>2017-07-15T12:16:39Z</time>
            </trkpt>
            <trkpt lat="46.315780" lon="10.803520">
                <time>2017-07-15T12:16:40Z</time>
            </trkpt>
            <trkpt lat="46.315780" lon="10.803520">
                <time>2017-07-15T12:16:41Z</time>
            </trkpt>
            <trkpt lat="46.315780" lon="10.803520">
                <time>2017-07-15T12:16:42Z</time>
            </trkpt>
            <trkpt lat="46.315780" lon="10.803520">
                <time>2017-07-15T12:16:43Z</time>
            </trkpt>
            <trkpt lat="46.315780" lon="10.803520">
                <time>2017-07-15T12:16:44Z</time>
            </trkpt>
            <trkpt lat="46.315780" lon="10.803520">
                <time>2017-07-15T12:16:45Z</time>
            </trkpt>
            <trkpt lat="46.315780" lon="10.803520">
                <time>2017-07-15T12:16:46Z</time>
            </trkpt>
            <trkpt lat="46.315780" lon="10.803520">
                <time>2017-07-15T12:16:47Z</time>
            </trkpt>
            <trkpt lat="46.315780" lon="10.803520">
                <time>2017-07-15T12:16:48Z</time>
            </trkpt>
            <trkpt lat="46.315780" lon="10.803520">
                <time>2017-07-15T12:16:49Z</time>
            </trkpt>
            <trkpt lat="46.315780" lon="10.803520">
                <time>2017-07-15T12:16:50Z</time>
            </trkpt>
            <trkpt lat="46.315780" lon="10.803520">
                <time>2017-07-15T12:16:51Z</time>
            </trkpt>
            <trkpt lat="46.315780" lon="10.803520">
                <time>2017-07-15T12:16:52Z</time>
            </trkpt>
            <trkpt lat="46.315780" lon="10.803520">
                <time>2017-07-15T12:16:53Z</time>
            </trkpt>
            <trkpt lat="46.315780" lon="10.803520">
                <time>2017-07-15T12:16:54Z</time>
            </trkpt>
            <trkpt lat="46.315780" lon="10.803520">
                <time>2017-07-15T12:16:55Z</time>
            </trkpt>
            <trkpt lat="46.315780" lon="10.803520">
                <time>2017-07-15T12:16:56Z</time>
            </trkpt>
            <trkpt lat="46.315780" lon="10.803520">
                <time>2017-07-15T12:16:57Z</time>
            </trkpt>
            <trkpt lat="46.315780" lon="10.803520">
                <time>2017-07-15T12:16:58Z</time>
            </trkpt>
            <trkpt lat="46.315780" lon="10.803520">
                <time>2017-07-15T12:16:59Z</time>
            </trkpt>
            <trkpt lat="46.315780" lon="10.803520">
                <time>2017-07-15T12:17:00Z</time>
            </trkpt>
            <trkpt lat="46.315780" lon="10.803520">
                <time>2017-07-15T12:17:01Z</time>
            </trkpt>
            <trkpt lat="46.315780" lon="10.803520">
                <time>2017-07-15T12:17:02Z</time>
            </trkpt>
            <trkpt lat="46.315780" lon="10.803520">
                <time>2017-07-15T12:17:03Z</time>
            </trkpt>
            <trkpt lat="46.315780" lon="10.803520">
                <time>2017-07-15T12:17:04Z</time>
            </trkpt>
            <trkpt lat="46.315780" lon="10.803520">
                <time>2017-07-15T12:17:05Z</time>
            </trkpt>
            <trkpt lat="46.315780" lon="10.803520">
                <time>2017-07-15T12:17:06Z</time>
            </trkpt>
            <trkpt lat="46.315780" lon="10.803520">
                <time>2017-07-15T12:17:07Z</time>
            </trkpt>
            <trkpt lat="46.315780" lon="10.803520">
                <time>2017-07-15T12:17:08Z</time>
            </trkpt>
            <trkpt lat="46.315780" lon="10.803520">
                <time>2017-07-15T12:17:09Z</time>
            </trkpt>
            <trkpt lat="46.315780" lon="10.803520">
                <time>2017-07-15T12:17:10Z</time>
            </trkpt>
            <trkpt lat="46.315780" lon="10.803520">
                <time>2017-07-15T12:17:11Z</time>
            </trkpt>
            <trkpt lat="46.315780" lon="10.803520">
                <time>2017-07-15T12:17:12Z</time>
            </trkpt>
            <trkpt lat="46.315780" lon="10.803520">
                <time>2017-07-15T12:17:13Z</time>
            </trkpt>
            <trkpt lat="46.315780" lon="10.803520">
                <time>2017-07-15T12:17:14Z</time>
            </trkpt>
            <trkpt lat="46.315780" lon="10.803520">
                <time>2017-07-15T12:17:15Z</time>
            </trkpt>
            <trkpt lat="46.315780" lon="10.803520">
                <time>2017-07-15T12:17:16Z</time>
            </trkpt>
            <trkpt lat="46.315780" lon="10.803520">
                <time>2017-07-15T12:17:17Z</time>
            </trkpt>
            <trkpt lat="46.315780" lon="10.803520">
                <time>2017-07-15T12:17:18Z</time>
            </trkpt>
            <trkpt lat="46.315780" lon="10.803520">
                <time>2017-07-15T12:17:19Z</time>
            </trkpt>
            <trkpt lat="46.315780" lon="10.803520">
                <time>2017-07-15T12:17:20Z</time>
            </trkpt>
            <trkpt lat="46.315780" lon="10.803520">
                <time>2017-07-15T12:17:21Z</time>
            </trkpt>
            <trkpt lat="46.315780" lon="10.803520">
                <time>2017-07-15T12:17:22Z</time>
            </trkpt>
            <trkpt lat="46.315780" lon="10.803520">
                <time>2017-07-15T12:17:23Z</time>
            </trkpt>
            <trkpt lat="46.315780" lon="10.803520">
                <time>2017-07-15T12:17:24Z</time>
            </trkpt>
            <trkpt lat="46.315780" lon="10.803520">
                <time>2017-07-15T12:17:25Z</time>
            </trkpt>
            <trkpt lat="46.315780" lon="10.803520">
                <time>2017-07-15T12:17:26Z</time>
            </trkpt>
            <trkpt lat="46.315780" lon="10.803520">
                <time>2017-07-15T12:17:27Z</time>
            </trkpt>
            <trkpt lat="46.315780" lon="10.803520">
                <time>2017-07-15T12:17:28Z</time>
            </trkpt>
            <trkpt lat="46.315780" lon="10.803520">
                <time>2017-07-15T12:17:29Z</time>
            </trkpt>
            <trkpt lat="46.315780" lon="10.803520">
                <time>2017-07-15T12:17:30Z</time>
            </trkpt>
            <trkpt lat="46.315780" lon="10.803520">
                <time>2017-07-15T12:17:31Z</time>
            </trkpt>
            <trkpt lat="46.315780" lon="10.803520">
                <time>2017-07-15T12:17:32Z</time>
            </trkpt>
            <trkpt lat="46.315780" lon="10.803520">
                <time>2017-07-15T12:17:33Z</time>
            </trkpt>
            <trkpt lat="46.315780" lon="10.803520">
                <time>2017-07-15T12:17:34Z</time>
            </trkpt>
            <trkpt lat="46.315780" lon="10.803520">
                <time>2017-07-15T12:17:35Z</time>
            </trkpt>
            <trkpt lat="46.315780" lon="10.803520">
                <time>2017-07-15T12:17:36Z</time>
            </trkpt>
            <trkpt lat="46.315780" lon="10.803520">
                <time>2017-07-15T12:17:37Z</time>
            </trkpt>
            <trkpt lat="46.315780" lon="10.803520">
                <time>2017-07-15T12:17:38Z</time>
            </trkpt>
            <trkpt lat="46.315780" lon="10.803520">
                <time>2017-07-15T12:17:39Z</time>
            </trkpt>
            <trkpt lat="46.315780" lon="10.803520">
                <time>2017-07-15T12:17:40Z</time>
            </trkpt>
            <trkpt lat="46.315780" lon="10.803520">
                <time>2017-07-15T12:17:41Z</time>
            </trkpt>
            <trkpt lat="46.315780" lon="10.803520">
                <time>2017-07-15T12:17:42Z</time>
            </trkpt>
            <trkpt lat="46.315780" lon="10.803520">
                <time>2017-07-15T12:17:43Z</time>
            </trkpt>
            <trkpt lat="46.315780" lon="10.803520">
                <time>2017-07-15T12:17:44Z</time>
            </trkpt>
            <trkpt lat="46.315780" lon="10.803520">
                <time>2017-07-15T12:17:45Z</time>
            </trkpt>
            <trkpt lat="46.315780" lon="10.803520">
                <time>2017-07-15T12:17:46Z</time>
            </trkpt>
            <trkpt lat="46.315780" lon="10.803520">
                <time>2017-07-15T12:17:47Z</time>
            </trkpt>
            <trkpt lat="46.315780" lon="10.803520">
                <time>2017-07-15T12:17:48Z</time>
            </trkpt>
            <trkpt lat="46.315780" lon="10.803520">
                <time>2017-07-15T12:17:49Z</time>
            </trkpt>
            <trkpt lat="46.315780" lon="10.803520">
                <time>2017-07-15T12:17:50Z</time>
            </trkpt>
            <trkpt lat="46.315780" lon="10.803520">
                <time>2017-07-15T12:17:51Z</time>
            </trkpt>
            <trkpt lat="46.315780" lon="10.803520">
                <time>2017-07-15T12:17:52Z</time>
            </trkpt>
            <trkpt lat="46.315780" lon="10.803520">
                <time>2017-07-15T12:17:53Z</time>
            </trkpt>
            <trkpt lat="46.315780" lon="10.803520">
                <time>2017-07-15T12:17:54Z</time>
            </trkpt>
            <trkpt lat="46.315780" lon="10.803520">
                <time>2017-07-15T12:17:55Z</time>
            </trkpt>
            <trkpt lat="46.315780" lon="10.803520">
                <time>2017-07-15T12:17:56Z</time>
            </trkpt>
            <trkpt lat="46.315780" lon="10.803520">
                <time>2017-07-15T12:17:57Z</time>
            </trkpt>
            <trkpt lat="46.315780" lon="10.803520">
                <time>2017-07-15T12:17:58Z</time>
            </trkpt>
            <trkpt lat="46.315780" lon="10.803520">
                <time>2017-07-15T12:17:59Z</time>
            </trkpt>
            <trkpt lat="46.315780" lon="10.803520">
                <time>2017-07-15T12:18:00Z</time>
            </trkpt>
            <trkpt lat="46.315780" lon="10.803520">
                <time>2017-07-15T12:18:01Z</time>
            </trkpt>
            <trkpt lat="46.315780" lon="10.803520">
                <time>2017-07-15T12:18:02Z</time>
            </trkpt>
            <trkpt lat="46.315780" lon="10.803520">
                <time>2017-07-15T12:18:03Z</time>
            </trkpt>
            <trkpt lat="46.315780" lon="10.803520">
                <time>2017-07-15T12:18:04Z</time>
            </trkpt>
            <trkpt lat="46.315780" lon="10.803520">
                <time>2017-07-15T12:18:05Z</time>
            </trkpt>
            <trkpt lat="46.315780" lon="10.803520">
                <time>2017-07-15T12:18:06Z</time>
            </trkpt>
            <trkpt lat="46.315780" lon="10.803520">
                <time>2017-07-15T12:18:07Z</time>
            </trkpt>
            <trkpt lat="46.315780" lon="10.803520">
                <time>2017-07-15T12:18:08Z</time>
            </trkpt>
            <trkpt lat="46.315780" lon="10.803520">
                <time>2017-07-15T12:18:09Z</time>
            </trkpt>
            <trkpt lat="46.315780" lon="10.803520">
                <time>2017-07-15T12:18:10Z</time>
            </trkpt>
            <trkpt lat="46.315780" lon="10.803520">
                <time>2017-07-15T12:18:11Z</time>
            </trkpt>
            <trkpt lat="46.315780" lon="10.803520">
                <time>2017-07-15T12:18:12Z</time>
            </trkpt>
            <trkpt lat="46.315780" lon="10.803520">
                <time>2017-07-15T12:18:13Z</time>
            </trkpt>
            <trkpt lat="46.315780" lon="10.803520">
                <time>2017-07-15T12:18:14Z</time>
            </trkpt>
            <trkpt lat="46.315780" lon="10.803520">
                <time>2017-07-15T12:18:15Z</time>
            </trkpt>
            <trkpt lat="46.315780" lon="10.803520">
                <time>2017-07-15T12:18:16Z</time>
            </trkpt>
            <trkpt lat="46.315780" lon="10.803520">
                <time>2017-07-15T12:18:17Z</time>
            </trkpt>
            <trkpt lat="46.315780" lon="10.803520">
                <time>2017-07-15T12:18:18Z</time>
            </trkpt>
            <trkpt lat="46.315780" lon="10.803520">
                <time>2017-07-15T12:18:19Z</time>
            </trkpt>
            <trkpt lat="46.315780" lon="10.803520">
                <time>2017-07-15T12:18:20Z</time>
            </trkpt>
            <trkpt lat="46.315780" lon="10.803520">
                <time>2017-07-15T12:18:21Z</time>
            </trkpt>
            <trkpt lat="46.315780" lon="10.803520">
                <time>2017-07-15T12:18:22Z</time>
            </trkpt>
            <trkpt lat="46.315780" lon="10.803520">
                <time>2017-07-15T12:18:23Z</time>
            </trkpt>
            <trkpt lat="46.315780" lon="10.803520">
                <time>2017-07-15T12:18:24Z</time>
            </trkpt>
            <trkpt lat="46.315780" lon="10.803520">
                <time>2017-07-15T12:18:25Z</time>
            </trkpt>
            <trkpt lat="46.315780" lon="10.803520">
                <time>2017-07-15T12:18:26Z</time>
            </trkpt>
            <trkpt lat="46.315780" lon="10.803520">
                <time>2017-07-15T12:18:27Z</time>
            </trkpt>
            <trkpt lat="46.315780" lon="10.803520">
                <time>2017-07-15T12:18:28Z</time>
            </trkpt>
            <trkpt lat="46.315780" lon="10.803520">
                <time>2017-07-15T12:18:29Z</time>
            </trkpt>
            <trkpt lat="46.315780" lon="10.803520">
                <time>2017-07-15T12:18:30Z</time>
            </trkpt>
            <trkpt lat="46.315780" lon="10.803520">
                <time>2017-07-15T12:18:31Z</time>
            </trkpt>
            <trkpt lat="46.315780" lon="10.803520">
                <time>2017-07-15T12:18:32Z</time>
            </trkpt>
            <trkpt lat="46.315780" lon="10.803520">
                <time>2017-07-15T12:18:33Z</time>
            </trkpt>
            <trkpt lat="46.315780" lon="10.803520">
                <time>2017-07-15T12:18:34Z</time>
            </trkpt>
            <trkpt lat="46.315780" lon="10.803520">
                <time>2017-07-15T12:18:35Z</time>
            </trkpt>
            <trkpt lat="46.315780" lon="10.803520">
                <time>2017-07-15T12:18:36Z</time>
            </trkpt>
            <trkpt lat="46.315780" lon="10.803520">
                <time>2017-07-15T12:18:37Z</time>
            </trkpt>
            <trkpt lat="46.315780" lon="10.803520">
                <time>2017-07-15T12:18:38Z</time>
            </trkpt>
            <trkpt lat="46.315780" lon="10.803520">
                <time>2017-07-15T12:18:39Z</time>
            </trkpt>
            <trkpt lat="46.315780" lon="10.803520">
                <time>2017-07-15T12:18:40Z</time>
            </trkpt>
            <trkpt lat="46.315780" lon="10.803520">
                <time>2017-07-15T12:18:41Z</time>
            </trkpt>
            <trkpt lat="46.315780" lon="10.803520">
                <time>2017-07-15T12:18:42Z</time>
            </trkpt>
            <trkpt lat="46.315780" lon="10.803520">
                <time>2017-07-15T12:18:43Z</time>
            </trkpt>
            <trkpt lat="46.315780" lon="10.803520">
                <time>2017-07-15T12:18:44Z</time>
            </trkpt>
            <trkpt lat="46.315780" lon="10.803520">
                <time>2017-07-15T12:18:45Z</time>
            </trkpt>
            <trkpt lat="46.315780" lon="10.803520">
                <time>2017-07-15T12:18:46Z</time>
            </trkpt>
            <trkpt lat="46.315780" lon="10.803520">
                <time>2017-07-15T12:18:47Z</time>
            </trkpt>
            <trkpt lat="46.315780" lon="10.803520">
                <time>2017-07-15T12:18:48Z</time>
            </trkpt>
            <trkpt lat="46.315780" lon="10.803520">
                <time>2017-07-15T12:18:49Z</time>
            </trkpt>
            <trkpt lat="46.315780" lon="10.803520">
                <time>2017-07-15T12:18:50Z</time>
            </trkpt>
            <trkpt lat="46.315780" lon="10.803520">
                <time>2017-07-15T12:18:51Z</time>
            </trkpt>
            <trkpt lat="46.315780" lon="10.803520">
                <time>2017-07-15T12:18:52Z</time>
            </trkpt>
            <trkpt lat="46.315780" lon="10.803520">
                <time>2017-07-15T12:18:53Z</time>
            </trkpt>
            <trkpt lat="46.315780" lon="10.803520">
                <time>2017-07-15T12:18:54Z</time>
            </trkpt>
            <trkpt lat="46.315780" lon="10.803520">
                <time>2017-07-15T12:18:55Z</time>
            </trkpt>
            <trkpt lat="46.315780" lon="10.803520">
                <time>2017-07-15T12:18:56Z</time>
            </trkpt>
            <trkpt lat="46.315780" lon="10.803520">
                <time>2017-07-15T12:18:57Z</time>
            </trkpt>
            <trkpt lat="46.315780" lon="10.803520">
                <time>2017-07-15T12:18:58Z</time>
            </trkpt>
            <trkpt lat="46.315780" lon="10.803520">
                <time>2017-07-15T12:18:59Z</time>
            </trkpt>
            <trkpt lat="46.315780" lon="10.803520">
                <time>2017-07-15T12:19:00Z</time>
            </trkpt>
            <trkpt lat="46.315780" lon="10.803520">
                <time>2017-07-15T12:19:01Z</time>
            </trkpt>
            <trkpt lat="46.315780" lon="10.803520">
                <time>2017-07-15T12:19:02Z</time>
            </trkpt>
            <trkpt lat="46.315780" lon="10.803520">
                <time>2017-07-15T12:19:03Z</time>
            </trkpt>
            <trkpt lat="46.315780" lon="10.803520">
                <time>2017-07-15T12:19:04Z</time>
            </trkpt>
            <trkpt lat="46.315780" lon="10.803520">
                <time>2017-07-15T12:19:05Z</time>
            </trkpt>
            <trkpt lat="46.315780" lon="10.803520">
                <time>2017-07-15T12:19:06Z</time>
            </trkpt>
            <trkpt lat="46.315780" lon="10.803520">
                <time>2017-07-15T12:19:07Z</time>
            </trkpt>
            <trkpt lat="46.315780" lon="10.803520">
                <time>2017-07-15T12:19:08Z</time>
            </trkpt>
            <trkpt lat="46.315780" lon="10.803520">
                <time>2017-07-15T12:19:09Z</time>
            </trkpt>
            <trkpt lat="46.315780" lon="10.803520">
                <time>2017-07-15T12:19:10Z</time>
            </trkpt>
            <trkpt lat="46.315780" lon="10.803520">
                <time>2017-07-15T12:19:11Z</time>
            </trkpt>
            <trkpt lat="46.315780" lon="10.803520">
                <time>2017-07-15T12:19:12Z</time>
            </trkpt>
            <trkpt lat="46.315780" lon="10.803520">
                <time>2017-07-15T12:19:13Z</time>
            </trkpt>
            <trkpt lat="46.315780" lon="10.803520">
                <time>2017-07-15T12:19:14Z</time>
            </trkpt>
            <trkpt lat="46.315780" lon="10.803520">
                <time>2017-07-15T12:19:15Z</time>
            </trkpt>
            <trkpt lat="46.315780" lon="10.803520">
                <time>2017-07-15T12:19:16Z</time>
            </trkpt>
            <trkpt lat="46.315780" lon="10.803520">
                <time>2017-07-15T12:19:17Z</time>
            </trkpt>
            <trkpt lat="46.315780" lon="10.803520">
                <time>2017-07-15T12:19:18Z</time>
            </trkpt>
            <trkpt lat="46.315780" lon="10.803520">
                <time>2017-07-15T12:19:19Z</time>
            </trkpt>
            <trkpt lat="46.315780" lon="10.803520">
                <time>2017-07-15T12:19:20Z</time>
            </trkpt>
            <trkpt lat="46.315780" lon="10.803520">
                <time>2017-07-15T12:19:21Z</time>
            </trkpt>
            <trkpt lat="46.315780" lon="10.803520">
                <time>2017-07-15T12:19:22Z</time>
            </trkpt>
            <trkpt lat="46.315780" lon="10.803520">
                <time>2017-07-15T12:19:23Z</time>
            </trkpt>
            <trkpt lat="46.315780" lon="10.803520">
                <time>2017-07-15T12:19:24Z</time>
            </trkpt>
            <trkpt lat="46.315780" lon="10.803520">
                <time>2017-07-15T12:19:25Z</time>
            </trkpt>
            <trkpt lat="46.315780" lon="10.803520">
                <time>2017-07-15T12:19:26Z</time>
            </trkpt>
            <trkpt lat="46.315780" lon="10.803520">
                <time>2017-07-15T12:19:27Z</time>
            </trkpt>
            <trkpt lat="46.315780" lon="10.803520">
                <time>2017-07-15T12:19:28Z</time>
            </trkpt>
            <trkpt lat="46.315780" lon="10.803520">
                <time>2017-07-15T12:19:29Z</time>
            </trkpt>
            <trkpt lat="46.315780" lon="10.803520">
                <time>2017-07-15T12:19:30Z</time>
            </trkpt>
            <trkpt lat="46.315780" lon="10.803520">
                <time>2017-07-15T12:19:31Z</time>
            </trkpt>
            <trkpt lat="46.315780" lon="10.803520">
                <time>2017-07-15T12:19:32Z</time>
            </trkpt>
            <trkpt lat="46.315780" lon="10.803520">
                <time>2017-07-15T12:19:33Z</time>
            </trkpt>
            <trkpt lat="46.315780" lon="10.803520">
                <time>2017-07-15T12:19:34Z</time>
            </trkpt>
            <trkpt lat="46.315780" lon="10.803520">
                <time>2017-07-15T12:19:35Z</time>
            </trkpt>
            <trkpt lat="46.315780" lon="10.803520">
                <time>2017-07-15T12:19:36Z</time>
            </trkpt>
            <trkpt lat="46.315780" lon="10.803520">
                <time>2017-07-15T12:19:37Z</time>
            </trkpt>
            <trkpt lat="46.315780" lon="10.803520">
                <time>2017-07-15T12:19:38Z</time>
            </trkpt>
            <trkpt lat="46.315780" lon="10.803520">
                <time>2017-07-15T12:19:39Z</time>
            </trkpt>
            <trkpt lat="46.315780" lon="10.803520">
                <time>2017-07-15T12:19:40Z</time>
            </trkpt>
            <trkpt lat="46.315780" lon="10.803520">
                <time>2017-07-15T12:19:41Z</time>
            </trkpt>
            <trkpt lat="46.315780" lon="10.803520">
                <time>2017-07-15T12:19:42Z</time>
            </trkpt>
            <trkpt lat="46.315780" lon="10.803520">
                <time>2017-07-15T12:19:43Z</time>
            </trkpt>
            <trkpt lat="46.315780" lon="10.803520">
                <time>2017-07-15T12:19:44Z</time>
            </trkpt>
            <trkpt lat="46.315780" lon="10.803520">
                <time>2017-07-15T12:19:45Z</time>
            </trkpt>
            <trkpt lat="46.315780" lon="10.803520">
                <time>2017-07-15T12:19:46Z</time>
            </trkpt>
            <trkpt lat="46.315780" lon="10.803520">
                <time>2017-07-15T12:19:47Z</time>
            </trkpt>
            <trkpt lat="46.315780" lon="10.803520">
                <time>2017-07-15T12:19:48Z</time>
            </trkpt>
            <trkpt lat="46.315780" lon="10.803520">
                <time>2017-07-15T12:19:49Z</time>
            </trkpt>
            <trkpt lat="46.315780" lon="10.803520">
                <time>2017-07-15T12:19:50Z</time>
            </trkpt>
            <trkpt lat="46.315780" lon="10.803520">
                <time>2017-07-15T12:19:51Z</time>
            </trkpt>
            <trkpt lat="46.315780" lon="10.803520">
                <time>2017-07-15T12:19:52Z</time>
            </trkpt>
            <trkpt lat="46.315780" lon="10.803520">
                <time>2017-07-15T12:19:53Z</time>
            </trkpt>
            <trkpt lat="46.315780" lon="10.803520">
                <time>2017-07-15T12:19:54Z</time>
            </trkpt>
            <trkpt lat="46.315780" lon="10.803520">
                <time>2017-07-15T12:19:55Z</time>
            </trkpt>
            <trkpt lat="46.315780" lon="10.803520">
                <time>2017-07-15T12:19:56Z</time>
            </trkpt>
            <trkpt lat="46.315780" lon="10.803520">
                <time>2017-07-15T12:19:57Z</time>
            </trkpt>
            <trkpt lat="46.315780" lon="10.803520">
                <time>2017-07-15T12:19:58Z</time>
            </trkpt>
            <trkpt lat="46.315780" lon="10.803520">
                <time>2017-07-15T12:19:59Z</time>
            </trkpt>
            <trkpt lat="46.315780" lon="10.803520">
                <time>2017-07-15T12:20:00Z</time>
            </trkpt>
            <trkpt lat="46.315780" lon="10.803520">
                <time>2017-07-15T12:20:01Z</time>
            </trkpt>
            <trkpt lat="46.315780" lon="10.803520">
                <time>2017-07-15T12:20:02Z</time>
            </trkpt>
            <trkpt lat="46.315780" lon="10.803520">
                <time>2017-07-15T12:20:03Z</time>
            </trkpt>
            <trkpt lat="46.315780" lon="10.803520">
                <time>2017-07-15T12:20:04Z</time>
            </trkpt>
            <trkpt lat="46.315780" lon="10.803520">
                <time>2017-07-15T12:20:05Z</time>
            </trkpt>
            <trkpt lat="46.315780" lon="10.803520">
                <time>2017-07-15T12:20:06Z</time>
            </trkpt>
            <trkpt lat="46.315810" lon="10.803500">
                <time>2017-07-15T12:20:07Z</time>
            </trkpt>
            <trkpt lat="46.315810" lon="10.803500">
                <time>2017-07-15T12:20:08Z</time>
            </trkpt>
            <trkpt lat="46.315810" lon="10.803500">
                <time>2017-07-15T12:20:09Z</time>
            </trkpt>
            <trkpt lat="46.315810" lon="10.803500">
                <time>2017-07-15T12:20:10Z</time>
            </trkpt>
            <trkpt lat="46.315810" lon="10.803500">
                <time>2017-07-15T12:20:11Z</time>
            </trkpt>
            <trkpt lat="46.315810" lon="10.803500">
                <time>2017-07-15T12:20:12Z</time>
            </trkpt>
            <trkpt lat="46.315810" lon="10.803500">
                <time>2017-07-15T12:20:13Z</time>
            </trkpt>
            <trkpt lat="46.315810" lon="10.803500">
                <time>2017-07-15T12:20:14Z</time>
            </trkpt>
            <trkpt lat="46.315810" lon="10.803500">
                <time>2017-07-15T12:20:15Z</time>
            </trkpt>
            <trkpt lat="46.315810" lon="10.803500">
                <time>2017-07-15T12:20:16Z</time>
            </trkpt>
            <trkpt lat="46.315810" lon="10.803500">
                <time>2017-07-15T12:20:17Z</time>
            </trkpt>
            <trkpt lat="46.315810" lon="10.803500">
                <time>2017-07-15T12:20:18Z</time>
            </trkpt>
            <trkpt lat="46.315810" lon="10.803500">
                <time>2017-07-15T12:20:19Z</time>
            </trkpt>
            <trkpt lat="46.315810" lon="10.803500">
                <time>2017-07-15T12:20:20Z</time>
            </trkpt>
            <trkpt lat="46.315810" lon="10.803500">
                <time>2017-07-15T12:20:21Z</time>
            </trkpt>
            <trkpt lat="46.315810" lon="10.803500">
                <time>2017-07-15T12:20:22Z</time>
            </trkpt>
            <trkpt lat="46.315810" lon="10.803500">
                <time>2017-07-15T12:20:23Z</time>
            </trkpt>
            <trkpt lat="46.315810" lon="10.803500">
                <time>2017-07-15T12:20:24Z</time>
            </trkpt>
            <trkpt lat="46.315810" lon="10.803500">
                <time>2017-07-15T12:20:25Z</time>
            </trkpt>
            <trkpt lat="46.315810" lon="10.803500">
                <time>2017-07-15T12:20:26Z</time>
            </trkpt>
            <trkpt lat="46.315810" lon="10.803500">
                <time>2017-07-15T12:20:27Z</time>
            </trkpt>
            <trkpt lat="46.315810" lon="10.803500">
                <time>2017-07-15T12:20:28Z</time>
            </trkpt>
            <trkpt lat="46.315810" lon="10.803500">
                <time>2017-07-15T12:20:29Z</time>
            </trkpt>
            <trkpt lat="46.315810" lon="10.803500">
                <time>2017-07-15T12:20:30Z</time>
            </trkpt>
            <trkpt lat="46.315810" lon="10.803500">
                <time>2017-07-15T12:20:31Z</time>
            </trkpt>
            <trkpt lat="46.315810" lon="10.803500">
                <time>2017-07-15T12:20:32Z</time>
            </trkpt>
            <trkpt lat="46.315810" lon="10.803500">
                <time>2017-07-15T12:20:33Z</time>
            </trkpt>
            <trkpt lat="46.315810" lon="10.803500">
                <time>2017-07-15T12:20:34Z</time>
            </trkpt>
            <trkpt lat="46.315810" lon="10.803500">
                <time>2017-07-15T12:20:35Z</time>
            </trkpt>
            <trkpt lat="46.315810" lon="10.803500">
                <time>2017-07-15T12:20:36Z</time>
            </trkpt>
            <trkpt lat="46.315810" lon="10.803500">
                <time>2017-07-15T12:20:37Z</time>
            </trkpt>
            <trkpt lat="46.315810" lon="10.803500">
                <time>2017-07-15T12:20:38Z</time>
            </trkpt>
            <trkpt lat="46.315810" lon="10.803500">
                <time>2017-07-15T12:20:39Z</time>
            </trkpt>
            <trkpt lat="46.315810" lon="10.803500">
                <time>2017-07-15T12:20:40Z</time>
            </trkpt>
            <trkpt lat="46.315810" lon="10.803500">
                <time>2017-07-15T12:20:41Z</time>
            </trkpt>
            <trkpt lat="46.315810" lon="10.803500">
                <time>2017-07-15T12:20:42Z</time>
            </trkpt>
            <trkpt lat="46.315810" lon="10.803500">
                <time>2017-07-15T12:20:43Z</time>
            </trkpt>
            <trkpt lat="46.315810" lon="10.803500">
                <time>2017-07-15T12:20:44Z</time>
            </trkpt>
            <trkpt lat="46.315810" lon="10.803500">
                <time>2017-07-15T12:20:45Z</time>
            </trkpt>
            <trkpt lat="46.315810" lon="10.803500">
                <time>2017-07-15T12:20:46Z</time>
            </trkpt>
            <trkpt lat="46.315810" lon="10.803500">
                <time>2017-07-15T12:20:47Z</time>
            </trkpt>
            <trkpt lat="46.315810" lon="10.803500">
                <time>2017-07-15T12:20:48Z</time>
            </trkpt>
            <trkpt lat="46.315810" lon="10.803500">
                <time>2017-07-15T12:20:49Z</time>
            </trkpt>
            <trkpt lat="46.315810" lon="10.803500">
                <time>2017-07-15T12:20:50Z</time>
            </trkpt>
            <trkpt lat="46.315810" lon="10.803500">
                <time>2017-07-15T12:20:51Z</time>
            </trkpt>
            <trkpt lat="46.315810" lon="10.803500">
                <time>2017-07-15T12:20:52Z</time>
            </trkpt>
            <trkpt lat="46.315810" lon="10.803500">
                <time>2017-07-15T12:20:53Z</time>
            </trkpt>
            <trkpt lat="46.315810" lon="10.803500">
                <time>2017-07-15T12:20:54Z</time>
            </trkpt>
            <trkpt lat="46.315810" lon="10.803500">
                <time>2017-07-15T12:20:55Z</time>
            </trkpt>
            <trkpt lat="46.315810" lon="10.803500">
                <time>2017-07-15T12:20:56Z</time>
            </trkpt>
            <trkpt lat="46.315810" lon="10.803500">
                <time>2017-07-15T12:20:57Z</time>
            </trkpt>
            <trkpt lat="46.315810" lon="10.803500">
                <time>2017-07-15T12:20:58Z</time>
            </trkpt>
            <trkpt lat="46.315810" lon="10.803500">
                <time>2017-07-15T12:20:59Z</time>
            </trkpt>
            <trkpt lat="46.315810" lon="10.803500">
                <time>2017-07-15T12:21:00Z</time>
            </trkpt>
            <trkpt lat="46.315810" lon="10.803500">
                <time>2017-07-15T12:21:01Z</time>
            </trkpt>
            <trkpt lat="46.315810" lon="10.803500">
                <time>2017-07-15T12:21:02Z</time>
            </trkpt>
            <trkpt lat="46.315810" lon="10.803500">
                <time>2017-07-15T12:21:03Z</time>
            </trkpt>
            <trkpt lat="46.315810" lon="10.803500">
                <time>2017-07-15T12:21:04Z</time>
            </trkpt>
            <trkpt lat="46.315810" lon="10.803500">
                <time>2017-07-15T12:21:05Z</time>
            </trkpt>
            <trkpt lat="46.315810" lon="10.803500">
                <time>2017-07-15T12:21:06Z</time>
            </trkpt>
            <trkpt lat="46.315810" lon="10.803500">
                <time>2017-07-15T12:21:07Z</time>
            </trkpt>
            <trkpt lat="46.315810" lon="10.803500">
                <time>2017-07-15T12:21:08Z</time>
            </trkpt>
            <trkpt lat="46.315810" lon="10.803500">
                <time>2017-07-15T12:21:09Z</time>
            </trkpt>
            <trkpt lat="46.315810" lon="10.803500">
                <time>2017-07-15T12:21:10Z</time>
            </trkpt>
            <trkpt lat="46.315810" lon="10.803500">
                <time>2017-07-15T12:21:11Z</time>
            </trkpt>
            <trkpt lat="46.315810" lon="10.803500">
                <time>2017-07-15T12:21:12Z</time>
            </trkpt>
            <trkpt lat="46.315810" lon="10.803500">
                <time>2017-07-15T12:21:13Z</time>
            </trkpt>
            <trkpt lat="46.315810" lon="10.803500">
                <time>2017-07-15T12:21:14Z</time>
            </trkpt>
            <trkpt lat="46.315810" lon="10.803500">
                <time>2017-07-15T12:21:15Z</time>
            </trkpt>
            <trkpt lat="46.315810" lon="10.803500">
                <time>2017-07-15T12:21:16Z</time>
            </trkpt>
            <trkpt lat="46.315810" lon="10.803500">
                <time>2017-07-15T12:21:17Z</time>
            </trkpt>
            <trkpt lat="46.315810" lon="10.803500">
                <time>2017-07-15T12:21:18Z</time>
            </trkpt>
            <trkpt lat="46.315810" lon="10.803500">
                <time>2017-07-15T12:21:19Z</time>
            </trkpt>
            <trkpt lat="46.315810" lon="10.803500">
                <time>2017-07-15T12:21:20Z</time>
            </trkpt>
            <trkpt lat="46.315810" lon="10.803500">
                <time>2017-07-15T12:21:21Z</time>
            </trkpt>
            <trkpt lat="46.315810" lon="10.803500">
                <time>2017-07-15T12:21:22Z</time>
            </trkpt>
            <trkpt lat="46.315810" lon="10.803500">
                <time>2017-07-15T12:21:23Z</time>
            </trkpt>
            <trkpt lat="46.315810" lon="10.803500">
                <time>2017-07-15T12:21:24Z</time>
            </trkpt>
            <trkpt lat="46.315810" lon="10.803500">
                <time>2017-07-15T12:21:25Z</time>
            </trkpt>
            <trkpt lat="46.315810" lon="10.803500">
                <time>2017-07-15T12:21:26Z</time>
            </trkpt>
            <trkpt lat="46.315810" lon="10.803500">
                <time>2017-07-15T12:21:27Z</time>
            </trkpt>
            <trkpt lat="46.315810" lon="10.803500">
                <time>2017-07-15T12:21:28Z</time>
            </trkpt>
            <trkpt lat="46.315810" lon="10.803500">
                <time>2017-07-15T12:21:29Z</time>
            </trkpt>
            <trkpt lat="46.315810" lon="10.803500">
                <time>2017-07-15T12:21:30Z</time>
            </trkpt>
            <trkpt lat="46.315810" lon="10.803500">
                <time>2017-07-15T12:21:31Z</time>
            </trkpt>
            <trkpt lat="46.315810" lon="10.803500">
                <time>2017-07-15T12:21:32Z</time>
            </trkpt>
            <trkpt lat="46.315810" lon="10.803500">
                <time>2017-07-15T12:21:33Z</time>
            </trkpt>
            <trkpt lat="46.315810" lon="10.803500">
                <time>2017-07-15T12:21:34Z</time>
            </trkpt>
            <trkpt lat="46.315810" lon="10.803500">
                <time>2017-07-15T12:21:35Z</time>
            </trkpt>
            <trkpt lat="46.315810" lon="10.803500">
                <time>2017-07-15T12:21:36Z</time>
            </trkpt>
            <trkpt lat="46.315810" lon="10.803500">
                <time>2017-07-15T12:21:37Z</time>
            </trkpt>
            <trkpt lat="46.315810" lon="10.803500">
                <time>2017-07-15T12:21:38Z</time>
            </trkpt>
            <trkpt lat="46.315810" lon="10.803500">
                <time>2017-07-15T12:21:39Z</time>
            </trkpt>
            <trkpt lat="46.315810" lon="10.803500">
                <time>2017-07-15T12:21:40Z</time>
            </trkpt>
            <trkpt lat="46.315810" lon="10.803500">
                <time>2017-07-15T12:21:41Z</time>
            </trkpt>
            <trkpt lat="46.315810" lon="10.803500">
                <time>2017-07-15T12:21:42Z</time>
            </trkpt>
            <trkpt lat="46.315810" lon="10.803500">
                <time>2017-07-15T12:21:43Z</time>
            </trkpt>
            <trkpt lat="46.315810" lon="10.803500">
                <time>2017-07-15T12:21:44Z</time>
            </trkpt>
            <trkpt lat="46.315810" lon="10.803500">
                <time>2017-07-15T12:21:45Z</time>
            </trkpt>
            <trkpt lat="46.315810" lon="10.803500">
                <time>2017-07-15T12:21:46Z</time>
            </trkpt>
            <trkpt lat="46.315810" lon="10.803500">
                <time>2017-07-15T12:21:47Z</time>
            </trkpt>
            <trkpt lat="46.315810" lon="10.803500">
                <time>2017-07-15T12:21:48Z</time>
            </trkpt>
            <trkpt lat="46.315810" lon="10.803500">
                <time>2017-07-15T12:21:49Z</time>
            </trkpt>
            <trkpt lat="46.315810" lon="10.803500">
                <time>2017-07-15T12:21:50Z</time>
            </trkpt>
            <trkpt lat="46.315810" lon="10.803500">
                <time>2017-07-15T12:21:51Z</time>
            </trkpt>
            <trkpt lat="46.315810" lon="10.803500">
                <time>2017-07-15T12:21:52Z</time>
            </trkpt>
            <trkpt lat="46.315810" lon="10.803500">
                <time>2017-07-15T12:21:53Z</time>
            </trkpt>
            <trkpt lat="46.315810" lon="10.803500">
                <time>2017-07-15T12:21:54Z</time>
            </trkpt>
            <trkpt lat="46.315810" lon="10.803500">
                <time>2017-07-15T12:21:55Z</time>
            </trkpt>
            <trkpt lat="46.315810" lon="10.803500">
                <time>2017-07-15T12:21:56Z</time>
            </trkpt>
            <trkpt lat="46.315810" lon="10.803500">
                <time>2017-07-15T12:21:57Z</time>
            </trkpt>
            <trkpt lat="46.315810" lon="10.803500">
                <time>2017-07-15T12:21:58Z</time>
            </trkpt>
            <trkpt lat="46.315810" lon="10.803500">
                <time>2017-07-15T12:21:59Z</time>
            </trkpt>
            <trkpt lat="46.315810" lon="10.803500">
                <time>2017-07-15T12:22:00Z</time>
            </trkpt>
            <trkpt lat="46.315810" lon="10.803500">
                <time>2017-07-15T12:22:01Z</time>
            </trkpt>
            <trkpt lat="46.315810" lon="10.803500">
                <time>2017-07-15T12:22:02Z</time>
            </trkpt>
            <trkpt lat="46.315810" lon="10.803500">
                <time>2017-07-15T12:22:03Z</time>
            </trkpt>
            <trkpt lat="46.315810" lon="10.803500">
                <time>2017-07-15T12:22:04Z</time>
            </trkpt>
            <trkpt lat="46.315810" lon="10.803500">
                <time>2017-07-15T12:22:05Z</time>
            </trkpt>
            <trkpt lat="46.315810" lon="10.803500">
                <time>2017-07-15T12:22:06Z</time>
            </trkpt>
            <trkpt lat="46.315810" lon="10.803500">
                <time>2017-07-15T12:22:07Z</time>
            </trkpt>
            <trkpt lat="46.315810" lon="10.803500">
                <time>2017-07-15T12:22:08Z</time>
            </trkpt>
            <trkpt lat="46.315810" lon="10.803500">
                <time>2017-07-15T12:22:09Z</time>
            </trkpt>
            <trkpt lat="46.315810" lon="10.803500">
                <time>2017-07-15T12:22:10Z</time>
            </trkpt>
            <trkpt lat="46.315810" lon="10.803500">
                <time>2017-07-15T12:22:11Z</time>
            </trkpt>
            <trkpt lat="46.315810" lon="10.803500">
                <time>2017-07-15T12:22:12Z</time>
            </trkpt>
            <trkpt lat="46.315810" lon="10.803500">
                <time>2017-07-15T12:22:13Z</time>
            </trkpt>
            <trkpt lat="46.315810" lon="10.803500">
                <time>2017-07-15T12:22:14Z</time>
            </trkpt>
            <trkpt lat="46.315810" lon="10.803500">
                <time>2017-07-15T12:22:15Z</time>
            </trkpt>
            <trkpt lat="46.315810" lon="10.803500">
                <time>2017-07-15T12:22:16Z</time>
            </trkpt>
            <trkpt lat="46.315810" lon="10.803500">
                <time>2017-07-15T12:22:17Z</time>
            </trkpt>
            <trkpt lat="46.315810" lon="10.803500">
                <time>2017-07-15T12:22:18Z</time>
            </trkpt>
            <trkpt lat="46.315810" lon="10.803500">
                <time>2017-07-15T12:22:19Z</time>
            </trkpt>
            <trkpt lat="46.315810" lon="10.803500">
                <time>2017-07-15T12:22:20Z</time>
            </trkpt>
            <trkpt lat="46.315810" lon="10.803500">
                <time>2017-07-15T12:22:21Z</time>
            </trkpt>
            <trkpt lat="46.315810" lon="10.803500">
                <time>2017-07-15T12:22:22Z</time>
            </trkpt>
            <trkpt lat="46.315810" lon="10.803500">
                <time>2017-07-15T12:22:23Z</time>
            </trkpt>
            <trkpt lat="46.315810" lon="10.803500">
                <time>2017-07-15T12:22:24Z</time>
            </trkpt>
            <trkpt lat="46.315810" lon="10.803500">
                <time>2017-07-15T12:22:25Z</time>
            </trkpt>
            <trkpt lat="46.315810" lon="10.803500">
                <time>2017-07-15T12:22:26Z</time>
            </trkpt>
            <trkpt lat="46.315810" lon="10.803500">
                <time>2017-07-15T12:22:27Z</time>
            </trkpt>
            <trkpt lat="46.315810" lon="10.803500">
                <time>2017-07-15T12:22:28Z</time>
            </trkpt>
            <trkpt lat="46.315810" lon="10.803500">
                <time>2017-07-15T12:22:29Z</time>
            </trkpt>
            <trkpt lat="46.315810" lon="10.803500">
                <time>2017-07-15T12:22:30Z</time>
            </trkpt>
            <trkpt lat="46.315810" lon="10.803500">
                <time>2017-07-15T12:22:31Z</time>
            </trkpt>
            <trkpt lat="46.315810" lon="10.803500">
                <time>2017-07-15T12:22:32Z</time>
            </trkpt>
            <trkpt lat="46.315810" lon="10.803500">
                <time>2017-07-15T12:22:33Z</time>
            </trkpt>
            <trkpt lat="46.315810" lon="10.803500">
                <time>2017-07-15T12:22:34Z</time>
            </trkpt>
            <trkpt lat="46.315810" lon="10.803500">
                <time>2017-07-15T12:22:35Z</time>
            </trkpt>
            <trkpt lat="46.315810" lon="10.803500">
                <time>2017-07-15T12:22:36Z</time>
            </trkpt>
            <trkpt lat="46.315810" lon="10.803500">
                <time>2017-07-15T12:22:37Z</time>
            </trkpt>
            <trkpt lat="46.315810" lon="10.803500">
                <time>2017-07-15T12:22:38Z</time>
            </trkpt>
            <trkpt lat="46.315810" lon="10.803500">
                <time>2017-07-15T12:22:39Z</time>
            </trkpt>
            <trkpt lat="46.315810" lon="10.803500">
                <time>2017-07-15T12:22:40Z</time>
            </trkpt>
            <trkpt lat="46.315810" lon="10.803500">
                <time>2017-07-15T12:22:41Z</time>
            </trkpt>
            <trkpt lat="46.315810" lon="10.803500">
                <time>2017-07-15T12:22:42Z</time>
            </trkpt>
            <trkpt lat="46.315810" lon="10.803500">
                <time>2017-07-15T12:22:43Z</time>
            </trkpt>
            <trkpt lat="46.315810" lon="10.803500">
                <time>2017-07-15T12:22:44Z</time>
            </trkpt>
            <trkpt lat="46.315810" lon="10.803500">
                <time>2017-07-15T12:22:45Z</time>
            </trkpt>
            <trkpt lat="46.315810" lon="10.803500">
                <time>2017-07-15T12:22:46Z</time>
            </trkpt>
            <trkpt lat="46.315810" lon="10.803500">
                <time>2017-07-15T12:22:47Z</time>
            </trkpt>
            <trkpt lat="46.315810" lon="10.803500">
                <time>2017-07-15T12:22:48Z</time>
            </trkpt>
            <trkpt lat="46.315810" lon="10.803500">
                <time>2017-07-15T12:22:49Z</time>
            </trkpt>
            <trkpt lat="46.315810" lon="10.803500">
                <time>2017-07-15T12:22:50Z</time>
            </trkpt>
            <trkpt lat="46.315810" lon="10.803500">
                <time>2017-07-15T12:22:51Z</time>
            </trkpt>
            <trkpt lat="46.315810" lon="10.803500">
                <time>2017-07-15T12:22:52Z</time>
            </trkpt>
            <trkpt lat="46.315810" lon="10.803500">
                <time>2017-07-15T12:22:53Z</time>
            </trkpt>
            <trkpt lat="46.315810" lon="10.803500">
                <time>2017-07-15T12:22:54Z</time>
            </trkpt>
            <trkpt lat="46.315810" lon="10.803500">
                <time>2017-07-15T12:22:55Z</time>
            </trkpt>
            <trkpt lat="46.315810" lon="10.803500">
                <time>2017-07-15T12:22:56Z</time>
            </trkpt>
            <trkpt lat="46.315810" lon="10.803500">
                <time>2017-07-15T12:22:57Z</time>
            </trkpt>
            <trkpt lat="46.315810" lon="10.803500">
                <time>2017-07-15T12:22:58Z</time>
            </trkpt>
            <trkpt lat="46.315810" lon="10.803500">
                <time>2017-07-15T12:22:59Z</time>
            </trkpt>
            <trkpt lat="46.315810" lon="10.803500">
                <time>2017-07-15T12:23:00Z</time>
            </trkpt>
            <trkpt lat="46.315810" lon="10.803500">
                <time>2017-07-15T12:23:01Z</time>
            </trkpt>
            <trkpt lat="46.315810" lon="10.803500">
                <time>2017-07-15T12:23:02Z</time>
            </trkpt>
            <trkpt lat="46.315810" lon="10.803500">
                <time>2017-07-15T12:23:03Z</time>
            </trkpt>
            <trkpt lat="46.315810" lon="10.803500">
                <time>2017-07-15T12:23:04Z</time>
            </trkpt>
            <trkpt lat="46.315810" lon="10.803500">
                <time>2017-07-15T12:23:05Z</time>
            </trkpt>
            <trkpt lat="46.315810" lon="10.803500">
                <time>2017-07-15T12:23:06Z</time>
            </trkpt>
            <trkpt lat="46.315810" lon="10.803500">
                <time>2017-07-15T12:23:07Z</time>
            </trkpt>
            <trkpt lat="46.315810" lon="10.803500">
                <time>2017-07-15T12:23:08Z</time>
            </trkpt>
            <trkpt lat="46.315810" lon="10.803500">
                <time>2017-07-15T12:23:09Z</time>
            </trkpt>
            <trkpt lat="46.315810" lon="10.803500">
                <time>2017-07-15T12:23:10Z</time>
            </trkpt>
            <trkpt lat="46.315810" lon="10.803500">
                <time>2017-07-15T12:23:11Z</time>
            </trkpt>
            <trkpt lat="46.315810" lon="10.803500">
                <time>2017-07-15T12:23:12Z</time>
            </trkpt>
            <trkpt lat="46.315810" lon="10.803500">
                <time>2017-07-15T12:23:13Z</time>
            </trkpt>
            <trkpt lat="46.315810" lon="10.803500">
                <time>2017-07-15T12:23:14Z</time>
            </trkpt>
            <trkpt lat="46.315810" lon="10.803500">
                <time>2017-07-15T12:23:15Z</time>
            </trkpt>
            <trkpt lat="46.315810" lon="10.803500">
                <time>2017-07-15T12:23:16Z</time>
            </trkpt>
            <trkpt lat="46.315810" lon="10.803500">
                <time>2017-07-15T12:23:17Z</time>
            </trkpt>
            <trkpt lat="46.315810" lon="10.803500">
                <time>2017-07-15T12:23:18Z</time>
            </trkpt>
            <trkpt lat="46.315810" lon="10.803500">
                <time>2017-07-15T12:23:19Z</time>
            </trkpt>
            <trkpt lat="46.315810" lon="10.803500">
                <time>2017-07-15T12:23:20Z</time>
            </trkpt>
            <trkpt lat="46.315810" lon="10.803500">
                <time>2017-07-15T12:23:21Z</time>
            </trkpt>
            <trkpt lat="46.315810" lon="10.803500">
                <time>2017-07-15T12:23:22Z</time>
            </trkpt>
            <trkpt lat="46.315810" lon="10.803500">
                <time>2017-07-15T12:23:23Z</time>
            </trkpt>
            <trkpt lat="46.315810" lon="10.803500">
                <time>2017-07-15T12:23:24Z</time>
            </trkpt>
            <trkpt lat="46.315810" lon="10.803500">
                <time>2017-07-15T12:23:25Z</time>
            </trkpt>
            <trkpt lat="46.315810" lon="10.803500">
                <time>2017-07-15T12:23:26Z</time>
            </trkpt>
            <trkpt lat="46.315810" lon="10.803500">
                <time>2017-07-15T12:23:27Z</time>
            </trkpt>
            <trkpt lat="46.315810" lon="10.803500">
                <time>2017-07-15T12:23:28Z</time>
            </trkpt>
            <trkpt lat="46.315810" lon="10.803500">
                <time>2017-07-15T12:23:29Z</time>
            </trkpt>
            <trkpt lat="46.315810" lon="10.803500">
                <time>2017-07-15T12:23:30Z</time>
            </trkpt>
            <trkpt lat="46.315810" lon="10.803500">
                <time>2017-07-15T12:23:31Z</time>
            </trkpt>
            <trkpt lat="46.315810" lon="10.803500">
                <time>2017-07-15T12:23:32Z</time>
            </trkpt>
            <trkpt lat="46.315810" lon="10.803500">
                <time>2017-07-15T12:23:33Z</time>
            </trkpt>
            <trkpt lat="46.315810" lon="10.803500">
                <time>2017-07-15T12:23:34Z</time>
            </trkpt>
            <trkpt lat="46.315810" lon="10.803500">
                <time>2017-07-15T12:23:35Z</time>
            </trkpt>
            <trkpt lat="46.315810" lon="10.803500">
                <time>2017-07-15T12:23:36Z</time>
            </trkpt>
            <trkpt lat="46.315810" lon="10.803500">
                <time>2017-07-15T12:23:37Z</time>
            </trkpt>
            <trkpt lat="46.315810" lon="10.803500">
                <time>2017-07-15T12:23:38Z</time>
            </trkpt>
            <trkpt lat="46.315810" lon="10.803500">
                <time>2017-07-15T12:23:39Z</time>
            </trkpt>
            <trkpt lat="46.315810" lon="10.803500">
                <time>2017-07-15T12:23:40Z</time>
            </trkpt>
            <trkpt lat="46.315810" lon="10.803500">
                <time>2017-07-15T12:23:41Z</time>
            </trkpt>
            <trkpt lat="46.315810" lon="10.803500">
                <time>2017-07-15T12:23:42Z</time>
            </trkpt>
            <trkpt lat="46.315810" lon="10.803500">
                <time>2017-07-15T12:23:43Z</time>
            </trkpt>
            <trkpt lat="46.315810" lon="10.803500">
                <time>2017-07-15T12:23:44Z</time>
            </trkpt>
            <trkpt lat="46.315810" lon="10.803500">
                <time>2017-07-15T12:23:45Z</time>
            </trkpt>
            <trkpt lat="46.315810" lon="10.803500">
                <time>2017-07-15T12:23:46Z</time>
            </trkpt>
            <trkpt lat="46.315810" lon="10.803500">
                <time>2017-07-15T12:23:47Z</time>
            </trkpt>
            <trkpt lat="46.315810" lon="10.803500">
                <time>2017-07-15T12:23:48Z</time>
            </trkpt>
            <trkpt lat="46.315810" lon="10.803500">
                <time>2017-07-15T12:23:49Z</time>
            </trkpt>
            <trkpt lat="46.315810" lon="10.803500">
                <time>2017-07-15T12:23:50Z</time>
            </trkpt>
            <trkpt lat="46.315810" lon="10.803500">
                <time>2017-07-15T12:23:51Z</time>
            </trkpt>
            <trkpt lat="46.315810" lon="10.803500">
                <time>2017-07-15T12:23:52Z</time>
            </trkpt>
            <trkpt lat="46.315810" lon="10.803500">
                <time>2017-07-15T12:23:53Z</time>
            </trkpt>
            <trkpt lat="46.315810" lon="10.803500">
                <time>2017-07-15T12:23:54Z</time>
            </trkpt>
            <trkpt lat="46.315810" lon="10.803500">
                <time>2017-07-15T12:23:55Z</time>
            </trkpt>
            <trkpt lat="46.315810" lon="10.803500">
                <time>2017-07-15T12:23:56Z</time>
            </trkpt>
            <trkpt lat="46.315810" lon="10.803500">
                <time>2017-07-15T12:23:57Z</time>
            </trkpt>
            <trkpt lat="46.315810" lon="10.803500">
                <time>2017-07-15T12:23:58Z</time>
            </trkpt>
            <trkpt lat="46.315810" lon="10.803500">
                <time>2017-07-15T12:23:59Z</time>
            </trkpt>
            <trkpt lat="46.315810" lon="10.803500">
                <time>2017-07-15T12:24:00Z</time>
            </trkpt>
            <trkpt lat="46.315810" lon="10.803500">
                <time>2017-07-15T12:24:01Z</time>
            </trkpt>
            <trkpt lat="46.315810" lon="10.803500">
                <time>2017-07-15T12:24:02Z</time>
            </trkpt>
            <trkpt lat="46.315810" lon="10.803500">
                <time>2017-07-15T12:24:03Z</time>
            </trkpt>
            <trkpt lat="46.315810" lon="10.803500">
                <time>2017-07-15T12:24:04Z</time>
            </trkpt>
            <trkpt lat="46.315810" lon="10.803500">
                <time>2017-07-15T12:24:05Z</time>
            </trkpt>
            <trkpt lat="46.315810" lon="10.803500">
                <time>2017-07-15T12:24:06Z</time>
            </trkpt>
            <trkpt lat="46.315810" lon="10.803500">
                <time>2017-07-15T12:24:07Z</time>
            </trkpt>
            <trkpt lat="46.315810" lon="10.803500">
                <time>2017-07-15T12:24:08Z</time>
            </trkpt>
            <trkpt lat="46.315810" lon="10.803500">
                <time>2017-07-15T12:24:09Z</time>
            </trkpt>
            <trkpt lat="46.315810" lon="10.803500">
                <time>2017-07-15T12:24:10Z</time>
            </trkpt>
            <trkpt lat="46.315810" lon="10.803500">
                <time>2017-07-15T12:24:11Z</time>
            </trkpt>
            <trkpt lat="46.315810" lon="10.803500">
                <time>2017-07-15T12:24:12Z</time>
            </trkpt>
            <trkpt lat="46.315810" lon="10.803500">
                <time>2017-07-15T12:24:13Z</time>
            </trkpt>
            <trkpt lat="46.315810" lon="10.803500">
                <time>2017-07-15T12:24:14Z</time>
            </trkpt>
            <trkpt lat="46.315810" lon="10.803500">
                <time>2017-07-15T12:24:15Z</time>
            </trkpt>
            <trkpt lat="46.315810" lon="10.803500">
                <time>2017-07-15T12:24:16Z</time>
            </trkpt>
            <trkpt lat="46.315810" lon="10.803500">
                <time>2017-07-15T12:24:17Z</time>
            </trkpt>
            <trkpt lat="46.315810" lon="10.803500">
                <time>2017-07-15T12:24:18Z</time>
            </trkpt>
            <trkpt lat="46.315810" lon="10.803500">
                <time>2017-07-15T12:24:19Z</time>
            </trkpt>
            <trkpt lat="46.315810" lon="10.803500">
                <time>2017-07-15T12:24:20Z</time>
            </trkpt>
            <trkpt lat="46.315810" lon="10.803500">
                <time>2017-07-15T12:24:21Z</time>
            </trkpt>
            <trkpt lat="46.315810" lon="10.803500">
                <time>2017-07-15T12:24:22Z</time>
            </trkpt>
            <trkpt lat="46.315810" lon="10.803500">
                <time>2017-07-15T12:24:23Z</time>
            </trkpt>
            <trkpt lat="46.315810" lon="10.803500">
                <time>2017-07-15T12:24:24Z</time>
            </trkpt>
            <trkpt lat="46.315810" lon="10.803500">
                <time>2017-07-15T12:24:25Z</time>
            </trkpt>
            <trkpt lat="46.315810" lon="10.803500">
                <time>2017-07-15T12:24:26Z</time>
            </trkpt>
            <trkpt lat="46.315810" lon="10.803500">
                <time>2017-07-15T12:24:27Z</time>
            </trkpt>
            <trkpt lat="46.315810" lon="10.803500">
                <time>2017-07-15T12:24:28Z</time>
            </trkpt>
            <trkpt lat="46.315810" lon="10.803500">
                <time>2017-07-15T12:24:29Z</time>
            </trkpt>
            <trkpt lat="46.315810" lon="10.803500">
                <time>2017-07-15T12:24:30Z</time>
            </trkpt>
            <trkpt lat="46.315810" lon="10.803500">
                <time>2017-07-15T12:24:31Z</time>
            </trkpt>
            <trkpt lat="46.315810" lon="10.803500">
                <time>2017-07-15T12:24:32Z</time>
            </trkpt>
            <trkpt lat="46.315810" lon="10.803500">
                <time>2017-07-15T12:24:33Z</time>
            </trkpt>
            <trkpt lat="46.315810" lon="10.803500">
                <time>2017-07-15T12:24:34Z</time>
            </trkpt>
            <trkpt lat="46.315810" lon="10.803500">
                <time>2017-07-15T12:24:35Z</time>
            </trkpt>
            <trkpt lat="46.315810" lon="10.803500">
                <time>2017-07-15T12:24:36Z</time>
            </trkpt>
            <trkpt lat="46.315810" lon="10.803500">
                <time>2017-07-15T12:24:37Z</time>
            </trkpt>
            <trkpt lat="46.315810" lon="10.803500">
                <time>2017-07-15T12:24:38Z</time>
            </trkpt>
            <trkpt lat="46.315810" lon="10.803500">
                <time>2017-07-15T12:24:39Z</time>
            </trkpt>
            <trkpt lat="46.315810" lon="10.803500">
                <time>2017-07-15T12:24:40Z</time>
            </trkpt>
            <trkpt lat="46.315810" lon="10.803500">
                <time>2017-07-15T12:24:41Z</time>
            </trkpt>
            <trkpt lat="46.315810" lon="10.803500">
                <time>2017-07-15T12:24:42Z</time>
            </trkpt>
            <trkpt lat="46.315810" lon="10.803500">
                <time>2017-07-15T12:24:43Z</time>
            </trkpt>
            <trkpt lat="46.315810" lon="10.803500">
                <time>2017-07-15T12:24:44Z</time>
            </trkpt>
            <trkpt lat="46.315810" lon="10.803500">
                <time>2017-07-15T12:24:45Z</time>
            </trkpt>
            <trkpt lat="46.315810" lon="10.803500">
                <time>2017-07-15T12:24:46Z</time>
            </trkpt>
            <trkpt lat="46.315810" lon="10.803500">
                <time>2017-07-15T12:24:47Z</time>
            </trkpt>
            <trkpt lat="46.315810" lon="10.803500">
                <time>2017-07-15T12:24:48Z</time>
            </trkpt>
            <trkpt lat="46.315810" lon="10.803500">
                <time>2017-07-15T12:24:49Z</time>
            </trkpt>
            <trkpt lat="46.315810" lon="10.803500">
                <time>2017-07-15T12:24:50Z</time>
            </trkpt>
            <trkpt lat="46.315810" lon="10.803500">
                <time>2017-07-15T12:24:51Z</time>
            </trkpt>
            <trkpt lat="46.315810" lon="10.803500">
                <time>2017-07-15T12:24:52Z</time>
            </trkpt>
            <trkpt lat="46.315810" lon="10.803500">
                <time>2017-07-15T12:24:53Z</time>
            </trkpt>
            <trkpt lat="46.315810" lon="10.803500">
                <time>2017-07-15T12:24:54Z</time>
            </trkpt>
            <trkpt lat="46.315810" lon="10.803500">
                <time>2017-07-15T12:24:55Z</time>
            </trkpt>
            <trkpt lat="46.315810" lon="10.803500">
                <time>2017-07-15T12:24:56Z</time>
            </trkpt>
            <trkpt lat="46.315810" lon="10.803500">
                <time>2017-07-15T12:24:57Z</time>
            </trkpt>
            <trkpt lat="46.315810" lon="10.803500">
                <time>2017-07-15T12:24:58Z</time>
            </trkpt>
            <trkpt lat="46.315810" lon="10.803500">
                <time>2017-07-15T12:24:59Z</time>
            </trkpt>
            <trkpt lat="46.315810" lon="10.803500">
                <time>2017-07-15T12:25:00Z</time>
            </trkpt>
            <trkpt lat="46.315810" lon="10.803500">
                <time>2017-07-15T12:25:01Z</time>
            </trkpt>
            <trkpt lat="46.315810" lon="10.803500">
                <time>2017-07-15T12:25:02Z</time>
            </trkpt>
            <trkpt lat="46.315810" lon="10.803500">
                <time>2017-07-15T12:25:03Z</time>
            </trkpt>
            <trkpt lat="46.315810" lon="10.803500">
                <time>2017-07-15T12:25:04Z</time>
            </trkpt>
            <trkpt lat="46.315810" lon="10.803500">
                <time>2017-07-15T12:25:05Z</time>
            </trkpt>
            <trkpt lat="46.315810" lon="10.803500">
                <time>2017-07-15T12:25:06Z</time>
            </trkpt>
            <trkpt lat="46.315810" lon="10.803500">
                <time>2017-07-15T12:25:07Z</time>
            </trkpt>
            <trkpt lat="46.315810" lon="10.803500">
                <time>2017-07-15T12:25:08Z</time>
            </trkpt>
            <trkpt lat="46.315810" lon="10.803500">
                <time>2017-07-15T12:25:09Z</time>
            </trkpt>
            <trkpt lat="46.315810" lon="10.803500">
                <time>2017-07-15T12:25:10Z</time>
            </trkpt>
            <trkpt lat="46.315810" lon="10.803500">
                <time>2017-07-15T12:25:11Z</time>
            </trkpt>
            <trkpt lat="46.315810" lon="10.803500">
                <time>2017-07-15T12:25:12Z</time>
            </trkpt>
            <trkpt lat="46.315810" lon="10.803500">
                <time>2017-07-15T12:25:13Z</time>
            </trkpt>
            <trkpt lat="46.315810" lon="10.803500">
                <time>2017-07-15T12:25:14Z</time>
            </trkpt>
            <trkpt lat="46.315810" lon="10.803500">
                <time>2017-07-15T12:25:15Z</time>
            </trkpt>
            <trkpt lat="46.315810" lon="10.803500">
                <time>2017-07-15T12:25:16Z</time>
            </trkpt>
            <trkpt lat="46.315810" lon="10.803500">
                <time>2017-07-15T12:25:17Z</time>
            </trkpt>
            <trkpt lat="46.315810" lon="10.803500">
                <time>2017-07-15T12:25:18Z</time>
            </trkpt>
            <trkpt lat="46.315810" lon="10.803500">
                <time>2017-07-15T12:25:19Z</time>
            </trkpt>
            <trkpt lat="46.315810" lon="10.803500">
                <time>2017-07-15T12:25:20Z</time>
            </trkpt>
            <trkpt lat="46.315810" lon="10.803500">
                <time>2017-07-15T12:25:21Z</time>
            </trkpt>
            <trkpt lat="46.315810" lon="10.803500">
                <time>2017-07-15T12:25:22Z</time>
            </trkpt>
            <trkpt lat="46.315810" lon="10.803500">
                <time>2017-07-15T12:25:23Z</time>
            </trkpt>
            <trkpt lat="46.315810" lon="10.803500">
                <time>2017-07-15T12:25:24Z</time>
            </trkpt>
            <trkpt lat="46.315810" lon="10.803500">
                <time>2017-07-15T12:25:25Z</time>
            </trkpt>
            <trkpt lat="46.315810" lon="10.803500">
                <time>2017-07-15T12:25:26Z</time>
            </trkpt>
            <trkpt lat="46.315810" lon="10.803500">
                <time>2017-07-15T12:25:27Z</time>
            </trkpt>
            <trkpt lat="46.315810" lon="10.803500">
                <time>2017-07-15T12:25:28Z</time>
            </trkpt>
            <trkpt lat="46.315810" lon="10.803500">
                <time>2017-07-15T12:25:29Z</time>
            </trkpt>
            <trkpt lat="46.315810" lon="10.803500">
                <time>2017-07-15T12:25:30Z</time>
            </trkpt>
            <trkpt lat="46.315810" lon="10.803500">
                <time>2017-07-15T12:25:31Z</time>
            </trkpt>
            <trkpt lat="46.315810" lon="10.803500">
                <time>2017-07-15T12:25:32Z</time>
            </trkpt>
            <trkpt lat="46.315810" lon="10.803500">
                <time>2017-07-15T12:25:33Z</time>
            </trkpt>
            <trkpt lat="46.315810" lon="10.803500">
                <time>2017-07-15T12:25:34Z</time>
            </trkpt>
            <trkpt lat="46.315810" lon="10.803500">
                <time>2017-07-15T12:25:35Z</time>
            </trkpt>
            <trkpt lat="46.315810" lon="10.803500">
                <time>2017-07-15T12:25:36Z</time>
            </trkpt>
            <trkpt lat="46.315810" lon="10.803500">
                <time>2017-07-15T12:25:37Z</time>
            </trkpt>
            <trkpt lat="46.315810" lon="10.803500">
                <time>2017-07-15T12:25:38Z</time>
            </trkpt>
            <trkpt lat="46.315810" lon="10.803500">
                <time>2017-07-15T12:25:39Z</time>
            </trkpt>
            <trkpt lat="46.315810" lon="10.803500">
                <time>2017-07-15T12:25:40Z</time>
            </trkpt>
            <trkpt lat="46.315810" lon="10.803500">
                <time>2017-07-15T12:25:41Z</time>
            </trkpt>
            <trkpt lat="46.315810" lon="10.803500">
                <time>2017-07-15T12:25:42Z</time>
            </trkpt>
            <trkpt lat="46.315810" lon="10.803500">
                <time>2017-07-15T12:25:43Z</time>
            </trkpt>
            <trkpt lat="46.315810" lon="10.803500">
                <time>2017-07-15T12:25:44Z</time>
            </trkpt>
            <trkpt lat="46.315810" lon="10.803500">
                <time>2017-07-15T12:25:45Z</time>
            </trkpt>
            <trkpt lat="46.315810" lon="10.803500">
                <time>2017-07-15T12:25:46Z</time>
            </trkpt>
            <trkpt lat="46.315810" lon="10.803500">
                <time>2017-07-15T12:25:47Z</time>
            </trkpt>
            <trkpt lat="46.315810" lon="10.803500">
                <time>2017-07-15T12:25:48Z</time>
            </trkpt>
            <trkpt lat="46.315810" lon="10.803500">
                <time>2017-07-15T12:25:49Z</time>
            </trkpt>
            <trkpt lat="46.315810" lon="10.803500">
                <time>2017-07-15T12:25:50Z</time>
            </trkpt>
            <trkpt lat="46.315810" lon="10.803500">
                <time>2017-07-15T12:25:51Z</time>
            </trkpt>
            <trkpt lat="46.315810" lon="10.803500">
                <time>2017-07-15T12:25:52Z</time>
            </trkpt>
            <trkpt lat="46.315810" lon="10.803500">
                <time>2017-07-15T12:25:53Z</time>
            </trkpt>
            <trkpt lat="46.315810" lon="10.803500">
                <time>2017-07-15T12:25:54Z</time>
            </trkpt>
            <trkpt lat="46.315810" lon="10.803500">
                <time>2017-07-15T12:25:55Z</time>
            </trkpt>
            <trkpt lat="46.315810" lon="10.803500">
                <time>2017-07-15T12:25:56Z</time>
            </trkpt>
            <trkpt lat="46.315810" lon="10.803500">
                <time>2017-07-15T12:25:57Z</time>
            </trkpt>
            <trkpt lat="46.315810" lon="10.803500">
                <time>2017-07-15T12:25:58Z</time>
            </trkpt>
            <trkpt lat="46.315810" lon="10.803500">
                <time>2017-07-15T12:25:59Z</time>
            </trkpt>
            <trkpt lat="46.315810" lon="10.803500">
                <time>2017-07-15T12:26:00Z</time>
            </trkpt>
            <trkpt lat="46.315810" lon="10.803500">
                <time>2017-07-15T12:26:01Z</time>
            </trkpt>
            <trkpt lat="46.315810" lon="10.803500">
                <time>2017-07-15T12:26:02Z</time>
            </trkpt>
            <trkpt lat="46.315810" lon="10.803500">
                <time>2017-07-15T12:26:03Z</time>
            </trkpt>
            <trkpt lat="46.315810" lon="10.803500">
                <time>2017-07-15T12:26:04Z</time>
            </trkpt>
            <trkpt lat="46.315810" lon="10.803500">
                <time>2017-07-15T12:26:05Z</time>
            </trkpt>
            <trkpt lat="46.315810" lon="10.803500">
                <time>2017-07-15T12:26:06Z</time>
            </trkpt>
            <trkpt lat="46.315810" lon="10.803500">
                <time>2017-07-15T12:26:07Z</time>
            </trkpt>
            <trkpt lat="46.315810" lon="10.803500">
                <time>2017-07-15T12:26:08Z</time>
            </trkpt>
            <trkpt lat="46.315810" lon="10.803500">
                <time>2017-07-15T12:26:09Z</time>
            </trkpt>
            <trkpt lat="46.315810" lon="10.803500">
                <time>2017-07-15T12:26:10Z</time>
            </trkpt>
            <trkpt lat="46.315810" lon="10.803500">
                <time>2017-07-15T12:26:11Z</time>
            </trkpt>
            <trkpt lat="46.315810" lon="10.803500">
                <time>2017-07-15T12:26:12Z</time>
            </trkpt>
            <trkpt lat="46.315810" lon="10.803500">
                <time>2017-07-15T12:26:13Z</time>
            </trkpt>
            <trkpt lat="46.315810" lon="10.803500">
                <time>2017-07-15T12:26:14Z</time>
            </trkpt>
            <trkpt lat="46.315810" lon="10.803500">
                <time>2017-07-15T12:26:15Z</time>
            </trkpt>
            <trkpt lat="46.315810" lon="10.803500">
                <time>2017-07-15T12:26:16Z</time>
            </trkpt>
            <trkpt lat="46.315810" lon="10.803500">
                <time>2017-07-15T12:26:17Z</time>
            </trkpt>
            <trkpt lat="46.315810" lon="10.803500">
                <time>2017-07-15T12:26:18Z</time>
            </trkpt>
            <trkpt lat="46.315810" lon="10.803500">
                <time>2017-07-15T12:26:19Z</time>
            </trkpt>
            <trkpt lat="46.315810" lon="10.803500">
                <time>2017-07-15T12:26:20Z</time>
            </trkpt>
            <trkpt lat="46.315810" lon="10.803500">
                <time>2017-07-15T12:26:21Z</time>
            </trkpt>
            <trkpt lat="46.315810" lon="10.803500">
                <time>2017-07-15T12:26:22Z</time>
            </trkpt>
            <trkpt lat="46.315810" lon="10.803500">
                <time>2017-07-15T12:26:23Z</time>
            </trkpt>
            <trkpt lat="46.315810" lon="10.803500">
                <time>2017-07-15T12:26:24Z</time>
            </trkpt>
            <trkpt lat="46.315810" lon="10.803500">
                <time>2017-07-15T12:26:25Z</time>
            </trkpt>
            <trkpt lat="46.315810" lon="10.803500">
                <time>2017-07-15T12:26:26Z</time>
            </trkpt>
            <trkpt lat="46.315810" lon="10.803500">
                <time>2017-07-15T12:26:27Z</time>
            </trkpt>
            <trkpt lat="46.315810" lon="10.803500">
                <time>2017-07-15T12:26:28Z</time>
            </trkpt>
            <trkpt lat="46.315810" lon="10.803500">
                <time>2017-07-15T12:26:29Z</time>
            </trkpt>
            <trkpt lat="46.315810" lon="10.803500">
                <time>2017-07-15T12:26:30Z</time>
            </trkpt>
            <trkpt lat="46.315810" lon="10.803500">
                <time>2017-07-15T12:26:31Z</time>
            </trkpt>
            <trkpt lat="46.315810" lon="10.803500">
                <time>2017-07-15T12:26:32Z</time>
            </trkpt>
            <trkpt lat="46.315810" lon="10.803500">
                <time>2017-07-15T12:26:33Z</time>
            </trkpt>
            <trkpt lat="46.315810" lon="10.803500">
                <time>2017-07-15T12:26:34Z</time>
            </trkpt>
            <trkpt lat="46.315810" lon="10.803500">
                <time>2017-07-15T12:26:35Z</time>
            </trkpt>
            <trkpt lat="46.315810" lon="10.803500">
                <time>2017-07-15T12:26:36Z</time>
            </trkpt>
            <trkpt lat="46.315810" lon="10.803500">
                <time>2017-07-15T12:26:37Z</time>
            </trkpt>
            <trkpt lat="46.315810" lon="10.803500">
                <time>2017-07-15T12:26:38Z</time>
            </trkpt>
            <trkpt lat="46.315810" lon="10.803500">
                <time>2017-07-15T12:26:39Z</time>
            </trkpt>
            <trkpt lat="46.315810" lon="10.803500">
                <time>2017-07-15T12:26:40Z</time>
            </trkpt>
            <trkpt lat="46.315810" lon="10.803500">
                <time>2017-07-15T12:26:41Z</time>
            </trkpt>
            <trkpt lat="46.315810" lon="10.803500">
                <time>2017-07-15T12:26:42Z</time>
            </trkpt>
            <trkpt lat="46.315810" lon="10.803500">
                <time>2017-07-15T12:26:43Z</time>
            </trkpt>
            <trkpt lat="46.315810" lon="10.803500">
                <time>2017-07-15T12:26:44Z</time>
            </trkpt>
            <trkpt lat="46.315810" lon="10.803500">
                <time>2017-07-15T12:26:45Z</time>
            </trkpt>
            <trkpt lat="46.315810" lon="10.803500">
                <time>2017-07-15T12:26:46Z</time>
            </trkpt>
            <trkpt lat="46.315810" lon="10.803500">
                <time>2017-07-15T12:26:47Z</time>
            </trkpt>
            <trkpt lat="46.315810" lon="10.803500">
                <time>2017-07-15T12:26:48Z</time>
            </trkpt>
            <trkpt lat="46.315810" lon="10.803500">
                <time>2017-07-15T12:26:49Z</time>
            </trkpt>
            <trkpt lat="46.315810" lon="10.803500">
                <time>2017-07-15T12:26:50Z</time>
            </trkpt>
            <trkpt lat="46.315810" lon="10.803500">
                <time>2017-07-15T12:26:51Z</time>
            </trkpt>
            <trkpt lat="46.315810" lon="10.803500">
                <time>2017-07-15T12:26:52Z</time>
            </trkpt>
            <trkpt lat="46.315810" lon="10.803500">
                <time>2017-07-15T12:26:53Z</time>
            </trkpt>
            <trkpt lat="46.315810" lon="10.803500">
                <time>2017-07-15T12:26:54Z</time>
            </trkpt>
            <trkpt lat="46.315810" lon="10.803500">
                <time>2017-07-15T12:26:55Z</time>
            </trkpt>
            <trkpt lat="46.315810" lon="10.803500">
                <time>2017-07-15T12:26:56Z</time>
            </trkpt>
            <trkpt lat="46.315810" lon="10.803500">
                <time>2017-07-15T12:26:57Z</time>
            </trkpt>
            <trkpt lat="46.315810" lon="10.803500">
                <time>2017-07-15T12:26:58Z</time>
            </trkpt>
            <trkpt lat="46.315810" lon="10.803500">
                <time>2017-07-15T12:26:59Z</time>
            </trkpt>
            <trkpt lat="46.315810" lon="10.803500">
                <time>2017-07-15T12:27:00Z</time>
            </trkpt>
            <trkpt lat="46.315810" lon="10.803500">
                <time>2017-07-15T12:27:01Z</time>
            </trkpt>
            <trkpt lat="46.315810" lon="10.803500">
                <time>2017-07-15T12:27:02Z</time>
            </trkpt>
            <trkpt lat="46.315810" lon="10.803500">
                <time>2017-07-15T12:27:03Z</time>
            </trkpt>
            <trkpt lat="46.315810" lon="10.803500">
                <time>2017-07-15T12:27:04Z</time>
            </trkpt>
            <trkpt lat="46.315810" lon="10.803500">
                <time>2017-07-15T12:27:05Z</time>
            </trkpt>
            <trkpt lat="46.315810" lon="10.803500">
                <time>2017-07-15T12:27:06Z</time>
            </trkpt>
            <trkpt lat="46.315810" lon="10.803500">
                <time>2017-07-15T12:27:07Z</time>
            </trkpt>
            <trkpt lat="46.315810" lon="10.803500">
                <time>2017-07-15T12:27:08Z</time>
            </trkpt>
            <trkpt lat="46.315810" lon="10.803500">
                <time>2017-07-15T12:27:09Z</time>
            </trkpt>
            <trkpt lat="46.315810" lon="10.803500">
                <time>2017-07-15T12:27:10Z</time>
            </trkpt>
            <trkpt lat="46.315810" lon="10.803500">
                <time>2017-07-15T12:27:11Z</time>
            </trkpt>
            <trkpt lat="46.315810" lon="10.803500">
                <time>2017-07-15T12:27:12Z</time>
            </trkpt>
            <trkpt lat="46.315810" lon="10.803500">
                <time>2017-07-15T12:27:13Z</time>
            </trkpt>
            <trkpt lat="46.315810" lon="10.803500">
                <time>2017-07-15T12:27:14Z</time>
            </trkpt>
            <trkpt lat="46.315810" lon="10.803500">
                <time>2017-07-15T12:27:15Z</time>
            </trkpt>
            <trkpt lat="46.315810" lon="10.803500">
                <time>2017-07-15T12:27:16Z</time>
            </trkpt>
            <trkpt lat="46.315810" lon="10.803500">
                <time>2017-07-15T12:27:17Z</time>
            </trkpt>
            <trkpt lat="46.315810" lon="10.803500">
                <time>2017-07-15T12:27:18Z</time>
            </trkpt>
            <trkpt lat="46.315810" lon="10.803500">
                <time>2017-07-15T12:27:19Z</time>
            </trkpt>
            <trkpt lat="46.315810" lon="10.803500">
                <time>2017-07-15T12:27:20Z</time>
            </trkpt>
            <trkpt lat="46.315810" lon="10.803500">
                <time>2017-07-15T12:27:21Z</time>
            </trkpt>
            <trkpt lat="46.315810" lon="10.803500">
                <time>2017-07-15T12:27:22Z</time>
            </trkpt>
            <trkpt lat="46.315810" lon="10.803500">
                <time>2017-07-15T12:27:23Z</time>
            </trkpt>
            <trkpt lat="46.315810" lon="10.803500">
                <time>2017-07-15T12:27:24Z</time>
            </trkpt>
            <trkpt lat="46.315810" lon="10.803500">
                <time>2017-07-15T12:27:25Z</time>
            </trkpt>
            <trkpt lat="46.315810" lon="10.803500">
                <time>2017-07-15T12:27:26Z</time>
            </trkpt>
            <trkpt lat="46.315810" lon="10.803500">
                <time>2017-07-15T12:27:27Z</time>
            </trkpt>
            <trkpt lat="46.315810" lon="10.803500">
                <time>2017-07-15T12:27:28Z</time>
            </trkpt>
            <trkpt lat="46.315810" lon="10.803500">
                <time>2017-07-15T12:27:29Z</time>
            </trkpt>
            <trkpt lat="46.315810" lon="10.803500">
                <time>2017-07-15T12:27:30Z</time>
            </trkpt>
            <trkpt lat="46.315810" lon="10.803500">
                <time>2017-07-15T12:27:31Z</time>
            </trkpt>
            <trkpt lat="46.315810" lon="10.803500">
                <time>2017-07-15T12:27:32Z</time>
            </trkpt>
            <trkpt lat="46.315810" lon="10.803500">
                <time>2017-07-15T12:27:33Z</time>
            </trkpt>
            <trkpt lat="46.315810" lon="10.803500">
                <time>2017-07-15T12:27:34Z</time>
            </trkpt>
            <trkpt lat="46.315810" lon="10.803500">
                <time>2017-07-15T12:27:35Z</time>
            </trkpt>
            <trkpt lat="46.315810" lon="10.803500">
                <time>2017-07-15T12:27:36Z</time>
            </trkpt>
            <trkpt lat="46.315810" lon="10.803500">
                <time>2017-07-15T12:27:37Z</time>
            </trkpt>
            <trkpt lat="46.315810" lon="10.803500">
                <time>2017-07-15T12:27:38Z</time>
            </trkpt>
            <trkpt lat="46.315810" lon="10.803500">
                <time>2017-07-15T12:27:39Z</time>
            </trkpt>
            <trkpt lat="46.315810" lon="10.803500">
                <time>2017-07-15T12:27:40Z</time>
            </trkpt>
            <trkpt lat="46.315810" lon="10.803500">
                <time>2017-07-15T12:27:41Z</time>
            </trkpt>
            <trkpt lat="46.315810" lon="10.803500">
                <time>2017-07-15T12:27:42Z</time>
            </trkpt>
            <trkpt lat="46.315810" lon="10.803500">
                <time>2017-07-15T12:27:43Z</time>
            </trkpt>
            <trkpt lat="46.315810" lon="10.803500">
                <time>2017-07-15T12:27:44Z</time>
            </trkpt>
            <trkpt lat="46.315810" lon="10.803500">
                <time>2017-07-15T12:27:45Z</time>
            </trkpt>
            <trkpt lat="46.315810" lon="10.803500">
                <time>2017-07-15T12:27:46Z</time>
            </trkpt>
            <trkpt lat="46.315810" lon="10.803500">
                <time>2017-07-15T12:27:47Z</time>
            </trkpt>
            <trkpt lat="46.315810" lon="10.803500">
                <time>2017-07-15T12:27:48Z</time>
            </trkpt>
            <trkpt lat="46.315810" lon="10.803500">
                <time>2017-07-15T12:27:49Z</time>
            </trkpt>
            <trkpt lat="46.315810" lon="10.803500">
                <time>2017-07-15T12:27:50Z</time>
            </trkpt>
            <trkpt lat="46.315810" lon="10.803500">
                <time>2017-07-15T12:27:51Z</time>
            </trkpt>
            <trkpt lat="46.315810" lon="10.803500">
                <time>2017-07-15T12:27:52Z</time>
            </trkpt>
            <trkpt lat="46.315810" lon="10.803500">
                <time>2017-07-15T12:27:53Z</time>
            </trkpt>
            <trkpt lat="46.315800" lon="10.803500">
                <time>2017-07-15T12:27:54Z</time>
            </trkpt>
            <trkpt lat="46.315800" lon="10.803500">
                <time>2017-07-15T12:27:55Z</time>
            </trkpt>
            <trkpt lat="46.315800" lon="10.803500">
                <time>2017-07-15T12:27:56Z</time>
            </trkpt>
            <trkpt lat="46.315800" lon="10.803500">
                <time>2017-07-15T12:27:57Z</time>
            </trkpt>
            <trkpt lat="46.315800" lon="10.803500">
                <time>2017-07-15T12:27:58Z</time>
            </trkpt>
            <trkpt lat="46.315800" lon="10.803500">
                <time>2017-07-15T12:27:59Z</time>
            </trkpt>
            <trkpt lat="46.315800" lon="10.803500">
                <time>2017-07-15T12:28:00Z</time>
            </trkpt>
            <trkpt lat="46.315800" lon="10.803500">
                <time>2017-07-15T12:28:01Z</time>
            </trkpt>
            <trkpt lat="46.315800" lon="10.803500">
                <time>2017-07-15T12:28:02Z</time>
            </trkpt>
            <trkpt lat="46.315800" lon="10.803500">
                <time>2017-07-15T12:28:03Z</time>
            </trkpt>
            <trkpt lat="46.315800" lon="10.803500">
                <time>2017-07-15T12:28:04Z</time>
            </trkpt>
            <trkpt lat="46.315800" lon="10.803500">
                <time>2017-07-15T12:28:05Z</time>
            </trkpt>
            <trkpt lat="46.315800" lon="10.803500">
                <time>2017-07-15T12:28:06Z</time>
            </trkpt>
            <trkpt lat="46.315800" lon="10.803500">
                <time>2017-07-15T12:28:07Z</time>
            </trkpt>
            <trkpt lat="46.315800" lon="10.803500">
                <time>2017-07-15T12:28:08Z</time>
            </trkpt>
            <trkpt lat="46.315800" lon="10.803500">
                <time>2017-07-15T12:28:09Z</time>
            </trkpt>
            <trkpt lat="46.315800" lon="10.803500">
                <time>2017-07-15T12:28:10Z</time>
            </trkpt>
            <trkpt lat="46.315800" lon="10.803500">
                <time>2017-07-15T12:28:11Z</time>
            </trkpt>
            <trkpt lat="46.315800" lon="10.803500">
                <time>2017-07-15T12:28:12Z</time>
            </trkpt>
            <trkpt lat="46.315800" lon="10.803500">
                <time>2017-07-15T12:28:13Z</time>
            </trkpt>
            <trkpt lat="46.315800" lon="10.803500">
                <time>2017-07-15T12:28:14Z</time>
            </trkpt>
            <trkpt lat="46.315800" lon="10.803510">
                <time>2017-07-15T12:28:15Z</time>
            </trkpt>
            <trkpt lat="46.315800" lon="10.803510">
                <time>2017-07-15T12:28:16Z</time>
            </trkpt>
            <trkpt lat="46.315800" lon="10.803510">
                <time>2017-07-15T12:28:17Z</time>
            </trkpt>
            <trkpt lat="46.315800" lon="10.803510">
                <time>2017-07-15T12:28:18Z</time>
            </trkpt>
            <trkpt lat="46.315800" lon="10.803510">
                <time>2017-07-15T12:28:19Z</time>
            </trkpt>
            <trkpt lat="46.315800" lon="10.803520">
                <time>2017-07-15T12:28:20Z</time>
            </trkpt>
            <trkpt lat="46.315800" lon="10.803530">
                <time>2017-07-15T12:28:21Z</time>
            </trkpt>
            <trkpt lat="46.315800" lon="10.803530">
                <time>2017-07-15T12:28:22Z</time>
            </trkpt>
            <trkpt lat="46.315800" lon="10.803530">
                <time>2017-07-15T12:28:23Z</time>
            </trkpt>
            <trkpt lat="46.315800" lon="10.803530">
                <time>2017-07-15T12:28:24Z</time>
            </trkpt>
            <trkpt lat="46.315800" lon="10.803530">
                <time>2017-07-15T12:28:25Z</time>
            </trkpt>
            <trkpt lat="46.315800" lon="10.803530">
                <time>2017-07-15T12:28:26Z</time>
            </trkpt>
            <trkpt lat="46.315800" lon="10.803530">
                <time>2017-07-15T12:28:27Z</time>
            </trkpt>
            <trkpt lat="46.315810" lon="10.803540">
                <time>2017-07-15T12:28:28Z</time>
            </trkpt>
            <trkpt lat="46.315810" lon="10.803530">
                <time>2017-07-15T12:28:29Z</time>
            </trkpt>
            <trkpt lat="46.315800" lon="10.803520">
                <time>2017-07-15T12:28:30Z</time>
            </trkpt>
            <trkpt lat="46.315800" lon="10.803500">
                <time>2017-07-15T12:28:31Z</time>
            </trkpt>
            <trkpt lat="46.315800" lon="10.803490">
                <time>2017-07-15T12:28:32Z</time>
            </trkpt>
            <trkpt lat="46.315810" lon="10.803480">
                <time>2017-07-15T12:28:33Z</time>
            </trkpt>
            <trkpt lat="46.315810" lon="10.803470">
                <time>2017-07-15T12:28:34Z</time>
            </trkpt>
            <trkpt lat="46.315810" lon="10.803470">
                <time>2017-07-15T12:28:35Z</time>
            </trkpt>
            <trkpt lat="46.315810" lon="10.803470">
                <time>2017-07-15T12:28:36Z</time>
            </trkpt>
            <trkpt lat="46.315810" lon="10.803470">
                <time>2017-07-15T12:28:37Z</time>
            </trkpt>
            <trkpt lat="46.315810" lon="10.803470">
                <time>2017-07-15T12:28:38Z</time>
            </trkpt>
            <trkpt lat="46.315810" lon="10.803470">
                <time>2017-07-15T12:28:39Z</time>
            </trkpt>
            <trkpt lat="46.315810" lon="10.803460">
                <time>2017-07-15T12:28:40Z</time>
            </trkpt>
            <trkpt lat="46.315810" lon="10.803450">
                <time>2017-07-15T12:28:41Z</time>
            </trkpt>
            <trkpt lat="46.315820" lon="10.803410">
                <time>2017-07-15T12:28:42Z</time>
            </trkpt>
            <trkpt lat="46.315830" lon="10.803340">
                <time>2017-07-15T12:28:43Z</time>
            </trkpt>
            <trkpt lat="46.315840" lon="10.803230">
                <time>2017-07-15T12:28:44Z</time>
            </trkpt>
            <trkpt lat="46.315840" lon="10.803130">
                <time>2017-07-15T12:28:45Z</time>
            </trkpt>
            <trkpt lat="46.315830" lon="10.803010">
                <time>2017-07-15T12:28:46Z</time>
            </trkpt>
            <trkpt lat="46.315820" lon="10.802890">
                <time>2017-07-15T12:28:47Z</time>
            </trkpt>
            <trkpt lat="46.315810" lon="10.802780">
                <time>2017-07-15T12:28:48Z</time>
            </trkpt>
            <trkpt lat="46.315790" lon="10.802670">
                <time>2017-07-15T12:28:49Z</time>
            </trkpt>
            <trkpt lat="46.315790" lon="10.802550">
                <time>2017-07-15T12:28:50Z</time>
            </trkpt>
            <trkpt lat="46.315770" lon="10.802420">
                <time>2017-07-15T12:28:51Z</time>
            </trkpt>
            <trkpt lat="46.315760" lon="10.802280">
                <time>2017-07-15T12:28:52Z</time>
            </trkpt>
            <trkpt lat="46.315750" lon="10.802160">
                <time>2017-07-15T12:28:53Z</time>
            </trkpt>
            <trkpt lat="46.315740" lon="10.802030">
                <time>2017-07-15T12:28:54Z</time>
            </trkpt>
            <trkpt lat="46.315740" lon="10.801900">
                <time>2017-07-15T12:28:55Z</time>
            </trkpt>
            <trkpt lat="46.315710" lon="10.801770">
                <time>2017-07-15T12:28:56Z</time>
            </trkpt>
            <trkpt lat="46.315710" lon="10.801640">
                <time>2017-07-15T12:28:57Z</time>
            </trkpt>
            <trkpt lat="46.315690" lon="10.801490">
                <time>2017-07-15T12:28:58Z</time>
            </trkpt>
            <trkpt lat="46.315690" lon="10.801370">
                <time>2017-07-15T12:28:59Z</time>
            </trkpt>
            <trkpt lat="46.315680" lon="10.801240">
                <time>2017-07-15T12:29:00Z</time>
            </trkpt>
            <trkpt lat="46.315670" lon="10.801110">
                <time>2017-07-15T12:29:01Z</time>
            </trkpt>
            <trkpt lat="46.315660" lon="10.800980">
                <time>2017-07-15T12:29:02Z</time>
            </trkpt>
            <trkpt lat="46.315660" lon="10.800830">
                <time>2017-07-15T12:29:03Z</time>
            </trkpt>
            <trkpt lat="46.315660" lon="10.800700">
                <time>2017-07-15T12:29:04Z</time>
            </trkpt>
            <trkpt lat="46.315670" lon="10.800540">
                <time>2017-07-15T12:29:05Z</time>
            </trkpt>
            <trkpt lat="46.315700" lon="10.800390">
                <time>2017-07-15T12:29:06Z</time>
            </trkpt>
            <trkpt lat="46.315750" lon="10.800220">
                <time>2017-07-15T12:29:07Z</time>
            </trkpt>
            <trkpt lat="46.315800" lon="10.800040">
                <time>2017-07-15T12:29:08Z</time>
            </trkpt>
            <trkpt lat="46.315850" lon="10.799880">
                <time>2017-07-15T12:29:09Z</time>
            </trkpt>
            <trkpt lat="46.315910" lon="10.799720">
                <time>2017-07-15T12:29:10Z</time>
            </trkpt>
            <trkpt lat="46.315990" lon="10.799560">
                <time>2017-07-15T12:29:11Z</time>
            </trkpt>
            <trkpt lat="46.316060" lon="10.799420">
                <time>2017-07-15T12:29:12Z</time>
            </trkpt>
            <trkpt lat="46.316130" lon="10.799280">
                <time>2017-07-15T12:29:13Z</time>
            </trkpt>
            <trkpt lat="46.316220" lon="10.799140">
                <time>2017-07-15T12:29:14Z</time>
            </trkpt>
            <trkpt lat="46.316300" lon="10.799020">
                <time>2017-07-15T12:29:15Z</time>
            </trkpt>
            <trkpt lat="46.316390" lon="10.798890">
                <time>2017-07-15T12:29:16Z</time>
            </trkpt>
            <trkpt lat="46.316470" lon="10.798770">
                <time>2017-07-15T12:29:17Z</time>
            </trkpt>
            <trkpt lat="46.316560" lon="10.798650">
                <time>2017-07-15T12:29:18Z</time>
            </trkpt>
            <trkpt lat="46.316650" lon="10.798520">
                <time>2017-07-15T12:29:19Z</time>
            </trkpt>
            <trkpt lat="46.316730" lon="10.798410">
                <time>2017-07-15T12:29:20Z</time>
            </trkpt>
            <trkpt lat="46.316820" lon="10.798290">
                <time>2017-07-15T12:29:21Z</time>
            </trkpt>
            <trkpt lat="46.316900" lon="10.798170">
                <time>2017-07-15T12:29:22Z</time>
            </trkpt>
            <trkpt lat="46.316980" lon="10.798050">
                <time>2017-07-15T12:29:23Z</time>
            </trkpt>
            <trkpt lat="46.317060" lon="10.797910">
                <time>2017-07-15T12:29:24Z</time>
            </trkpt>
            <trkpt lat="46.317120" lon="10.797780">
                <time>2017-07-15T12:29:25Z</time>
            </trkpt>
            <trkpt lat="46.317180" lon="10.797640">
                <time>2017-07-15T12:29:26Z</time>
            </trkpt>
            <trkpt lat="46.317240" lon="10.797490">
                <time>2017-07-15T12:29:27Z</time>
            </trkpt>
            <trkpt lat="46.317280" lon="10.797360">
                <time>2017-07-15T12:29:28Z</time>
            </trkpt>
            <trkpt lat="46.317320" lon="10.797210">
                <time>2017-07-15T12:29:29Z</time>
            </trkpt>
            <trkpt lat="46.317350" lon="10.797050">
                <time>2017-07-15T12:29:30Z</time>
            </trkpt>
            <trkpt lat="46.317360" lon="10.796890">
                <time>2017-07-15T12:29:31Z</time>
            </trkpt>
            <trkpt lat="46.317380" lon="10.796710">
                <time>2017-07-15T12:29:32Z</time>
            </trkpt>
            <trkpt lat="46.317370" lon="10.796550">
                <time>2017-07-15T12:29:33Z</time>
            </trkpt>
            <trkpt lat="46.317370" lon="10.796370">
                <time>2017-07-15T12:29:34Z</time>
            </trkpt>
            <trkpt lat="46.317370" lon="10.796180">
                <time>2017-07-15T12:29:35Z</time>
            </trkpt>
            <trkpt lat="46.317370" lon="10.796000">
                <time>2017-07-15T12:29:36Z</time>
            </trkpt>
            <trkpt lat="46.317350" lon="10.795810">
                <time>2017-07-15T12:29:37Z</time>
            </trkpt>
            <trkpt lat="46.317330" lon="10.795620">
                <time>2017-07-15T12:29:38Z</time>
            </trkpt>
            <trkpt lat="46.317300" lon="10.795440">
                <time>2017-07-15T12:29:39Z</time>
            </trkpt>
            <trkpt lat="46.317260" lon="10.795260">
                <time>2017-07-15T12:29:40Z</time>
            </trkpt>
            <trkpt lat="46.317220" lon="10.795100">
                <time>2017-07-15T12:29:41Z</time>
            </trkpt>
            <trkpt lat="46.317170" lon="10.794950">
                <time>2017-07-15T12:29:42Z</time>
            </trkpt>
            <trkpt lat="46.317110" lon="10.794800">
                <time>2017-07-15T12:29:43Z</time>
            </trkpt>
            <trkpt lat="46.317050" lon="10.794670">
                <time>2017-07-15T12:29:44Z</time>
            </trkpt>
            <trkpt lat="46.316990" lon="10.794540">
                <time>2017-07-15T12:29:45Z</time>
            </trkpt>
            <trkpt lat="46.316920" lon="10.794410">
                <time>2017-07-15T12:29:46Z</time>
            </trkpt>
            <trkpt lat="46.316860" lon="10.794270">
                <time>2017-07-15T12:29:47Z</time>
            </trkpt>
            <trkpt lat="46.316780" lon="10.794090">
                <time>2017-07-15T12:29:48Z</time>
            </trkpt>
            <trkpt lat="46.316710" lon="10.793920">
                <time>2017-07-15T12:29:49Z</time>
            </trkpt>
            <trkpt lat="46.316630" lon="10.793730">
                <time>2017-07-15T12:29:50Z</time>
            </trkpt>
            <trkpt lat="46.316540" lon="10.793520">
                <time>2017-07-15T12:29:51Z</time>
            </trkpt>
            <trkpt lat="46.316450" lon="10.793330">
                <time>2017-07-15T12:29:52Z</time>
            </trkpt>
            <trkpt lat="46.316360" lon="10.793110">
                <time>2017-07-15T12:29:53Z</time>
            </trkpt>
            <trkpt lat="46.316280" lon="10.792880">
                <time>2017-07-15T12:29:54Z</time>
            </trkpt>
            <trkpt lat="46.316230" lon="10.792630">
                <time>2017-07-15T12:29:55Z</time>
            </trkpt>
            <trkpt lat="46.316180" lon="10.792350">
                <time>2017-07-15T12:29:56Z</time>
            </trkpt>
            <trkpt lat="46.316140" lon="10.792110">
                <time>2017-07-15T12:29:57Z</time>
            </trkpt>
            <trkpt lat="46.316100" lon="10.791840">
                <time>2017-07-15T12:29:58Z</time>
            </trkpt>
            <trkpt lat="46.316030" lon="10.791560">
                <time>2017-07-15T12:29:59Z</time>
            </trkpt>
            <trkpt lat="46.315970" lon="10.791310">
                <time>2017-07-15T12:30:00Z</time>
            </trkpt>
            <trkpt lat="46.315890" lon="10.791050">
                <time>2017-07-15T12:30:01Z</time>
            </trkpt>
            <trkpt lat="46.315790" lon="10.790790">
                <time>2017-07-15T12:30:02Z</time>
            </trkpt>
            <trkpt lat="46.315700" lon="10.790560">
                <time>2017-07-15T12:30:03Z</time>
            </trkpt>
            <trkpt lat="46.315600" lon="10.790300">
                <time>2017-07-15T12:30:04Z</time>
            </trkpt>
            <trkpt lat="46.315510" lon="10.790080">
                <time>2017-07-15T12:30:05Z</time>
            </trkpt>
            <trkpt lat="46.315420" lon="10.789840">
                <time>2017-07-15T12:30:06Z</time>
            </trkpt>
            <trkpt lat="46.315340" lon="10.789580">
                <time>2017-07-15T12:30:07Z</time>
            </trkpt>
            <trkpt lat="46.315290" lon="10.789360">
                <time>2017-07-15T12:30:08Z</time>
            </trkpt>
            <trkpt lat="46.315250" lon="10.789120">
                <time>2017-07-15T12:30:09Z</time>
            </trkpt>
            <trkpt lat="46.315210" lon="10.788880">
                <time>2017-07-15T12:30:10Z</time>
            </trkpt>
            <trkpt lat="46.315180" lon="10.788650">
                <time>2017-07-15T12:30:11Z</time>
            </trkpt>
            <trkpt lat="46.315160" lon="10.788390">
                <time>2017-07-15T12:30:12Z</time>
            </trkpt>
            <trkpt lat="46.315150" lon="10.788150">
                <time>2017-07-15T12:30:13Z</time>
            </trkpt>
            <trkpt lat="46.315150" lon="10.787900">
                <time>2017-07-15T12:30:14Z</time>
            </trkpt>
            <trkpt lat="46.315150" lon="10.787610">
                <time>2017-07-15T12:30:15Z</time>
            </trkpt>
            <trkpt lat="46.315150" lon="10.787370">
                <time>2017-07-15T12:30:16Z</time>
            </trkpt>
            <trkpt lat="46.315180" lon="10.787100">
                <time>2017-07-15T12:30:17Z</time>
            </trkpt>
            <trkpt lat="46.315230" lon="10.786820">
                <time>2017-07-15T12:30:18Z</time>
            </trkpt>
            <trkpt lat="46.315300" lon="10.786580">
                <time>2017-07-15T12:30:19Z</time>
            </trkpt>
            <trkpt lat="46.315390" lon="10.786320">
                <time>2017-07-15T12:30:20Z</time>
            </trkpt>
            <trkpt lat="46.315490" lon="10.786110">
                <time>2017-07-15T12:30:21Z</time>
            </trkpt>
            <trkpt lat="46.315600" lon="10.785910">
                <time>2017-07-15T12:30:22Z</time>
            </trkpt>
            <trkpt lat="46.315720" lon="10.785680">
                <time>2017-07-15T12:30:23Z</time>
            </trkpt>
            <trkpt lat="46.315820" lon="10.785490">
                <time>2017-07-15T12:30:24Z</time>
            </trkpt>
            <trkpt lat="46.315910" lon="10.785260">
                <time>2017-07-15T12:30:25Z</time>
            </trkpt>
            <trkpt lat="46.315980" lon="10.785020">
                <time>2017-07-15T12:30:26Z</time>
            </trkpt>
            <trkpt lat="46.316030" lon="10.784780">
                <time>2017-07-15T12:30:27Z</time>
            </trkpt>
            <trkpt lat="46.316070" lon="10.784500">
                <time>2017-07-15T12:30:28Z</time>
            </trkpt>
            <trkpt lat="46.316090" lon="10.784250">
                <time>2017-07-15T12:30:29Z</time>
            </trkpt>
            <trkpt lat="46.316100" lon="10.783980">
                <time>2017-07-15T12:30:30Z</time>
            </trkpt>
            <trkpt lat="46.316120" lon="10.783670">
                <time>2017-07-15T12:30:31Z</time>
            </trkpt>
            <trkpt lat="46.316140" lon="10.783410">
                <time>2017-07-15T12:30:32Z</time>
            </trkpt>
            <trkpt lat="46.316150" lon="10.783130">
                <time>2017-07-15T12:30:33Z</time>
            </trkpt>
            <trkpt lat="46.316170" lon="10.782830">
                <time>2017-07-15T12:30:34Z</time>
            </trkpt>
            <trkpt lat="46.316180" lon="10.782570">
                <time>2017-07-15T12:30:35Z</time>
            </trkpt>
            <trkpt lat="46.316170" lon="10.782290">
                <time>2017-07-15T12:30:36Z</time>
            </trkpt>
            <trkpt lat="46.316150" lon="10.782050">
                <time>2017-07-15T12:30:37Z</time>
            </trkpt>
            <trkpt lat="46.316110" lon="10.781800">
                <time>2017-07-15T12:30:38Z</time>
            </trkpt>
            <trkpt lat="46.316060" lon="10.781540">
                <time>2017-07-15T12:30:39Z</time>
            </trkpt>
            <trkpt lat="46.316000" lon="10.781310">
                <time>2017-07-15T12:30:40Z</time>
            </trkpt>
            <trkpt lat="46.315920" lon="10.781080">
                <time>2017-07-15T12:30:41Z</time>
            </trkpt>
            <trkpt lat="46.315840" lon="10.780860">
                <time>2017-07-15T12:30:42Z</time>
            </trkpt>
            <trkpt lat="46.315740" lon="10.780650">
                <time>2017-07-15T12:30:43Z</time>
            </trkpt>
            <trkpt lat="46.315620" lon="10.780440">
                <time>2017-07-15T12:30:44Z</time>
            </trkpt>
            <trkpt lat="46.315500" lon="10.780270">
                <time>2017-07-15T12:30:45Z</time>
            </trkpt>
            <trkpt lat="46.315370" lon="10.780100">
                <time>2017-07-15T12:30:46Z</time>
            </trkpt>
            <trkpt lat="46.315210" lon="10.779930">
                <time>2017-07-15T12:30:47Z</time>
            </trkpt>
            <trkpt lat="46.315080" lon="10.779800">
                <time>2017-07-15T12:30:48Z</time>
            </trkpt>
            <trkpt lat="46.314930" lon="10.779650">
                <time>2017-07-15T12:30:49Z</time>
            </trkpt>
            <trkpt lat="46.314770" lon="10.779500">
                <time>2017-07-15T12:30:50Z</time>
            </trkpt>
            <trkpt lat="46.314640" lon="10.779360">
                <time>2017-07-15T12:30:51Z</time>
            </trkpt>
            <trkpt lat="46.314480" lon="10.779200">
                <time>2017-07-15T12:30:52Z</time>
            </trkpt>
            <trkpt lat="46.314330" lon="10.779060">
                <time>2017-07-15T12:30:53Z</time>
            </trkpt>
            <trkpt lat="46.314180" lon="10.778910">
                <time>2017-07-15T12:30:54Z</time>
            </trkpt>
            <trkpt lat="46.314030" lon="10.778770">
                <time>2017-07-15T12:30:55Z</time>
            </trkpt>
            <trkpt lat="46.313910" lon="10.778640">
                <time>2017-07-15T12:30:56Z</time>
            </trkpt>
            <trkpt lat="46.313790" lon="10.778510">
                <time>2017-07-15T12:30:57Z</time>
            </trkpt>
            <trkpt lat="46.313670" lon="10.778390">
                <time>2017-07-15T12:30:58Z</time>
            </trkpt>
            <trkpt lat="46.313550" lon="10.778280">
                <time>2017-07-15T12:30:59Z</time>
            </trkpt>
            <trkpt lat="46.313430" lon="10.778150">
                <time>2017-07-15T12:31:00Z</time>
            </trkpt>
            <trkpt lat="46.313320" lon="10.778030">
                <time>2017-07-15T12:31:01Z</time>
            </trkpt>
            <trkpt lat="46.313200" lon="10.777890">
                <time>2017-07-15T12:31:02Z</time>
            </trkpt>
            <trkpt lat="46.313070" lon="10.777720">
                <time>2017-07-15T12:31:03Z</time>
            </trkpt>
            <trkpt lat="46.312960" lon="10.777560">
                <time>2017-07-15T12:31:04Z</time>
            </trkpt>
            <trkpt lat="46.312850" lon="10.777360">
                <time>2017-07-15T12:31:05Z</time>
            </trkpt>
            <trkpt lat="46.312740" lon="10.777130">
                <time>2017-07-15T12:31:06Z</time>
            </trkpt>
            <trkpt lat="46.312660" lon="10.776920">
                <time>2017-07-15T12:31:07Z</time>
            </trkpt>
            <trkpt lat="46.312560" lon="10.776690">
                <time>2017-07-15T12:31:08Z</time>
            </trkpt>
            <trkpt lat="46.312470" lon="10.776470">
                <time>2017-07-15T12:31:09Z</time>
            </trkpt>
            <trkpt lat="46.312380" lon="10.776250">
                <time>2017-07-15T12:31:10Z</time>
            </trkpt>
            <trkpt lat="46.312290" lon="10.776020">
                <time>2017-07-15T12:31:11Z</time>
            </trkpt>
            <trkpt lat="46.312210" lon="10.775830">
                <time>2017-07-15T12:31:12Z</time>
            </trkpt>
            <trkpt lat="46.312140" lon="10.775630">
                <time>2017-07-15T12:31:13Z</time>
            </trkpt>
            <trkpt lat="46.312060" lon="10.775430">
                <time>2017-07-15T12:31:14Z</time>
            </trkpt>
            <trkpt lat="46.311990" lon="10.775220">
                <time>2017-07-15T12:31:15Z</time>
            </trkpt>
            <trkpt lat="46.311940" lon="10.774990">
                <time>2017-07-15T12:31:16Z</time>
            </trkpt>
            <trkpt lat="46.311910" lon="10.774770">
                <time>2017-07-15T12:31:17Z</time>
            </trkpt>
            <trkpt lat="46.311890" lon="10.774530">
                <time>2017-07-15T12:31:18Z</time>
            </trkpt>
            <trkpt lat="46.311900" lon="10.774260">
                <time>2017-07-15T12:31:19Z</time>
            </trkpt>
            <trkpt lat="46.311920" lon="10.774020">
                <time>2017-07-15T12:31:20Z</time>
            </trkpt>
            <trkpt lat="46.311960" lon="10.773760">
                <time>2017-07-15T12:31:21Z</time>
            </trkpt>
            <trkpt lat="46.312020" lon="10.773480">
                <time>2017-07-15T12:31:22Z</time>
            </trkpt>
            <trkpt lat="46.312090" lon="10.773240">
                <time>2017-07-15T12:31:23Z</time>
            </trkpt>
            <trkpt lat="46.312170" lon="10.772960">
                <time>2017-07-15T12:31:24Z</time>
            </trkpt>
            <trkpt lat="46.312240" lon="10.772710">
                <time>2017-07-15T12:31:25Z</time>
            </trkpt>
            <trkpt lat="46.312310" lon="10.772460">
                <time>2017-07-15T12:31:26Z</time>
            </trkpt>
            <trkpt lat="46.312380" lon="10.772200">
                <time>2017-07-15T12:31:27Z</time>
            </trkpt>
            <trkpt lat="46.312450" lon="10.771980">
                <time>2017-07-15T12:31:28Z</time>
            </trkpt>
            <trkpt lat="46.312510" lon="10.771750">
                <time>2017-07-15T12:31:29Z</time>
            </trkpt>
            <trkpt lat="46.312560" lon="10.771520">
                <time>2017-07-15T12:31:30Z</time>
            </trkpt>
            <trkpt lat="46.312620" lon="10.771290">
                <time>2017-07-15T12:31:31Z</time>
            </trkpt>
            <trkpt lat="46.312660" lon="10.771050">
                <time>2017-07-15T12:31:32Z</time>
            </trkpt>
            <trkpt lat="46.312680" lon="10.770840">
                <time>2017-07-15T12:31:33Z</time>
            </trkpt>
            <trkpt lat="46.312700" lon="10.770610">
                <time>2017-07-15T12:31:34Z</time>
            </trkpt>
            <trkpt lat="46.312700" lon="10.770370">
                <time>2017-07-15T12:31:35Z</time>
            </trkpt>
            <trkpt lat="46.312690" lon="10.770140">
                <time>2017-07-15T12:31:36Z</time>
            </trkpt>
            <trkpt lat="46.312670" lon="10.769900">
                <time>2017-07-15T12:31:37Z</time>
            </trkpt>
            <trkpt lat="46.312630" lon="10.769640">
                <time>2017-07-15T12:31:38Z</time>
            </trkpt>
            <trkpt lat="46.312580" lon="10.769420">
                <time>2017-07-15T12:31:39Z</time>
            </trkpt>
            <trkpt lat="46.312510" lon="10.769180">
                <time>2017-07-15T12:31:40Z</time>
            </trkpt>
            <trkpt lat="46.312450" lon="10.768970">
                <time>2017-07-15T12:31:41Z</time>
            </trkpt>
            <trkpt lat="46.312390" lon="10.768760">
                <time>2017-07-15T12:31:42Z</time>
            </trkpt>
            <trkpt lat="46.312320" lon="10.768530">
                <time>2017-07-15T12:31:43Z</time>
            </trkpt>
            <trkpt lat="46.312260" lon="10.768330">
                <time>2017-07-15T12:31:44Z</time>
            </trkpt>
            <trkpt lat="46.312200" lon="10.768110">
                <time>2017-07-15T12:31:45Z</time>
            </trkpt>
            <trkpt lat="46.312140" lon="10.767900">
                <time>2017-07-15T12:31:46Z</time>
            </trkpt>
            <trkpt lat="46.312100" lon="10.767680">
                <time>2017-07-15T12:31:47Z</time>
            </trkpt>
            <trkpt lat="46.312070" lon="10.767450">
                <time>2017-07-15T12:31:48Z</time>
            </trkpt>
            <trkpt lat="46.312050" lon="10.767240">
                <time>2017-07-15T12:31:49Z</time>
            </trkpt>
            <trkpt lat="46.312040" lon="10.766980">
                <time>2017-07-15T12:31:50Z</time>
            </trkpt>
            <trkpt lat="46.312050" lon="10.766700">
                <time>2017-07-15T12:31:51Z</time>
            </trkpt>
            <trkpt lat="46.312060" lon="10.766460">
                <time>2017-07-15T12:31:52Z</time>
            </trkpt>
            <trkpt lat="46.312060" lon="10.766210">
                <time>2017-07-15T12:31:53Z</time>
            </trkpt>
            <trkpt lat="46.312070" lon="10.765910">
                <time>2017-07-15T12:31:54Z</time>
            </trkpt>
            <trkpt lat="46.312080" lon="10.765620">
                <time>2017-07-15T12:31:55Z</time>
            </trkpt>
            <trkpt lat="46.312100" lon="10.765290">
                <time>2017-07-15T12:31:56Z</time>
            </trkpt>
            <trkpt lat="46.312110" lon="10.764990">
                <time>2017-07-15T12:31:57Z</time>
            </trkpt>
            <trkpt lat="46.312110" lon="10.764660">
                <time>2017-07-15T12:31:58Z</time>
            </trkpt>
            <trkpt lat="46.312120" lon="10.764310">
                <time>2017-07-15T12:31:59Z</time>
            </trkpt>
            <trkpt lat="46.312130" lon="10.764020">
                <time>2017-07-15T12:32:00Z</time>
            </trkpt>
            <trkpt lat="46.312150" lon="10.763760">
                <time>2017-07-15T12:32:01Z</time>
            </trkpt>
            <trkpt lat="46.312170" lon="10.763530">
                <time>2017-07-15T12:32:02Z</time>
            </trkpt>
            <trkpt lat="46.312190" lon="10.763310">
                <time>2017-07-15T12:32:03Z</time>
            </trkpt>
            <trkpt lat="46.312210" lon="10.763100">
                <time>2017-07-15T12:32:04Z</time>
            </trkpt>
            <trkpt lat="46.312220" lon="10.762920">
                <time>2017-07-15T12:32:05Z</time>
            </trkpt>
            <trkpt lat="46.312220" lon="10.762740">
                <time>2017-07-15T12:32:06Z</time>
            </trkpt>
            <trkpt lat="46.312200" lon="10.762530">
                <time>2017-07-15T12:32:07Z</time>
            </trkpt>
            <trkpt lat="46.312170" lon="10.762350">
                <time>2017-07-15T12:32:08Z</time>
            </trkpt>
            <trkpt lat="46.312130" lon="10.762160">
                <time>2017-07-15T12:32:09Z</time>
            </trkpt>
            <trkpt lat="46.312080" lon="10.761970">
                <time>2017-07-15T12:32:10Z</time>
            </trkpt>
            <trkpt lat="46.312020" lon="10.761800">
                <time>2017-07-15T12:32:11Z</time>
            </trkpt>
            <trkpt lat="46.311950" lon="10.761620">
                <time>2017-07-15T12:32:12Z</time>
            </trkpt>
            <trkpt lat="46.311890" lon="10.761460">
                <time>2017-07-15T12:32:13Z</time>
            </trkpt>
            <trkpt lat="46.311830" lon="10.761300">
                <time>2017-07-15T12:32:14Z</time>
            </trkpt>
            <trkpt lat="46.311760" lon="10.761140">
                <time>2017-07-15T12:32:15Z</time>
            </trkpt>
            <trkpt lat="46.311710" lon="10.761000">
                <time>2017-07-15T12:32:16Z</time>
            </trkpt>
            <trkpt lat="46.311670" lon="10.760840">
                <time>2017-07-15T12:32:17Z</time>
            </trkpt>
            <trkpt lat="46.311640" lon="10.760700">
                <time>2017-07-15T12:32:18Z</time>
            </trkpt>
            <trkpt lat="46.311610" lon="10.760540">
                <time>2017-07-15T12:32:19Z</time>
            </trkpt>
            <trkpt lat="46.311580" lon="10.760370">
                <time>2017-07-15T12:32:20Z</time>
            </trkpt>
            <trkpt lat="46.311560" lon="10.760210">
                <time>2017-07-15T12:32:21Z</time>
            </trkpt>
            <trkpt lat="46.311550" lon="10.760040">
                <time>2017-07-15T12:32:22Z</time>
            </trkpt>
            <trkpt lat="46.311540" lon="10.759870">
                <time>2017-07-15T12:32:23Z</time>
            </trkpt>
            <trkpt lat="46.311520" lon="10.759720">
                <time>2017-07-15T12:32:24Z</time>
            </trkpt>
            <trkpt lat="46.311500" lon="10.759570">
                <time>2017-07-15T12:32:25Z</time>
            </trkpt>
            <trkpt lat="46.311480" lon="10.759410">
                <time>2017-07-15T12:32:26Z</time>
            </trkpt>
            <trkpt lat="46.311470" lon="10.759270">
                <time>2017-07-15T12:32:27Z</time>
            </trkpt>
            <trkpt lat="46.311450" lon="10.759120">
                <time>2017-07-15T12:32:28Z</time>
            </trkpt>
            <trkpt lat="46.311440" lon="10.758970">
                <time>2017-07-15T12:32:29Z</time>
            </trkpt>
            <trkpt lat="46.311430" lon="10.758820">
                <time>2017-07-15T12:32:30Z</time>
            </trkpt>
            <trkpt lat="46.311410" lon="10.758650">
                <time>2017-07-15T12:32:31Z</time>
            </trkpt>
            <trkpt lat="46.311390" lon="10.758500">
                <time>2017-07-15T12:32:32Z</time>
            </trkpt>
            <trkpt lat="46.311370" lon="10.758330">
                <time>2017-07-15T12:32:33Z</time>
            </trkpt>
            <trkpt lat="46.311360" lon="10.758150">
                <time>2017-07-15T12:32:34Z</time>
            </trkpt>
            <trkpt lat="46.311340" lon="10.757990">
                <time>2017-07-15T12:32:35Z</time>
            </trkpt>
            <trkpt lat="46.311320" lon="10.757830">
                <time>2017-07-15T12:32:36Z</time>
            </trkpt>
            <trkpt lat="46.311300" lon="10.757690">
                <time>2017-07-15T12:32:37Z</time>
            </trkpt>
            <trkpt lat="46.311280" lon="10.757540">
                <time>2017-07-15T12:32:38Z</time>
            </trkpt>
            <trkpt lat="46.311260" lon="10.757380">
                <time>2017-07-15T12:32:39Z</time>
            </trkpt>
            <trkpt lat="46.311240" lon="10.757240">
                <time>2017-07-15T12:32:40Z</time>
            </trkpt>
            <trkpt lat="46.311220" lon="10.757100">
                <time>2017-07-15T12:32:41Z</time>
            </trkpt>
            <trkpt lat="46.311210" lon="10.756940">
                <time>2017-07-15T12:32:42Z</time>
            </trkpt>
            <trkpt lat="46.311200" lon="10.756800">
                <time>2017-07-15T12:32:43Z</time>
            </trkpt>
            <trkpt lat="46.311180" lon="10.756640">
                <time>2017-07-15T12:32:44Z</time>
            </trkpt>
            <trkpt lat="46.311180" lon="10.756510">
                <time>2017-07-15T12:32:45Z</time>
            </trkpt>
            <trkpt lat="46.311180" lon="10.756360">
                <time>2017-07-15T12:32:46Z</time>
            </trkpt>
            <trkpt lat="46.311180" lon="10.756200">
                <time>2017-07-15T12:32:47Z</time>
            </trkpt>
            <trkpt lat="46.311190" lon="10.756070">
                <time>2017-07-15T12:32:48Z</time>
            </trkpt>
            <trkpt lat="46.311200" lon="10.755930">
                <time>2017-07-15T12:32:49Z</time>
            </trkpt>
            <trkpt lat="46.311210" lon="10.755770">
                <time>2017-07-15T12:32:50Z</time>
            </trkpt>
            <trkpt lat="46.311240" lon="10.755610">
                <time>2017-07-15T12:32:51Z</time>
            </trkpt>
            <trkpt lat="46.311270" lon="10.755430">
                <time>2017-07-15T12:32:52Z</time>
            </trkpt>
            <trkpt lat="46.311290" lon="10.755260">
                <time>2017-07-15T12:32:53Z</time>
            </trkpt>
            <trkpt lat="46.311320" lon="10.755090">
                <time>2017-07-15T12:32:54Z</time>
            </trkpt>
            <trkpt lat="46.311340" lon="10.754900">
                <time>2017-07-15T12:32:55Z</time>
            </trkpt>
            <trkpt lat="46.311360" lon="10.754750">
                <time>2017-07-15T12:32:56Z</time>
            </trkpt>
            <trkpt lat="46.311380" lon="10.754590">
                <time>2017-07-15T12:32:57Z</time>
            </trkpt>
            <trkpt lat="46.311400" lon="10.754430">
                <time>2017-07-15T12:32:58Z</time>
            </trkpt>
            <trkpt lat="46.311410" lon="10.754280">
                <time>2017-07-15T12:32:59Z</time>
            </trkpt>
            <trkpt lat="46.311430" lon="10.754130">
                <time>2017-07-15T12:33:00Z</time>
            </trkpt>
            <trkpt lat="46.311440" lon="10.753980">
                <time>2017-07-15T12:33:01Z</time>
            </trkpt>
            <trkpt lat="46.311450" lon="10.753820">
                <time>2017-07-15T12:33:02Z</time>
            </trkpt>
            <trkpt lat="46.311460" lon="10.753650">
                <time>2017-07-15T12:33:03Z</time>
            </trkpt>
            <trkpt lat="46.311460" lon="10.753500">
                <time>2017-07-15T12:33:04Z</time>
            </trkpt>
            <trkpt lat="46.311460" lon="10.753320">
                <time>2017-07-15T12:33:05Z</time>
            </trkpt>
            <trkpt lat="46.311450" lon="10.753140">
                <time>2017-07-15T12:33:06Z</time>
            </trkpt>
            <trkpt lat="46.311460" lon="10.752950">
                <time>2017-07-15T12:33:07Z</time>
            </trkpt>
            <trkpt lat="46.311460" lon="10.752770">
                <time>2017-07-15T12:33:08Z</time>
            </trkpt>
            <trkpt lat="46.311460" lon="10.752600">
                <time>2017-07-15T12:33:09Z</time>
            </trkpt>
            <trkpt lat="46.311460" lon="10.752410">
                <time>2017-07-15T12:33:10Z</time>
            </trkpt>
            <trkpt lat="46.311450" lon="10.752220">
                <time>2017-07-15T12:33:11Z</time>
            </trkpt>
            <trkpt lat="46.311450" lon="10.752060">
                <time>2017-07-15T12:33:12Z</time>
            </trkpt>
            <trkpt lat="46.311440" lon="10.751890">
                <time>2017-07-15T12:33:13Z</time>
            </trkpt>
            <trkpt lat="46.311440" lon="10.751730">
                <time>2017-07-15T12:33:14Z</time>
            </trkpt>
            <trkpt lat="46.311440" lon="10.751590">
                <time>2017-07-15T12:33:15Z</time>
            </trkpt>
            <trkpt lat="46.311430" lon="10.751450">
                <time>2017-07-15T12:33:16Z</time>
            </trkpt>
            <trkpt lat="46.311430" lon="10.751330">
                <time>2017-07-15T12:33:17Z</time>
            </trkpt>
            <trkpt lat="46.311420" lon="10.751200">
                <time>2017-07-15T12:33:18Z</time>
            </trkpt>
            <trkpt lat="46.311420" lon="10.751060">
                <time>2017-07-15T12:33:19Z</time>
            </trkpt>
            <trkpt lat="46.311420" lon="10.750930">
                <time>2017-07-15T12:33:20Z</time>
            </trkpt>
            <trkpt lat="46.311420" lon="10.750800">
                <time>2017-07-15T12:33:21Z</time>
            </trkpt>
            <trkpt lat="46.311420" lon="10.750660">
                <time>2017-07-15T12:33:22Z</time>
            </trkpt>
            <trkpt lat="46.311420" lon="10.750510">
                <time>2017-07-15T12:33:23Z</time>
            </trkpt>
            <trkpt lat="46.311420" lon="10.750350">
                <time>2017-07-15T12:33:24Z</time>
            </trkpt>
            <trkpt lat="46.311420" lon="10.750200">
                <time>2017-07-15T12:33:25Z</time>
            </trkpt>
            <trkpt lat="46.311410" lon="10.750040">
                <time>2017-07-15T12:33:26Z</time>
            </trkpt>
            <trkpt lat="46.311400" lon="10.749850">
                <time>2017-07-15T12:33:27Z</time>
            </trkpt>
            <trkpt lat="46.311380" lon="10.749680">
                <time>2017-07-15T12:33:28Z</time>
            </trkpt>
            <trkpt lat="46.311330" lon="10.749510">
                <time>2017-07-15T12:33:29Z</time>
            </trkpt>
            <trkpt lat="46.311280" lon="10.749320">
                <time>2017-07-15T12:33:30Z</time>
            </trkpt>
            <trkpt lat="46.311220" lon="10.749160">
                <time>2017-07-15T12:33:31Z</time>
            </trkpt>
            <trkpt lat="46.311150" lon="10.748970">
                <time>2017-07-15T12:33:32Z</time>
            </trkpt>
            <trkpt lat="46.311080" lon="10.748820">
                <time>2017-07-15T12:33:33Z</time>
            </trkpt>
            <trkpt lat="46.311010" lon="10.748660">
                <time>2017-07-15T12:33:34Z</time>
            </trkpt>
            <trkpt lat="46.310940" lon="10.748480">
                <time>2017-07-15T12:33:35Z</time>
            </trkpt>
            <trkpt lat="46.310890" lon="10.748330">
                <time>2017-07-15T12:33:36Z</time>
            </trkpt>
            <trkpt lat="46.310840" lon="10.748160">
                <time>2017-07-15T12:33:37Z</time>
            </trkpt>
            <trkpt lat="46.310790" lon="10.748010">
                <time>2017-07-15T12:33:38Z</time>
            </trkpt>
            <trkpt lat="46.310740" lon="10.747850">
                <time>2017-07-15T12:33:39Z</time>
            </trkpt>
            <trkpt lat="46.310710" lon="10.747700">
                <time>2017-07-15T12:33:40Z</time>
            </trkpt>
            <trkpt lat="46.310680" lon="10.747560">
                <time>2017-07-15T12:33:41Z</time>
            </trkpt>
            <trkpt lat="46.310660" lon="10.747430">
                <time>2017-07-15T12:33:42Z</time>
            </trkpt>
            <trkpt lat="46.310640" lon="10.747300">
                <time>2017-07-15T12:33:43Z</time>
            </trkpt>
            <trkpt lat="46.310630" lon="10.747180">
                <time>2017-07-15T12:33:44Z</time>
            </trkpt>
            <trkpt lat="46.310620" lon="10.747070">
                <time>2017-07-15T12:33:45Z</time>
            </trkpt>
            <trkpt lat="46.310620" lon="10.746940">
                <time>2017-07-15T12:33:46Z</time>
            </trkpt>
            <trkpt lat="46.310630" lon="10.746840">
                <time>2017-07-15T12:33:47Z</time>
            </trkpt>
            <trkpt lat="46.310640" lon="10.746720">
                <time>2017-07-15T12:33:48Z</time>
            </trkpt>
            <trkpt lat="46.310650" lon="10.746620">
                <time>2017-07-15T12:33:49Z</time>
            </trkpt>
            <trkpt lat="46.310660" lon="10.746500">
                <time>2017-07-15T12:33:50Z</time>
            </trkpt>
            <trkpt lat="46.310660" lon="10.746380">
                <time>2017-07-15T12:33:51Z</time>
            </trkpt>
            <trkpt lat="46.310670" lon="10.746260">
                <time>2017-07-15T12:33:52Z</time>
            </trkpt>
            <trkpt lat="46.310670" lon="10.746130">
                <time>2017-07-15T12:33:53Z</time>
            </trkpt>
            <trkpt lat="46.310670" lon="10.745990">
                <time>2017-07-15T12:33:54Z</time>
            </trkpt>
            <trkpt lat="46.310680" lon="10.745850">
                <time>2017-07-15T12:33:55Z</time>
            </trkpt>
            <trkpt lat="46.310690" lon="10.745690">
                <time>2017-07-15T12:33:56Z</time>
            </trkpt>
            <trkpt lat="46.310700" lon="10.745530">
                <time>2017-07-15T12:33:57Z</time>
            </trkpt>
            <trkpt lat="46.310720" lon="10.745370">
                <time>2017-07-15T12:33:58Z</time>
            </trkpt>
            <trkpt lat="46.310730" lon="10.745210">
                <time>2017-07-15T12:33:59Z</time>
            </trkpt>
            <trkpt lat="46.310740" lon="10.745060">
                <time>2017-07-15T12:34:00Z</time>
            </trkpt>
            <trkpt lat="46.310730" lon="10.744900">
                <time>2017-07-15T12:34:01Z</time>
            </trkpt>
            <trkpt lat="46.310720" lon="10.744750">
                <time>2017-07-15T12:34:02Z</time>
            </trkpt>
            <trkpt lat="46.310710" lon="10.744620">
                <time>2017-07-15T12:34:03Z</time>
            </trkpt>
            <trkpt lat="46.310700" lon="10.744480">
                <time>2017-07-15T12:34:04Z</time>
            </trkpt>
            <trkpt lat="46.310690" lon="10.744360">
                <time>2017-07-15T12:34:05Z</time>
            </trkpt>
            <trkpt lat="46.310700" lon="10.744230">
                <time>2017-07-15T12:34:06Z</time>
            </trkpt>
            <trkpt lat="46.310720" lon="10.744080">
                <time>2017-07-15T12:34:07Z</time>
            </trkpt>
            <trkpt lat="46.310760" lon="10.743950">
                <time>2017-07-15T12:34:08Z</time>
            </trkpt>
            <trkpt lat="46.310810" lon="10.743820">
                <time>2017-07-15T12:34:09Z</time>
            </trkpt>
            <trkpt lat="46.310880" lon="10.743680">
                <time>2017-07-15T12:34:10Z</time>
            </trkpt>
            <trkpt lat="46.310940" lon="10.743530">
                <time>2017-07-15T12:34:11Z</time>
            </trkpt>
            <trkpt lat="46.311020" lon="10.743370">
                <time>2017-07-15T12:34:12Z</time>
            </trkpt>
            <trkpt lat="46.311090" lon="10.743230">
                <time>2017-07-15T12:34:13Z</time>
            </trkpt>
            <trkpt lat="46.311150" lon="10.743070">
                <time>2017-07-15T12:34:14Z</time>
            </trkpt>
            <trkpt lat="46.311220" lon="10.742900">
                <time>2017-07-15T12:34:15Z</time>
            </trkpt>
            <trkpt lat="46.311270" lon="10.742750">
                <time>2017-07-15T12:34:16Z</time>
            </trkpt>
            <trkpt lat="46.311340" lon="10.742590">
                <time>2017-07-15T12:34:17Z</time>
            </trkpt>
            <trkpt lat="46.311410" lon="10.742420">
                <time>2017-07-15T12:34:18Z</time>
            </trkpt>
            <trkpt lat="46.311460" lon="10.742260">
                <time>2017-07-15T12:34:19Z</time>
            </trkpt>
            <trkpt lat="46.311530" lon="10.742080">
                <time>2017-07-15T12:34:20Z</time>
            </trkpt>
            <trkpt lat="46.311590" lon="10.741920">
                <time>2017-07-15T12:34:21Z</time>
            </trkpt>
            <trkpt lat="46.311660" lon="10.741740">
                <time>2017-07-15T12:34:22Z</time>
            </trkpt>
            <trkpt lat="46.311720" lon="10.741560">
                <time>2017-07-15T12:34:23Z</time>
            </trkpt>
            <trkpt lat="46.311770" lon="10.741380">
                <time>2017-07-15T12:34:24Z</time>
            </trkpt>
            <trkpt lat="46.311810" lon="10.741190">
                <time>2017-07-15T12:34:25Z</time>
            </trkpt>
            <trkpt lat="46.311840" lon="10.741000">
                <time>2017-07-15T12:34:26Z</time>
            </trkpt>
            <trkpt lat="46.311860" lon="10.740820">
                <time>2017-07-15T12:34:27Z</time>
            </trkpt>
            <trkpt lat="46.311880" lon="10.740620">
                <time>2017-07-15T12:34:28Z</time>
            </trkpt>
            <trkpt lat="46.311910" lon="10.740440">
                <time>2017-07-15T12:34:29Z</time>
            </trkpt>
            <trkpt lat="46.311930" lon="10.740250">
                <time>2017-07-15T12:34:30Z</time>
            </trkpt>
            <trkpt lat="46.311960" lon="10.740050">
                <time>2017-07-15T12:34:31Z</time>
            </trkpt>
            <trkpt lat="46.311990" lon="10.739870">
                <time>2017-07-15T12:34:32Z</time>
            </trkpt>
            <trkpt lat="46.312040" lon="10.739670">
                <time>2017-07-15T12:34:33Z</time>
            </trkpt>
            <trkpt lat="46.312100" lon="10.739470">
                <time>2017-07-15T12:34:34Z</time>
            </trkpt>
            <trkpt lat="46.312170" lon="10.739300">
                <time>2017-07-15T12:34:35Z</time>
            </trkpt>
            <trkpt lat="46.312240" lon="10.739120">
                <time>2017-07-15T12:34:36Z</time>
            </trkpt>
            <trkpt lat="46.312310" lon="10.738970">
                <time>2017-07-15T12:34:37Z</time>
            </trkpt>
            <trkpt lat="46.312380" lon="10.738820">
                <time>2017-07-15T12:34:38Z</time>
            </trkpt>
            <trkpt lat="46.312460" lon="10.738660">
                <time>2017-07-15T12:34:39Z</time>
            </trkpt>
            <trkpt lat="46.312530" lon="10.738520">
                <time>2017-07-15T12:34:40Z</time>
            </trkpt>
            <trkpt lat="46.312600" lon="10.738380">
                <time>2017-07-15T12:34:41Z</time>
            </trkpt>
            <trkpt lat="46.312660" lon="10.738240">
                <time>2017-07-15T12:34:42Z</time>
            </trkpt>
            <trkpt lat="46.312730" lon="10.738100">
                <time>2017-07-15T12:34:43Z</time>
            </trkpt>
            <trkpt lat="46.312800" lon="10.737960">
                <time>2017-07-15T12:34:44Z</time>
            </trkpt>
            <trkpt lat="46.312850" lon="10.737850">
                <time>2017-07-15T12:34:45Z</time>
            </trkpt>
            <trkpt lat="46.312900" lon="10.737720">
                <time>2017-07-15T12:34:46Z</time>
            </trkpt>
            <trkpt lat="46.312920" lon="10.737590">
                <time>2017-07-15T12:34:47Z</time>
            </trkpt>
            <trkpt lat="46.312910" lon="10.737480">
                <time>2017-07-15T12:34:48Z</time>
            </trkpt>
            <trkpt lat="46.312900" lon="10.737360">
                <time>2017-07-15T12:34:49Z</time>
            </trkpt>
            <trkpt lat="46.312900" lon="10.737250">
                <time>2017-07-15T12:34:50Z</time>
            </trkpt>
            <trkpt lat="46.312870" lon="10.737130">
                <time>2017-07-15T12:34:51Z</time>
            </trkpt>
            <trkpt lat="46.312830" lon="10.737010">
                <time>2017-07-15T12:34:52Z</time>
            </trkpt>
            <trkpt lat="46.312790" lon="10.736900">
                <time>2017-07-15T12:34:53Z</time>
            </trkpt>
            <trkpt lat="46.312740" lon="10.736770">
                <time>2017-07-15T12:34:54Z</time>
            </trkpt>
            <trkpt lat="46.312700" lon="10.736640">
                <time>2017-07-15T12:34:55Z</time>
            </trkpt>
            <trkpt lat="46.312660" lon="10.736540">
                <time>2017-07-15T12:34:56Z</time>
            </trkpt>
            <trkpt lat="46.312610" lon="10.736420">
                <time>2017-07-15T12:34:57Z</time>
            </trkpt>
            <trkpt lat="46.312570" lon="10.736290">
                <time>2017-07-15T12:34:58Z</time>
            </trkpt>
            <trkpt lat="46.312520" lon="10.736160">
                <time>2017-07-15T12:34:59Z</time>
            </trkpt>
            <trkpt lat="46.312470" lon="10.736020">
                <time>2017-07-15T12:35:00Z</time>
            </trkpt>
            <trkpt lat="46.312430" lon="10.735890">
                <time>2017-07-15T12:35:01Z</time>
            </trkpt>
            <trkpt lat="46.312380" lon="10.735750">
                <time>2017-07-15T12:35:02Z</time>
            </trkpt>
            <trkpt lat="46.312330" lon="10.735620">
                <time>2017-07-15T12:35:03Z</time>
            </trkpt>
            <trkpt lat="46.312290" lon="10.735500">
                <time>2017-07-15T12:35:04Z</time>
            </trkpt>
            <trkpt lat="46.312250" lon="10.735380">
                <time>2017-07-15T12:35:05Z</time>
            </trkpt>
            <trkpt lat="46.312200" lon="10.735250">
                <time>2017-07-15T12:35:06Z</time>
            </trkpt>
            <trkpt lat="46.312170" lon="10.735130">
                <time>2017-07-15T12:35:07Z</time>
            </trkpt>
            <trkpt lat="46.312120" lon="10.735000">
                <time>2017-07-15T12:35:08Z</time>
            </trkpt>
            <trkpt lat="46.312080" lon="10.734880">
                <time>2017-07-15T12:35:09Z</time>
            </trkpt>
            <trkpt lat="46.312050" lon="10.734760">
                <time>2017-07-15T12:35:10Z</time>
            </trkpt>
            <trkpt lat="46.312000" lon="10.734620">
                <time>2017-07-15T12:35:11Z</time>
            </trkpt>
            <trkpt lat="46.311950" lon="10.734510">
                <time>2017-07-15T12:35:12Z</time>
            </trkpt>
            <trkpt lat="46.311900" lon="10.734390">
                <time>2017-07-15T12:35:13Z</time>
            </trkpt>
            <trkpt lat="46.311860" lon="10.734260">
                <time>2017-07-15T12:35:14Z</time>
            </trkpt>
            <trkpt lat="46.311810" lon="10.734140">
                <time>2017-07-15T12:35:15Z</time>
            </trkpt>
            <trkpt lat="46.311770" lon="10.734010">
                <time>2017-07-15T12:35:16Z</time>
            </trkpt>
            <trkpt lat="46.311730" lon="10.733890">
                <time>2017-07-15T12:35:17Z</time>
            </trkpt>
            <trkpt lat="46.311680" lon="10.733770">
                <time>2017-07-15T12:35:18Z</time>
            </trkpt>
            <trkpt lat="46.311630" lon="10.733630">
                <time>2017-07-15T12:35:19Z</time>
            </trkpt>
            <trkpt lat="46.311590" lon="10.733510">
                <time>2017-07-15T12:35:20Z</time>
            </trkpt>
            <trkpt lat="46.311540" lon="10.733380">
                <time>2017-07-15T12:35:21Z</time>
            </trkpt>
            <trkpt lat="46.311490" lon="10.733240">
                <time>2017-07-15T12:35:22Z</time>
            </trkpt>
            <trkpt lat="46.311440" lon="10.733110">
                <time>2017-07-15T12:35:23Z</time>
            </trkpt>
            <trkpt lat="46.311390" lon="10.732970">
                <time>2017-07-15T12:35:24Z</time>
            </trkpt>
            <trkpt lat="46.311350" lon="10.732860">
                <time>2017-07-15T12:35:25Z</time>
            </trkpt>
            <trkpt lat="46.311300" lon="10.732740">
                <time>2017-07-15T12:35:26Z</time>
            </trkpt>
            <trkpt lat="46.311250" lon="10.732610">
                <time>2017-07-15T12:35:27Z</time>
            </trkpt>
            <trkpt lat="46.311220" lon="10.732510">
                <time>2017-07-15T12:35:28Z</time>
            </trkpt>
            <trkpt lat="46.311180" lon="10.732390">
                <time>2017-07-15T12:35:29Z</time>
            </trkpt>
            <trkpt lat="46.311130" lon="10.732260">
                <time>2017-07-15T12:35:30Z</time>
            </trkpt>
            <trkpt lat="46.311090" lon="10.732130">
                <time>2017-07-15T12:35:31Z</time>
            </trkpt>
            <trkpt lat="46.311040" lon="10.731990">
                <time>2017-07-15T12:35:32Z</time>
            </trkpt>
            <trkpt lat="46.311000" lon="10.731880">
                <time>2017-07-15T12:35:33Z</time>
            </trkpt>
            <trkpt lat="46.310950" lon="10.731750">
                <time>2017-07-15T12:35:34Z</time>
            </trkpt>
            <trkpt lat="46.310910" lon="10.731620">
                <time>2017-07-15T12:35:35Z</time>
            </trkpt>
            <trkpt lat="46.310870" lon="10.731500">
                <time>2017-07-15T12:35:36Z</time>
            </trkpt>
            <trkpt lat="46.310810" lon="10.731360">
                <time>2017-07-15T12:35:37Z</time>
            </trkpt>
            <trkpt lat="46.310760" lon="10.731210">
                <time>2017-07-15T12:35:38Z</time>
            </trkpt>
            <trkpt lat="46.310710" lon="10.731080">
                <time>2017-07-15T12:35:39Z</time>
            </trkpt>
            <trkpt lat="46.310660" lon="10.730950">
                <time>2017-07-15T12:35:40Z</time>
            </trkpt>
            <trkpt lat="46.310620" lon="10.730830">
                <time>2017-07-15T12:35:41Z</time>
            </trkpt>
            <trkpt lat="46.310580" lon="10.730720">
                <time>2017-07-15T12:35:42Z</time>
            </trkpt>
            <trkpt lat="46.310540" lon="10.730610">
                <time>2017-07-15T12:35:43Z</time>
            </trkpt>
            <trkpt lat="46.310510" lon="10.730520">
                <time>2017-07-15T12:35:44Z</time>
            </trkpt>
            <trkpt lat="46.310470" lon="10.730420">
                <time>2017-07-15T12:35:45Z</time>
            </trkpt>
            <trkpt lat="46.310420" lon="10.730320">
                <time>2017-07-15T12:35:46Z</time>
            </trkpt>
            <trkpt lat="46.310380" lon="10.730220">
                <time>2017-07-15T12:35:47Z</time>
            </trkpt>
            <trkpt lat="46.310340" lon="10.730130">
                <time>2017-07-15T12:35:48Z</time>
            </trkpt>
            <trkpt lat="46.310300" lon="10.730060">
                <time>2017-07-15T12:35:49Z</time>
            </trkpt>
            <trkpt lat="46.310250" lon="10.729980">
                <time>2017-07-15T12:35:50Z</time>
            </trkpt>
            <trkpt lat="46.310200" lon="10.729920">
                <time>2017-07-15T12:35:51Z</time>
            </trkpt>
            <trkpt lat="46.310160" lon="10.729880">
                <time>2017-07-15T12:35:52Z</time>
            </trkpt>
            <trkpt lat="46.310120" lon="10.729840">
                <time>2017-07-15T12:35:53Z</time>
            </trkpt>
            <trkpt lat="46.310090" lon="10.729810">
                <time>2017-07-15T12:35:54Z</time>
            </trkpt>
            <trkpt lat="46.310060" lon="10.729790">
                <time>2017-07-15T12:35:55Z</time>
            </trkpt>
            <trkpt lat="46.310010" lon="10.729760">
                <time>2017-07-15T12:35:56Z</time>
            </trkpt>
            <trkpt lat="46.309960" lon="10.729730">
                <time>2017-07-15T12:35:57Z</time>
            </trkpt>
            <trkpt lat="46.309910" lon="10.729700">
                <time>2017-07-15T12:35:58Z</time>
            </trkpt>
            <trkpt lat="46.309840" lon="10.729670">
                <time>2017-07-15T12:35:59Z</time>
            </trkpt>
            <trkpt lat="46.309790" lon="10.729650">
                <time>2017-07-15T12:36:00Z</time>
            </trkpt>
            <trkpt lat="46.309710" lon="10.729630">
                <time>2017-07-15T12:36:01Z</time>
            </trkpt>
            <trkpt lat="46.309630" lon="10.729620">
                <time>2017-07-15T12:36:02Z</time>
            </trkpt>
            <trkpt lat="46.309540" lon="10.729600">
                <time>2017-07-15T12:36:03Z</time>
            </trkpt>
            <trkpt lat="46.309430" lon="10.729590">
                <time>2017-07-15T12:36:04Z</time>
            </trkpt>
            <trkpt lat="46.309330" lon="10.729570">
                <time>2017-07-15T12:36:05Z</time>
            </trkpt>
            <trkpt lat="46.309230" lon="10.729560">
                <time>2017-07-15T12:36:06Z</time>
            </trkpt>
            <trkpt lat="46.309120" lon="10.729560">
                <time>2017-07-15T12:36:07Z</time>
            </trkpt>
            <trkpt lat="46.309030" lon="10.729570">
                <time>2017-07-15T12:36:08Z</time>
            </trkpt>
            <trkpt lat="46.308950" lon="10.729580">
                <time>2017-07-15T12:36:09Z</time>
            </trkpt>
            <trkpt lat="46.308860" lon="10.729560">
                <time>2017-07-15T12:36:10Z</time>
            </trkpt>
            <trkpt lat="46.308790" lon="10.729510">
                <time>2017-07-15T12:36:11Z</time>
            </trkpt>
            <trkpt lat="46.308710" lon="10.729440">
                <time>2017-07-15T12:36:12Z</time>
            </trkpt>
            <trkpt lat="46.308640" lon="10.729370">
                <time>2017-07-15T12:36:13Z</time>
            </trkpt>
            <trkpt lat="46.308550" lon="10.729280">
                <time>2017-07-15T12:36:14Z</time>
            </trkpt>
            <trkpt lat="46.308460" lon="10.729200">
                <time>2017-07-15T12:36:15Z</time>
            </trkpt>
            <trkpt lat="46.308380" lon="10.729100">
                <time>2017-07-15T12:36:16Z</time>
            </trkpt>
            <trkpt lat="46.308310" lon="10.728980">
                <time>2017-07-15T12:36:17Z</time>
            </trkpt>
            <trkpt lat="46.308260" lon="10.728840">
                <time>2017-07-15T12:36:18Z</time>
            </trkpt>
            <trkpt lat="46.308220" lon="10.728690">
                <time>2017-07-15T12:36:19Z</time>
            </trkpt>
            <trkpt lat="46.308180" lon="10.728500">
                <time>2017-07-15T12:36:20Z</time>
            </trkpt>
            <trkpt lat="46.308160" lon="10.728330">
                <time>2017-07-15T12:36:21Z</time>
            </trkpt>
            <trkpt lat="46.308140" lon="10.728160">
                <time>2017-07-15T12:36:22Z</time>
            </trkpt>
            <trkpt lat="46.308100" lon="10.727990">
                <time>2017-07-15T12:36:23Z</time>
            </trkpt>
            <trkpt lat="46.308050" lon="10.727850">
                <time>2017-07-15T12:36:24Z</time>
            </trkpt>
            <trkpt lat="46.307980" lon="10.727700">
                <time>2017-07-15T12:36:25Z</time>
            </trkpt>
            <trkpt lat="46.307910" lon="10.727550">
                <time>2017-07-15T12:36:26Z</time>
            </trkpt>
            <trkpt lat="46.307830" lon="10.727410">
                <time>2017-07-15T12:36:27Z</time>
            </trkpt>
            <trkpt lat="46.307750" lon="10.727250">
                <time>2017-07-15T12:36:28Z</time>
            </trkpt>
            <trkpt lat="46.307690" lon="10.727120">
                <time>2017-07-15T12:36:29Z</time>
            </trkpt>
            <trkpt lat="46.307640" lon="10.726970">
                <time>2017-07-15T12:36:30Z</time>
            </trkpt>
            <trkpt lat="46.307620" lon="10.726810">
                <time>2017-07-15T12:36:31Z</time>
            </trkpt>
            <trkpt lat="46.307610" lon="10.726640">
                <time>2017-07-15T12:36:32Z</time>
            </trkpt>
            <trkpt lat="46.307620" lon="10.726460">
                <time>2017-07-15T12:36:33Z</time>
            </trkpt>
            <trkpt lat="46.307630" lon="10.726270">
                <time>2017-07-15T12:36:34Z</time>
            </trkpt>
            <trkpt lat="46.307630" lon="10.726050">
                <time>2017-07-15T12:36:35Z</time>
            </trkpt>
            <trkpt lat="46.307610" lon="10.725810">
                <time>2017-07-15T12:36:36Z</time>
            </trkpt>
            <trkpt lat="46.307560" lon="10.725590">
                <time>2017-07-15T12:36:37Z</time>
            </trkpt>
            <trkpt lat="46.307480" lon="10.725350">
                <time>2017-07-15T12:36:38Z</time>
            </trkpt>
            <trkpt lat="46.307370" lon="10.725100">
                <time>2017-07-15T12:36:39Z</time>
            </trkpt>
            <trkpt lat="46.307270" lon="10.724880">
                <time>2017-07-15T12:36:40Z</time>
            </trkpt>
            <trkpt lat="46.307170" lon="10.724650">
                <time>2017-07-15T12:36:41Z</time>
            </trkpt>
            <trkpt lat="46.307090" lon="10.724380">
                <time>2017-07-15T12:36:42Z</time>
            </trkpt>
            <trkpt lat="46.307020" lon="10.724140">
                <time>2017-07-15T12:36:43Z</time>
            </trkpt>
            <trkpt lat="46.306930" lon="10.723890">
                <time>2017-07-15T12:36:44Z</time>
            </trkpt>
            <trkpt lat="46.306830" lon="10.723660">
                <time>2017-07-15T12:36:45Z</time>
            </trkpt>
            <trkpt lat="46.306720" lon="10.723430">
                <time>2017-07-15T12:36:46Z</time>
            </trkpt>
            <trkpt lat="46.306590" lon="10.723180">
                <time>2017-07-15T12:36:47Z</time>
            </trkpt>
            <trkpt lat="46.306470" lon="10.722950">
                <time>2017-07-15T12:36:48Z</time>
            </trkpt>
            <trkpt lat="46.306350" lon="10.722710">
                <time>2017-07-15T12:36:49Z</time>
            </trkpt>
            <trkpt lat="46.306220" lon="10.722460">
                <time>2017-07-15T12:36:50Z</time>
            </trkpt>
            <trkpt lat="46.306110" lon="10.722240">
                <time>2017-07-15T12:36:51Z</time>
            </trkpt>
            <trkpt lat="46.305990" lon="10.722010">
                <time>2017-07-15T12:36:52Z</time>
            </trkpt>
            <trkpt lat="46.305900" lon="10.721840">
                <time>2017-07-15T12:36:53Z</time>
            </trkpt>
            <trkpt lat="46.305810" lon="10.721690">
                <time>2017-07-15T12:36:54Z</time>
            </trkpt>
            <trkpt lat="46.305730" lon="10.721540">
                <time>2017-07-15T12:36:55Z</time>
            </trkpt>
            <trkpt lat="46.305660" lon="10.721410">
                <time>2017-07-15T12:36:56Z</time>
            </trkpt>
            <trkpt lat="46.305590" lon="10.721270">
                <time>2017-07-15T12:36:57Z</time>
            </trkpt>
            <trkpt lat="46.305520" lon="10.721120">
                <time>2017-07-15T12:36:58Z</time>
            </trkpt>
            <trkpt lat="46.305460" lon="10.721000">
                <time>2017-07-15T12:36:59Z</time>
            </trkpt>
            <trkpt lat="46.305390" lon="10.720870">
                <time>2017-07-15T12:37:00Z</time>
            </trkpt>
            <trkpt lat="46.305330" lon="10.720760">
                <time>2017-07-15T12:37:01Z</time>
            </trkpt>
            <trkpt lat="46.305280" lon="10.720640">
                <time>2017-07-15T12:37:02Z</time>
            </trkpt>
            <trkpt lat="46.305230" lon="10.720520">
                <time>2017-07-15T12:37:03Z</time>
            </trkpt>
            <trkpt lat="46.305170" lon="10.720380">
                <time>2017-07-15T12:37:04Z</time>
            </trkpt>
            <trkpt lat="46.305120" lon="10.720250">
                <time>2017-07-15T12:37:05Z</time>
            </trkpt>
            <trkpt lat="46.305080" lon="10.720110">
                <time>2017-07-15T12:37:06Z</time>
            </trkpt>
            <trkpt lat="46.305030" lon="10.719970">
                <time>2017-07-15T12:37:07Z</time>
            </trkpt>
            <trkpt lat="46.304980" lon="10.719840">
                <time>2017-07-15T12:37:08Z</time>
            </trkpt>
            <trkpt lat="46.304940" lon="10.719710">
                <time>2017-07-15T12:37:09Z</time>
            </trkpt>
            <trkpt lat="46.304890" lon="10.719570">
                <time>2017-07-15T12:37:10Z</time>
            </trkpt>
            <trkpt lat="46.304850" lon="10.719430">
                <time>2017-07-15T12:37:11Z</time>
            </trkpt>
            <trkpt lat="46.304810" lon="10.719300">
                <time>2017-07-15T12:37:12Z</time>
            </trkpt>
            <trkpt lat="46.304760" lon="10.719150">
                <time>2017-07-15T12:37:13Z</time>
            </trkpt>
            <trkpt lat="46.304700" lon="10.718980">
                <time>2017-07-15T12:37:14Z</time>
            </trkpt>
            <trkpt lat="46.304640" lon="10.718800">
                <time>2017-07-15T12:37:15Z</time>
            </trkpt>
            <trkpt lat="46.304560" lon="10.718570">
                <time>2017-07-15T12:37:16Z</time>
            </trkpt>
            <trkpt lat="46.304490" lon="10.718340">
                <time>2017-07-15T12:37:17Z</time>
            </trkpt>
            <trkpt lat="46.304410" lon="10.718070">
                <time>2017-07-15T12:37:18Z</time>
            </trkpt>
            <trkpt lat="46.304320" lon="10.717790">
                <time>2017-07-15T12:37:19Z</time>
            </trkpt>
            <trkpt lat="46.304240" lon="10.717560">
                <time>2017-07-15T12:37:20Z</time>
            </trkpt>
            <trkpt lat="46.304170" lon="10.717330">
                <time>2017-07-15T12:37:21Z</time>
            </trkpt>
            <trkpt lat="46.304100" lon="10.717120">
                <time>2017-07-15T12:37:22Z</time>
            </trkpt>
            <trkpt lat="46.304050" lon="10.716910">
                <time>2017-07-15T12:37:23Z</time>
            </trkpt>
            <trkpt lat="46.304010" lon="10.716680">
                <time>2017-07-15T12:37:24Z</time>
            </trkpt>
            <trkpt lat="46.303980" lon="10.716480">
                <time>2017-07-15T12:37:25Z</time>
            </trkpt>
            <trkpt lat="46.303940" lon="10.716260">
                <time>2017-07-15T12:37:26Z</time>
            </trkpt>
            <trkpt lat="46.303900" lon="10.716020">
                <time>2017-07-15T12:37:27Z</time>
            </trkpt>
            <trkpt lat="46.303870" lon="10.715810">
                <time>2017-07-15T12:37:28Z</time>
            </trkpt>
            <trkpt lat="46.303830" lon="10.715590">
                <time>2017-07-15T12:37:29Z</time>
            </trkpt>
            <trkpt lat="46.303790" lon="10.715340">
                <time>2017-07-15T12:37:30Z</time>
            </trkpt>
            <trkpt lat="46.303760" lon="10.715130">
                <time>2017-07-15T12:37:31Z</time>
            </trkpt>
            <trkpt lat="46.303720" lon="10.714880">
                <time>2017-07-15T12:37:32Z</time>
            </trkpt>
            <trkpt lat="46.303680" lon="10.714660">
                <time>2017-07-15T12:37:33Z</time>
            </trkpt>
            <trkpt lat="46.303650" lon="10.714420">
                <time>2017-07-15T12:37:34Z</time>
            </trkpt>
            <trkpt lat="46.303610" lon="10.714170">
                <time>2017-07-15T12:37:35Z</time>
            </trkpt>
            <trkpt lat="46.303580" lon="10.713950">
                <time>2017-07-15T12:37:36Z</time>
            </trkpt>
            <trkpt lat="46.303540" lon="10.713720">
                <time>2017-07-15T12:37:37Z</time>
            </trkpt>
            <trkpt lat="46.303500" lon="10.713480">
                <time>2017-07-15T12:37:38Z</time>
            </trkpt>
            <trkpt lat="46.303460" lon="10.713260">
                <time>2017-07-15T12:37:39Z</time>
            </trkpt>
            <trkpt lat="46.303400" lon="10.713020">
                <time>2017-07-15T12:37:40Z</time>
            </trkpt>
            <trkpt lat="46.303330" lon="10.712830">
                <time>2017-07-15T12:37:41Z</time>
            </trkpt>
            <trkpt lat="46.303240" lon="10.712620">
                <time>2017-07-15T12:37:42Z</time>
            </trkpt>
            <trkpt lat="46.303130" lon="10.712390">
                <time>2017-07-15T12:37:43Z</time>
            </trkpt>
            <trkpt lat="46.303020" lon="10.712170">
                <time>2017-07-15T12:37:44Z</time>
            </trkpt>
            <trkpt lat="46.302900" lon="10.711950">
                <time>2017-07-15T12:37:45Z</time>
            </trkpt>
            <trkpt lat="46.302760" lon="10.711710">
                <time>2017-07-15T12:37:46Z</time>
            </trkpt>
            <trkpt lat="46.302650" lon="10.711500">
                <time>2017-07-15T12:37:47Z</time>
            </trkpt>
            <trkpt lat="46.302520" lon="10.711270">
                <time>2017-07-15T12:37:48Z</time>
            </trkpt>
            <trkpt lat="46.302400" lon="10.711070">
                <time>2017-07-15T12:37:49Z</time>
            </trkpt>
            <trkpt lat="46.302280" lon="10.710870">
                <time>2017-07-15T12:37:50Z</time>
            </trkpt>
            <trkpt lat="46.302160" lon="10.710670">
                <time>2017-07-15T12:37:51Z</time>
            </trkpt>
            <trkpt lat="46.302060" lon="10.710500">
                <time>2017-07-15T12:37:52Z</time>
            </trkpt>
            <trkpt lat="46.301960" lon="10.710300">
                <time>2017-07-15T12:37:53Z</time>
            </trkpt>
            <trkpt lat="46.301870" lon="10.710110">
                <time>2017-07-15T12:37:54Z</time>
            </trkpt>
            <trkpt lat="46.301790" lon="10.709900">
                <time>2017-07-15T12:37:55Z</time>
            </trkpt>
            <trkpt lat="46.301720" lon="10.709660">
                <time>2017-07-15T12:37:56Z</time>
            </trkpt>
            <trkpt lat="46.301640" lon="10.709440">
                <time>2017-07-15T12:37:57Z</time>
            </trkpt>
            <trkpt lat="46.301570" lon="10.709200">
                <time>2017-07-15T12:37:58Z</time>
            </trkpt>
            <trkpt lat="46.301500" lon="10.708940">
                <time>2017-07-15T12:37:59Z</time>
            </trkpt>
            <trkpt lat="46.301440" lon="10.708720">
                <time>2017-07-15T12:38:00Z</time>
            </trkpt>
            <trkpt lat="46.301380" lon="10.708470">
                <time>2017-07-15T12:38:01Z</time>
            </trkpt>
            <trkpt lat="46.301320" lon="10.708210">
                <time>2017-07-15T12:38:02Z</time>
            </trkpt>
            <trkpt lat="46.301260" lon="10.707980">
                <time>2017-07-15T12:38:03Z</time>
            </trkpt>
            <trkpt lat="46.301190" lon="10.707720">
                <time>2017-07-15T12:38:04Z</time>
            </trkpt>
            <trkpt lat="46.301130" lon="10.707490">
                <time>2017-07-15T12:38:05Z</time>
            </trkpt>
            <trkpt lat="46.301070" lon="10.707220">
                <time>2017-07-15T12:38:06Z</time>
            </trkpt>
            <trkpt lat="46.301000" lon="10.706940">
                <time>2017-07-15T12:38:07Z</time>
            </trkpt>
            <trkpt lat="46.300940" lon="10.706700">
                <time>2017-07-15T12:38:08Z</time>
            </trkpt>
            <trkpt lat="46.300880" lon="10.706440">
                <time>2017-07-15T12:38:09Z</time>
            </trkpt>
            <trkpt lat="46.300820" lon="10.706180">
                <time>2017-07-15T12:38:10Z</time>
            </trkpt>
            <trkpt lat="46.300750" lon="10.705930">
                <time>2017-07-15T12:38:11Z</time>
            </trkpt>
            <trkpt lat="46.300690" lon="10.705660">
                <time>2017-07-15T12:38:12Z</time>
            </trkpt>
            <trkpt lat="46.300630" lon="10.705420">
                <time>2017-07-15T12:38:13Z</time>
            </trkpt>
            <trkpt lat="46.300550" lon="10.705180">
                <time>2017-07-15T12:38:14Z</time>
            </trkpt>
            <trkpt lat="46.300470" lon="10.704930">
                <time>2017-07-15T12:38:15Z</time>
            </trkpt>
            <trkpt lat="46.300390" lon="10.704730">
                <time>2017-07-15T12:38:16Z</time>
            </trkpt>
            <trkpt lat="46.300300" lon="10.704520">
                <time>2017-07-15T12:38:17Z</time>
            </trkpt>
            <trkpt lat="46.300210" lon="10.704290">
                <time>2017-07-15T12:38:18Z</time>
            </trkpt>
            <trkpt lat="46.300120" lon="10.704090">
                <time>2017-07-15T12:38:19Z</time>
            </trkpt>
            <trkpt lat="46.300020" lon="10.703870">
                <time>2017-07-15T12:38:20Z</time>
            </trkpt>
            <trkpt lat="46.299930" lon="10.703670">
                <time>2017-07-15T12:38:21Z</time>
            </trkpt>
            <trkpt lat="46.299840" lon="10.703450">
                <time>2017-07-15T12:38:22Z</time>
            </trkpt>
            <trkpt lat="46.299750" lon="10.703240">
                <time>2017-07-15T12:38:23Z</time>
            </trkpt>
            <trkpt lat="46.299670" lon="10.703060">
                <time>2017-07-15T12:38:24Z</time>
            </trkpt>
            <trkpt lat="46.299600" lon="10.702870">
                <time>2017-07-15T12:38:25Z</time>
            </trkpt>
            <trkpt lat="46.299530" lon="10.702700">
                <time>2017-07-15T12:38:26Z</time>
            </trkpt>
            <trkpt lat="46.299490" lon="10.702540">
                <time>2017-07-15T12:38:27Z</time>
            </trkpt>
            <trkpt lat="46.299480" lon="10.702360">
                <time>2017-07-15T12:38:28Z</time>
            </trkpt>
            <trkpt lat="46.299520" lon="10.702210">
                <time>2017-07-15T12:38:29Z</time>
            </trkpt>
            <trkpt lat="46.299570" lon="10.702060">
                <time>2017-07-15T12:38:30Z</time>
            </trkpt>
            <trkpt lat="46.299620" lon="10.701900">
                <time>2017-07-15T12:38:31Z</time>
            </trkpt>
            <trkpt lat="46.299660" lon="10.701760">
                <time>2017-07-15T12:38:32Z</time>
            </trkpt>
            <trkpt lat="46.299690" lon="10.701630">
                <time>2017-07-15T12:38:33Z</time>
            </trkpt>
            <trkpt lat="46.299670" lon="10.701500">
                <time>2017-07-15T12:38:34Z</time>
            </trkpt>
            <trkpt lat="46.299610" lon="10.701400">
                <time>2017-07-15T12:38:35Z</time>
            </trkpt>
            <trkpt lat="46.299540" lon="10.701280">
                <time>2017-07-15T12:38:36Z</time>
            </trkpt>
            <trkpt lat="46.299480" lon="10.701170">
                <time>2017-07-15T12:38:37Z</time>
            </trkpt>
            <trkpt lat="46.299430" lon="10.701030">
                <time>2017-07-15T12:38:38Z</time>
            </trkpt>
            <trkpt lat="46.299410" lon="10.700870">
                <time>2017-07-15T12:38:39Z</time>
            </trkpt>
            <trkpt lat="46.299410" lon="10.700730">
                <time>2017-07-15T12:38:40Z</time>
            </trkpt>
            <trkpt lat="46.299430" lon="10.700570">
                <time>2017-07-15T12:38:41Z</time>
            </trkpt>
            <trkpt lat="46.299450" lon="10.700400">
                <time>2017-07-15T12:38:42Z</time>
            </trkpt>
            <trkpt lat="46.299470" lon="10.700240">
                <time>2017-07-15T12:38:43Z</time>
            </trkpt>
            <trkpt lat="46.299490" lon="10.700060">
                <time>2017-07-15T12:38:44Z</time>
            </trkpt>
            <trkpt lat="46.299520" lon="10.699890">
                <time>2017-07-15T12:38:45Z</time>
            </trkpt>
            <trkpt lat="46.299540" lon="10.699700">
                <time>2017-07-15T12:38:46Z</time>
            </trkpt>
            <trkpt lat="46.299560" lon="10.699510">
                <time>2017-07-15T12:38:47Z</time>
            </trkpt>
            <trkpt lat="46.299560" lon="10.699340">
                <time>2017-07-15T12:38:48Z</time>
            </trkpt>
            <trkpt lat="46.299560" lon="10.699160">
                <time>2017-07-15T12:38:49Z</time>
            </trkpt>
            <trkpt lat="46.299540" lon="10.698960">
                <time>2017-07-15T12:38:50Z</time>
            </trkpt>
            <trkpt lat="46.299510" lon="10.698790">
                <time>2017-07-15T12:38:51Z</time>
            </trkpt>
            <trkpt lat="46.299470" lon="10.698610">
                <time>2017-07-15T12:38:52Z</time>
            </trkpt>
            <trkpt lat="46.299430" lon="10.698450">
                <time>2017-07-15T12:38:53Z</time>
            </trkpt>
            <trkpt lat="46.299360" lon="10.698280">
                <time>2017-07-15T12:38:54Z</time>
            </trkpt>
            <trkpt lat="46.299280" lon="10.698110">
                <time>2017-07-15T12:38:55Z</time>
            </trkpt>
            <trkpt lat="46.299190" lon="10.697960">
                <time>2017-07-15T12:38:56Z</time>
            </trkpt>
            <trkpt lat="46.299090" lon="10.697810">
                <time>2017-07-15T12:38:57Z</time>
            </trkpt>
            <trkpt lat="46.298980" lon="10.697670">
                <time>2017-07-15T12:38:58Z</time>
            </trkpt>
            <trkpt lat="46.298870" lon="10.697540">
                <time>2017-07-15T12:38:59Z</time>
            </trkpt>
            <trkpt lat="46.298750" lon="10.697400">
                <time>2017-07-15T12:39:00Z</time>
            </trkpt>
            <trkpt lat="46.298640" lon="10.697280">
                <time>2017-07-15T12:39:01Z</time>
            </trkpt>
            <trkpt lat="46.298530" lon="10.697160">
                <time>2017-07-15T12:39:02Z</time>
            </trkpt>
            <trkpt lat="46.298420" lon="10.697050">
                <time>2017-07-15T12:39:03Z</time>
            </trkpt>
            <trkpt lat="46.298320" lon="10.696940">
                <time>2017-07-15T12:39:04Z</time>
            </trkpt>
            <trkpt lat="46.298230" lon="10.696830">
                <time>2017-07-15T12:39:05Z</time>
            </trkpt>
            <trkpt lat="46.298130" lon="10.696710">
                <time>2017-07-15T12:39:06Z</time>
            </trkpt>
            <trkpt lat="46.298040" lon="10.696600">
                <time>2017-07-15T12:39:07Z</time>
            </trkpt>
            <trkpt lat="46.297940" lon="10.696470">
                <time>2017-07-15T12:39:08Z</time>
            </trkpt>
            <trkpt lat="46.297860" lon="10.696340">
                <time>2017-07-15T12:39:09Z</time>
            </trkpt>
            <trkpt lat="46.297780" lon="10.696200">
                <time>2017-07-15T12:39:10Z</time>
            </trkpt>
            <trkpt lat="46.297700" lon="10.696040">
                <time>2017-07-15T12:39:11Z</time>
            </trkpt>
            <trkpt lat="46.297620" lon="10.695910">
                <time>2017-07-15T12:39:12Z</time>
            </trkpt>
            <trkpt lat="46.297540" lon="10.695760">
                <time>2017-07-15T12:39:13Z</time>
            </trkpt>
            <trkpt lat="46.297460" lon="10.695610">
                <time>2017-07-15T12:39:14Z</time>
            </trkpt>
            <trkpt lat="46.297390" lon="10.695450">
                <time>2017-07-15T12:39:15Z</time>
            </trkpt>
            <trkpt lat="46.297320" lon="10.695270">
                <time>2017-07-15T12:39:16Z</time>
            </trkpt>
            <trkpt lat="46.297250" lon="10.695110">
                <time>2017-07-15T12:39:17Z</time>
            </trkpt>
            <trkpt lat="46.297180" lon="10.694930">
                <time>2017-07-15T12:39:18Z</time>
            </trkpt>
            <trkpt lat="46.297120" lon="10.694740">
                <time>2017-07-15T12:39:19Z</time>
            </trkpt>
            <trkpt lat="46.297080" lon="10.694560">
                <time>2017-07-15T12:39:20Z</time>
            </trkpt>
            <trkpt lat="46.297040" lon="10.694370">
                <time>2017-07-15T12:39:21Z</time>
            </trkpt>
            <trkpt lat="46.297000" lon="10.694160">
                <time>2017-07-15T12:39:22Z</time>
            </trkpt>
            <trkpt lat="46.296970" lon="10.693980">
                <time>2017-07-15T12:39:23Z</time>
            </trkpt>
            <trkpt lat="46.296950" lon="10.693780">
                <time>2017-07-15T12:39:24Z</time>
            </trkpt>
            <trkpt lat="46.296940" lon="10.693590">
                <time>2017-07-15T12:39:25Z</time>
            </trkpt>
            <trkpt lat="46.296920" lon="10.693400">
                <time>2017-07-15T12:39:26Z</time>
            </trkpt>
            <trkpt lat="46.296900" lon="10.693210">
                <time>2017-07-15T12:39:27Z</time>
            </trkpt>
            <trkpt lat="46.296880" lon="10.693030">
                <time>2017-07-15T12:39:28Z</time>
            </trkpt>
            <trkpt lat="46.296870" lon="10.692840">
                <time>2017-07-15T12:39:29Z</time>
            </trkpt>
            <trkpt lat="46.296840" lon="10.692650">
                <time>2017-07-15T12:39:30Z</time>
            </trkpt>
            <trkpt lat="46.296830" lon="10.692470">
                <time>2017-07-15T12:39:31Z</time>
            </trkpt>
            <trkpt lat="46.296840" lon="10.692280">
                <time>2017-07-15T12:39:32Z</time>
            </trkpt>
            <trkpt lat="46.296860" lon="10.692110">
                <time>2017-07-15T12:39:33Z</time>
            </trkpt>
            <trkpt lat="46.296930" lon="10.691940">
                <time>2017-07-15T12:39:34Z</time>
            </trkpt>
            <trkpt lat="46.297010" lon="10.691750">
                <time>2017-07-15T12:39:35Z</time>
            </trkpt>
            <trkpt lat="46.297080" lon="10.691580">
                <time>2017-07-15T12:39:36Z</time>
            </trkpt>
            <trkpt lat="46.297160" lon="10.691400">
                <time>2017-07-15T12:39:37Z</time>
            </trkpt>
            <trkpt lat="46.297220" lon="10.691210">
                <time>2017-07-15T12:39:38Z</time>
            </trkpt>
            <trkpt lat="46.297250" lon="10.691030">
                <time>2017-07-15T12:39:39Z</time>
            </trkpt>
            <trkpt lat="46.297260" lon="10.690830">
                <time>2017-07-15T12:39:40Z</time>
            </trkpt>
            <trkpt lat="46.297250" lon="10.690650">
                <time>2017-07-15T12:39:41Z</time>
            </trkpt>
            <trkpt lat="46.297220" lon="10.690470">
                <time>2017-07-15T12:39:42Z</time>
            </trkpt>
            <trkpt lat="46.297170" lon="10.690280">
                <time>2017-07-15T12:39:43Z</time>
            </trkpt>
            <trkpt lat="46.297120" lon="10.690110">
                <time>2017-07-15T12:39:44Z</time>
            </trkpt>
            <trkpt lat="46.297050" lon="10.689930">
                <time>2017-07-15T12:39:45Z</time>
            </trkpt>
            <trkpt lat="46.296970" lon="10.689740">
                <time>2017-07-15T12:39:46Z</time>
            </trkpt>
            <trkpt lat="46.296900" lon="10.689560">
                <time>2017-07-15T12:39:47Z</time>
            </trkpt>
            <trkpt lat="46.296830" lon="10.689360">
                <time>2017-07-15T12:39:48Z</time>
            </trkpt>
            <trkpt lat="46.296770" lon="10.689200">
                <time>2017-07-15T12:39:49Z</time>
            </trkpt>
            <trkpt lat="46.296700" lon="10.689030">
                <time>2017-07-15T12:39:50Z</time>
            </trkpt>
            <trkpt lat="46.296630" lon="10.688860">
                <time>2017-07-15T12:39:51Z</time>
            </trkpt>
            <trkpt lat="46.296580" lon="10.688710">
                <time>2017-07-15T12:39:52Z</time>
            </trkpt>
            <trkpt lat="46.296510" lon="10.688550">
                <time>2017-07-15T12:39:53Z</time>
            </trkpt>
            <trkpt lat="46.296420" lon="10.688380">
                <time>2017-07-15T12:39:54Z</time>
            </trkpt>
            <trkpt lat="46.296320" lon="10.688230">
                <time>2017-07-15T12:39:55Z</time>
            </trkpt>
            <trkpt lat="46.296210" lon="10.688080">
                <time>2017-07-15T12:39:56Z</time>
            </trkpt>
            <trkpt lat="46.296090" lon="10.687940">
                <time>2017-07-15T12:39:57Z</time>
            </trkpt>
            <trkpt lat="46.295980" lon="10.687800">
                <time>2017-07-15T12:39:58Z</time>
            </trkpt>
            <trkpt lat="46.295870" lon="10.687640">
                <time>2017-07-15T12:39:59Z</time>
            </trkpt>
            <trkpt lat="46.295780" lon="10.687490">
                <time>2017-07-15T12:40:00Z</time>
            </trkpt>
            <trkpt lat="46.295690" lon="10.687320">
                <time>2017-07-15T12:40:01Z</time>
            </trkpt>
            <trkpt lat="46.295620" lon="10.687180">
                <time>2017-07-15T12:40:02Z</time>
            </trkpt>
            <trkpt lat="46.295570" lon="10.687030">
                <time>2017-07-15T12:40:03Z</time>
            </trkpt>
            <trkpt lat="46.295500" lon="10.686890">
                <time>2017-07-15T12:40:04Z</time>
            </trkpt>
            <trkpt lat="46.295440" lon="10.686780">
                <time>2017-07-15T12:40:05Z</time>
            </trkpt>
            <trkpt lat="46.295360" lon="10.686690">
                <time>2017-07-15T12:40:06Z</time>
            </trkpt>
            <trkpt lat="46.295250" lon="10.686610">
                <time>2017-07-15T12:40:07Z</time>
            </trkpt>
            <trkpt lat="46.295150" lon="10.686530">
                <time>2017-07-15T12:40:08Z</time>
            </trkpt>
            <trkpt lat="46.295040" lon="10.686440">
                <time>2017-07-15T12:40:09Z</time>
            </trkpt>
            <trkpt lat="46.294910" lon="10.686340">
                <time>2017-07-15T12:40:10Z</time>
            </trkpt>
            <trkpt lat="46.294810" lon="10.686260">
                <time>2017-07-15T12:40:11Z</time>
            </trkpt>
            <trkpt lat="46.294720" lon="10.686130">
                <time>2017-07-15T12:40:12Z</time>
            </trkpt>
            <trkpt lat="46.294660" lon="10.686010">
                <time>2017-07-15T12:40:13Z</time>
            </trkpt>
            <trkpt lat="46.294600" lon="10.685860">
                <time>2017-07-15T12:40:14Z</time>
            </trkpt>
            <trkpt lat="46.294550" lon="10.685680">
                <time>2017-07-15T12:40:15Z</time>
            </trkpt>
            <trkpt lat="46.294520" lon="10.685510">
                <time>2017-07-15T12:40:16Z</time>
            </trkpt>
            <trkpt lat="46.294510" lon="10.685320">
                <time>2017-07-15T12:40:17Z</time>
            </trkpt>
            <trkpt lat="46.294510" lon="10.685110">
                <time>2017-07-15T12:40:18Z</time>
            </trkpt>
            <trkpt lat="46.294530" lon="10.684910">
                <time>2017-07-15T12:40:19Z</time>
            </trkpt>
            <trkpt lat="46.294530" lon="10.684690">
                <time>2017-07-15T12:40:20Z</time>
            </trkpt>
            <trkpt lat="46.294520" lon="10.684490">
                <time>2017-07-15T12:40:21Z</time>
            </trkpt>
            <trkpt lat="46.294520" lon="10.684260">
                <time>2017-07-15T12:40:22Z</time>
            </trkpt>
            <trkpt lat="46.294510" lon="10.684020">
                <time>2017-07-15T12:40:23Z</time>
            </trkpt>
            <trkpt lat="46.294470" lon="10.683790">
                <time>2017-07-15T12:40:24Z</time>
            </trkpt>
            <trkpt lat="46.294410" lon="10.683560">
                <time>2017-07-15T12:40:25Z</time>
            </trkpt>
            <trkpt lat="46.294320" lon="10.683320">
                <time>2017-07-15T12:40:26Z</time>
            </trkpt>
            <trkpt lat="46.294220" lon="10.683110">
                <time>2017-07-15T12:40:27Z</time>
            </trkpt>
            <trkpt lat="46.294120" lon="10.682880">
                <time>2017-07-15T12:40:28Z</time>
            </trkpt>
            <trkpt lat="46.294030" lon="10.682690">
                <time>2017-07-15T12:40:29Z</time>
            </trkpt>
            <trkpt lat="46.293960" lon="10.682510">
                <time>2017-07-15T12:40:30Z</time>
            </trkpt>
            <trkpt lat="46.293900" lon="10.682320">
                <time>2017-07-15T12:40:31Z</time>
            </trkpt>
            <trkpt lat="46.293880" lon="10.682150">
                <time>2017-07-15T12:40:32Z</time>
            </trkpt>
            <trkpt lat="46.293890" lon="10.681970">
                <time>2017-07-15T12:40:33Z</time>
            </trkpt>
            <trkpt lat="46.293880" lon="10.681800">
                <time>2017-07-15T12:40:34Z</time>
            </trkpt>
            <trkpt lat="46.293850" lon="10.681660">
                <time>2017-07-15T12:40:35Z</time>
            </trkpt>
            <trkpt lat="46.293780" lon="10.681530">
                <time>2017-07-15T12:40:36Z</time>
            </trkpt>
            <trkpt lat="46.293690" lon="10.681460">
                <time>2017-07-15T12:40:37Z</time>
            </trkpt>
            <trkpt lat="46.293590" lon="10.681380">
                <time>2017-07-15T12:40:38Z</time>
            </trkpt>
            <trkpt lat="46.293510" lon="10.681260">
                <time>2017-07-15T12:40:39Z</time>
            </trkpt>
            <trkpt lat="46.293470" lon="10.681110">
                <time>2017-07-15T12:40:40Z</time>
            </trkpt>
            <trkpt lat="46.293440" lon="10.680930">
                <time>2017-07-15T12:40:41Z</time>
            </trkpt>
            <trkpt lat="46.293390" lon="10.680750">
                <time>2017-07-15T12:40:42Z</time>
            </trkpt>
            <trkpt lat="46.293290" lon="10.680610">
                <time>2017-07-15T12:40:43Z</time>
            </trkpt>
            <trkpt lat="46.293160" lon="10.680480">
                <time>2017-07-15T12:40:44Z</time>
            </trkpt>
            <trkpt lat="46.293050" lon="10.680370">
                <time>2017-07-15T12:40:45Z</time>
            </trkpt>
            <trkpt lat="46.292940" lon="10.680220">
                <time>2017-07-15T12:40:46Z</time>
            </trkpt>
            <trkpt lat="46.292840" lon="10.680020">
                <time>2017-07-15T12:40:47Z</time>
            </trkpt>
            <trkpt lat="46.292770" lon="10.679820">
                <time>2017-07-15T12:40:48Z</time>
            </trkpt>
            <trkpt lat="46.292700" lon="10.679590">
                <time>2017-07-15T12:40:49Z</time>
            </trkpt>
            <trkpt lat="46.292630" lon="10.679350">
                <time>2017-07-15T12:40:50Z</time>
            </trkpt>
            <trkpt lat="46.292580" lon="10.679140">
                <time>2017-07-15T12:40:51Z</time>
            </trkpt>
            <trkpt lat="46.292490" lon="10.678960">
                <time>2017-07-15T12:40:52Z</time>
            </trkpt>
            <trkpt lat="46.292390" lon="10.678840">
                <time>2017-07-15T12:40:53Z</time>
            </trkpt>
            <trkpt lat="46.292270" lon="10.678700">
                <time>2017-07-15T12:40:54Z</time>
            </trkpt>
            <trkpt lat="46.292160" lon="10.678530">
                <time>2017-07-15T12:40:55Z</time>
            </trkpt>
            <trkpt lat="46.292050" lon="10.678340">
                <time>2017-07-15T12:40:56Z</time>
            </trkpt>
            <trkpt lat="46.291940" lon="10.678130">
                <time>2017-07-15T12:40:57Z</time>
            </trkpt>
            <trkpt lat="46.291840" lon="10.677900">
                <time>2017-07-15T12:40:58Z</time>
            </trkpt>
            <trkpt lat="46.291750" lon="10.677680">
                <time>2017-07-15T12:40:59Z</time>
            </trkpt>
            <trkpt lat="46.291660" lon="10.677410">
                <time>2017-07-15T12:41:00Z</time>
            </trkpt>
            <trkpt lat="46.291580" lon="10.677150">
                <time>2017-07-15T12:41:01Z</time>
            </trkpt>
            <trkpt lat="46.291500" lon="10.676880">
                <time>2017-07-15T12:41:02Z</time>
            </trkpt>
            <trkpt lat="46.291410" lon="10.676600">
                <time>2017-07-15T12:41:03Z</time>
            </trkpt>
            <trkpt lat="46.291330" lon="10.676360">
                <time>2017-07-15T12:41:04Z</time>
            </trkpt>
            <trkpt lat="46.291270" lon="10.676110">
                <time>2017-07-15T12:41:05Z</time>
            </trkpt>
            <trkpt lat="46.291210" lon="10.675860">
                <time>2017-07-15T12:41:06Z</time>
            </trkpt>
            <trkpt lat="46.291160" lon="10.675620">
                <time>2017-07-15T12:41:07Z</time>
            </trkpt>
            <trkpt lat="46.291100" lon="10.675350">
                <time>2017-07-15T12:41:08Z</time>
            </trkpt>
            <trkpt lat="46.291040" lon="10.675120">
                <time>2017-07-15T12:41:09Z</time>
            </trkpt>
            <trkpt lat="46.290960" lon="10.674910">
                <time>2017-07-15T12:41:10Z</time>
            </trkpt>
            <trkpt lat="46.290860" lon="10.674710">
                <time>2017-07-15T12:41:11Z</time>
            </trkpt>
            <trkpt lat="46.290760" lon="10.674520">
                <time>2017-07-15T12:41:12Z</time>
            </trkpt>
            <trkpt lat="46.290690" lon="10.674300">
                <time>2017-07-15T12:41:13Z</time>
            </trkpt>
            <trkpt lat="46.290630" lon="10.674030">
                <time>2017-07-15T12:41:14Z</time>
            </trkpt>
            <trkpt lat="46.290580" lon="10.673810">
                <time>2017-07-15T12:41:15Z</time>
            </trkpt>
            <trkpt lat="46.290530" lon="10.673560">
                <time>2017-07-15T12:41:16Z</time>
            </trkpt>
            <trkpt lat="46.290530" lon="10.673390">
                <time>2017-07-15T12:41:17Z</time>
            </trkpt>
            <trkpt lat="46.290520" lon="10.673210">
                <time>2017-07-15T12:41:18Z</time>
            </trkpt>
            <trkpt lat="46.290470" lon="10.673040">
                <time>2017-07-15T12:41:19Z</time>
            </trkpt>
            <trkpt lat="46.290390" lon="10.672900">
                <time>2017-07-15T12:41:20Z</time>
            </trkpt>
            <trkpt lat="46.290290" lon="10.672790">
                <time>2017-07-15T12:41:21Z</time>
            </trkpt>
            <trkpt lat="46.290170" lon="10.672700">
                <time>2017-07-15T12:41:22Z</time>
            </trkpt>
            <trkpt lat="46.290070" lon="10.672580">
                <time>2017-07-15T12:41:23Z</time>
            </trkpt>
            <trkpt lat="46.290000" lon="10.672390">
                <time>2017-07-15T12:41:24Z</time>
            </trkpt>
            <trkpt lat="46.289950" lon="10.672210">
                <time>2017-07-15T12:41:25Z</time>
            </trkpt>
            <trkpt lat="46.289880" lon="10.671990">
                <time>2017-07-15T12:41:26Z</time>
            </trkpt>
            <trkpt lat="46.289830" lon="10.671810">
                <time>2017-07-15T12:41:27Z</time>
            </trkpt>
            <trkpt lat="46.289800" lon="10.671650">
                <time>2017-07-15T12:41:28Z</time>
            </trkpt>
            <trkpt lat="46.289760" lon="10.671500">
                <time>2017-07-15T12:41:29Z</time>
            </trkpt>
            <trkpt lat="46.289730" lon="10.671330">
                <time>2017-07-15T12:41:30Z</time>
            </trkpt>
            <trkpt lat="46.289690" lon="10.671190">
                <time>2017-07-15T12:41:31Z</time>
            </trkpt>
            <trkpt lat="46.289640" lon="10.671020">
                <time>2017-07-15T12:41:32Z</time>
            </trkpt>
            <trkpt lat="46.289580" lon="10.670880">
                <time>2017-07-15T12:41:33Z</time>
            </trkpt>
            <trkpt lat="46.289510" lon="10.670730">
                <time>2017-07-15T12:41:34Z</time>
            </trkpt>
            <trkpt lat="46.289430" lon="10.670570">
                <time>2017-07-15T12:41:35Z</time>
            </trkpt>
            <trkpt lat="46.289360" lon="10.670420">
                <time>2017-07-15T12:41:36Z</time>
            </trkpt>
            <trkpt lat="46.289280" lon="10.670260">
                <time>2017-07-15T12:41:37Z</time>
            </trkpt>
            <trkpt lat="46.289190" lon="10.670110">
                <time>2017-07-15T12:41:38Z</time>
            </trkpt>
            <trkpt lat="46.289110" lon="10.669950">
                <time>2017-07-15T12:41:39Z</time>
            </trkpt>
            <trkpt lat="46.289010" lon="10.669770">
                <time>2017-07-15T12:41:40Z</time>
            </trkpt>
            <trkpt lat="46.288930" lon="10.669610">
                <time>2017-07-15T12:41:41Z</time>
            </trkpt>
            <trkpt lat="46.288860" lon="10.669450">
                <time>2017-07-15T12:41:42Z</time>
            </trkpt>
            <trkpt lat="46.288800" lon="10.669280">
                <time>2017-07-15T12:41:43Z</time>
            </trkpt>
            <trkpt lat="46.288780" lon="10.669140">
                <time>2017-07-15T12:41:44Z</time>
            </trkpt>
            <trkpt lat="46.288750" lon="10.668980">
                <time>2017-07-15T12:41:45Z</time>
            </trkpt>
            <trkpt lat="46.288740" lon="10.668820">
                <time>2017-07-15T12:41:46Z</time>
            </trkpt>
            <trkpt lat="46.288710" lon="10.668700">
                <time>2017-07-15T12:41:47Z</time>
            </trkpt>
            <trkpt lat="46.288670" lon="10.668580">
                <time>2017-07-15T12:41:48Z</time>
            </trkpt>
            <trkpt lat="46.288600" lon="10.668500">
                <time>2017-07-15T12:41:49Z</time>
            </trkpt>
            <trkpt lat="46.288530" lon="10.668420">
                <time>2017-07-15T12:41:50Z</time>
            </trkpt>
            <trkpt lat="46.288430" lon="10.668340">
                <time>2017-07-15T12:41:51Z</time>
            </trkpt>
            <trkpt lat="46.288350" lon="10.668250">
                <time>2017-07-15T12:41:52Z</time>
            </trkpt>
            <trkpt lat="46.288280" lon="10.668110">
                <time>2017-07-15T12:41:53Z</time>
            </trkpt>
            <trkpt lat="46.288230" lon="10.667950">
                <time>2017-07-15T12:41:54Z</time>
            </trkpt>
            <trkpt lat="46.288180" lon="10.667750">
                <time>2017-07-15T12:41:55Z</time>
            </trkpt>
            <trkpt lat="46.288120" lon="10.667490">
                <time>2017-07-15T12:41:56Z</time>
            </trkpt>
            <trkpt lat="46.288070" lon="10.667270">
                <time>2017-07-15T12:41:57Z</time>
            </trkpt>
            <trkpt lat="46.288000" lon="10.667070">
                <time>2017-07-15T12:41:58Z</time>
            </trkpt>
            <trkpt lat="46.287900" lon="10.666890">
                <time>2017-07-15T12:41:59Z</time>
            </trkpt>
            <trkpt lat="46.287780" lon="10.666770">
                <time>2017-07-15T12:42:00Z</time>
            </trkpt>
            <trkpt lat="46.287640" lon="10.666650">
                <time>2017-07-15T12:42:01Z</time>
            </trkpt>
            <trkpt lat="46.287500" lon="10.666490">
                <time>2017-07-15T12:42:02Z</time>
            </trkpt>
            <trkpt lat="46.287380" lon="10.666320">
                <time>2017-07-15T12:42:03Z</time>
            </trkpt>
            <trkpt lat="46.287250" lon="10.666120">
                <time>2017-07-15T12:42:04Z</time>
            </trkpt>
            <trkpt lat="46.287160" lon="10.665960">
                <time>2017-07-15T12:42:05Z</time>
            </trkpt>
            <trkpt lat="46.287070" lon="10.665780">
                <time>2017-07-15T12:42:06Z</time>
            </trkpt>
            <trkpt lat="46.287020" lon="10.665570">
                <time>2017-07-15T12:42:07Z</time>
            </trkpt>
            <trkpt lat="46.286990" lon="10.665370">
                <time>2017-07-15T12:42:08Z</time>
            </trkpt>
            <trkpt lat="46.286960" lon="10.665160">
                <time>2017-07-15T12:42:09Z</time>
            </trkpt>
            <trkpt lat="46.286950" lon="10.664970">
                <time>2017-07-15T12:42:10Z</time>
            </trkpt>
            <trkpt lat="46.286910" lon="10.664820">
                <time>2017-07-15T12:42:11Z</time>
            </trkpt>
            <trkpt lat="46.286840" lon="10.664690">
                <time>2017-07-15T12:42:12Z</time>
            </trkpt>
            <trkpt lat="46.286740" lon="10.664630">
                <time>2017-07-15T12:42:13Z</time>
            </trkpt>
            <trkpt lat="46.286620" lon="10.664600">
                <time>2017-07-15T12:42:14Z</time>
            </trkpt>
            <trkpt lat="46.286490" lon="10.664600">
                <time>2017-07-15T12:42:15Z</time>
            </trkpt>
            <trkpt lat="46.286370" lon="10.664560">
                <time>2017-07-15T12:42:16Z</time>
            </trkpt>
            <trkpt lat="46.286270" lon="10.664460">
                <time>2017-07-15T12:42:17Z</time>
            </trkpt>
            <trkpt lat="46.286160" lon="10.664300">
                <time>2017-07-15T12:42:18Z</time>
            </trkpt>
            <trkpt lat="46.286090" lon="10.664120">
                <time>2017-07-15T12:42:19Z</time>
            </trkpt>
            <trkpt lat="46.286010" lon="10.663900">
                <time>2017-07-15T12:42:20Z</time>
            </trkpt>
            <trkpt lat="46.285930" lon="10.663710">
                <time>2017-07-15T12:42:21Z</time>
            </trkpt>
            <trkpt lat="46.285840" lon="10.663500">
                <time>2017-07-15T12:42:22Z</time>
            </trkpt>
            <trkpt lat="46.285740" lon="10.663280">
                <time>2017-07-15T12:42:23Z</time>
            </trkpt>
            <trkpt lat="46.285630" lon="10.663120">
                <time>2017-07-15T12:42:24Z</time>
            </trkpt>
            <trkpt lat="46.285500" lon="10.662970">
                <time>2017-07-15T12:42:25Z</time>
            </trkpt>
            <trkpt lat="46.285370" lon="10.662790">
                <time>2017-07-15T12:42:26Z</time>
            </trkpt>
            <trkpt lat="46.285260" lon="10.662580">
                <time>2017-07-15T12:42:27Z</time>
            </trkpt>
            <trkpt lat="46.285140" lon="10.662350">
                <time>2017-07-15T12:42:28Z</time>
            </trkpt>
            <trkpt lat="46.285050" lon="10.662150">
                <time>2017-07-15T12:42:29Z</time>
            </trkpt>
            <trkpt lat="46.284970" lon="10.661960">
                <time>2017-07-15T12:42:30Z</time>
            </trkpt>
            <trkpt lat="46.284920" lon="10.661760">
                <time>2017-07-15T12:42:31Z</time>
            </trkpt>
            <trkpt lat="46.284900" lon="10.661600">
                <time>2017-07-15T12:42:32Z</time>
            </trkpt>
            <trkpt lat="46.284880" lon="10.661450">
                <time>2017-07-15T12:42:33Z</time>
            </trkpt>
            <trkpt lat="46.284820" lon="10.661310">
                <time>2017-07-15T12:42:34Z</time>
            </trkpt>
            <trkpt lat="46.284730" lon="10.661240">
                <time>2017-07-15T12:42:35Z</time>
            </trkpt>
            <trkpt lat="46.284610" lon="10.661210">
                <time>2017-07-15T12:42:36Z</time>
            </trkpt>
            <trkpt lat="46.284510" lon="10.661210">
                <time>2017-07-15T12:42:37Z</time>
            </trkpt>
            <trkpt lat="46.284390" lon="10.661200">
                <time>2017-07-15T12:42:38Z</time>
            </trkpt>
            <trkpt lat="46.284250" lon="10.661160">
                <time>2017-07-15T12:42:39Z</time>
            </trkpt>
            <trkpt lat="46.284140" lon="10.661090">
                <time>2017-07-15T12:42:40Z</time>
            </trkpt>
            <trkpt lat="46.284070" lon="10.660860">
                <time>2017-07-15T12:42:41Z</time>
            </trkpt>
            <trkpt lat="46.283970" lon="10.660680">
                <time>2017-07-15T12:42:42Z</time>
            </trkpt>
            <trkpt lat="46.283880" lon="10.660500">
                <time>2017-07-15T12:42:43Z</time>
            </trkpt>
            <trkpt lat="46.283790" lon="10.660300">
                <time>2017-07-15T12:42:44Z</time>
            </trkpt>
            <trkpt lat="46.283730" lon="10.660130">
                <time>2017-07-15T12:42:45Z</time>
            </trkpt>
            <trkpt lat="46.283680" lon="10.659950">
                <time>2017-07-15T12:42:46Z</time>
            </trkpt>
            <trkpt lat="46.283640" lon="10.659750">
                <time>2017-07-15T12:42:47Z</time>
            </trkpt>
            <trkpt lat="46.283630" lon="10.659560">
                <time>2017-07-15T12:42:48Z</time>
            </trkpt>
            <trkpt lat="46.283620" lon="10.659340">
                <time>2017-07-15T12:42:49Z</time>
            </trkpt>
            <trkpt lat="46.283630" lon="10.659090">
                <time>2017-07-15T12:42:50Z</time>
            </trkpt>
            <trkpt lat="46.283650" lon="10.658870">
                <time>2017-07-15T12:42:51Z</time>
            </trkpt>
            <trkpt lat="46.283640" lon="10.658620">
                <time>2017-07-15T12:42:52Z</time>
            </trkpt>
            <trkpt lat="46.283630" lon="10.658420">
                <time>2017-07-15T12:42:53Z</time>
            </trkpt>
            <trkpt lat="46.283620" lon="10.658230">
                <time>2017-07-15T12:42:54Z</time>
            </trkpt>
            <trkpt lat="46.283570" lon="10.658070">
                <time>2017-07-15T12:42:55Z</time>
            </trkpt>
            <trkpt lat="46.283500" lon="10.657950">
                <time>2017-07-15T12:42:56Z</time>
            </trkpt>
            <trkpt lat="46.283410" lon="10.657870">
                <time>2017-07-15T12:42:57Z</time>
            </trkpt>
            <trkpt lat="46.283300" lon="10.657820">
                <time>2017-07-15T12:42:58Z</time>
            </trkpt>
            <trkpt lat="46.283180" lon="10.657800">
                <time>2017-07-15T12:42:59Z</time>
            </trkpt>
            <trkpt lat="46.282990" lon="10.657820">
                <time>2017-07-15T12:43:00Z</time>
            </trkpt>
            <trkpt lat="46.282850" lon="10.657840">
                <time>2017-07-15T12:43:01Z</time>
            </trkpt>
            <trkpt lat="46.282720" lon="10.657850">
                <time>2017-07-15T12:43:02Z</time>
            </trkpt>
            <trkpt lat="46.282590" lon="10.657860">
                <time>2017-07-15T12:43:03Z</time>
            </trkpt>
            <trkpt lat="46.282500" lon="10.657830">
                <time>2017-07-15T12:43:04Z</time>
            </trkpt>
            <trkpt lat="46.282420" lon="10.657770">
                <time>2017-07-15T12:43:05Z</time>
            </trkpt>
            <trkpt lat="46.282350" lon="10.657670">
                <time>2017-07-15T12:43:06Z</time>
            </trkpt>
            <trkpt lat="46.282300" lon="10.657570">
                <time>2017-07-15T12:43:07Z</time>
            </trkpt>
            <trkpt lat="46.282240" lon="10.657450">
                <time>2017-07-15T12:43:08Z</time>
            </trkpt>
            <trkpt lat="46.282200" lon="10.657330">
                <time>2017-07-15T12:43:09Z</time>
            </trkpt>
            <trkpt lat="46.282150" lon="10.657200">
                <time>2017-07-15T12:43:10Z</time>
            </trkpt>
            <trkpt lat="46.282110" lon="10.657070">
                <time>2017-07-15T12:43:11Z</time>
            </trkpt>
            <trkpt lat="46.282080" lon="10.656940">
                <time>2017-07-15T12:43:12Z</time>
            </trkpt>
            <trkpt lat="46.282060" lon="10.656810">
                <time>2017-07-15T12:43:13Z</time>
            </trkpt>
            <trkpt lat="46.282050" lon="10.656680">
                <time>2017-07-15T12:43:14Z</time>
            </trkpt>
            <trkpt lat="46.282040" lon="10.656540">
                <time>2017-07-15T12:43:15Z</time>
            </trkpt>
            <trkpt lat="46.282060" lon="10.656390">
                <time>2017-07-15T12:43:16Z</time>
            </trkpt>
            <trkpt lat="46.282080" lon="10.656270">
                <time>2017-07-15T12:43:17Z</time>
            </trkpt>
            <trkpt lat="46.282100" lon="10.656160">
                <time>2017-07-15T12:43:18Z</time>
            </trkpt>
            <trkpt lat="46.282140" lon="10.656020">
                <time>2017-07-15T12:43:19Z</time>
            </trkpt>
            <trkpt lat="46.282170" lon="10.655900">
                <time>2017-07-15T12:43:20Z</time>
            </trkpt>
            <trkpt lat="46.282220" lon="10.655770">
                <time>2017-07-15T12:43:21Z</time>
            </trkpt>
            <trkpt lat="46.282230" lon="10.655260">
                <time>2017-07-15T12:43:25Z</time>
            </trkpt>
            <trkpt lat="46.282070" lon="10.655150">
                <time>2017-07-15T12:43:26Z</time>
            </trkpt>
            <trkpt lat="46.281950" lon="10.655110">
                <time>2017-07-15T12:43:27Z</time>
            </trkpt>
            <trkpt lat="46.281700" lon="10.655130">
                <time>2017-07-15T12:43:28Z</time>
            </trkpt>
            <trkpt lat="46.281580" lon="10.655000">
                <time>2017-07-15T12:43:29Z</time>
            </trkpt>
            <trkpt lat="46.281430" lon="10.654980">
                <time>2017-07-15T12:43:30Z</time>
            </trkpt>
            <trkpt lat="46.281330" lon="10.654930">
                <time>2017-07-15T12:43:31Z</time>
            </trkpt>
            <trkpt lat="46.281240" lon="10.654830">
                <time>2017-07-15T12:43:32Z</time>
            </trkpt>
            <trkpt lat="46.281160" lon="10.654700">
                <time>2017-07-15T12:43:33Z</time>
            </trkpt>
            <trkpt lat="46.281110" lon="10.654530">
                <time>2017-07-15T12:43:34Z</time>
            </trkpt>
            <trkpt lat="46.281080" lon="10.654310">
                <time>2017-07-15T12:43:35Z</time>
            </trkpt>
            <trkpt lat="46.281070" lon="10.654100">
                <time>2017-07-15T12:43:36Z</time>
            </trkpt>
            <trkpt lat="46.281090" lon="10.653900">
                <time>2017-07-15T12:43:37Z</time>
            </trkpt>
            <trkpt lat="46.281100" lon="10.653690">
                <time>2017-07-15T12:43:38Z</time>
            </trkpt>
            <trkpt lat="46.281090" lon="10.653520">
                <time>2017-07-15T12:43:39Z</time>
            </trkpt>
            <trkpt lat="46.281040" lon="10.653340">
                <time>2017-07-15T12:43:40Z</time>
            </trkpt>
            <trkpt lat="46.280970" lon="10.653210">
                <time>2017-07-15T12:43:41Z</time>
            </trkpt>
            <trkpt lat="46.280870" lon="10.653090">
                <time>2017-07-15T12:43:42Z</time>
            </trkpt>
            <trkpt lat="46.280770" lon="10.652950">
                <time>2017-07-15T12:43:43Z</time>
            </trkpt>
            <trkpt lat="46.280710" lon="10.652800">
                <time>2017-07-15T12:43:44Z</time>
            </trkpt>
            <trkpt lat="46.280680" lon="10.652600">
                <time>2017-07-15T12:43:45Z</time>
            </trkpt>
            <trkpt lat="46.280650" lon="10.652390">
                <time>2017-07-15T12:43:46Z</time>
            </trkpt>
            <trkpt lat="46.280610" lon="10.652180">
                <time>2017-07-15T12:43:47Z</time>
            </trkpt>
            <trkpt lat="46.280540" lon="10.651990">
                <time>2017-07-15T12:43:48Z</time>
            </trkpt>
            <trkpt lat="46.280480" lon="10.651820">
                <time>2017-07-15T12:43:49Z</time>
            </trkpt>
            <trkpt lat="46.280440" lon="10.651620">
                <time>2017-07-15T12:43:50Z</time>
            </trkpt>
            <trkpt lat="46.280390" lon="10.651390">
                <time>2017-07-15T12:43:51Z</time>
            </trkpt>
            <trkpt lat="46.280330" lon="10.651200">
                <time>2017-07-15T12:43:52Z</time>
            </trkpt>
            <trkpt lat="46.280260" lon="10.651000">
                <time>2017-07-15T12:43:53Z</time>
            </trkpt>
            <trkpt lat="46.280220" lon="10.650780">
                <time>2017-07-15T12:43:54Z</time>
            </trkpt>
            <trkpt lat="46.280220" lon="10.650580">
                <time>2017-07-15T12:43:55Z</time>
            </trkpt>
            <trkpt lat="46.280250" lon="10.650320">
                <time>2017-07-15T12:43:56Z</time>
            </trkpt>
            <trkpt lat="46.280270" lon="10.650090">
                <time>2017-07-15T12:43:57Z</time>
            </trkpt>
            <trkpt lat="46.280270" lon="10.649830">
                <time>2017-07-15T12:43:58Z</time>
            </trkpt>
            <trkpt lat="46.280250" lon="10.649540">
                <time>2017-07-15T12:43:59Z</time>
            </trkpt>
            <trkpt lat="46.280230" lon="10.649270">
                <time>2017-07-15T12:44:00Z</time>
            </trkpt>
            <trkpt lat="46.280190" lon="10.648990">
                <time>2017-07-15T12:44:01Z</time>
            </trkpt>
            <trkpt lat="46.280160" lon="10.648700">
                <time>2017-07-15T12:44:02Z</time>
            </trkpt>
            <trkpt lat="46.280140" lon="10.648420">
                <time>2017-07-15T12:44:03Z</time>
            </trkpt>
            <trkpt lat="46.280120" lon="10.648150">
                <time>2017-07-15T12:44:04Z</time>
            </trkpt>
            <trkpt lat="46.280100" lon="10.647920">
                <time>2017-07-15T12:44:05Z</time>
            </trkpt>
            <trkpt lat="46.280070" lon="10.647700">
                <time>2017-07-15T12:44:06Z</time>
            </trkpt>
            <trkpt lat="46.280030" lon="10.647500">
                <time>2017-07-15T12:44:07Z</time>
            </trkpt>
            <trkpt lat="46.279980" lon="10.647350">
                <time>2017-07-15T12:44:08Z</time>
            </trkpt>
            <trkpt lat="46.279920" lon="10.647200">
                <time>2017-07-15T12:44:09Z</time>
            </trkpt>
            <trkpt lat="46.279900" lon="10.647030">
                <time>2017-07-15T12:44:10Z</time>
            </trkpt>
            <trkpt lat="46.279920" lon="10.646860">
                <time>2017-07-15T12:44:11Z</time>
            </trkpt>
            <trkpt lat="46.279940" lon="10.646640">
                <time>2017-07-15T12:44:12Z</time>
            </trkpt>
            <trkpt lat="46.279940" lon="10.646440">
                <time>2017-07-15T12:44:13Z</time>
            </trkpt>
            <trkpt lat="46.279920" lon="10.646190">
                <time>2017-07-15T12:44:14Z</time>
            </trkpt>
            <trkpt lat="46.279880" lon="10.645920">
                <time>2017-07-15T12:44:15Z</time>
            </trkpt>
            <trkpt lat="46.279850" lon="10.645690">
                <time>2017-07-15T12:44:16Z</time>
            </trkpt>
            <trkpt lat="46.279800" lon="10.645460">
                <time>2017-07-15T12:44:17Z</time>
            </trkpt>
            <trkpt lat="46.279750" lon="10.645270">
                <time>2017-07-15T12:44:18Z</time>
            </trkpt>
            <trkpt lat="46.279740" lon="10.645090">
                <time>2017-07-15T12:44:19Z</time>
            </trkpt>
            <trkpt lat="46.279760" lon="10.644900">
                <time>2017-07-15T12:44:20Z</time>
            </trkpt>
            <trkpt lat="46.279790" lon="10.644730">
                <time>2017-07-15T12:44:21Z</time>
            </trkpt>
            <trkpt lat="46.279790" lon="10.644520">
                <time>2017-07-15T12:44:22Z</time>
            </trkpt>
            <trkpt lat="46.279770" lon="10.644290">
                <time>2017-07-15T12:44:23Z</time>
            </trkpt>
            <trkpt lat="46.279730" lon="10.644090">
                <time>2017-07-15T12:44:24Z</time>
            </trkpt>
            <trkpt lat="46.279670" lon="10.643910">
                <time>2017-07-15T12:44:25Z</time>
            </trkpt>
            <trkpt lat="46.279570" lon="10.643750">
                <time>2017-07-15T12:44:26Z</time>
            </trkpt>
            <trkpt lat="46.279470" lon="10.643630">
                <time>2017-07-15T12:44:27Z</time>
            </trkpt>
            <trkpt lat="46.279370" lon="10.643500">
                <time>2017-07-15T12:44:28Z</time>
            </trkpt>
            <trkpt lat="46.279300" lon="10.643360">
                <time>2017-07-15T12:44:29Z</time>
            </trkpt>
            <trkpt lat="46.279270" lon="10.643190">
                <time>2017-07-15T12:44:30Z</time>
            </trkpt>
            <trkpt lat="46.279260" lon="10.643000">
                <time>2017-07-15T12:44:31Z</time>
            </trkpt>
            <trkpt lat="46.279310" lon="10.642860">
                <time>2017-07-15T12:44:32Z</time>
            </trkpt>
            <trkpt lat="46.279390" lon="10.642730">
                <time>2017-07-15T12:44:33Z</time>
            </trkpt>
            <trkpt lat="46.279500" lon="10.642610">
                <time>2017-07-15T12:44:34Z</time>
            </trkpt>
            <trkpt lat="46.279620" lon="10.642520">
                <time>2017-07-15T12:44:35Z</time>
            </trkpt>
            <trkpt lat="46.279750" lon="10.642480">
                <time>2017-07-15T12:44:36Z</time>
            </trkpt>
            <trkpt lat="46.279860" lon="10.642450">
                <time>2017-07-15T12:44:37Z</time>
            </trkpt>
            <trkpt lat="46.279960" lon="10.642410">
                <time>2017-07-15T12:44:38Z</time>
            </trkpt>
            <trkpt lat="46.280050" lon="10.642350">
                <time>2017-07-15T12:44:39Z</time>
            </trkpt>
            <trkpt lat="46.280090" lon="10.642260">
                <time>2017-07-15T12:44:40Z</time>
            </trkpt>
            <trkpt lat="46.280060" lon="10.642120">
                <time>2017-07-15T12:44:41Z</time>
            </trkpt>
            <trkpt lat="46.280020" lon="10.641960">
                <time>2017-07-15T12:44:42Z</time>
            </trkpt>
            <trkpt lat="46.279870" lon="10.641820">
                <time>2017-07-15T12:44:43Z</time>
            </trkpt>
            <trkpt lat="46.279740" lon="10.641690">
                <time>2017-07-15T12:44:44Z</time>
            </trkpt>
            <trkpt lat="46.279680" lon="10.641550">
                <time>2017-07-15T12:44:45Z</time>
            </trkpt>
            <trkpt lat="46.279650" lon="10.641380">
                <time>2017-07-15T12:44:46Z</time>
            </trkpt>
            <trkpt lat="46.279620" lon="10.641160">
                <time>2017-07-15T12:44:47Z</time>
            </trkpt>
            <trkpt lat="46.279580" lon="10.640960">
                <time>2017-07-15T12:44:48Z</time>
            </trkpt>
            <trkpt lat="46.279500" lon="10.640780">
                <time>2017-07-15T12:44:49Z</time>
            </trkpt>
            <trkpt lat="46.279380" lon="10.640640">
                <time>2017-07-15T12:44:50Z</time>
            </trkpt>
            <trkpt lat="46.279240" lon="10.640510">
                <time>2017-07-15T12:44:51Z</time>
            </trkpt>
            <trkpt lat="46.279090" lon="10.640360">
                <time>2017-07-15T12:44:52Z</time>
            </trkpt>
            <trkpt lat="46.278990" lon="10.640210">
                <time>2017-07-15T12:44:53Z</time>
            </trkpt>
            <trkpt lat="46.278900" lon="10.640020">
                <time>2017-07-15T12:44:54Z</time>
            </trkpt>
            <trkpt lat="46.278850" lon="10.639790">
                <time>2017-07-15T12:44:55Z</time>
            </trkpt>
            <trkpt lat="46.278830" lon="10.639550">
                <time>2017-07-15T12:44:56Z</time>
            </trkpt>
            <trkpt lat="46.278810" lon="10.639300">
                <time>2017-07-15T12:44:57Z</time>
            </trkpt>
            <trkpt lat="46.278760" lon="10.639030">
                <time>2017-07-15T12:44:58Z</time>
            </trkpt>
            <trkpt lat="46.278710" lon="10.638820">
                <time>2017-07-15T12:44:59Z</time>
            </trkpt>
            <trkpt lat="46.278600" lon="10.638580">
                <time>2017-07-15T12:45:00Z</time>
            </trkpt>
            <trkpt lat="46.278470" lon="10.638390">
                <time>2017-07-15T12:45:01Z</time>
            </trkpt>
            <trkpt lat="46.278310" lon="10.638200">
                <time>2017-07-15T12:45:02Z</time>
            </trkpt>
            <trkpt lat="46.278130" lon="10.638000">
                <time>2017-07-15T12:45:03Z</time>
            </trkpt>
            <trkpt lat="46.277990" lon="10.637820">
                <time>2017-07-15T12:45:04Z</time>
            </trkpt>
            <trkpt lat="46.277840" lon="10.637630">
                <time>2017-07-15T12:45:05Z</time>
            </trkpt>
            <trkpt lat="46.277700" lon="10.637430">
                <time>2017-07-15T12:45:06Z</time>
            </trkpt>
            <trkpt lat="46.277590" lon="10.637190">
                <time>2017-07-15T12:45:07Z</time>
            </trkpt>
            <trkpt lat="46.277460" lon="10.636960">
                <time>2017-07-15T12:45:08Z</time>
            </trkpt>
            <trkpt lat="46.277320" lon="10.636790">
                <time>2017-07-15T12:45:09Z</time>
            </trkpt>
            <trkpt lat="46.277180" lon="10.636590">
                <time>2017-07-15T12:45:10Z</time>
            </trkpt>
            <trkpt lat="46.277030" lon="10.636350">
                <time>2017-07-15T12:45:11Z</time>
            </trkpt>
            <trkpt lat="46.276900" lon="10.636130">
                <time>2017-07-15T12:45:12Z</time>
            </trkpt>
            <trkpt lat="46.276770" lon="10.635890">
                <time>2017-07-15T12:45:13Z</time>
            </trkpt>
            <trkpt lat="46.276630" lon="10.635630">
                <time>2017-07-15T12:45:14Z</time>
            </trkpt>
            <trkpt lat="46.276520" lon="10.635420">
                <time>2017-07-15T12:45:15Z</time>
            </trkpt>
            <trkpt lat="46.276390" lon="10.635200">
                <time>2017-07-15T12:45:16Z</time>
            </trkpt>
            <trkpt lat="46.276290" lon="10.635010">
                <time>2017-07-15T12:45:17Z</time>
            </trkpt>
            <trkpt lat="46.276170" lon="10.634790">
                <time>2017-07-15T12:45:18Z</time>
            </trkpt>
            <trkpt lat="46.276040" lon="10.634560">
                <time>2017-07-15T12:45:19Z</time>
            </trkpt>
            <trkpt lat="46.275920" lon="10.634330">
                <time>2017-07-15T12:45:20Z</time>
            </trkpt>
            <trkpt lat="46.275800" lon="10.634090">
                <time>2017-07-15T12:45:21Z</time>
            </trkpt>
            <trkpt lat="46.275670" lon="10.633830">
                <time>2017-07-15T12:45:22Z</time>
            </trkpt>
            <trkpt lat="46.275540" lon="10.633580">
                <time>2017-07-15T12:45:23Z</time>
            </trkpt>
            <trkpt lat="46.275400" lon="10.633310">
                <time>2017-07-15T12:45:24Z</time>
            </trkpt>
            <trkpt lat="46.275260" lon="10.633070">
                <time>2017-07-15T12:45:25Z</time>
            </trkpt>
            <trkpt lat="46.275120" lon="10.632820">
                <time>2017-07-15T12:45:26Z</time>
            </trkpt>
            <trkpt lat="46.274970" lon="10.632550">
                <time>2017-07-15T12:45:27Z</time>
            </trkpt>
            <trkpt lat="46.274840" lon="10.632310">
                <time>2017-07-15T12:45:28Z</time>
            </trkpt>
            <trkpt lat="46.274690" lon="10.632050">
                <time>2017-07-15T12:45:29Z</time>
            </trkpt>
            <trkpt lat="46.274550" lon="10.631780">
                <time>2017-07-15T12:45:30Z</time>
            </trkpt>
            <trkpt lat="46.274440" lon="10.631550">
                <time>2017-07-15T12:45:31Z</time>
            </trkpt>
            <trkpt lat="46.274320" lon="10.631280">
                <time>2017-07-15T12:45:32Z</time>
            </trkpt>
            <trkpt lat="46.274220" lon="10.631060">
                <time>2017-07-15T12:45:33Z</time>
            </trkpt>
            <trkpt lat="46.274090" lon="10.630830">
                <time>2017-07-15T12:45:34Z</time>
            </trkpt>
            <trkpt lat="46.273930" lon="10.630610">
                <time>2017-07-15T12:45:35Z</time>
            </trkpt>
            <trkpt lat="46.273780" lon="10.630420">
                <time>2017-07-15T12:45:36Z</time>
            </trkpt>
            <trkpt lat="46.273620" lon="10.630210">
                <time>2017-07-15T12:45:37Z</time>
            </trkpt>
            <trkpt lat="46.273470" lon="10.630010">
                <time>2017-07-15T12:45:38Z</time>
            </trkpt>
            <trkpt lat="46.273330" lon="10.629820">
                <time>2017-07-15T12:45:39Z</time>
            </trkpt>
            <trkpt lat="46.273180" lon="10.629630">
                <time>2017-07-15T12:45:40Z</time>
            </trkpt>
            <trkpt lat="46.273050" lon="10.629470">
                <time>2017-07-15T12:45:41Z</time>
            </trkpt>
            <trkpt lat="46.272930" lon="10.629290">
                <time>2017-07-15T12:45:42Z</time>
            </trkpt>
            <trkpt lat="46.272830" lon="10.629090">
                <time>2017-07-15T12:45:43Z</time>
            </trkpt>
            <trkpt lat="46.272770" lon="10.628890">
                <time>2017-07-15T12:45:44Z</time>
            </trkpt>
            <trkpt lat="46.272730" lon="10.628680">
                <time>2017-07-15T12:45:45Z</time>
            </trkpt>
            <trkpt lat="46.272660" lon="10.628490">
                <time>2017-07-15T12:45:46Z</time>
            </trkpt>
            <trkpt lat="46.272580" lon="10.628340">
                <time>2017-07-15T12:45:47Z</time>
            </trkpt>
            <trkpt lat="46.272440" lon="10.628210">
                <time>2017-07-15T12:45:48Z</time>
            </trkpt>
            <trkpt lat="46.272300" lon="10.628110">
                <time>2017-07-15T12:45:49Z</time>
            </trkpt>
            <trkpt lat="46.272160" lon="10.627980">
                <time>2017-07-15T12:45:50Z</time>
            </trkpt>
            <trkpt lat="46.272010" lon="10.627840">
                <time>2017-07-15T12:45:51Z</time>
            </trkpt>
            <trkpt lat="46.271900" lon="10.627690">
                <time>2017-07-15T12:45:52Z</time>
            </trkpt>
            <trkpt lat="46.271790" lon="10.627510">
                <time>2017-07-15T12:45:53Z</time>
            </trkpt>
            <trkpt lat="46.271700" lon="10.627280">
                <time>2017-07-15T12:45:54Z</time>
            </trkpt>
            <trkpt lat="46.271600" lon="10.627060">
                <time>2017-07-15T12:45:55Z</time>
            </trkpt>
            <trkpt lat="46.271460" lon="10.626830">
                <time>2017-07-15T12:45:56Z</time>
            </trkpt>
            <trkpt lat="46.271310" lon="10.626630">
                <time>2017-07-15T12:45:57Z</time>
            </trkpt>
            <trkpt lat="46.271170" lon="10.626420">
                <time>2017-07-15T12:45:58Z</time>
            </trkpt>
            <trkpt lat="46.271000" lon="10.626200">
                <time>2017-07-15T12:45:59Z</time>
            </trkpt>
            <trkpt lat="46.270860" lon="10.626000">
                <time>2017-07-15T12:46:00Z</time>
            </trkpt>
            <trkpt lat="46.270720" lon="10.625790">
                <time>2017-07-15T12:46:01Z</time>
            </trkpt>
            <trkpt lat="46.270580" lon="10.625560">
                <time>2017-07-15T12:46:02Z</time>
            </trkpt>
            <trkpt lat="46.270470" lon="10.625340">
                <time>2017-07-15T12:46:03Z</time>
            </trkpt>
            <trkpt lat="46.270340" lon="10.625080">
                <time>2017-07-15T12:46:04Z</time>
            </trkpt>
            <trkpt lat="46.270240" lon="10.624850">
                <time>2017-07-15T12:46:05Z</time>
            </trkpt>
            <trkpt lat="46.270130" lon="10.624620">
                <time>2017-07-15T12:46:06Z</time>
            </trkpt>
            <trkpt lat="46.270020" lon="10.624370">
                <time>2017-07-15T12:46:07Z</time>
            </trkpt>
            <trkpt lat="46.269940" lon="10.624140">
                <time>2017-07-15T12:46:08Z</time>
            </trkpt>
            <trkpt lat="46.269870" lon="10.623880">
                <time>2017-07-15T12:46:09Z</time>
            </trkpt>
            <trkpt lat="46.269820" lon="10.623640">
                <time>2017-07-15T12:46:10Z</time>
            </trkpt>
            <trkpt lat="46.269750" lon="10.623430">
                <time>2017-07-15T12:46:11Z</time>
            </trkpt>
            <trkpt lat="46.269670" lon="10.623260">
                <time>2017-07-15T12:46:12Z</time>
            </trkpt>
            <trkpt lat="46.269580" lon="10.623150">
                <time>2017-07-15T12:46:13Z</time>
            </trkpt>
            <trkpt lat="46.269440" lon="10.623060">
                <time>2017-07-15T12:46:14Z</time>
            </trkpt>
            <trkpt lat="46.269320" lon="10.622930">
                <time>2017-07-15T12:46:15Z</time>
            </trkpt>
            <trkpt lat="46.269240" lon="10.622800">
                <time>2017-07-15T12:46:16Z</time>
            </trkpt>
            <trkpt lat="46.269200" lon="10.622590">
                <time>2017-07-15T12:46:17Z</time>
            </trkpt>
            <trkpt lat="46.269160" lon="10.622360">
                <time>2017-07-15T12:46:18Z</time>
            </trkpt>
            <trkpt lat="46.269130" lon="10.622160">
                <time>2017-07-15T12:46:19Z</time>
            </trkpt>
            <trkpt lat="46.269150" lon="10.621940">
                <time>2017-07-15T12:46:20Z</time>
            </trkpt>
            <trkpt lat="46.269190" lon="10.621750">
                <time>2017-07-15T12:46:21Z</time>
            </trkpt>
            <trkpt lat="46.269260" lon="10.621530">
                <time>2017-07-15T12:46:22Z</time>
            </trkpt>
            <trkpt lat="46.269340" lon="10.621270">
                <time>2017-07-15T12:46:23Z</time>
            </trkpt>
            <trkpt lat="46.269410" lon="10.621040">
                <time>2017-07-15T12:46:24Z</time>
            </trkpt>
            <trkpt lat="46.269480" lon="10.620800">
                <time>2017-07-15T12:46:25Z</time>
            </trkpt>
            <trkpt lat="46.269550" lon="10.620580">
                <time>2017-07-15T12:46:26Z</time>
            </trkpt>
            <trkpt lat="46.269620" lon="10.620370">
                <time>2017-07-15T12:46:27Z</time>
            </trkpt>
            <trkpt lat="46.269690" lon="10.620140">
                <time>2017-07-15T12:46:28Z</time>
            </trkpt>
            <trkpt lat="46.269750" lon="10.619940">
                <time>2017-07-15T12:46:29Z</time>
            </trkpt>
            <trkpt lat="46.269350" lon="10.619510">
                <time>2017-07-15T12:46:37Z</time>
            </trkpt>
            <trkpt lat="46.269170" lon="10.619550">
                <time>2017-07-15T12:46:38Z</time>
            </trkpt>
            <trkpt lat="46.269010" lon="10.619550">
                <time>2017-07-15T12:46:39Z</time>
            </trkpt>
            <trkpt lat="46.268860" lon="10.619570">
                <time>2017-07-15T12:46:40Z</time>
            </trkpt>
            <trkpt lat="46.268730" lon="10.619590">
                <time>2017-07-15T12:46:41Z</time>
            </trkpt>
            <trkpt lat="46.268610" lon="10.619660">
                <time>2017-07-15T12:46:42Z</time>
            </trkpt>
            <trkpt lat="46.268520" lon="10.619800">
                <time>2017-07-15T12:46:43Z</time>
            </trkpt>
            <trkpt lat="46.268420" lon="10.619880">
                <time>2017-07-15T12:46:44Z</time>
            </trkpt>
            <trkpt lat="46.268320" lon="10.619950">
                <time>2017-07-15T12:46:45Z</time>
            </trkpt>
            <trkpt lat="46.268190" lon="10.619930">
                <time>2017-07-15T12:46:46Z</time>
            </trkpt>
            <trkpt lat="46.268030" lon="10.619870">
                <time>2017-07-15T12:46:47Z</time>
            </trkpt>
            <trkpt lat="46.267910" lon="10.619810">
                <time>2017-07-15T12:46:48Z</time>
            </trkpt>
            <trkpt lat="46.267840" lon="10.619720">
                <time>2017-07-15T12:46:49Z</time>
            </trkpt>
            <trkpt lat="46.267790" lon="10.619550">
                <time>2017-07-15T12:46:50Z</time>
            </trkpt>
            <trkpt lat="46.267780" lon="10.619380">
                <time>2017-07-15T12:46:51Z</time>
            </trkpt>
            <trkpt lat="46.267780" lon="10.619180">
                <time>2017-07-15T12:46:52Z</time>
            </trkpt>
            <trkpt lat="46.267810" lon="10.619000">
                <time>2017-07-15T12:46:53Z</time>
            </trkpt>
            <trkpt lat="46.267860" lon="10.618820">
                <time>2017-07-15T12:46:54Z</time>
            </trkpt>
            <trkpt lat="46.267900" lon="10.618630">
                <time>2017-07-15T12:46:55Z</time>
            </trkpt>
            <trkpt lat="46.267910" lon="10.618470">
                <time>2017-07-15T12:46:56Z</time>
            </trkpt>
            <trkpt lat="46.267900" lon="10.618290">
                <time>2017-07-15T12:46:57Z</time>
            </trkpt>
            <trkpt lat="46.267880" lon="10.618100">
                <time>2017-07-15T12:46:58Z</time>
            </trkpt>
            <trkpt lat="46.267900" lon="10.617890">
                <time>2017-07-15T12:46:59Z</time>
            </trkpt>
            <trkpt lat="46.267940" lon="10.617650">
                <time>2017-07-15T12:47:00Z</time>
            </trkpt>
            <trkpt lat="46.268000" lon="10.617430">
                <time>2017-07-15T12:47:01Z</time>
            </trkpt>
            <trkpt lat="46.268050" lon="10.617180">
                <time>2017-07-15T12:47:02Z</time>
            </trkpt>
            <trkpt lat="46.268100" lon="10.616900">
                <time>2017-07-15T12:47:03Z</time>
            </trkpt>
            <trkpt lat="46.268120" lon="10.616650">
                <time>2017-07-15T12:47:04Z</time>
            </trkpt>
            <trkpt lat="46.268170" lon="10.616400">
                <time>2017-07-15T12:47:05Z</time>
            </trkpt>
            <trkpt lat="46.268250" lon="10.616160">
                <time>2017-07-15T12:47:06Z</time>
            </trkpt>
            <trkpt lat="46.268330" lon="10.615960">
                <time>2017-07-15T12:47:07Z</time>
            </trkpt>
            <trkpt lat="46.268410" lon="10.615750">
                <time>2017-07-15T12:47:08Z</time>
            </trkpt>
            <trkpt lat="46.268470" lon="10.615570">
                <time>2017-07-15T12:47:09Z</time>
            </trkpt>
            <trkpt lat="46.268540" lon="10.615390">
                <time>2017-07-15T12:47:10Z</time>
            </trkpt>
            <trkpt lat="46.268390" lon="10.614810">
                <time>2017-07-15T12:47:16Z</time>
            </trkpt>
            <trkpt lat="46.268240" lon="10.614930">
                <time>2017-07-15T12:47:17Z</time>
            </trkpt>
            <trkpt lat="46.268030" lon="10.615070">
                <time>2017-07-15T12:47:18Z</time>
            </trkpt>
            <trkpt lat="46.267880" lon="10.615160">
                <time>2017-07-15T12:47:19Z</time>
            </trkpt>
            <trkpt lat="46.267750" lon="10.615190">
                <time>2017-07-15T12:47:20Z</time>
            </trkpt>
            <trkpt lat="46.267620" lon="10.615160">
                <time>2017-07-15T12:47:21Z</time>
            </trkpt>
            <trkpt lat="46.267520" lon="10.615010">
                <time>2017-07-15T12:47:22Z</time>
            </trkpt>
            <trkpt lat="46.267410" lon="10.614940">
                <time>2017-07-15T12:47:23Z</time>
            </trkpt>
            <trkpt lat="46.267300" lon="10.614900">
                <time>2017-07-15T12:47:24Z</time>
            </trkpt>
            <trkpt lat="46.267170" lon="10.614930">
                <time>2017-07-15T12:47:25Z</time>
            </trkpt>
            <trkpt lat="46.267070" lon="10.615000">
                <time>2017-07-15T12:47:26Z</time>
            </trkpt>
            <trkpt lat="46.266970" lon="10.615100">
                <time>2017-07-15T12:47:27Z</time>
            </trkpt>
            <trkpt lat="46.266890" lon="10.615140">
                <time>2017-07-15T12:47:28Z</time>
            </trkpt>
            <trkpt lat="46.266810" lon="10.615130">
                <time>2017-07-15T12:47:29Z</time>
            </trkpt>
            <trkpt lat="46.266720" lon="10.615030">
                <time>2017-07-15T12:47:30Z</time>
            </trkpt>
            <trkpt lat="46.266610" lon="10.614920">
                <time>2017-07-15T12:47:31Z</time>
            </trkpt>
            <trkpt lat="46.266510" lon="10.614780">
                <time>2017-07-15T12:47:32Z</time>
            </trkpt>
            <trkpt lat="46.266410" lon="10.614670">
                <time>2017-07-15T12:47:33Z</time>
            </trkpt>
            <trkpt lat="46.266280" lon="10.614630">
                <time>2017-07-15T12:47:34Z</time>
            </trkpt>
            <trkpt lat="46.266150" lon="10.614630">
                <time>2017-07-15T12:47:35Z</time>
            </trkpt>
            <trkpt lat="46.266000" lon="10.614710">
                <time>2017-07-15T12:47:36Z</time>
            </trkpt>
            <trkpt lat="46.265880" lon="10.614820">
                <time>2017-07-15T12:47:37Z</time>
            </trkpt>
            <trkpt lat="46.265760" lon="10.614930">
                <time>2017-07-15T12:47:38Z</time>
            </trkpt>
            <trkpt lat="46.265670" lon="10.615040">
                <time>2017-07-15T12:47:39Z</time>
            </trkpt>
            <trkpt lat="46.265570" lon="10.615130">
                <time>2017-07-15T12:47:40Z</time>
            </trkpt>
            <trkpt lat="46.265470" lon="10.615090">
                <time>2017-07-15T12:47:41Z</time>
            </trkpt>
            <trkpt lat="46.265360" lon="10.614940">
                <time>2017-07-15T12:47:42Z</time>
            </trkpt>
            <trkpt lat="46.265260" lon="10.614690">
                <time>2017-07-15T12:47:43Z</time>
            </trkpt>
            <trkpt lat="46.265220" lon="10.614430">
                <time>2017-07-15T12:47:44Z</time>
            </trkpt>
            <trkpt lat="46.265130" lon="10.614190">
                <time>2017-07-15T12:47:45Z</time>
            </trkpt>
            <trkpt lat="46.265050" lon="10.613910">
                <time>2017-07-15T12:47:46Z</time>
            </trkpt>
            <trkpt lat="46.264960" lon="10.613650">
                <time>2017-07-15T12:47:47Z</time>
            </trkpt>
            <trkpt lat="46.264880" lon="10.613350">
                <time>2017-07-15T12:47:48Z</time>
            </trkpt>
            <trkpt lat="46.264820" lon="10.613080">
                <time>2017-07-15T12:47:49Z</time>
            </trkpt>
            <trkpt lat="46.264740" lon="10.612820">
                <time>2017-07-15T12:47:50Z</time>
            </trkpt>
            <trkpt lat="46.264670" lon="10.612560">
                <time>2017-07-15T12:47:51Z</time>
            </trkpt>
            <trkpt lat="46.264590" lon="10.612360">
                <time>2017-07-15T12:47:52Z</time>
            </trkpt>
            <trkpt lat="46.264480" lon="10.612170">
                <time>2017-07-15T12:47:53Z</time>
            </trkpt>
            <trkpt lat="46.264350" lon="10.612000">
                <time>2017-07-15T12:47:54Z</time>
            </trkpt>
            <trkpt lat="46.264220" lon="10.611890">
                <time>2017-07-15T12:47:55Z</time>
            </trkpt>
            <trkpt lat="46.264060" lon="10.611820">
                <time>2017-07-15T12:47:56Z</time>
            </trkpt>
            <trkpt lat="46.263890" lon="10.611780">
                <time>2017-07-15T12:47:57Z</time>
            </trkpt>
            <trkpt lat="46.263720" lon="10.611750">
                <time>2017-07-15T12:47:58Z</time>
            </trkpt>
            <trkpt lat="46.263540" lon="10.611720">
                <time>2017-07-15T12:47:59Z</time>
            </trkpt>
            <trkpt lat="46.263370" lon="10.611680">
                <time>2017-07-15T12:48:00Z</time>
            </trkpt>
            <trkpt lat="46.263190" lon="10.611630">
                <time>2017-07-15T12:48:01Z</time>
            </trkpt>
            <trkpt lat="46.263020" lon="10.611560">
                <time>2017-07-15T12:48:02Z</time>
            </trkpt>
            <trkpt lat="46.262850" lon="10.611470">
                <time>2017-07-15T12:48:03Z</time>
            </trkpt>
            <trkpt lat="46.262690" lon="10.611370">
                <time>2017-07-15T12:48:04Z</time>
            </trkpt>
            <trkpt lat="46.262550" lon="10.611290">
                <time>2017-07-15T12:48:05Z</time>
            </trkpt>
            <trkpt lat="46.262400" lon="10.611200">
                <time>2017-07-15T12:48:06Z</time>
            </trkpt>
            <trkpt lat="46.262250" lon="10.611090">
                <time>2017-07-15T12:48:07Z</time>
            </trkpt>
            <trkpt lat="46.262110" lon="10.610980">
                <time>2017-07-15T12:48:08Z</time>
            </trkpt>
            <trkpt lat="46.261960" lon="10.610820">
                <time>2017-07-15T12:48:09Z</time>
            </trkpt>
            <trkpt lat="46.261830" lon="10.610620">
                <time>2017-07-15T12:48:10Z</time>
            </trkpt>
            <trkpt lat="46.261720" lon="10.610440">
                <time>2017-07-15T12:48:11Z</time>
            </trkpt>
            <trkpt lat="46.261590" lon="10.610210">
                <time>2017-07-15T12:48:12Z</time>
            </trkpt>
            <trkpt lat="46.261490" lon="10.610020">
                <time>2017-07-15T12:48:13Z</time>
            </trkpt>
            <trkpt lat="46.261420" lon="10.609820">
                <time>2017-07-15T12:48:14Z</time>
            </trkpt>
            <trkpt lat="46.261350" lon="10.609580">
                <time>2017-07-15T12:48:15Z</time>
            </trkpt>
            <trkpt lat="46.261310" lon="10.609370">
                <time>2017-07-15T12:48:16Z</time>
            </trkpt>
            <trkpt lat="46.261260" lon="10.609150">
                <time>2017-07-15T12:48:17Z</time>
            </trkpt>
            <trkpt lat="46.261190" lon="10.608960">
                <time>2017-07-15T12:48:18Z</time>
            </trkpt>
            <trkpt lat="46.261090" lon="10.608790">
                <time>2017-07-15T12:48:19Z</time>
            </trkpt>
            <trkpt lat="46.260980" lon="10.608590">
                <time>2017-07-15T12:48:20Z</time>
            </trkpt>
            <trkpt lat="46.260880" lon="10.608420">
                <time>2017-07-15T12:48:21Z</time>
            </trkpt>
            <trkpt lat="46.260770" lon="10.608220">
                <time>2017-07-15T12:48:22Z</time>
            </trkpt>
            <trkpt lat="46.260650" lon="10.608010">
                <time>2017-07-15T12:48:23Z</time>
            </trkpt>
            <trkpt lat="46.260560" lon="10.607830">
                <time>2017-07-15T12:48:24Z</time>
            </trkpt>
            <trkpt lat="46.260490" lon="10.607620">
                <time>2017-07-15T12:48:25Z</time>
            </trkpt>
            <trkpt lat="46.260440" lon="10.607360">
                <time>2017-07-15T12:48:26Z</time>
            </trkpt>
            <trkpt lat="46.260410" lon="10.607120">
                <time>2017-07-15T12:48:27Z</time>
            </trkpt>
            <trkpt lat="46.260390" lon="10.606840">
                <time>2017-07-15T12:48:28Z</time>
            </trkpt>
            <trkpt lat="46.260380" lon="10.606600">
                <time>2017-07-15T12:48:29Z</time>
            </trkpt>
            <trkpt lat="46.260380" lon="10.606340">
                <time>2017-07-15T12:48:30Z</time>
            </trkpt>
            <trkpt lat="46.260380" lon="10.606050">
                <time>2017-07-15T12:48:31Z</time>
            </trkpt>
            <trkpt lat="46.260390" lon="10.605790">
                <time>2017-07-15T12:48:32Z</time>
            </trkpt>
            <trkpt lat="46.260410" lon="10.605500">
                <time>2017-07-15T12:48:33Z</time>
            </trkpt>
            <trkpt lat="46.260460" lon="10.605190">
                <time>2017-07-15T12:48:34Z</time>
            </trkpt>
            <trkpt lat="46.260510" lon="10.604850">
                <time>2017-07-15T12:48:35Z</time>
            </trkpt>
            <trkpt lat="46.260570" lon="10.604470">
                <time>2017-07-15T12:48:36Z</time>
            </trkpt>
            <trkpt lat="46.260640" lon="10.604120">
                <time>2017-07-15T12:48:37Z</time>
            </trkpt>
            <trkpt lat="46.260700" lon="10.603750">
                <time>2017-07-15T12:48:38Z</time>
            </trkpt>
            <trkpt lat="46.260760" lon="10.603360">
                <time>2017-07-15T12:48:39Z</time>
            </trkpt>
            <trkpt lat="46.260820" lon="10.603020">
                <time>2017-07-15T12:48:40Z</time>
            </trkpt>
            <trkpt lat="46.260880" lon="10.602690">
                <time>2017-07-15T12:48:41Z</time>
            </trkpt>
            <trkpt lat="46.260930" lon="10.602340">
                <time>2017-07-15T12:48:42Z</time>
            </trkpt>
            <trkpt lat="46.260980" lon="10.602040">
                <time>2017-07-15T12:48:43Z</time>
            </trkpt>
            <trkpt lat="46.261040" lon="10.601710">
                <time>2017-07-15T12:48:44Z</time>
            </trkpt>
            <trkpt lat="46.261090" lon="10.601450">
                <time>2017-07-15T12:48:45Z</time>
            </trkpt>
            <trkpt lat="46.261130" lon="10.601200">
                <time>2017-07-15T12:48:46Z</time>
            </trkpt>
            <trkpt lat="46.261150" lon="10.600960">
                <time>2017-07-15T12:48:47Z</time>
            </trkpt>
            <trkpt lat="46.261150" lon="10.600780">
                <time>2017-07-15T12:48:48Z</time>
            </trkpt>
            <trkpt lat="46.261110" lon="10.600580">
                <time>2017-07-15T12:48:49Z</time>
            </trkpt>
            <trkpt lat="46.261040" lon="10.600400">
                <time>2017-07-15T12:48:50Z</time>
            </trkpt>
            <trkpt lat="46.260990" lon="10.600220">
                <time>2017-07-15T12:48:51Z</time>
            </trkpt>
            <trkpt lat="46.260970" lon="10.600010">
                <time>2017-07-15T12:48:52Z</time>
            </trkpt>
            <trkpt lat="46.260990" lon="10.599800">
                <time>2017-07-15T12:48:53Z</time>
            </trkpt>
            <trkpt lat="46.261020" lon="10.599580">
                <time>2017-07-15T12:48:54Z</time>
            </trkpt>
            <trkpt lat="46.261060" lon="10.599340">
                <time>2017-07-15T12:48:55Z</time>
            </trkpt>
            <trkpt lat="46.261090" lon="10.599130">
                <time>2017-07-15T12:48:56Z</time>
            </trkpt>
            <trkpt lat="46.261110" lon="10.598920">
                <time>2017-07-15T12:48:57Z</time>
            </trkpt>
            <trkpt lat="46.261100" lon="10.598700">
                <time>2017-07-15T12:48:58Z</time>
            </trkpt>
            <trkpt lat="46.261060" lon="10.598520">
                <time>2017-07-15T12:48:59Z</time>
            </trkpt>
            <trkpt lat="46.261010" lon="10.598330">
                <time>2017-07-15T12:49:00Z</time>
            </trkpt>
            <trkpt lat="46.260980" lon="10.598180">
                <time>2017-07-15T12:49:01Z</time>
            </trkpt>
            <trkpt lat="46.260970" lon="10.598010">
                <time>2017-07-15T12:49:02Z</time>
            </trkpt>
            <trkpt lat="46.261010" lon="10.597830">
                <time>2017-07-15T12:49:03Z</time>
            </trkpt>
            <trkpt lat="46.261070" lon="10.597670">
                <time>2017-07-15T12:49:04Z</time>
            </trkpt>
            <trkpt lat="46.261160" lon="10.597500">
                <time>2017-07-15T12:49:05Z</time>
            </trkpt>
            <trkpt lat="46.261240" lon="10.597320">
                <time>2017-07-15T12:49:06Z</time>
            </trkpt>
            <trkpt lat="46.261320" lon="10.597150">
                <time>2017-07-15T12:49:07Z</time>
            </trkpt>
            <trkpt lat="46.261370" lon="10.596970">
                <time>2017-07-15T12:49:08Z</time>
            </trkpt>
            <trkpt lat="46.261380" lon="10.596800">
                <time>2017-07-15T12:49:09Z</time>
            </trkpt>
            <trkpt lat="46.261370" lon="10.596610">
                <time>2017-07-15T12:49:10Z</time>
            </trkpt>
            <trkpt lat="46.261310" lon="10.596420">
                <time>2017-07-15T12:49:11Z</time>
            </trkpt>
            <trkpt lat="46.261230" lon="10.596260">
                <time>2017-07-15T12:49:12Z</time>
            </trkpt>
            <trkpt lat="46.261140" lon="10.596090">
                <time>2017-07-15T12:49:13Z</time>
            </trkpt>
            <trkpt lat="46.261050" lon="10.595920">
                <time>2017-07-15T12:49:14Z</time>
            </trkpt>
            <trkpt lat="46.260990" lon="10.595760">
                <time>2017-07-15T12:49:15Z</time>
            </trkpt>
            <trkpt lat="46.260980" lon="10.595560">
                <time>2017-07-15T12:49:16Z</time>
            </trkpt>
            <trkpt lat="46.260990" lon="10.595370">
                <time>2017-07-15T12:49:17Z</time>
            </trkpt>
            <trkpt lat="46.261030" lon="10.595170">
                <time>2017-07-15T12:49:18Z</time>
            </trkpt>
            <trkpt lat="46.261090" lon="10.594940">
                <time>2017-07-15T12:49:19Z</time>
            </trkpt>
            <trkpt lat="46.261160" lon="10.594750">
                <time>2017-07-15T12:49:20Z</time>
            </trkpt>
            <trkpt lat="46.261250" lon="10.594560">
                <time>2017-07-15T12:49:21Z</time>
            </trkpt>
            <trkpt lat="46.261370" lon="10.594390">
                <time>2017-07-15T12:49:22Z</time>
            </trkpt>
            <trkpt lat="46.261500" lon="10.594230">
                <time>2017-07-15T12:49:23Z</time>
            </trkpt>
            <trkpt lat="46.261630" lon="10.594090">
                <time>2017-07-15T12:49:24Z</time>
            </trkpt>
            <trkpt lat="46.261730" lon="10.593960">
                <time>2017-07-15T12:49:25Z</time>
            </trkpt>
            <trkpt lat="46.261810" lon="10.593840">
                <time>2017-07-15T12:49:26Z</time>
            </trkpt>
            <trkpt lat="46.261860" lon="10.593670">
                <time>2017-07-15T12:49:27Z</time>
            </trkpt>
            <trkpt lat="46.261870" lon="10.593510">
                <time>2017-07-15T12:49:28Z</time>
            </trkpt>
            <trkpt lat="46.261850" lon="10.593350">
                <time>2017-07-15T12:49:29Z</time>
            </trkpt>
            <trkpt lat="46.261780" lon="10.593180">
                <time>2017-07-15T12:49:30Z</time>
            </trkpt>
            <trkpt lat="46.261670" lon="10.593060">
                <time>2017-07-15T12:49:31Z</time>
            </trkpt>
            <trkpt lat="46.261530" lon="10.592970">
                <time>2017-07-15T12:49:32Z</time>
            </trkpt>
            <trkpt lat="46.261390" lon="10.592910">
                <time>2017-07-15T12:49:33Z</time>
            </trkpt>
            <trkpt lat="46.261240" lon="10.592840">
                <time>2017-07-15T12:49:34Z</time>
            </trkpt>
            <trkpt lat="46.261090" lon="10.592740">
                <time>2017-07-15T12:49:35Z</time>
            </trkpt>
            <trkpt lat="46.260970" lon="10.592630">
                <time>2017-07-15T12:49:36Z</time>
            </trkpt>
            <trkpt lat="46.260870" lon="10.592470">
                <time>2017-07-15T12:49:37Z</time>
            </trkpt>
            <trkpt lat="46.260790" lon="10.592290">
                <time>2017-07-15T12:49:38Z</time>
            </trkpt>
            <trkpt lat="46.260740" lon="10.592090">
                <time>2017-07-15T12:49:39Z</time>
            </trkpt>
            <trkpt lat="46.260710" lon="10.591880">
                <time>2017-07-15T12:49:40Z</time>
            </trkpt>
            <trkpt lat="46.260690" lon="10.591680">
                <time>2017-07-15T12:49:41Z</time>
            </trkpt>
            <trkpt lat="46.260680" lon="10.591470">
                <time>2017-07-15T12:49:42Z</time>
            </trkpt>
            <trkpt lat="46.260670" lon="10.591220">
                <time>2017-07-15T12:49:43Z</time>
            </trkpt>
            <trkpt lat="46.260670" lon="10.591010">
                <time>2017-07-15T12:49:44Z</time>
            </trkpt>
            <trkpt lat="46.260660" lon="10.590780">
                <time>2017-07-15T12:49:45Z</time>
            </trkpt>
            <trkpt lat="46.260650" lon="10.590540">
                <time>2017-07-15T12:49:46Z</time>
            </trkpt>
            <trkpt lat="46.260640" lon="10.590300">
                <time>2017-07-15T12:49:47Z</time>
            </trkpt>
            <trkpt lat="46.260630" lon="10.590030">
                <time>2017-07-15T12:49:48Z</time>
            </trkpt>
            <trkpt lat="46.260620" lon="10.589790">
                <time>2017-07-15T12:49:49Z</time>
            </trkpt>
            <trkpt lat="46.260590" lon="10.589550">
                <time>2017-07-15T12:49:50Z</time>
            </trkpt>
            <trkpt lat="46.260580" lon="10.589290">
                <time>2017-07-15T12:49:51Z</time>
            </trkpt>
            <trkpt lat="46.260550" lon="10.589070">
                <time>2017-07-15T12:49:52Z</time>
            </trkpt>
            <trkpt lat="46.260530" lon="10.588840">
                <time>2017-07-15T12:49:53Z</time>
            </trkpt>
            <trkpt lat="46.260500" lon="10.588630">
                <time>2017-07-15T12:49:54Z</time>
            </trkpt>
            <trkpt lat="46.260470" lon="10.588430">
                <time>2017-07-15T12:49:55Z</time>
            </trkpt>
            <trkpt lat="46.260440" lon="10.588230">
                <time>2017-07-15T12:49:56Z</time>
            </trkpt>
            <trkpt lat="46.260390" lon="10.588050">
                <time>2017-07-15T12:49:57Z</time>
            </trkpt>
            <trkpt lat="46.260350" lon="10.587850">
                <time>2017-07-15T12:49:58Z</time>
            </trkpt>
            <trkpt lat="46.260300" lon="10.587650">
                <time>2017-07-15T12:49:59Z</time>
            </trkpt>
            <trkpt lat="46.260260" lon="10.587480">
                <time>2017-07-15T12:50:00Z</time>
            </trkpt>
            <trkpt lat="46.260210" lon="10.587290">
                <time>2017-07-15T12:50:01Z</time>
            </trkpt>
            <trkpt lat="46.260160" lon="10.587090">
                <time>2017-07-15T12:50:02Z</time>
            </trkpt>
            <trkpt lat="46.260120" lon="10.586930">
                <time>2017-07-15T12:50:03Z</time>
            </trkpt>
            <trkpt lat="46.260070" lon="10.586760">
                <time>2017-07-15T12:50:04Z</time>
            </trkpt>
            <trkpt lat="46.260030" lon="10.586620">
                <time>2017-07-15T12:50:05Z</time>
            </trkpt>
            <trkpt lat="46.259990" lon="10.586470">
                <time>2017-07-15T12:50:06Z</time>
            </trkpt>
            <trkpt lat="46.259940" lon="10.586300">
                <time>2017-07-15T12:50:07Z</time>
            </trkpt>
            <trkpt lat="46.259890" lon="10.586150">
                <time>2017-07-15T12:50:08Z</time>
            </trkpt>
            <trkpt lat="46.259840" lon="10.585990">
                <time>2017-07-15T12:50:09Z</time>
            </trkpt>
            <trkpt lat="46.259800" lon="10.585830">
                <time>2017-07-15T12:50:10Z</time>
            </trkpt>
            <trkpt lat="46.259750" lon="10.585670">
                <time>2017-07-15T12:50:11Z</time>
            </trkpt>
            <trkpt lat="46.259690" lon="10.585500">
                <time>2017-07-15T12:50:12Z</time>
            </trkpt>
            <trkpt lat="46.259640" lon="10.585350">
                <time>2017-07-15T12:50:13Z</time>
            </trkpt>
            <trkpt lat="46.259570" lon="10.585190">
                <time>2017-07-15T12:50:14Z</time>
            </trkpt>
            <trkpt lat="46.259500" lon="10.585020">
                <time>2017-07-15T12:50:15Z</time>
            </trkpt>
            <trkpt lat="46.259430" lon="10.584870">
                <time>2017-07-15T12:50:16Z</time>
            </trkpt>
            <trkpt lat="46.259350" lon="10.584700">
                <time>2017-07-15T12:50:17Z</time>
            </trkpt>
            <trkpt lat="46.259270" lon="10.584530">
                <time>2017-07-15T12:50:18Z</time>
            </trkpt>
            <trkpt lat="46.259190" lon="10.584370">
                <time>2017-07-15T12:50:19Z</time>
            </trkpt>
            <trkpt lat="46.259110" lon="10.584190">
                <time>2017-07-15T12:50:20Z</time>
            </trkpt>
            <trkpt lat="46.259030" lon="10.584040">
                <time>2017-07-15T12:50:21Z</time>
            </trkpt>
            <trkpt lat="46.258950" lon="10.583890">
                <time>2017-07-15T12:50:22Z</time>
            </trkpt>
            <trkpt lat="46.258870" lon="10.583730">
                <time>2017-07-15T12:50:23Z</time>
            </trkpt>
            <trkpt lat="46.258800" lon="10.583590">
                <time>2017-07-15T12:50:24Z</time>
            </trkpt>
            <trkpt lat="46.258730" lon="10.583450">
                <time>2017-07-15T12:50:25Z</time>
            </trkpt>
            <trkpt lat="46.258660" lon="10.583310">
                <time>2017-07-15T12:50:26Z</time>
            </trkpt>
            <trkpt lat="46.258590" lon="10.583170">
                <time>2017-07-15T12:50:27Z</time>
            </trkpt>
            <trkpt lat="46.258510" lon="10.583030">
                <time>2017-07-15T12:50:28Z</time>
            </trkpt>
            <trkpt lat="46.258450" lon="10.582900">
                <time>2017-07-15T12:50:29Z</time>
            </trkpt>
            <trkpt lat="46.258370" lon="10.582760">
                <time>2017-07-15T12:50:30Z</time>
            </trkpt>
            <trkpt lat="46.258310" lon="10.582630">
                <time>2017-07-15T12:50:31Z</time>
            </trkpt>
            <trkpt lat="46.258250" lon="10.582520">
                <time>2017-07-15T12:50:32Z</time>
            </trkpt>
            <trkpt lat="46.258200" lon="10.582410">
                <time>2017-07-15T12:50:33Z</time>
            </trkpt>
            <trkpt lat="46.258160" lon="10.582290">
                <time>2017-07-15T12:50:34Z</time>
            </trkpt>
            <trkpt lat="46.258110" lon="10.582200">
                <time>2017-07-15T12:50:35Z</time>
            </trkpt>
            <trkpt lat="46.258080" lon="10.582090">
                <time>2017-07-15T12:50:36Z</time>
            </trkpt>
            <trkpt lat="46.258050" lon="10.582000">
                <time>2017-07-15T12:50:37Z</time>
            </trkpt>
            <trkpt lat="46.258030" lon="10.581900">
                <time>2017-07-15T12:50:38Z</time>
            </trkpt>
            <trkpt lat="46.258000" lon="10.581780">
                <time>2017-07-15T12:50:39Z</time>
            </trkpt>
            <trkpt lat="46.257980" lon="10.581670">
                <time>2017-07-15T12:50:40Z</time>
            </trkpt>
            <trkpt lat="46.257970" lon="10.581540">
                <time>2017-07-15T12:50:41Z</time>
            </trkpt>
            <trkpt lat="46.257940" lon="10.581400">
                <time>2017-07-15T12:50:42Z</time>
            </trkpt>
            <trkpt lat="46.257930" lon="10.581240">
                <time>2017-07-15T12:50:43Z</time>
            </trkpt>
            <trkpt lat="46.257910" lon="10.581080">
                <time>2017-07-15T12:50:44Z</time>
            </trkpt>
            <trkpt lat="46.257900" lon="10.580930">
                <time>2017-07-15T12:50:45Z</time>
            </trkpt>
            <trkpt lat="46.257890" lon="10.580760">
                <time>2017-07-15T12:50:46Z</time>
            </trkpt>
            <trkpt lat="46.257870" lon="10.580570">
                <time>2017-07-15T12:50:47Z</time>
            </trkpt>
            <trkpt lat="46.257860" lon="10.580410">
                <time>2017-07-15T12:50:48Z</time>
            </trkpt>
            <trkpt lat="46.257850" lon="10.580230">
                <time>2017-07-15T12:50:49Z</time>
            </trkpt>
            <trkpt lat="46.257830" lon="10.580040">
                <time>2017-07-15T12:50:50Z</time>
            </trkpt>
            <trkpt lat="46.257820" lon="10.579870">
                <time>2017-07-15T12:50:51Z</time>
            </trkpt>
            <trkpt lat="46.257800" lon="10.579680">
                <time>2017-07-15T12:50:52Z</time>
            </trkpt>
            <trkpt lat="46.257790" lon="10.579510">
                <time>2017-07-15T12:50:53Z</time>
            </trkpt>
            <trkpt lat="46.257770" lon="10.579330">
                <time>2017-07-15T12:50:54Z</time>
            </trkpt>
            <trkpt lat="46.257760" lon="10.579150">
                <time>2017-07-15T12:50:55Z</time>
            </trkpt>
            <trkpt lat="46.257740" lon="10.578970">
                <time>2017-07-15T12:50:56Z</time>
            </trkpt>
            <trkpt lat="46.257720" lon="10.578780">
                <time>2017-07-15T12:50:57Z</time>
            </trkpt>
            <trkpt lat="46.257700" lon="10.578600">
                <time>2017-07-15T12:50:58Z</time>
            </trkpt>
            <trkpt lat="46.257670" lon="10.578430">
                <time>2017-07-15T12:50:59Z</time>
            </trkpt>
            <trkpt lat="46.257660" lon="10.578250">
                <time>2017-07-15T12:51:00Z</time>
            </trkpt>
            <trkpt lat="46.257650" lon="10.578100">
                <time>2017-07-15T12:51:01Z</time>
            </trkpt>
            <trkpt lat="46.257630" lon="10.577940">
                <time>2017-07-15T12:51:02Z</time>
            </trkpt>
            <trkpt lat="46.257620" lon="10.577770">
                <time>2017-07-15T12:51:03Z</time>
            </trkpt>
            <trkpt lat="46.257610" lon="10.577610">
                <time>2017-07-15T12:51:04Z</time>
            </trkpt>
            <trkpt lat="46.257590" lon="10.577450">
                <time>2017-07-15T12:51:05Z</time>
            </trkpt>
            <trkpt lat="46.257580" lon="10.577280">
                <time>2017-07-15T12:51:06Z</time>
            </trkpt>
            <trkpt lat="46.257570" lon="10.577130">
                <time>2017-07-15T12:51:07Z</time>
            </trkpt>
            <trkpt lat="46.257550" lon="10.576960">
                <time>2017-07-15T12:51:08Z</time>
            </trkpt>
            <trkpt lat="46.257540" lon="10.576800">
                <time>2017-07-15T12:51:09Z</time>
            </trkpt>
            <trkpt lat="46.257520" lon="10.576630">
                <time>2017-07-15T12:51:10Z</time>
            </trkpt>
            <trkpt lat="46.257500" lon="10.576440">
                <time>2017-07-15T12:51:11Z</time>
            </trkpt>
            <trkpt lat="46.257480" lon="10.576260">
                <time>2017-07-15T12:51:12Z</time>
            </trkpt>
            <trkpt lat="46.257470" lon="10.576070">
                <time>2017-07-15T12:51:13Z</time>
            </trkpt>
            <trkpt lat="46.257440" lon="10.575880">
                <time>2017-07-15T12:51:14Z</time>
            </trkpt>
            <trkpt lat="46.257420" lon="10.575680">
                <time>2017-07-15T12:51:15Z</time>
            </trkpt>
            <trkpt lat="46.257400" lon="10.575470">
                <time>2017-07-15T12:51:16Z</time>
            </trkpt>
            <trkpt lat="46.257380" lon="10.575290">
                <time>2017-07-15T12:51:17Z</time>
            </trkpt>
            <trkpt lat="46.257370" lon="10.575090">
                <time>2017-07-15T12:51:18Z</time>
            </trkpt>
            <trkpt lat="46.257350" lon="10.574880">
                <time>2017-07-15T12:51:19Z</time>
            </trkpt>
            <trkpt lat="46.257340" lon="10.574690">
                <time>2017-07-15T12:51:20Z</time>
            </trkpt>
            <trkpt lat="46.257320" lon="10.574490">
                <time>2017-07-15T12:51:21Z</time>
            </trkpt>
            <trkpt lat="46.257300" lon="10.574290">
                <time>2017-07-15T12:51:22Z</time>
            </trkpt>
            <trkpt lat="46.257280" lon="10.574120">
                <time>2017-07-15T12:51:23Z</time>
            </trkpt>
            <trkpt lat="46.257270" lon="10.573920">
                <time>2017-07-15T12:51:24Z</time>
            </trkpt>
            <trkpt lat="46.257250" lon="10.573750">
                <time>2017-07-15T12:51:25Z</time>
            </trkpt>
            <trkpt lat="46.257230" lon="10.573570">
                <time>2017-07-15T12:51:26Z</time>
            </trkpt>
            <trkpt lat="46.257210" lon="10.573380">
                <time>2017-07-15T12:51:27Z</time>
            </trkpt>
            <trkpt lat="46.257200" lon="10.573210">
                <time>2017-07-15T12:51:28Z</time>
            </trkpt>
            <trkpt lat="46.257180" lon="10.573040">
                <time>2017-07-15T12:51:29Z</time>
            </trkpt>
            <trkpt lat="46.257180" lon="10.572890">
                <time>2017-07-15T12:51:30Z</time>
            </trkpt>
            <trkpt lat="46.257170" lon="10.572730">
                <time>2017-07-15T12:51:31Z</time>
            </trkpt>
            <trkpt lat="46.257160" lon="10.572590">
                <time>2017-07-15T12:51:32Z</time>
            </trkpt>
            <trkpt lat="46.257150" lon="10.572470">
                <time>2017-07-15T12:51:33Z</time>
            </trkpt>
            <trkpt lat="46.257140" lon="10.572370">
                <time>2017-07-15T12:51:34Z</time>
            </trkpt>
            <trkpt lat="46.257140" lon="10.572270">
                <time>2017-07-15T12:51:35Z</time>
            </trkpt>
            <trkpt lat="46.257150" lon="10.572210">
                <time>2017-07-15T12:51:36Z</time>
            </trkpt>
            <trkpt lat="46.257160" lon="10.572170">
                <time>2017-07-15T12:51:37Z</time>
            </trkpt>
            <trkpt lat="46.257170" lon="10.572140">
                <time>2017-07-15T12:51:38Z</time>
            </trkpt>
            <trkpt lat="46.257170" lon="10.572120">
                <time>2017-07-15T12:51:39Z</time>
            </trkpt>
            <trkpt lat="46.257180" lon="10.572100">
                <time>2017-07-15T12:51:40Z</time>
            </trkpt>
            <trkpt lat="46.257170" lon="10.572110">
                <time>2017-07-15T12:51:41Z</time>
            </trkpt>
            <trkpt lat="46.257170" lon="10.572120">
                <time>2017-07-15T12:51:42Z</time>
            </trkpt>
            <trkpt lat="46.257170" lon="10.572120">
                <time>2017-07-15T12:51:43Z</time>
            </trkpt>
            <trkpt lat="46.257170" lon="10.572120">
                <time>2017-07-15T12:51:44Z</time>
            </trkpt>
            <trkpt lat="46.257170" lon="10.572120">
                <time>2017-07-15T12:51:45Z</time>
            </trkpt>
            <trkpt lat="46.257170" lon="10.572120">
                <time>2017-07-15T12:51:46Z</time>
            </trkpt>
            <trkpt lat="46.257170" lon="10.572120">
                <time>2017-07-15T12:51:47Z</time>
            </trkpt>
            <trkpt lat="46.257170" lon="10.572110">
                <time>2017-07-15T12:51:48Z</time>
            </trkpt>
            <trkpt lat="46.257170" lon="10.572110">
                <time>2017-07-15T12:51:49Z</time>
            </trkpt>
            <trkpt lat="46.257170" lon="10.572110">
                <time>2017-07-15T12:51:50Z</time>
            </trkpt>
            <trkpt lat="46.257170" lon="10.572110">
                <time>2017-07-15T12:51:51Z</time>
            </trkpt>
            <trkpt lat="46.257170" lon="10.572110">
                <time>2017-07-15T12:51:52Z</time>
            </trkpt>
            <trkpt lat="46.257180" lon="10.572110">
                <time>2017-07-15T12:51:53Z</time>
            </trkpt>
            <trkpt lat="46.257190" lon="10.572110">
                <time>2017-07-15T12:51:54Z</time>
            </trkpt>
            <trkpt lat="46.257190" lon="10.572100">
                <time>2017-07-15T12:51:55Z</time>
            </trkpt>
            <trkpt lat="46.257190" lon="10.572100">
                <time>2017-07-15T12:51:56Z</time>
            </trkpt>
            <trkpt lat="46.257190" lon="10.572100">
                <time>2017-07-15T12:51:57Z</time>
            </trkpt>
            <trkpt lat="46.257190" lon="10.572100">
                <time>2017-07-15T12:51:58Z</time>
            </trkpt>
            <trkpt lat="46.257190" lon="10.572100">
                <time>2017-07-15T12:51:59Z</time>
            </trkpt>
            <trkpt lat="46.257190" lon="10.572100">
                <time>2017-07-15T12:52:00Z</time>
            </trkpt>
            <trkpt lat="46.257190" lon="10.572100">
                <time>2017-07-15T12:52:01Z</time>
            </trkpt>
            <trkpt lat="46.257190" lon="10.572100">
                <time>2017-07-15T12:52:02Z</time>
            </trkpt>
            <trkpt lat="46.257190" lon="10.572100">
                <time>2017-07-15T12:52:03Z</time>
            </trkpt>
            <trkpt lat="46.257190" lon="10.572100">
                <time>2017-07-15T12:52:04Z</time>
            </trkpt>
            <trkpt lat="46.257190" lon="10.572100">
                <time>2017-07-15T12:52:05Z</time>
            </trkpt>
            <trkpt lat="46.257190" lon="10.572100">
                <time>2017-07-15T12:52:06Z</time>
            </trkpt>
            <trkpt lat="46.257190" lon="10.572100">
                <time>2017-07-15T12:52:07Z</time>
            </trkpt>
            <trkpt lat="46.257190" lon="10.572100">
                <time>2017-07-15T12:52:08Z</time>
            </trkpt>
            <trkpt lat="46.257190" lon="10.572100">
                <time>2017-07-15T12:52:09Z</time>
            </trkpt>
            <trkpt lat="46.257190" lon="10.572100">
                <time>2017-07-15T12:52:10Z</time>
            </trkpt>
            <trkpt lat="46.257190" lon="10.572100">
                <time>2017-07-15T12:52:11Z</time>
            </trkpt>
            <trkpt lat="46.257190" lon="10.572100">
                <time>2017-07-15T12:52:12Z</time>
            </trkpt>
            <trkpt lat="46.257190" lon="10.572100">
                <time>2017-07-15T12:52:13Z</time>
            </trkpt>
            <trkpt lat="46.257190" lon="10.572100">
                <time>2017-07-15T12:52:14Z</time>
            </trkpt>
            <trkpt lat="46.257190" lon="10.572100">
                <time>2017-07-15T12:52:15Z</time>
            </trkpt>
            <trkpt lat="46.257190" lon="10.572090">
                <time>2017-07-15T12:52:16Z</time>
            </trkpt>
            <trkpt lat="46.257180" lon="10.572090">
                <time>2017-07-15T12:52:17Z</time>
            </trkpt>
            <trkpt lat="46.257180" lon="10.572080">
                <time>2017-07-15T12:52:18Z</time>
            </trkpt>
            <trkpt lat="46.257180" lon="10.572070">
                <time>2017-07-15T12:52:19Z</time>
            </trkpt>
            <trkpt lat="46.257170" lon="10.572070">
                <time>2017-07-15T12:52:20Z</time>
            </trkpt>
            <trkpt lat="46.257170" lon="10.572070">
                <time>2017-07-15T12:52:21Z</time>
            </trkpt>
            <trkpt lat="46.257170" lon="10.572070">
                <time>2017-07-15T12:52:22Z</time>
            </trkpt>
            <trkpt lat="46.257170" lon="10.572070">
                <time>2017-07-15T12:52:23Z</time>
            </trkpt>
            <trkpt lat="46.257170" lon="10.572070">
                <time>2017-07-15T12:52:24Z</time>
            </trkpt>
            <trkpt lat="46.257170" lon="10.572070">
                <time>2017-07-15T12:52:25Z</time>
            </trkpt>
            <trkpt lat="46.257170" lon="10.572070">
                <time>2017-07-15T12:52:26Z</time>
            </trkpt>
            <trkpt lat="46.257170" lon="10.572070">
                <time>2017-07-15T12:52:27Z</time>
            </trkpt>
            <trkpt lat="46.257170" lon="10.572070">
                <time>2017-07-15T12:52:28Z</time>
            </trkpt>
            <trkpt lat="46.257170" lon="10.572070">
                <time>2017-07-15T12:52:29Z</time>
            </trkpt>
            <trkpt lat="46.257170" lon="10.572070">
                <time>2017-07-15T12:52:30Z</time>
            </trkpt>
            <trkpt lat="46.257170" lon="10.572070">
                <time>2017-07-15T12:52:31Z</time>
            </trkpt>
            <trkpt lat="46.257170" lon="10.572070">
                <time>2017-07-15T12:52:32Z</time>
            </trkpt>
            <trkpt lat="46.257170" lon="10.572070">
                <time>2017-07-15T12:52:33Z</time>
            </trkpt>
            <trkpt lat="46.257170" lon="10.572060">
                <time>2017-07-15T12:52:34Z</time>
            </trkpt>
            <trkpt lat="46.257160" lon="10.572050">
                <time>2017-07-15T12:52:35Z</time>
            </trkpt>
            <trkpt lat="46.257140" lon="10.572050">
                <time>2017-07-15T12:52:36Z</time>
            </trkpt>
            <trkpt lat="46.257130" lon="10.572050">
                <time>2017-07-15T12:52:37Z</time>
            </trkpt>
            <trkpt lat="46.257120" lon="10.572050">
                <time>2017-07-15T12:52:38Z</time>
            </trkpt>
            <trkpt lat="46.257110" lon="10.572060">
                <time>2017-07-15T12:52:39Z</time>
            </trkpt>
            <trkpt lat="46.257100" lon="10.572060">
                <time>2017-07-15T12:52:40Z</time>
            </trkpt>
            <trkpt lat="46.257090" lon="10.572050">
                <time>2017-07-15T12:52:41Z</time>
            </trkpt>
            <trkpt lat="46.257080" lon="10.572050">
                <time>2017-07-15T12:52:42Z</time>
            </trkpt>
            <trkpt lat="46.257070" lon="10.572040">
                <time>2017-07-15T12:52:43Z</time>
            </trkpt>
            <trkpt lat="46.257070" lon="10.572020">
                <time>2017-07-15T12:52:44Z</time>
            </trkpt>
            <trkpt lat="46.257060" lon="10.572010">
                <time>2017-07-15T12:52:45Z</time>
            </trkpt>
            <trkpt lat="46.257060" lon="10.571990">
                <time>2017-07-15T12:52:46Z</time>
            </trkpt>
            <trkpt lat="46.257060" lon="10.571950">
                <time>2017-07-15T12:52:47Z</time>
            </trkpt>
            <trkpt lat="46.257070" lon="10.571910">
                <time>2017-07-15T12:52:48Z</time>
            </trkpt>
            <trkpt lat="46.257070" lon="10.571870">
                <time>2017-07-15T12:52:49Z</time>
            </trkpt>
            <trkpt lat="46.257080" lon="10.571830">
                <time>2017-07-15T12:52:50Z</time>
            </trkpt>
            <trkpt lat="46.257080" lon="10.571790">
                <time>2017-07-15T12:52:51Z</time>
            </trkpt>
            <trkpt lat="46.257090" lon="10.571740">
                <time>2017-07-15T12:52:52Z</time>
            </trkpt>
            <trkpt lat="46.257090" lon="10.571710">
                <time>2017-07-15T12:52:53Z</time>
            </trkpt>
            <trkpt lat="46.257080" lon="10.571670">
                <time>2017-07-15T12:52:54Z</time>
            </trkpt>
            <trkpt lat="46.257080" lon="10.571640">
                <time>2017-07-15T12:52:55Z</time>
            </trkpt>
            <trkpt lat="46.257070" lon="10.571620">
                <time>2017-07-15T12:52:56Z</time>
            </trkpt>
            <trkpt lat="46.257060" lon="10.571600">
                <time>2017-07-15T12:52:57Z</time>
            </trkpt>
            <trkpt lat="46.257050" lon="10.571590">
                <time>2017-07-15T12:52:58Z</time>
            </trkpt>
            <trkpt lat="46.257040" lon="10.571580">
                <time>2017-07-15T12:52:59Z</time>
            </trkpt>
            <trkpt lat="46.257030" lon="10.571580">
                <time>2017-07-15T12:53:00Z</time>
            </trkpt>
            <trkpt lat="46.257020" lon="10.571580">
                <time>2017-07-15T12:53:01Z</time>
            </trkpt>
            <trkpt lat="46.257000" lon="10.571580">
                <time>2017-07-15T12:53:02Z</time>
            </trkpt>
            <trkpt lat="46.257000" lon="10.571580">
                <time>2017-07-15T12:53:03Z</time>
            </trkpt>
            <trkpt lat="46.257000" lon="10.571580">
                <time>2017-07-15T12:53:04Z</time>
            </trkpt>
            <trkpt lat="46.257000" lon="10.571580">
                <time>2017-07-15T12:53:05Z</time>
            </trkpt>
            <trkpt lat="46.257000" lon="10.571580">
                <time>2017-07-15T12:53:06Z</time>
            </trkpt>
            <trkpt lat="46.256990" lon="10.571580">
                <time>2017-07-15T12:53:07Z</time>
            </trkpt>
            <trkpt lat="46.256990" lon="10.571580">
                <time>2017-07-15T12:53:08Z</time>
            </trkpt>
            <trkpt lat="46.256990" lon="10.571580">
                <time>2017-07-15T12:53:09Z</time>
            </trkpt>
            <trkpt lat="46.256990" lon="10.571580">
                <time>2017-07-15T12:53:10Z</time>
            </trkpt>
            <trkpt lat="46.256990" lon="10.571580">
                <time>2017-07-15T12:53:11Z</time>
            </trkpt>
            <trkpt lat="46.256990" lon="10.571580">
                <time>2017-07-15T12:53:12Z</time>
            </trkpt>
            <trkpt lat="46.256990" lon="10.571580">
                <time>2017-07-15T12:53:13Z</time>
            </trkpt>
            <trkpt lat="46.256990" lon="10.571580">
                <time>2017-07-15T12:53:14Z</time>
            </trkpt>
            <trkpt lat="46.256990" lon="10.571580">
                <time>2017-07-15T12:53:15Z</time>
            </trkpt>
            <trkpt lat="46.256990" lon="10.571580">
                <time>2017-07-15T12:53:16Z</time>
            </trkpt>
            <trkpt lat="46.256990" lon="10.571580">
                <time>2017-07-15T12:53:17Z</time>
            </trkpt>
            <trkpt lat="46.256990" lon="10.571580">
                <time>2017-07-15T12:53:18Z</time>
            </trkpt>
            <trkpt lat="46.256990" lon="10.571580">
                <time>2017-07-15T12:53:19Z</time>
            </trkpt>
            <trkpt lat="46.256990" lon="10.571580">
                <time>2017-07-15T12:53:20Z</time>
            </trkpt>
            <trkpt lat="46.256990" lon="10.571580">
                <time>2017-07-15T12:53:21Z</time>
            </trkpt>
            <trkpt lat="46.256990" lon="10.571580">
                <time>2017-07-15T12:53:22Z</time>
            </trkpt>
            <trkpt lat="46.256990" lon="10.571580">
                <time>2017-07-15T12:53:23Z</time>
            </trkpt>
            <trkpt lat="46.256990" lon="10.571580">
                <time>2017-07-15T12:53:24Z</time>
            </trkpt>
            <trkpt lat="46.256990" lon="10.571580">
                <time>2017-07-15T12:53:25Z</time>
            </trkpt>
            <trkpt lat="46.256990" lon="10.571580">
                <time>2017-07-15T12:53:26Z</time>
            </trkpt>
            <trkpt lat="46.256990" lon="10.571580">
                <time>2017-07-15T12:53:27Z</time>
            </trkpt>
            <trkpt lat="46.256990" lon="10.571580">
                <time>2017-07-15T12:53:28Z</time>
            </trkpt>
            <trkpt lat="46.256990" lon="10.571580">
                <time>2017-07-15T12:53:29Z</time>
            </trkpt>
            <trkpt lat="46.256990" lon="10.571580">
                <time>2017-07-15T12:53:30Z</time>
            </trkpt>
            <trkpt lat="46.256990" lon="10.571580">
                <time>2017-07-15T12:53:31Z</time>
            </trkpt>
            <trkpt lat="46.256990" lon="10.571580">
                <time>2017-07-15T12:53:32Z</time>
            </trkpt>
            <trkpt lat="46.256990" lon="10.571580">
                <time>2017-07-15T12:53:33Z</time>
            </trkpt>
            <trkpt lat="46.256990" lon="10.571580">
                <time>2017-07-15T12:53:34Z</time>
            </trkpt>
            <trkpt lat="46.256990" lon="10.571580">
                <time>2017-07-15T12:53:35Z</time>
            </trkpt>
            <trkpt lat="46.256990" lon="10.571580">
                <time>2017-07-15T12:53:36Z</time>
            </trkpt>
            <trkpt lat="46.256990" lon="10.571580">
                <time>2017-07-15T12:53:37Z</time>
            </trkpt>
            <trkpt lat="46.256990" lon="10.571580">
                <time>2017-07-15T12:53:38Z</time>
            </trkpt>
            <trkpt lat="46.257240" lon="10.571770">
                <time>2017-07-15T13:04:41Z</time>
            </trkpt>
            <trkpt lat="46.257260" lon="10.571820">
                <time>2017-07-15T13:04:42Z</time>
            </trkpt>
            <trkpt lat="46.257160" lon="10.571700">
                <time>2017-07-15T13:04:43Z</time>
            </trkpt>
            <trkpt lat="46.257460" lon="10.571610">
                <time>2017-07-15T13:04:44Z</time>
            </trkpt>
            <trkpt lat="46.257460" lon="10.571620">
                <time>2017-07-15T13:04:45Z</time>
            </trkpt>
            <trkpt lat="46.257460" lon="10.571620">
                <time>2017-07-15T13:04:46Z</time>
            </trkpt>
            <trkpt lat="46.257450" lon="10.571620">
                <time>2017-07-15T13:04:47Z</time>
            </trkpt>
            <trkpt lat="46.257450" lon="10.571620">
                <time>2017-07-15T13:04:48Z</time>
            </trkpt>
            <trkpt lat="46.257450" lon="10.571620">
                <time>2017-07-15T13:04:49Z</time>
            </trkpt>
            <trkpt lat="46.257450" lon="10.571620">
                <time>2017-07-15T13:04:50Z</time>
            </trkpt>
            <trkpt lat="46.257450" lon="10.571620">
                <time>2017-07-15T13:04:51Z</time>
            </trkpt>
            <trkpt lat="46.257450" lon="10.571620">
                <time>2017-07-15T13:04:52Z</time>
            </trkpt>
            <trkpt lat="46.257450" lon="10.571620">
                <time>2017-07-15T13:04:53Z</time>
            </trkpt>
            <trkpt lat="46.257450" lon="10.571620">
                <time>2017-07-15T13:04:54Z</time>
            </trkpt>
            <trkpt lat="46.257450" lon="10.571620">
                <time>2017-07-15T13:04:55Z</time>
            </trkpt>
            <trkpt lat="46.257450" lon="10.571620">
                <time>2017-07-15T13:04:56Z</time>
            </trkpt>
            <trkpt lat="46.257450" lon="10.571620">
                <time>2017-07-15T13:04:57Z</time>
            </trkpt>
            <trkpt lat="46.257450" lon="10.571620">
                <time>2017-07-15T13:04:58Z</time>
            </trkpt>
            <trkpt lat="46.257450" lon="10.571620">
                <time>2017-07-15T13:04:59Z</time>
            </trkpt>
            <trkpt lat="46.257450" lon="10.571620">
                <time>2017-07-15T13:05:00Z</time>
            </trkpt>
            <trkpt lat="46.257450" lon="10.571620">
                <time>2017-07-15T13:05:01Z</time>
            </trkpt>
            <trkpt lat="46.257450" lon="10.571620">
                <time>2017-07-15T13:05:02Z</time>
            </trkpt>
            <trkpt lat="46.257450" lon="10.571620">
                <time>2017-07-15T13:05:03Z</time>
            </trkpt>
            <trkpt lat="46.257450" lon="10.571620">
                <time>2017-07-15T13:05:04Z</time>
            </trkpt>
            <trkpt lat="46.257450" lon="10.571620">
                <time>2017-07-15T13:05:05Z</time>
            </trkpt>
            <trkpt lat="46.257450" lon="10.571620">
                <time>2017-07-15T13:05:06Z</time>
            </trkpt>
            <trkpt lat="46.257380" lon="10.571640">
                <time>2017-07-15T13:05:07Z</time>
            </trkpt>
            <trkpt lat="46.257380" lon="10.571640">
                <time>2017-07-15T13:05:08Z</time>
            </trkpt>
            <trkpt lat="46.257380" lon="10.571640">
                <time>2017-07-15T13:05:09Z</time>
            </trkpt>
            <trkpt lat="46.257380" lon="10.571640">
                <time>2017-07-15T13:05:10Z</time>
            </trkpt>
            <trkpt lat="46.257380" lon="10.571640">
                <time>2017-07-15T13:05:11Z</time>
            </trkpt>
            <trkpt lat="46.257380" lon="10.571640">
                <time>2017-07-15T13:05:12Z</time>
            </trkpt>
            <trkpt lat="46.257380" lon="10.571640">
                <time>2017-07-15T13:05:13Z</time>
            </trkpt>
            <trkpt lat="46.257380" lon="10.571640">
                <time>2017-07-15T13:05:14Z</time>
            </trkpt>
            <trkpt lat="46.257380" lon="10.571640">
                <time>2017-07-15T13:05:15Z</time>
            </trkpt>
            <trkpt lat="46.257380" lon="10.571640">
                <time>2017-07-15T13:05:16Z</time>
            </trkpt>
            <trkpt lat="46.257380" lon="10.571640">
                <time>2017-07-15T13:05:17Z</time>
            </trkpt>
            <trkpt lat="46.257380" lon="10.571640">
                <time>2017-07-15T13:05:18Z</time>
            </trkpt>
            <trkpt lat="46.257380" lon="10.571640">
                <time>2017-07-15T13:05:19Z</time>
            </trkpt>
            <trkpt lat="46.257380" lon="10.571640">
                <time>2017-07-15T13:05:20Z</time>
            </trkpt>
            <trkpt lat="46.257380" lon="10.571640">
                <time>2017-07-15T13:05:21Z</time>
            </trkpt>
            <trkpt lat="46.257380" lon="10.571640">
                <time>2017-07-15T13:05:22Z</time>
            </trkpt>
            <trkpt lat="46.257380" lon="10.571640">
                <time>2017-07-15T13:05:23Z</time>
            </trkpt>
            <trkpt lat="46.257380" lon="10.571640">
                <time>2017-07-15T13:05:24Z</time>
            </trkpt>
            <trkpt lat="46.257320" lon="10.571650">
                <time>2017-07-15T13:05:25Z</time>
            </trkpt>
            <trkpt lat="46.257320" lon="10.571650">
                <time>2017-07-15T13:05:26Z</time>
            </trkpt>
            <trkpt lat="46.257320" lon="10.571650">
                <time>2017-07-15T13:05:27Z</time>
            </trkpt>
            <trkpt lat="46.257320" lon="10.571650">
                <time>2017-07-15T13:05:28Z</time>
            </trkpt>
            <trkpt lat="46.257320" lon="10.571650">
                <time>2017-07-15T13:05:29Z</time>
            </trkpt>
            <trkpt lat="46.257080" lon="10.571590">
                <time>2017-07-15T13:05:30Z</time>
            </trkpt>
            <trkpt lat="46.257080" lon="10.571590">
                <time>2017-07-15T13:05:31Z</time>
            </trkpt>
            <trkpt lat="46.257080" lon="10.571590">
                <time>2017-07-15T13:05:32Z</time>
            </trkpt>
            <trkpt lat="46.257080" lon="10.571590">
                <time>2017-07-15T13:05:33Z</time>
            </trkpt>
            <trkpt lat="46.257080" lon="10.571590">
                <time>2017-07-15T13:05:34Z</time>
            </trkpt>
            <trkpt lat="46.257080" lon="10.571590">
                <time>2017-07-15T13:05:35Z</time>
            </trkpt>
            <trkpt lat="46.257080" lon="10.571590">
                <time>2017-07-15T13:05:36Z</time>
            </trkpt>
            <trkpt lat="46.257080" lon="10.571590">
                <time>2017-07-15T13:05:37Z</time>
            </trkpt>
            <trkpt lat="46.257070" lon="10.571590">
                <time>2017-07-15T13:05:38Z</time>
            </trkpt>
            <trkpt lat="46.257060" lon="10.571580">
                <time>2017-07-15T13:05:39Z</time>
            </trkpt>
            <trkpt lat="46.257060" lon="10.571580">
                <time>2017-07-15T13:05:40Z</time>
            </trkpt>
            <trkpt lat="46.257060" lon="10.571580">
                <time>2017-07-15T13:05:41Z</time>
            </trkpt>
            <trkpt lat="46.257070" lon="10.571580">
                <time>2017-07-15T13:05:42Z</time>
            </trkpt>
            <trkpt lat="46.257070" lon="10.571580">
                <time>2017-07-15T13:05:43Z</time>
            </trkpt>
            <trkpt lat="46.257070" lon="10.571580">
                <time>2017-07-15T13:05:44Z</time>
            </trkpt>
            <trkpt lat="46.257070" lon="10.571580">
                <time>2017-07-15T13:05:45Z</time>
            </trkpt>
            <trkpt lat="46.257080" lon="10.571570">
                <time>2017-07-15T13:05:46Z</time>
            </trkpt>
            <trkpt lat="46.257080" lon="10.571570">
                <time>2017-07-15T13:05:47Z</time>
            </trkpt>
            <trkpt lat="46.257080" lon="10.571570">
                <time>2017-07-15T13:05:48Z</time>
            </trkpt>
            <trkpt lat="46.257080" lon="10.571570">
                <time>2017-07-15T13:05:49Z</time>
            </trkpt>
            <trkpt lat="46.257080" lon="10.571570">
                <time>2017-07-15T13:05:50Z</time>
            </trkpt>
            <trkpt lat="46.257080" lon="10.571570">
                <time>2017-07-15T13:05:51Z</time>
            </trkpt>
            <trkpt lat="46.257080" lon="10.571570">
                <time>2017-07-15T13:05:52Z</time>
            </trkpt>
            <trkpt lat="46.257080" lon="10.571580">
                <time>2017-07-15T13:05:53Z</time>
            </trkpt>
            <trkpt lat="46.257080" lon="10.571600">
                <time>2017-07-15T13:05:54Z</time>
            </trkpt>
            <trkpt lat="46.257080" lon="10.571630">
                <time>2017-07-15T13:05:55Z</time>
            </trkpt>
            <trkpt lat="46.257080" lon="10.571680">
                <time>2017-07-15T13:05:56Z</time>
            </trkpt>
            <trkpt lat="46.257080" lon="10.571720">
                <time>2017-07-15T13:05:57Z</time>
            </trkpt>
            <trkpt lat="46.257080" lon="10.571770">
                <time>2017-07-15T13:05:58Z</time>
            </trkpt>
            <trkpt lat="46.257080" lon="10.571820">
                <time>2017-07-15T13:05:59Z</time>
            </trkpt>
            <trkpt lat="46.257080" lon="10.571860">
                <time>2017-07-15T13:06:00Z</time>
            </trkpt>
            <trkpt lat="46.257090" lon="10.571910">
                <time>2017-07-15T13:06:01Z</time>
            </trkpt>
            <trkpt lat="46.257090" lon="10.571960">
                <time>2017-07-15T13:06:02Z</time>
            </trkpt>
            <trkpt lat="46.257090" lon="10.572010">
                <time>2017-07-15T13:06:03Z</time>
            </trkpt>
            <trkpt lat="46.257090" lon="10.572060">
                <time>2017-07-15T13:06:04Z</time>
            </trkpt>
            <trkpt lat="46.257080" lon="10.572100">
                <time>2017-07-15T13:06:05Z</time>
            </trkpt>
            <trkpt lat="46.257080" lon="10.572140">
                <time>2017-07-15T13:06:06Z</time>
            </trkpt>
            <trkpt lat="46.257090" lon="10.572170">
                <time>2017-07-15T13:06:07Z</time>
            </trkpt>
            <trkpt lat="46.257100" lon="10.572170">
                <time>2017-07-15T13:06:08Z</time>
            </trkpt>
            <trkpt lat="46.257110" lon="10.572180">
                <time>2017-07-15T13:06:09Z</time>
            </trkpt>
            <trkpt lat="46.257110" lon="10.572170">
                <time>2017-07-15T13:06:10Z</time>
            </trkpt>
            <trkpt lat="46.257110" lon="10.572160">
                <time>2017-07-15T13:06:11Z</time>
            </trkpt>
            <trkpt lat="46.257110" lon="10.572160">
                <time>2017-07-15T13:06:12Z</time>
            </trkpt>
            <trkpt lat="46.257110" lon="10.572160">
                <time>2017-07-15T13:06:13Z</time>
            </trkpt>
            <trkpt lat="46.257110" lon="10.572160">
                <time>2017-07-15T13:06:14Z</time>
            </trkpt>
            <trkpt lat="46.257110" lon="10.572160">
                <time>2017-07-15T13:06:15Z</time>
            </trkpt>
            <trkpt lat="46.257110" lon="10.572160">
                <time>2017-07-15T13:06:16Z</time>
            </trkpt>
            <trkpt lat="46.257110" lon="10.572160">
                <time>2017-07-15T13:06:17Z</time>
            </trkpt>
            <trkpt lat="46.257110" lon="10.572160">
                <time>2017-07-15T13:06:18Z</time>
            </trkpt>
            <trkpt lat="46.257110" lon="10.572160">
                <time>2017-07-15T13:06:19Z</time>
            </trkpt>
            <trkpt lat="46.257110" lon="10.572160">
                <time>2017-07-15T13:06:20Z</time>
            </trkpt>
            <trkpt lat="46.257110" lon="10.572160">
                <time>2017-07-15T13:06:21Z</time>
            </trkpt>
            <trkpt lat="46.257110" lon="10.572160">
                <time>2017-07-15T13:06:22Z</time>
            </trkpt>
            <trkpt lat="46.257110" lon="10.572160">
                <time>2017-07-15T13:06:23Z</time>
            </trkpt>
            <trkpt lat="46.257110" lon="10.572160">
                <time>2017-07-15T13:06:24Z</time>
            </trkpt>
            <trkpt lat="46.257110" lon="10.572160">
                <time>2017-07-15T13:06:25Z</time>
            </trkpt>
            <trkpt lat="46.257110" lon="10.572160">
                <time>2017-07-15T13:06:26Z</time>
            </trkpt>
            <trkpt lat="46.257110" lon="10.572160">
                <time>2017-07-15T13:06:27Z</time>
            </trkpt>
            <trkpt lat="46.257110" lon="10.572160">
                <time>2017-07-15T13:06:28Z</time>
            </trkpt>
            <trkpt lat="46.257110" lon="10.572160">
                <time>2017-07-15T13:06:29Z</time>
            </trkpt>
            <trkpt lat="46.257110" lon="10.572160">
                <time>2017-07-15T13:06:30Z</time>
            </trkpt>
            <trkpt lat="46.257110" lon="10.572160">
                <time>2017-07-15T13:06:31Z</time>
            </trkpt>
            <trkpt lat="46.257110" lon="10.572160">
                <time>2017-07-15T13:06:32Z</time>
            </trkpt>
            <trkpt lat="46.257110" lon="10.572160">
                <time>2017-07-15T13:06:33Z</time>
            </trkpt>
            <trkpt lat="46.257110" lon="10.572160">
                <time>2017-07-15T13:06:34Z</time>
            </trkpt>
            <trkpt lat="46.257110" lon="10.572160">
                <time>2017-07-15T13:06:35Z</time>
            </trkpt>
            <trkpt lat="46.257110" lon="10.572160">
                <time>2017-07-15T13:06:36Z</time>
            </trkpt>
            <trkpt lat="46.257110" lon="10.572160">
                <time>2017-07-15T13:06:37Z</time>
            </trkpt>
            <trkpt lat="46.257110" lon="10.572160">
                <time>2017-07-15T13:06:38Z</time>
            </trkpt>
            <trkpt lat="46.257110" lon="10.572160">
                <time>2017-07-15T13:06:39Z</time>
            </trkpt>
            <trkpt lat="46.257110" lon="10.572160">
                <time>2017-07-15T13:06:40Z</time>
            </trkpt>
            <trkpt lat="46.257110" lon="10.572160">
                <time>2017-07-15T13:06:41Z</time>
            </trkpt>
            <trkpt lat="46.257110" lon="10.572160">
                <time>2017-07-15T13:06:42Z</time>
            </trkpt>
            <trkpt lat="46.257110" lon="10.572160">
                <time>2017-07-15T13:06:43Z</time>
            </trkpt>
            <trkpt lat="46.257110" lon="10.572160">
                <time>2017-07-15T13:06:44Z</time>
            </trkpt>
            <trkpt lat="46.257100" lon="10.572160">
                <time>2017-07-15T13:06:45Z</time>
            </trkpt>
            <trkpt lat="46.257100" lon="10.572150">
                <time>2017-07-15T13:06:46Z</time>
            </trkpt>
            <trkpt lat="46.257100" lon="10.572150">
                <time>2017-07-15T13:06:47Z</time>
            </trkpt>
            <trkpt lat="46.257120" lon="10.572150">
                <time>2017-07-15T13:06:48Z</time>
            </trkpt>
            <trkpt lat="46.257140" lon="10.572130">
                <time>2017-07-15T13:06:49Z</time>
            </trkpt>
            <trkpt lat="46.257160" lon="10.572090">
                <time>2017-07-15T13:06:50Z</time>
            </trkpt>
            <trkpt lat="46.257170" lon="10.572050">
                <time>2017-07-15T13:06:51Z</time>
            </trkpt>
            <trkpt lat="46.257180" lon="10.571980">
                <time>2017-07-15T13:06:52Z</time>
            </trkpt>
            <trkpt lat="46.257170" lon="10.571890">
                <time>2017-07-15T13:06:53Z</time>
            </trkpt>
            <trkpt lat="46.257180" lon="10.571800">
                <time>2017-07-15T13:06:54Z</time>
            </trkpt>
            <trkpt lat="46.257190" lon="10.571710">
                <time>2017-07-15T13:06:55Z</time>
            </trkpt>
            <trkpt lat="46.257210" lon="10.571610">
                <time>2017-07-15T13:06:56Z</time>
            </trkpt>
            <trkpt lat="46.257220" lon="10.571500">
                <time>2017-07-15T13:06:57Z</time>
            </trkpt>
            <trkpt lat="46.257220" lon="10.571380">
                <time>2017-07-15T13:06:58Z</time>
            </trkpt>
            <trkpt lat="46.257210" lon="10.571250">
                <time>2017-07-15T13:06:59Z</time>
            </trkpt>
            <trkpt lat="46.257200" lon="10.571110">
                <time>2017-07-15T13:07:00Z</time>
            </trkpt>
            <trkpt lat="46.257190" lon="10.570970">
                <time>2017-07-15T13:07:01Z</time>
            </trkpt>
            <trkpt lat="46.257170" lon="10.570830">
                <time>2017-07-15T13:07:02Z</time>
            </trkpt>
            <trkpt lat="46.257130" lon="10.570690">
                <time>2017-07-15T13:07:03Z</time>
            </trkpt>
            <trkpt lat="46.257100" lon="10.570570">
                <time>2017-07-15T13:07:04Z</time>
            </trkpt>
            <trkpt lat="46.257060" lon="10.570430">
                <time>2017-07-15T13:07:05Z</time>
            </trkpt>
            <trkpt lat="46.257020" lon="10.570290">
                <time>2017-07-15T13:07:06Z</time>
            </trkpt>
            <trkpt lat="46.256990" lon="10.570170">
                <time>2017-07-15T13:07:07Z</time>
            </trkpt>
            <trkpt lat="46.256970" lon="10.570010">
                <time>2017-07-15T13:07:08Z</time>
            </trkpt>
            <trkpt lat="46.256950" lon="10.569870">
                <time>2017-07-15T13:07:09Z</time>
            </trkpt>
            <trkpt lat="46.256940" lon="10.569720">
                <time>2017-07-15T13:07:10Z</time>
            </trkpt>
            <trkpt lat="46.256920" lon="10.569540">
                <time>2017-07-15T13:07:11Z</time>
            </trkpt>
            <trkpt lat="46.256920" lon="10.569370">
                <time>2017-07-15T13:07:12Z</time>
            </trkpt>
            <trkpt lat="46.256890" lon="10.569190">
                <time>2017-07-15T13:07:13Z</time>
            </trkpt>
            <trkpt lat="46.256860" lon="10.569000">
                <time>2017-07-15T13:07:14Z</time>
            </trkpt>
            <trkpt lat="46.256820" lon="10.568810">
                <time>2017-07-15T13:07:15Z</time>
            </trkpt>
            <trkpt lat="46.256770" lon="10.568600">
                <time>2017-07-15T13:07:16Z</time>
            </trkpt>
            <trkpt lat="46.256720" lon="10.568410">
                <time>2017-07-15T13:07:17Z</time>
            </trkpt>
            <trkpt lat="46.256660" lon="10.568200">
                <time>2017-07-15T13:07:18Z</time>
            </trkpt>
            <trkpt lat="46.256590" lon="10.567980">
                <time>2017-07-15T13:07:19Z</time>
            </trkpt>
            <trkpt lat="46.256510" lon="10.567780">
                <time>2017-07-15T13:07:20Z</time>
            </trkpt>
            <trkpt lat="46.256420" lon="10.567580">
                <time>2017-07-15T13:07:21Z</time>
            </trkpt>
            <trkpt lat="46.256310" lon="10.567370">
                <time>2017-07-15T13:07:22Z</time>
            </trkpt>
            <trkpt lat="46.256210" lon="10.567190">
                <time>2017-07-15T13:07:23Z</time>
            </trkpt>
            <trkpt lat="46.256090" lon="10.566990">
                <time>2017-07-15T13:07:24Z</time>
            </trkpt>
            <trkpt lat="46.255970" lon="10.566810">
                <time>2017-07-15T13:07:25Z</time>
            </trkpt>
            <trkpt lat="46.255860" lon="10.566630">
                <time>2017-07-15T13:07:26Z</time>
            </trkpt>
            <trkpt lat="46.255730" lon="10.566440">
                <time>2017-07-15T13:07:27Z</time>
            </trkpt>
            <trkpt lat="46.255620" lon="10.566280">
                <time>2017-07-15T13:07:28Z</time>
            </trkpt>
            <trkpt lat="46.255500" lon="10.566110">
                <time>2017-07-15T13:07:29Z</time>
            </trkpt>
            <trkpt lat="46.255390" lon="10.565950">
                <time>2017-07-15T13:07:30Z</time>
            </trkpt>
            <trkpt lat="46.255290" lon="10.565800">
                <time>2017-07-15T13:07:31Z</time>
            </trkpt>
            <trkpt lat="46.255210" lon="10.565640">
                <time>2017-07-15T13:07:32Z</time>
            </trkpt>
            <trkpt lat="46.255150" lon="10.565490">
                <time>2017-07-15T13:07:33Z</time>
            </trkpt>
            <trkpt lat="46.255120" lon="10.565310">
                <time>2017-07-15T13:07:34Z</time>
            </trkpt>
            <trkpt lat="46.255100" lon="10.565090">
                <time>2017-07-15T13:07:35Z</time>
            </trkpt>
            <trkpt lat="46.255100" lon="10.564870">
                <time>2017-07-15T13:07:36Z</time>
            </trkpt>
            <trkpt lat="46.255120" lon="10.564630">
                <time>2017-07-15T13:07:37Z</time>
            </trkpt>
            <trkpt lat="46.255150" lon="10.564370">
                <time>2017-07-15T13:07:38Z</time>
            </trkpt>
            <trkpt lat="46.255190" lon="10.564150">
                <time>2017-07-15T13:07:39Z</time>
            </trkpt>
            <trkpt lat="46.255260" lon="10.563890">
                <time>2017-07-15T13:07:40Z</time>
            </trkpt>
            <trkpt lat="46.255320" lon="10.563670">
                <time>2017-07-15T13:07:41Z</time>
            </trkpt>
            <trkpt lat="46.255390" lon="10.563450">
                <time>2017-07-15T13:07:42Z</time>
            </trkpt>
            <trkpt lat="46.255480" lon="10.563220">
                <time>2017-07-15T13:07:43Z</time>
            </trkpt>
            <trkpt lat="46.255560" lon="10.563040">
                <time>2017-07-15T13:07:44Z</time>
            </trkpt>
            <trkpt lat="46.255660" lon="10.562850">
                <time>2017-07-15T13:07:45Z</time>
            </trkpt>
            <trkpt lat="46.255750" lon="10.562670">
                <time>2017-07-15T13:07:46Z</time>
            </trkpt>
            <trkpt lat="46.255840" lon="10.562540">
                <time>2017-07-15T13:07:47Z</time>
            </trkpt>
            <trkpt lat="46.255940" lon="10.562440">
                <time>2017-07-15T13:07:48Z</time>
            </trkpt>
            <trkpt lat="46.256050" lon="10.562380">
                <time>2017-07-15T13:07:49Z</time>
            </trkpt>
            <trkpt lat="46.256150" lon="10.562360">
                <time>2017-07-15T13:07:50Z</time>
            </trkpt>
            <trkpt lat="46.256270" lon="10.562370">
                <time>2017-07-15T13:07:51Z</time>
            </trkpt>
            <trkpt lat="46.256360" lon="10.562420">
                <time>2017-07-15T13:07:52Z</time>
            </trkpt>
            <trkpt lat="46.256460" lon="10.562530">
                <time>2017-07-15T13:07:53Z</time>
            </trkpt>
            <trkpt lat="46.256550" lon="10.562680">
                <time>2017-07-15T13:07:54Z</time>
            </trkpt>
            <trkpt lat="46.256630" lon="10.562830">
                <time>2017-07-15T13:07:55Z</time>
            </trkpt>
            <trkpt lat="46.256710" lon="10.563010">
                <time>2017-07-15T13:07:56Z</time>
            </trkpt>
            <trkpt lat="46.256770" lon="10.563150">
                <time>2017-07-15T13:07:57Z</time>
            </trkpt>
            <trkpt lat="46.256840" lon="10.563270">
                <time>2017-07-15T13:07:58Z</time>
            </trkpt>
            <trkpt lat="46.256920" lon="10.563390">
                <time>2017-07-15T13:07:59Z</time>
            </trkpt>
            <trkpt lat="46.257000" lon="10.563450">
                <time>2017-07-15T13:08:00Z</time>
            </trkpt>
            <trkpt lat="46.257110" lon="10.563410">
                <time>2017-07-15T13:08:01Z</time>
            </trkpt>
            <trkpt lat="46.257210" lon="10.563370">
                <time>2017-07-15T13:08:02Z</time>
            </trkpt>
            <trkpt lat="46.257310" lon="10.563280">
                <time>2017-07-15T13:08:03Z</time>
            </trkpt>
            <trkpt lat="46.257390" lon="10.563150">
                <time>2017-07-15T13:08:04Z</time>
            </trkpt>
            <trkpt lat="46.257430" lon="10.563010">
                <time>2017-07-15T13:08:05Z</time>
            </trkpt>
            <trkpt lat="46.257430" lon="10.562860">
                <time>2017-07-15T13:08:06Z</time>
            </trkpt>
            <trkpt lat="46.257400" lon="10.562710">
                <time>2017-07-15T13:08:07Z</time>
            </trkpt>
            <trkpt lat="46.257350" lon="10.562570">
                <time>2017-07-15T13:08:08Z</time>
            </trkpt>
            <trkpt lat="46.257290" lon="10.562430">
                <time>2017-07-15T13:08:09Z</time>
            </trkpt>
            <trkpt lat="46.257230" lon="10.562260">
                <time>2017-07-15T13:08:10Z</time>
            </trkpt>
            <trkpt lat="46.257170" lon="10.562110">
                <time>2017-07-15T13:08:11Z</time>
            </trkpt>
            <trkpt lat="46.257100" lon="10.561920">
                <time>2017-07-15T13:08:12Z</time>
            </trkpt>
            <trkpt lat="46.257050" lon="10.561760">
                <time>2017-07-15T13:08:13Z</time>
            </trkpt>
            <trkpt lat="46.256990" lon="10.561590">
                <time>2017-07-15T13:08:14Z</time>
            </trkpt>
            <trkpt lat="46.256930" lon="10.561400">
                <time>2017-07-15T13:08:15Z</time>
            </trkpt>
            <trkpt lat="46.256870" lon="10.561240">
                <time>2017-07-15T13:08:16Z</time>
            </trkpt>
            <trkpt lat="46.256820" lon="10.561050">
                <time>2017-07-15T13:08:17Z</time>
            </trkpt>
            <trkpt lat="46.256780" lon="10.560860">
                <time>2017-07-15T13:08:18Z</time>
            </trkpt>
            <trkpt lat="46.256750" lon="10.560660">
                <time>2017-07-15T13:08:19Z</time>
            </trkpt>
            <trkpt lat="46.256740" lon="10.560440">
                <time>2017-07-15T13:08:20Z</time>
            </trkpt>
            <trkpt lat="46.256740" lon="10.560240">
                <time>2017-07-15T13:08:21Z</time>
            </trkpt>
            <trkpt lat="46.256740" lon="10.560020">
                <time>2017-07-15T13:08:22Z</time>
            </trkpt>
            <trkpt lat="46.256750" lon="10.559790">
                <time>2017-07-15T13:08:23Z</time>
            </trkpt>
            <trkpt lat="46.256760" lon="10.559580">
                <time>2017-07-15T13:08:24Z</time>
            </trkpt>
            <trkpt lat="46.256760" lon="10.559350">
                <time>2017-07-15T13:08:25Z</time>
            </trkpt>
            <trkpt lat="46.256760" lon="10.559110">
                <time>2017-07-15T13:08:26Z</time>
            </trkpt>
            <trkpt lat="46.256750" lon="10.558890">
                <time>2017-07-15T13:08:27Z</time>
            </trkpt>
            <trkpt lat="46.256740" lon="10.558630">
                <time>2017-07-15T13:08:28Z</time>
            </trkpt>
            <trkpt lat="46.256720" lon="10.558400">
                <time>2017-07-15T13:08:29Z</time>
            </trkpt>
            <trkpt lat="46.256690" lon="10.558160">
                <time>2017-07-15T13:08:30Z</time>
            </trkpt>
            <trkpt lat="46.256660" lon="10.557900">
                <time>2017-07-15T13:08:31Z</time>
            </trkpt>
            <trkpt lat="46.256620" lon="10.557670">
                <time>2017-07-15T13:08:32Z</time>
            </trkpt>
            <trkpt lat="46.256580" lon="10.557410">
                <time>2017-07-15T13:08:33Z</time>
            </trkpt>
            <trkpt lat="46.256530" lon="10.557170">
                <time>2017-07-15T13:08:34Z</time>
            </trkpt>
            <trkpt lat="46.256470" lon="10.556920">
                <time>2017-07-15T13:08:35Z</time>
            </trkpt>
            <trkpt lat="46.256410" lon="10.556660">
                <time>2017-07-15T13:08:36Z</time>
            </trkpt>
            <trkpt lat="46.256360" lon="10.556440">
                <time>2017-07-15T13:08:37Z</time>
            </trkpt>
            <trkpt lat="46.256300" lon="10.556190">
                <time>2017-07-15T13:08:38Z</time>
            </trkpt>
            <trkpt lat="46.256220" lon="10.555930">
                <time>2017-07-15T13:08:39Z</time>
            </trkpt>
            <trkpt lat="46.256170" lon="10.555700">
                <time>2017-07-15T13:08:40Z</time>
            </trkpt>
            <trkpt lat="46.256110" lon="10.555470">
                <time>2017-07-15T13:08:41Z</time>
            </trkpt>
            <trkpt lat="46.256050" lon="10.555230">
                <time>2017-07-15T13:08:42Z</time>
            </trkpt>
            <trkpt lat="46.255980" lon="10.555040">
                <time>2017-07-15T13:08:43Z</time>
            </trkpt>
            <trkpt lat="46.255910" lon="10.554830">
                <time>2017-07-15T13:08:44Z</time>
            </trkpt>
            <trkpt lat="46.255850" lon="10.554680">
                <time>2017-07-15T13:08:45Z</time>
            </trkpt>
            <trkpt lat="46.255770" lon="10.554530">
                <time>2017-07-15T13:08:46Z</time>
            </trkpt>
            <trkpt lat="46.255670" lon="10.554390">
                <time>2017-07-15T13:08:47Z</time>
            </trkpt>
            <trkpt lat="46.255560" lon="10.554290">
                <time>2017-07-15T13:08:48Z</time>
            </trkpt>
            <trkpt lat="46.255440" lon="10.554200">
                <time>2017-07-15T13:08:49Z</time>
            </trkpt>
            <trkpt lat="46.255310" lon="10.554120">
                <time>2017-07-15T13:08:50Z</time>
            </trkpt>
            <trkpt lat="46.255180" lon="10.554020">
                <time>2017-07-15T13:08:51Z</time>
            </trkpt>
            <trkpt lat="46.255040" lon="10.553880">
                <time>2017-07-15T13:08:52Z</time>
            </trkpt>
            <trkpt lat="46.254930" lon="10.553760">
                <time>2017-07-15T13:08:53Z</time>
            </trkpt>
            <trkpt lat="46.254830" lon="10.553610">
                <time>2017-07-15T13:08:54Z</time>
            </trkpt>
            <trkpt lat="46.254740" lon="10.553460">
                <time>2017-07-15T13:08:55Z</time>
            </trkpt>
            <trkpt lat="46.254690" lon="10.553310">
                <time>2017-07-15T13:08:56Z</time>
            </trkpt>
            <trkpt lat="46.254660" lon="10.553120">
                <time>2017-07-15T13:08:57Z</time>
            </trkpt>
            <trkpt lat="46.254640" lon="10.552910">
                <time>2017-07-15T13:08:58Z</time>
            </trkpt>
            <trkpt lat="46.254620" lon="10.552690">
                <time>2017-07-15T13:08:59Z</time>
            </trkpt>
            <trkpt lat="46.254610" lon="10.552450">
                <time>2017-07-15T13:09:00Z</time>
            </trkpt>
            <trkpt lat="46.254590" lon="10.552220">
                <time>2017-07-15T13:09:01Z</time>
            </trkpt>
            <trkpt lat="46.254570" lon="10.551990">
                <time>2017-07-15T13:09:02Z</time>
            </trkpt>
            <trkpt lat="46.254560" lon="10.551750">
                <time>2017-07-15T13:09:03Z</time>
            </trkpt>
            <trkpt lat="46.254550" lon="10.551540">
                <time>2017-07-15T13:09:04Z</time>
            </trkpt>
            <trkpt lat="46.254560" lon="10.551320">
                <time>2017-07-15T13:09:05Z</time>
            </trkpt>
            <trkpt lat="46.254590" lon="10.551080">
                <time>2017-07-15T13:09:06Z</time>
            </trkpt>
            <trkpt lat="46.254640" lon="10.550850">
                <time>2017-07-15T13:09:07Z</time>
            </trkpt>
            <trkpt lat="46.254700" lon="10.550610">
                <time>2017-07-15T13:09:08Z</time>
            </trkpt>
            <trkpt lat="46.254750" lon="10.550400">
                <time>2017-07-15T13:09:09Z</time>
            </trkpt>
            <trkpt lat="46.254800" lon="10.550180">
                <time>2017-07-15T13:09:10Z</time>
            </trkpt>
            <trkpt lat="46.254830" lon="10.549940">
                <time>2017-07-15T13:09:11Z</time>
            </trkpt>
            <trkpt lat="46.254840" lon="10.549730">
                <time>2017-07-15T13:09:12Z</time>
            </trkpt>
            <trkpt lat="46.254830" lon="10.549500">
                <time>2017-07-15T13:09:13Z</time>
            </trkpt>
            <trkpt lat="46.254810" lon="10.549240">
                <time>2017-07-15T13:09:14Z</time>
            </trkpt>
            <trkpt lat="46.254790" lon="10.549020">
                <time>2017-07-15T13:09:15Z</time>
            </trkpt>
            <trkpt lat="46.254770" lon="10.548760">
                <time>2017-07-15T13:09:16Z</time>
            </trkpt>
            <trkpt lat="46.254750" lon="10.548530">
                <time>2017-07-15T13:09:17Z</time>
            </trkpt>
            <trkpt lat="46.254720" lon="10.548290">
                <time>2017-07-15T13:09:18Z</time>
            </trkpt>
            <trkpt lat="46.254690" lon="10.548020">
                <time>2017-07-15T13:09:19Z</time>
            </trkpt>
            <trkpt lat="46.254670" lon="10.547800">
                <time>2017-07-15T13:09:20Z</time>
            </trkpt>
            <trkpt lat="46.254650" lon="10.547550">
                <time>2017-07-15T13:09:21Z</time>
            </trkpt>
            <trkpt lat="46.254620" lon="10.547320">
                <time>2017-07-15T13:09:22Z</time>
            </trkpt>
            <trkpt lat="46.254590" lon="10.547100">
                <time>2017-07-15T13:09:23Z</time>
            </trkpt>
            <trkpt lat="46.254570" lon="10.546890">
                <time>2017-07-15T13:09:24Z</time>
            </trkpt>
            <trkpt lat="46.254560" lon="10.546720">
                <time>2017-07-15T13:09:25Z</time>
            </trkpt>
            <trkpt lat="46.254570" lon="10.546550">
                <time>2017-07-15T13:09:26Z</time>
            </trkpt>
            <trkpt lat="46.254600" lon="10.546370">
                <time>2017-07-15T13:09:27Z</time>
            </trkpt>
            <trkpt lat="46.254630" lon="10.546220">
                <time>2017-07-15T13:09:28Z</time>
            </trkpt>
            <trkpt lat="46.254640" lon="10.546050">
                <time>2017-07-15T13:09:29Z</time>
            </trkpt>
            <trkpt lat="46.254620" lon="10.545880">
                <time>2017-07-15T13:09:30Z</time>
            </trkpt>
            <trkpt lat="46.254570" lon="10.545750">
                <time>2017-07-15T13:09:31Z</time>
            </trkpt>
            <trkpt lat="46.254490" lon="10.545600">
                <time>2017-07-15T13:09:32Z</time>
            </trkpt>
            <trkpt lat="46.254410" lon="10.545480">
                <time>2017-07-15T13:09:33Z</time>
            </trkpt>
            <trkpt lat="46.254350" lon="10.545330">
                <time>2017-07-15T13:09:34Z</time>
            </trkpt>
            <trkpt lat="46.254310" lon="10.545160">
                <time>2017-07-15T13:09:35Z</time>
            </trkpt>
            <trkpt lat="46.254300" lon="10.544990">
                <time>2017-07-15T13:09:36Z</time>
            </trkpt>
            <trkpt lat="46.254280" lon="10.544790">
                <time>2017-07-15T13:09:37Z</time>
            </trkpt>
            <trkpt lat="46.254260" lon="10.544600">
                <time>2017-07-15T13:09:38Z</time>
            </trkpt>
            <trkpt lat="46.254230" lon="10.544410">
                <time>2017-07-15T13:09:39Z</time>
            </trkpt>
            <trkpt lat="46.254190" lon="10.544230">
                <time>2017-07-15T13:09:40Z</time>
            </trkpt>
            <trkpt lat="46.254120" lon="10.544100">
                <time>2017-07-15T13:09:41Z</time>
            </trkpt>
            <trkpt lat="46.254040" lon="10.543970">
                <time>2017-07-15T13:09:42Z</time>
            </trkpt>
            <trkpt lat="46.253940" lon="10.543850">
                <time>2017-07-15T13:09:43Z</time>
            </trkpt>
            <trkpt lat="46.253860" lon="10.543730">
                <time>2017-07-15T13:09:44Z</time>
            </trkpt>
            <trkpt lat="46.253800" lon="10.543600">
                <time>2017-07-15T13:09:45Z</time>
            </trkpt>
            <trkpt lat="46.253760" lon="10.543440">
                <time>2017-07-15T13:09:46Z</time>
            </trkpt>
            <trkpt lat="46.253760" lon="10.543290">
                <time>2017-07-15T13:09:47Z</time>
            </trkpt>
            <trkpt lat="46.253800" lon="10.543110">
                <time>2017-07-15T13:09:48Z</time>
            </trkpt>
            <trkpt lat="46.253850" lon="10.542950">
                <time>2017-07-15T13:09:49Z</time>
            </trkpt>
            <trkpt lat="46.253890" lon="10.542800">
                <time>2017-07-15T13:09:50Z</time>
            </trkpt>
            <trkpt lat="46.253910" lon="10.542640">
                <time>2017-07-15T13:09:51Z</time>
            </trkpt>
            <trkpt lat="46.253890" lon="10.542500">
                <time>2017-07-15T13:09:52Z</time>
            </trkpt>
            <trkpt lat="46.253850" lon="10.542360">
                <time>2017-07-15T13:09:53Z</time>
            </trkpt>
            <trkpt lat="46.253790" lon="10.542200">
                <time>2017-07-15T13:09:54Z</time>
            </trkpt>
            <trkpt lat="46.253740" lon="10.542020">
                <time>2017-07-15T13:09:55Z</time>
            </trkpt>
            <trkpt lat="46.253690" lon="10.541830">
                <time>2017-07-15T13:09:56Z</time>
            </trkpt>
            <trkpt lat="46.253650" lon="10.541650">
                <time>2017-07-15T13:09:57Z</time>
            </trkpt>
            <trkpt lat="46.253600" lon="10.541470">
                <time>2017-07-15T13:09:58Z</time>
            </trkpt>
            <trkpt lat="46.253540" lon="10.541280">
                <time>2017-07-15T13:09:59Z</time>
            </trkpt>
            <trkpt lat="46.253490" lon="10.541140">
                <time>2017-07-15T13:10:00Z</time>
            </trkpt>
            <trkpt lat="46.253460" lon="10.540990">
                <time>2017-07-15T13:10:01Z</time>
            </trkpt>
            <trkpt lat="46.253430" lon="10.540870">
                <time>2017-07-15T13:10:02Z</time>
            </trkpt>
            <trkpt lat="46.253400" lon="10.540770">
                <time>2017-07-15T13:10:03Z</time>
            </trkpt>
            <trkpt lat="46.253350" lon="10.540690">
                <time>2017-07-15T13:10:04Z</time>
            </trkpt>
            <trkpt lat="46.253290" lon="10.540650">
                <time>2017-07-15T13:10:05Z</time>
            </trkpt>
            <trkpt lat="46.253230" lon="10.540660">
                <time>2017-07-15T13:10:06Z</time>
            </trkpt>
            <trkpt lat="46.253170" lon="10.540720">
                <time>2017-07-15T13:10:07Z</time>
            </trkpt>
            <trkpt lat="46.253140" lon="10.540790">
                <time>2017-07-15T13:10:08Z</time>
            </trkpt>
            <trkpt lat="46.253150" lon="10.540900">
                <time>2017-07-15T13:10:09Z</time>
            </trkpt>
            <trkpt lat="46.253180" lon="10.541030">
                <time>2017-07-15T13:10:10Z</time>
            </trkpt>
            <trkpt lat="46.253240" lon="10.541160">
                <time>2017-07-15T13:10:11Z</time>
            </trkpt>
            <trkpt lat="46.253290" lon="10.541340">
                <time>2017-07-15T13:10:12Z</time>
            </trkpt>
            <trkpt lat="46.253310" lon="10.541520">
                <time>2017-07-15T13:10:13Z</time>
            </trkpt>
            <trkpt lat="46.253310" lon="10.541710">
                <time>2017-07-15T13:10:14Z</time>
            </trkpt>
            <trkpt lat="46.253280" lon="10.541920">
                <time>2017-07-15T13:10:15Z</time>
            </trkpt>
            <trkpt lat="46.253260" lon="10.542120">
                <time>2017-07-15T13:10:16Z</time>
            </trkpt>
            <trkpt lat="46.253230" lon="10.542330">
                <time>2017-07-15T13:10:17Z</time>
            </trkpt>
            <trkpt lat="46.253200" lon="10.542540">
                <time>2017-07-15T13:10:18Z</time>
            </trkpt>
            <trkpt lat="46.253190" lon="10.542720">
                <time>2017-07-15T13:10:19Z</time>
            </trkpt>
            <trkpt lat="46.253190" lon="10.542920">
                <time>2017-07-15T13:10:20Z</time>
            </trkpt>
            <trkpt lat="46.253200" lon="10.543080">
                <time>2017-07-15T13:10:21Z</time>
            </trkpt>
            <trkpt lat="46.253200" lon="10.543270">
                <time>2017-07-15T13:10:22Z</time>
            </trkpt>
            <trkpt lat="46.253210" lon="10.543460">
                <time>2017-07-15T13:10:23Z</time>
            </trkpt>
            <trkpt lat="46.253220" lon="10.543610">
                <time>2017-07-15T13:10:24Z</time>
            </trkpt>
            <trkpt lat="46.253220" lon="10.543760">
                <time>2017-07-15T13:10:25Z</time>
            </trkpt>
            <trkpt lat="46.253210" lon="10.543900">
                <time>2017-07-15T13:10:26Z</time>
            </trkpt>
            <trkpt lat="46.253180" lon="10.544010">
                <time>2017-07-15T13:10:27Z</time>
            </trkpt>
            <trkpt lat="46.253110" lon="10.544100">
                <time>2017-07-15T13:10:28Z</time>
            </trkpt>
            <trkpt lat="46.253040" lon="10.544130">
                <time>2017-07-15T13:10:29Z</time>
            </trkpt>
            <trkpt lat="46.252960" lon="10.544120">
                <time>2017-07-15T13:10:30Z</time>
            </trkpt>
            <trkpt lat="46.252890" lon="10.544040">
                <time>2017-07-15T13:10:31Z</time>
            </trkpt>
            <trkpt lat="46.252840" lon="10.543920">
                <time>2017-07-15T13:10:32Z</time>
            </trkpt>
            <trkpt lat="46.252820" lon="10.543760">
                <time>2017-07-15T13:10:33Z</time>
            </trkpt>
            <trkpt lat="46.252790" lon="10.543550">
                <time>2017-07-15T13:10:34Z</time>
            </trkpt>
            <trkpt lat="46.252760" lon="10.543330">
                <time>2017-07-15T13:10:35Z</time>
            </trkpt>
            <trkpt lat="46.252720" lon="10.543080">
                <time>2017-07-15T13:10:36Z</time>
            </trkpt>
            <trkpt lat="46.252700" lon="10.542870">
                <time>2017-07-15T13:10:37Z</time>
            </trkpt>
            <trkpt lat="46.252670" lon="10.542640">
                <time>2017-07-15T13:10:38Z</time>
            </trkpt>
            <trkpt lat="46.252640" lon="10.542410">
                <time>2017-07-15T13:10:39Z</time>
            </trkpt>
            <trkpt lat="46.252610" lon="10.542210">
                <time>2017-07-15T13:10:40Z</time>
            </trkpt>
            <trkpt lat="46.252570" lon="10.541980">
                <time>2017-07-15T13:10:41Z</time>
            </trkpt>
            <trkpt lat="46.252510" lon="10.541740">
                <time>2017-07-15T13:10:42Z</time>
            </trkpt>
            <trkpt lat="46.252430" lon="10.541450">
                <time>2017-07-15T13:10:43Z</time>
            </trkpt>
            <trkpt lat="46.252330" lon="10.541130">
                <time>2017-07-15T13:10:44Z</time>
            </trkpt>
            <trkpt lat="46.252240" lon="10.540840">
                <time>2017-07-15T13:10:45Z</time>
            </trkpt>
            <trkpt lat="46.252160" lon="10.540560">
                <time>2017-07-15T13:10:46Z</time>
            </trkpt>
            <trkpt lat="46.252060" lon="10.540300">
                <time>2017-07-15T13:10:47Z</time>
            </trkpt>
            <trkpt lat="46.252010" lon="10.540100">
                <time>2017-07-15T13:10:48Z</time>
            </trkpt>
            <trkpt lat="46.251960" lon="10.539910">
                <time>2017-07-15T13:10:49Z</time>
            </trkpt>
            <trkpt lat="46.251930" lon="10.539720">
                <time>2017-07-15T13:10:50Z</time>
            </trkpt>
            <trkpt lat="46.251930" lon="10.539550">
                <time>2017-07-15T13:10:51Z</time>
            </trkpt>
            <trkpt lat="46.251970" lon="10.539380">
                <time>2017-07-15T13:10:52Z</time>
            </trkpt>
            <trkpt lat="46.252030" lon="10.539250">
                <time>2017-07-15T13:10:53Z</time>
            </trkpt>
            <trkpt lat="46.252110" lon="10.539130">
                <time>2017-07-15T13:10:54Z</time>
            </trkpt>
            <trkpt lat="46.252190" lon="10.538990">
                <time>2017-07-15T13:10:55Z</time>
            </trkpt>
            <trkpt lat="46.252220" lon="10.538860">
                <time>2017-07-15T13:10:56Z</time>
            </trkpt>
            <trkpt lat="46.252220" lon="10.538700">
                <time>2017-07-15T13:10:57Z</time>
            </trkpt>
            <trkpt lat="46.252200" lon="10.538560">
                <time>2017-07-15T13:10:58Z</time>
            </trkpt>
            <trkpt lat="46.252160" lon="10.538440">
                <time>2017-07-15T13:10:59Z</time>
            </trkpt>
            <trkpt lat="46.252100" lon="10.538310">
                <time>2017-07-15T13:11:00Z</time>
            </trkpt>
            <trkpt lat="46.252050" lon="10.538210">
                <time>2017-07-15T13:11:01Z</time>
            </trkpt>
            <trkpt lat="46.252030" lon="10.538090">
                <time>2017-07-15T13:11:02Z</time>
            </trkpt>
            <trkpt lat="46.252050" lon="10.537980">
                <time>2017-07-15T13:11:03Z</time>
            </trkpt>
            <trkpt lat="46.252100" lon="10.537880">
                <time>2017-07-15T13:11:04Z</time>
            </trkpt>
            <trkpt lat="46.252150" lon="10.537770">
                <time>2017-07-15T13:11:05Z</time>
            </trkpt>
            <trkpt lat="46.252200" lon="10.537660">
                <time>2017-07-15T13:11:06Z</time>
            </trkpt>
            <trkpt lat="46.252230" lon="10.537540">
                <time>2017-07-15T13:11:07Z</time>
            </trkpt>
            <trkpt lat="46.252250" lon="10.537400">
                <time>2017-07-15T13:11:08Z</time>
            </trkpt>
            <trkpt lat="46.252250" lon="10.537270">
                <time>2017-07-15T13:11:09Z</time>
            </trkpt>
            <trkpt lat="46.252260" lon="10.537140">
                <time>2017-07-15T13:11:10Z</time>
            </trkpt>
            <trkpt lat="46.252290" lon="10.537000">
                <time>2017-07-15T13:11:11Z</time>
            </trkpt>
            <trkpt lat="46.252330" lon="10.536870">
                <time>2017-07-15T13:11:12Z</time>
            </trkpt>
            <trkpt lat="46.252390" lon="10.536730">
                <time>2017-07-15T13:11:13Z</time>
            </trkpt>
            <trkpt lat="46.252450" lon="10.536610">
                <time>2017-07-15T13:11:14Z</time>
            </trkpt>
            <trkpt lat="46.252500" lon="10.536490">
                <time>2017-07-15T13:11:15Z</time>
            </trkpt>
            <trkpt lat="46.252530" lon="10.536350">
                <time>2017-07-15T13:11:16Z</time>
            </trkpt>
            <trkpt lat="46.252540" lon="10.536200">
                <time>2017-07-15T13:11:17Z</time>
            </trkpt>
            <trkpt lat="46.252580" lon="10.536040">
                <time>2017-07-15T13:11:18Z</time>
            </trkpt>
            <trkpt lat="46.252620" lon="10.535870">
                <time>2017-07-15T13:11:19Z</time>
            </trkpt>
            <trkpt lat="46.252680" lon="10.535730">
                <time>2017-07-15T13:11:20Z</time>
            </trkpt>
            <trkpt lat="46.252750" lon="10.535600">
                <time>2017-07-15T13:11:21Z</time>
            </trkpt>
            <trkpt lat="46.252840" lon="10.535470">
                <time>2017-07-15T13:11:22Z</time>
            </trkpt>
            <trkpt lat="46.252930" lon="10.535360">
                <time>2017-07-15T13:11:23Z</time>
            </trkpt>
            <trkpt lat="46.253030" lon="10.535260">
                <time>2017-07-15T13:11:24Z</time>
            </trkpt>
            <trkpt lat="46.253120" lon="10.535180">
                <time>2017-07-15T13:11:25Z</time>
            </trkpt>
            <trkpt lat="46.253200" lon="10.535110">
                <time>2017-07-15T13:11:26Z</time>
            </trkpt>
            <trkpt lat="46.253300" lon="10.535020">
                <time>2017-07-15T13:11:27Z</time>
            </trkpt>
            <trkpt lat="46.253390" lon="10.534940">
                <time>2017-07-15T13:11:28Z</time>
            </trkpt>
            <trkpt lat="46.253470" lon="10.534850">
                <time>2017-07-15T13:11:29Z</time>
            </trkpt>
            <trkpt lat="46.253530" lon="10.534750">
                <time>2017-07-15T13:11:30Z</time>
            </trkpt>
            <trkpt lat="46.253570" lon="10.534620">
                <time>2017-07-15T13:11:31Z</time>
            </trkpt>
            <trkpt lat="46.253580" lon="10.534470">
                <time>2017-07-15T13:11:32Z</time>
            </trkpt>
            <trkpt lat="46.253570" lon="10.534330">
                <time>2017-07-15T13:11:33Z</time>
            </trkpt>
            <trkpt lat="46.253550" lon="10.534170">
                <time>2017-07-15T13:11:34Z</time>
            </trkpt>
            <trkpt lat="46.253500" lon="10.534010">
                <time>2017-07-15T13:11:35Z</time>
            </trkpt>
            <trkpt lat="46.253480" lon="10.533860">
                <time>2017-07-15T13:11:36Z</time>
            </trkpt>
            <trkpt lat="46.253470" lon="10.533690">
                <time>2017-07-15T13:11:37Z</time>
            </trkpt>
            <trkpt lat="46.253480" lon="10.533460">
                <time>2017-07-15T13:11:38Z</time>
            </trkpt>
            <trkpt lat="46.253500" lon="10.533230">
                <time>2017-07-15T13:11:39Z</time>
            </trkpt>
            <trkpt lat="46.253540" lon="10.532930">
                <time>2017-07-15T13:11:40Z</time>
            </trkpt>
            <trkpt lat="46.253590" lon="10.532660">
                <time>2017-07-15T13:11:41Z</time>
            </trkpt>
            <trkpt lat="46.253640" lon="10.532370">
                <time>2017-07-15T13:11:42Z</time>
            </trkpt>
            <trkpt lat="46.253700" lon="10.532070">
                <time>2017-07-15T13:11:43Z</time>
            </trkpt>
            <trkpt lat="46.253740" lon="10.531820">
                <time>2017-07-15T13:11:44Z</time>
            </trkpt>
            <trkpt lat="46.253810" lon="10.531570">
                <time>2017-07-15T13:11:45Z</time>
            </trkpt>
            <trkpt lat="46.253870" lon="10.531320">
                <time>2017-07-15T13:11:46Z</time>
            </trkpt>
            <trkpt lat="46.253920" lon="10.531070">
                <time>2017-07-15T13:11:47Z</time>
            </trkpt>
            <trkpt lat="46.253980" lon="10.530820">
                <time>2017-07-15T13:11:48Z</time>
            </trkpt>
            <trkpt lat="46.254030" lon="10.530610">
                <time>2017-07-15T13:11:49Z</time>
            </trkpt>
            <trkpt lat="46.254090" lon="10.530390">
                <time>2017-07-15T13:11:50Z</time>
            </trkpt>
            <trkpt lat="46.254160" lon="10.530170">
                <time>2017-07-15T13:11:51Z</time>
            </trkpt>
            <trkpt lat="46.254220" lon="10.529980">
                <time>2017-07-15T13:11:52Z</time>
            </trkpt>
            <trkpt lat="46.254290" lon="10.529810">
                <time>2017-07-15T13:11:53Z</time>
            </trkpt>
            <trkpt lat="46.254360" lon="10.529660">
                <time>2017-07-15T13:11:54Z</time>
            </trkpt>
            <trkpt lat="46.254440" lon="10.529560">
                <time>2017-07-15T13:11:55Z</time>
            </trkpt>
            <trkpt lat="46.254550" lon="10.529490">
                <time>2017-07-15T13:11:56Z</time>
            </trkpt>
            <trkpt lat="46.254670" lon="10.529450">
                <time>2017-07-15T13:11:57Z</time>
            </trkpt>
            <trkpt lat="46.254790" lon="10.529440">
                <time>2017-07-15T13:11:58Z</time>
            </trkpt>
            <trkpt lat="46.254900" lon="10.529420">
                <time>2017-07-15T13:11:59Z</time>
            </trkpt>
            <trkpt lat="46.254990" lon="10.529380">
                <time>2017-07-15T13:12:00Z</time>
            </trkpt>
            <trkpt lat="46.255070" lon="10.529290">
                <time>2017-07-15T13:12:01Z</time>
            </trkpt>
            <trkpt lat="46.255120" lon="10.529150">
                <time>2017-07-15T13:12:02Z</time>
            </trkpt>
            <trkpt lat="46.255160" lon="10.528980">
                <time>2017-07-15T13:12:03Z</time>
            </trkpt>
            <trkpt lat="46.255200" lon="10.528790">
                <time>2017-07-15T13:12:04Z</time>
            </trkpt>
            <trkpt lat="46.255250" lon="10.528610">
                <time>2017-07-15T13:12:05Z</time>
            </trkpt>
            <trkpt lat="46.255310" lon="10.528460">
                <time>2017-07-15T13:12:06Z</time>
            </trkpt>
            <trkpt lat="46.255370" lon="10.528340">
                <time>2017-07-15T13:12:07Z</time>
            </trkpt>
            <trkpt lat="46.255430" lon="10.528260">
                <time>2017-07-15T13:12:08Z</time>
            </trkpt>
            <trkpt lat="46.255490" lon="10.528200">
                <time>2017-07-15T13:12:09Z</time>
            </trkpt>
            <trkpt lat="46.255560" lon="10.528180">
                <time>2017-07-15T13:12:10Z</time>
            </trkpt>
            <trkpt lat="46.255630" lon="10.528190">
                <time>2017-07-15T13:12:11Z</time>
            </trkpt>
            <trkpt lat="46.255740" lon="10.528220">
                <time>2017-07-15T13:12:12Z</time>
            </trkpt>
            <trkpt lat="46.255850" lon="10.528220">
                <time>2017-07-15T13:12:13Z</time>
            </trkpt>
            <trkpt lat="46.255980" lon="10.528180">
                <time>2017-07-15T13:12:14Z</time>
            </trkpt>
            <trkpt lat="46.256120" lon="10.528100">
                <time>2017-07-15T13:12:15Z</time>
            </trkpt>
            <trkpt lat="46.256240" lon="10.528020">
                <time>2017-07-15T13:12:16Z</time>
            </trkpt>
            <trkpt lat="46.256360" lon="10.527940">
                <time>2017-07-15T13:12:17Z</time>
            </trkpt>
            <trkpt lat="46.256460" lon="10.527850">
                <time>2017-07-15T13:12:18Z</time>
            </trkpt>
            <trkpt lat="46.256530" lon="10.527730">
                <time>2017-07-15T13:12:19Z</time>
            </trkpt>
            <trkpt lat="46.256570" lon="10.527600">
                <time>2017-07-15T13:12:20Z</time>
            </trkpt>
            <trkpt lat="46.256620" lon="10.527480">
                <time>2017-07-15T13:12:21Z</time>
            </trkpt>
            <trkpt lat="46.256660" lon="10.527380">
                <time>2017-07-15T13:12:22Z</time>
            </trkpt>
            <trkpt lat="46.256750" lon="10.527290">
                <time>2017-07-15T13:12:23Z</time>
            </trkpt>
            <trkpt lat="46.256890" lon="10.527290">
                <time>2017-07-15T13:12:24Z</time>
            </trkpt>
            <trkpt lat="46.257030" lon="10.527270">
                <time>2017-07-15T13:12:25Z</time>
            </trkpt>
            <trkpt lat="46.257200" lon="10.527240">
                <time>2017-07-15T13:12:26Z</time>
            </trkpt>
            <trkpt lat="46.257340" lon="10.527230">
                <time>2017-07-15T13:12:27Z</time>
            </trkpt>
            <trkpt lat="46.257510" lon="10.527240">
                <time>2017-07-15T13:12:28Z</time>
            </trkpt>
            <trkpt lat="46.257650" lon="10.527260">
                <time>2017-07-15T13:12:29Z</time>
            </trkpt>
            <trkpt lat="46.257800" lon="10.527280">
                <time>2017-07-15T13:12:30Z</time>
            </trkpt>
            <trkpt lat="46.257940" lon="10.527310">
                <time>2017-07-15T13:12:31Z</time>
            </trkpt>
            <trkpt lat="46.258050" lon="10.527330">
                <time>2017-07-15T13:12:32Z</time>
            </trkpt>
            <trkpt lat="46.258150" lon="10.527360">
                <time>2017-07-15T13:12:33Z</time>
            </trkpt>
            <trkpt lat="46.258250" lon="10.527380">
                <time>2017-07-15T13:12:34Z</time>
            </trkpt>
            <trkpt lat="46.258340" lon="10.527350">
                <time>2017-07-15T13:12:35Z</time>
            </trkpt>
            <trkpt lat="46.258420" lon="10.527280">
                <time>2017-07-15T13:12:36Z</time>
            </trkpt>
            <trkpt lat="46.258480" lon="10.527190">
                <time>2017-07-15T13:12:37Z</time>
            </trkpt>
            <trkpt lat="46.258490" lon="10.527060">
                <time>2017-07-15T13:12:38Z</time>
            </trkpt>
            <trkpt lat="46.258480" lon="10.526900">
                <time>2017-07-15T13:12:39Z</time>
            </trkpt>
            <trkpt lat="46.258450" lon="10.526740">
                <time>2017-07-15T13:12:40Z</time>
            </trkpt>
            <trkpt lat="46.258430" lon="10.526560">
                <time>2017-07-15T13:12:41Z</time>
            </trkpt>
            <trkpt lat="46.258420" lon="10.526370">
                <time>2017-07-15T13:12:42Z</time>
            </trkpt>
            <trkpt lat="46.258410" lon="10.526200">
                <time>2017-07-15T13:12:43Z</time>
            </trkpt>
            <trkpt lat="46.258380" lon="10.526010">
                <time>2017-07-15T13:12:44Z</time>
            </trkpt>
            <trkpt lat="46.258350" lon="10.525870">
                <time>2017-07-15T13:12:45Z</time>
            </trkpt>
            <trkpt lat="46.258340" lon="10.525720">
                <time>2017-07-15T13:12:46Z</time>
            </trkpt>
            <trkpt lat="46.258360" lon="10.525540">
                <time>2017-07-15T13:12:47Z</time>
            </trkpt>
            <trkpt lat="46.258400" lon="10.525360">
                <time>2017-07-15T13:12:48Z</time>
            </trkpt>
            <trkpt lat="46.258440" lon="10.525140">
                <time>2017-07-15T13:12:49Z</time>
            </trkpt>
            <trkpt lat="46.258490" lon="10.524910">
                <time>2017-07-15T13:12:50Z</time>
            </trkpt>
            <trkpt lat="46.258530" lon="10.524690">
                <time>2017-07-15T13:12:51Z</time>
            </trkpt>
            <trkpt lat="46.258570" lon="10.524440">
                <time>2017-07-15T13:12:52Z</time>
            </trkpt>
            <trkpt lat="46.258600" lon="10.524230">
                <time>2017-07-15T13:12:53Z</time>
            </trkpt>
            <trkpt lat="46.258620" lon="10.524010">
                <time>2017-07-15T13:12:54Z</time>
            </trkpt>
            <trkpt lat="46.258640" lon="10.523790">
                <time>2017-07-15T13:12:55Z</time>
            </trkpt>
            <trkpt lat="46.258680" lon="10.523620">
                <time>2017-07-15T13:12:56Z</time>
            </trkpt>
            <trkpt lat="46.258750" lon="10.523450">
                <time>2017-07-15T13:12:57Z</time>
            </trkpt>
            <trkpt lat="46.258850" lon="10.523280">
                <time>2017-07-15T13:12:58Z</time>
            </trkpt>
            <trkpt lat="46.258950" lon="10.523130">
                <time>2017-07-15T13:12:59Z</time>
            </trkpt>
            <trkpt lat="46.259070" lon="10.522940">
                <time>2017-07-15T13:13:00Z</time>
            </trkpt>
            <trkpt lat="46.259170" lon="10.522760">
                <time>2017-07-15T13:13:01Z</time>
            </trkpt>
            <trkpt lat="46.259290" lon="10.522560">
                <time>2017-07-15T13:13:02Z</time>
            </trkpt>
            <trkpt lat="46.259420" lon="10.522350">
                <time>2017-07-15T13:13:03Z</time>
            </trkpt>
            <trkpt lat="46.259540" lon="10.522180">
                <time>2017-07-15T13:13:04Z</time>
            </trkpt>
            <trkpt lat="46.259650" lon="10.522000">
                <time>2017-07-15T13:13:05Z</time>
            </trkpt>
            <trkpt lat="46.259770" lon="10.521810">
                <time>2017-07-15T13:13:06Z</time>
            </trkpt>
            <trkpt lat="46.259870" lon="10.521640">
                <time>2017-07-15T13:13:07Z</time>
            </trkpt>
            <trkpt lat="46.259980" lon="10.521460">
                <time>2017-07-15T13:13:08Z</time>
            </trkpt>
            <trkpt lat="46.260070" lon="10.521330">
                <time>2017-07-15T13:13:09Z</time>
            </trkpt>
            <trkpt lat="46.260180" lon="10.521200">
                <time>2017-07-15T13:13:10Z</time>
            </trkpt>
            <trkpt lat="46.260310" lon="10.521100">
                <time>2017-07-15T13:13:11Z</time>
            </trkpt>
            <trkpt lat="46.260450" lon="10.521020">
                <time>2017-07-15T13:13:12Z</time>
            </trkpt>
            <trkpt lat="46.260610" lon="10.520950">
                <time>2017-07-15T13:13:13Z</time>
            </trkpt>
            <trkpt lat="46.260760" lon="10.520880">
                <time>2017-07-15T13:13:14Z</time>
            </trkpt>
            <trkpt lat="46.260900" lon="10.520830">
                <time>2017-07-15T13:13:15Z</time>
            </trkpt>
            <trkpt lat="46.261040" lon="10.520780">
                <time>2017-07-15T13:13:16Z</time>
            </trkpt>
            <trkpt lat="46.261170" lon="10.520770">
                <time>2017-07-15T13:13:17Z</time>
            </trkpt>
            <trkpt lat="46.261310" lon="10.520790">
                <time>2017-07-15T13:13:18Z</time>
            </trkpt>
            <trkpt lat="46.261480" lon="10.520890">
                <time>2017-07-15T13:13:19Z</time>
            </trkpt>
            <trkpt lat="46.261640" lon="10.520950">
                <time>2017-07-15T13:13:20Z</time>
            </trkpt>
            <trkpt lat="46.261810" lon="10.521000">
                <time>2017-07-15T13:13:21Z</time>
            </trkpt>
            <trkpt lat="46.261990" lon="10.521050">
                <time>2017-07-15T13:13:22Z</time>
            </trkpt>
            <trkpt lat="46.262160" lon="10.521110">
                <time>2017-07-15T13:13:23Z</time>
            </trkpt>
            <trkpt lat="46.262350" lon="10.521170">
                <time>2017-07-15T13:13:24Z</time>
            </trkpt>
            <trkpt lat="46.262510" lon="10.521230">
                <time>2017-07-15T13:13:25Z</time>
            </trkpt>
            <trkpt lat="46.262680" lon="10.521290">
                <time>2017-07-15T13:13:26Z</time>
            </trkpt>
            <trkpt lat="46.262870" lon="10.521360">
                <time>2017-07-15T13:13:27Z</time>
            </trkpt>
            <trkpt lat="46.263020" lon="10.521400">
                <time>2017-07-15T13:13:28Z</time>
            </trkpt>
            <trkpt lat="46.263190" lon="10.521450">
                <time>2017-07-15T13:13:29Z</time>
            </trkpt>
            <trkpt lat="46.263360" lon="10.521490">
                <time>2017-07-15T13:13:30Z</time>
            </trkpt>
            <trkpt lat="46.263490" lon="10.521530">
                <time>2017-07-15T13:13:31Z</time>
            </trkpt>
            <trkpt lat="46.263620" lon="10.521570">
                <time>2017-07-15T13:13:32Z</time>
            </trkpt>
            <trkpt lat="46.263720" lon="10.521620">
                <time>2017-07-15T13:13:33Z</time>
            </trkpt>
            <trkpt lat="46.263810" lon="10.521670">
                <time>2017-07-15T13:13:34Z</time>
            </trkpt>
            <trkpt lat="46.263890" lon="10.521740">
                <time>2017-07-15T13:13:35Z</time>
            </trkpt>
            <trkpt lat="46.263940" lon="10.521810">
                <time>2017-07-15T13:13:36Z</time>
            </trkpt>
            <trkpt lat="46.263990" lon="10.521860">
                <time>2017-07-15T13:13:37Z</time>
            </trkpt>
            <trkpt lat="46.264030" lon="10.521910">
                <time>2017-07-15T13:13:38Z</time>
            </trkpt>
            <trkpt lat="46.264090" lon="10.521920">
                <time>2017-07-15T13:13:39Z</time>
            </trkpt>
            <trkpt lat="46.264130" lon="10.521900">
                <time>2017-07-15T13:13:40Z</time>
            </trkpt>
            <trkpt lat="46.264160" lon="10.521850">
                <time>2017-07-15T13:13:41Z</time>
            </trkpt>
            <trkpt lat="46.264150" lon="10.521790">
                <time>2017-07-15T13:13:42Z</time>
            </trkpt>
            <trkpt lat="46.264120" lon="10.521730">
                <time>2017-07-15T13:13:43Z</time>
            </trkpt>
            <trkpt lat="46.264080" lon="10.521690">
                <time>2017-07-15T13:13:44Z</time>
            </trkpt>
            <trkpt lat="46.264010" lon="10.521650">
                <time>2017-07-15T13:13:45Z</time>
            </trkpt>
            <trkpt lat="46.263930" lon="10.521600">
                <time>2017-07-15T13:13:46Z</time>
            </trkpt>
            <trkpt lat="46.263840" lon="10.521560">
                <time>2017-07-15T13:13:47Z</time>
            </trkpt>
            <trkpt lat="46.263740" lon="10.521500">
                <time>2017-07-15T13:13:48Z</time>
            </trkpt>
            <trkpt lat="46.263630" lon="10.521450">
                <time>2017-07-15T13:13:49Z</time>
            </trkpt>
            <trkpt lat="46.263490" lon="10.521390">
                <time>2017-07-15T13:13:50Z</time>
            </trkpt>
            <trkpt lat="46.263330" lon="10.521310">
                <time>2017-07-15T13:13:51Z</time>
            </trkpt>
            <trkpt lat="46.263160" lon="10.521230">
                <time>2017-07-15T13:13:52Z</time>
            </trkpt>
            <trkpt lat="46.262950" lon="10.521130">
                <time>2017-07-15T13:13:53Z</time>
            </trkpt>
            <trkpt lat="46.262760" lon="10.521030">
                <time>2017-07-15T13:13:54Z</time>
            </trkpt>
            <trkpt lat="46.262590" lon="10.520920">
                <time>2017-07-15T13:13:55Z</time>
            </trkpt>
            <trkpt lat="46.262430" lon="10.520830">
                <time>2017-07-15T13:13:56Z</time>
            </trkpt>
            <trkpt lat="46.262290" lon="10.520760">
                <time>2017-07-15T13:13:57Z</time>
            </trkpt>
            <trkpt lat="46.262150" lon="10.520690">
                <time>2017-07-15T13:13:58Z</time>
            </trkpt>
            <trkpt lat="46.262010" lon="10.520610">
                <time>2017-07-15T13:13:59Z</time>
            </trkpt>
            <trkpt lat="46.261880" lon="10.520550">
                <time>2017-07-15T13:14:00Z</time>
            </trkpt>
            <trkpt lat="46.261760" lon="10.520490">
                <time>2017-07-15T13:14:01Z</time>
            </trkpt>
            <trkpt lat="46.261640" lon="10.520430">
                <time>2017-07-15T13:14:02Z</time>
            </trkpt>
            <trkpt lat="46.261550" lon="10.520380">
                <time>2017-07-15T13:14:03Z</time>
            </trkpt>
            <trkpt lat="46.261450" lon="10.520330">
                <time>2017-07-15T13:14:04Z</time>
            </trkpt>
            <trkpt lat="46.261360" lon="10.520290">
                <time>2017-07-15T13:14:05Z</time>
            </trkpt>
            <trkpt lat="46.261270" lon="10.520250">
                <time>2017-07-15T13:14:06Z</time>
            </trkpt>
            <trkpt lat="46.261180" lon="10.520200">
                <time>2017-07-15T13:14:07Z</time>
            </trkpt>
            <trkpt lat="46.261080" lon="10.520170">
                <time>2017-07-15T13:14:08Z</time>
            </trkpt>
            <trkpt lat="46.260980" lon="10.520130">
                <time>2017-07-15T13:14:09Z</time>
            </trkpt>
            <trkpt lat="46.260870" lon="10.520120">
                <time>2017-07-15T13:14:10Z</time>
            </trkpt>
            <trkpt lat="46.260770" lon="10.520110">
                <time>2017-07-15T13:14:11Z</time>
            </trkpt>
            <trkpt lat="46.260660" lon="10.520110">
                <time>2017-07-15T13:14:12Z</time>
            </trkpt>
            <trkpt lat="46.260560" lon="10.520130">
                <time>2017-07-15T13:14:13Z</time>
            </trkpt>
            <trkpt lat="46.260460" lon="10.520130">
                <time>2017-07-15T13:14:14Z</time>
            </trkpt>
            <trkpt lat="46.260350" lon="10.520150">
                <time>2017-07-15T13:14:15Z</time>
            </trkpt>
            <trkpt lat="46.260260" lon="10.520190">
                <time>2017-07-15T13:14:16Z</time>
            </trkpt>
            <trkpt lat="46.260160" lon="10.520240">
                <time>2017-07-15T13:14:17Z</time>
            </trkpt>
            <trkpt lat="46.260060" lon="10.520300">
                <time>2017-07-15T13:14:18Z</time>
            </trkpt>
            <trkpt lat="46.259960" lon="10.520370">
                <time>2017-07-15T13:14:19Z</time>
            </trkpt>
            <trkpt lat="46.259850" lon="10.520450">
                <time>2017-07-15T13:14:20Z</time>
            </trkpt>
            <trkpt lat="46.259760" lon="10.520530">
                <time>2017-07-15T13:14:21Z</time>
            </trkpt>
            <trkpt lat="46.259670" lon="10.520610">
                <time>2017-07-15T13:14:22Z</time>
            </trkpt>
            <trkpt lat="46.259580" lon="10.520680">
                <time>2017-07-15T13:14:23Z</time>
            </trkpt>
            <trkpt lat="46.259500" lon="10.520750">
                <time>2017-07-15T13:14:24Z</time>
            </trkpt>
            <trkpt lat="46.259420" lon="10.520820">
                <time>2017-07-15T13:14:25Z</time>
            </trkpt>
            <trkpt lat="46.259330" lon="10.520890">
                <time>2017-07-15T13:14:26Z</time>
            </trkpt>
            <trkpt lat="46.259250" lon="10.520970">
                <time>2017-07-15T13:14:27Z</time>
            </trkpt>
            <trkpt lat="46.259170" lon="10.521060">
                <time>2017-07-15T13:14:28Z</time>
            </trkpt>
            <trkpt lat="46.259110" lon="10.521150">
                <time>2017-07-15T13:14:29Z</time>
            </trkpt>
            <trkpt lat="46.259030" lon="10.521260">
                <time>2017-07-15T13:14:30Z</time>
            </trkpt>
            <trkpt lat="46.258930" lon="10.521400">
                <time>2017-07-15T13:14:31Z</time>
            </trkpt>
            <trkpt lat="46.258820" lon="10.521520">
                <time>2017-07-15T13:14:32Z</time>
            </trkpt>
            <trkpt lat="46.258700" lon="10.521630">
                <time>2017-07-15T13:14:33Z</time>
            </trkpt>
            <trkpt lat="46.258570" lon="10.521720">
                <time>2017-07-15T13:14:34Z</time>
            </trkpt>
            <trkpt lat="46.258470" lon="10.521790">
                <time>2017-07-15T13:14:35Z</time>
            </trkpt>
            <trkpt lat="46.258370" lon="10.521870">
                <time>2017-07-15T13:14:36Z</time>
            </trkpt>
            <trkpt lat="46.258260" lon="10.521980">
                <time>2017-07-15T13:14:37Z</time>
            </trkpt>
            <trkpt lat="46.258140" lon="10.522130">
                <time>2017-07-15T13:14:38Z</time>
            </trkpt>
            <trkpt lat="46.258000" lon="10.522340">
                <time>2017-07-15T13:14:39Z</time>
            </trkpt>
            <trkpt lat="46.257860" lon="10.522560">
                <time>2017-07-15T13:14:40Z</time>
            </trkpt>
            <trkpt lat="46.257710" lon="10.522780">
                <time>2017-07-15T13:14:41Z</time>
            </trkpt>
            <trkpt lat="46.257570" lon="10.522970">
                <time>2017-07-15T13:14:42Z</time>
            </trkpt>
            <trkpt lat="46.257440" lon="10.523130">
                <time>2017-07-15T13:14:43Z</time>
            </trkpt>
            <trkpt lat="46.257330" lon="10.523290">
                <time>2017-07-15T13:14:44Z</time>
            </trkpt>
            <trkpt lat="46.257250" lon="10.523420">
                <time>2017-07-15T13:14:45Z</time>
            </trkpt>
            <trkpt lat="46.257200" lon="10.523570">
                <time>2017-07-15T13:14:46Z</time>
            </trkpt>
            <trkpt lat="46.257160" lon="10.523720">
                <time>2017-07-15T13:14:47Z</time>
            </trkpt>
            <trkpt lat="46.257130" lon="10.523810">
                <time>2017-07-15T13:14:48Z</time>
            </trkpt>
            <trkpt lat="46.257090" lon="10.523880">
                <time>2017-07-15T13:14:49Z</time>
            </trkpt>
            <trkpt lat="46.257050" lon="10.523920">
                <time>2017-07-15T13:14:50Z</time>
            </trkpt>
            <trkpt lat="46.257020" lon="10.523900">
                <time>2017-07-15T13:14:51Z</time>
            </trkpt>
            <trkpt lat="46.257000" lon="10.523850">
                <time>2017-07-15T13:14:52Z</time>
            </trkpt>
            <trkpt lat="46.257060" lon="10.523720">
                <time>2017-07-15T13:14:53Z</time>
            </trkpt>
            <trkpt lat="46.257100" lon="10.523600">
                <time>2017-07-15T13:14:54Z</time>
            </trkpt>
            <trkpt lat="46.257180" lon="10.523460">
                <time>2017-07-15T13:14:55Z</time>
            </trkpt>
            <trkpt lat="46.257240" lon="10.523320">
                <time>2017-07-15T13:14:56Z</time>
            </trkpt>
            <trkpt lat="46.257330" lon="10.523130">
                <time>2017-07-15T13:14:57Z</time>
            </trkpt>
            <trkpt lat="46.257420" lon="10.522930">
                <time>2017-07-15T13:14:58Z</time>
            </trkpt>
            <trkpt lat="46.257520" lon="10.522720">
                <time>2017-07-15T13:14:59Z</time>
            </trkpt>
            <trkpt lat="46.257620" lon="10.522500">
                <time>2017-07-15T13:15:00Z</time>
            </trkpt>
            <trkpt lat="46.257710" lon="10.522310">
                <time>2017-07-15T13:15:01Z</time>
            </trkpt>
            <trkpt lat="46.257800" lon="10.522110">
                <time>2017-07-15T13:15:02Z</time>
            </trkpt>
            <trkpt lat="46.257900" lon="10.521910">
                <time>2017-07-15T13:15:03Z</time>
            </trkpt>
            <trkpt lat="46.257990" lon="10.521750">
                <time>2017-07-15T13:15:04Z</time>
            </trkpt>
            <trkpt lat="46.258090" lon="10.521600">
                <time>2017-07-15T13:15:05Z</time>
            </trkpt>
            <trkpt lat="46.258190" lon="10.521440">
                <time>2017-07-15T13:15:06Z</time>
            </trkpt>
            <trkpt lat="46.258260" lon="10.521300">
                <time>2017-07-15T13:15:07Z</time>
            </trkpt>
            <trkpt lat="46.258330" lon="10.521160">
                <time>2017-07-15T13:15:08Z</time>
            </trkpt>
            <trkpt lat="46.258390" lon="10.521070">
                <time>2017-07-15T13:15:09Z</time>
            </trkpt>
            <trkpt lat="46.258460" lon="10.521010">
                <time>2017-07-15T13:15:10Z</time>
            </trkpt>
            <trkpt lat="46.258550" lon="10.520970">
                <time>2017-07-15T13:15:11Z</time>
            </trkpt>
            <trkpt lat="46.258610" lon="10.520920">
                <time>2017-07-15T13:15:12Z</time>
            </trkpt>
            <trkpt lat="46.258650" lon="10.520840">
                <time>2017-07-15T13:15:13Z</time>
            </trkpt>
            <trkpt lat="46.258670" lon="10.520740">
                <time>2017-07-15T13:15:14Z</time>
            </trkpt>
            <trkpt lat="46.258640" lon="10.520650">
                <time>2017-07-15T13:15:15Z</time>
            </trkpt>
            <trkpt lat="46.258590" lon="10.520570">
                <time>2017-07-15T13:15:16Z</time>
            </trkpt>
            <trkpt lat="46.258520" lon="10.520560">
                <time>2017-07-15T13:15:17Z</time>
            </trkpt>
            <trkpt lat="46.258440" lon="10.520620">
                <time>2017-07-15T13:15:18Z</time>
            </trkpt>
            <trkpt lat="46.258360" lon="10.520710">
                <time>2017-07-15T13:15:19Z</time>
            </trkpt>
            <trkpt lat="46.258290" lon="10.520810">
                <time>2017-07-15T13:15:20Z</time>
            </trkpt>
            <trkpt lat="46.258210" lon="10.520940">
                <time>2017-07-15T13:15:21Z</time>
            </trkpt>
            <trkpt lat="46.258130" lon="10.521080">
                <time>2017-07-15T13:15:22Z</time>
            </trkpt>
            <trkpt lat="46.258030" lon="10.521160">
                <time>2017-07-15T13:15:23Z</time>
            </trkpt>
            <trkpt lat="46.257910" lon="10.521260">
                <time>2017-07-15T13:15:24Z</time>
            </trkpt>
            <trkpt lat="46.257800" lon="10.521350">
                <time>2017-07-15T13:15:25Z</time>
            </trkpt>
            <trkpt lat="46.257690" lon="10.521460">
                <time>2017-07-15T13:15:26Z</time>
            </trkpt>
            <trkpt lat="46.257600" lon="10.521600">
                <time>2017-07-15T13:15:27Z</time>
            </trkpt>
            <trkpt lat="46.257520" lon="10.521730">
                <time>2017-07-15T13:15:28Z</time>
            </trkpt>
            <trkpt lat="46.257450" lon="10.521860">
                <time>2017-07-15T13:15:29Z</time>
            </trkpt>
            <trkpt lat="46.257400" lon="10.522000">
                <time>2017-07-15T13:15:30Z</time>
            </trkpt>
            <trkpt lat="46.257340" lon="10.522120">
                <time>2017-07-15T13:15:31Z</time>
            </trkpt>
            <trkpt lat="46.257270" lon="10.522230">
                <time>2017-07-15T13:15:32Z</time>
            </trkpt>
            <trkpt lat="46.257210" lon="10.522320">
                <time>2017-07-15T13:15:33Z</time>
            </trkpt>
            <trkpt lat="46.257140" lon="10.522420">
                <time>2017-07-15T13:15:34Z</time>
            </trkpt>
            <trkpt lat="46.257060" lon="10.522530">
                <time>2017-07-15T13:15:35Z</time>
            </trkpt>
            <trkpt lat="46.257000" lon="10.522630">
                <time>2017-07-15T13:15:36Z</time>
            </trkpt>
            <trkpt lat="46.256940" lon="10.522720">
                <time>2017-07-15T13:15:37Z</time>
            </trkpt>
            <trkpt lat="46.256890" lon="10.522790">
                <time>2017-07-15T13:15:38Z</time>
            </trkpt>
            <trkpt lat="46.256860" lon="10.522850">
                <time>2017-07-15T13:15:39Z</time>
            </trkpt>
            <trkpt lat="46.256830" lon="10.522860">
                <time>2017-07-15T13:15:40Z</time>
            </trkpt>
            <trkpt lat="46.256820" lon="10.522850">
                <time>2017-07-15T13:15:41Z</time>
            </trkpt>
            <trkpt lat="46.256820" lon="10.522830">
                <time>2017-07-15T13:15:42Z</time>
            </trkpt>
            <trkpt lat="46.256820" lon="10.522840">
                <time>2017-07-15T13:15:43Z</time>
            </trkpt>
            <trkpt lat="46.256840" lon="10.522840">
                <time>2017-07-15T13:15:44Z</time>
            </trkpt>
            <trkpt lat="46.256840" lon="10.522840">
                <time>2017-07-15T13:15:45Z</time>
            </trkpt>
            <trkpt lat="46.256840" lon="10.522840">
                <time>2017-07-15T13:15:46Z</time>
            </trkpt>
            <trkpt lat="46.256840" lon="10.522840">
                <time>2017-07-15T13:15:47Z</time>
            </trkpt>
            <trkpt lat="46.256840" lon="10.522840">
                <time>2017-07-15T13:15:48Z</time>
            </trkpt>
            <trkpt lat="46.256840" lon="10.522840">
                <time>2017-07-15T13:15:49Z</time>
            </trkpt>
            <trkpt lat="46.256840" lon="10.522840">
                <time>2017-07-15T13:15:50Z</time>
            </trkpt>
            <trkpt lat="46.256840" lon="10.522840">
                <time>2017-07-15T13:15:51Z</time>
            </trkpt>
            <trkpt lat="46.256840" lon="10.522840">
                <time>2017-07-15T13:15:52Z</time>
            </trkpt>
            <trkpt lat="46.256840" lon="10.522840">
                <time>2017-07-15T13:15:53Z</time>
            </trkpt>
            <trkpt lat="46.256840" lon="10.522840">
                <time>2017-07-15T13:15:54Z</time>
            </trkpt>
            <trkpt lat="46.256840" lon="10.522840">
                <time>2017-07-15T13:15:55Z</time>
            </trkpt>
            <trkpt lat="46.256840" lon="10.522840">
                <time>2017-07-15T13:15:56Z</time>
            </trkpt>
            <trkpt lat="46.256840" lon="10.522840">
                <time>2017-07-15T13:15:57Z</time>
            </trkpt>
            <trkpt lat="46.256840" lon="10.522840">
                <time>2017-07-15T13:15:58Z</time>
            </trkpt>
            <trkpt lat="46.256840" lon="10.522840">
                <time>2017-07-15T13:15:59Z</time>
            </trkpt>
            <trkpt lat="46.256840" lon="10.522840">
                <time>2017-07-15T13:16:00Z</time>
            </trkpt>
            <trkpt lat="46.256840" lon="10.522840">
                <time>2017-07-15T13:16:01Z</time>
            </trkpt>
            <trkpt lat="46.256840" lon="10.522840">
                <time>2017-07-15T13:16:02Z</time>
            </trkpt>
            <trkpt lat="46.256840" lon="10.522840">
                <time>2017-07-15T13:16:03Z</time>
            </trkpt>
            <trkpt lat="46.256840" lon="10.522840">
                <time>2017-07-15T13:16:04Z</time>
            </trkpt>
            <trkpt lat="46.256840" lon="10.522840">
                <time>2017-07-15T13:16:05Z</time>
            </trkpt>
            <trkpt lat="46.256840" lon="10.522840">
                <time>2017-07-15T13:16:06Z</time>
            </trkpt>
            <trkpt lat="46.256840" lon="10.522840">
                <time>2017-07-15T13:16:07Z</time>
            </trkpt>
            <trkpt lat="46.256840" lon="10.522840">
                <time>2017-07-15T13:16:08Z</time>
            </trkpt>
            <trkpt lat="46.256840" lon="10.522840">
                <time>2017-07-15T13:16:09Z</time>
            </trkpt>
            <trkpt lat="46.256840" lon="10.522840">
                <time>2017-07-15T13:16:10Z</time>
            </trkpt>
            <trkpt lat="46.256840" lon="10.522840">
                <time>2017-07-15T13:16:11Z</time>
            </trkpt>
            <trkpt lat="46.256840" lon="10.522840">
                <time>2017-07-15T13:16:12Z</time>
            </trkpt>
            <trkpt lat="46.256840" lon="10.522840">
                <time>2017-07-15T13:16:13Z</time>
            </trkpt>
            <trkpt lat="46.256850" lon="10.522840">
                <time>2017-07-15T13:16:14Z</time>
            </trkpt>
            <trkpt lat="46.256860" lon="10.522830">
                <time>2017-07-15T13:16:15Z</time>
            </trkpt>
            <trkpt lat="46.256860" lon="10.522830">
                <time>2017-07-15T13:16:16Z</time>
            </trkpt>
            <trkpt lat="46.256860" lon="10.522830">
                <time>2017-07-15T13:16:17Z</time>
            </trkpt>
            <trkpt lat="46.256860" lon="10.522830">
                <time>2017-07-15T13:16:18Z</time>
            </trkpt>
            <trkpt lat="46.256860" lon="10.522830">
                <time>2017-07-15T13:16:19Z</time>
            </trkpt>
            <trkpt lat="46.256860" lon="10.522830">
                <time>2017-07-15T13:16:20Z</time>
            </trkpt>
            <trkpt lat="46.256860" lon="10.522830">
                <time>2017-07-15T13:16:21Z</time>
            </trkpt>
            <trkpt lat="46.256860" lon="10.522830">
                <time>2017-07-15T13:16:22Z</time>
            </trkpt>
            <trkpt lat="46.256850" lon="10.522820">
                <time>2017-07-15T13:16:23Z</time>
            </trkpt>
            <trkpt lat="46.256850" lon="10.522780">
                <time>2017-07-15T13:16:24Z</time>
            </trkpt>
            <trkpt lat="46.256860" lon="10.522740">
                <time>2017-07-15T13:16:25Z</time>
            </trkpt>
            <trkpt lat="46.256890" lon="10.522690">
                <time>2017-07-15T13:16:26Z</time>
            </trkpt>
            <trkpt lat="46.256940" lon="10.522640">
                <time>2017-07-15T13:16:27Z</time>
            </trkpt>
            <trkpt lat="46.257000" lon="10.522560">
                <time>2017-07-15T13:16:28Z</time>
            </trkpt>
            <trkpt lat="46.257060" lon="10.522480">
                <time>2017-07-15T13:16:29Z</time>
            </trkpt>
            <trkpt lat="46.257120" lon="10.522390">
                <time>2017-07-15T13:16:30Z</time>
            </trkpt>
            <trkpt lat="46.257180" lon="10.522280">
                <time>2017-07-15T13:16:31Z</time>
            </trkpt>
            <trkpt lat="46.257230" lon="10.522180">
                <time>2017-07-15T13:16:32Z</time>
            </trkpt>
            <trkpt lat="46.257270" lon="10.522060">
                <time>2017-07-15T13:16:33Z</time>
            </trkpt>
            <trkpt lat="46.257300" lon="10.521920">
                <time>2017-07-15T13:16:34Z</time>
            </trkpt>
            <trkpt lat="46.257320" lon="10.521750">
                <time>2017-07-15T13:16:35Z</time>
            </trkpt>
            <trkpt lat="46.257360" lon="10.521570">
                <time>2017-07-15T13:16:36Z</time>
            </trkpt>
            <trkpt lat="46.257400" lon="10.521430">
                <time>2017-07-15T13:16:37Z</time>
            </trkpt>
            <trkpt lat="46.257460" lon="10.521270">
                <time>2017-07-15T13:16:38Z</time>
            </trkpt>
            <trkpt lat="46.257520" lon="10.521120">
                <time>2017-07-15T13:16:39Z</time>
            </trkpt>
            <trkpt lat="46.257590" lon="10.520990">
                <time>2017-07-15T13:16:40Z</time>
            </trkpt>
            <trkpt lat="46.257670" lon="10.520820">
                <time>2017-07-15T13:16:41Z</time>
            </trkpt>
            <trkpt lat="46.257780" lon="10.520630">
                <time>2017-07-15T13:16:42Z</time>
            </trkpt>
            <trkpt lat="46.257880" lon="10.520420">
                <time>2017-07-15T13:16:43Z</time>
            </trkpt>
            <trkpt lat="46.258010" lon="10.520180">
                <time>2017-07-15T13:16:44Z</time>
            </trkpt>
            <trkpt lat="46.258120" lon="10.519970">
                <time>2017-07-15T13:16:45Z</time>
            </trkpt>
            <trkpt lat="46.258250" lon="10.519750">
                <time>2017-07-15T13:16:46Z</time>
            </trkpt>
            <trkpt lat="46.258380" lon="10.519540">
                <time>2017-07-15T13:16:47Z</time>
            </trkpt>
            <trkpt lat="46.258490" lon="10.519350">
                <time>2017-07-15T13:16:48Z</time>
            </trkpt>
            <trkpt lat="46.258600" lon="10.519150">
                <time>2017-07-15T13:16:49Z</time>
            </trkpt>
            <trkpt lat="46.258700" lon="10.518950">
                <time>2017-07-15T13:16:50Z</time>
            </trkpt>
            <trkpt lat="46.258800" lon="10.518760">
                <time>2017-07-15T13:16:51Z</time>
            </trkpt>
            <trkpt lat="46.258900" lon="10.518560">
                <time>2017-07-15T13:16:52Z</time>
            </trkpt>
            <trkpt lat="46.258990" lon="10.518380">
                <time>2017-07-15T13:16:53Z</time>
            </trkpt>
            <trkpt lat="46.259090" lon="10.518190">
                <time>2017-07-15T13:16:54Z</time>
            </trkpt>
            <trkpt lat="46.259180" lon="10.518000">
                <time>2017-07-15T13:16:55Z</time>
            </trkpt>
            <trkpt lat="46.259270" lon="10.517840">
                <time>2017-07-15T13:16:56Z</time>
            </trkpt>
            <trkpt lat="46.259360" lon="10.517680">
                <time>2017-07-15T13:16:57Z</time>
            </trkpt>
            <trkpt lat="46.259480" lon="10.517530">
                <time>2017-07-15T13:16:58Z</time>
            </trkpt>
            <trkpt lat="46.259590" lon="10.517410">
                <time>2017-07-15T13:16:59Z</time>
            </trkpt>
            <trkpt lat="46.259720" lon="10.517300">
                <time>2017-07-15T13:17:00Z</time>
            </trkpt>
            <trkpt lat="46.259840" lon="10.517230">
                <time>2017-07-15T13:17:01Z</time>
            </trkpt>
            <trkpt lat="46.259980" lon="10.517180">
                <time>2017-07-15T13:17:02Z</time>
            </trkpt>
            <trkpt lat="46.260110" lon="10.517130">
                <time>2017-07-15T13:17:03Z</time>
            </trkpt>
            <trkpt lat="46.260230" lon="10.517090">
                <time>2017-07-15T13:17:04Z</time>
            </trkpt>
            <trkpt lat="46.260370" lon="10.517060">
                <time>2017-07-15T13:17:05Z</time>
            </trkpt>
            <trkpt lat="46.260500" lon="10.517050">
                <time>2017-07-15T13:17:06Z</time>
            </trkpt>
            <trkpt lat="46.260640" lon="10.517030">
                <time>2017-07-15T13:17:07Z</time>
            </trkpt>
            <trkpt lat="46.260780" lon="10.517010">
                <time>2017-07-15T13:17:08Z</time>
            </trkpt>
            <trkpt lat="46.260900" lon="10.517000">
                <time>2017-07-15T13:17:09Z</time>
            </trkpt>
            <trkpt lat="46.261010" lon="10.517010">
                <time>2017-07-15T13:17:10Z</time>
            </trkpt>
            <trkpt lat="46.261140" lon="10.517050">
                <time>2017-07-15T13:17:11Z</time>
            </trkpt>
            <trkpt lat="46.261240" lon="10.517130">
                <time>2017-07-15T13:17:12Z</time>
            </trkpt>
            <trkpt lat="46.261360" lon="10.517230">
                <time>2017-07-15T13:17:13Z</time>
            </trkpt>
            <trkpt lat="46.261470" lon="10.517340">
                <time>2017-07-15T13:17:14Z</time>
            </trkpt>
            <trkpt lat="46.261590" lon="10.517430">
                <time>2017-07-15T13:17:15Z</time>
            </trkpt>
            <trkpt lat="46.261720" lon="10.517500">
                <time>2017-07-15T13:17:16Z</time>
            </trkpt>
            <trkpt lat="46.261850" lon="10.517560">
                <time>2017-07-15T13:17:17Z</time>
            </trkpt>
            <trkpt lat="46.262000" lon="10.517580">
                <time>2017-07-15T13:17:18Z</time>
            </trkpt>
            <trkpt lat="46.262150" lon="10.517580">
                <time>2017-07-15T13:17:19Z</time>
            </trkpt>
            <trkpt lat="46.262280" lon="10.517550">
                <time>2017-07-15T13:17:20Z</time>
            </trkpt>
            <trkpt lat="46.262410" lon="10.517520">
                <time>2017-07-15T13:17:21Z</time>
            </trkpt>
            <trkpt lat="46.262540" lon="10.517470">
                <time>2017-07-15T13:17:22Z</time>
            </trkpt>
            <trkpt lat="46.262670" lon="10.517420">
                <time>2017-07-15T13:17:23Z</time>
            </trkpt>
            <trkpt lat="46.262810" lon="10.517360">
                <time>2017-07-15T13:17:24Z</time>
            </trkpt>
            <trkpt lat="46.262930" lon="10.517300">
                <time>2017-07-15T13:17:25Z</time>
            </trkpt>
            <trkpt lat="46.263050" lon="10.517240">
                <time>2017-07-15T13:17:26Z</time>
            </trkpt>
            <trkpt lat="46.263180" lon="10.517180">
                <time>2017-07-15T13:17:27Z</time>
            </trkpt>
            <trkpt lat="46.263290" lon="10.517120">
                <time>2017-07-15T13:17:28Z</time>
            </trkpt>
            <trkpt lat="46.263410" lon="10.517070">
                <time>2017-07-15T13:17:29Z</time>
            </trkpt>
            <trkpt lat="46.263520" lon="10.517030">
                <time>2017-07-15T13:17:30Z</time>
            </trkpt>
            <trkpt lat="46.263620" lon="10.517030">
                <time>2017-07-15T13:17:31Z</time>
            </trkpt>
            <trkpt lat="46.263720" lon="10.517060">
                <time>2017-07-15T13:17:32Z</time>
            </trkpt>
            <trkpt lat="46.263790" lon="10.517100">
                <time>2017-07-15T13:17:33Z</time>
            </trkpt>
            <trkpt lat="46.263880" lon="10.517140">
                <time>2017-07-15T13:17:34Z</time>
            </trkpt>
            <trkpt lat="46.263960" lon="10.517180">
                <time>2017-07-15T13:17:35Z</time>
            </trkpt>
            <trkpt lat="46.264030" lon="10.517210">
                <time>2017-07-15T13:17:36Z</time>
            </trkpt>
            <trkpt lat="46.264080" lon="10.517240">
                <time>2017-07-15T13:17:37Z</time>
            </trkpt>
            <trkpt lat="46.264130" lon="10.517270">
                <time>2017-07-15T13:17:38Z</time>
            </trkpt>
            <trkpt lat="46.264170" lon="10.517280">
                <time>2017-07-15T13:17:39Z</time>
            </trkpt>
            <trkpt lat="46.264190" lon="10.517290">
                <time>2017-07-15T13:17:40Z</time>
            </trkpt>
            <trkpt lat="46.264190" lon="10.517290">
                <time>2017-07-15T13:17:41Z</time>
            </trkpt>
            <trkpt lat="46.264190" lon="10.517290">
                <time>2017-07-15T13:17:42Z</time>
            </trkpt>
            <trkpt lat="46.264190" lon="10.517290">
                <time>2017-07-15T13:17:43Z</time>
            </trkpt>
            <trkpt lat="46.264190" lon="10.517290">
                <time>2017-07-15T13:17:44Z</time>
            </trkpt>
            <trkpt lat="46.264190" lon="10.517300">
                <time>2017-07-15T13:17:45Z</time>
            </trkpt>
            <trkpt lat="46.264210" lon="10.517300">
                <time>2017-07-15T13:17:46Z</time>
            </trkpt>
            <trkpt lat="46.264240" lon="10.517320">
                <time>2017-07-15T13:17:47Z</time>
            </trkpt>
            <trkpt lat="46.264300" lon="10.517350">
                <time>2017-07-15T13:17:48Z</time>
            </trkpt>
            <trkpt lat="46.264370" lon="10.517390">
                <time>2017-07-15T13:17:49Z</time>
            </trkpt>
            <trkpt lat="46.264460" lon="10.517420">
                <time>2017-07-15T13:17:50Z</time>
            </trkpt>
            <trkpt lat="46.264550" lon="10.517470">
                <time>2017-07-15T13:17:51Z</time>
            </trkpt>
            <trkpt lat="46.264640" lon="10.517510">
                <time>2017-07-15T13:17:52Z</time>
            </trkpt>
            <trkpt lat="46.264740" lon="10.517560">
                <time>2017-07-15T13:17:53Z</time>
            </trkpt>
            <trkpt lat="46.264840" lon="10.517610">
                <time>2017-07-15T13:17:54Z</time>
            </trkpt>
            <trkpt lat="46.264940" lon="10.517660">
                <time>2017-07-15T13:17:55Z</time>
            </trkpt>
            <trkpt lat="46.265030" lon="10.517710">
                <time>2017-07-15T13:17:56Z</time>
            </trkpt>
            <trkpt lat="46.265120" lon="10.517750">
                <time>2017-07-15T13:17:57Z</time>
            </trkpt>
            <trkpt lat="46.265210" lon="10.517800">
                <time>2017-07-15T13:17:58Z</time>
            </trkpt>
            <trkpt lat="46.265300" lon="10.517840">
                <time>2017-07-15T13:17:59Z</time>
            </trkpt>
            <trkpt lat="46.265390" lon="10.517880">
                <time>2017-07-15T13:18:00Z</time>
            </trkpt>
            <trkpt lat="46.265490" lon="10.517910">
                <time>2017-07-15T13:18:01Z</time>
            </trkpt>
            <trkpt lat="46.265600" lon="10.517910">
                <time>2017-07-15T13:18:02Z</time>
            </trkpt>
            <trkpt lat="46.265690" lon="10.517880">
                <time>2017-07-15T13:18:03Z</time>
            </trkpt>
            <trkpt lat="46.265780" lon="10.517810">
                <time>2017-07-15T13:18:04Z</time>
            </trkpt>
            <trkpt lat="46.265840" lon="10.517730">
                <time>2017-07-15T13:18:05Z</time>
            </trkpt>
            <trkpt lat="46.265900" lon="10.517650">
                <time>2017-07-15T13:18:06Z</time>
            </trkpt>
            <trkpt lat="46.265970" lon="10.517560">
                <time>2017-07-15T13:18:07Z</time>
            </trkpt>
            <trkpt lat="46.266050" lon="10.517490">
                <time>2017-07-15T13:18:08Z</time>
            </trkpt>
            <trkpt lat="46.266150" lon="10.517430">
                <time>2017-07-15T13:18:09Z</time>
            </trkpt>
            <trkpt lat="46.266270" lon="10.517380">
                <time>2017-07-15T13:18:10Z</time>
            </trkpt>
            <trkpt lat="46.266390" lon="10.517350">
                <time>2017-07-15T13:18:11Z</time>
            </trkpt>
            <trkpt lat="46.266520" lon="10.517340">
                <time>2017-07-15T13:18:12Z</time>
            </trkpt>
            <trkpt lat="46.266640" lon="10.517330">
                <time>2017-07-15T13:18:13Z</time>
            </trkpt>
            <trkpt lat="46.266760" lon="10.517320">
                <time>2017-07-15T13:18:14Z</time>
            </trkpt>
            <trkpt lat="46.266890" lon="10.517310">
                <time>2017-07-15T13:18:15Z</time>
            </trkpt>
            <trkpt lat="46.267000" lon="10.517300">
                <time>2017-07-15T13:18:16Z</time>
            </trkpt>
            <trkpt lat="46.267110" lon="10.517290">
                <time>2017-07-15T13:18:17Z</time>
            </trkpt>
            <trkpt lat="46.267230" lon="10.517310">
                <time>2017-07-15T13:18:18Z</time>
            </trkpt>
            <trkpt lat="46.267340" lon="10.517350">
                <time>2017-07-15T13:18:19Z</time>
            </trkpt>
            <trkpt lat="46.267480" lon="10.517420">
                <time>2017-07-15T13:18:20Z</time>
            </trkpt>
            <trkpt lat="46.267600" lon="10.517490">
                <time>2017-07-15T13:18:21Z</time>
            </trkpt>
            <trkpt lat="46.267730" lon="10.517580">
                <time>2017-07-15T13:18:22Z</time>
            </trkpt>
            <trkpt lat="46.267880" lon="10.517650">
                <time>2017-07-15T13:18:23Z</time>
            </trkpt>
            <trkpt lat="46.268010" lon="10.517690">
                <time>2017-07-15T13:18:24Z</time>
            </trkpt>
            <trkpt lat="46.268170" lon="10.517700">
                <time>2017-07-15T13:18:25Z</time>
            </trkpt>
            <trkpt lat="46.268320" lon="10.517690">
                <time>2017-07-15T13:18:26Z</time>
            </trkpt>
            <trkpt lat="46.268480" lon="10.517630">
                <time>2017-07-15T13:18:27Z</time>
            </trkpt>
            <trkpt lat="46.268650" lon="10.517550">
                <time>2017-07-15T13:18:28Z</time>
            </trkpt>
            <trkpt lat="46.268800" lon="10.517500">
                <time>2017-07-15T13:18:29Z</time>
            </trkpt>
            <trkpt lat="46.268980" lon="10.517470">
                <time>2017-07-15T13:18:30Z</time>
            </trkpt>
            <trkpt lat="46.269160" lon="10.517470">
                <time>2017-07-15T13:18:31Z</time>
            </trkpt>
            <trkpt lat="46.269310" lon="10.517490">
                <time>2017-07-15T13:18:32Z</time>
            </trkpt>
            <trkpt lat="46.269470" lon="10.517530">
                <time>2017-07-15T13:18:33Z</time>
            </trkpt>
            <trkpt lat="46.269640" lon="10.517580">
                <time>2017-07-15T13:18:34Z</time>
            </trkpt>
            <trkpt lat="46.269790" lon="10.517610">
                <time>2017-07-15T13:18:35Z</time>
            </trkpt>
            <trkpt lat="46.269970" lon="10.517610">
                <time>2017-07-15T13:18:36Z</time>
            </trkpt>
            <trkpt lat="46.270150" lon="10.517600">
                <time>2017-07-15T13:18:37Z</time>
            </trkpt>
            <trkpt lat="46.270330" lon="10.517580">
                <time>2017-07-15T13:18:38Z</time>
            </trkpt>
            <trkpt lat="46.270540" lon="10.517550">
                <time>2017-07-15T13:18:39Z</time>
            </trkpt>
            <trkpt lat="46.270720" lon="10.517520">
                <time>2017-07-15T13:18:40Z</time>
            </trkpt>
            <trkpt lat="46.270890" lon="10.517470">
                <time>2017-07-15T13:18:41Z</time>
            </trkpt>
            <trkpt lat="46.271060" lon="10.517410">
                <time>2017-07-15T13:18:42Z</time>
            </trkpt>
            <trkpt lat="46.271230" lon="10.517380">
                <time>2017-07-15T13:18:43Z</time>
            </trkpt>
            <trkpt lat="46.271410" lon="10.517370">
                <time>2017-07-15T13:18:44Z</time>
            </trkpt>
            <trkpt lat="46.271570" lon="10.517380">
                <time>2017-07-15T13:18:45Z</time>
            </trkpt>
            <trkpt lat="46.271750" lon="10.517400">
                <time>2017-07-15T13:18:46Z</time>
            </trkpt>
            <trkpt lat="46.271940" lon="10.517400">
                <time>2017-07-15T13:18:47Z</time>
            </trkpt>
            <trkpt lat="46.272100" lon="10.517390">
                <time>2017-07-15T13:18:48Z</time>
            </trkpt>
            <trkpt lat="46.272270" lon="10.517390">
                <time>2017-07-15T13:18:49Z</time>
            </trkpt>
            <trkpt lat="46.272450" lon="10.517410">
                <time>2017-07-15T13:18:50Z</time>
            </trkpt>
            <trkpt lat="46.272590" lon="10.517460">
                <time>2017-07-15T13:18:51Z</time>
            </trkpt>
            <trkpt lat="46.272750" lon="10.517530">
                <time>2017-07-15T13:18:52Z</time>
            </trkpt>
            <trkpt lat="46.272880" lon="10.517600">
                <time>2017-07-15T13:18:53Z</time>
            </trkpt>
            <trkpt lat="46.273010" lon="10.517710">
                <time>2017-07-15T13:18:54Z</time>
            </trkpt>
            <trkpt lat="46.273140" lon="10.517840">
                <time>2017-07-15T13:18:55Z</time>
            </trkpt>
            <trkpt lat="46.273250" lon="10.517960">
                <time>2017-07-15T13:18:56Z</time>
            </trkpt>
            <trkpt lat="46.273360" lon="10.518090">
                <time>2017-07-15T13:18:57Z</time>
            </trkpt>
            <trkpt lat="46.273480" lon="10.518210">
                <time>2017-07-15T13:18:58Z</time>
            </trkpt>
            <trkpt lat="46.273590" lon="10.518340">
                <time>2017-07-15T13:18:59Z</time>
            </trkpt>
            <trkpt lat="46.273680" lon="10.518480">
                <time>2017-07-15T13:19:00Z</time>
            </trkpt>
            <trkpt lat="46.273750" lon="10.518630">
                <time>2017-07-15T13:19:01Z</time>
            </trkpt>
            <trkpt lat="46.273810" lon="10.518780">
                <time>2017-07-15T13:19:02Z</time>
            </trkpt>
            <trkpt lat="46.273860" lon="10.518940">
                <time>2017-07-15T13:19:03Z</time>
            </trkpt>
            <trkpt lat="46.273910" lon="10.519060">
                <time>2017-07-15T13:19:04Z</time>
            </trkpt>
            <trkpt lat="46.273980" lon="10.519170">
                <time>2017-07-15T13:19:05Z</time>
            </trkpt>
            <trkpt lat="46.274060" lon="10.519250">
                <time>2017-07-15T13:19:06Z</time>
            </trkpt>
            <trkpt lat="46.274150" lon="10.519280">
                <time>2017-07-15T13:19:07Z</time>
            </trkpt>
            <trkpt lat="46.274260" lon="10.519270">
                <time>2017-07-15T13:19:08Z</time>
            </trkpt>
            <trkpt lat="46.274360" lon="10.519240">
                <time>2017-07-15T13:19:09Z</time>
            </trkpt>
            <trkpt lat="46.274470" lon="10.519220">
                <time>2017-07-15T13:19:10Z</time>
            </trkpt>
            <trkpt lat="46.274600" lon="10.519210">
                <time>2017-07-15T13:19:11Z</time>
            </trkpt>
            <trkpt lat="46.274710" lon="10.519220">
                <time>2017-07-15T13:19:12Z</time>
            </trkpt>
            <trkpt lat="46.274830" lon="10.519270">
                <time>2017-07-15T13:19:13Z</time>
            </trkpt>
            <trkpt lat="46.274940" lon="10.519320">
                <time>2017-07-15T13:19:14Z</time>
            </trkpt>
            <trkpt lat="46.275060" lon="10.519360">
                <time>2017-07-15T13:19:15Z</time>
            </trkpt>
            <trkpt lat="46.275190" lon="10.519390">
                <time>2017-07-15T13:19:16Z</time>
            </trkpt>
            <trkpt lat="46.275300" lon="10.519410">
                <time>2017-07-15T13:19:17Z</time>
            </trkpt>
            <trkpt lat="46.275420" lon="10.519440">
                <time>2017-07-15T13:19:18Z</time>
            </trkpt>
            <trkpt lat="46.275550" lon="10.519470">
                <time>2017-07-15T13:19:19Z</time>
            </trkpt>
            <trkpt lat="46.275670" lon="10.519520">
                <time>2017-07-15T13:19:20Z</time>
            </trkpt>
            <trkpt lat="46.275800" lon="10.519580">
                <time>2017-07-15T13:19:21Z</time>
            </trkpt>
            <trkpt lat="46.275940" lon="10.519650">
                <time>2017-07-15T13:19:22Z</time>
            </trkpt>
            <trkpt lat="46.276070" lon="10.519690">
                <time>2017-07-15T13:19:23Z</time>
            </trkpt>
            <trkpt lat="46.276230" lon="10.519730">
                <time>2017-07-15T13:19:24Z</time>
            </trkpt>
            <trkpt lat="46.276380" lon="10.519750">
                <time>2017-07-15T13:19:25Z</time>
            </trkpt>
            <trkpt lat="46.276530" lon="10.519770">
                <time>2017-07-15T13:19:26Z</time>
            </trkpt>
            <trkpt lat="46.276700" lon="10.519760">
                <time>2017-07-15T13:19:27Z</time>
            </trkpt>
            <trkpt lat="46.276840" lon="10.519720">
                <time>2017-07-15T13:19:28Z</time>
            </trkpt>
            <trkpt lat="46.277000" lon="10.519660">
                <time>2017-07-15T13:19:29Z</time>
            </trkpt>
            <trkpt lat="46.277150" lon="10.519590">
                <time>2017-07-15T13:19:30Z</time>
            </trkpt>
            <trkpt lat="46.277310" lon="10.519530">
                <time>2017-07-15T13:19:31Z</time>
            </trkpt>
            <trkpt lat="46.277490" lon="10.519480">
                <time>2017-07-15T13:19:32Z</time>
            </trkpt>
            <trkpt lat="46.277650" lon="10.519430">
                <time>2017-07-15T13:19:33Z</time>
            </trkpt>
            <trkpt lat="46.277820" lon="10.519400">
                <time>2017-07-15T13:19:34Z</time>
            </trkpt>
            <trkpt lat="46.278000" lon="10.519380">
                <time>2017-07-15T13:19:35Z</time>
            </trkpt>
            <trkpt lat="46.278170" lon="10.519380">
                <time>2017-07-15T13:19:36Z</time>
            </trkpt>
            <trkpt lat="46.278350" lon="10.519390">
                <time>2017-07-15T13:19:37Z</time>
            </trkpt>
            <trkpt lat="46.278550" lon="10.519390">
                <time>2017-07-15T13:19:38Z</time>
            </trkpt>
            <trkpt lat="46.278720" lon="10.519410">
                <time>2017-07-15T13:19:39Z</time>
            </trkpt>
            <trkpt lat="46.278920" lon="10.519430">
                <time>2017-07-15T13:19:40Z</time>
            </trkpt>
            <trkpt lat="46.279090" lon="10.519450">
                <time>2017-07-15T13:19:41Z</time>
            </trkpt>
            <trkpt lat="46.279290" lon="10.519500">
                <time>2017-07-15T13:19:42Z</time>
            </trkpt>
            <trkpt lat="46.279470" lon="10.519550">
                <time>2017-07-15T13:19:43Z</time>
            </trkpt>
            <trkpt lat="46.279630" lon="10.519600">
                <time>2017-07-15T13:19:44Z</time>
            </trkpt>
            <trkpt lat="46.279800" lon="10.519640">
                <time>2017-07-15T13:19:45Z</time>
            </trkpt>
            <trkpt lat="46.279960" lon="10.519650">
                <time>2017-07-15T13:19:46Z</time>
            </trkpt>
            <trkpt lat="46.280120" lon="10.519620">
                <time>2017-07-15T13:19:47Z</time>
            </trkpt>
            <trkpt lat="46.280300" lon="10.519550">
                <time>2017-07-15T13:19:48Z</time>
            </trkpt>
            <trkpt lat="46.280460" lon="10.519480">
                <time>2017-07-15T13:19:49Z</time>
            </trkpt>
            <trkpt lat="46.280620" lon="10.519390">
                <time>2017-07-15T13:19:50Z</time>
            </trkpt>
            <trkpt lat="46.280780" lon="10.519290">
                <time>2017-07-15T13:19:51Z</time>
            </trkpt>
            <trkpt lat="46.280920" lon="10.519170">
                <time>2017-07-15T13:19:52Z</time>
            </trkpt>
            <trkpt lat="46.281070" lon="10.519050">
                <time>2017-07-15T13:19:53Z</time>
            </trkpt>
            <trkpt lat="46.281220" lon="10.518930">
                <time>2017-07-15T13:19:54Z</time>
            </trkpt>
            <trkpt lat="46.281360" lon="10.518850">
                <time>2017-07-15T13:19:55Z</time>
            </trkpt>
            <trkpt lat="46.281510" lon="10.518800">
                <time>2017-07-15T13:19:56Z</time>
            </trkpt>
            <trkpt lat="46.281650" lon="10.518780">
                <time>2017-07-15T13:19:57Z</time>
            </trkpt>
            <trkpt lat="46.281800" lon="10.518750">
                <time>2017-07-15T13:19:58Z</time>
            </trkpt>
            <trkpt lat="46.281960" lon="10.518730">
                <time>2017-07-15T13:19:59Z</time>
            </trkpt>
            <trkpt lat="46.282100" lon="10.518720">
                <time>2017-07-15T13:20:00Z</time>
            </trkpt>
            <trkpt lat="46.282230" lon="10.518700">
                <time>2017-07-15T13:20:01Z</time>
            </trkpt>
            <trkpt lat="46.282350" lon="10.518690">
                <time>2017-07-15T13:20:02Z</time>
            </trkpt>
            <trkpt lat="46.282470" lon="10.518680">
                <time>2017-07-15T13:20:03Z</time>
            </trkpt>
            <trkpt lat="46.282590" lon="10.518670">
                <time>2017-07-15T13:20:04Z</time>
            </trkpt>
            <trkpt lat="46.282700" lon="10.518680">
                <time>2017-07-15T13:20:05Z</time>
            </trkpt>
            <trkpt lat="46.282830" lon="10.518730">
                <time>2017-07-15T13:20:06Z</time>
            </trkpt>
            <trkpt lat="46.282970" lon="10.518780">
                <time>2017-07-15T13:20:07Z</time>
            </trkpt>
            <trkpt lat="46.283090" lon="10.518830">
                <time>2017-07-15T13:20:08Z</time>
            </trkpt>
            <trkpt lat="46.283230" lon="10.518860">
                <time>2017-07-15T13:20:09Z</time>
            </trkpt>
            <trkpt lat="46.283370" lon="10.518890">
                <time>2017-07-15T13:20:10Z</time>
            </trkpt>
            <trkpt lat="46.283520" lon="10.518900">
                <time>2017-07-15T13:20:11Z</time>
            </trkpt>
            <trkpt lat="46.283720" lon="10.518900">
                <time>2017-07-15T13:20:12Z</time>
            </trkpt>
            <trkpt lat="46.283900" lon="10.518890">
                <time>2017-07-15T13:20:13Z</time>
            </trkpt>
            <trkpt lat="46.284090" lon="10.518880">
                <time>2017-07-15T13:20:14Z</time>
            </trkpt>
            <trkpt lat="46.284270" lon="10.518860">
                <time>2017-07-15T13:20:15Z</time>
            </trkpt>
            <trkpt lat="46.284420" lon="10.518810">
                <time>2017-07-15T13:20:16Z</time>
            </trkpt>
            <trkpt lat="46.284560" lon="10.518710">
                <time>2017-07-15T13:20:17Z</time>
            </trkpt>
            <trkpt lat="46.284670" lon="10.518560">
                <time>2017-07-15T13:20:18Z</time>
            </trkpt>
            <trkpt lat="46.284790" lon="10.518400">
                <time>2017-07-15T13:20:19Z</time>
            </trkpt>
            <trkpt lat="46.284950" lon="10.518270">
                <time>2017-07-15T13:20:20Z</time>
            </trkpt>
            <trkpt lat="46.285100" lon="10.518140">
                <time>2017-07-15T13:20:21Z</time>
            </trkpt>
            <trkpt lat="46.285270" lon="10.518050">
                <time>2017-07-15T13:20:22Z</time>
            </trkpt>
            <trkpt lat="46.285460" lon="10.517970">
                <time>2017-07-15T13:20:23Z</time>
            </trkpt>
            <trkpt lat="46.285630" lon="10.517900">
                <time>2017-07-15T13:20:24Z</time>
            </trkpt>
            <trkpt lat="46.285830" lon="10.517830">
                <time>2017-07-15T13:20:25Z</time>
            </trkpt>
            <trkpt lat="46.286020" lon="10.517760">
                <time>2017-07-15T13:20:26Z</time>
            </trkpt>
            <trkpt lat="46.286190" lon="10.517700">
                <time>2017-07-15T13:20:27Z</time>
            </trkpt>
            <trkpt lat="46.286390" lon="10.517640">
                <time>2017-07-15T13:20:28Z</time>
            </trkpt>
            <trkpt lat="46.286550" lon="10.517580">
                <time>2017-07-15T13:20:29Z</time>
            </trkpt>
            <trkpt lat="46.286710" lon="10.517540">
                <time>2017-07-15T13:20:30Z</time>
            </trkpt>
            <trkpt lat="46.286860" lon="10.517490">
                <time>2017-07-15T13:20:31Z</time>
            </trkpt>
            <trkpt lat="46.286980" lon="10.517460">
                <time>2017-07-15T13:20:32Z</time>
            </trkpt>
            <trkpt lat="46.287090" lon="10.517460">
                <time>2017-07-15T13:20:33Z</time>
            </trkpt>
            <trkpt lat="46.287190" lon="10.517500">
                <time>2017-07-15T13:20:34Z</time>
            </trkpt>
            <trkpt lat="46.287250" lon="10.517580">
                <time>2017-07-15T13:20:35Z</time>
            </trkpt>
            <trkpt lat="46.287280" lon="10.517710">
                <time>2017-07-15T13:20:36Z</time>
            </trkpt>
            <trkpt lat="46.287270" lon="10.517830">
                <time>2017-07-15T13:20:37Z</time>
            </trkpt>
            <trkpt lat="46.287220" lon="10.517960">
                <time>2017-07-15T13:20:38Z</time>
            </trkpt>
            <trkpt lat="46.287130" lon="10.518090">
                <time>2017-07-15T13:20:39Z</time>
            </trkpt>
            <trkpt lat="46.287020" lon="10.518180">
                <time>2017-07-15T13:20:40Z</time>
            </trkpt>
            <trkpt lat="46.286880" lon="10.518260">
                <time>2017-07-15T13:20:41Z</time>
            </trkpt>
            <trkpt lat="46.286710" lon="10.518310">
                <time>2017-07-15T13:20:42Z</time>
            </trkpt>
            <trkpt lat="46.286560" lon="10.518360">
                <time>2017-07-15T13:20:43Z</time>
            </trkpt>
            <trkpt lat="46.286400" lon="10.518400">
                <time>2017-07-15T13:20:44Z</time>
            </trkpt>
            <trkpt lat="46.286290" lon="10.518450">
                <time>2017-07-15T13:20:45Z</time>
            </trkpt>
            <trkpt lat="46.286180" lon="10.518540">
                <time>2017-07-15T13:20:46Z</time>
            </trkpt>
            <trkpt lat="46.286090" lon="10.518680">
                <time>2017-07-15T13:20:47Z</time>
            </trkpt>
            <trkpt lat="46.286020" lon="10.518860">
                <time>2017-07-15T13:20:48Z</time>
            </trkpt>
            <trkpt lat="46.285960" lon="10.519060">
                <time>2017-07-15T13:20:49Z</time>
            </trkpt>
            <trkpt lat="46.285920" lon="10.519280">
                <time>2017-07-15T13:20:50Z</time>
            </trkpt>
            <trkpt lat="46.285900" lon="10.519510">
                <time>2017-07-15T13:20:51Z</time>
            </trkpt>
            <trkpt lat="46.285840" lon="10.519750">
                <time>2017-07-15T13:20:52Z</time>
            </trkpt>
            <trkpt lat="46.285770" lon="10.519940">
                <time>2017-07-15T13:20:53Z</time>
            </trkpt>
            <trkpt lat="46.285680" lon="10.520130">
                <time>2017-07-15T13:20:54Z</time>
            </trkpt>
            <trkpt lat="46.285590" lon="10.520320">
                <time>2017-07-15T13:20:55Z</time>
            </trkpt>
            <trkpt lat="46.285500" lon="10.520450">
                <time>2017-07-15T13:20:56Z</time>
            </trkpt>
            <trkpt lat="46.285430" lon="10.520570">
                <time>2017-07-15T13:20:57Z</time>
            </trkpt>
            <trkpt lat="46.285360" lon="10.520660">
                <time>2017-07-15T13:20:58Z</time>
            </trkpt>
            <trkpt lat="46.285340" lon="10.520730">
                <time>2017-07-15T13:20:59Z</time>
            </trkpt>
            <trkpt lat="46.285350" lon="10.520810">
                <time>2017-07-15T13:21:00Z</time>
            </trkpt>
            <trkpt lat="46.285380" lon="10.520850">
                <time>2017-07-15T13:21:01Z</time>
            </trkpt>
            <trkpt lat="46.285440" lon="10.520840">
                <time>2017-07-15T13:21:02Z</time>
            </trkpt>
            <trkpt lat="46.285510" lon="10.520770">
                <time>2017-07-15T13:21:03Z</time>
            </trkpt>
            <trkpt lat="46.285590" lon="10.520690">
                <time>2017-07-15T13:21:04Z</time>
            </trkpt>
            <trkpt lat="46.285690" lon="10.520590">
                <time>2017-07-15T13:21:05Z</time>
            </trkpt>
            <trkpt lat="46.285820" lon="10.520480">
                <time>2017-07-15T13:21:06Z</time>
            </trkpt>
            <trkpt lat="46.285950" lon="10.520380">
                <time>2017-07-15T13:21:07Z</time>
            </trkpt>
            <trkpt lat="46.286110" lon="10.520280">
                <time>2017-07-15T13:21:08Z</time>
            </trkpt>
            <trkpt lat="46.286250" lon="10.520190">
                <time>2017-07-15T13:21:09Z</time>
            </trkpt>
            <trkpt lat="46.286390" lon="10.520090">
                <time>2017-07-15T13:21:10Z</time>
            </trkpt>
            <trkpt lat="46.286530" lon="10.519960">
                <time>2017-07-15T13:21:11Z</time>
            </trkpt>
            <trkpt lat="46.286630" lon="10.519840">
                <time>2017-07-15T13:21:12Z</time>
            </trkpt>
            <trkpt lat="46.286730" lon="10.519730">
                <time>2017-07-15T13:21:13Z</time>
            </trkpt>
            <trkpt lat="46.286810" lon="10.519620">
                <time>2017-07-15T13:21:14Z</time>
            </trkpt>
            <trkpt lat="46.286890" lon="10.519530">
                <time>2017-07-15T13:21:15Z</time>
            </trkpt>
            <trkpt lat="46.286990" lon="10.519440">
                <time>2017-07-15T13:21:16Z</time>
            </trkpt>
            <trkpt lat="46.287110" lon="10.519350">
                <time>2017-07-15T13:21:17Z</time>
            </trkpt>
            <trkpt lat="46.287250" lon="10.519270">
                <time>2017-07-15T13:21:18Z</time>
            </trkpt>
            <trkpt lat="46.287420" lon="10.519220">
                <time>2017-07-15T13:21:19Z</time>
            </trkpt>
            <trkpt lat="46.287560" lon="10.519160">
                <time>2017-07-15T13:21:20Z</time>
            </trkpt>
            <trkpt lat="46.287710" lon="10.519060">
                <time>2017-07-15T13:21:21Z</time>
            </trkpt>
            <trkpt lat="46.287840" lon="10.518930">
                <time>2017-07-15T13:21:22Z</time>
            </trkpt>
            <trkpt lat="46.287960" lon="10.518760">
                <time>2017-07-15T13:21:23Z</time>
            </trkpt>
            <trkpt lat="46.288080" lon="10.518540">
                <time>2017-07-15T13:21:24Z</time>
            </trkpt>
            <trkpt lat="46.288170" lon="10.518330">
                <time>2017-07-15T13:21:25Z</time>
            </trkpt>
            <trkpt lat="46.288260" lon="10.518100">
                <time>2017-07-15T13:21:26Z</time>
            </trkpt>
            <trkpt lat="46.288370" lon="10.517860">
                <time>2017-07-15T13:21:27Z</time>
            </trkpt>
            <trkpt lat="46.288490" lon="10.517650">
                <time>2017-07-15T13:21:28Z</time>
            </trkpt>
            <trkpt lat="46.288610" lon="10.517440">
                <time>2017-07-15T13:21:29Z</time>
            </trkpt>
            <trkpt lat="46.288740" lon="10.517220">
                <time>2017-07-15T13:21:30Z</time>
            </trkpt>
            <trkpt lat="46.288840" lon="10.517050">
                <time>2017-07-15T13:21:31Z</time>
            </trkpt>
            <trkpt lat="46.288950" lon="10.516870">
                <time>2017-07-15T13:21:32Z</time>
            </trkpt>
            <trkpt lat="46.289020" lon="10.516720">
                <time>2017-07-15T13:21:33Z</time>
            </trkpt>
            <trkpt lat="46.289070" lon="10.516550">
                <time>2017-07-15T13:21:34Z</time>
            </trkpt>
            <trkpt lat="46.289100" lon="10.516360">
                <time>2017-07-15T13:21:35Z</time>
            </trkpt>
            <trkpt lat="46.289120" lon="10.516200">
                <time>2017-07-15T13:21:36Z</time>
            </trkpt>
            <trkpt lat="46.289170" lon="10.516060">
                <time>2017-07-15T13:21:37Z</time>
            </trkpt>
            <trkpt lat="46.289230" lon="10.515940">
                <time>2017-07-15T13:21:38Z</time>
            </trkpt>
            <trkpt lat="46.289370" lon="10.515870">
                <time>2017-07-15T13:21:39Z</time>
            </trkpt>
            <trkpt lat="46.289500" lon="10.515730">
                <time>2017-07-15T13:21:40Z</time>
            </trkpt>
            <trkpt lat="46.289610" lon="10.515570">
                <time>2017-07-15T13:21:41Z</time>
            </trkpt>
            <trkpt lat="46.289730" lon="10.515400">
                <time>2017-07-15T13:21:42Z</time>
            </trkpt>
            <trkpt lat="46.289850" lon="10.515180">
                <time>2017-07-15T13:21:43Z</time>
            </trkpt>
            <trkpt lat="46.289970" lon="10.515010">
                <time>2017-07-15T13:21:44Z</time>
            </trkpt>
            <trkpt lat="46.290110" lon="10.514850">
                <time>2017-07-15T13:21:45Z</time>
            </trkpt>
            <trkpt lat="46.290250" lon="10.514720">
                <time>2017-07-15T13:21:46Z</time>
            </trkpt>
            <trkpt lat="46.290350" lon="10.514590">
                <time>2017-07-15T13:21:47Z</time>
            </trkpt>
            <trkpt lat="46.290440" lon="10.514420">
                <time>2017-07-15T13:21:48Z</time>
            </trkpt>
            <trkpt lat="46.290510" lon="10.514250">
                <time>2017-07-15T13:21:49Z</time>
            </trkpt>
            <trkpt lat="46.290560" lon="10.514060">
                <time>2017-07-15T13:21:50Z</time>
            </trkpt>
            <trkpt lat="46.290620" lon="10.513850">
                <time>2017-07-15T13:21:51Z</time>
            </trkpt>
            <trkpt lat="46.290680" lon="10.513670">
                <time>2017-07-15T13:21:52Z</time>
            </trkpt>
            <trkpt lat="46.290760" lon="10.513480">
                <time>2017-07-15T13:21:53Z</time>
            </trkpt>
            <trkpt lat="46.290860" lon="10.513300">
                <time>2017-07-15T13:21:54Z</time>
            </trkpt>
            <trkpt lat="46.290970" lon="10.513120">
                <time>2017-07-15T13:21:55Z</time>
            </trkpt>
            <trkpt lat="46.291090" lon="10.512960">
                <time>2017-07-15T13:21:56Z</time>
            </trkpt>
            <trkpt lat="46.291200" lon="10.512830">
                <time>2017-07-15T13:21:57Z</time>
            </trkpt>
            <trkpt lat="46.291370" lon="10.512760">
                <time>2017-07-15T13:21:58Z</time>
            </trkpt>
            <trkpt lat="46.291530" lon="10.512690">
                <time>2017-07-15T13:21:59Z</time>
            </trkpt>
            <trkpt lat="46.291680" lon="10.512620">
                <time>2017-07-15T13:22:00Z</time>
            </trkpt>
            <trkpt lat="46.291850" lon="10.512530">
                <time>2017-07-15T13:22:01Z</time>
            </trkpt>
            <trkpt lat="46.292010" lon="10.512410">
                <time>2017-07-15T13:22:02Z</time>
            </trkpt>
            <trkpt lat="46.292150" lon="10.512280">
                <time>2017-07-15T13:22:03Z</time>
            </trkpt>
            <trkpt lat="46.292300" lon="10.512140">
                <time>2017-07-15T13:22:04Z</time>
            </trkpt>
            <trkpt lat="46.292420" lon="10.511960">
                <time>2017-07-15T13:22:05Z</time>
            </trkpt>
            <trkpt lat="46.292540" lon="10.511780">
                <time>2017-07-15T13:22:06Z</time>
            </trkpt>
            <trkpt lat="46.292650" lon="10.511560">
                <time>2017-07-15T13:22:07Z</time>
            </trkpt>
            <trkpt lat="46.292730" lon="10.511360">
                <time>2017-07-15T13:22:08Z</time>
            </trkpt>
            <trkpt lat="46.292790" lon="10.511130">
                <time>2017-07-15T13:22:09Z</time>
            </trkpt>
            <trkpt lat="46.292830" lon="10.510890">
                <time>2017-07-15T13:22:10Z</time>
            </trkpt>
            <trkpt lat="46.292870" lon="10.510630">
                <time>2017-07-15T13:22:11Z</time>
            </trkpt>
            <trkpt lat="46.292910" lon="10.510340">
                <time>2017-07-15T13:22:12Z</time>
            </trkpt>
            <trkpt lat="46.292950" lon="10.510090">
                <time>2017-07-15T13:22:13Z</time>
            </trkpt>
            <trkpt lat="46.292990" lon="10.509840">
                <time>2017-07-15T13:22:14Z</time>
            </trkpt>
            <trkpt lat="46.293040" lon="10.509580">
                <time>2017-07-15T13:22:15Z</time>
            </trkpt>
            <trkpt lat="46.293080" lon="10.509390">
                <time>2017-07-15T13:22:16Z</time>
            </trkpt>
            <trkpt lat="46.293150" lon="10.509210">
                <time>2017-07-15T13:22:17Z</time>
            </trkpt>
            <trkpt lat="46.293260" lon="10.509040">
                <time>2017-07-15T13:22:18Z</time>
            </trkpt>
            <trkpt lat="46.293370" lon="10.508900">
                <time>2017-07-15T13:22:19Z</time>
            </trkpt>
            <trkpt lat="46.293520" lon="10.508760">
                <time>2017-07-15T13:22:20Z</time>
            </trkpt>
            <trkpt lat="46.293670" lon="10.508630">
                <time>2017-07-15T13:22:21Z</time>
            </trkpt>
            <trkpt lat="46.293820" lon="10.508470">
                <time>2017-07-15T13:22:22Z</time>
            </trkpt>
            <trkpt lat="46.293960" lon="10.508310">
                <time>2017-07-15T13:22:23Z</time>
            </trkpt>
            <trkpt lat="46.294080" lon="10.508170">
                <time>2017-07-15T13:22:24Z</time>
            </trkpt>
            <trkpt lat="46.294210" lon="10.508060">
                <time>2017-07-15T13:22:25Z</time>
            </trkpt>
            <trkpt lat="46.294350" lon="10.507970">
                <time>2017-07-15T13:22:26Z</time>
            </trkpt>
            <trkpt lat="46.294500" lon="10.507860">
                <time>2017-07-15T13:22:27Z</time>
            </trkpt>
            <trkpt lat="46.294650" lon="10.507720">
                <time>2017-07-15T13:22:28Z</time>
            </trkpt>
            <trkpt lat="46.294780" lon="10.507600">
                <time>2017-07-15T13:22:29Z</time>
            </trkpt>
            <trkpt lat="46.294930" lon="10.507510">
                <time>2017-07-15T13:22:30Z</time>
            </trkpt>
            <trkpt lat="46.295100" lon="10.507450">
                <time>2017-07-15T13:22:31Z</time>
            </trkpt>
            <trkpt lat="46.295260" lon="10.507400">
                <time>2017-07-15T13:22:32Z</time>
            </trkpt>
            <trkpt lat="46.295430" lon="10.507320">
                <time>2017-07-15T13:22:33Z</time>
            </trkpt>
            <trkpt lat="46.295600" lon="10.507210">
                <time>2017-07-15T13:22:34Z</time>
            </trkpt>
            <trkpt lat="46.295760" lon="10.507140">
                <time>2017-07-15T13:22:35Z</time>
            </trkpt>
            <trkpt lat="46.295940" lon="10.507090">
                <time>2017-07-15T13:22:36Z</time>
            </trkpt>
            <trkpt lat="46.296090" lon="10.507060">
                <time>2017-07-15T13:22:37Z</time>
            </trkpt>
            <trkpt lat="46.296240" lon="10.507020">
                <time>2017-07-15T13:22:38Z</time>
            </trkpt>
            <trkpt lat="46.296370" lon="10.506970">
                <time>2017-07-15T13:22:39Z</time>
            </trkpt>
            <trkpt lat="46.296480" lon="10.506920">
                <time>2017-07-15T13:22:40Z</time>
            </trkpt>
            <trkpt lat="46.296570" lon="10.506850">
                <time>2017-07-15T13:22:41Z</time>
            </trkpt>
            <trkpt lat="46.296660" lon="10.506780">
                <time>2017-07-15T13:22:42Z</time>
            </trkpt>
            <trkpt lat="46.296750" lon="10.506710">
                <time>2017-07-15T13:22:43Z</time>
            </trkpt>
            <trkpt lat="46.296840" lon="10.506630">
                <time>2017-07-15T13:22:44Z</time>
            </trkpt>
            <trkpt lat="46.296920" lon="10.506560">
                <time>2017-07-15T13:22:45Z</time>
            </trkpt>
            <trkpt lat="46.297000" lon="10.506490">
                <time>2017-07-15T13:22:46Z</time>
            </trkpt>
            <trkpt lat="46.297090" lon="10.506410">
                <time>2017-07-15T13:22:47Z</time>
            </trkpt>
            <trkpt lat="46.297180" lon="10.506350">
                <time>2017-07-15T13:22:48Z</time>
            </trkpt>
            <trkpt lat="46.297270" lon="10.506310">
                <time>2017-07-15T13:22:49Z</time>
            </trkpt>
            <trkpt lat="46.297390" lon="10.506280">
                <time>2017-07-15T13:22:50Z</time>
            </trkpt>
            <trkpt lat="46.297490" lon="10.506290">
                <time>2017-07-15T13:22:51Z</time>
            </trkpt>
            <trkpt lat="46.297620" lon="10.506290">
                <time>2017-07-15T13:22:52Z</time>
            </trkpt>
            <trkpt lat="46.297750" lon="10.506290">
                <time>2017-07-15T13:22:53Z</time>
            </trkpt>
            <trkpt lat="46.297900" lon="10.506270">
                <time>2017-07-15T13:22:54Z</time>
            </trkpt>
            <trkpt lat="46.298070" lon="10.506210">
                <time>2017-07-15T13:22:55Z</time>
            </trkpt>
            <trkpt lat="46.298240" lon="10.506140">
                <time>2017-07-15T13:22:56Z</time>
            </trkpt>
            <trkpt lat="46.298420" lon="10.506060">
                <time>2017-07-15T13:22:57Z</time>
            </trkpt>
            <trkpt lat="46.298590" lon="10.505960">
                <time>2017-07-15T13:22:58Z</time>
            </trkpt>
            <trkpt lat="46.298760" lon="10.505830">
                <time>2017-07-15T13:22:59Z</time>
            </trkpt>
            <trkpt lat="46.298960" lon="10.505680">
                <time>2017-07-15T13:23:00Z</time>
            </trkpt>
            <trkpt lat="46.299140" lon="10.505550">
                <time>2017-07-15T13:23:01Z</time>
            </trkpt>
            <trkpt lat="46.299330" lon="10.505410">
                <time>2017-07-15T13:23:02Z</time>
            </trkpt>
            <trkpt lat="46.299530" lon="10.505250">
                <time>2017-07-15T13:23:03Z</time>
            </trkpt>
            <trkpt lat="46.299690" lon="10.505110">
                <time>2017-07-15T13:23:04Z</time>
            </trkpt>
            <trkpt lat="46.299850" lon="10.504960">
                <time>2017-07-15T13:23:05Z</time>
            </trkpt>
            <trkpt lat="46.300020" lon="10.504830">
                <time>2017-07-15T13:23:06Z</time>
            </trkpt>
            <trkpt lat="46.300150" lon="10.504720">
                <time>2017-07-15T13:23:07Z</time>
            </trkpt>
            <trkpt lat="46.300280" lon="10.504590">
                <time>2017-07-15T13:23:08Z</time>
            </trkpt>
            <trkpt lat="46.300380" lon="10.504480">
                <time>2017-07-15T13:23:09Z</time>
            </trkpt>
            <trkpt lat="46.300490" lon="10.504380">
                <time>2017-07-15T13:23:10Z</time>
            </trkpt>
            <trkpt lat="46.300610" lon="10.504300">
                <time>2017-07-15T13:23:11Z</time>
            </trkpt>
            <trkpt lat="46.300710" lon="10.504210">
                <time>2017-07-15T13:23:12Z</time>
            </trkpt>
            <trkpt lat="46.300810" lon="10.504070">
                <time>2017-07-15T13:23:13Z</time>
            </trkpt>
            <trkpt lat="46.300930" lon="10.503960">
                <time>2017-07-15T13:23:14Z</time>
            </trkpt>
            <trkpt lat="46.301080" lon="10.503850">
                <time>2017-07-15T13:23:15Z</time>
            </trkpt>
            <trkpt lat="46.301240" lon="10.503740">
                <time>2017-07-15T13:23:16Z</time>
            </trkpt>
            <trkpt lat="46.301380" lon="10.503630">
                <time>2017-07-15T13:23:17Z</time>
            </trkpt>
            <trkpt lat="46.301500" lon="10.503470">
                <time>2017-07-15T13:23:18Z</time>
            </trkpt>
            <trkpt lat="46.301610" lon="10.503280">
                <time>2017-07-15T13:23:19Z</time>
            </trkpt>
            <trkpt lat="46.301700" lon="10.503140">
                <time>2017-07-15T13:23:20Z</time>
            </trkpt>
            <trkpt lat="46.301780" lon="10.503000">
                <time>2017-07-15T13:23:21Z</time>
            </trkpt>
            <trkpt lat="46.301840" lon="10.502890">
                <time>2017-07-15T13:23:22Z</time>
            </trkpt>
            <trkpt lat="46.301900" lon="10.502840">
                <time>2017-07-15T13:23:23Z</time>
            </trkpt>
            <trkpt lat="46.301950" lon="10.502830">
                <time>2017-07-15T13:23:24Z</time>
            </trkpt>
            <trkpt lat="46.301980" lon="10.502870">
                <time>2017-07-15T13:23:25Z</time>
            </trkpt>
            <trkpt lat="46.301970" lon="10.502940">
                <time>2017-07-15T13:23:26Z</time>
            </trkpt>
            <trkpt lat="46.301930" lon="10.503030">
                <time>2017-07-15T13:23:27Z</time>
            </trkpt>
            <trkpt lat="46.301880" lon="10.503140">
                <time>2017-07-15T13:23:28Z</time>
            </trkpt>
            <trkpt lat="46.301830" lon="10.503300">
                <time>2017-07-15T13:23:29Z</time>
            </trkpt>
            <trkpt lat="46.301780" lon="10.503500">
                <time>2017-07-15T13:23:30Z</time>
            </trkpt>
            <trkpt lat="46.301730" lon="10.503700">
                <time>2017-07-15T13:23:31Z</time>
            </trkpt>
            <trkpt lat="46.301670" lon="10.503870">
                <time>2017-07-15T13:23:32Z</time>
            </trkpt>
            <trkpt lat="46.301580" lon="10.504010">
                <time>2017-07-15T13:23:33Z</time>
            </trkpt>
            <trkpt lat="46.301460" lon="10.504140">
                <time>2017-07-15T13:23:34Z</time>
            </trkpt>
            <trkpt lat="46.301330" lon="10.504300">
                <time>2017-07-15T13:23:35Z</time>
            </trkpt>
            <trkpt lat="46.301220" lon="10.504480">
                <time>2017-07-15T13:23:36Z</time>
            </trkpt>
            <trkpt lat="46.301110" lon="10.504690">
                <time>2017-07-15T13:23:37Z</time>
            </trkpt>
            <trkpt lat="46.301010" lon="10.504920">
                <time>2017-07-15T13:23:38Z</time>
            </trkpt>
            <trkpt lat="46.300930" lon="10.505120">
                <time>2017-07-15T13:23:39Z</time>
            </trkpt>
            <trkpt lat="46.300870" lon="10.505330">
                <time>2017-07-15T13:23:40Z</time>
            </trkpt>
            <trkpt lat="46.300830" lon="10.505500">
                <time>2017-07-15T13:23:41Z</time>
            </trkpt>
            <trkpt lat="46.300780" lon="10.505660">
                <time>2017-07-15T13:23:42Z</time>
            </trkpt>
            <trkpt lat="46.300700" lon="10.505820">
                <time>2017-07-15T13:23:43Z</time>
            </trkpt>
            <trkpt lat="46.300620" lon="10.505940">
                <time>2017-07-15T13:23:44Z</time>
            </trkpt>
            <trkpt lat="46.300520" lon="10.506070">
                <time>2017-07-15T13:23:45Z</time>
            </trkpt>
            <trkpt lat="46.300420" lon="10.506210">
                <time>2017-07-15T13:23:46Z</time>
            </trkpt>
            <trkpt lat="46.300320" lon="10.506370">
                <time>2017-07-15T13:23:47Z</time>
            </trkpt>
            <trkpt lat="46.300220" lon="10.506560">
                <time>2017-07-15T13:23:48Z</time>
            </trkpt>
            <trkpt lat="46.300120" lon="10.506720">
                <time>2017-07-15T13:23:49Z</time>
            </trkpt>
            <trkpt lat="46.300010" lon="10.506860">
                <time>2017-07-15T13:23:50Z</time>
            </trkpt>
            <trkpt lat="46.299870" lon="10.506950">
                <time>2017-07-15T13:23:51Z</time>
            </trkpt>
            <trkpt lat="46.299750" lon="10.507030">
                <time>2017-07-15T13:23:52Z</time>
            </trkpt>
            <trkpt lat="46.299620" lon="10.507140">
                <time>2017-07-15T13:23:53Z</time>
            </trkpt>
            <trkpt lat="46.299490" lon="10.507290">
                <time>2017-07-15T13:23:54Z</time>
            </trkpt>
            <trkpt lat="46.299360" lon="10.507450">
                <time>2017-07-15T13:23:55Z</time>
            </trkpt>
            <trkpt lat="46.299200" lon="10.507640">
                <time>2017-07-15T13:23:56Z</time>
            </trkpt>
            <trkpt lat="46.299060" lon="10.507820">
                <time>2017-07-15T13:23:57Z</time>
            </trkpt>
            <trkpt lat="46.298920" lon="10.508010">
                <time>2017-07-15T13:23:58Z</time>
            </trkpt>
            <trkpt lat="46.298760" lon="10.508210">
                <time>2017-07-15T13:23:59Z</time>
            </trkpt>
            <trkpt lat="46.298620" lon="10.508380">
                <time>2017-07-15T13:24:00Z</time>
            </trkpt>
            <trkpt lat="46.298490" lon="10.508590">
                <time>2017-07-15T13:24:01Z</time>
            </trkpt>
            <trkpt lat="46.298360" lon="10.508790">
                <time>2017-07-15T13:24:02Z</time>
            </trkpt>
            <trkpt lat="46.298250" lon="10.508990">
                <time>2017-07-15T13:24:03Z</time>
            </trkpt>
            <trkpt lat="46.298120" lon="10.509180">
                <time>2017-07-15T13:24:04Z</time>
            </trkpt>
            <trkpt lat="46.298000" lon="10.509320">
                <time>2017-07-15T13:24:05Z</time>
            </trkpt>
            <trkpt lat="46.297860" lon="10.509450">
                <time>2017-07-15T13:24:06Z</time>
            </trkpt>
            <trkpt lat="46.297720" lon="10.509590">
                <time>2017-07-15T13:24:07Z</time>
            </trkpt>
            <trkpt lat="46.297620" lon="10.509720">
                <time>2017-07-15T13:24:08Z</time>
            </trkpt>
            <trkpt lat="46.297520" lon="10.509860">
                <time>2017-07-15T13:24:09Z</time>
            </trkpt>
            <trkpt lat="46.297430" lon="10.509980">
                <time>2017-07-15T13:24:10Z</time>
            </trkpt>
            <trkpt lat="46.297350" lon="10.510060">
                <time>2017-07-15T13:24:11Z</time>
            </trkpt>
            <trkpt lat="46.297290" lon="10.510180">
                <time>2017-07-15T13:24:12Z</time>
            </trkpt>
            <trkpt lat="46.297240" lon="10.510310">
                <time>2017-07-15T13:24:13Z</time>
            </trkpt>
            <trkpt lat="46.297200" lon="10.510430">
                <time>2017-07-15T13:24:14Z</time>
            </trkpt>
            <trkpt lat="46.297150" lon="10.510520">
                <time>2017-07-15T13:24:15Z</time>
            </trkpt>
            <trkpt lat="46.297130" lon="10.510590">
                <time>2017-07-15T13:24:16Z</time>
            </trkpt>
            <trkpt lat="46.297140" lon="10.510660">
                <time>2017-07-15T13:24:17Z</time>
            </trkpt>
            <trkpt lat="46.297180" lon="10.510700">
                <time>2017-07-15T13:24:18Z</time>
            </trkpt>
            <trkpt lat="46.297230" lon="10.510690">
                <time>2017-07-15T13:24:19Z</time>
            </trkpt>
            <trkpt lat="46.297310" lon="10.510630">
                <time>2017-07-15T13:24:20Z</time>
            </trkpt>
            <trkpt lat="46.297390" lon="10.510560">
                <time>2017-07-15T13:24:21Z</time>
            </trkpt>
            <trkpt lat="46.297480" lon="10.510460">
                <time>2017-07-15T13:24:22Z</time>
            </trkpt>
            <trkpt lat="46.297590" lon="10.510360">
                <time>2017-07-15T13:24:23Z</time>
            </trkpt>
            <trkpt lat="46.297700" lon="10.510310">
                <time>2017-07-15T13:24:24Z</time>
            </trkpt>
            <trkpt lat="46.297840" lon="10.510250">
                <time>2017-07-15T13:24:25Z</time>
            </trkpt>
            <trkpt lat="46.297990" lon="10.510180">
                <time>2017-07-15T13:24:26Z</time>
            </trkpt>
            <trkpt lat="46.298110" lon="10.510100">
                <time>2017-07-15T13:24:27Z</time>
            </trkpt>
            <trkpt lat="46.298240" lon="10.509970">
                <time>2017-07-15T13:24:28Z</time>
            </trkpt>
            <trkpt lat="46.298340" lon="10.509840">
                <time>2017-07-15T13:24:29Z</time>
            </trkpt>
            <trkpt lat="46.298460" lon="10.509690">
                <time>2017-07-15T13:24:30Z</time>
            </trkpt>
            <trkpt lat="46.298590" lon="10.509540">
                <time>2017-07-15T13:24:31Z</time>
            </trkpt>
            <trkpt lat="46.298700" lon="10.509420">
                <time>2017-07-15T13:24:32Z</time>
            </trkpt>
            <trkpt lat="46.298820" lon="10.509310">
                <time>2017-07-15T13:24:33Z</time>
            </trkpt>
            <trkpt lat="46.298950" lon="10.509190">
                <time>2017-07-15T13:24:34Z</time>
            </trkpt>
            <trkpt lat="46.299060" lon="10.509060">
                <time>2017-07-15T13:24:35Z</time>
            </trkpt>
            <trkpt lat="46.299180" lon="10.508920">
                <time>2017-07-15T13:24:36Z</time>
            </trkpt>
            <trkpt lat="46.299310" lon="10.508820">
                <time>2017-07-15T13:24:37Z</time>
            </trkpt>
            <trkpt lat="46.299450" lon="10.508720">
                <time>2017-07-15T13:24:38Z</time>
            </trkpt>
            <trkpt lat="46.299590" lon="10.508610">
                <time>2017-07-15T13:24:39Z</time>
            </trkpt>
            <trkpt lat="46.299700" lon="10.508520">
                <time>2017-07-15T13:24:40Z</time>
            </trkpt>
            <trkpt lat="46.299810" lon="10.508450">
                <time>2017-07-15T13:24:41Z</time>
            </trkpt>
            <trkpt lat="46.299930" lon="10.508400">
                <time>2017-07-15T13:24:42Z</time>
            </trkpt>
            <trkpt lat="46.300040" lon="10.508360">
                <time>2017-07-15T13:24:43Z</time>
            </trkpt>
            <trkpt lat="46.300180" lon="10.508310">
                <time>2017-07-15T13:24:44Z</time>
            </trkpt>
            <trkpt lat="46.300320" lon="10.508270">
                <time>2017-07-15T13:24:45Z</time>
            </trkpt>
            <trkpt lat="46.300470" lon="10.508200">
                <time>2017-07-15T13:24:46Z</time>
            </trkpt>
            <trkpt lat="46.300640" lon="10.508140">
                <time>2017-07-15T13:24:47Z</time>
            </trkpt>
            <trkpt lat="46.300790" lon="10.508080">
                <time>2017-07-15T13:24:48Z</time>
            </trkpt>
            <trkpt lat="46.300960" lon="10.508050">
                <time>2017-07-15T13:24:49Z</time>
            </trkpt>
            <trkpt lat="46.301120" lon="10.508000">
                <time>2017-07-15T13:24:50Z</time>
            </trkpt>
            <trkpt lat="46.301250" lon="10.507960">
                <time>2017-07-15T13:24:51Z</time>
            </trkpt>
            <trkpt lat="46.301370" lon="10.507900">
                <time>2017-07-15T13:24:52Z</time>
            </trkpt>
            <trkpt lat="46.301460" lon="10.507840">
                <time>2017-07-15T13:24:53Z</time>
            </trkpt>
            <trkpt lat="46.301530" lon="10.507780">
                <time>2017-07-15T13:24:54Z</time>
            </trkpt>
            <trkpt lat="46.301600" lon="10.507710">
                <time>2017-07-15T13:24:55Z</time>
            </trkpt>
            <trkpt lat="46.301660" lon="10.507640">
                <time>2017-07-15T13:24:56Z</time>
            </trkpt>
            <trkpt lat="46.301720" lon="10.507570">
                <time>2017-07-15T13:24:57Z</time>
            </trkpt>
            <trkpt lat="46.301790" lon="10.507500">
                <time>2017-07-15T13:24:58Z</time>
            </trkpt>
            <trkpt lat="46.301860" lon="10.507450">
                <time>2017-07-15T13:24:59Z</time>
            </trkpt>
            <trkpt lat="46.301950" lon="10.507390">
                <time>2017-07-15T13:25:00Z</time>
            </trkpt>
            <trkpt lat="46.302050" lon="10.507340">
                <time>2017-07-15T13:25:01Z</time>
            </trkpt>
            <trkpt lat="46.302150" lon="10.507300">
                <time>2017-07-15T13:25:02Z</time>
            </trkpt>
            <trkpt lat="46.302260" lon="10.507230">
                <time>2017-07-15T13:25:03Z</time>
            </trkpt>
            <trkpt lat="46.302350" lon="10.507150">
                <time>2017-07-15T13:25:04Z</time>
            </trkpt>
            <trkpt lat="46.302410" lon="10.507000">
                <time>2017-07-15T13:25:05Z</time>
            </trkpt>
            <trkpt lat="46.302480" lon="10.506860">
                <time>2017-07-15T13:25:06Z</time>
            </trkpt>
            <trkpt lat="46.302560" lon="10.506740">
                <time>2017-07-15T13:25:07Z</time>
            </trkpt>
            <trkpt lat="46.302660" lon="10.506590">
                <time>2017-07-15T13:25:08Z</time>
            </trkpt>
            <trkpt lat="46.302760" lon="10.506490">
                <time>2017-07-15T13:25:09Z</time>
            </trkpt>
            <trkpt lat="46.302890" lon="10.506390">
                <time>2017-07-15T13:25:10Z</time>
            </trkpt>
            <trkpt lat="46.303030" lon="10.506310">
                <time>2017-07-15T13:25:11Z</time>
            </trkpt>
            <trkpt lat="46.303140" lon="10.506230">
                <time>2017-07-15T13:25:12Z</time>
            </trkpt>
            <trkpt lat="46.303230" lon="10.506140">
                <time>2017-07-15T13:25:13Z</time>
            </trkpt>
            <trkpt lat="46.303280" lon="10.506010">
                <time>2017-07-15T13:25:14Z</time>
            </trkpt>
            <trkpt lat="46.303320" lon="10.505910">
                <time>2017-07-15T13:25:15Z</time>
            </trkpt>
            <trkpt lat="46.303370" lon="10.505850">
                <time>2017-07-15T13:25:16Z</time>
            </trkpt>
            <trkpt lat="46.303410" lon="10.505830">
                <time>2017-07-15T13:25:17Z</time>
            </trkpt>
            <trkpt lat="46.303450" lon="10.505830">
                <time>2017-07-15T13:25:18Z</time>
            </trkpt>
            <trkpt lat="46.303490" lon="10.505880">
                <time>2017-07-15T13:25:19Z</time>
            </trkpt>
            <trkpt lat="46.303490" lon="10.505940">
                <time>2017-07-15T13:25:20Z</time>
            </trkpt>
            <trkpt lat="46.303470" lon="10.505990">
                <time>2017-07-15T13:25:21Z</time>
            </trkpt>
            <trkpt lat="46.303420" lon="10.506060">
                <time>2017-07-15T13:25:22Z</time>
            </trkpt>
            <trkpt lat="46.303370" lon="10.506140">
                <time>2017-07-15T13:25:23Z</time>
            </trkpt>
            <trkpt lat="46.303330" lon="10.506230">
                <time>2017-07-15T13:25:24Z</time>
            </trkpt>
            <trkpt lat="46.303310" lon="10.506280">
                <time>2017-07-15T13:25:25Z</time>
            </trkpt>
            <trkpt lat="46.303290" lon="10.506310">
                <time>2017-07-15T13:25:26Z</time>
            </trkpt>
            <trkpt lat="46.303280" lon="10.506360">
                <time>2017-07-15T13:25:27Z</time>
            </trkpt>
            <trkpt lat="46.303280" lon="10.506410">
                <time>2017-07-15T13:25:28Z</time>
            </trkpt>
            <trkpt lat="46.303250" lon="10.506480">
                <time>2017-07-15T13:25:29Z</time>
            </trkpt>
            <trkpt lat="46.303220" lon="10.506560">
                <time>2017-07-15T13:25:30Z</time>
            </trkpt>
            <trkpt lat="46.303180" lon="10.506640">
                <time>2017-07-15T13:25:31Z</time>
            </trkpt>
            <trkpt lat="46.303130" lon="10.506750">
                <time>2017-07-15T13:25:32Z</time>
            </trkpt>
            <trkpt lat="46.303080" lon="10.506870">
                <time>2017-07-15T13:25:33Z</time>
            </trkpt>
            <trkpt lat="46.303030" lon="10.507000">
                <time>2017-07-15T13:25:34Z</time>
            </trkpt>
            <trkpt lat="46.303020" lon="10.507150">
                <time>2017-07-15T13:25:35Z</time>
            </trkpt>
            <trkpt lat="46.303020" lon="10.507270">
                <time>2017-07-15T13:25:36Z</time>
            </trkpt>
            <trkpt lat="46.303020" lon="10.507390">
                <time>2017-07-15T13:25:37Z</time>
            </trkpt>
            <trkpt lat="46.303030" lon="10.507520">
                <time>2017-07-15T13:25:38Z</time>
            </trkpt>
            <trkpt lat="46.303030" lon="10.507650">
                <time>2017-07-15T13:25:39Z</time>
            </trkpt>
            <trkpt lat="46.303020" lon="10.507800">
                <time>2017-07-15T13:25:40Z</time>
            </trkpt>
            <trkpt lat="46.302980" lon="10.507920">
                <time>2017-07-15T13:25:41Z</time>
            </trkpt>
            <trkpt lat="46.302910" lon="10.508030">
                <time>2017-07-15T13:25:42Z</time>
            </trkpt>
            <trkpt lat="46.302820" lon="10.508130">
                <time>2017-07-15T13:25:43Z</time>
            </trkpt>
            <trkpt lat="46.302700" lon="10.508220">
                <time>2017-07-15T13:25:44Z</time>
            </trkpt>
            <trkpt lat="46.302580" lon="10.508300">
                <time>2017-07-15T13:25:45Z</time>
            </trkpt>
            <trkpt lat="46.302450" lon="10.508360">
                <time>2017-07-15T13:25:46Z</time>
            </trkpt>
            <trkpt lat="46.302340" lon="10.508400">
                <time>2017-07-15T13:25:47Z</time>
            </trkpt>
            <trkpt lat="46.302240" lon="10.508550">
                <time>2017-07-15T13:25:48Z</time>
            </trkpt>
            <trkpt lat="46.302130" lon="10.508660">
                <time>2017-07-15T13:25:49Z</time>
            </trkpt>
            <trkpt lat="46.302020" lon="10.508730">
                <time>2017-07-15T13:25:50Z</time>
            </trkpt>
            <trkpt lat="46.301890" lon="10.508770">
                <time>2017-07-15T13:25:51Z</time>
            </trkpt>
            <trkpt lat="46.301780" lon="10.508800">
                <time>2017-07-15T13:25:52Z</time>
            </trkpt>
            <trkpt lat="46.301700" lon="10.508850">
                <time>2017-07-15T13:25:53Z</time>
            </trkpt>
            <trkpt lat="46.301590" lon="10.508890">
                <time>2017-07-15T13:25:54Z</time>
            </trkpt>
            <trkpt lat="46.301490" lon="10.508960">
                <time>2017-07-15T13:25:55Z</time>
            </trkpt>
            <trkpt lat="46.301370" lon="10.509020">
                <time>2017-07-15T13:25:56Z</time>
            </trkpt>
            <trkpt lat="46.301260" lon="10.509090">
                <time>2017-07-15T13:25:57Z</time>
            </trkpt>
            <trkpt lat="46.301150" lon="10.509160">
                <time>2017-07-15T13:25:58Z</time>
            </trkpt>
            <trkpt lat="46.301030" lon="10.509250">
                <time>2017-07-15T13:25:59Z</time>
            </trkpt>
            <trkpt lat="46.300920" lon="10.509330">
                <time>2017-07-15T13:26:00Z</time>
            </trkpt>
            <trkpt lat="46.300800" lon="10.509390">
                <time>2017-07-15T13:26:01Z</time>
            </trkpt>
            <trkpt lat="46.300700" lon="10.509490">
                <time>2017-07-15T13:26:02Z</time>
            </trkpt>
            <trkpt lat="46.300650" lon="10.509630">
                <time>2017-07-15T13:26:03Z</time>
            </trkpt>
            <trkpt lat="46.300580" lon="10.509770">
                <time>2017-07-15T13:26:04Z</time>
            </trkpt>
            <trkpt lat="46.300510" lon="10.509890">
                <time>2017-07-15T13:26:05Z</time>
            </trkpt>
            <trkpt lat="46.300440" lon="10.510030">
                <time>2017-07-15T13:26:06Z</time>
            </trkpt>
            <trkpt lat="46.300370" lon="10.510160">
                <time>2017-07-15T13:26:07Z</time>
            </trkpt>
            <trkpt lat="46.300330" lon="10.510280">
                <time>2017-07-15T13:26:08Z</time>
            </trkpt>
            <trkpt lat="46.300290" lon="10.510370">
                <time>2017-07-15T13:26:09Z</time>
            </trkpt>
            <trkpt lat="46.300280" lon="10.510440">
                <time>2017-07-15T13:26:10Z</time>
            </trkpt>
            <trkpt lat="46.300300" lon="10.510500">
                <time>2017-07-15T13:26:11Z</time>
            </trkpt>
            <trkpt lat="46.300350" lon="10.510520">
                <time>2017-07-15T13:26:12Z</time>
            </trkpt>
            <trkpt lat="46.300390" lon="10.510500">
                <time>2017-07-15T13:26:13Z</time>
            </trkpt>
            <trkpt lat="46.300430" lon="10.510420">
                <time>2017-07-15T13:26:14Z</time>
            </trkpt>
            <trkpt lat="46.300460" lon="10.510310">
                <time>2017-07-15T13:26:15Z</time>
            </trkpt>
            <trkpt lat="46.300500" lon="10.510210">
                <time>2017-07-15T13:26:16Z</time>
            </trkpt>
            <trkpt lat="46.300560" lon="10.510100">
                <time>2017-07-15T13:26:17Z</time>
            </trkpt>
            <trkpt lat="46.300620" lon="10.510010">
                <time>2017-07-15T13:26:18Z</time>
            </trkpt>
            <trkpt lat="46.300710" lon="10.509920">
                <time>2017-07-15T13:26:19Z</time>
            </trkpt>
            <trkpt lat="46.300820" lon="10.509850">
                <time>2017-07-15T13:26:20Z</time>
            </trkpt>
            <trkpt lat="46.300930" lon="10.509790">
                <time>2017-07-15T13:26:21Z</time>
            </trkpt>
            <trkpt lat="46.301060" lon="10.509720">
                <time>2017-07-15T13:26:22Z</time>
            </trkpt>
            <trkpt lat="46.301210" lon="10.509660">
                <time>2017-07-15T13:26:23Z</time>
            </trkpt>
            <trkpt lat="46.301350" lon="10.509630">
                <time>2017-07-15T13:26:24Z</time>
            </trkpt>
            <trkpt lat="46.301500" lon="10.509590">
                <time>2017-07-15T13:26:25Z</time>
            </trkpt>
            <trkpt lat="46.301650" lon="10.509560">
                <time>2017-07-15T13:26:26Z</time>
            </trkpt>
            <trkpt lat="46.301780" lon="10.509510">
                <time>2017-07-15T13:26:27Z</time>
            </trkpt>
            <trkpt lat="46.301910" lon="10.509470">
                <time>2017-07-15T13:26:28Z</time>
            </trkpt>
            <trkpt lat="46.302010" lon="10.509450">
                <time>2017-07-15T13:26:29Z</time>
            </trkpt>
            <trkpt lat="46.302130" lon="10.509430">
                <time>2017-07-15T13:26:30Z</time>
            </trkpt>
            <trkpt lat="46.302250" lon="10.509430">
                <time>2017-07-15T13:26:31Z</time>
            </trkpt>
            <trkpt lat="46.302370" lon="10.509430">
                <time>2017-07-15T13:26:32Z</time>
            </trkpt>
            <trkpt lat="46.302490" lon="10.509390">
                <time>2017-07-15T13:26:33Z</time>
            </trkpt>
            <trkpt lat="46.302640" lon="10.509340">
                <time>2017-07-15T13:26:34Z</time>
            </trkpt>
            <trkpt lat="46.302780" lon="10.509310">
                <time>2017-07-15T13:26:35Z</time>
            </trkpt>
            <trkpt lat="46.302950" lon="10.509300">
                <time>2017-07-15T13:26:36Z</time>
            </trkpt>
            <trkpt lat="46.303100" lon="10.509290">
                <time>2017-07-15T13:26:37Z</time>
            </trkpt>
            <trkpt lat="46.303250" lon="10.509260">
                <time>2017-07-15T13:26:38Z</time>
            </trkpt>
            <trkpt lat="46.303400" lon="10.509230">
                <time>2017-07-15T13:26:39Z</time>
            </trkpt>
            <trkpt lat="46.303540" lon="10.509210">
                <time>2017-07-15T13:26:40Z</time>
            </trkpt>
            <trkpt lat="46.303680" lon="10.509210">
                <time>2017-07-15T13:26:41Z</time>
            </trkpt>
            <trkpt lat="46.303810" lon="10.509200">
                <time>2017-07-15T13:26:42Z</time>
            </trkpt>
            <trkpt lat="46.303940" lon="10.509190">
                <time>2017-07-15T13:26:43Z</time>
            </trkpt>
            <trkpt lat="46.304050" lon="10.509150">
                <time>2017-07-15T13:26:44Z</time>
            </trkpt>
            <trkpt lat="46.304130" lon="10.509080">
                <time>2017-07-15T13:26:45Z</time>
            </trkpt>
            <trkpt lat="46.304200" lon="10.508980">
                <time>2017-07-15T13:26:46Z</time>
            </trkpt>
            <trkpt lat="46.304250" lon="10.508860">
                <time>2017-07-15T13:26:47Z</time>
            </trkpt>
            <trkpt lat="46.304260" lon="10.508720">
                <time>2017-07-15T13:26:48Z</time>
            </trkpt>
            <trkpt lat="46.304240" lon="10.508560">
                <time>2017-07-15T13:26:49Z</time>
            </trkpt>
            <trkpt lat="46.304230" lon="10.508430">
                <time>2017-07-15T13:26:50Z</time>
            </trkpt>
            <trkpt lat="46.304230" lon="10.508360">
                <time>2017-07-15T13:26:51Z</time>
            </trkpt>
            <trkpt lat="46.304250" lon="10.508330">
                <time>2017-07-15T13:26:52Z</time>
            </trkpt>
            <trkpt lat="46.304280" lon="10.508340">
                <time>2017-07-15T13:26:53Z</time>
            </trkpt>
            <trkpt lat="46.304290" lon="10.508370">
                <time>2017-07-15T13:26:54Z</time>
            </trkpt>
            <trkpt lat="46.304290" lon="10.508440">
                <time>2017-07-15T13:26:55Z</time>
            </trkpt>
            <trkpt lat="46.304280" lon="10.508520">
                <time>2017-07-15T13:26:56Z</time>
            </trkpt>
            <trkpt lat="46.304280" lon="10.508640">
                <time>2017-07-15T13:26:57Z</time>
            </trkpt>
            <trkpt lat="46.304290" lon="10.508780">
                <time>2017-07-15T13:26:58Z</time>
            </trkpt>
            <trkpt lat="46.304290" lon="10.508920">
                <time>2017-07-15T13:26:59Z</time>
            </trkpt>
            <trkpt lat="46.304250" lon="10.509070">
                <time>2017-07-15T13:27:00Z</time>
            </trkpt>
            <trkpt lat="46.304190" lon="10.509190">
                <time>2017-07-15T13:27:01Z</time>
            </trkpt>
            <trkpt lat="46.304090" lon="10.509280">
                <time>2017-07-15T13:27:02Z</time>
            </trkpt>
            <trkpt lat="46.303970" lon="10.509350">
                <time>2017-07-15T13:27:03Z</time>
            </trkpt>
            <trkpt lat="46.303850" lon="10.509390">
                <time>2017-07-15T13:27:04Z</time>
            </trkpt>
            <trkpt lat="46.303720" lon="10.509440">
                <time>2017-07-15T13:27:05Z</time>
            </trkpt>
            <trkpt lat="46.303570" lon="10.509490">
                <time>2017-07-15T13:27:06Z</time>
            </trkpt>
            <trkpt lat="46.303440" lon="10.509550">
                <time>2017-07-15T13:27:07Z</time>
            </trkpt>
            <trkpt lat="46.303280" lon="10.509620">
                <time>2017-07-15T13:27:08Z</time>
            </trkpt>
            <trkpt lat="46.303150" lon="10.509700">
                <time>2017-07-15T13:27:09Z</time>
            </trkpt>
            <trkpt lat="46.303030" lon="10.509770">
                <time>2017-07-15T13:27:10Z</time>
            </trkpt>
            <trkpt lat="46.302910" lon="10.509850">
                <time>2017-07-15T13:27:11Z</time>
            </trkpt>
            <trkpt lat="46.302830" lon="10.509920">
                <time>2017-07-15T13:27:12Z</time>
            </trkpt>
            <trkpt lat="46.302730" lon="10.509980">
                <time>2017-07-15T13:27:13Z</time>
            </trkpt>
            <trkpt lat="46.302630" lon="10.510030">
                <time>2017-07-15T13:27:14Z</time>
            </trkpt>
            <trkpt lat="46.302530" lon="10.510090">
                <time>2017-07-15T13:27:15Z</time>
            </trkpt>
            <trkpt lat="46.302430" lon="10.510140">
                <time>2017-07-15T13:27:16Z</time>
            </trkpt>
            <trkpt lat="46.302380" lon="10.510190">
                <time>2017-07-15T13:27:17Z</time>
            </trkpt>
            <trkpt lat="46.302330" lon="10.510220">
                <time>2017-07-15T13:27:18Z</time>
            </trkpt>
            <trkpt lat="46.302300" lon="10.510270">
                <time>2017-07-15T13:27:19Z</time>
            </trkpt>
            <trkpt lat="46.302280" lon="10.510310">
                <time>2017-07-15T13:27:20Z</time>
            </trkpt>
            <trkpt lat="46.302260" lon="10.510360">
                <time>2017-07-15T13:27:21Z</time>
            </trkpt>
            <trkpt lat="46.302240" lon="10.510440">
                <time>2017-07-15T13:27:22Z</time>
            </trkpt>
            <trkpt lat="46.302220" lon="10.510510">
                <time>2017-07-15T13:27:23Z</time>
            </trkpt>
            <trkpt lat="46.302190" lon="10.510600">
                <time>2017-07-15T13:27:24Z</time>
            </trkpt>
            <trkpt lat="46.302160" lon="10.510700">
                <time>2017-07-15T13:27:25Z</time>
            </trkpt>
            <trkpt lat="46.302130" lon="10.510810">
                <time>2017-07-15T13:27:26Z</time>
            </trkpt>
            <trkpt lat="46.302090" lon="10.510930">
                <time>2017-07-15T13:27:27Z</time>
            </trkpt>
            <trkpt lat="46.302060" lon="10.511050">
                <time>2017-07-15T13:27:28Z</time>
            </trkpt>
            <trkpt lat="46.302020" lon="10.511170">
                <time>2017-07-15T13:27:29Z</time>
            </trkpt>
            <trkpt lat="46.301990" lon="10.511260">
                <time>2017-07-15T13:27:30Z</time>
            </trkpt>
            <trkpt lat="46.301960" lon="10.511350">
                <time>2017-07-15T13:27:31Z</time>
            </trkpt>
            <trkpt lat="46.301930" lon="10.511430">
                <time>2017-07-15T13:27:32Z</time>
            </trkpt>
            <trkpt lat="46.301900" lon="10.511480">
                <time>2017-07-15T13:27:33Z</time>
            </trkpt>
            <trkpt lat="46.301890" lon="10.511520">
                <time>2017-07-15T13:27:34Z</time>
            </trkpt>
            <trkpt lat="46.301880" lon="10.511560">
                <time>2017-07-15T13:27:35Z</time>
            </trkpt>
            <trkpt lat="46.301890" lon="10.511590">
                <time>2017-07-15T13:27:36Z</time>
            </trkpt>
            <trkpt lat="46.301890" lon="10.511610">
                <time>2017-07-15T13:27:37Z</time>
            </trkpt>
            <trkpt lat="46.301890" lon="10.511610">
                <time>2017-07-15T13:27:38Z</time>
            </trkpt>
            <trkpt lat="46.301890" lon="10.511610">
                <time>2017-07-15T13:27:39Z</time>
            </trkpt>
            <trkpt lat="46.301890" lon="10.511610">
                <time>2017-07-15T13:27:40Z</time>
            </trkpt>
            <trkpt lat="46.301890" lon="10.511630">
                <time>2017-07-15T13:27:41Z</time>
            </trkpt>
            <trkpt lat="46.301900" lon="10.511640">
                <time>2017-07-15T13:27:42Z</time>
            </trkpt>
            <trkpt lat="46.301910" lon="10.511650">
                <time>2017-07-15T13:27:43Z</time>
            </trkpt>
            <trkpt lat="46.301910" lon="10.511650">
                <time>2017-07-15T13:27:44Z</time>
            </trkpt>
            <trkpt lat="46.301910" lon="10.511660">
                <time>2017-07-15T13:27:45Z</time>
            </trkpt>
            <trkpt lat="46.301920" lon="10.511660">
                <time>2017-07-15T13:27:46Z</time>
            </trkpt>
            <trkpt lat="46.301920" lon="10.511660">
                <time>2017-07-15T13:27:47Z</time>
            </trkpt>
            <trkpt lat="46.301920" lon="10.511660">
                <time>2017-07-15T13:27:48Z</time>
            </trkpt>
            <trkpt lat="46.301920" lon="10.511660">
                <time>2017-07-15T13:27:49Z</time>
            </trkpt>
            <trkpt lat="46.301920" lon="10.511660">
                <time>2017-07-15T13:27:50Z</time>
            </trkpt>
            <trkpt lat="46.301920" lon="10.511660">
                <time>2017-07-15T13:27:51Z</time>
            </trkpt>
            <trkpt lat="46.301920" lon="10.511660">
                <time>2017-07-15T13:27:52Z</time>
            </trkpt>
            <trkpt lat="46.301920" lon="10.511660">
                <time>2017-07-15T13:27:53Z</time>
            </trkpt>
            <trkpt lat="46.301920" lon="10.511660">
                <time>2017-07-15T13:27:54Z</time>
            </trkpt>
            <trkpt lat="46.301920" lon="10.511660">
                <time>2017-07-15T13:27:55Z</time>
            </trkpt>
            <trkpt lat="46.301920" lon="10.511660">
                <time>2017-07-15T13:27:56Z</time>
            </trkpt>
            <trkpt lat="46.301920" lon="10.511660">
                <time>2017-07-15T13:27:57Z</time>
            </trkpt>
            <trkpt lat="46.301920" lon="10.511660">
                <time>2017-07-15T13:27:58Z</time>
            </trkpt>
            <trkpt lat="46.301920" lon="10.511660">
                <time>2017-07-15T13:27:59Z</time>
            </trkpt>
            <trkpt lat="46.301920" lon="10.511660">
                <time>2017-07-15T13:28:00Z</time>
            </trkpt>
            <trkpt lat="46.301920" lon="10.511660">
                <time>2017-07-15T13:28:01Z</time>
            </trkpt>
            <trkpt lat="46.301920" lon="10.511660">
                <time>2017-07-15T13:28:02Z</time>
            </trkpt>
            <trkpt lat="46.301920" lon="10.511660">
                <time>2017-07-15T13:28:03Z</time>
            </trkpt>
            <trkpt lat="46.301920" lon="10.511660">
                <time>2017-07-15T13:28:04Z</time>
            </trkpt>
            <trkpt lat="46.301920" lon="10.511660">
                <time>2017-07-15T13:28:05Z</time>
            </trkpt>
            <trkpt lat="46.301920" lon="10.511660">
                <time>2017-07-15T13:28:06Z</time>
            </trkpt>
            <trkpt lat="46.301920" lon="10.511660">
                <time>2017-07-15T13:28:07Z</time>
            </trkpt>
            <trkpt lat="46.301920" lon="10.511660">
                <time>2017-07-15T13:28:08Z</time>
            </trkpt>
            <trkpt lat="46.301920" lon="10.511660">
                <time>2017-07-15T13:28:09Z</time>
            </trkpt>
            <trkpt lat="46.301920" lon="10.511660">
                <time>2017-07-15T13:28:10Z</time>
            </trkpt>
            <trkpt lat="46.301920" lon="10.511660">
                <time>2017-07-15T13:28:11Z</time>
            </trkpt>
            <trkpt lat="46.301840" lon="10.511550">
                <time>2017-07-15T13:36:05Z</time>
            </trkpt>
            <trkpt lat="46.301890" lon="10.511540">
                <time>2017-07-15T13:36:06Z</time>
            </trkpt>
            <trkpt lat="46.301900" lon="10.511620">
                <time>2017-07-15T13:36:07Z</time>
            </trkpt>
            <trkpt lat="46.301920" lon="10.511670">
                <time>2017-07-15T13:36:08Z</time>
            </trkpt>
            <trkpt lat="46.301890" lon="10.511640">
                <time>2017-07-15T13:36:09Z</time>
            </trkpt>
            <trkpt lat="46.301920" lon="10.511650">
                <time>2017-07-15T13:36:10Z</time>
            </trkpt>
            <trkpt lat="46.301940" lon="10.511670">
                <time>2017-07-15T13:36:11Z</time>
            </trkpt>
            <trkpt lat="46.301910" lon="10.511700">
                <time>2017-07-15T13:36:12Z</time>
            </trkpt>
            <trkpt lat="46.301920" lon="10.511660">
                <time>2017-07-15T13:36:15Z</time>
            </trkpt>
            <trkpt lat="46.301920" lon="10.511660">
                <time>2017-07-15T13:36:16Z</time>
            </trkpt>
            <trkpt lat="46.301920" lon="10.511660">
                <time>2017-07-15T13:36:17Z</time>
            </trkpt>
            <trkpt lat="46.301920" lon="10.511660">
                <time>2017-07-15T13:36:18Z</time>
            </trkpt>
            <trkpt lat="46.301920" lon="10.511660">
                <time>2017-07-15T13:36:19Z</time>
            </trkpt>
            <trkpt lat="46.301920" lon="10.511660">
                <time>2017-07-15T13:36:20Z</time>
            </trkpt>
            <trkpt lat="46.301920" lon="10.511660">
                <time>2017-07-15T13:36:21Z</time>
            </trkpt>
            <trkpt lat="46.301920" lon="10.511660">
                <time>2017-07-15T13:36:22Z</time>
            </trkpt>
            <trkpt lat="46.301920" lon="10.511660">
                <time>2017-07-15T13:36:23Z</time>
            </trkpt>
            <trkpt lat="46.301920" lon="10.511660">
                <time>2017-07-15T13:36:24Z</time>
            </trkpt>
            <trkpt lat="46.301930" lon="10.511660">
                <time>2017-07-15T13:36:25Z</time>
            </trkpt>
            <trkpt lat="46.301940" lon="10.511650">
                <time>2017-07-15T13:36:26Z</time>
            </trkpt>
            <trkpt lat="46.301960" lon="10.511640">
                <time>2017-07-15T13:36:27Z</time>
            </trkpt>
            <trkpt lat="46.301990" lon="10.511610">
                <time>2017-07-15T13:36:28Z</time>
            </trkpt>
            <trkpt lat="46.302010" lon="10.511560">
                <time>2017-07-15T13:36:29Z</time>
            </trkpt>
            <trkpt lat="46.302030" lon="10.511460">
                <time>2017-07-15T13:36:30Z</time>
            </trkpt>
            <trkpt lat="46.302060" lon="10.511350">
                <time>2017-07-15T13:36:31Z</time>
            </trkpt>
            <trkpt lat="46.302100" lon="10.511240">
                <time>2017-07-15T13:36:32Z</time>
            </trkpt>
            <trkpt lat="46.302140" lon="10.511130">
                <time>2017-07-15T13:36:33Z</time>
            </trkpt>
            <trkpt lat="46.302180" lon="10.511000">
                <time>2017-07-15T13:36:34Z</time>
            </trkpt>
            <trkpt lat="46.302230" lon="10.510870">
                <time>2017-07-15T13:36:35Z</time>
            </trkpt>
            <trkpt lat="46.302280" lon="10.510750">
                <time>2017-07-15T13:36:36Z</time>
            </trkpt>
            <trkpt lat="46.302330" lon="10.510660">
                <time>2017-07-15T13:36:37Z</time>
            </trkpt>
            <trkpt lat="46.302370" lon="10.510580">
                <time>2017-07-15T13:36:38Z</time>
            </trkpt>
            <trkpt lat="46.302420" lon="10.510520">
                <time>2017-07-15T13:36:39Z</time>
            </trkpt>
            <trkpt lat="46.302480" lon="10.510470">
                <time>2017-07-15T13:36:40Z</time>
            </trkpt>
            <trkpt lat="46.302570" lon="10.510410">
                <time>2017-07-15T13:36:41Z</time>
            </trkpt>
            <trkpt lat="46.302690" lon="10.510360">
                <time>2017-07-15T13:36:42Z</time>
            </trkpt>
            <trkpt lat="46.302800" lon="10.510320">
                <time>2017-07-15T13:36:43Z</time>
            </trkpt>
            <trkpt lat="46.302910" lon="10.510270">
                <time>2017-07-15T13:36:44Z</time>
            </trkpt>
            <trkpt lat="46.302990" lon="10.510240">
                <time>2017-07-15T13:36:45Z</time>
            </trkpt>
            <trkpt lat="46.303070" lon="10.510200">
                <time>2017-07-15T13:36:46Z</time>
            </trkpt>
            <trkpt lat="46.303170" lon="10.510170">
                <time>2017-07-15T13:36:47Z</time>
            </trkpt>
            <trkpt lat="46.303270" lon="10.510140">
                <time>2017-07-15T13:36:48Z</time>
            </trkpt>
            <trkpt lat="46.303370" lon="10.510110">
                <time>2017-07-15T13:36:49Z</time>
            </trkpt>
            <trkpt lat="46.303470" lon="10.510100">
                <time>2017-07-15T13:36:50Z</time>
            </trkpt>
            <trkpt lat="46.303550" lon="10.510080">
                <time>2017-07-15T13:36:51Z</time>
            </trkpt>
            <trkpt lat="46.303650" lon="10.510060">
                <time>2017-07-15T13:36:52Z</time>
            </trkpt>
            <trkpt lat="46.303750" lon="10.510040">
                <time>2017-07-15T13:36:53Z</time>
            </trkpt>
            <trkpt lat="46.303850" lon="10.510030">
                <time>2017-07-15T13:36:54Z</time>
            </trkpt>
            <trkpt lat="46.303950" lon="10.510030">
                <time>2017-07-15T13:36:55Z</time>
            </trkpt>
            <trkpt lat="46.304040" lon="10.510030">
                <time>2017-07-15T13:36:56Z</time>
            </trkpt>
            <trkpt lat="46.304130" lon="10.510020">
                <time>2017-07-15T13:36:57Z</time>
            </trkpt>
            <trkpt lat="46.304240" lon="10.510000">
                <time>2017-07-15T13:36:58Z</time>
            </trkpt>
            <trkpt lat="46.304310" lon="10.510000">
                <time>2017-07-15T13:36:59Z</time>
            </trkpt>
            <trkpt lat="46.304380" lon="10.509990">
                <time>2017-07-15T13:37:00Z</time>
            </trkpt>
            <trkpt lat="46.304430" lon="10.509980">
                <time>2017-07-15T13:37:01Z</time>
            </trkpt>
            <trkpt lat="46.304490" lon="10.509970">
                <time>2017-07-15T13:37:02Z</time>
            </trkpt>
            <trkpt lat="46.304550" lon="10.509950">
                <time>2017-07-15T13:37:03Z</time>
            </trkpt>
            <trkpt lat="46.304600" lon="10.509950">
                <time>2017-07-15T13:37:04Z</time>
            </trkpt>
            <trkpt lat="46.304650" lon="10.509930">
                <time>2017-07-15T13:37:05Z</time>
            </trkpt>
            <trkpt lat="46.304690" lon="10.509910">
                <time>2017-07-15T13:37:06Z</time>
            </trkpt>
            <trkpt lat="46.304720" lon="10.509900">
                <time>2017-07-15T13:37:07Z</time>
            </trkpt>
            <trkpt lat="46.304740" lon="10.509870">
                <time>2017-07-15T13:37:08Z</time>
            </trkpt>
            <trkpt lat="46.304750" lon="10.509840">
                <time>2017-07-15T13:37:09Z</time>
            </trkpt>
            <trkpt lat="46.304770" lon="10.509780">
                <time>2017-07-15T13:37:10Z</time>
            </trkpt>
            <trkpt lat="46.304790" lon="10.509710">
                <time>2017-07-15T13:37:11Z</time>
            </trkpt>
            <trkpt lat="46.304820" lon="10.509630">
                <time>2017-07-15T13:37:12Z</time>
            </trkpt>
            <trkpt lat="46.304860" lon="10.509540">
                <time>2017-07-15T13:37:13Z</time>
            </trkpt>
            <trkpt lat="46.304920" lon="10.509470">
                <time>2017-07-15T13:37:14Z</time>
            </trkpt>
            <trkpt lat="46.304990" lon="10.509420">
                <time>2017-07-15T13:37:15Z</time>
            </trkpt>
            <trkpt lat="46.305070" lon="10.509390">
                <time>2017-07-15T13:37:16Z</time>
            </trkpt>
            <trkpt lat="46.305150" lon="10.509370">
                <time>2017-07-15T13:37:17Z</time>
            </trkpt>
            <trkpt lat="46.305240" lon="10.509360">
                <time>2017-07-15T13:37:18Z</time>
            </trkpt>
            <trkpt lat="46.305340" lon="10.509350">
                <time>2017-07-15T13:37:19Z</time>
            </trkpt>
            <trkpt lat="46.305430" lon="10.509360">
                <time>2017-07-15T13:37:20Z</time>
            </trkpt>
            <trkpt lat="46.305530" lon="10.509350">
                <time>2017-07-15T13:37:21Z</time>
            </trkpt>
            <trkpt lat="46.305620" lon="10.509350">
                <time>2017-07-15T13:37:22Z</time>
            </trkpt>
            <trkpt lat="46.305710" lon="10.509330">
                <time>2017-07-15T13:37:23Z</time>
            </trkpt>
            <trkpt lat="46.305810" lon="10.509320">
                <time>2017-07-15T13:37:24Z</time>
            </trkpt>
            <trkpt lat="46.305890" lon="10.509320">
                <time>2017-07-15T13:37:25Z</time>
            </trkpt>
            <trkpt lat="46.305970" lon="10.509310">
                <time>2017-07-15T13:37:26Z</time>
            </trkpt>
            <trkpt lat="46.306050" lon="10.509270">
                <time>2017-07-15T13:37:27Z</time>
            </trkpt>
            <trkpt lat="46.306110" lon="10.509200">
                <time>2017-07-15T13:37:28Z</time>
            </trkpt>
            <trkpt lat="46.306180" lon="10.509110">
                <time>2017-07-15T13:37:29Z</time>
            </trkpt>
            <trkpt lat="46.306260" lon="10.509030">
                <time>2017-07-15T13:37:30Z</time>
            </trkpt>
            <trkpt lat="46.306330" lon="10.508980">
                <time>2017-07-15T13:37:31Z</time>
            </trkpt>
            <trkpt lat="46.306390" lon="10.508910">
                <time>2017-07-15T13:37:32Z</time>
            </trkpt>
            <trkpt lat="46.306420" lon="10.508830">
                <time>2017-07-15T13:37:33Z</time>
            </trkpt>
            <trkpt lat="46.306450" lon="10.508720">
                <time>2017-07-15T13:37:34Z</time>
            </trkpt>
            <trkpt lat="46.306440" lon="10.508610">
                <time>2017-07-15T13:37:35Z</time>
            </trkpt>
            <trkpt lat="46.306400" lon="10.508510">
                <time>2017-07-15T13:37:36Z</time>
            </trkpt>
            <trkpt lat="46.306350" lon="10.508390">
                <time>2017-07-15T13:37:37Z</time>
            </trkpt>
            <trkpt lat="46.306310" lon="10.508270">
                <time>2017-07-15T13:37:38Z</time>
            </trkpt>
            <trkpt lat="46.306270" lon="10.508150">
                <time>2017-07-15T13:37:39Z</time>
            </trkpt>
            <trkpt lat="46.306240" lon="10.508010">
                <time>2017-07-15T13:37:40Z</time>
            </trkpt>
            <trkpt lat="46.306240" lon="10.507860">
                <time>2017-07-15T13:37:41Z</time>
            </trkpt>
            <trkpt lat="46.306260" lon="10.507690">
                <time>2017-07-15T13:37:42Z</time>
            </trkpt>
            <trkpt lat="46.306290" lon="10.507510">
                <time>2017-07-15T13:37:43Z</time>
            </trkpt>
            <trkpt lat="46.306330" lon="10.507360">
                <time>2017-07-15T13:37:44Z</time>
            </trkpt>
            <trkpt lat="46.306370" lon="10.507210">
                <time>2017-07-15T13:37:45Z</time>
            </trkpt>
            <trkpt lat="46.306400" lon="10.507070">
                <time>2017-07-15T13:37:46Z</time>
            </trkpt>
            <trkpt lat="46.306420" lon="10.506960">
                <time>2017-07-15T13:37:47Z</time>
            </trkpt>
            <trkpt lat="46.306430" lon="10.506840">
                <time>2017-07-15T13:37:48Z</time>
            </trkpt>
            <trkpt lat="46.306450" lon="10.506730">
                <time>2017-07-15T13:37:49Z</time>
            </trkpt>
            <trkpt lat="46.306490" lon="10.506620">
                <time>2017-07-15T13:37:50Z</time>
            </trkpt>
            <trkpt lat="46.306530" lon="10.506520">
                <time>2017-07-15T13:37:51Z</time>
            </trkpt>
            <trkpt lat="46.306580" lon="10.506450">
                <time>2017-07-15T13:37:52Z</time>
            </trkpt>
            <trkpt lat="46.306630" lon="10.506350">
                <time>2017-07-15T13:37:53Z</time>
            </trkpt>
            <trkpt lat="46.306670" lon="10.506230">
                <time>2017-07-15T13:37:54Z</time>
            </trkpt>
            <trkpt lat="46.306710" lon="10.506110">
                <time>2017-07-15T13:37:55Z</time>
            </trkpt>
            <trkpt lat="46.306750" lon="10.506010">
                <time>2017-07-15T13:37:56Z</time>
            </trkpt>
            <trkpt lat="46.306780" lon="10.505930">
                <time>2017-07-15T13:37:57Z</time>
            </trkpt>
            <trkpt lat="46.306820" lon="10.505850">
                <time>2017-07-15T13:37:58Z</time>
            </trkpt>
            <trkpt lat="46.306860" lon="10.505810">
                <time>2017-07-15T13:37:59Z</time>
            </trkpt>
            <trkpt lat="46.306890" lon="10.505770">
                <time>2017-07-15T13:38:00Z</time>
            </trkpt>
            <trkpt lat="46.306880" lon="10.505780">
                <time>2017-07-15T13:38:01Z</time>
            </trkpt>
            <trkpt lat="46.306870" lon="10.505780">
                <time>2017-07-15T13:38:02Z</time>
            </trkpt>
            <trkpt lat="46.306880" lon="10.505800">
                <time>2017-07-15T13:38:03Z</time>
            </trkpt>
            <trkpt lat="46.306880" lon="10.505800">
                <time>2017-07-15T13:38:04Z</time>
            </trkpt>
            <trkpt lat="46.306870" lon="10.505790">
                <time>2017-07-15T13:38:05Z</time>
            </trkpt>
            <trkpt lat="46.306880" lon="10.505780">
                <time>2017-07-15T13:38:06Z</time>
            </trkpt>
            <trkpt lat="46.306890" lon="10.505780">
                <time>2017-07-15T13:38:07Z</time>
            </trkpt>
            <trkpt lat="46.306900" lon="10.505780">
                <time>2017-07-15T13:38:08Z</time>
            </trkpt>
            <trkpt lat="46.306910" lon="10.505760">
                <time>2017-07-15T13:38:09Z</time>
            </trkpt>
            <trkpt lat="46.306950" lon="10.505740">
                <time>2017-07-15T13:38:10Z</time>
            </trkpt>
            <trkpt lat="46.307010" lon="10.505720">
                <time>2017-07-15T13:38:11Z</time>
            </trkpt>
            <trkpt lat="46.307090" lon="10.505680">
                <time>2017-07-15T13:38:12Z</time>
            </trkpt>
            <trkpt lat="46.307160" lon="10.505650">
                <time>2017-07-15T13:38:13Z</time>
            </trkpt>
            <trkpt lat="46.307220" lon="10.505620">
                <time>2017-07-15T13:38:14Z</time>
            </trkpt>
            <trkpt lat="46.307260" lon="10.505610">
                <time>2017-07-15T13:38:15Z</time>
            </trkpt>
            <trkpt lat="46.307290" lon="10.505600">
                <time>2017-07-15T13:38:16Z</time>
            </trkpt>
            <trkpt lat="46.307330" lon="10.505580">
                <time>2017-07-15T13:38:17Z</time>
            </trkpt>
            <trkpt lat="46.307380" lon="10.505570">
                <time>2017-07-15T13:38:18Z</time>
            </trkpt>
            <trkpt lat="46.307450" lon="10.505570">
                <time>2017-07-15T13:38:19Z</time>
            </trkpt>
            <trkpt lat="46.307530" lon="10.505540">
                <time>2017-07-15T13:38:20Z</time>
            </trkpt>
            <trkpt lat="46.307620" lon="10.505490">
                <time>2017-07-15T13:38:21Z</time>
            </trkpt>
            <trkpt lat="46.307720" lon="10.505430">
                <time>2017-07-15T13:38:22Z</time>
            </trkpt>
            <trkpt lat="46.307840" lon="10.505340">
                <time>2017-07-15T13:38:23Z</time>
            </trkpt>
            <trkpt lat="46.307930" lon="10.505260">
                <time>2017-07-15T13:38:24Z</time>
            </trkpt>
            <trkpt lat="46.308010" lon="10.505150">
                <time>2017-07-15T13:38:25Z</time>
            </trkpt>
            <trkpt lat="46.308080" lon="10.505020">
                <time>2017-07-15T13:38:26Z</time>
            </trkpt>
            <trkpt lat="46.308140" lon="10.504860">
                <time>2017-07-15T13:38:27Z</time>
            </trkpt>
            <trkpt lat="46.308220" lon="10.504710">
                <time>2017-07-15T13:38:28Z</time>
            </trkpt>
            <trkpt lat="46.308280" lon="10.504600">
                <time>2017-07-15T13:38:29Z</time>
            </trkpt>
            <trkpt lat="46.308320" lon="10.504510">
                <time>2017-07-15T13:38:30Z</time>
            </trkpt>
            <trkpt lat="46.308370" lon="10.504470">
                <time>2017-07-15T13:38:31Z</time>
            </trkpt>
            <trkpt lat="46.308400" lon="10.504470">
                <time>2017-07-15T13:38:32Z</time>
            </trkpt>
            <trkpt lat="46.308420" lon="10.504500">
                <time>2017-07-15T13:38:33Z</time>
            </trkpt>
            <trkpt lat="46.308420" lon="10.504540">
                <time>2017-07-15T13:38:34Z</time>
            </trkpt>
            <trkpt lat="46.308400" lon="10.504590">
                <time>2017-07-15T13:38:35Z</time>
            </trkpt>
            <trkpt lat="46.308340" lon="10.504670">
                <time>2017-07-15T13:38:36Z</time>
            </trkpt>
            <trkpt lat="46.308280" lon="10.504770">
                <time>2017-07-15T13:38:37Z</time>
            </trkpt>
            <trkpt lat="46.308220" lon="10.504890">
                <time>2017-07-15T13:38:38Z</time>
            </trkpt>
            <trkpt lat="46.308170" lon="10.505040">
                <time>2017-07-15T13:38:39Z</time>
            </trkpt>
            <trkpt lat="46.308120" lon="10.505160">
                <time>2017-07-15T13:38:40Z</time>
            </trkpt>
            <trkpt lat="46.308060" lon="10.505280">
                <time>2017-07-15T13:38:41Z</time>
            </trkpt>
            <trkpt lat="46.307990" lon="10.505390">
                <time>2017-07-15T13:38:42Z</time>
            </trkpt>
            <trkpt lat="46.307910" lon="10.505490">
                <time>2017-07-15T13:38:43Z</time>
            </trkpt>
            <trkpt lat="46.307830" lon="10.505580">
                <time>2017-07-15T13:38:44Z</time>
            </trkpt>
            <trkpt lat="46.307770" lon="10.505670">
                <time>2017-07-15T13:38:45Z</time>
            </trkpt>
            <trkpt lat="46.307710" lon="10.505790">
                <time>2017-07-15T13:38:46Z</time>
            </trkpt>
            <trkpt lat="46.307660" lon="10.505940">
                <time>2017-07-15T13:38:47Z</time>
            </trkpt>
            <trkpt lat="46.307600" lon="10.506080">
                <time>2017-07-15T13:38:48Z</time>
            </trkpt>
            <trkpt lat="46.307540" lon="10.506250">
                <time>2017-07-15T13:38:49Z</time>
            </trkpt>
            <trkpt lat="46.307460" lon="10.506430">
                <time>2017-07-15T13:38:50Z</time>
            </trkpt>
            <trkpt lat="46.307390" lon="10.506570">
                <time>2017-07-15T13:38:51Z</time>
            </trkpt>
            <trkpt lat="46.307330" lon="10.506700">
                <time>2017-07-15T13:38:52Z</time>
            </trkpt>
            <trkpt lat="46.307290" lon="10.506800">
                <time>2017-07-15T13:38:53Z</time>
            </trkpt>
            <trkpt lat="46.307260" lon="10.506920">
                <time>2017-07-15T13:38:54Z</time>
            </trkpt>
            <trkpt lat="46.307260" lon="10.507080">
                <time>2017-07-15T13:38:55Z</time>
            </trkpt>
            <trkpt lat="46.307250" lon="10.507230">
                <time>2017-07-15T13:38:56Z</time>
            </trkpt>
            <trkpt lat="46.307250" lon="10.507400">
                <time>2017-07-15T13:38:57Z</time>
            </trkpt>
            <trkpt lat="46.307270" lon="10.507590">
                <time>2017-07-15T13:38:58Z</time>
            </trkpt>
            <trkpt lat="46.307290" lon="10.507790">
                <time>2017-07-15T13:38:59Z</time>
            </trkpt>
            <trkpt lat="46.307300" lon="10.508000">
                <time>2017-07-15T13:39:00Z</time>
            </trkpt>
            <trkpt lat="46.307310" lon="10.508150">
                <time>2017-07-15T13:39:01Z</time>
            </trkpt>
            <trkpt lat="46.307320" lon="10.508290">
                <time>2017-07-15T13:39:02Z</time>
            </trkpt>
            <trkpt lat="46.307330" lon="10.508400">
                <time>2017-07-15T13:39:03Z</time>
            </trkpt>
            <trkpt lat="46.307340" lon="10.508470">
                <time>2017-07-15T13:39:04Z</time>
            </trkpt>
            <trkpt lat="46.307370" lon="10.508530">
                <time>2017-07-15T13:39:05Z</time>
            </trkpt>
            <trkpt lat="46.307420" lon="10.508540">
                <time>2017-07-15T13:39:06Z</time>
            </trkpt>
            <trkpt lat="46.307450" lon="10.508510">
                <time>2017-07-15T13:39:07Z</time>
            </trkpt>
            <trkpt lat="46.307470" lon="10.508430">
                <time>2017-07-15T13:39:08Z</time>
            </trkpt>
            <trkpt lat="46.307470" lon="10.508320">
                <time>2017-07-15T13:39:09Z</time>
            </trkpt>
            <trkpt lat="46.307470" lon="10.508170">
                <time>2017-07-15T13:39:10Z</time>
            </trkpt>
            <trkpt lat="46.307480" lon="10.507980">
                <time>2017-07-15T13:39:11Z</time>
            </trkpt>
            <trkpt lat="46.307480" lon="10.507830">
                <time>2017-07-15T13:39:12Z</time>
            </trkpt>
            <trkpt lat="46.307480" lon="10.507680">
                <time>2017-07-15T13:39:13Z</time>
            </trkpt>
            <trkpt lat="46.307490" lon="10.507550">
                <time>2017-07-15T13:39:14Z</time>
            </trkpt>
            <trkpt lat="46.307510" lon="10.507420">
                <time>2017-07-15T13:39:15Z</time>
            </trkpt>
            <trkpt lat="46.307550" lon="10.507280">
                <time>2017-07-15T13:39:16Z</time>
            </trkpt>
            <trkpt lat="46.307590" lon="10.507150">
                <time>2017-07-15T13:39:17Z</time>
            </trkpt>
            <trkpt lat="46.307630" lon="10.507010">
                <time>2017-07-15T13:39:18Z</time>
            </trkpt>
            <trkpt lat="46.307670" lon="10.506880">
                <time>2017-07-15T13:39:19Z</time>
            </trkpt>
            <trkpt lat="46.307690" lon="10.506810">
                <time>2017-07-15T13:39:20Z</time>
            </trkpt>
            <trkpt lat="46.307720" lon="10.506760">
                <time>2017-07-15T13:39:21Z</time>
            </trkpt>
            <trkpt lat="46.307760" lon="10.506690">
                <time>2017-07-15T13:39:22Z</time>
            </trkpt>
            <trkpt lat="46.307810" lon="10.506620">
                <time>2017-07-15T13:39:23Z</time>
            </trkpt>
            <trkpt lat="46.307880" lon="10.506550">
                <time>2017-07-15T13:39:24Z</time>
            </trkpt>
            <trkpt lat="46.307950" lon="10.506470">
                <time>2017-07-15T13:39:25Z</time>
            </trkpt>
            <trkpt lat="46.308020" lon="10.506340">
                <time>2017-07-15T13:39:26Z</time>
            </trkpt>
            <trkpt lat="46.308080" lon="10.506190">
                <time>2017-07-15T13:39:27Z</time>
            </trkpt>
            <trkpt lat="46.308140" lon="10.506060">
                <time>2017-07-15T13:39:28Z</time>
            </trkpt>
            <trkpt lat="46.308220" lon="10.505940">
                <time>2017-07-15T13:39:29Z</time>
            </trkpt>
            <trkpt lat="46.308300" lon="10.505820">
                <time>2017-07-15T13:39:30Z</time>
            </trkpt>
            <trkpt lat="46.308380" lon="10.505710">
                <time>2017-07-15T13:39:31Z</time>
            </trkpt>
            <trkpt lat="46.308480" lon="10.505600">
                <time>2017-07-15T13:39:32Z</time>
            </trkpt>
            <trkpt lat="46.308580" lon="10.505500">
                <time>2017-07-15T13:39:33Z</time>
            </trkpt>
            <trkpt lat="46.308680" lon="10.505380">
                <time>2017-07-15T13:39:34Z</time>
            </trkpt>
            <trkpt lat="46.308790" lon="10.505230">
                <time>2017-07-15T13:39:35Z</time>
            </trkpt>
            <trkpt lat="46.308880" lon="10.505100">
                <time>2017-07-15T13:39:36Z</time>
            </trkpt>
            <trkpt lat="46.308950" lon="10.504970">
                <time>2017-07-15T13:39:37Z</time>
            </trkpt>
            <trkpt lat="46.309020" lon="10.504850">
                <time>2017-07-15T13:39:38Z</time>
            </trkpt>
            <trkpt lat="46.309070" lon="10.504770">
                <time>2017-07-15T13:39:39Z</time>
            </trkpt>
            <trkpt lat="46.309110" lon="10.504710">
                <time>2017-07-15T13:39:40Z</time>
            </trkpt>
            <trkpt lat="46.309140" lon="10.504670">
                <time>2017-07-15T13:39:41Z</time>
            </trkpt>
            <trkpt lat="46.309170" lon="10.504680">
                <time>2017-07-15T13:39:42Z</time>
            </trkpt>
            <trkpt lat="46.309190" lon="10.504730">
                <time>2017-07-15T13:39:43Z</time>
            </trkpt>
            <trkpt lat="46.309180" lon="10.504800">
                <time>2017-07-15T13:39:44Z</time>
            </trkpt>
            <trkpt lat="46.309130" lon="10.504880">
                <time>2017-07-15T13:39:45Z</time>
            </trkpt>
            <trkpt lat="46.309060" lon="10.504990">
                <time>2017-07-15T13:39:46Z</time>
            </trkpt>
            <trkpt lat="46.308970" lon="10.505130">
                <time>2017-07-15T13:39:47Z</time>
            </trkpt>
            <trkpt lat="46.308880" lon="10.505300">
                <time>2017-07-15T13:39:48Z</time>
            </trkpt>
            <trkpt lat="46.308820" lon="10.505460">
                <time>2017-07-15T13:39:49Z</time>
            </trkpt>
            <trkpt lat="46.308780" lon="10.505650">
                <time>2017-07-15T13:39:50Z</time>
            </trkpt>
            <trkpt lat="46.308750" lon="10.505870">
                <time>2017-07-15T13:39:51Z</time>
            </trkpt>
            <trkpt lat="46.308730" lon="10.506080">
                <time>2017-07-15T13:39:52Z</time>
            </trkpt>
            <trkpt lat="46.308700" lon="10.506310">
                <time>2017-07-15T13:39:53Z</time>
            </trkpt>
            <trkpt lat="46.308640" lon="10.506570">
                <time>2017-07-15T13:39:54Z</time>
            </trkpt>
            <trkpt lat="46.308580" lon="10.506790">
                <time>2017-07-15T13:39:55Z</time>
            </trkpt>
            <trkpt lat="46.308500" lon="10.507020">
                <time>2017-07-15T13:39:56Z</time>
            </trkpt>
            <trkpt lat="46.308430" lon="10.507210">
                <time>2017-07-15T13:39:57Z</time>
            </trkpt>
            <trkpt lat="46.308370" lon="10.507390">
                <time>2017-07-15T13:39:58Z</time>
            </trkpt>
            <trkpt lat="46.308310" lon="10.507550">
                <time>2017-07-15T13:39:59Z</time>
            </trkpt>
            <trkpt lat="46.308270" lon="10.507650">
                <time>2017-07-15T13:40:00Z</time>
            </trkpt>
            <trkpt lat="46.308260" lon="10.507740">
                <time>2017-07-15T13:40:01Z</time>
            </trkpt>
            <trkpt lat="46.308270" lon="10.507800">
                <time>2017-07-15T13:40:02Z</time>
            </trkpt>
            <trkpt lat="46.308310" lon="10.507820">
                <time>2017-07-15T13:40:03Z</time>
            </trkpt>
            <trkpt lat="46.308360" lon="10.507790">
                <time>2017-07-15T13:40:04Z</time>
            </trkpt>
            <trkpt lat="46.308410" lon="10.507720">
                <time>2017-07-15T13:40:05Z</time>
            </trkpt>
            <trkpt lat="46.308470" lon="10.507630">
                <time>2017-07-15T13:40:06Z</time>
            </trkpt>
            <trkpt lat="46.308550" lon="10.507500">
                <time>2017-07-15T13:40:07Z</time>
            </trkpt>
            <trkpt lat="46.308630" lon="10.507370">
                <time>2017-07-15T13:40:08Z</time>
            </trkpt>
            <trkpt lat="46.308720" lon="10.507230">
                <time>2017-07-15T13:40:09Z</time>
            </trkpt>
            <trkpt lat="46.308820" lon="10.507070">
                <time>2017-07-15T13:40:10Z</time>
            </trkpt>
            <trkpt lat="46.308890" lon="10.506940">
                <time>2017-07-15T13:40:11Z</time>
            </trkpt>
            <trkpt lat="46.308970" lon="10.506820">
                <time>2017-07-15T13:40:12Z</time>
            </trkpt>
            <trkpt lat="46.309010" lon="10.506770">
                <time>2017-07-15T13:40:13Z</time>
            </trkpt>
            <trkpt lat="46.309040" lon="10.506740">
                <time>2017-07-15T13:40:14Z</time>
            </trkpt>
            <trkpt lat="46.309070" lon="10.506710">
                <time>2017-07-15T13:40:15Z</time>
            </trkpt>
            <trkpt lat="46.309090" lon="10.506670">
                <time>2017-07-15T13:40:16Z</time>
            </trkpt>
            <trkpt lat="46.309130" lon="10.506610">
                <time>2017-07-15T13:40:17Z</time>
            </trkpt>
            <trkpt lat="46.309180" lon="10.506560">
                <time>2017-07-15T13:40:18Z</time>
            </trkpt>
            <trkpt lat="46.309250" lon="10.506490">
                <time>2017-07-15T13:40:19Z</time>
            </trkpt>
            <trkpt lat="46.309320" lon="10.506380">
                <time>2017-07-15T13:40:20Z</time>
            </trkpt>
            <trkpt lat="46.309390" lon="10.506270">
                <time>2017-07-15T13:40:21Z</time>
            </trkpt>
            <trkpt lat="46.309480" lon="10.506150">
                <time>2017-07-15T13:40:22Z</time>
            </trkpt>
            <trkpt lat="46.309580" lon="10.506010">
                <time>2017-07-15T13:40:23Z</time>
            </trkpt>
            <trkpt lat="46.309690" lon="10.505890">
                <time>2017-07-15T13:40:24Z</time>
            </trkpt>
            <trkpt lat="46.309800" lon="10.505760">
                <time>2017-07-15T13:40:25Z</time>
            </trkpt>
            <trkpt lat="46.309920" lon="10.505610">
                <time>2017-07-15T13:40:26Z</time>
            </trkpt>
            <trkpt lat="46.310020" lon="10.505460">
                <time>2017-07-15T13:40:27Z</time>
            </trkpt>
            <trkpt lat="46.310140" lon="10.505300">
                <time>2017-07-15T13:40:28Z</time>
            </trkpt>
            <trkpt lat="46.310250" lon="10.505160">
                <time>2017-07-15T13:40:29Z</time>
            </trkpt>
            <trkpt lat="46.310370" lon="10.505030">
                <time>2017-07-15T13:40:30Z</time>
            </trkpt>
            <trkpt lat="46.310500" lon="10.504910">
                <time>2017-07-15T13:40:31Z</time>
            </trkpt>
            <trkpt lat="46.310600" lon="10.504820">
                <time>2017-07-15T13:40:32Z</time>
            </trkpt>
            <trkpt lat="46.310720" lon="10.504730">
                <time>2017-07-15T13:40:33Z</time>
            </trkpt>
            <trkpt lat="46.310820" lon="10.504620">
                <time>2017-07-15T13:40:34Z</time>
            </trkpt>
            <trkpt lat="46.310900" lon="10.504480">
                <time>2017-07-15T13:40:35Z</time>
            </trkpt>
            <trkpt lat="46.310960" lon="10.504320">
                <time>2017-07-15T13:40:36Z</time>
            </trkpt>
            <trkpt lat="46.311010" lon="10.504200">
                <time>2017-07-15T13:40:37Z</time>
            </trkpt>
            <trkpt lat="46.311070" lon="10.504090">
                <time>2017-07-15T13:40:38Z</time>
            </trkpt>
            <trkpt lat="46.311160" lon="10.504040">
                <time>2017-07-15T13:40:39Z</time>
            </trkpt>
            <trkpt lat="46.311260" lon="10.504030">
                <time>2017-07-15T13:40:40Z</time>
            </trkpt>
            <trkpt lat="46.311390" lon="10.504050">
                <time>2017-07-15T13:40:41Z</time>
            </trkpt>
            <trkpt lat="46.311530" lon="10.504100">
                <time>2017-07-15T13:40:42Z</time>
            </trkpt>
            <trkpt lat="46.311660" lon="10.504150">
                <time>2017-07-15T13:40:43Z</time>
            </trkpt>
            <trkpt lat="46.311810" lon="10.504220">
                <time>2017-07-15T13:40:44Z</time>
            </trkpt>
            <trkpt lat="46.311940" lon="10.504290">
                <time>2017-07-15T13:40:45Z</time>
            </trkpt>
            <trkpt lat="46.312080" lon="10.504370">
                <time>2017-07-15T13:40:46Z</time>
            </trkpt>
            <trkpt lat="46.312200" lon="10.504450">
                <time>2017-07-15T13:40:47Z</time>
            </trkpt>
            <trkpt lat="46.312320" lon="10.504490">
                <time>2017-07-15T13:40:48Z</time>
            </trkpt>
            <trkpt lat="46.312450" lon="10.504510">
                <time>2017-07-15T13:40:49Z</time>
            </trkpt>
            <trkpt lat="46.312580" lon="10.504490">
                <time>2017-07-15T13:40:50Z</time>
            </trkpt>
            <trkpt lat="46.312720" lon="10.504440">
                <time>2017-07-15T13:40:51Z</time>
            </trkpt>
            <trkpt lat="46.312850" lon="10.504350">
                <time>2017-07-15T13:40:52Z</time>
            </trkpt>
            <trkpt lat="46.312970" lon="10.504220">
                <time>2017-07-15T13:40:53Z</time>
            </trkpt>
            <trkpt lat="46.313090" lon="10.504070">
                <time>2017-07-15T13:40:54Z</time>
            </trkpt>
            <trkpt lat="46.313210" lon="10.503890">
                <time>2017-07-15T13:40:55Z</time>
            </trkpt>
            <trkpt lat="46.313330" lon="10.503720">
                <time>2017-07-15T13:40:56Z</time>
            </trkpt>
            <trkpt lat="46.313460" lon="10.503530">
                <time>2017-07-15T13:40:57Z</time>
            </trkpt>
            <trkpt lat="46.313590" lon="10.503300">
                <time>2017-07-15T13:40:58Z</time>
            </trkpt>
            <trkpt lat="46.313700" lon="10.503110">
                <time>2017-07-15T13:40:59Z</time>
            </trkpt>
            <trkpt lat="46.313820" lon="10.502920">
                <time>2017-07-15T13:41:00Z</time>
            </trkpt>
            <trkpt lat="46.313920" lon="10.502780">
                <time>2017-07-15T13:41:01Z</time>
            </trkpt>
            <trkpt lat="46.314010" lon="10.502640">
                <time>2017-07-15T13:41:02Z</time>
            </trkpt>
            <trkpt lat="46.314080" lon="10.502490">
                <time>2017-07-15T13:41:03Z</time>
            </trkpt>
            <trkpt lat="46.314110" lon="10.502370">
                <time>2017-07-15T13:41:04Z</time>
            </trkpt>
            <trkpt lat="46.314130" lon="10.502250">
                <time>2017-07-15T13:41:05Z</time>
            </trkpt>
            <trkpt lat="46.314130" lon="10.502110">
                <time>2017-07-15T13:41:06Z</time>
            </trkpt>
            <trkpt lat="46.314120" lon="10.501960">
                <time>2017-07-15T13:41:07Z</time>
            </trkpt>
            <trkpt lat="46.314140" lon="10.501790">
                <time>2017-07-15T13:41:08Z</time>
            </trkpt>
            <trkpt lat="46.314180" lon="10.501650">
                <time>2017-07-15T13:41:09Z</time>
            </trkpt>
            <trkpt lat="46.314250" lon="10.501510">
                <time>2017-07-15T13:41:10Z</time>
            </trkpt>
            <trkpt lat="46.314350" lon="10.501350">
                <time>2017-07-15T13:41:11Z</time>
            </trkpt>
            <trkpt lat="46.314440" lon="10.501210">
                <time>2017-07-15T13:41:12Z</time>
            </trkpt>
            <trkpt lat="46.314550" lon="10.501050">
                <time>2017-07-15T13:41:13Z</time>
            </trkpt>
            <trkpt lat="46.314640" lon="10.500860">
                <time>2017-07-15T13:41:14Z</time>
            </trkpt>
            <trkpt lat="46.314700" lon="10.500680">
                <time>2017-07-15T13:41:15Z</time>
            </trkpt>
            <trkpt lat="46.314740" lon="10.500480">
                <time>2017-07-15T13:41:16Z</time>
            </trkpt>
            <trkpt lat="46.314760" lon="10.500300">
                <time>2017-07-15T13:41:17Z</time>
            </trkpt>
            <trkpt lat="46.314770" lon="10.500140">
                <time>2017-07-15T13:41:18Z</time>
            </trkpt>
            <trkpt lat="46.314790" lon="10.500030">
                <time>2017-07-15T13:41:19Z</time>
            </trkpt>
            <trkpt lat="46.314830" lon="10.499990">
                <time>2017-07-15T13:41:20Z</time>
            </trkpt>
            <trkpt lat="46.314870" lon="10.499960">
                <time>2017-07-15T13:41:21Z</time>
            </trkpt>
            <trkpt lat="46.314920" lon="10.499960">
                <time>2017-07-15T13:41:22Z</time>
            </trkpt>
            <trkpt lat="46.314990" lon="10.499950">
                <time>2017-07-15T13:41:23Z</time>
            </trkpt>
            <trkpt lat="46.315080" lon="10.499920">
                <time>2017-07-15T13:41:24Z</time>
            </trkpt>
            <trkpt lat="46.315170" lon="10.499870">
                <time>2017-07-15T13:41:25Z</time>
            </trkpt>
            <trkpt lat="46.315280" lon="10.499800">
                <time>2017-07-15T13:41:26Z</time>
            </trkpt>
            <trkpt lat="46.315390" lon="10.499710">
                <time>2017-07-15T13:41:27Z</time>
            </trkpt>
            <trkpt lat="46.315510" lon="10.499640">
                <time>2017-07-15T13:41:28Z</time>
            </trkpt>
            <trkpt lat="46.315630" lon="10.499530">
                <time>2017-07-15T13:41:29Z</time>
            </trkpt>
            <trkpt lat="46.315740" lon="10.499400">
                <time>2017-07-15T13:41:30Z</time>
            </trkpt>
            <trkpt lat="46.315820" lon="10.499300">
                <time>2017-07-15T13:41:31Z</time>
            </trkpt>
            <trkpt lat="46.315910" lon="10.499210">
                <time>2017-07-15T13:41:32Z</time>
            </trkpt>
            <trkpt lat="46.315990" lon="10.499160">
                <time>2017-07-15T13:41:33Z</time>
            </trkpt>
            <trkpt lat="46.316080" lon="10.499110">
                <time>2017-07-15T13:41:34Z</time>
            </trkpt>
            <trkpt lat="46.316190" lon="10.499070">
                <time>2017-07-15T13:41:35Z</time>
            </trkpt>
            <trkpt lat="46.316290" lon="10.499020">
                <time>2017-07-15T13:41:36Z</time>
            </trkpt>
            <trkpt lat="46.316400" lon="10.498960">
                <time>2017-07-15T13:41:37Z</time>
            </trkpt>
            <trkpt lat="46.316500" lon="10.498890">
                <time>2017-07-15T13:41:38Z</time>
            </trkpt>
            <trkpt lat="46.316580" lon="10.498810">
                <time>2017-07-15T13:41:39Z</time>
            </trkpt>
            <trkpt lat="46.316660" lon="10.498710">
                <time>2017-07-15T13:41:40Z</time>
            </trkpt>
            <trkpt lat="46.316730" lon="10.498630">
                <time>2017-07-15T13:41:41Z</time>
            </trkpt>
            <trkpt lat="46.316800" lon="10.498530">
                <time>2017-07-15T13:41:42Z</time>
            </trkpt>
            <trkpt lat="46.316900" lon="10.498450">
                <time>2017-07-15T13:41:43Z</time>
            </trkpt>
            <trkpt lat="46.317000" lon="10.498370">
                <time>2017-07-15T13:41:44Z</time>
            </trkpt>
            <trkpt lat="46.317130" lon="10.498290">
                <time>2017-07-15T13:41:45Z</time>
            </trkpt>
            <trkpt lat="46.317270" lon="10.498210">
                <time>2017-07-15T13:41:46Z</time>
            </trkpt>
            <trkpt lat="46.317380" lon="10.498140">
                <time>2017-07-15T13:41:47Z</time>
            </trkpt>
            <trkpt lat="46.317510" lon="10.498090">
                <time>2017-07-15T13:41:48Z</time>
            </trkpt>
            <trkpt lat="46.317630" lon="10.498050">
                <time>2017-07-15T13:41:49Z</time>
            </trkpt>
            <trkpt lat="46.317750" lon="10.497990">
                <time>2017-07-15T13:41:50Z</time>
            </trkpt>
            <trkpt lat="46.317870" lon="10.497920">
                <time>2017-07-15T13:41:51Z</time>
            </trkpt>
            <trkpt lat="46.317980" lon="10.497830">
                <time>2017-07-15T13:41:52Z</time>
            </trkpt>
            <trkpt lat="46.318090" lon="10.497730">
                <time>2017-07-15T13:41:53Z</time>
            </trkpt>
            <trkpt lat="46.318180" lon="10.497650">
                <time>2017-07-15T13:41:54Z</time>
            </trkpt>
            <trkpt lat="46.318260" lon="10.497550">
                <time>2017-07-15T13:41:55Z</time>
            </trkpt>
            <trkpt lat="46.318330" lon="10.497440">
                <time>2017-07-15T13:41:56Z</time>
            </trkpt>
            <trkpt lat="46.318370" lon="10.497340">
                <time>2017-07-15T13:41:57Z</time>
            </trkpt>
            <trkpt lat="46.318390" lon="10.497240">
                <time>2017-07-15T13:41:58Z</time>
            </trkpt>
            <trkpt lat="46.318400" lon="10.497110">
                <time>2017-07-15T13:41:59Z</time>
            </trkpt>
            <trkpt lat="46.318380" lon="10.496980">
                <time>2017-07-15T13:42:00Z</time>
            </trkpt>
            <trkpt lat="46.318330" lon="10.496860">
                <time>2017-07-15T13:42:01Z</time>
            </trkpt>
            <trkpt lat="46.318270" lon="10.496740">
                <time>2017-07-15T13:42:02Z</time>
            </trkpt>
            <trkpt lat="46.318240" lon="10.496640">
                <time>2017-07-15T13:42:03Z</time>
            </trkpt>
            <trkpt lat="46.318240" lon="10.496530">
                <time>2017-07-15T13:42:04Z</time>
            </trkpt>
            <trkpt lat="46.318270" lon="10.496410">
                <time>2017-07-15T13:42:05Z</time>
            </trkpt>
            <trkpt lat="46.318320" lon="10.496270">
                <time>2017-07-15T13:42:06Z</time>
            </trkpt>
            <trkpt lat="46.318380" lon="10.496110">
                <time>2017-07-15T13:42:07Z</time>
            </trkpt>
            <trkpt lat="46.318460" lon="10.495970">
                <time>2017-07-15T13:42:08Z</time>
            </trkpt>
            <trkpt lat="46.318540" lon="10.495840">
                <time>2017-07-15T13:42:09Z</time>
            </trkpt>
            <trkpt lat="46.318640" lon="10.495730">
                <time>2017-07-15T13:42:10Z</time>
            </trkpt>
            <trkpt lat="46.318760" lon="10.495630">
                <time>2017-07-15T13:42:11Z</time>
            </trkpt>
            <trkpt lat="46.318890" lon="10.495490">
                <time>2017-07-15T13:42:12Z</time>
            </trkpt>
            <trkpt lat="46.319000" lon="10.495350">
                <time>2017-07-15T13:42:13Z</time>
            </trkpt>
            <trkpt lat="46.319090" lon="10.495170">
                <time>2017-07-15T13:42:14Z</time>
            </trkpt>
            <trkpt lat="46.319190" lon="10.494990">
                <time>2017-07-15T13:42:15Z</time>
            </trkpt>
            <trkpt lat="46.319270" lon="10.494830">
                <time>2017-07-15T13:42:16Z</time>
            </trkpt>
            <trkpt lat="46.319370" lon="10.494670">
                <time>2017-07-15T13:42:17Z</time>
            </trkpt>
            <trkpt lat="46.319470" lon="10.494480">
                <time>2017-07-15T13:42:18Z</time>
            </trkpt>
            <trkpt lat="46.319550" lon="10.494310">
                <time>2017-07-15T13:42:19Z</time>
            </trkpt>
            <trkpt lat="46.319640" lon="10.494110">
                <time>2017-07-15T13:42:20Z</time>
            </trkpt>
            <trkpt lat="46.319700" lon="10.493950">
                <time>2017-07-15T13:42:21Z</time>
            </trkpt>
            <trkpt lat="46.319760" lon="10.493780">
                <time>2017-07-15T13:42:22Z</time>
            </trkpt>
            <trkpt lat="46.319820" lon="10.493650">
                <time>2017-07-15T13:42:23Z</time>
            </trkpt>
            <trkpt lat="46.319890" lon="10.493580">
                <time>2017-07-15T13:42:24Z</time>
            </trkpt>
            <trkpt lat="46.319990" lon="10.493520">
                <time>2017-07-15T13:42:25Z</time>
            </trkpt>
            <trkpt lat="46.320100" lon="10.493460">
                <time>2017-07-15T13:42:26Z</time>
            </trkpt>
            <trkpt lat="46.320220" lon="10.493390">
                <time>2017-07-15T13:42:27Z</time>
            </trkpt>
            <trkpt lat="46.320340" lon="10.493290">
                <time>2017-07-15T13:42:28Z</time>
            </trkpt>
            <trkpt lat="46.320450" lon="10.493200">
                <time>2017-07-15T13:42:29Z</time>
            </trkpt>
            <trkpt lat="46.320550" lon="10.493110">
                <time>2017-07-15T13:42:30Z</time>
            </trkpt>
            <trkpt lat="46.320660" lon="10.493020">
                <time>2017-07-15T13:42:31Z</time>
            </trkpt>
            <trkpt lat="46.320760" lon="10.492930">
                <time>2017-07-15T13:42:32Z</time>
            </trkpt>
            <trkpt lat="46.320850" lon="10.492850">
                <time>2017-07-15T13:42:33Z</time>
            </trkpt>
            <trkpt lat="46.320960" lon="10.492770">
                <time>2017-07-15T13:42:34Z</time>
            </trkpt>
            <trkpt lat="46.321050" lon="10.492700">
                <time>2017-07-15T13:42:35Z</time>
            </trkpt>
            <trkpt lat="46.321160" lon="10.492620">
                <time>2017-07-15T13:42:36Z</time>
            </trkpt>
            <trkpt lat="46.321250" lon="10.492560">
                <time>2017-07-15T13:42:37Z</time>
            </trkpt>
            <trkpt lat="46.321350" lon="10.492480">
                <time>2017-07-15T13:42:38Z</time>
            </trkpt>
            <trkpt lat="46.321460" lon="10.492380">
                <time>2017-07-15T13:42:39Z</time>
            </trkpt>
            <trkpt lat="46.321550" lon="10.492280">
                <time>2017-07-15T13:42:40Z</time>
            </trkpt>
            <trkpt lat="46.321640" lon="10.492180">
                <time>2017-07-15T13:42:41Z</time>
            </trkpt>
            <trkpt lat="46.321730" lon="10.492070">
                <time>2017-07-15T13:42:42Z</time>
            </trkpt>
            <trkpt lat="46.321820" lon="10.491970">
                <time>2017-07-15T13:42:43Z</time>
            </trkpt>
            <trkpt lat="46.321910" lon="10.491860">
                <time>2017-07-15T13:42:44Z</time>
            </trkpt>
            <trkpt lat="46.321990" lon="10.491780">
                <time>2017-07-15T13:42:45Z</time>
            </trkpt>
            <trkpt lat="46.322070" lon="10.491690">
                <time>2017-07-15T13:42:46Z</time>
            </trkpt>
            <trkpt lat="46.322160" lon="10.491600">
                <time>2017-07-15T13:42:47Z</time>
            </trkpt>
            <trkpt lat="46.322220" lon="10.491530">
                <time>2017-07-15T13:42:48Z</time>
            </trkpt>
            <trkpt lat="46.322300" lon="10.491470">
                <time>2017-07-15T13:42:49Z</time>
            </trkpt>
            <trkpt lat="46.322380" lon="10.491420">
                <time>2017-07-15T13:42:50Z</time>
            </trkpt>
            <trkpt lat="46.322460" lon="10.491410">
                <time>2017-07-15T13:42:51Z</time>
            </trkpt>
            <trkpt lat="46.322540" lon="10.491420">
                <time>2017-07-15T13:42:52Z</time>
            </trkpt>
            <trkpt lat="46.322610" lon="10.491440">
                <time>2017-07-15T13:42:53Z</time>
            </trkpt>
            <trkpt lat="46.322670" lon="10.491460">
                <time>2017-07-15T13:42:54Z</time>
            </trkpt>
            <trkpt lat="46.322730" lon="10.491480">
                <time>2017-07-15T13:42:55Z</time>
            </trkpt>
            <trkpt lat="46.322790" lon="10.491480">
                <time>2017-07-15T13:42:56Z</time>
            </trkpt>
            <trkpt lat="46.322850" lon="10.491470">
                <time>2017-07-15T13:42:57Z</time>
            </trkpt>
            <trkpt lat="46.322900" lon="10.491450">
                <time>2017-07-15T13:42:58Z</time>
            </trkpt>
            <trkpt lat="46.322950" lon="10.491420">
                <time>2017-07-15T13:42:59Z</time>
            </trkpt>
            <trkpt lat="46.322990" lon="10.491390">
                <time>2017-07-15T13:43:00Z</time>
            </trkpt>
            <trkpt lat="46.323010" lon="10.491360">
                <time>2017-07-15T13:43:01Z</time>
            </trkpt>
            <trkpt lat="46.323050" lon="10.491330">
                <time>2017-07-15T13:43:02Z</time>
            </trkpt>
            <trkpt lat="46.323090" lon="10.491300">
                <time>2017-07-15T13:43:03Z</time>
            </trkpt>
            <trkpt lat="46.323130" lon="10.491270">
                <time>2017-07-15T13:43:04Z</time>
            </trkpt>
            <trkpt lat="46.323160" lon="10.491240">
                <time>2017-07-15T13:43:05Z</time>
            </trkpt>
            <trkpt lat="46.323170" lon="10.491200">
                <time>2017-07-15T13:43:06Z</time>
            </trkpt>
            <trkpt lat="46.323180" lon="10.491170">
                <time>2017-07-15T13:43:07Z</time>
            </trkpt>
            <trkpt lat="46.323180" lon="10.491160">
                <time>2017-07-15T13:43:08Z</time>
            </trkpt>
            <trkpt lat="46.323170" lon="10.491150">
                <time>2017-07-15T13:43:09Z</time>
            </trkpt>
            <trkpt lat="46.323170" lon="10.491140">
                <time>2017-07-15T13:43:10Z</time>
            </trkpt>
            <trkpt lat="46.323170" lon="10.491140">
                <time>2017-07-15T13:43:11Z</time>
            </trkpt>
            <trkpt lat="46.323170" lon="10.491140">
                <time>2017-07-15T13:43:12Z</time>
            </trkpt>
            <trkpt lat="46.323170" lon="10.491140">
                <time>2017-07-15T13:43:13Z</time>
            </trkpt>
            <trkpt lat="46.323170" lon="10.491140">
                <time>2017-07-15T13:43:14Z</time>
            </trkpt>
            <trkpt lat="46.323170" lon="10.491140">
                <time>2017-07-15T13:43:15Z</time>
            </trkpt>
            <trkpt lat="46.323170" lon="10.491140">
                <time>2017-07-15T13:43:16Z</time>
            </trkpt>
            <trkpt lat="46.323170" lon="10.491140">
                <time>2017-07-15T13:43:17Z</time>
            </trkpt>
            <trkpt lat="46.323170" lon="10.491140">
                <time>2017-07-15T13:43:18Z</time>
            </trkpt>
            <trkpt lat="46.323170" lon="10.491140">
                <time>2017-07-15T13:43:19Z</time>
            </trkpt>
            <trkpt lat="46.323170" lon="10.491140">
                <time>2017-07-15T13:43:20Z</time>
            </trkpt>
            <trkpt lat="46.323170" lon="10.491140">
                <time>2017-07-15T13:43:21Z</time>
            </trkpt>
            <trkpt lat="46.323170" lon="10.491140">
                <time>2017-07-15T13:43:22Z</time>
            </trkpt>
            <trkpt lat="46.323170" lon="10.491140">
                <time>2017-07-15T13:43:23Z</time>
            </trkpt>
            <trkpt lat="46.323170" lon="10.491140">
                <time>2017-07-15T13:43:24Z</time>
            </trkpt>
            <trkpt lat="46.323170" lon="10.491140">
                <time>2017-07-15T13:43:25Z</time>
            </trkpt>
            <trkpt lat="46.323170" lon="10.491140">
                <time>2017-07-15T13:43:26Z</time>
            </trkpt>
            <trkpt lat="46.323170" lon="10.491140">
                <time>2017-07-15T13:43:27Z</time>
            </trkpt>
            <trkpt lat="46.323170" lon="10.491140">
                <time>2017-07-15T13:43:28Z</time>
            </trkpt>
            <trkpt lat="46.323170" lon="10.491140">
                <time>2017-07-15T13:43:29Z</time>
            </trkpt>
            <trkpt lat="46.323170" lon="10.491140">
                <time>2017-07-15T13:43:30Z</time>
            </trkpt>
            <trkpt lat="46.323170" lon="10.491140">
                <time>2017-07-15T13:43:31Z</time>
            </trkpt>
            <trkpt lat="46.323170" lon="10.491140">
                <time>2017-07-15T13:43:32Z</time>
            </trkpt>
            <trkpt lat="46.323170" lon="10.491140">
                <time>2017-07-15T13:43:33Z</time>
            </trkpt>
            <trkpt lat="46.323170" lon="10.491140">
                <time>2017-07-15T13:43:34Z</time>
            </trkpt>
            <trkpt lat="46.323170" lon="10.491140">
                <time>2017-07-15T13:43:35Z</time>
            </trkpt>
            <trkpt lat="46.323170" lon="10.491140">
                <time>2017-07-15T13:43:36Z</time>
            </trkpt>
            <trkpt lat="46.323170" lon="10.491140">
                <time>2017-07-15T13:43:37Z</time>
            </trkpt>
            <trkpt lat="46.323170" lon="10.491140">
                <time>2017-07-15T13:43:38Z</time>
            </trkpt>
            <trkpt lat="46.323170" lon="10.491140">
                <time>2017-07-15T13:43:39Z</time>
            </trkpt>
            <trkpt lat="46.323170" lon="10.491140">
                <time>2017-07-15T13:43:40Z</time>
            </trkpt>
            <trkpt lat="46.323170" lon="10.491140">
                <time>2017-07-15T13:43:41Z</time>
            </trkpt>
            <trkpt lat="46.323170" lon="10.491140">
                <time>2017-07-15T13:43:42Z</time>
            </trkpt>
            <trkpt lat="46.323170" lon="10.491140">
                <time>2017-07-15T13:43:43Z</time>
            </trkpt>
            <trkpt lat="46.323170" lon="10.491140">
                <time>2017-07-15T13:43:44Z</time>
            </trkpt>
            <trkpt lat="46.323170" lon="10.491140">
                <time>2017-07-15T13:43:45Z</time>
            </trkpt>
            <trkpt lat="46.323170" lon="10.491140">
                <time>2017-07-15T13:43:46Z</time>
            </trkpt>
            <trkpt lat="46.323170" lon="10.491140">
                <time>2017-07-15T13:43:47Z</time>
            </trkpt>
            <trkpt lat="46.323170" lon="10.491140">
                <time>2017-07-15T13:43:48Z</time>
            </trkpt>
            <trkpt lat="46.323170" lon="10.491140">
                <time>2017-07-15T13:43:49Z</time>
            </trkpt>
            <trkpt lat="46.323170" lon="10.491140">
                <time>2017-07-15T13:43:50Z</time>
            </trkpt>
            <trkpt lat="46.323170" lon="10.491140">
                <time>2017-07-15T13:43:51Z</time>
            </trkpt>
            <trkpt lat="46.323170" lon="10.491140">
                <time>2017-07-15T13:43:52Z</time>
            </trkpt>
            <trkpt lat="46.323170" lon="10.491140">
                <time>2017-07-15T13:43:53Z</time>
            </trkpt>
            <trkpt lat="46.323170" lon="10.491140">
                <time>2017-07-15T13:43:54Z</time>
            </trkpt>
            <trkpt lat="46.323170" lon="10.491140">
                <time>2017-07-15T13:43:55Z</time>
            </trkpt>
            <trkpt lat="46.323170" lon="10.491140">
                <time>2017-07-15T13:43:56Z</time>
            </trkpt>
            <trkpt lat="46.323170" lon="10.491140">
                <time>2017-07-15T13:43:57Z</time>
            </trkpt>
            <trkpt lat="46.323170" lon="10.491140">
                <time>2017-07-15T13:43:58Z</time>
            </trkpt>
            <trkpt lat="46.323170" lon="10.491140">
                <time>2017-07-15T13:43:59Z</time>
            </trkpt>
            <trkpt lat="46.323170" lon="10.491140">
                <time>2017-07-15T13:44:00Z</time>
            </trkpt>
            <trkpt lat="46.323170" lon="10.491140">
                <time>2017-07-15T13:44:01Z</time>
            </trkpt>
            <trkpt lat="46.323160" lon="10.491140">
                <time>2017-07-15T13:44:02Z</time>
            </trkpt>
            <trkpt lat="46.323160" lon="10.491120">
                <time>2017-07-15T13:44:03Z</time>
            </trkpt>
            <trkpt lat="46.323160" lon="10.491120">
                <time>2017-07-15T13:44:04Z</time>
            </trkpt>
            <trkpt lat="46.323150" lon="10.491110">
                <time>2017-07-15T13:44:05Z</time>
            </trkpt>
            <trkpt lat="46.323150" lon="10.491100">
                <time>2017-07-15T13:44:06Z</time>
            </trkpt>
            <trkpt lat="46.323140" lon="10.491090">
                <time>2017-07-15T13:44:07Z</time>
            </trkpt>
            <trkpt lat="46.323120" lon="10.491090">
                <time>2017-07-15T13:44:08Z</time>
            </trkpt>
            <trkpt lat="46.323110" lon="10.491090">
                <time>2017-07-15T13:44:09Z</time>
            </trkpt>
            <trkpt lat="46.323090" lon="10.491090">
                <time>2017-07-15T13:44:10Z</time>
            </trkpt>
            <trkpt lat="46.323080" lon="10.491100">
                <time>2017-07-15T13:44:11Z</time>
            </trkpt>
            <trkpt lat="46.323060" lon="10.491110">
                <time>2017-07-15T13:44:12Z</time>
            </trkpt>
            <trkpt lat="46.323060" lon="10.491130">
                <time>2017-07-15T13:44:13Z</time>
            </trkpt>
            <trkpt lat="46.323050" lon="10.491150">
                <time>2017-07-15T13:44:14Z</time>
            </trkpt>
            <trkpt lat="46.323040" lon="10.491170">
                <time>2017-07-15T13:44:15Z</time>
            </trkpt>
            <trkpt lat="46.323040" lon="10.491190">
                <time>2017-07-15T13:44:16Z</time>
            </trkpt>
            <trkpt lat="46.323040" lon="10.491210">
                <time>2017-07-15T13:44:17Z</time>
            </trkpt>
            <trkpt lat="46.323040" lon="10.491210">
                <time>2017-07-15T13:44:18Z</time>
            </trkpt>
            <trkpt lat="46.323040" lon="10.491210">
                <time>2017-07-15T13:44:19Z</time>
            </trkpt>
            <trkpt lat="46.323040" lon="10.491210">
                <time>2017-07-15T13:44:20Z</time>
            </trkpt>
            <trkpt lat="46.323040" lon="10.491210">
                <time>2017-07-15T13:44:21Z</time>
            </trkpt>
            <trkpt lat="46.323040" lon="10.491210">
                <time>2017-07-15T13:44:22Z</time>
            </trkpt>
            <trkpt lat="46.323040" lon="10.491210">
                <time>2017-07-15T13:44:23Z</time>
            </trkpt>
            <trkpt lat="46.323040" lon="10.491210">
                <time>2017-07-15T13:44:24Z</time>
            </trkpt>
            <trkpt lat="46.323040" lon="10.491210">
                <time>2017-07-15T13:44:25Z</time>
            </trkpt>
            <trkpt lat="46.323040" lon="10.491210">
                <time>2017-07-15T13:44:26Z</time>
            </trkpt>
            <trkpt lat="46.323040" lon="10.491210">
                <time>2017-07-15T13:44:27Z</time>
            </trkpt>
            <trkpt lat="46.323040" lon="10.491210">
                <time>2017-07-15T13:44:28Z</time>
            </trkpt>
            <trkpt lat="46.323040" lon="10.491210">
                <time>2017-07-15T13:44:29Z</time>
            </trkpt>
            <trkpt lat="46.323040" lon="10.491210">
                <time>2017-07-15T13:44:30Z</time>
            </trkpt>
            <trkpt lat="46.323040" lon="10.491210">
                <time>2017-07-15T13:44:31Z</time>
            </trkpt>
            <trkpt lat="46.323040" lon="10.491210">
                <time>2017-07-15T13:44:32Z</time>
            </trkpt>
            <trkpt lat="46.323040" lon="10.491210">
                <time>2017-07-15T13:44:33Z</time>
            </trkpt>
            <trkpt lat="46.323040" lon="10.491210">
                <time>2017-07-15T13:44:34Z</time>
            </trkpt>
            <trkpt lat="46.323040" lon="10.491210">
                <time>2017-07-15T13:44:35Z</time>
            </trkpt>
            <trkpt lat="46.323040" lon="10.491210">
                <time>2017-07-15T13:44:36Z</time>
            </trkpt>
            <trkpt lat="46.323040" lon="10.491210">
                <time>2017-07-15T13:44:37Z</time>
            </trkpt>
            <trkpt lat="46.323070" lon="10.491210">
                <time>2017-07-15T13:46:16Z</time>
            </trkpt>
            <trkpt lat="46.323080" lon="10.491190">
                <time>2017-07-15T13:46:17Z</time>
            </trkpt>
            <trkpt lat="46.323090" lon="10.491190">
                <time>2017-07-15T13:46:18Z</time>
            </trkpt>
            <trkpt lat="46.323020" lon="10.491250">
                <time>2017-07-15T13:46:19Z</time>
            </trkpt>
            <trkpt lat="46.323080" lon="10.491200">
                <time>2017-07-15T13:46:20Z</time>
            </trkpt>
            <trkpt lat="46.323090" lon="10.491200">
                <time>2017-07-15T13:46:21Z</time>
            </trkpt>
            <trkpt lat="46.323090" lon="10.491200">
                <time>2017-07-15T13:46:22Z</time>
            </trkpt>
            <trkpt lat="46.323090" lon="10.491200">
                <time>2017-07-15T13:46:23Z</time>
            </trkpt>
            <trkpt lat="46.323090" lon="10.491200">
                <time>2017-07-15T13:46:24Z</time>
            </trkpt>
            <trkpt lat="46.323090" lon="10.491200">
                <time>2017-07-15T13:46:25Z</time>
            </trkpt>
            <trkpt lat="46.323090" lon="10.491200">
                <time>2017-07-15T13:46:26Z</time>
            </trkpt>
            <trkpt lat="46.323090" lon="10.491200">
                <time>2017-07-15T13:46:27Z</time>
            </trkpt>
            <trkpt lat="46.323090" lon="10.491200">
                <time>2017-07-15T13:46:28Z</time>
            </trkpt>
            <trkpt lat="46.323090" lon="10.491200">
                <time>2017-07-15T13:46:29Z</time>
            </trkpt>
            <trkpt lat="46.323090" lon="10.491200">
                <time>2017-07-15T13:46:30Z</time>
            </trkpt>
            <trkpt lat="46.323090" lon="10.491200">
                <time>2017-07-15T13:46:31Z</time>
            </trkpt>
            <trkpt lat="46.323090" lon="10.491200">
                <time>2017-07-15T13:46:32Z</time>
            </trkpt>
            <trkpt lat="46.323090" lon="10.491200">
                <time>2017-07-15T13:46:33Z</time>
            </trkpt>
            <trkpt lat="46.323090" lon="10.491200">
                <time>2017-07-15T13:46:34Z</time>
            </trkpt>
            <trkpt lat="46.323090" lon="10.491200">
                <time>2017-07-15T13:46:35Z</time>
            </trkpt>
            <trkpt lat="46.323090" lon="10.491200">
                <time>2017-07-15T13:46:36Z</time>
            </trkpt>
            <trkpt lat="46.323090" lon="10.491200">
                <time>2017-07-15T13:46:37Z</time>
            </trkpt>
            <trkpt lat="46.323090" lon="10.491200">
                <time>2017-07-15T13:46:38Z</time>
            </trkpt>
            <trkpt lat="46.323090" lon="10.491200">
                <time>2017-07-15T13:46:39Z</time>
            </trkpt>
            <trkpt lat="46.323090" lon="10.491200">
                <time>2017-07-15T13:46:40Z</time>
            </trkpt>
            <trkpt lat="46.323090" lon="10.491200">
                <time>2017-07-15T13:46:41Z</time>
            </trkpt>
            <trkpt lat="46.323090" lon="10.491200">
                <time>2017-07-15T13:46:42Z</time>
            </trkpt>
            <trkpt lat="46.323090" lon="10.491200">
                <time>2017-07-15T13:46:43Z</time>
            </trkpt>
            <trkpt lat="46.323090" lon="10.491200">
                <time>2017-07-15T13:46:44Z</time>
            </trkpt>
            <trkpt lat="46.323090" lon="10.491200">
                <time>2017-07-15T13:46:45Z</time>
            </trkpt>
            <trkpt lat="46.323090" lon="10.491200">
                <time>2017-07-15T13:46:46Z</time>
            </trkpt>
            <trkpt lat="46.323090" lon="10.491200">
                <time>2017-07-15T13:46:47Z</time>
            </trkpt>
            <trkpt lat="46.323090" lon="10.491200">
                <time>2017-07-15T13:46:48Z</time>
            </trkpt>
            <trkpt lat="46.323090" lon="10.491200">
                <time>2017-07-15T13:46:49Z</time>
            </trkpt>
            <trkpt lat="46.323090" lon="10.491200">
                <time>2017-07-15T13:46:50Z</time>
            </trkpt>
            <trkpt lat="46.323090" lon="10.491200">
                <time>2017-07-15T13:46:51Z</time>
            </trkpt>
            <trkpt lat="46.323090" lon="10.491200">
                <time>2017-07-15T13:46:52Z</time>
            </trkpt>
            <trkpt lat="46.323090" lon="10.491200">
                <time>2017-07-15T13:46:53Z</time>
            </trkpt>
            <trkpt lat="46.323090" lon="10.491200">
                <time>2017-07-15T13:46:54Z</time>
            </trkpt>
            <trkpt lat="46.323090" lon="10.491200">
                <time>2017-07-15T13:46:55Z</time>
            </trkpt>
            <trkpt lat="46.323090" lon="10.491200">
                <time>2017-07-15T13:46:56Z</time>
            </trkpt>
            <trkpt lat="46.323090" lon="10.491200">
                <time>2017-07-15T13:46:57Z</time>
            </trkpt>
            <trkpt lat="46.323090" lon="10.491200">
                <time>2017-07-15T13:46:58Z</time>
            </trkpt>
            <trkpt lat="46.323090" lon="10.491200">
                <time>2017-07-15T13:46:59Z</time>
            </trkpt>
            <trkpt lat="46.323090" lon="10.491200">
                <time>2017-07-15T13:47:00Z</time>
            </trkpt>
            <trkpt lat="46.323090" lon="10.491200">
                <time>2017-07-15T13:47:01Z</time>
            </trkpt>
            <trkpt lat="46.323090" lon="10.491200">
                <time>2017-07-15T13:47:02Z</time>
            </trkpt>
            <trkpt lat="46.323090" lon="10.491200">
                <time>2017-07-15T13:47:03Z</time>
            </trkpt>
            <trkpt lat="46.323090" lon="10.491200">
                <time>2017-07-15T13:47:04Z</time>
            </trkpt>
            <trkpt lat="46.323080" lon="10.491210">
                <time>2017-07-15T13:47:05Z</time>
            </trkpt>
            <trkpt lat="46.323080" lon="10.491220">
                <time>2017-07-15T13:47:06Z</time>
            </trkpt>
            <trkpt lat="46.323080" lon="10.491220">
                <time>2017-07-15T13:47:07Z</time>
            </trkpt>
            <trkpt lat="46.323080" lon="10.491220">
                <time>2017-07-15T13:47:08Z</time>
            </trkpt>
            <trkpt lat="46.323080" lon="10.491220">
                <time>2017-07-15T13:47:09Z</time>
            </trkpt>
            <trkpt lat="46.323080" lon="10.491220">
                <time>2017-07-15T13:47:10Z</time>
            </trkpt>
            <trkpt lat="46.323080" lon="10.491220">
                <time>2017-07-15T13:47:11Z</time>
            </trkpt>
            <trkpt lat="46.323080" lon="10.491220">
                <time>2017-07-15T13:47:12Z</time>
            </trkpt>
            <trkpt lat="46.323080" lon="10.491220">
                <time>2017-07-15T13:47:13Z</time>
            </trkpt>
            <trkpt lat="46.323080" lon="10.491230">
                <time>2017-07-15T13:47:14Z</time>
            </trkpt>
            <trkpt lat="46.323090" lon="10.491230">
                <time>2017-07-15T13:47:15Z</time>
            </trkpt>
            <trkpt lat="46.323100" lon="10.491240">
                <time>2017-07-15T13:47:16Z</time>
            </trkpt>
            <trkpt lat="46.323120" lon="10.491240">
                <time>2017-07-15T13:47:17Z</time>
            </trkpt>
            <trkpt lat="46.323160" lon="10.491220">
                <time>2017-07-15T13:47:18Z</time>
            </trkpt>
            <trkpt lat="46.323220" lon="10.491170">
                <time>2017-07-15T13:47:19Z</time>
            </trkpt>
            <trkpt lat="46.323280" lon="10.491110">
                <time>2017-07-15T13:47:20Z</time>
            </trkpt>
            <trkpt lat="46.323350" lon="10.491030">
                <time>2017-07-15T13:47:21Z</time>
            </trkpt>
            <trkpt lat="46.323440" lon="10.490940">
                <time>2017-07-15T13:47:22Z</time>
            </trkpt>
            <trkpt lat="46.323510" lon="10.490860">
                <time>2017-07-15T13:47:23Z</time>
            </trkpt>
            <trkpt lat="46.323600" lon="10.490770">
                <time>2017-07-15T13:47:24Z</time>
            </trkpt>
            <trkpt lat="46.323680" lon="10.490680">
                <time>2017-07-15T13:47:25Z</time>
            </trkpt>
            <trkpt lat="46.323770" lon="10.490590">
                <time>2017-07-15T13:47:26Z</time>
            </trkpt>
            <trkpt lat="46.323850" lon="10.490510">
                <time>2017-07-15T13:47:27Z</time>
            </trkpt>
            <trkpt lat="46.323920" lon="10.490450">
                <time>2017-07-15T13:47:28Z</time>
            </trkpt>
            <trkpt lat="46.324010" lon="10.490410">
                <time>2017-07-15T13:47:29Z</time>
            </trkpt>
            <trkpt lat="46.324110" lon="10.490400">
                <time>2017-07-15T13:47:30Z</time>
            </trkpt>
            <trkpt lat="46.324220" lon="10.490400">
                <time>2017-07-15T13:47:31Z</time>
            </trkpt>
            <trkpt lat="46.324340" lon="10.490410">
                <time>2017-07-15T13:47:32Z</time>
            </trkpt>
            <trkpt lat="46.324450" lon="10.490410">
                <time>2017-07-15T13:47:33Z</time>
            </trkpt>
            <trkpt lat="46.324570" lon="10.490410">
                <time>2017-07-15T13:47:34Z</time>
            </trkpt>
            <trkpt lat="46.324730" lon="10.490370">
                <time>2017-07-15T13:47:35Z</time>
            </trkpt>
            <trkpt lat="46.324860" lon="10.490330">
                <time>2017-07-15T13:47:36Z</time>
            </trkpt>
            <trkpt lat="46.325000" lon="10.490280">
                <time>2017-07-15T13:47:37Z</time>
            </trkpt>
            <trkpt lat="46.325150" lon="10.490210">
                <time>2017-07-15T13:47:38Z</time>
            </trkpt>
            <trkpt lat="46.325270" lon="10.490140">
                <time>2017-07-15T13:47:39Z</time>
            </trkpt>
            <trkpt lat="46.325410" lon="10.490060">
                <time>2017-07-15T13:47:40Z</time>
            </trkpt>
            <trkpt lat="46.325540" lon="10.489980">
                <time>2017-07-15T13:47:41Z</time>
            </trkpt>
            <trkpt lat="46.325670" lon="10.489890">
                <time>2017-07-15T13:47:42Z</time>
            </trkpt>
            <trkpt lat="46.325800" lon="10.489780">
                <time>2017-07-15T13:47:43Z</time>
            </trkpt>
            <trkpt lat="46.325930" lon="10.489690">
                <time>2017-07-15T13:47:44Z</time>
            </trkpt>
            <trkpt lat="46.326060" lon="10.489600">
                <time>2017-07-15T13:47:45Z</time>
            </trkpt>
            <trkpt lat="46.326190" lon="10.489530">
                <time>2017-07-15T13:47:46Z</time>
            </trkpt>
            <trkpt lat="46.326330" lon="10.489490">
                <time>2017-07-15T13:47:47Z</time>
            </trkpt>
            <trkpt lat="46.326490" lon="10.489470">
                <time>2017-07-15T13:47:48Z</time>
            </trkpt>
            <trkpt lat="46.326630" lon="10.489470">
                <time>2017-07-15T13:47:49Z</time>
            </trkpt>
            <trkpt lat="46.326780" lon="10.489480">
                <time>2017-07-15T13:47:50Z</time>
            </trkpt>
            <trkpt lat="46.326940" lon="10.489500">
                <time>2017-07-15T13:47:51Z</time>
            </trkpt>
            <trkpt lat="46.327090" lon="10.489510">
                <time>2017-07-15T13:47:52Z</time>
            </trkpt>
            <trkpt lat="46.327230" lon="10.489520">
                <time>2017-07-15T13:47:53Z</time>
            </trkpt>
            <trkpt lat="46.327390" lon="10.489510">
                <time>2017-07-15T13:47:54Z</time>
            </trkpt>
            <trkpt lat="46.327530" lon="10.489520">
                <time>2017-07-15T13:47:55Z</time>
            </trkpt>
            <trkpt lat="46.327670" lon="10.489510">
                <time>2017-07-15T13:47:56Z</time>
            </trkpt>
            <trkpt lat="46.327800" lon="10.489500">
                <time>2017-07-15T13:47:57Z</time>
            </trkpt>
            <trkpt lat="46.332290" lon="10.489130">
                <time>2017-07-15T13:48:43Z</time>
            </trkpt>
            <trkpt lat="46.332440" lon="10.489100">
                <time>2017-07-15T13:48:44Z</time>
            </trkpt>
            <trkpt lat="46.332600" lon="10.489070">
                <time>2017-07-15T13:48:45Z</time>
            </trkpt>
            <trkpt lat="46.332760" lon="10.489060">
                <time>2017-07-15T13:48:46Z</time>
            </trkpt>
            <trkpt lat="46.332930" lon="10.489070">
                <time>2017-07-15T13:48:47Z</time>
            </trkpt>
            <trkpt lat="46.333070" lon="10.489070">
                <time>2017-07-15T13:48:48Z</time>
            </trkpt>
            <trkpt lat="46.333230" lon="10.489070">
                <time>2017-07-15T13:48:49Z</time>
            </trkpt>
            <trkpt lat="46.333390" lon="10.489060">
                <time>2017-07-15T13:48:50Z</time>
            </trkpt>
            <trkpt lat="46.333550" lon="10.489050">
                <time>2017-07-15T13:48:51Z</time>
            </trkpt>
            <trkpt lat="46.333710" lon="10.489040">
                <time>2017-07-15T13:48:52Z</time>
            </trkpt>
            <trkpt lat="46.333840" lon="10.489040">
                <time>2017-07-15T13:48:53Z</time>
            </trkpt>
            <trkpt lat="46.333970" lon="10.489040">
                <time>2017-07-15T13:48:54Z</time>
            </trkpt>
            <trkpt lat="46.334080" lon="10.489050">
                <time>2017-07-15T13:48:55Z</time>
            </trkpt>
            <trkpt lat="46.334160" lon="10.489040">
                <time>2017-07-15T13:48:56Z</time>
            </trkpt>
            <trkpt lat="46.334250" lon="10.489000">
                <time>2017-07-15T13:48:57Z</time>
            </trkpt>
            <trkpt lat="46.334330" lon="10.488920">
                <time>2017-07-15T13:48:58Z</time>
            </trkpt>
            <trkpt lat="46.334390" lon="10.488830">
                <time>2017-07-15T13:48:59Z</time>
            </trkpt>
            <trkpt lat="46.334460" lon="10.488700">
                <time>2017-07-15T13:49:00Z</time>
            </trkpt>
            <trkpt lat="46.334510" lon="10.488560">
                <time>2017-07-15T13:49:01Z</time>
            </trkpt>
            <trkpt lat="46.334570" lon="10.488380">
                <time>2017-07-15T13:49:02Z</time>
            </trkpt>
            <trkpt lat="46.334630" lon="10.488190">
                <time>2017-07-15T13:49:03Z</time>
            </trkpt>
            <trkpt lat="46.334690" lon="10.488040">
                <time>2017-07-15T13:49:04Z</time>
            </trkpt>
            <trkpt lat="46.334760" lon="10.487900">
                <time>2017-07-15T13:49:05Z</time>
            </trkpt>
            <trkpt lat="46.334830" lon="10.487800">
                <time>2017-07-15T13:49:06Z</time>
            </trkpt>
            <trkpt lat="46.334900" lon="10.487750">
                <time>2017-07-15T13:49:07Z</time>
            </trkpt>
            <trkpt lat="46.334970" lon="10.487770">
                <time>2017-07-15T13:49:08Z</time>
            </trkpt>
            <trkpt lat="46.335030" lon="10.487830">
                <time>2017-07-15T13:49:09Z</time>
            </trkpt>
            <trkpt lat="46.335110" lon="10.487910">
                <time>2017-07-15T13:49:10Z</time>
            </trkpt>
            <trkpt lat="46.335210" lon="10.488030">
                <time>2017-07-15T13:49:11Z</time>
            </trkpt>
            <trkpt lat="46.335300" lon="10.488120">
                <time>2017-07-15T13:49:12Z</time>
            </trkpt>
            <trkpt lat="46.335400" lon="10.488200">
                <time>2017-07-15T13:49:13Z</time>
            </trkpt>
            <trkpt lat="46.335510" lon="10.488250">
                <time>2017-07-15T13:49:14Z</time>
            </trkpt>
            <trkpt lat="46.335610" lon="10.488280">
                <time>2017-07-15T13:49:15Z</time>
            </trkpt>
            <trkpt lat="46.335720" lon="10.488310">
                <time>2017-07-15T13:49:16Z</time>
            </trkpt>
            <trkpt lat="46.335820" lon="10.488360">
                <time>2017-07-15T13:49:17Z</time>
            </trkpt>
            <trkpt lat="46.335930" lon="10.488420">
                <time>2017-07-15T13:49:18Z</time>
            </trkpt>
            <trkpt lat="46.336060" lon="10.488490">
                <time>2017-07-15T13:49:19Z</time>
            </trkpt>
            <trkpt lat="46.336180" lon="10.488550">
                <time>2017-07-15T13:49:20Z</time>
            </trkpt>
            <trkpt lat="46.336290" lon="10.488610">
                <time>2017-07-15T13:49:21Z</time>
            </trkpt>
            <trkpt lat="46.336400" lon="10.488620">
                <time>2017-07-15T13:49:22Z</time>
            </trkpt>
            <trkpt lat="46.336520" lon="10.488590">
                <time>2017-07-15T13:49:23Z</time>
            </trkpt>
            <trkpt lat="46.336640" lon="10.488540">
                <time>2017-07-15T13:49:24Z</time>
            </trkpt>
            <trkpt lat="46.336740" lon="10.488500">
                <time>2017-07-15T13:49:25Z</time>
            </trkpt>
            <trkpt lat="46.336850" lon="10.488480">
                <time>2017-07-15T13:49:26Z</time>
            </trkpt>
            <trkpt lat="46.336990" lon="10.488470">
                <time>2017-07-15T13:49:27Z</time>
            </trkpt>
            <trkpt lat="46.337110" lon="10.488490">
                <time>2017-07-15T13:49:28Z</time>
            </trkpt>
            <trkpt lat="46.337230" lon="10.488500">
                <time>2017-07-15T13:49:29Z</time>
            </trkpt>
            <trkpt lat="46.337370" lon="10.488480">
                <time>2017-07-15T13:49:30Z</time>
            </trkpt>
            <trkpt lat="46.337480" lon="10.488440">
                <time>2017-07-15T13:49:31Z</time>
            </trkpt>
            <trkpt lat="46.337620" lon="10.488400">
                <time>2017-07-15T13:49:32Z</time>
            </trkpt>
            <trkpt lat="46.337730" lon="10.488370">
                <time>2017-07-15T13:49:33Z</time>
            </trkpt>
            <trkpt lat="46.337840" lon="10.488350">
                <time>2017-07-15T13:49:34Z</time>
            </trkpt>
            <trkpt lat="46.337930" lon="10.488330">
                <time>2017-07-15T13:49:35Z</time>
            </trkpt>
            <trkpt lat="46.337980" lon="10.488290">
                <time>2017-07-15T13:49:36Z</time>
            </trkpt>
            <trkpt lat="46.338010" lon="10.488220">
                <time>2017-07-15T13:49:37Z</time>
            </trkpt>
            <trkpt lat="46.338010" lon="10.488130">
                <time>2017-07-15T13:49:38Z</time>
            </trkpt>
            <trkpt lat="46.337990" lon="10.488010">
                <time>2017-07-15T13:49:39Z</time>
            </trkpt>
            <trkpt lat="46.337950" lon="10.487860">
                <time>2017-07-15T13:49:40Z</time>
            </trkpt>
            <trkpt lat="46.337930" lon="10.487700">
                <time>2017-07-15T13:49:41Z</time>
            </trkpt>
            <trkpt lat="46.337900" lon="10.487520">
                <time>2017-07-15T13:49:42Z</time>
            </trkpt>
            <trkpt lat="46.337870" lon="10.487310">
                <time>2017-07-15T13:49:43Z</time>
            </trkpt>
            <trkpt lat="46.337850" lon="10.487120">
                <time>2017-07-15T13:49:44Z</time>
            </trkpt>
            <trkpt lat="46.337830" lon="10.486930">
                <time>2017-07-15T13:49:45Z</time>
            </trkpt>
            <trkpt lat="46.337830" lon="10.486730">
                <time>2017-07-15T13:49:46Z</time>
            </trkpt>
            <trkpt lat="46.337840" lon="10.486560">
                <time>2017-07-15T13:49:47Z</time>
            </trkpt>
            <trkpt lat="46.337880" lon="10.486360">
                <time>2017-07-15T13:49:48Z</time>
            </trkpt>
            <trkpt lat="46.337910" lon="10.486170">
                <time>2017-07-15T13:49:49Z</time>
            </trkpt>
            <trkpt lat="46.337960" lon="10.485970">
                <time>2017-07-15T13:49:50Z</time>
            </trkpt>
            <trkpt lat="46.337990" lon="10.485760">
                <time>2017-07-15T13:49:51Z</time>
            </trkpt>
            <trkpt lat="46.338020" lon="10.485580">
                <time>2017-07-15T13:49:52Z</time>
            </trkpt>
            <trkpt lat="46.338050" lon="10.485390">
                <time>2017-07-15T13:49:53Z</time>
            </trkpt>
            <trkpt lat="46.338090" lon="10.485210">
                <time>2017-07-15T13:49:54Z</time>
            </trkpt>
            <trkpt lat="46.338140" lon="10.485030">
                <time>2017-07-15T13:49:55Z</time>
            </trkpt>
            <trkpt lat="46.338170" lon="10.484870">
                <time>2017-07-15T13:49:56Z</time>
            </trkpt>
            <trkpt lat="46.338190" lon="10.484750">
                <time>2017-07-15T13:49:57Z</time>
            </trkpt>
            <trkpt lat="46.338200" lon="10.484670">
                <time>2017-07-15T13:49:58Z</time>
            </trkpt>
            <trkpt lat="46.338220" lon="10.484610">
                <time>2017-07-15T13:49:59Z</time>
            </trkpt>
            <trkpt lat="46.338260" lon="10.484600">
                <time>2017-07-15T13:50:00Z</time>
            </trkpt>
            <trkpt lat="46.338290" lon="10.484630">
                <time>2017-07-15T13:50:01Z</time>
            </trkpt>
            <trkpt lat="46.338310" lon="10.484700">
                <time>2017-07-15T13:50:02Z</time>
            </trkpt>
            <trkpt lat="46.338300" lon="10.484780">
                <time>2017-07-15T13:50:03Z</time>
            </trkpt>
            <trkpt lat="46.338270" lon="10.484910">
                <time>2017-07-15T13:50:04Z</time>
            </trkpt>
            <trkpt lat="46.338240" lon="10.485040">
                <time>2017-07-15T13:50:05Z</time>
            </trkpt>
            <trkpt lat="46.338210" lon="10.485190">
                <time>2017-07-15T13:50:06Z</time>
            </trkpt>
            <trkpt lat="46.338190" lon="10.485350">
                <time>2017-07-15T13:50:07Z</time>
            </trkpt>
            <trkpt lat="46.338190" lon="10.485500">
                <time>2017-07-15T13:50:08Z</time>
            </trkpt>
            <trkpt lat="46.338200" lon="10.485660">
                <time>2017-07-15T13:50:09Z</time>
            </trkpt>
            <trkpt lat="46.338210" lon="10.485830">
                <time>2017-07-15T13:50:10Z</time>
            </trkpt>
            <trkpt lat="46.338220" lon="10.486000">
                <time>2017-07-15T13:50:11Z</time>
            </trkpt>
            <trkpt lat="46.338210" lon="10.486170">
                <time>2017-07-15T13:50:12Z</time>
            </trkpt>
            <trkpt lat="46.338210" lon="10.486310">
                <time>2017-07-15T13:50:13Z</time>
            </trkpt>
            <trkpt lat="46.338220" lon="10.486440">
                <time>2017-07-15T13:50:14Z</time>
            </trkpt>
            <trkpt lat="46.338240" lon="10.486580">
                <time>2017-07-15T13:50:15Z</time>
            </trkpt>
            <trkpt lat="46.338270" lon="10.486710">
                <time>2017-07-15T13:50:16Z</time>
            </trkpt>
            <trkpt lat="46.338320" lon="10.486860">
                <time>2017-07-15T13:50:17Z</time>
            </trkpt>
            <trkpt lat="46.338370" lon="10.487030">
                <time>2017-07-15T13:50:18Z</time>
            </trkpt>
            <trkpt lat="46.338420" lon="10.487190">
                <time>2017-07-15T13:50:19Z</time>
            </trkpt>
            <trkpt lat="46.338480" lon="10.487370">
                <time>2017-07-15T13:50:20Z</time>
            </trkpt>
            <trkpt lat="46.338510" lon="10.487510">
                <time>2017-07-15T13:50:21Z</time>
            </trkpt>
            <trkpt lat="46.338540" lon="10.487650">
                <time>2017-07-15T13:50:22Z</time>
            </trkpt>
            <trkpt lat="46.338590" lon="10.487800">
                <time>2017-07-15T13:50:23Z</time>
            </trkpt>
            <trkpt lat="46.338650" lon="10.487940">
                <time>2017-07-15T13:50:24Z</time>
            </trkpt>
            <trkpt lat="46.338730" lon="10.488070">
                <time>2017-07-15T13:50:25Z</time>
            </trkpt>
            <trkpt lat="46.338810" lon="10.488170">
                <time>2017-07-15T13:50:26Z</time>
            </trkpt>
            <trkpt lat="46.338910" lon="10.488250">
                <time>2017-07-15T13:50:27Z</time>
            </trkpt>
            <trkpt lat="46.339020" lon="10.488340">
                <time>2017-07-15T13:50:28Z</time>
            </trkpt>
            <trkpt lat="46.339110" lon="10.488390">
                <time>2017-07-15T13:50:29Z</time>
            </trkpt>
            <trkpt lat="46.339180" lon="10.488440">
                <time>2017-07-15T13:50:30Z</time>
            </trkpt>
            <trkpt lat="46.339230" lon="10.488470">
                <time>2017-07-15T13:50:31Z</time>
            </trkpt>
            <trkpt lat="46.339270" lon="10.488460">
                <time>2017-07-15T13:50:32Z</time>
            </trkpt>
            <trkpt lat="46.339290" lon="10.488410">
                <time>2017-07-15T13:50:33Z</time>
            </trkpt>
            <trkpt lat="46.339280" lon="10.488350">
                <time>2017-07-15T13:50:34Z</time>
            </trkpt>
            <trkpt lat="46.339260" lon="10.488310">
                <time>2017-07-15T13:50:35Z</time>
            </trkpt>
            <trkpt lat="46.339210" lon="10.488270">
                <time>2017-07-15T13:50:36Z</time>
            </trkpt>
            <trkpt lat="46.339150" lon="10.488240">
                <time>2017-07-15T13:50:37Z</time>
            </trkpt>
            <trkpt lat="46.339090" lon="10.488200">
                <time>2017-07-15T13:50:38Z</time>
            </trkpt>
            <trkpt lat="46.339030" lon="10.488120">
                <time>2017-07-15T13:50:39Z</time>
            </trkpt>
            <trkpt lat="46.338980" lon="10.488020">
                <time>2017-07-15T13:50:40Z</time>
            </trkpt>
            <trkpt lat="46.338940" lon="10.487930">
                <time>2017-07-15T13:50:41Z</time>
            </trkpt>
            <trkpt lat="46.338920" lon="10.487830">
                <time>2017-07-15T13:50:42Z</time>
            </trkpt>
            <trkpt lat="46.338910" lon="10.487720">
                <time>2017-07-15T13:50:43Z</time>
            </trkpt>
            <trkpt lat="46.338920" lon="10.487590">
                <time>2017-07-15T13:50:44Z</time>
            </trkpt>
            <trkpt lat="46.338930" lon="10.487460">
                <time>2017-07-15T13:50:45Z</time>
            </trkpt>
            <trkpt lat="46.338920" lon="10.487310">
                <time>2017-07-15T13:50:46Z</time>
            </trkpt>
            <trkpt lat="46.338910" lon="10.487160">
                <time>2017-07-15T13:50:47Z</time>
            </trkpt>
            <trkpt lat="46.338890" lon="10.487040">
                <time>2017-07-15T13:50:48Z</time>
            </trkpt>
            <trkpt lat="46.338870" lon="10.486910">
                <time>2017-07-15T13:50:49Z</time>
            </trkpt>
            <trkpt lat="46.338850" lon="10.486790">
                <time>2017-07-15T13:50:50Z</time>
            </trkpt>
            <trkpt lat="46.338830" lon="10.486680">
                <time>2017-07-15T13:50:51Z</time>
            </trkpt>
            <trkpt lat="46.338810" lon="10.486540">
                <time>2017-07-15T13:50:52Z</time>
            </trkpt>
            <trkpt lat="46.338800" lon="10.486420">
                <time>2017-07-15T13:50:53Z</time>
            </trkpt>
            <trkpt lat="46.338790" lon="10.486300">
                <time>2017-07-15T13:50:54Z</time>
            </trkpt>
            <trkpt lat="46.338770" lon="10.486180">
                <time>2017-07-15T13:50:55Z</time>
            </trkpt>
            <trkpt lat="46.338760" lon="10.486090">
                <time>2017-07-15T13:50:56Z</time>
            </trkpt>
            <trkpt lat="46.338750" lon="10.485990">
                <time>2017-07-15T13:50:57Z</time>
            </trkpt>
            <trkpt lat="46.338760" lon="10.485890">
                <time>2017-07-15T13:50:58Z</time>
            </trkpt>
            <trkpt lat="46.338780" lon="10.485790">
                <time>2017-07-15T13:50:59Z</time>
            </trkpt>
            <trkpt lat="46.338810" lon="10.485670">
                <time>2017-07-15T13:51:00Z</time>
            </trkpt>
            <trkpt lat="46.338820" lon="10.485570">
                <time>2017-07-15T13:51:01Z</time>
            </trkpt>
            <trkpt lat="46.338830" lon="10.485460">
                <time>2017-07-15T13:51:02Z</time>
            </trkpt>
            <trkpt lat="46.338840" lon="10.485350">
                <time>2017-07-15T13:51:03Z</time>
            </trkpt>
            <trkpt lat="46.338860" lon="10.485240">
                <time>2017-07-15T13:51:04Z</time>
            </trkpt>
            <trkpt lat="46.338880" lon="10.485120">
                <time>2017-07-15T13:51:05Z</time>
            </trkpt>
            <trkpt lat="46.338910" lon="10.484990">
                <time>2017-07-15T13:51:06Z</time>
            </trkpt>
            <trkpt lat="46.338940" lon="10.484890">
                <time>2017-07-15T13:51:07Z</time>
            </trkpt>
            <trkpt lat="46.338960" lon="10.484770">
                <time>2017-07-15T13:51:08Z</time>
            </trkpt>
            <trkpt lat="46.338970" lon="10.484670">
                <time>2017-07-15T13:51:09Z</time>
            </trkpt>
            <trkpt lat="46.338980" lon="10.484570">
                <time>2017-07-15T13:51:10Z</time>
            </trkpt>
            <trkpt lat="46.338990" lon="10.484470">
                <time>2017-07-15T13:51:11Z</time>
            </trkpt>
            <trkpt lat="46.339010" lon="10.484370">
                <time>2017-07-15T13:51:12Z</time>
            </trkpt>
            <trkpt lat="46.339020" lon="10.484270">
                <time>2017-07-15T13:51:13Z</time>
            </trkpt>
            <trkpt lat="46.339030" lon="10.484170">
                <time>2017-07-15T13:51:14Z</time>
            </trkpt>
            <trkpt lat="46.339040" lon="10.484080">
                <time>2017-07-15T13:51:15Z</time>
            </trkpt>
            <trkpt lat="46.339050" lon="10.483990">
                <time>2017-07-15T13:51:16Z</time>
            </trkpt>
            <trkpt lat="46.339040" lon="10.483920">
                <time>2017-07-15T13:51:17Z</time>
            </trkpt>
            <trkpt lat="46.339040" lon="10.483860">
                <time>2017-07-15T13:51:18Z</time>
            </trkpt>
            <trkpt lat="46.339040" lon="10.483830">
                <time>2017-07-15T13:51:19Z</time>
            </trkpt>
            <trkpt lat="46.339040" lon="10.483800">
                <time>2017-07-15T13:51:20Z</time>
            </trkpt>
            <trkpt lat="46.339040" lon="10.483790">
                <time>2017-07-15T13:51:21Z</time>
            </trkpt>
            <trkpt lat="46.339030" lon="10.483800">
                <time>2017-07-15T13:51:22Z</time>
            </trkpt>
            <trkpt lat="46.339040" lon="10.483810">
                <time>2017-07-15T13:51:23Z</time>
            </trkpt>
            <trkpt lat="46.339040" lon="10.483810">
                <time>2017-07-15T13:51:24Z</time>
            </trkpt>
            <trkpt lat="46.339040" lon="10.483810">
                <time>2017-07-15T13:51:25Z</time>
            </trkpt>
            <trkpt lat="46.339040" lon="10.483810">
                <time>2017-07-15T13:51:26Z</time>
            </trkpt>
            <trkpt lat="46.339040" lon="10.483810">
                <time>2017-07-15T13:51:27Z</time>
            </trkpt>
            <trkpt lat="46.339040" lon="10.483810">
                <time>2017-07-15T13:51:28Z</time>
            </trkpt>
            <trkpt lat="46.339040" lon="10.483810">
                <time>2017-07-15T13:51:29Z</time>
            </trkpt>
            <trkpt lat="46.339040" lon="10.483810">
                <time>2017-07-15T13:51:30Z</time>
            </trkpt>
            <trkpt lat="46.339040" lon="10.483810">
                <time>2017-07-15T13:51:31Z</time>
            </trkpt>
            <trkpt lat="46.339040" lon="10.483810">
                <time>2017-07-15T13:51:32Z</time>
            </trkpt>
            <trkpt lat="46.339040" lon="10.483810">
                <time>2017-07-15T13:51:33Z</time>
            </trkpt>
            <trkpt lat="46.339040" lon="10.483810">
                <time>2017-07-15T13:51:34Z</time>
            </trkpt>
            <trkpt lat="46.339040" lon="10.483810">
                <time>2017-07-15T13:51:35Z</time>
            </trkpt>
            <trkpt lat="46.339040" lon="10.483810">
                <time>2017-07-15T13:51:36Z</time>
            </trkpt>
            <trkpt lat="46.339040" lon="10.483810">
                <time>2017-07-15T13:51:37Z</time>
            </trkpt>
            <trkpt lat="46.339040" lon="10.483810">
                <time>2017-07-15T13:51:38Z</time>
            </trkpt>
            <trkpt lat="46.339040" lon="10.483810">
                <time>2017-07-15T13:51:39Z</time>
            </trkpt>
            <trkpt lat="46.339040" lon="10.483810">
                <time>2017-07-15T13:51:40Z</time>
            </trkpt>
            <trkpt lat="46.339040" lon="10.483810">
                <time>2017-07-15T13:51:41Z</time>
            </trkpt>
            <trkpt lat="46.339040" lon="10.483810">
                <time>2017-07-15T13:51:42Z</time>
            </trkpt>
            <trkpt lat="46.339040" lon="10.483810">
                <time>2017-07-15T13:51:43Z</time>
            </trkpt>
            <trkpt lat="46.339040" lon="10.483810">
                <time>2017-07-15T13:51:44Z</time>
            </trkpt>
            <trkpt lat="46.339040" lon="10.483810">
                <time>2017-07-15T13:51:45Z</time>
            </trkpt>
            <trkpt lat="46.339040" lon="10.483810">
                <time>2017-07-15T13:51:46Z</time>
            </trkpt>
            <trkpt lat="46.339040" lon="10.483810">
                <time>2017-07-15T13:51:47Z</time>
            </trkpt>
            <trkpt lat="46.339040" lon="10.483810">
                <time>2017-07-15T13:51:48Z</time>
            </trkpt>
            <trkpt lat="46.339040" lon="10.483810">
                <time>2017-07-15T13:51:49Z</time>
            </trkpt>
            <trkpt lat="46.339040" lon="10.483810">
                <time>2017-07-15T13:51:50Z</time>
            </trkpt>
            <trkpt lat="46.339040" lon="10.483810">
                <time>2017-07-15T13:51:51Z</time>
            </trkpt>
            <trkpt lat="46.339040" lon="10.483810">
                <time>2017-07-15T13:51:52Z</time>
            </trkpt>
            <trkpt lat="46.339040" lon="10.483810">
                <time>2017-07-15T13:51:53Z</time>
            </trkpt>
            <trkpt lat="46.339040" lon="10.483810">
                <time>2017-07-15T13:51:54Z</time>
            </trkpt>
            <trkpt lat="46.339040" lon="10.483810">
                <time>2017-07-15T13:51:55Z</time>
            </trkpt>
            <trkpt lat="46.339040" lon="10.483810">
                <time>2017-07-15T13:51:56Z</time>
            </trkpt>
            <trkpt lat="46.339040" lon="10.483810">
                <time>2017-07-15T13:51:57Z</time>
            </trkpt>
            <trkpt lat="46.339040" lon="10.483810">
                <time>2017-07-15T13:51:58Z</time>
            </trkpt>
            <trkpt lat="46.339040" lon="10.483810">
                <time>2017-07-15T13:51:59Z</time>
            </trkpt>
            <trkpt lat="46.339040" lon="10.483810">
                <time>2017-07-15T13:52:00Z</time>
            </trkpt>
            <trkpt lat="46.339040" lon="10.483810">
                <time>2017-07-15T13:52:01Z</time>
            </trkpt>
            <trkpt lat="46.339040" lon="10.483810">
                <time>2017-07-15T13:52:02Z</time>
            </trkpt>
            <trkpt lat="46.339040" lon="10.483810">
                <time>2017-07-15T13:52:03Z</time>
            </trkpt>
            <trkpt lat="46.339040" lon="10.483810">
                <time>2017-07-15T13:52:04Z</time>
            </trkpt>
            <trkpt lat="46.339040" lon="10.483810">
                <time>2017-07-15T13:52:05Z</time>
            </trkpt>
            <trkpt lat="46.339040" lon="10.483810">
                <time>2017-07-15T13:52:06Z</time>
            </trkpt>
            <trkpt lat="46.339040" lon="10.483810">
                <time>2017-07-15T13:52:07Z</time>
            </trkpt>
            <trkpt lat="46.339040" lon="10.483810">
                <time>2017-07-15T13:52:08Z</time>
            </trkpt>
            <trkpt lat="46.339040" lon="10.483810">
                <time>2017-07-15T13:52:09Z</time>
            </trkpt>
            <trkpt lat="46.339040" lon="10.483810">
                <time>2017-07-15T13:52:10Z</time>
            </trkpt>
            <trkpt lat="46.339040" lon="10.483810">
                <time>2017-07-15T13:52:11Z</time>
            </trkpt>
            <trkpt lat="46.339040" lon="10.483810">
                <time>2017-07-15T13:52:12Z</time>
            </trkpt>
            <trkpt lat="46.339040" lon="10.483810">
                <time>2017-07-15T13:52:13Z</time>
            </trkpt>
            <trkpt lat="46.339040" lon="10.483810">
                <time>2017-07-15T13:52:14Z</time>
            </trkpt>
            <trkpt lat="46.339040" lon="10.483810">
                <time>2017-07-15T13:52:15Z</time>
            </trkpt>
            <trkpt lat="46.339040" lon="10.483810">
                <time>2017-07-15T13:52:16Z</time>
            </trkpt>
            <trkpt lat="46.339040" lon="10.483810">
                <time>2017-07-15T13:52:17Z</time>
            </trkpt>
            <trkpt lat="46.339040" lon="10.483810">
                <time>2017-07-15T13:52:18Z</time>
            </trkpt>
            <trkpt lat="46.339040" lon="10.483810">
                <time>2017-07-15T13:52:19Z</time>
            </trkpt>
            <trkpt lat="46.339040" lon="10.483810">
                <time>2017-07-15T13:52:20Z</time>
            </trkpt>
            <trkpt lat="46.339040" lon="10.483810">
                <time>2017-07-15T13:52:21Z</time>
            </trkpt>
            <trkpt lat="46.339040" lon="10.483810">
                <time>2017-07-15T13:52:22Z</time>
            </trkpt>
            <trkpt lat="46.339040" lon="10.483810">
                <time>2017-07-15T13:52:23Z</time>
            </trkpt>
            <trkpt lat="46.339040" lon="10.483810">
                <time>2017-07-15T13:52:24Z</time>
            </trkpt>
            <trkpt lat="46.339040" lon="10.483810">
                <time>2017-07-15T13:52:25Z</time>
            </trkpt>
            <trkpt lat="46.339040" lon="10.483810">
                <time>2017-07-15T13:52:26Z</time>
            </trkpt>
            <trkpt lat="46.339040" lon="10.483810">
                <time>2017-07-15T13:52:27Z</time>
            </trkpt>
            <trkpt lat="46.339040" lon="10.483810">
                <time>2017-07-15T13:52:28Z</time>
            </trkpt>
            <trkpt lat="46.339040" lon="10.483810">
                <time>2017-07-15T13:52:29Z</time>
            </trkpt>
            <trkpt lat="46.339040" lon="10.483810">
                <time>2017-07-15T13:52:30Z</time>
            </trkpt>
            <trkpt lat="46.339040" lon="10.483810">
                <time>2017-07-15T13:52:31Z</time>
            </trkpt>
            <trkpt lat="46.339040" lon="10.483810">
                <time>2017-07-15T13:52:32Z</time>
            </trkpt>
            <trkpt lat="46.339040" lon="10.483810">
                <time>2017-07-15T13:52:33Z</time>
            </trkpt>
            <trkpt lat="46.339040" lon="10.483810">
                <time>2017-07-15T13:52:34Z</time>
            </trkpt>
            <trkpt lat="46.339040" lon="10.483810">
                <time>2017-07-15T13:52:35Z</time>
            </trkpt>
            <trkpt lat="46.339040" lon="10.483810">
                <time>2017-07-15T13:52:36Z</time>
            </trkpt>
            <trkpt lat="46.339040" lon="10.483810">
                <time>2017-07-15T13:52:37Z</time>
            </trkpt>
            <trkpt lat="46.339040" lon="10.483810">
                <time>2017-07-15T13:52:38Z</time>
            </trkpt>
            <trkpt lat="46.339040" lon="10.483810">
                <time>2017-07-15T13:52:39Z</time>
            </trkpt>
            <trkpt lat="46.339040" lon="10.483810">
                <time>2017-07-15T13:52:40Z</time>
            </trkpt>
            <trkpt lat="46.339040" lon="10.483810">
                <time>2017-07-15T13:52:41Z</time>
            </trkpt>
            <trkpt lat="46.339040" lon="10.483810">
                <time>2017-07-15T13:52:42Z</time>
            </trkpt>
            <trkpt lat="46.339040" lon="10.483810">
                <time>2017-07-15T13:52:43Z</time>
            </trkpt>
            <trkpt lat="46.339040" lon="10.483810">
                <time>2017-07-15T13:52:44Z</time>
            </trkpt>
            <trkpt lat="46.339040" lon="10.483810">
                <time>2017-07-15T13:52:45Z</time>
            </trkpt>
            <trkpt lat="46.339040" lon="10.483810">
                <time>2017-07-15T13:52:46Z</time>
            </trkpt>
            <trkpt lat="46.339040" lon="10.483810">
                <time>2017-07-15T13:52:47Z</time>
            </trkpt>
            <trkpt lat="46.339040" lon="10.483810">
                <time>2017-07-15T13:52:48Z</time>
            </trkpt>
            <trkpt lat="46.339040" lon="10.483810">
                <time>2017-07-15T13:52:49Z</time>
            </trkpt>
            <trkpt lat="46.339040" lon="10.483810">
                <time>2017-07-15T13:52:50Z</time>
            </trkpt>
            <trkpt lat="46.339040" lon="10.483810">
                <time>2017-07-15T13:52:51Z</time>
            </trkpt>
            <trkpt lat="46.339040" lon="10.483810">
                <time>2017-07-15T13:52:52Z</time>
            </trkpt>
            <trkpt lat="46.339040" lon="10.483810">
                <time>2017-07-15T13:52:53Z</time>
            </trkpt>
            <trkpt lat="46.339040" lon="10.483810">
                <time>2017-07-15T13:52:54Z</time>
            </trkpt>
            <trkpt lat="46.339040" lon="10.483810">
                <time>2017-07-15T13:52:55Z</time>
            </trkpt>
            <trkpt lat="46.339040" lon="10.483810">
                <time>2017-07-15T13:52:56Z</time>
            </trkpt>
            <trkpt lat="46.339040" lon="10.483810">
                <time>2017-07-15T13:52:57Z</time>
            </trkpt>
            <trkpt lat="46.339040" lon="10.483810">
                <time>2017-07-15T13:52:58Z</time>
            </trkpt>
            <trkpt lat="46.339040" lon="10.483810">
                <time>2017-07-15T13:52:59Z</time>
            </trkpt>
            <trkpt lat="46.339040" lon="10.483810">
                <time>2017-07-15T13:53:00Z</time>
            </trkpt>
            <trkpt lat="46.339040" lon="10.483810">
                <time>2017-07-15T13:53:01Z</time>
            </trkpt>
            <trkpt lat="46.339040" lon="10.483810">
                <time>2017-07-15T13:53:02Z</time>
            </trkpt>
            <trkpt lat="46.339040" lon="10.483810">
                <time>2017-07-15T13:53:03Z</time>
            </trkpt>
            <trkpt lat="46.339040" lon="10.483810">
                <time>2017-07-15T13:53:04Z</time>
            </trkpt>
            <trkpt lat="46.339040" lon="10.483810">
                <time>2017-07-15T13:53:05Z</time>
            </trkpt>
            <trkpt lat="46.339040" lon="10.483810">
                <time>2017-07-15T13:53:06Z</time>
            </trkpt>
            <trkpt lat="46.339040" lon="10.483810">
                <time>2017-07-15T13:53:07Z</time>
            </trkpt>
            <trkpt lat="46.339040" lon="10.483810">
                <time>2017-07-15T13:53:08Z</time>
            </trkpt>
            <trkpt lat="46.339040" lon="10.483810">
                <time>2017-07-15T13:53:09Z</time>
            </trkpt>
            <trkpt lat="46.339040" lon="10.483810">
                <time>2017-07-15T13:53:10Z</time>
            </trkpt>
            <trkpt lat="46.339040" lon="10.483810">
                <time>2017-07-15T13:53:11Z</time>
            </trkpt>
            <trkpt lat="46.339040" lon="10.483810">
                <time>2017-07-15T13:53:12Z</time>
            </trkpt>
            <trkpt lat="46.339040" lon="10.483810">
                <time>2017-07-15T13:53:13Z</time>
            </trkpt>
            <trkpt lat="46.339040" lon="10.483810">
                <time>2017-07-15T13:53:14Z</time>
            </trkpt>
            <trkpt lat="46.339040" lon="10.483810">
                <time>2017-07-15T13:53:15Z</time>
            </trkpt>
            <trkpt lat="46.339040" lon="10.483810">
                <time>2017-07-15T13:53:16Z</time>
            </trkpt>
            <trkpt lat="46.339040" lon="10.483810">
                <time>2017-07-15T13:53:17Z</time>
            </trkpt>
            <trkpt lat="46.339040" lon="10.483810">
                <time>2017-07-15T13:53:18Z</time>
            </trkpt>
            <trkpt lat="46.339040" lon="10.483810">
                <time>2017-07-15T13:53:19Z</time>
            </trkpt>
            <trkpt lat="46.339040" lon="10.483810">
                <time>2017-07-15T13:53:20Z</time>
            </trkpt>
            <trkpt lat="46.339040" lon="10.483810">
                <time>2017-07-15T13:53:21Z</time>
            </trkpt>
            <trkpt lat="46.339040" lon="10.483810">
                <time>2017-07-15T13:53:22Z</time>
            </trkpt>
            <trkpt lat="46.339040" lon="10.483810">
                <time>2017-07-15T13:53:23Z</time>
            </trkpt>
            <trkpt lat="46.339040" lon="10.483810">
                <time>2017-07-15T13:53:24Z</time>
            </trkpt>
            <trkpt lat="46.339040" lon="10.483810">
                <time>2017-07-15T13:53:25Z</time>
            </trkpt>
            <trkpt lat="46.339040" lon="10.483810">
                <time>2017-07-15T13:53:26Z</time>
            </trkpt>
            <trkpt lat="46.339040" lon="10.483810">
                <time>2017-07-15T13:53:27Z</time>
            </trkpt>
            <trkpt lat="46.339040" lon="10.483810">
                <time>2017-07-15T13:53:28Z</time>
            </trkpt>
            <trkpt lat="46.339040" lon="10.483810">
                <time>2017-07-15T13:53:29Z</time>
            </trkpt>
            <trkpt lat="46.339040" lon="10.483810">
                <time>2017-07-15T13:53:30Z</time>
            </trkpt>
            <trkpt lat="46.339040" lon="10.483810">
                <time>2017-07-15T13:53:31Z</time>
            </trkpt>
            <trkpt lat="46.339040" lon="10.483810">
                <time>2017-07-15T13:53:32Z</time>
            </trkpt>
            <trkpt lat="46.339040" lon="10.483810">
                <time>2017-07-15T13:53:33Z</time>
            </trkpt>
            <trkpt lat="46.339040" lon="10.483810">
                <time>2017-07-15T13:53:34Z</time>
            </trkpt>
            <trkpt lat="46.339040" lon="10.483810">
                <time>2017-07-15T13:53:35Z</time>
            </trkpt>
            <trkpt lat="46.339040" lon="10.483810">
                <time>2017-07-15T13:53:36Z</time>
            </trkpt>
            <trkpt lat="46.339040" lon="10.483810">
                <time>2017-07-15T13:53:37Z</time>
            </trkpt>
            <trkpt lat="46.339040" lon="10.483810">
                <time>2017-07-15T13:53:38Z</time>
            </trkpt>
            <trkpt lat="46.339040" lon="10.483800">
                <time>2017-07-15T13:53:39Z</time>
            </trkpt>
            <trkpt lat="46.339030" lon="10.483800">
                <time>2017-07-15T13:53:40Z</time>
            </trkpt>
            <trkpt lat="46.339030" lon="10.483800">
                <time>2017-07-15T13:53:41Z</time>
            </trkpt>
            <trkpt lat="46.339030" lon="10.483800">
                <time>2017-07-15T13:53:42Z</time>
            </trkpt>
            <trkpt lat="46.339030" lon="10.483800">
                <time>2017-07-15T13:53:43Z</time>
            </trkpt>
            <trkpt lat="46.339030" lon="10.483800">
                <time>2017-07-15T13:53:44Z</time>
            </trkpt>
            <trkpt lat="46.339030" lon="10.483790">
                <time>2017-07-15T13:53:45Z</time>
            </trkpt>
            <trkpt lat="46.339050" lon="10.483780">
                <time>2017-07-15T13:53:46Z</time>
            </trkpt>
            <trkpt lat="46.339070" lon="10.483770">
                <time>2017-07-15T13:53:47Z</time>
            </trkpt>
            <trkpt lat="46.339100" lon="10.483790">
                <time>2017-07-15T13:53:48Z</time>
            </trkpt>
            <trkpt lat="46.339120" lon="10.483820">
                <time>2017-07-15T13:53:49Z</time>
            </trkpt>
            <trkpt lat="46.339130" lon="10.483870">
                <time>2017-07-15T13:53:50Z</time>
            </trkpt>
            <trkpt lat="46.339120" lon="10.484030">
                <time>2017-07-15T13:53:51Z</time>
            </trkpt>
            <trkpt lat="46.339110" lon="10.484150">
                <time>2017-07-15T13:53:52Z</time>
            </trkpt>
            <trkpt lat="46.339100" lon="10.484290">
                <time>2017-07-15T13:53:53Z</time>
            </trkpt>
            <trkpt lat="46.339100" lon="10.484450">
                <time>2017-07-15T13:53:54Z</time>
            </trkpt>
            <trkpt lat="46.339110" lon="10.484610">
                <time>2017-07-15T13:53:55Z</time>
            </trkpt>
            <trkpt lat="46.339120" lon="10.484770">
                <time>2017-07-15T13:53:56Z</time>
            </trkpt>
            <trkpt lat="46.339140" lon="10.484910">
                <time>2017-07-15T13:53:57Z</time>
            </trkpt>
            <trkpt lat="46.339170" lon="10.485030">
                <time>2017-07-15T13:53:58Z</time>
            </trkpt>
            <trkpt lat="46.339220" lon="10.485120">
                <time>2017-07-15T13:53:59Z</time>
            </trkpt>
            <trkpt lat="46.339280" lon="10.485170">
                <time>2017-07-15T13:54:00Z</time>
            </trkpt>
            <trkpt lat="46.339350" lon="10.485200">
                <time>2017-07-15T13:54:01Z</time>
            </trkpt>
            <trkpt lat="46.339440" lon="10.485230">
                <time>2017-07-15T13:54:02Z</time>
            </trkpt>
            <trkpt lat="46.339540" lon="10.485240">
                <time>2017-07-15T13:54:03Z</time>
            </trkpt>
            <trkpt lat="46.339660" lon="10.485260">
                <time>2017-07-15T13:54:04Z</time>
            </trkpt>
            <trkpt lat="46.339760" lon="10.485290">
                <time>2017-07-15T13:54:05Z</time>
            </trkpt>
            <trkpt lat="46.339850" lon="10.485340">
                <time>2017-07-15T13:54:06Z</time>
            </trkpt>
            <trkpt lat="46.339930" lon="10.485420">
                <time>2017-07-15T13:54:07Z</time>
            </trkpt>
            <trkpt lat="46.339990" lon="10.485500">
                <time>2017-07-15T13:54:08Z</time>
            </trkpt>
            <trkpt lat="46.340040" lon="10.485600">
                <time>2017-07-15T13:54:09Z</time>
            </trkpt>
            <trkpt lat="46.340100" lon="10.485700">
                <time>2017-07-15T13:54:10Z</time>
            </trkpt>
            <trkpt lat="46.340180" lon="10.485790">
                <time>2017-07-15T13:54:11Z</time>
            </trkpt>
            <trkpt lat="46.340270" lon="10.485840">
                <time>2017-07-15T13:54:12Z</time>
            </trkpt>
            <trkpt lat="46.340370" lon="10.485860">
                <time>2017-07-15T13:54:13Z</time>
            </trkpt>
            <trkpt lat="46.340480" lon="10.485850">
                <time>2017-07-15T13:54:14Z</time>
            </trkpt>
            <trkpt lat="46.340600" lon="10.485810">
                <time>2017-07-15T13:54:15Z</time>
            </trkpt>
            <trkpt lat="46.340720" lon="10.485760">
                <time>2017-07-15T13:54:16Z</time>
            </trkpt>
            <trkpt lat="46.340840" lon="10.485700">
                <time>2017-07-15T13:54:17Z</time>
            </trkpt>
            <trkpt lat="46.340970" lon="10.485640">
                <time>2017-07-15T13:54:18Z</time>
            </trkpt>
            <trkpt lat="46.341080" lon="10.485580">
                <time>2017-07-15T13:54:19Z</time>
            </trkpt>
            <trkpt lat="46.341210" lon="10.485490">
                <time>2017-07-15T13:54:20Z</time>
            </trkpt>
            <trkpt lat="46.341310" lon="10.485400">
                <time>2017-07-15T13:54:21Z</time>
            </trkpt>
            <trkpt lat="46.341400" lon="10.485300">
                <time>2017-07-15T13:54:22Z</time>
            </trkpt>
            <trkpt lat="46.341460" lon="10.485190">
                <time>2017-07-15T13:54:23Z</time>
            </trkpt>
            <trkpt lat="46.341500" lon="10.485050">
                <time>2017-07-15T13:54:24Z</time>
            </trkpt>
            <trkpt lat="46.341530" lon="10.484890">
                <time>2017-07-15T13:54:25Z</time>
            </trkpt>
            <trkpt lat="46.341580" lon="10.484740">
                <time>2017-07-15T13:54:26Z</time>
            </trkpt>
            <trkpt lat="46.341660" lon="10.484610">
                <time>2017-07-15T13:54:27Z</time>
            </trkpt>
            <trkpt lat="46.341760" lon="10.484500">
                <time>2017-07-15T13:54:28Z</time>
            </trkpt>
            <trkpt lat="46.341870" lon="10.484410">
                <time>2017-07-15T13:54:29Z</time>
            </trkpt>
            <trkpt lat="46.341990" lon="10.484320">
                <time>2017-07-15T13:54:30Z</time>
            </trkpt>
            <trkpt lat="46.342120" lon="10.484230">
                <time>2017-07-15T13:54:31Z</time>
            </trkpt>
            <trkpt lat="46.342250" lon="10.484150">
                <time>2017-07-15T13:54:32Z</time>
            </trkpt>
            <trkpt lat="46.342370" lon="10.484060">
                <time>2017-07-15T13:54:33Z</time>
            </trkpt>
            <trkpt lat="46.342510" lon="10.483980">
                <time>2017-07-15T13:54:34Z</time>
            </trkpt>
            <trkpt lat="46.342620" lon="10.483930">
                <time>2017-07-15T13:54:35Z</time>
            </trkpt>
            <trkpt lat="46.342730" lon="10.483910">
                <time>2017-07-15T13:54:36Z</time>
            </trkpt>
            <trkpt lat="46.342840" lon="10.483920">
                <time>2017-07-15T13:54:37Z</time>
            </trkpt>
            <trkpt lat="46.342950" lon="10.483980">
                <time>2017-07-15T13:54:38Z</time>
            </trkpt>
            <trkpt lat="46.343090" lon="10.484040">
                <time>2017-07-15T13:54:39Z</time>
            </trkpt>
            <trkpt lat="46.343220" lon="10.484110">
                <time>2017-07-15T13:54:40Z</time>
            </trkpt>
            <trkpt lat="46.343370" lon="10.484150">
                <time>2017-07-15T13:54:41Z</time>
            </trkpt>
            <trkpt lat="46.343500" lon="10.484180">
                <time>2017-07-15T13:54:42Z</time>
            </trkpt>
            <trkpt lat="46.343610" lon="10.484220">
                <time>2017-07-15T13:54:43Z</time>
            </trkpt>
            <trkpt lat="46.343700" lon="10.484250">
                <time>2017-07-15T13:54:44Z</time>
            </trkpt>
            <trkpt lat="46.343770" lon="10.484290">
                <time>2017-07-15T13:54:45Z</time>
            </trkpt>
            <trkpt lat="46.343820" lon="10.484380">
                <time>2017-07-15T13:54:46Z</time>
            </trkpt>
            <trkpt lat="46.343850" lon="10.484480">
                <time>2017-07-15T13:54:47Z</time>
            </trkpt>
            <trkpt lat="46.343880" lon="10.484610">
                <time>2017-07-15T13:54:48Z</time>
            </trkpt>
            <trkpt lat="46.343880" lon="10.484770">
                <time>2017-07-15T13:54:49Z</time>
            </trkpt>
            <trkpt lat="46.343860" lon="10.484940">
                <time>2017-07-15T13:54:50Z</time>
            </trkpt>
            <trkpt lat="46.343830" lon="10.485110">
                <time>2017-07-15T13:54:51Z</time>
            </trkpt>
            <trkpt lat="46.343800" lon="10.485300">
                <time>2017-07-15T13:54:52Z</time>
            </trkpt>
            <trkpt lat="46.343770" lon="10.485490">
                <time>2017-07-15T13:54:53Z</time>
            </trkpt>
            <trkpt lat="46.343740" lon="10.485710">
                <time>2017-07-15T13:54:54Z</time>
            </trkpt>
            <trkpt lat="46.343710" lon="10.485920">
                <time>2017-07-15T13:54:55Z</time>
            </trkpt>
            <trkpt lat="46.343680" lon="10.486100">
                <time>2017-07-15T13:54:56Z</time>
            </trkpt>
            <trkpt lat="46.343660" lon="10.486300">
                <time>2017-07-15T13:54:57Z</time>
            </trkpt>
            <trkpt lat="46.343630" lon="10.486470">
                <time>2017-07-15T13:54:58Z</time>
            </trkpt>
            <trkpt lat="46.343600" lon="10.486630">
                <time>2017-07-15T13:54:59Z</time>
            </trkpt>
            <trkpt lat="46.343570" lon="10.486800">
                <time>2017-07-15T13:55:00Z</time>
            </trkpt>
            <trkpt lat="46.343550" lon="10.486930">
                <time>2017-07-15T13:55:01Z</time>
            </trkpt>
            <trkpt lat="46.343520" lon="10.487060">
                <time>2017-07-15T13:55:02Z</time>
            </trkpt>
            <trkpt lat="46.343500" lon="10.487170">
                <time>2017-07-15T13:55:03Z</time>
            </trkpt>
            <trkpt lat="46.343490" lon="10.487250">
                <time>2017-07-15T13:55:04Z</time>
            </trkpt>
            <trkpt lat="46.343480" lon="10.487320">
                <time>2017-07-15T13:55:05Z</time>
            </trkpt>
            <trkpt lat="46.343470" lon="10.487360">
                <time>2017-07-15T13:55:06Z</time>
            </trkpt>
            <trkpt lat="46.343460" lon="10.487360">
                <time>2017-07-15T13:55:07Z</time>
            </trkpt>
            <trkpt lat="46.343460" lon="10.487360">
                <time>2017-07-15T13:55:08Z</time>
            </trkpt>
            <trkpt lat="46.343460" lon="10.487360">
                <time>2017-07-15T13:55:09Z</time>
            </trkpt>
            <trkpt lat="46.343470" lon="10.487360">
                <time>2017-07-15T13:55:10Z</time>
            </trkpt>
            <trkpt lat="46.343470" lon="10.487360">
                <time>2017-07-15T13:55:11Z</time>
            </trkpt>
            <trkpt lat="46.343470" lon="10.487360">
                <time>2017-07-15T13:55:12Z</time>
            </trkpt>
            <trkpt lat="46.343470" lon="10.487370">
                <time>2017-07-15T13:55:13Z</time>
            </trkpt>
            <trkpt lat="46.343470" lon="10.487400">
                <time>2017-07-15T13:55:14Z</time>
            </trkpt>
            <trkpt lat="46.343470" lon="10.487440">
                <time>2017-07-15T13:55:15Z</time>
            </trkpt>
            <trkpt lat="46.343470" lon="10.487480">
                <time>2017-07-15T13:55:16Z</time>
            </trkpt>
            <trkpt lat="46.343470" lon="10.487520">
                <time>2017-07-15T13:55:17Z</time>
            </trkpt>
            <trkpt lat="46.343470" lon="10.487580">
                <time>2017-07-15T13:55:18Z</time>
            </trkpt>
            <trkpt lat="46.343480" lon="10.487640">
                <time>2017-07-15T13:55:19Z</time>
            </trkpt>
            <trkpt lat="46.343500" lon="10.487720">
                <time>2017-07-15T13:55:20Z</time>
            </trkpt>
            <trkpt lat="46.343510" lon="10.487790">
                <time>2017-07-15T13:55:21Z</time>
            </trkpt>
            <trkpt lat="46.343530" lon="10.487850">
                <time>2017-07-15T13:55:22Z</time>
            </trkpt>
            <trkpt lat="46.343540" lon="10.487920">
                <time>2017-07-15T13:55:23Z</time>
            </trkpt>
            <trkpt lat="46.343550" lon="10.488000">
                <time>2017-07-15T13:55:24Z</time>
            </trkpt>
            <trkpt lat="46.343570" lon="10.488050">
                <time>2017-07-15T13:55:25Z</time>
            </trkpt>
            <trkpt lat="46.343590" lon="10.488110">
                <time>2017-07-15T13:55:26Z</time>
            </trkpt>
            <trkpt lat="46.343600" lon="10.488160">
                <time>2017-07-15T13:55:27Z</time>
            </trkpt>
            <trkpt lat="46.343610" lon="10.488200">
                <time>2017-07-15T13:55:28Z</time>
            </trkpt>
            <trkpt lat="46.343620" lon="10.488240">
                <time>2017-07-15T13:55:29Z</time>
            </trkpt>
            <trkpt lat="46.343640" lon="10.488290">
                <time>2017-07-15T13:55:30Z</time>
            </trkpt>
            <trkpt lat="46.343650" lon="10.488330">
                <time>2017-07-15T13:55:31Z</time>
            </trkpt>
            <trkpt lat="46.343660" lon="10.488370">
                <time>2017-07-15T13:55:32Z</time>
            </trkpt>
            <trkpt lat="46.343670" lon="10.488400">
                <time>2017-07-15T13:55:33Z</time>
            </trkpt>
            <trkpt lat="46.343680" lon="10.488420">
                <time>2017-07-15T13:55:34Z</time>
            </trkpt>
            <trkpt lat="46.343690" lon="10.488450">
                <time>2017-07-15T13:55:35Z</time>
            </trkpt>
            <trkpt lat="46.343700" lon="10.488470">
                <time>2017-07-15T13:55:36Z</time>
            </trkpt>
            <trkpt lat="46.343700" lon="10.488480">
                <time>2017-07-15T13:55:37Z</time>
            </trkpt>
            <trkpt lat="46.343710" lon="10.488490">
                <time>2017-07-15T13:55:38Z</time>
            </trkpt>
            <trkpt lat="46.343720" lon="10.488500">
                <time>2017-07-15T13:55:39Z</time>
            </trkpt>
            <trkpt lat="46.343720" lon="10.488510">
                <time>2017-07-15T13:55:40Z</time>
            </trkpt>
            <trkpt lat="46.343720" lon="10.488510">
                <time>2017-07-15T13:55:41Z</time>
            </trkpt>
            <trkpt lat="46.343720" lon="10.488510">
                <time>2017-07-15T13:55:42Z</time>
            </trkpt>
            <trkpt lat="46.343720" lon="10.488510">
                <time>2017-07-15T13:55:43Z</time>
            </trkpt>
            <trkpt lat="46.343720" lon="10.488510">
                <time>2017-07-15T13:55:44Z</time>
            </trkpt>
            <trkpt lat="46.343720" lon="10.488510">
                <time>2017-07-15T13:55:45Z</time>
            </trkpt>
            <trkpt lat="46.343720" lon="10.488510">
                <time>2017-07-15T13:55:46Z</time>
            </trkpt>
            <trkpt lat="46.343720" lon="10.488510">
                <time>2017-07-15T13:55:47Z</time>
            </trkpt>
            <trkpt lat="46.343720" lon="10.488510">
                <time>2017-07-15T13:55:48Z</time>
            </trkpt>
            <trkpt lat="46.343720" lon="10.488510">
                <time>2017-07-15T13:55:49Z</time>
            </trkpt>
            <trkpt lat="46.343720" lon="10.488510">
                <time>2017-07-15T13:55:50Z</time>
            </trkpt>
            <trkpt lat="46.343720" lon="10.488510">
                <time>2017-07-15T13:55:51Z</time>
            </trkpt>
            <trkpt lat="46.343720" lon="10.488510">
                <time>2017-07-15T13:55:52Z</time>
            </trkpt>
            <trkpt lat="46.343720" lon="10.488510">
                <time>2017-07-15T13:55:53Z</time>
            </trkpt>
            <trkpt lat="46.343720" lon="10.488510">
                <time>2017-07-15T13:55:54Z</time>
            </trkpt>
            <trkpt lat="46.343720" lon="10.488510">
                <time>2017-07-15T13:55:55Z</time>
            </trkpt>
            <trkpt lat="46.343720" lon="10.488510">
                <time>2017-07-15T13:55:56Z</time>
            </trkpt>
            <trkpt lat="46.343720" lon="10.488510">
                <time>2017-07-15T13:55:57Z</time>
            </trkpt>
            <trkpt lat="46.343720" lon="10.488510">
                <time>2017-07-15T13:55:58Z</time>
            </trkpt>
            <trkpt lat="46.343720" lon="10.488510">
                <time>2017-07-15T13:55:59Z</time>
            </trkpt>
            <trkpt lat="46.343720" lon="10.488510">
                <time>2017-07-15T13:56:00Z</time>
            </trkpt>
            <trkpt lat="46.343720" lon="10.488510">
                <time>2017-07-15T13:56:01Z</time>
            </trkpt>
            <trkpt lat="46.343720" lon="10.488510">
                <time>2017-07-15T13:56:02Z</time>
            </trkpt>
            <trkpt lat="46.343720" lon="10.488510">
                <time>2017-07-15T13:56:03Z</time>
            </trkpt>
            <trkpt lat="46.343720" lon="10.488510">
                <time>2017-07-15T13:56:04Z</time>
            </trkpt>
            <trkpt lat="46.343720" lon="10.488500">
                <time>2017-07-15T13:56:05Z</time>
            </trkpt>
            <trkpt lat="46.343720" lon="10.488500">
                <time>2017-07-15T13:56:06Z</time>
            </trkpt>
            <trkpt lat="46.343720" lon="10.488500">
                <time>2017-07-15T13:56:07Z</time>
            </trkpt>
            <trkpt lat="46.343720" lon="10.488510">
                <time>2017-07-15T13:56:08Z</time>
            </trkpt>
            <trkpt lat="46.343710" lon="10.488520">
                <time>2017-07-15T13:56:09Z</time>
            </trkpt>
            <trkpt lat="46.343710" lon="10.488530">
                <time>2017-07-15T13:56:10Z</time>
            </trkpt>
            <trkpt lat="46.343710" lon="10.488530">
                <time>2017-07-15T13:56:11Z</time>
            </trkpt>
            <trkpt lat="46.343710" lon="10.488540">
                <time>2017-07-15T13:56:12Z</time>
            </trkpt>
            <trkpt lat="46.343710" lon="10.488550">
                <time>2017-07-15T13:56:13Z</time>
            </trkpt>
            <trkpt lat="46.343720" lon="10.488560">
                <time>2017-07-15T13:56:14Z</time>
            </trkpt>
            <trkpt lat="46.343720" lon="10.488570">
                <time>2017-07-15T13:56:15Z</time>
            </trkpt>
            <trkpt lat="46.343730" lon="10.488570">
                <time>2017-07-15T13:56:16Z</time>
            </trkpt>
            <trkpt lat="46.343720" lon="10.488570">
                <time>2017-07-15T13:56:17Z</time>
            </trkpt>
            <trkpt lat="46.343720" lon="10.488560">
                <time>2017-07-15T13:56:18Z</time>
            </trkpt>
            <trkpt lat="46.343720" lon="10.488560">
                <time>2017-07-15T13:56:19Z</time>
            </trkpt>
            <trkpt lat="46.343720" lon="10.488560">
                <time>2017-07-15T13:56:20Z</time>
            </trkpt>
            <trkpt lat="46.343720" lon="10.488560">
                <time>2017-07-15T13:56:21Z</time>
            </trkpt>
            <trkpt lat="46.343720" lon="10.488560">
                <time>2017-07-15T13:56:22Z</time>
            </trkpt>
            <trkpt lat="46.343720" lon="10.488560">
                <time>2017-07-15T13:56:23Z</time>
            </trkpt>
            <trkpt lat="46.343720" lon="10.488560">
                <time>2017-07-15T13:56:24Z</time>
            </trkpt>
            <trkpt lat="46.343720" lon="10.488560">
                <time>2017-07-15T13:56:25Z</time>
            </trkpt>
            <trkpt lat="46.343720" lon="10.488560">
                <time>2017-07-15T13:56:26Z</time>
            </trkpt>
            <trkpt lat="46.343720" lon="10.488560">
                <time>2017-07-15T13:56:27Z</time>
            </trkpt>
            <trkpt lat="46.343720" lon="10.488560">
                <time>2017-07-15T13:56:28Z</time>
            </trkpt>
            <trkpt lat="46.343720" lon="10.488560">
                <time>2017-07-15T13:56:29Z</time>
            </trkpt>
            <trkpt lat="46.343720" lon="10.488560">
                <time>2017-07-15T13:56:30Z</time>
            </trkpt>
            <trkpt lat="46.343720" lon="10.488560">
                <time>2017-07-15T13:56:31Z</time>
            </trkpt>
            <trkpt lat="46.343720" lon="10.488560">
                <time>2017-07-15T13:56:32Z</time>
            </trkpt>
            <trkpt lat="46.343720" lon="10.488560">
                <time>2017-07-15T13:56:33Z</time>
            </trkpt>
            <trkpt lat="46.343720" lon="10.488560">
                <time>2017-07-15T13:56:34Z</time>
            </trkpt>
            <trkpt lat="46.343720" lon="10.488560">
                <time>2017-07-15T13:56:35Z</time>
            </trkpt>
            <trkpt lat="46.343720" lon="10.488560">
                <time>2017-07-15T13:56:36Z</time>
            </trkpt>
            <trkpt lat="46.343720" lon="10.488560">
                <time>2017-07-15T13:56:37Z</time>
            </trkpt>
            <trkpt lat="46.343720" lon="10.488560">
                <time>2017-07-15T13:56:38Z</time>
            </trkpt>
            <trkpt lat="46.343720" lon="10.488560">
                <time>2017-07-15T13:56:39Z</time>
            </trkpt>
            <trkpt lat="46.343720" lon="10.488560">
                <time>2017-07-15T13:56:40Z</time>
            </trkpt>
            <trkpt lat="46.343720" lon="10.488560">
                <time>2017-07-15T13:56:41Z</time>
            </trkpt>
            <trkpt lat="46.343720" lon="10.488560">
                <time>2017-07-15T13:56:42Z</time>
            </trkpt>
            <trkpt lat="46.343720" lon="10.488560">
                <time>2017-07-15T13:56:43Z</time>
            </trkpt>
            <trkpt lat="46.343720" lon="10.488560">
                <time>2017-07-15T13:56:44Z</time>
            </trkpt>
            <trkpt lat="46.343720" lon="10.488560">
                <time>2017-07-15T13:56:45Z</time>
            </trkpt>
            <trkpt lat="46.343720" lon="10.488560">
                <time>2017-07-15T13:56:46Z</time>
            </trkpt>
            <trkpt lat="46.343720" lon="10.488560">
                <time>2017-07-15T13:56:47Z</time>
            </trkpt>
            <trkpt lat="46.343720" lon="10.488560">
                <time>2017-07-15T13:56:48Z</time>
            </trkpt>
            <trkpt lat="46.343720" lon="10.488570">
                <time>2017-07-15T13:56:49Z</time>
            </trkpt>
            <trkpt lat="46.343720" lon="10.488570">
                <time>2017-07-15T13:56:50Z</time>
            </trkpt>
            <trkpt lat="46.343730" lon="10.488570">
                <time>2017-07-15T13:56:51Z</time>
            </trkpt>
            <trkpt lat="46.343740" lon="10.488560">
                <time>2017-07-15T13:56:52Z</time>
            </trkpt>
            <trkpt lat="46.343760" lon="10.488550">
                <time>2017-07-15T13:56:53Z</time>
            </trkpt>
            <trkpt lat="46.343760" lon="10.488530">
                <time>2017-07-15T13:56:54Z</time>
            </trkpt>
            <trkpt lat="46.343760" lon="10.488510">
                <time>2017-07-15T13:56:55Z</time>
            </trkpt>
            <trkpt lat="46.343760" lon="10.488490">
                <time>2017-07-15T13:56:56Z</time>
            </trkpt>
            <trkpt lat="46.343750" lon="10.488460">
                <time>2017-07-15T13:56:57Z</time>
            </trkpt>
            <trkpt lat="46.343750" lon="10.488440">
                <time>2017-07-15T13:56:58Z</time>
            </trkpt>
            <trkpt lat="46.343740" lon="10.488440">
                <time>2017-07-15T13:56:59Z</time>
            </trkpt>
            <trkpt lat="46.343740" lon="10.488440">
                <time>2017-07-15T13:57:00Z</time>
            </trkpt>
            <trkpt lat="46.343740" lon="10.488440">
                <time>2017-07-15T13:57:01Z</time>
            </trkpt>
            <trkpt lat="46.343740" lon="10.488410">
                <time>2017-07-15T13:57:02Z</time>
            </trkpt>
            <trkpt lat="46.343700" lon="10.488310">
                <time>2017-07-15T13:57:03Z</time>
            </trkpt>
            <trkpt lat="46.343670" lon="10.488210">
                <time>2017-07-15T13:57:04Z</time>
            </trkpt>
            <trkpt lat="46.343630" lon="10.488070">
                <time>2017-07-15T13:57:05Z</time>
            </trkpt>
            <trkpt lat="46.343600" lon="10.487940">
                <time>2017-07-15T13:57:06Z</time>
            </trkpt>
            <trkpt lat="46.343570" lon="10.487830">
                <time>2017-07-15T13:57:07Z</time>
            </trkpt>
            <trkpt lat="46.343540" lon="10.487720">
                <time>2017-07-15T13:57:08Z</time>
            </trkpt>
            <trkpt lat="46.343530" lon="10.487640">
                <time>2017-07-15T13:57:09Z</time>
            </trkpt>
            <trkpt lat="46.343510" lon="10.487560">
                <time>2017-07-15T13:57:10Z</time>
            </trkpt>
            <trkpt lat="46.343500" lon="10.487480">
                <time>2017-07-15T13:57:11Z</time>
            </trkpt>
            <trkpt lat="46.343490" lon="10.487420">
                <time>2017-07-15T13:57:12Z</time>
            </trkpt>
            <trkpt lat="46.343490" lon="10.487360">
                <time>2017-07-15T13:57:13Z</time>
            </trkpt>
            <trkpt lat="46.343490" lon="10.487310">
                <time>2017-07-15T13:57:14Z</time>
            </trkpt>
            <trkpt lat="46.343500" lon="10.487260">
                <time>2017-07-15T13:57:15Z</time>
            </trkpt>
            <trkpt lat="46.343490" lon="10.487220">
                <time>2017-07-15T13:57:16Z</time>
            </trkpt>
            <trkpt lat="46.343470" lon="10.487210">
                <time>2017-07-15T13:57:17Z</time>
            </trkpt>
            <trkpt lat="46.343460" lon="10.487200">
                <time>2017-07-15T13:57:18Z</time>
            </trkpt>
            <trkpt lat="46.343450" lon="10.487200">
                <time>2017-07-15T13:57:19Z</time>
            </trkpt>
            <trkpt lat="46.343440" lon="10.487220">
                <time>2017-07-15T13:57:20Z</time>
            </trkpt>
            <trkpt lat="46.343430" lon="10.487240">
                <time>2017-07-15T13:57:21Z</time>
            </trkpt>
            <trkpt lat="46.343430" lon="10.487260">
                <time>2017-07-15T13:57:22Z</time>
            </trkpt>
            <trkpt lat="46.343440" lon="10.487270">
                <time>2017-07-15T13:57:23Z</time>
            </trkpt>
            <trkpt lat="46.343440" lon="10.487270">
                <time>2017-07-15T13:57:24Z</time>
            </trkpt>
            <trkpt lat="46.343440" lon="10.487270">
                <time>2017-07-15T13:57:25Z</time>
            </trkpt>
            <trkpt lat="46.343440" lon="10.487270">
                <time>2017-07-15T13:57:26Z</time>
            </trkpt>
            <trkpt lat="46.343440" lon="10.487270">
                <time>2017-07-15T13:57:27Z</time>
            </trkpt>
            <trkpt lat="46.343440" lon="10.487270">
                <time>2017-07-15T13:57:28Z</time>
            </trkpt>
            <trkpt lat="46.343440" lon="10.487270">
                <time>2017-07-15T13:57:29Z</time>
            </trkpt>
            <trkpt lat="46.343440" lon="10.487270">
                <time>2017-07-15T13:57:30Z</time>
            </trkpt>
            <trkpt lat="46.343440" lon="10.487270">
                <time>2017-07-15T13:57:31Z</time>
            </trkpt>
            <trkpt lat="46.343440" lon="10.487270">
                <time>2017-07-15T13:57:32Z</time>
            </trkpt>
            <trkpt lat="46.343440" lon="10.487270">
                <time>2017-07-15T13:57:33Z</time>
            </trkpt>
            <trkpt lat="46.343440" lon="10.487270">
                <time>2017-07-15T13:57:34Z</time>
            </trkpt>
            <trkpt lat="46.343440" lon="10.487270">
                <time>2017-07-15T13:57:35Z</time>
            </trkpt>
            <trkpt lat="46.343440" lon="10.487270">
                <time>2017-07-15T13:57:36Z</time>
            </trkpt>
            <trkpt lat="46.343440" lon="10.487270">
                <time>2017-07-15T13:57:37Z</time>
            </trkpt>
            <trkpt lat="46.343440" lon="10.487270">
                <time>2017-07-15T13:57:38Z</time>
            </trkpt>
            <trkpt lat="46.343440" lon="10.487270">
                <time>2017-07-15T13:57:39Z</time>
            </trkpt>
            <trkpt lat="46.343440" lon="10.487270">
                <time>2017-07-15T13:57:40Z</time>
            </trkpt>
            <trkpt lat="46.343440" lon="10.487270">
                <time>2017-07-15T13:57:41Z</time>
            </trkpt>
            <trkpt lat="46.343440" lon="10.487270">
                <time>2017-07-15T13:57:42Z</time>
            </trkpt>
            <trkpt lat="46.343440" lon="10.487270">
                <time>2017-07-15T13:57:43Z</time>
            </trkpt>
            <trkpt lat="46.343440" lon="10.487270">
                <time>2017-07-15T13:57:44Z</time>
            </trkpt>
            <trkpt lat="46.343440" lon="10.487270">
                <time>2017-07-15T13:57:45Z</time>
            </trkpt>
            <trkpt lat="46.343440" lon="10.487270">
                <time>2017-07-15T13:57:46Z</time>
            </trkpt>
            <trkpt lat="46.343440" lon="10.487270">
                <time>2017-07-15T13:57:47Z</time>
            </trkpt>
            <trkpt lat="46.343440" lon="10.487270">
                <time>2017-07-15T13:57:48Z</time>
            </trkpt>
            <trkpt lat="46.343440" lon="10.487270">
                <time>2017-07-15T13:57:49Z</time>
            </trkpt>
            <trkpt lat="46.343450" lon="10.487280">
                <time>2017-07-15T13:57:50Z</time>
            </trkpt>
            <trkpt lat="46.343450" lon="10.487310">
                <time>2017-07-15T13:57:51Z</time>
            </trkpt>
            <trkpt lat="46.343450" lon="10.487340">
                <time>2017-07-15T13:57:52Z</time>
            </trkpt>
            <trkpt lat="46.343460" lon="10.487390">
                <time>2017-07-15T13:57:53Z</time>
            </trkpt>
            <trkpt lat="46.343460" lon="10.487450">
                <time>2017-07-15T13:57:54Z</time>
            </trkpt>
            <trkpt lat="46.343470" lon="10.487530">
                <time>2017-07-15T13:57:55Z</time>
            </trkpt>
            <trkpt lat="46.343490" lon="10.487630">
                <time>2017-07-15T13:57:56Z</time>
            </trkpt>
            <trkpt lat="46.343510" lon="10.487710">
                <time>2017-07-15T13:57:57Z</time>
            </trkpt>
            <trkpt lat="46.343540" lon="10.487810">
                <time>2017-07-15T13:57:58Z</time>
            </trkpt>
            <trkpt lat="46.343570" lon="10.487940">
                <time>2017-07-15T13:57:59Z</time>
            </trkpt>
            <trkpt lat="46.343600" lon="10.488060">
                <time>2017-07-15T13:58:00Z</time>
            </trkpt>
            <trkpt lat="46.343630" lon="10.488190">
                <time>2017-07-15T13:58:01Z</time>
            </trkpt>
            <trkpt lat="46.343670" lon="10.488340">
                <time>2017-07-15T13:58:02Z</time>
            </trkpt>
            <trkpt lat="46.343720" lon="10.488470">
                <time>2017-07-15T13:58:03Z</time>
            </trkpt>
            <trkpt lat="46.343770" lon="10.488630">
                <time>2017-07-15T13:58:04Z</time>
            </trkpt>
            <trkpt lat="46.343820" lon="10.488770">
                <time>2017-07-15T13:58:05Z</time>
            </trkpt>
            <trkpt lat="46.343890" lon="10.488920">
                <time>2017-07-15T13:58:06Z</time>
            </trkpt>
            <trkpt lat="46.343960" lon="10.489090">
                <time>2017-07-15T13:58:07Z</time>
            </trkpt>
            <trkpt lat="46.344020" lon="10.489220">
                <time>2017-07-15T13:58:08Z</time>
            </trkpt>
            <trkpt lat="46.344080" lon="10.489370">
                <time>2017-07-15T13:58:09Z</time>
            </trkpt>
            <trkpt lat="46.344110" lon="10.489540">
                <time>2017-07-15T13:58:10Z</time>
            </trkpt>
            <trkpt lat="46.344130" lon="10.489730">
                <time>2017-07-15T13:58:11Z</time>
            </trkpt>
            <trkpt lat="46.344160" lon="10.489940">
                <time>2017-07-15T13:58:12Z</time>
            </trkpt>
            <trkpt lat="46.344180" lon="10.490140">
                <time>2017-07-15T13:58:13Z</time>
            </trkpt>
            <trkpt lat="46.344220" lon="10.490340">
                <time>2017-07-15T13:58:14Z</time>
            </trkpt>
            <trkpt lat="46.344260" lon="10.490560">
                <time>2017-07-15T13:58:15Z</time>
            </trkpt>
            <trkpt lat="46.344320" lon="10.490770">
                <time>2017-07-15T13:58:16Z</time>
            </trkpt>
            <trkpt lat="46.344370" lon="10.490960">
                <time>2017-07-15T13:58:17Z</time>
            </trkpt>
            <trkpt lat="46.344440" lon="10.491150">
                <time>2017-07-15T13:58:18Z</time>
            </trkpt>
            <trkpt lat="46.344500" lon="10.491290">
                <time>2017-07-15T13:58:19Z</time>
            </trkpt>
            <trkpt lat="46.344590" lon="10.491430">
                <time>2017-07-15T13:58:20Z</time>
            </trkpt>
            <trkpt lat="46.344690" lon="10.491530">
                <time>2017-07-15T13:58:21Z</time>
            </trkpt>
            <trkpt lat="46.344810" lon="10.491620">
                <time>2017-07-15T13:58:22Z</time>
            </trkpt>
            <trkpt lat="46.344950" lon="10.491710">
                <time>2017-07-15T13:58:23Z</time>
            </trkpt>
            <trkpt lat="46.345090" lon="10.491790">
                <time>2017-07-15T13:58:24Z</time>
            </trkpt>
            <trkpt lat="46.345230" lon="10.491880">
                <time>2017-07-15T13:58:25Z</time>
            </trkpt>
            <trkpt lat="46.345360" lon="10.491960">
                <time>2017-07-15T13:58:26Z</time>
            </trkpt>
            <trkpt lat="46.345480" lon="10.492040">
                <time>2017-07-15T13:58:27Z</time>
            </trkpt>
            <trkpt lat="46.345590" lon="10.492150">
                <time>2017-07-15T13:58:28Z</time>
            </trkpt>
            <trkpt lat="46.345670" lon="10.492280">
                <time>2017-07-15T13:58:29Z</time>
            </trkpt>
            <trkpt lat="46.345750" lon="10.492430">
                <time>2017-07-15T13:58:30Z</time>
            </trkpt>
            <trkpt lat="46.345840" lon="10.492620">
                <time>2017-07-15T13:58:31Z</time>
            </trkpt>
            <trkpt lat="46.345910" lon="10.492780">
                <time>2017-07-15T13:58:32Z</time>
            </trkpt>
            <trkpt lat="46.345980" lon="10.492960">
                <time>2017-07-15T13:58:33Z</time>
            </trkpt>
            <trkpt lat="46.346040" lon="10.493180">
                <time>2017-07-15T13:58:34Z</time>
            </trkpt>
            <trkpt lat="46.346080" lon="10.493380">
                <time>2017-07-15T13:58:35Z</time>
            </trkpt>
            <trkpt lat="46.346110" lon="10.493580">
                <time>2017-07-15T13:58:36Z</time>
            </trkpt>
            <trkpt lat="46.346140" lon="10.493740">
                <time>2017-07-15T13:58:37Z</time>
            </trkpt>
            <trkpt lat="46.346180" lon="10.493900">
                <time>2017-07-15T13:58:38Z</time>
            </trkpt>
            <trkpt lat="46.346230" lon="10.494050">
                <time>2017-07-15T13:58:39Z</time>
            </trkpt>
            <trkpt lat="46.346290" lon="10.494140">
                <time>2017-07-15T13:58:40Z</time>
            </trkpt>
            <trkpt lat="46.346380" lon="10.494190">
                <time>2017-07-15T13:58:41Z</time>
            </trkpt>
            <trkpt lat="46.346490" lon="10.494200">
                <time>2017-07-15T13:58:42Z</time>
            </trkpt>
            <trkpt lat="46.346600" lon="10.494170">
                <time>2017-07-15T13:58:43Z</time>
            </trkpt>
            <trkpt lat="46.346740" lon="10.494120">
                <time>2017-07-15T13:58:44Z</time>
            </trkpt>
            <trkpt lat="46.346850" lon="10.494050">
                <time>2017-07-15T13:58:45Z</time>
            </trkpt>
            <trkpt lat="46.346960" lon="10.493960">
                <time>2017-07-15T13:58:46Z</time>
            </trkpt>
            <trkpt lat="46.347080" lon="10.493830">
                <time>2017-07-15T13:58:47Z</time>
            </trkpt>
            <trkpt lat="46.347190" lon="10.493730">
                <time>2017-07-15T13:58:48Z</time>
            </trkpt>
            <trkpt lat="46.347320" lon="10.493640">
                <time>2017-07-15T13:58:49Z</time>
            </trkpt>
            <trkpt lat="46.347480" lon="10.493580">
                <time>2017-07-15T13:58:50Z</time>
            </trkpt>
            <trkpt lat="46.347620" lon="10.493550">
                <time>2017-07-15T13:58:51Z</time>
            </trkpt>
            <trkpt lat="46.347780" lon="10.493550">
                <time>2017-07-15T13:58:52Z</time>
            </trkpt>
            <trkpt lat="46.347930" lon="10.493540">
                <time>2017-07-15T13:58:53Z</time>
            </trkpt>
            <trkpt lat="46.348080" lon="10.493530">
                <time>2017-07-15T13:58:54Z</time>
            </trkpt>
            <trkpt lat="46.348230" lon="10.493490">
                <time>2017-07-15T13:58:55Z</time>
            </trkpt>
            <trkpt lat="46.348370" lon="10.493470">
                <time>2017-07-15T13:58:56Z</time>
            </trkpt>
            <trkpt lat="46.348510" lon="10.493480">
                <time>2017-07-15T13:58:57Z</time>
            </trkpt>
            <trkpt lat="46.348660" lon="10.493510">
                <time>2017-07-15T13:58:58Z</time>
            </trkpt>
            <trkpt lat="46.348810" lon="10.493560">
                <time>2017-07-15T13:58:59Z</time>
            </trkpt>
            <trkpt lat="46.348960" lon="10.493620">
                <time>2017-07-15T13:59:00Z</time>
            </trkpt>
            <trkpt lat="46.349100" lon="10.493680">
                <time>2017-07-15T13:59:01Z</time>
            </trkpt>
            <trkpt lat="46.349240" lon="10.493770">
                <time>2017-07-15T13:59:02Z</time>
            </trkpt>
            <trkpt lat="46.349380" lon="10.493870">
                <time>2017-07-15T13:59:03Z</time>
            </trkpt>
            <trkpt lat="46.349480" lon="10.493970">
                <time>2017-07-15T13:59:04Z</time>
            </trkpt>
            <trkpt lat="46.349570" lon="10.494050">
                <time>2017-07-15T13:59:05Z</time>
            </trkpt>
            <trkpt lat="46.349660" lon="10.494090">
                <time>2017-07-15T13:59:06Z</time>
            </trkpt>
            <trkpt lat="46.349760" lon="10.494100">
                <time>2017-07-15T13:59:07Z</time>
            </trkpt>
            <trkpt lat="46.349890" lon="10.494090">
                <time>2017-07-15T13:59:08Z</time>
            </trkpt>
            <trkpt lat="46.350000" lon="10.494070">
                <time>2017-07-15T13:59:09Z</time>
            </trkpt>
            <trkpt lat="46.350120" lon="10.494060">
                <time>2017-07-15T13:59:10Z</time>
            </trkpt>
            <trkpt lat="46.350260" lon="10.494110">
                <time>2017-07-15T13:59:11Z</time>
            </trkpt>
            <trkpt lat="46.350380" lon="10.494170">
                <time>2017-07-15T13:59:12Z</time>
            </trkpt>
            <trkpt lat="46.350530" lon="10.494270">
                <time>2017-07-15T13:59:13Z</time>
            </trkpt>
            <trkpt lat="46.350660" lon="10.494380">
                <time>2017-07-15T13:59:14Z</time>
            </trkpt>
            <trkpt lat="46.350780" lon="10.494500">
                <time>2017-07-15T13:59:15Z</time>
            </trkpt>
            <trkpt lat="46.350900" lon="10.494630">
                <time>2017-07-15T13:59:16Z</time>
            </trkpt>
            <trkpt lat="46.351020" lon="10.494720">
                <time>2017-07-15T13:59:17Z</time>
            </trkpt>
            <trkpt lat="46.351140" lon="10.494790">
                <time>2017-07-15T13:59:18Z</time>
            </trkpt>
            <trkpt lat="46.351270" lon="10.494850">
                <time>2017-07-15T13:59:19Z</time>
            </trkpt>
            <trkpt lat="46.351390" lon="10.494910">
                <time>2017-07-15T13:59:20Z</time>
            </trkpt>
            <trkpt lat="46.351510" lon="10.494960">
                <time>2017-07-15T13:59:21Z</time>
            </trkpt>
            <trkpt lat="46.351620" lon="10.495010">
                <time>2017-07-15T13:59:22Z</time>
            </trkpt>
            <trkpt lat="46.351700" lon="10.495060">
                <time>2017-07-15T13:59:23Z</time>
            </trkpt>
            <trkpt lat="46.351780" lon="10.495150">
                <time>2017-07-15T13:59:24Z</time>
            </trkpt>
            <trkpt lat="46.351840" lon="10.495250">
                <time>2017-07-15T13:59:25Z</time>
            </trkpt>
            <trkpt lat="46.351930" lon="10.495370">
                <time>2017-07-15T13:59:26Z</time>
            </trkpt>
            <trkpt lat="46.352020" lon="10.495500">
                <time>2017-07-15T13:59:27Z</time>
            </trkpt>
            <trkpt lat="46.352110" lon="10.495610">
                <time>2017-07-15T13:59:28Z</time>
            </trkpt>
            <trkpt lat="46.352220" lon="10.495720">
                <time>2017-07-15T13:59:29Z</time>
            </trkpt>
            <trkpt lat="46.352340" lon="10.495810">
                <time>2017-07-15T13:59:30Z</time>
            </trkpt>
            <trkpt lat="46.352470" lon="10.495900">
                <time>2017-07-15T13:59:31Z</time>
            </trkpt>
            <trkpt lat="46.352620" lon="10.495960">
                <time>2017-07-15T13:59:32Z</time>
            </trkpt>
            <trkpt lat="46.352760" lon="10.496020">
                <time>2017-07-15T13:59:33Z</time>
            </trkpt>
            <trkpt lat="46.352890" lon="10.496090">
                <time>2017-07-15T13:59:34Z</time>
            </trkpt>
            <trkpt lat="46.353020" lon="10.496170">
                <time>2017-07-15T13:59:35Z</time>
            </trkpt>
            <trkpt lat="46.353120" lon="10.496270">
                <time>2017-07-15T13:59:36Z</time>
            </trkpt>
            <trkpt lat="46.353230" lon="10.496370">
                <time>2017-07-15T13:59:37Z</time>
            </trkpt>
            <trkpt lat="46.353340" lon="10.496460">
                <time>2017-07-15T13:59:38Z</time>
            </trkpt>
            <trkpt lat="46.353450" lon="10.496490">
                <time>2017-07-15T13:59:39Z</time>
            </trkpt>
            <trkpt lat="46.353580" lon="10.496520">
                <time>2017-07-15T13:59:40Z</time>
            </trkpt>
            <trkpt lat="46.353680" lon="10.496560">
                <time>2017-07-15T13:59:41Z</time>
            </trkpt>
            <trkpt lat="46.353790" lon="10.496620">
                <time>2017-07-15T13:59:42Z</time>
            </trkpt>
            <trkpt lat="46.353920" lon="10.496710">
                <time>2017-07-15T13:59:43Z</time>
            </trkpt>
            <trkpt lat="46.354030" lon="10.496820">
                <time>2017-07-15T13:59:44Z</time>
            </trkpt>
            <trkpt lat="46.354150" lon="10.496950">
                <time>2017-07-15T13:59:45Z</time>
            </trkpt>
            <trkpt lat="46.354260" lon="10.497090">
                <time>2017-07-15T13:59:46Z</time>
            </trkpt>
            <trkpt lat="46.354370" lon="10.497220">
                <time>2017-07-15T13:59:47Z</time>
            </trkpt>
            <trkpt lat="46.354490" lon="10.497370">
                <time>2017-07-15T13:59:48Z</time>
            </trkpt>
            <trkpt lat="46.354580" lon="10.497480">
                <time>2017-07-15T13:59:49Z</time>
            </trkpt>
            <trkpt lat="46.354690" lon="10.497590">
                <time>2017-07-15T13:59:50Z</time>
            </trkpt>
            <trkpt lat="46.354820" lon="10.497660">
                <time>2017-07-15T13:59:51Z</time>
            </trkpt>
            <trkpt lat="46.354940" lon="10.497710">
                <time>2017-07-15T13:59:52Z</time>
            </trkpt>
            <trkpt lat="46.355080" lon="10.497750">
                <time>2017-07-15T13:59:53Z</time>
            </trkpt>
            <trkpt lat="46.355220" lon="10.497780">
                <time>2017-07-15T13:59:54Z</time>
            </trkpt>
            <trkpt lat="46.355340" lon="10.497820">
                <time>2017-07-15T13:59:55Z</time>
            </trkpt>
            <trkpt lat="46.355480" lon="10.497860">
                <time>2017-07-15T13:59:56Z</time>
            </trkpt>
            <trkpt lat="46.355590" lon="10.497910">
                <time>2017-07-15T13:59:57Z</time>
            </trkpt>
            <trkpt lat="46.355710" lon="10.497990">
                <time>2017-07-15T13:59:58Z</time>
            </trkpt>
            <trkpt lat="46.355820" lon="10.498070">
                <time>2017-07-15T13:59:59Z</time>
            </trkpt>
            <trkpt lat="46.355910" lon="10.498150">
                <time>2017-07-15T14:00:00Z</time>
            </trkpt>
            <trkpt lat="46.356010" lon="10.498220">
                <time>2017-07-15T14:00:01Z</time>
            </trkpt>
            <trkpt lat="46.356120" lon="10.498270">
                <time>2017-07-15T14:00:02Z</time>
            </trkpt>
            <trkpt lat="46.356240" lon="10.498290">
                <time>2017-07-15T14:00:03Z</time>
            </trkpt>
            <trkpt lat="46.356360" lon="10.498320">
                <time>2017-07-15T14:00:04Z</time>
            </trkpt>
            <trkpt lat="46.356480" lon="10.498350">
                <time>2017-07-15T14:00:05Z</time>
            </trkpt>
            <trkpt lat="46.356610" lon="10.498400">
                <time>2017-07-15T14:00:06Z</time>
            </trkpt>
            <trkpt lat="46.356740" lon="10.498480">
                <time>2017-07-15T14:00:07Z</time>
            </trkpt>
            <trkpt lat="46.356850" lon="10.498560">
                <time>2017-07-15T14:00:08Z</time>
            </trkpt>
            <trkpt lat="46.356970" lon="10.498660">
                <time>2017-07-15T14:00:09Z</time>
            </trkpt>
            <trkpt lat="46.357100" lon="10.498750">
                <time>2017-07-15T14:00:10Z</time>
            </trkpt>
            <trkpt lat="46.357210" lon="10.498810">
                <time>2017-07-15T14:00:11Z</time>
            </trkpt>
            <trkpt lat="46.357340" lon="10.498880">
                <time>2017-07-15T14:00:12Z</time>
            </trkpt>
            <trkpt lat="46.357460" lon="10.498930">
                <time>2017-07-15T14:00:13Z</time>
            </trkpt>
            <trkpt lat="46.357600" lon="10.498960">
                <time>2017-07-15T14:00:14Z</time>
            </trkpt>
            <trkpt lat="46.357740" lon="10.498990">
                <time>2017-07-15T14:00:15Z</time>
            </trkpt>
            <trkpt lat="46.357870" lon="10.499020">
                <time>2017-07-15T14:00:16Z</time>
            </trkpt>
            <trkpt lat="46.357990" lon="10.499060">
                <time>2017-07-15T14:00:17Z</time>
            </trkpt>
            <trkpt lat="46.358110" lon="10.499110">
                <time>2017-07-15T14:00:18Z</time>
            </trkpt>
            <trkpt lat="46.358220" lon="10.499190">
                <time>2017-07-15T14:00:19Z</time>
            </trkpt>
            <trkpt lat="46.358330" lon="10.499310">
                <time>2017-07-15T14:00:20Z</time>
            </trkpt>
            <trkpt lat="46.358420" lon="10.499410">
                <time>2017-07-15T14:00:21Z</time>
            </trkpt>
            <trkpt lat="46.358540" lon="10.499500">
                <time>2017-07-15T14:00:22Z</time>
            </trkpt>
            <trkpt lat="46.358660" lon="10.499570">
                <time>2017-07-15T14:00:23Z</time>
            </trkpt>
            <trkpt lat="46.358760" lon="10.499640">
                <time>2017-07-15T14:00:24Z</time>
            </trkpt>
            <trkpt lat="46.358870" lon="10.499730">
                <time>2017-07-15T14:00:25Z</time>
            </trkpt>
            <trkpt lat="46.358970" lon="10.499860">
                <time>2017-07-15T14:00:26Z</time>
            </trkpt>
            <trkpt lat="46.359060" lon="10.499970">
                <time>2017-07-15T14:00:27Z</time>
            </trkpt>
            <trkpt lat="46.359140" lon="10.500110">
                <time>2017-07-15T14:00:28Z</time>
            </trkpt>
            <trkpt lat="46.359200" lon="10.500180">
                <time>2017-07-15T14:00:29Z</time>
            </trkpt>
            <trkpt lat="46.359260" lon="10.500250">
                <time>2017-07-15T14:00:30Z</time>
            </trkpt>
            <trkpt lat="46.359330" lon="10.500290">
                <time>2017-07-15T14:00:31Z</time>
            </trkpt>
            <trkpt lat="46.359400" lon="10.500300">
                <time>2017-07-15T14:00:32Z</time>
            </trkpt>
            <trkpt lat="46.359490" lon="10.500310">
                <time>2017-07-15T14:00:33Z</time>
            </trkpt>
            <trkpt lat="46.359580" lon="10.500340">
                <time>2017-07-15T14:00:34Z</time>
            </trkpt>
            <trkpt lat="46.359670" lon="10.500390">
                <time>2017-07-15T14:00:35Z</time>
            </trkpt>
            <trkpt lat="46.359780" lon="10.500450">
                <time>2017-07-15T14:00:36Z</time>
            </trkpt>
            <trkpt lat="46.359880" lon="10.500470">
                <time>2017-07-15T14:00:37Z</time>
            </trkpt>
            <trkpt lat="46.359980" lon="10.500480">
                <time>2017-07-15T14:00:38Z</time>
            </trkpt>
            <trkpt lat="46.360070" lon="10.500490">
                <time>2017-07-15T14:00:39Z</time>
            </trkpt>
            <trkpt lat="46.360150" lon="10.500480">
                <time>2017-07-15T14:00:40Z</time>
            </trkpt>
            <trkpt lat="46.360210" lon="10.500470">
                <time>2017-07-15T14:00:41Z</time>
            </trkpt>
            <trkpt lat="46.360270" lon="10.500450">
                <time>2017-07-15T14:00:42Z</time>
            </trkpt>
            <trkpt lat="46.360340" lon="10.500450">
                <time>2017-07-15T14:00:43Z</time>
            </trkpt>
            <trkpt lat="46.360420" lon="10.500440">
                <time>2017-07-15T14:00:44Z</time>
            </trkpt>
            <trkpt lat="46.360500" lon="10.500420">
                <time>2017-07-15T14:00:45Z</time>
            </trkpt>
            <trkpt lat="46.360600" lon="10.500390">
                <time>2017-07-15T14:00:46Z</time>
            </trkpt>
            <trkpt lat="46.360710" lon="10.500370">
                <time>2017-07-15T14:00:47Z</time>
            </trkpt>
            <trkpt lat="46.360810" lon="10.500360">
                <time>2017-07-15T14:00:48Z</time>
            </trkpt>
            <trkpt lat="46.360930" lon="10.500370">
                <time>2017-07-15T14:00:49Z</time>
            </trkpt>
            <trkpt lat="46.361030" lon="10.500400">
                <time>2017-07-15T14:00:50Z</time>
            </trkpt>
            <trkpt lat="46.361140" lon="10.500460">
                <time>2017-07-15T14:00:51Z</time>
            </trkpt>
            <trkpt lat="46.361260" lon="10.500540">
                <time>2017-07-15T14:00:52Z</time>
            </trkpt>
            <trkpt lat="46.361390" lon="10.500610">
                <time>2017-07-15T14:00:53Z</time>
            </trkpt>
            <trkpt lat="46.361530" lon="10.500680">
                <time>2017-07-15T14:00:54Z</time>
            </trkpt>
            <trkpt lat="46.361680" lon="10.500750">
                <time>2017-07-15T14:00:55Z</time>
            </trkpt>
            <trkpt lat="46.361810" lon="10.500790">
                <time>2017-07-15T14:00:56Z</time>
            </trkpt>
            <trkpt lat="46.361960" lon="10.500830">
                <time>2017-07-15T14:00:57Z</time>
            </trkpt>
            <trkpt lat="46.362130" lon="10.500860">
                <time>2017-07-15T14:00:58Z</time>
            </trkpt>
            <trkpt lat="46.362290" lon="10.500860">
                <time>2017-07-15T14:00:59Z</time>
            </trkpt>
            <trkpt lat="46.362460" lon="10.500870">
                <time>2017-07-15T14:01:00Z</time>
            </trkpt>
            <trkpt lat="46.362610" lon="10.500910">
                <time>2017-07-15T14:01:01Z</time>
            </trkpt>
            <trkpt lat="46.362760" lon="10.500960">
                <time>2017-07-15T14:01:02Z</time>
            </trkpt>
            <trkpt lat="46.362910" lon="10.501040">
                <time>2017-07-15T14:01:03Z</time>
            </trkpt>
            <trkpt lat="46.363050" lon="10.501120">
                <time>2017-07-15T14:01:04Z</time>
            </trkpt>
            <trkpt lat="46.363190" lon="10.501210">
                <time>2017-07-15T14:01:05Z</time>
            </trkpt>
            <trkpt lat="46.363330" lon="10.501310">
                <time>2017-07-15T14:01:06Z</time>
            </trkpt>
            <trkpt lat="46.363460" lon="10.501400">
                <time>2017-07-15T14:01:07Z</time>
            </trkpt>
            <trkpt lat="46.363590" lon="10.501470">
                <time>2017-07-15T14:01:08Z</time>
            </trkpt>
            <trkpt lat="46.363720" lon="10.501490">
                <time>2017-07-15T14:01:09Z</time>
            </trkpt>
            <trkpt lat="46.363860" lon="10.501500">
                <time>2017-07-15T14:01:10Z</time>
            </trkpt>
            <trkpt lat="46.364020" lon="10.501510">
                <time>2017-07-15T14:01:11Z</time>
            </trkpt>
            <trkpt lat="46.364150" lon="10.501560">
                <time>2017-07-15T14:01:12Z</time>
            </trkpt>
            <trkpt lat="46.364300" lon="10.501630">
                <time>2017-07-15T14:01:13Z</time>
            </trkpt>
            <trkpt lat="46.364460" lon="10.501710">
                <time>2017-07-15T14:01:14Z</time>
            </trkpt>
            <trkpt lat="46.364610" lon="10.501790">
                <time>2017-07-15T14:01:15Z</time>
            </trkpt>
            <trkpt lat="46.364760" lon="10.501860">
                <time>2017-07-15T14:01:16Z</time>
            </trkpt>
            <trkpt lat="46.364910" lon="10.501920">
                <time>2017-07-15T14:01:17Z</time>
            </trkpt>
            <trkpt lat="46.365060" lon="10.501970">
                <time>2017-07-15T14:01:18Z</time>
            </trkpt>
            <trkpt lat="46.365230" lon="10.502020">
                <time>2017-07-15T14:01:19Z</time>
            </trkpt>
            <trkpt lat="46.365380" lon="10.502080">
                <time>2017-07-15T14:01:20Z</time>
            </trkpt>
            <trkpt lat="46.365540" lon="10.502140">
                <time>2017-07-15T14:01:21Z</time>
            </trkpt>
            <trkpt lat="46.365700" lon="10.502220">
                <time>2017-07-15T14:01:22Z</time>
            </trkpt>
            <trkpt lat="46.365850" lon="10.502280">
                <time>2017-07-15T14:01:23Z</time>
            </trkpt>
            <trkpt lat="46.365990" lon="10.502330">
                <time>2017-07-15T14:01:24Z</time>
            </trkpt>
            <trkpt lat="46.366120" lon="10.502370">
                <time>2017-07-15T14:01:25Z</time>
            </trkpt>
            <trkpt lat="46.366240" lon="10.502400">
                <time>2017-07-15T14:01:26Z</time>
            </trkpt>
            <trkpt lat="46.366380" lon="10.502400">
                <time>2017-07-15T14:01:27Z</time>
            </trkpt>
            <trkpt lat="46.366510" lon="10.502370">
                <time>2017-07-15T14:01:28Z</time>
            </trkpt>
            <trkpt lat="46.366650" lon="10.502330">
                <time>2017-07-15T14:01:29Z</time>
            </trkpt>
            <trkpt lat="46.366790" lon="10.502260">
                <time>2017-07-15T14:01:30Z</time>
            </trkpt>
            <trkpt lat="46.366900" lon="10.502190">
                <time>2017-07-15T14:01:31Z</time>
            </trkpt>
            <trkpt lat="46.367020" lon="10.502130">
                <time>2017-07-15T14:01:32Z</time>
            </trkpt>
            <trkpt lat="46.367100" lon="10.502100">
                <time>2017-07-15T14:01:33Z</time>
            </trkpt>
            <trkpt lat="46.367170" lon="10.502080">
                <time>2017-07-15T14:01:34Z</time>
            </trkpt>
            <trkpt lat="46.367250" lon="10.502100">
                <time>2017-07-15T14:01:35Z</time>
            </trkpt>
            <trkpt lat="46.367330" lon="10.502170">
                <time>2017-07-15T14:01:36Z</time>
            </trkpt>
            <trkpt lat="46.367400" lon="10.502260">
                <time>2017-07-15T14:01:37Z</time>
            </trkpt>
            <trkpt lat="46.367480" lon="10.502330">
                <time>2017-07-15T14:01:38Z</time>
            </trkpt>
            <trkpt lat="46.367560" lon="10.502390">
                <time>2017-07-15T14:01:39Z</time>
            </trkpt>
            <trkpt lat="46.367650" lon="10.502390">
                <time>2017-07-15T14:01:40Z</time>
            </trkpt>
            <trkpt lat="46.367730" lon="10.502340">
                <time>2017-07-15T14:01:41Z</time>
            </trkpt>
            <trkpt lat="46.367810" lon="10.502260">
                <time>2017-07-15T14:01:42Z</time>
            </trkpt>
            <trkpt lat="46.367910" lon="10.502150">
                <time>2017-07-15T14:01:43Z</time>
            </trkpt>
            <trkpt lat="46.368000" lon="10.502060">
                <time>2017-07-15T14:01:44Z</time>
            </trkpt>
            <trkpt lat="46.368100" lon="10.502010">
                <time>2017-07-15T14:01:45Z</time>
            </trkpt>
            <trkpt lat="46.368220" lon="10.501980">
                <time>2017-07-15T14:01:46Z</time>
            </trkpt>
            <trkpt lat="46.368330" lon="10.501980">
                <time>2017-07-15T14:01:47Z</time>
            </trkpt>
            <trkpt lat="46.368480" lon="10.501970">
                <time>2017-07-15T14:01:48Z</time>
            </trkpt>
            <trkpt lat="46.368610" lon="10.501980">
                <time>2017-07-15T14:01:49Z</time>
            </trkpt>
            <trkpt lat="46.368740" lon="10.501990">
                <time>2017-07-15T14:01:50Z</time>
            </trkpt>
            <trkpt lat="46.368900" lon="10.502010">
                <time>2017-07-15T14:01:51Z</time>
            </trkpt>
            <trkpt lat="46.369020" lon="10.502030">
                <time>2017-07-15T14:01:52Z</time>
            </trkpt>
            <trkpt lat="46.369160" lon="10.502060">
                <time>2017-07-15T14:01:53Z</time>
            </trkpt>
            <trkpt lat="46.369290" lon="10.502080">
                <time>2017-07-15T14:01:54Z</time>
            </trkpt>
            <trkpt lat="46.369420" lon="10.502100">
                <time>2017-07-15T14:01:55Z</time>
            </trkpt>
            <trkpt lat="46.369550" lon="10.502100">
                <time>2017-07-15T14:01:56Z</time>
            </trkpt>
            <trkpt lat="46.369670" lon="10.502090">
                <time>2017-07-15T14:01:57Z</time>
            </trkpt>
            <trkpt lat="46.369800" lon="10.502070">
                <time>2017-07-15T14:01:58Z</time>
            </trkpt>
            <trkpt lat="46.369930" lon="10.502070">
                <time>2017-07-15T14:01:59Z</time>
            </trkpt>
            <trkpt lat="46.370050" lon="10.502080">
                <time>2017-07-15T14:02:00Z</time>
            </trkpt>
            <trkpt lat="46.370170" lon="10.502100">
                <time>2017-07-15T14:02:01Z</time>
            </trkpt>
            <trkpt lat="46.370310" lon="10.502120">
                <time>2017-07-15T14:02:02Z</time>
            </trkpt>
            <trkpt lat="46.370430" lon="10.502130">
                <time>2017-07-15T14:02:03Z</time>
            </trkpt>
            <trkpt lat="46.370570" lon="10.502120">
                <time>2017-07-15T14:02:04Z</time>
            </trkpt>
            <trkpt lat="46.370690" lon="10.502130">
                <time>2017-07-15T14:02:05Z</time>
            </trkpt>
            <trkpt lat="46.370800" lon="10.502170">
                <time>2017-07-15T14:02:06Z</time>
            </trkpt>
            <trkpt lat="46.370930" lon="10.502230">
                <time>2017-07-15T14:02:07Z</time>
            </trkpt>
            <trkpt lat="46.371030" lon="10.502270">
                <time>2017-07-15T14:02:08Z</time>
            </trkpt>
            <trkpt lat="46.371130" lon="10.502300">
                <time>2017-07-15T14:02:09Z</time>
            </trkpt>
            <trkpt lat="46.371220" lon="10.502290">
                <time>2017-07-15T14:02:10Z</time>
            </trkpt>
            <trkpt lat="46.371320" lon="10.502280">
                <time>2017-07-15T14:02:11Z</time>
            </trkpt>
            <trkpt lat="46.371430" lon="10.502270">
                <time>2017-07-15T14:02:12Z</time>
            </trkpt>
            <trkpt lat="46.371530" lon="10.502290">
                <time>2017-07-15T14:02:13Z</time>
            </trkpt>
            <trkpt lat="46.371650" lon="10.502320">
                <time>2017-07-15T14:02:14Z</time>
            </trkpt>
            <trkpt lat="46.371770" lon="10.502350">
                <time>2017-07-15T14:02:15Z</time>
            </trkpt>
            <trkpt lat="46.371890" lon="10.502370">
                <time>2017-07-15T14:02:16Z</time>
            </trkpt>
            <trkpt lat="46.372020" lon="10.502370">
                <time>2017-07-15T14:02:17Z</time>
            </trkpt>
            <trkpt lat="46.372160" lon="10.502360">
                <time>2017-07-15T14:02:18Z</time>
            </trkpt>
            <trkpt lat="46.372280" lon="10.502340">
                <time>2017-07-15T14:02:19Z</time>
            </trkpt>
            <trkpt lat="46.372400" lon="10.502300">
                <time>2017-07-15T14:02:20Z</time>
            </trkpt>
            <trkpt lat="46.372500" lon="10.502270">
                <time>2017-07-15T14:02:21Z</time>
            </trkpt>
            <trkpt lat="46.372600" lon="10.502260">
                <time>2017-07-15T14:02:22Z</time>
            </trkpt>
            <trkpt lat="46.372710" lon="10.502270">
                <time>2017-07-15T14:02:23Z</time>
            </trkpt>
            <trkpt lat="46.372810" lon="10.502290">
                <time>2017-07-15T14:02:24Z</time>
            </trkpt>
            <trkpt lat="46.372940" lon="10.502310">
                <time>2017-07-15T14:02:25Z</time>
            </trkpt>
            <trkpt lat="46.373070" lon="10.502310">
                <time>2017-07-15T14:02:26Z</time>
            </trkpt>
            <trkpt lat="46.373190" lon="10.502290">
                <time>2017-07-15T14:02:27Z</time>
            </trkpt>
            <trkpt lat="46.373320" lon="10.502280">
                <time>2017-07-15T14:02:28Z</time>
            </trkpt>
            <trkpt lat="46.373420" lon="10.502270">
                <time>2017-07-15T14:02:29Z</time>
            </trkpt>
            <trkpt lat="46.373520" lon="10.502270">
                <time>2017-07-15T14:02:30Z</time>
            </trkpt>
            <trkpt lat="46.373610" lon="10.502310">
                <time>2017-07-15T14:02:31Z</time>
            </trkpt>
            <trkpt lat="46.373680" lon="10.502360">
                <time>2017-07-15T14:02:32Z</time>
            </trkpt>
            <trkpt lat="46.373760" lon="10.502420">
                <time>2017-07-15T14:02:33Z</time>
            </trkpt>
            <trkpt lat="46.373840" lon="10.502510">
                <time>2017-07-15T14:02:34Z</time>
            </trkpt>
            <trkpt lat="46.373890" lon="10.502620">
                <time>2017-07-15T14:02:35Z</time>
            </trkpt>
            <trkpt lat="46.373950" lon="10.502750">
                <time>2017-07-15T14:02:36Z</time>
            </trkpt>
            <trkpt lat="46.374010" lon="10.502870">
                <time>2017-07-15T14:02:37Z</time>
            </trkpt>
            <trkpt lat="46.374080" lon="10.503000">
                <time>2017-07-15T14:02:38Z</time>
            </trkpt>
            <trkpt lat="46.374160" lon="10.503110">
                <time>2017-07-15T14:02:39Z</time>
            </trkpt>
            <trkpt lat="46.374230" lon="10.503200">
                <time>2017-07-15T14:02:40Z</time>
            </trkpt>
            <trkpt lat="46.374300" lon="10.503280">
                <time>2017-07-15T14:02:41Z</time>
            </trkpt>
            <trkpt lat="46.374380" lon="10.503330">
                <time>2017-07-15T14:02:42Z</time>
            </trkpt>
            <trkpt lat="46.374480" lon="10.503370">
                <time>2017-07-15T14:02:43Z</time>
            </trkpt>
            <trkpt lat="46.374590" lon="10.503400">
                <time>2017-07-15T14:02:44Z</time>
            </trkpt>
            <trkpt lat="46.374680" lon="10.503410">
                <time>2017-07-15T14:02:45Z</time>
            </trkpt>
            <trkpt lat="46.374770" lon="10.503410">
                <time>2017-07-15T14:02:46Z</time>
            </trkpt>
            <trkpt lat="46.374860" lon="10.503370">
                <time>2017-07-15T14:02:47Z</time>
            </trkpt>
            <trkpt lat="46.374940" lon="10.503320">
                <time>2017-07-15T14:02:48Z</time>
            </trkpt>
            <trkpt lat="46.375030" lon="10.503300">
                <time>2017-07-15T14:02:49Z</time>
            </trkpt>
            <trkpt lat="46.375130" lon="10.503310">
                <time>2017-07-15T14:02:50Z</time>
            </trkpt>
            <trkpt lat="46.375220" lon="10.503360">
                <time>2017-07-15T14:02:51Z</time>
            </trkpt>
            <trkpt lat="46.375320" lon="10.503420">
                <time>2017-07-15T14:02:52Z</time>
            </trkpt>
            <trkpt lat="46.375430" lon="10.503420">
                <time>2017-07-15T14:02:53Z</time>
            </trkpt>
            <trkpt lat="46.375550" lon="10.503420">
                <time>2017-07-15T14:02:54Z</time>
            </trkpt>
            <trkpt lat="46.375680" lon="10.503430">
                <time>2017-07-15T14:02:55Z</time>
            </trkpt>
            <trkpt lat="46.375790" lon="10.503470">
                <time>2017-07-15T14:02:56Z</time>
            </trkpt>
            <trkpt lat="46.375910" lon="10.503520">
                <time>2017-07-15T14:02:57Z</time>
            </trkpt>
            <trkpt lat="46.376030" lon="10.503560">
                <time>2017-07-15T14:02:58Z</time>
            </trkpt>
            <trkpt lat="46.376140" lon="10.503630">
                <time>2017-07-15T14:02:59Z</time>
            </trkpt>
            <trkpt lat="46.376250" lon="10.503710">
                <time>2017-07-15T14:03:00Z</time>
            </trkpt>
            <trkpt lat="46.376360" lon="10.503780">
                <time>2017-07-15T14:03:01Z</time>
            </trkpt>
            <trkpt lat="46.376470" lon="10.503820">
                <time>2017-07-15T14:03:02Z</time>
            </trkpt>
            <trkpt lat="46.376590" lon="10.503820">
                <time>2017-07-15T14:03:03Z</time>
            </trkpt>
            <trkpt lat="46.376710" lon="10.503800">
                <time>2017-07-15T14:03:04Z</time>
            </trkpt>
            <trkpt lat="46.376830" lon="10.503750">
                <time>2017-07-15T14:03:05Z</time>
            </trkpt>
            <trkpt lat="46.376970" lon="10.503710">
                <time>2017-07-15T14:03:06Z</time>
            </trkpt>
            <trkpt lat="46.377090" lon="10.503700">
                <time>2017-07-15T14:03:07Z</time>
            </trkpt>
            <trkpt lat="46.377210" lon="10.503710">
                <time>2017-07-15T14:03:08Z</time>
            </trkpt>
            <trkpt lat="46.377320" lon="10.503730">
                <time>2017-07-15T14:03:09Z</time>
            </trkpt>
            <trkpt lat="46.377430" lon="10.503740">
                <time>2017-07-15T14:03:10Z</time>
            </trkpt>
            <trkpt lat="46.377520" lon="10.503720">
                <time>2017-07-15T14:03:11Z</time>
            </trkpt>
            <trkpt lat="46.377620" lon="10.503680">
                <time>2017-07-15T14:03:12Z</time>
            </trkpt>
            <trkpt lat="46.377720" lon="10.503620">
                <time>2017-07-15T14:03:13Z</time>
            </trkpt>
            <trkpt lat="46.377850" lon="10.503570">
                <time>2017-07-15T14:03:14Z</time>
            </trkpt>
            <trkpt lat="46.377970" lon="10.503540">
                <time>2017-07-15T14:03:15Z</time>
            </trkpt>
            <trkpt lat="46.378100" lon="10.503520">
                <time>2017-07-15T14:03:16Z</time>
            </trkpt>
            <trkpt lat="46.378220" lon="10.503490">
                <time>2017-07-15T14:03:17Z</time>
            </trkpt>
            <trkpt lat="46.378340" lon="10.503470">
                <time>2017-07-15T14:03:18Z</time>
            </trkpt>
            <trkpt lat="46.378460" lon="10.503460">
                <time>2017-07-15T14:03:19Z</time>
            </trkpt>
            <trkpt lat="46.378560" lon="10.503470">
                <time>2017-07-15T14:03:20Z</time>
            </trkpt>
            <trkpt lat="46.378660" lon="10.503530">
                <time>2017-07-15T14:03:21Z</time>
            </trkpt>
            <trkpt lat="46.378750" lon="10.503640">
                <time>2017-07-15T14:03:22Z</time>
            </trkpt>
            <trkpt lat="46.378830" lon="10.503710">
                <time>2017-07-15T14:03:23Z</time>
            </trkpt>
            <trkpt lat="46.378920" lon="10.503770">
                <time>2017-07-15T14:03:24Z</time>
            </trkpt>
            <trkpt lat="46.379000" lon="10.503780">
                <time>2017-07-15T14:03:25Z</time>
            </trkpt>
            <trkpt lat="46.379100" lon="10.503760">
                <time>2017-07-15T14:03:26Z</time>
            </trkpt>
            <trkpt lat="46.379220" lon="10.503710">
                <time>2017-07-15T14:03:27Z</time>
            </trkpt>
            <trkpt lat="46.379340" lon="10.503670">
                <time>2017-07-15T14:03:28Z</time>
            </trkpt>
            <trkpt lat="46.379470" lon="10.503660">
                <time>2017-07-15T14:03:29Z</time>
            </trkpt>
            <trkpt lat="46.379600" lon="10.503660">
                <time>2017-07-15T14:03:30Z</time>
            </trkpt>
            <trkpt lat="46.379740" lon="10.503660">
                <time>2017-07-15T14:03:31Z</time>
            </trkpt>
            <trkpt lat="46.379880" lon="10.503670">
                <time>2017-07-15T14:03:32Z</time>
            </trkpt>
            <trkpt lat="46.380000" lon="10.503680">
                <time>2017-07-15T14:03:33Z</time>
            </trkpt>
            <trkpt lat="46.380110" lon="10.503710">
                <time>2017-07-15T14:03:34Z</time>
            </trkpt>
            <trkpt lat="46.380240" lon="10.503770">
                <time>2017-07-15T14:03:35Z</time>
            </trkpt>
            <trkpt lat="46.380350" lon="10.503830">
                <time>2017-07-15T14:03:36Z</time>
            </trkpt>
            <trkpt lat="46.380470" lon="10.503890">
                <time>2017-07-15T14:03:37Z</time>
            </trkpt>
            <trkpt lat="46.380600" lon="10.503950">
                <time>2017-07-15T14:03:38Z</time>
            </trkpt>
            <trkpt lat="46.380710" lon="10.504000">
                <time>2017-07-15T14:03:39Z</time>
            </trkpt>
            <trkpt lat="46.380840" lon="10.504040">
                <time>2017-07-15T14:03:40Z</time>
            </trkpt>
            <trkpt lat="46.380930" lon="10.504050">
                <time>2017-07-15T14:03:41Z</time>
            </trkpt>
            <trkpt lat="46.381020" lon="10.504050">
                <time>2017-07-15T14:03:42Z</time>
            </trkpt>
            <trkpt lat="46.381110" lon="10.503990">
                <time>2017-07-15T14:03:43Z</time>
            </trkpt>
            <trkpt lat="46.381180" lon="10.503910">
                <time>2017-07-15T14:03:44Z</time>
            </trkpt>
            <trkpt lat="46.381260" lon="10.503820">
                <time>2017-07-15T14:03:45Z</time>
            </trkpt>
            <trkpt lat="46.381350" lon="10.503730">
                <time>2017-07-15T14:03:46Z</time>
            </trkpt>
            <trkpt lat="46.381450" lon="10.503650">
                <time>2017-07-15T14:03:47Z</time>
            </trkpt>
            <trkpt lat="46.381580" lon="10.503600">
                <time>2017-07-15T14:03:48Z</time>
            </trkpt>
            <trkpt lat="46.381690" lon="10.503570">
                <time>2017-07-15T14:03:49Z</time>
            </trkpt>
            <trkpt lat="46.381820" lon="10.503540">
                <time>2017-07-15T14:03:50Z</time>
            </trkpt>
            <trkpt lat="46.381960" lon="10.503510">
                <time>2017-07-15T14:03:51Z</time>
            </trkpt>
            <trkpt lat="46.382080" lon="10.503500">
                <time>2017-07-15T14:03:52Z</time>
            </trkpt>
            <trkpt lat="46.382210" lon="10.503510">
                <time>2017-07-15T14:03:53Z</time>
            </trkpt>
            <trkpt lat="46.382340" lon="10.503530">
                <time>2017-07-15T14:03:54Z</time>
            </trkpt>
            <trkpt lat="46.382450" lon="10.503540">
                <time>2017-07-15T14:03:55Z</time>
            </trkpt>
            <trkpt lat="46.382590" lon="10.503530">
                <time>2017-07-15T14:03:56Z</time>
            </trkpt>
            <trkpt lat="46.382720" lon="10.503490">
                <time>2017-07-15T14:03:57Z</time>
            </trkpt>
            <trkpt lat="46.382850" lon="10.503460">
                <time>2017-07-15T14:03:58Z</time>
            </trkpt>
            <trkpt lat="46.382990" lon="10.503420">
                <time>2017-07-15T14:03:59Z</time>
            </trkpt>
            <trkpt lat="46.383110" lon="10.503410">
                <time>2017-07-15T14:04:00Z</time>
            </trkpt>
            <trkpt lat="46.383230" lon="10.503390">
                <time>2017-07-15T14:04:01Z</time>
            </trkpt>
            <trkpt lat="46.383350" lon="10.503370">
                <time>2017-07-15T14:04:02Z</time>
            </trkpt>
            <trkpt lat="46.383470" lon="10.503330">
                <time>2017-07-15T14:04:03Z</time>
            </trkpt>
            <trkpt lat="46.383610" lon="10.503260">
                <time>2017-07-15T14:04:04Z</time>
            </trkpt>
            <trkpt lat="46.383720" lon="10.503190">
                <time>2017-07-15T14:04:05Z</time>
            </trkpt>
            <trkpt lat="46.383830" lon="10.503110">
                <time>2017-07-15T14:04:06Z</time>
            </trkpt>
            <trkpt lat="46.383940" lon="10.503020">
                <time>2017-07-15T14:04:07Z</time>
            </trkpt>
            <trkpt lat="46.384030" lon="10.502920">
                <time>2017-07-15T14:04:08Z</time>
            </trkpt>
            <trkpt lat="46.384110" lon="10.502800">
                <time>2017-07-15T14:04:09Z</time>
            </trkpt>
            <trkpt lat="46.384190" lon="10.502660">
                <time>2017-07-15T14:04:10Z</time>
            </trkpt>
            <trkpt lat="46.384260" lon="10.502530">
                <time>2017-07-15T14:04:11Z</time>
            </trkpt>
            <trkpt lat="46.384310" lon="10.502390">
                <time>2017-07-15T14:04:12Z</time>
            </trkpt>
            <trkpt lat="46.384350" lon="10.502280">
                <time>2017-07-15T14:04:13Z</time>
            </trkpt>
            <trkpt lat="46.384400" lon="10.502190">
                <time>2017-07-15T14:04:14Z</time>
            </trkpt>
            <trkpt lat="46.384460" lon="10.502110">
                <time>2017-07-15T14:04:15Z</time>
            </trkpt>
            <trkpt lat="46.384520" lon="10.502060">
                <time>2017-07-15T14:04:16Z</time>
            </trkpt>
            <trkpt lat="46.384600" lon="10.502010">
                <time>2017-07-15T14:04:17Z</time>
            </trkpt>
            <trkpt lat="46.384660" lon="10.501910">
                <time>2017-07-15T14:04:18Z</time>
            </trkpt>
            <trkpt lat="46.384720" lon="10.501780">
                <time>2017-07-15T14:04:19Z</time>
            </trkpt>
            <trkpt lat="46.384770" lon="10.501620">
                <time>2017-07-15T14:04:20Z</time>
            </trkpt>
            <trkpt lat="46.384820" lon="10.501460">
                <time>2017-07-15T14:04:21Z</time>
            </trkpt>
            <trkpt lat="46.384850" lon="10.501310">
                <time>2017-07-15T14:04:22Z</time>
            </trkpt>
            <trkpt lat="46.384860" lon="10.501150">
                <time>2017-07-15T14:04:23Z</time>
            </trkpt>
            <trkpt lat="46.384860" lon="10.501000">
                <time>2017-07-15T14:04:24Z</time>
            </trkpt>
            <trkpt lat="46.384850" lon="10.500830">
                <time>2017-07-15T14:04:25Z</time>
            </trkpt>
            <trkpt lat="46.384820" lon="10.500650">
                <time>2017-07-15T14:04:26Z</time>
            </trkpt>
            <trkpt lat="46.384770" lon="10.500510">
                <time>2017-07-15T14:04:27Z</time>
            </trkpt>
            <trkpt lat="46.384710" lon="10.500360">
                <time>2017-07-15T14:04:28Z</time>
            </trkpt>
            <trkpt lat="46.384650" lon="10.500250">
                <time>2017-07-15T14:04:29Z</time>
            </trkpt>
            <trkpt lat="46.384600" lon="10.500130">
                <time>2017-07-15T14:04:30Z</time>
            </trkpt>
            <trkpt lat="46.384560" lon="10.499980">
                <time>2017-07-15T14:04:31Z</time>
            </trkpt>
            <trkpt lat="46.384550" lon="10.499840">
                <time>2017-07-15T14:04:32Z</time>
            </trkpt>
            <trkpt lat="46.384520" lon="10.499670">
                <time>2017-07-15T14:04:33Z</time>
            </trkpt>
            <trkpt lat="46.384480" lon="10.499500">
                <time>2017-07-15T14:04:34Z</time>
            </trkpt>
            <trkpt lat="46.384430" lon="10.499310">
                <time>2017-07-15T14:04:35Z</time>
            </trkpt>
            <trkpt lat="46.384360" lon="10.499110">
                <time>2017-07-15T14:04:36Z</time>
            </trkpt>
            <trkpt lat="46.384310" lon="10.498940">
                <time>2017-07-15T14:04:37Z</time>
            </trkpt>
            <trkpt lat="46.384260" lon="10.498750">
                <time>2017-07-15T14:04:38Z</time>
            </trkpt>
            <trkpt lat="46.384200" lon="10.498540">
                <time>2017-07-15T14:04:39Z</time>
            </trkpt>
            <trkpt lat="46.384170" lon="10.498350">
                <time>2017-07-15T14:04:40Z</time>
            </trkpt>
            <trkpt lat="46.384130" lon="10.498160">
                <time>2017-07-15T14:04:41Z</time>
            </trkpt>
            <trkpt lat="46.384110" lon="10.497960">
                <time>2017-07-15T14:04:42Z</time>
            </trkpt>
            <trkpt lat="46.384100" lon="10.497790">
                <time>2017-07-15T14:04:43Z</time>
            </trkpt>
            <trkpt lat="46.384100" lon="10.497590">
                <time>2017-07-15T14:04:44Z</time>
            </trkpt>
            <trkpt lat="46.384110" lon="10.497410">
                <time>2017-07-15T14:04:45Z</time>
            </trkpt>
            <trkpt lat="46.384130" lon="10.497230">
                <time>2017-07-15T14:04:46Z</time>
            </trkpt>
            <trkpt lat="46.384140" lon="10.497050">
                <time>2017-07-15T14:04:47Z</time>
            </trkpt>
            <trkpt lat="46.384150" lon="10.496910">
                <time>2017-07-15T14:04:48Z</time>
            </trkpt>
            <trkpt lat="46.384160" lon="10.496770">
                <time>2017-07-15T14:04:49Z</time>
            </trkpt>
            <trkpt lat="46.384190" lon="10.496640">
                <time>2017-07-15T14:04:50Z</time>
            </trkpt>
            <trkpt lat="46.384230" lon="10.496530">
                <time>2017-07-15T14:04:51Z</time>
            </trkpt>
            <trkpt lat="46.384300" lon="10.496450">
                <time>2017-07-15T14:04:52Z</time>
            </trkpt>
            <trkpt lat="46.384380" lon="10.496410">
                <time>2017-07-15T14:04:53Z</time>
            </trkpt>
            <trkpt lat="46.384480" lon="10.496430">
                <time>2017-07-15T14:04:54Z</time>
            </trkpt>
            <trkpt lat="46.384590" lon="10.496490">
                <time>2017-07-15T14:04:55Z</time>
            </trkpt>
            <trkpt lat="46.384690" lon="10.496560">
                <time>2017-07-15T14:04:56Z</time>
            </trkpt>
            <trkpt lat="46.384800" lon="10.496630">
                <time>2017-07-15T14:04:57Z</time>
            </trkpt>
            <trkpt lat="46.384920" lon="10.496720">
                <time>2017-07-15T14:04:58Z</time>
            </trkpt>
            <trkpt lat="46.385020" lon="10.496810">
                <time>2017-07-15T14:04:59Z</time>
            </trkpt>
            <trkpt lat="46.385120" lon="10.496920">
                <time>2017-07-15T14:05:00Z</time>
            </trkpt>
            <trkpt lat="46.385210" lon="10.497020">
                <time>2017-07-15T14:05:01Z</time>
            </trkpt>
            <trkpt lat="46.385290" lon="10.497150">
                <time>2017-07-15T14:05:02Z</time>
            </trkpt>
            <trkpt lat="46.385380" lon="10.497310">
                <time>2017-07-15T14:05:03Z</time>
            </trkpt>
            <trkpt lat="46.385460" lon="10.497460">
                <time>2017-07-15T14:05:04Z</time>
            </trkpt>
            <trkpt lat="46.385540" lon="10.497620">
                <time>2017-07-15T14:05:05Z</time>
            </trkpt>
            <trkpt lat="46.385610" lon="10.497780">
                <time>2017-07-15T14:05:06Z</time>
            </trkpt>
            <trkpt lat="46.385670" lon="10.497930">
                <time>2017-07-15T14:05:07Z</time>
            </trkpt>
            <trkpt lat="46.385720" lon="10.498070">
                <time>2017-07-15T14:05:08Z</time>
            </trkpt>
            <trkpt lat="46.385760" lon="10.498180">
                <time>2017-07-15T14:05:09Z</time>
            </trkpt>
            <trkpt lat="46.385820" lon="10.498310">
                <time>2017-07-15T14:05:10Z</time>
            </trkpt>
            <trkpt lat="46.385900" lon="10.498480">
                <time>2017-07-15T14:05:11Z</time>
            </trkpt>
            <trkpt lat="46.385980" lon="10.498650">
                <time>2017-07-15T14:05:12Z</time>
            </trkpt>
            <trkpt lat="46.386080" lon="10.498840">
                <time>2017-07-15T14:05:13Z</time>
            </trkpt>
            <trkpt lat="46.386190" lon="10.499010">
                <time>2017-07-15T14:05:14Z</time>
            </trkpt>
            <trkpt lat="46.386300" lon="10.499150">
                <time>2017-07-15T14:05:15Z</time>
            </trkpt>
            <trkpt lat="46.386420" lon="10.499290">
                <time>2017-07-15T14:05:16Z</time>
            </trkpt>
            <trkpt lat="46.386530" lon="10.499370">
                <time>2017-07-15T14:05:17Z</time>
            </trkpt>
            <trkpt lat="46.386640" lon="10.499420">
                <time>2017-07-15T14:05:18Z</time>
            </trkpt>
            <trkpt lat="46.386770" lon="10.499430">
                <time>2017-07-15T14:05:19Z</time>
            </trkpt>
            <trkpt lat="46.386890" lon="10.499430">
                <time>2017-07-15T14:05:20Z</time>
            </trkpt>
            <trkpt lat="46.387010" lon="10.499420">
                <time>2017-07-15T14:05:21Z</time>
            </trkpt>
            <trkpt lat="46.387130" lon="10.499400">
                <time>2017-07-15T14:05:22Z</time>
            </trkpt>
            <trkpt lat="46.387260" lon="10.499400">
                <time>2017-07-15T14:05:23Z</time>
            </trkpt>
            <trkpt lat="46.387380" lon="10.499460">
                <time>2017-07-15T14:05:24Z</time>
            </trkpt>
            <trkpt lat="46.387500" lon="10.499520">
                <time>2017-07-15T14:05:25Z</time>
            </trkpt>
            <trkpt lat="46.387640" lon="10.499600">
                <time>2017-07-15T14:05:26Z</time>
            </trkpt>
            <trkpt lat="46.387790" lon="10.499690">
                <time>2017-07-15T14:05:27Z</time>
            </trkpt>
            <trkpt lat="46.387920" lon="10.499770">
                <time>2017-07-15T14:05:28Z</time>
            </trkpt>
            <trkpt lat="46.388050" lon="10.499860">
                <time>2017-07-15T14:05:29Z</time>
            </trkpt>
            <trkpt lat="46.388180" lon="10.499960">
                <time>2017-07-15T14:05:30Z</time>
            </trkpt>
            <trkpt lat="46.388290" lon="10.500060">
                <time>2017-07-15T14:05:31Z</time>
            </trkpt>
            <trkpt lat="46.388400" lon="10.500210">
                <time>2017-07-15T14:05:32Z</time>
            </trkpt>
            <trkpt lat="46.388500" lon="10.500330">
                <time>2017-07-15T14:05:33Z</time>
            </trkpt>
            <trkpt lat="46.388590" lon="10.500450">
                <time>2017-07-15T14:05:34Z</time>
            </trkpt>
            <trkpt lat="46.388660" lon="10.500550">
                <time>2017-07-15T14:05:35Z</time>
            </trkpt>
            <trkpt lat="46.388730" lon="10.500620">
                <time>2017-07-15T14:05:36Z</time>
            </trkpt>
            <trkpt lat="46.388790" lon="10.500650">
                <time>2017-07-15T14:05:37Z</time>
            </trkpt>
            <trkpt lat="46.388850" lon="10.500630">
                <time>2017-07-15T14:05:38Z</time>
            </trkpt>
            <trkpt lat="46.388900" lon="10.500570">
                <time>2017-07-15T14:05:39Z</time>
            </trkpt>
            <trkpt lat="46.388970" lon="10.500480">
                <time>2017-07-15T14:05:40Z</time>
            </trkpt>
            <trkpt lat="46.389030" lon="10.500410">
                <time>2017-07-15T14:05:41Z</time>
            </trkpt>
            <trkpt lat="46.389100" lon="10.500370">
                <time>2017-07-15T14:05:42Z</time>
            </trkpt>
            <trkpt lat="46.389200" lon="10.500380">
                <time>2017-07-15T14:05:43Z</time>
            </trkpt>
            <trkpt lat="46.389290" lon="10.500440">
                <time>2017-07-15T14:05:44Z</time>
            </trkpt>
            <trkpt lat="46.389390" lon="10.500520">
                <time>2017-07-15T14:05:45Z</time>
            </trkpt>
            <trkpt lat="46.389500" lon="10.500620">
                <time>2017-07-15T14:05:46Z</time>
            </trkpt>
            <trkpt lat="46.389600" lon="10.500710">
                <time>2017-07-15T14:05:47Z</time>
            </trkpt>
            <trkpt lat="46.389720" lon="10.500810">
                <time>2017-07-15T14:05:48Z</time>
            </trkpt>
            <trkpt lat="46.389810" lon="10.500890">
                <time>2017-07-15T14:05:49Z</time>
            </trkpt>
            <trkpt lat="46.389910" lon="10.500970">
                <time>2017-07-15T14:05:50Z</time>
            </trkpt>
            <trkpt lat="46.390030" lon="10.501010">
                <time>2017-07-15T14:05:51Z</time>
            </trkpt>
            <trkpt lat="46.390130" lon="10.501010">
                <time>2017-07-15T14:05:52Z</time>
            </trkpt>
            <trkpt lat="46.390260" lon="10.500990">
                <time>2017-07-15T14:05:53Z</time>
            </trkpt>
            <trkpt lat="46.390390" lon="10.500970">
                <time>2017-07-15T14:05:54Z</time>
            </trkpt>
            <trkpt lat="46.390520" lon="10.500930">
                <time>2017-07-15T14:05:55Z</time>
            </trkpt>
            <trkpt lat="46.390640" lon="10.500870">
                <time>2017-07-15T14:05:56Z</time>
            </trkpt>
            <trkpt lat="46.390730" lon="10.500790">
                <time>2017-07-15T14:05:57Z</time>
            </trkpt>
            <trkpt lat="46.390830" lon="10.500660">
                <time>2017-07-15T14:05:58Z</time>
            </trkpt>
            <trkpt lat="46.390930" lon="10.500510">
                <time>2017-07-15T14:05:59Z</time>
            </trkpt>
            <trkpt lat="46.391020" lon="10.500370">
                <time>2017-07-15T14:06:00Z</time>
            </trkpt>
            <trkpt lat="46.391110" lon="10.500240">
                <time>2017-07-15T14:06:01Z</time>
            </trkpt>
            <trkpt lat="46.391210" lon="10.500110">
                <time>2017-07-15T14:06:02Z</time>
            </trkpt>
            <trkpt lat="46.391310" lon="10.500020">
                <time>2017-07-15T14:06:03Z</time>
            </trkpt>
            <trkpt lat="46.391450" lon="10.499950">
                <time>2017-07-15T14:06:04Z</time>
            </trkpt>
            <trkpt lat="46.391580" lon="10.499920">
                <time>2017-07-15T14:06:05Z</time>
            </trkpt>
            <trkpt lat="46.391720" lon="10.499900">
                <time>2017-07-15T14:06:06Z</time>
            </trkpt>
            <trkpt lat="46.391870" lon="10.499870">
                <time>2017-07-15T14:06:07Z</time>
            </trkpt>
            <trkpt lat="46.392000" lon="10.499830">
                <time>2017-07-15T14:06:08Z</time>
            </trkpt>
            <trkpt lat="46.392130" lon="10.499760">
                <time>2017-07-15T14:06:09Z</time>
            </trkpt>
            <trkpt lat="46.392260" lon="10.499670">
                <time>2017-07-15T14:06:10Z</time>
            </trkpt>
            <trkpt lat="46.392380" lon="10.499570">
                <time>2017-07-15T14:06:11Z</time>
            </trkpt>
            <trkpt lat="46.392510" lon="10.499440">
                <time>2017-07-15T14:06:12Z</time>
            </trkpt>
            <trkpt lat="46.392630" lon="10.499330">
                <time>2017-07-15T14:06:13Z</time>
            </trkpt>
            <trkpt lat="46.392760" lon="10.499200">
                <time>2017-07-15T14:06:14Z</time>
            </trkpt>
            <trkpt lat="46.392890" lon="10.499060">
                <time>2017-07-15T14:06:15Z</time>
            </trkpt>
            <trkpt lat="46.393020" lon="10.498950">
                <time>2017-07-15T14:06:16Z</time>
            </trkpt>
            <trkpt lat="46.393150" lon="10.498830">
                <time>2017-07-15T14:06:17Z</time>
            </trkpt>
            <trkpt lat="46.393300" lon="10.498700">
                <time>2017-07-15T14:06:18Z</time>
            </trkpt>
            <trkpt lat="46.393430" lon="10.498600">
                <time>2017-07-15T14:06:19Z</time>
            </trkpt>
            <trkpt lat="46.393580" lon="10.498490">
                <time>2017-07-15T14:06:20Z</time>
            </trkpt>
            <trkpt lat="46.393710" lon="10.498400">
                <time>2017-07-15T14:06:21Z</time>
            </trkpt>
            <trkpt lat="46.393840" lon="10.498310">
                <time>2017-07-15T14:06:22Z</time>
            </trkpt>
            <trkpt lat="46.393970" lon="10.498210">
                <time>2017-07-15T14:06:23Z</time>
            </trkpt>
            <trkpt lat="46.394070" lon="10.498110">
                <time>2017-07-15T14:06:24Z</time>
            </trkpt>
            <trkpt lat="46.394160" lon="10.498000">
                <time>2017-07-15T14:06:25Z</time>
            </trkpt>
            <trkpt lat="46.394230" lon="10.497850">
                <time>2017-07-15T14:06:26Z</time>
            </trkpt>
            <trkpt lat="46.394310" lon="10.497700">
                <time>2017-07-15T14:06:27Z</time>
            </trkpt>
            <trkpt lat="46.394390" lon="10.497530">
                <time>2017-07-15T14:06:28Z</time>
            </trkpt>
            <trkpt lat="46.394480" lon="10.497380">
                <time>2017-07-15T14:06:29Z</time>
            </trkpt>
            <trkpt lat="46.394590" lon="10.497240">
                <time>2017-07-15T14:06:30Z</time>
            </trkpt>
            <trkpt lat="46.394710" lon="10.497090">
                <time>2017-07-15T14:06:31Z</time>
            </trkpt>
            <trkpt lat="46.394800" lon="10.496960">
                <time>2017-07-15T14:06:32Z</time>
            </trkpt>
            <trkpt lat="46.394910" lon="10.496820">
                <time>2017-07-15T14:06:33Z</time>
            </trkpt>
            <trkpt lat="46.395020" lon="10.496680">
                <time>2017-07-15T14:06:34Z</time>
            </trkpt>
            <trkpt lat="46.395130" lon="10.496560">
                <time>2017-07-15T14:06:35Z</time>
            </trkpt>
            <trkpt lat="46.395260" lon="10.496440">
                <time>2017-07-15T14:06:36Z</time>
            </trkpt>
            <trkpt lat="46.395380" lon="10.496360">
                <time>2017-07-15T14:06:37Z</time>
            </trkpt>
            <trkpt lat="46.395490" lon="10.496270">
                <time>2017-07-15T14:06:38Z</time>
            </trkpt>
            <trkpt lat="46.395600" lon="10.496160">
                <time>2017-07-15T14:06:39Z</time>
            </trkpt>
            <trkpt lat="46.395670" lon="10.496060">
                <time>2017-07-15T14:06:40Z</time>
            </trkpt>
            <trkpt lat="46.395760" lon="10.495960">
                <time>2017-07-15T14:06:41Z</time>
            </trkpt>
            <trkpt lat="46.395860" lon="10.495900">
                <time>2017-07-15T14:06:42Z</time>
            </trkpt>
            <trkpt lat="46.395980" lon="10.495850">
                <time>2017-07-15T14:06:43Z</time>
            </trkpt>
            <trkpt lat="46.396110" lon="10.495830">
                <time>2017-07-15T14:06:44Z</time>
            </trkpt>
            <trkpt lat="46.396240" lon="10.495800">
                <time>2017-07-15T14:06:45Z</time>
            </trkpt>
            <trkpt lat="46.396380" lon="10.495770">
                <time>2017-07-15T14:06:46Z</time>
            </trkpt>
            <trkpt lat="46.396540" lon="10.495710">
                <time>2017-07-15T14:06:47Z</time>
            </trkpt>
            <trkpt lat="46.396680" lon="10.495650">
                <time>2017-07-15T14:06:48Z</time>
            </trkpt>
            <trkpt lat="46.396830" lon="10.495570">
                <time>2017-07-15T14:06:49Z</time>
            </trkpt>
            <trkpt lat="46.396990" lon="10.495500">
                <time>2017-07-15T14:06:50Z</time>
            </trkpt>
            <trkpt lat="46.397110" lon="10.495420">
                <time>2017-07-15T14:06:51Z</time>
            </trkpt>
            <trkpt lat="46.397260" lon="10.495310">
                <time>2017-07-15T14:06:52Z</time>
            </trkpt>
            <trkpt lat="46.397380" lon="10.495210">
                <time>2017-07-15T14:06:53Z</time>
            </trkpt>
            <trkpt lat="46.397500" lon="10.495080">
                <time>2017-07-15T14:06:54Z</time>
            </trkpt>
            <trkpt lat="46.397630" lon="10.494930">
                <time>2017-07-15T14:06:55Z</time>
            </trkpt>
            <trkpt lat="46.397730" lon="10.494800">
                <time>2017-07-15T14:06:56Z</time>
            </trkpt>
            <trkpt lat="46.397810" lon="10.494660">
                <time>2017-07-15T14:06:57Z</time>
            </trkpt>
            <trkpt lat="46.397890" lon="10.494540">
                <time>2017-07-15T14:06:58Z</time>
            </trkpt>
            <trkpt lat="46.397970" lon="10.494440">
                <time>2017-07-15T14:06:59Z</time>
            </trkpt>
            <trkpt lat="46.398070" lon="10.494380">
                <time>2017-07-15T14:07:00Z</time>
            </trkpt>
            <trkpt lat="46.398150" lon="10.494350">
                <time>2017-07-15T14:07:01Z</time>
            </trkpt>
            <trkpt lat="46.398250" lon="10.494340">
                <time>2017-07-15T14:07:02Z</time>
            </trkpt>
            <trkpt lat="46.398370" lon="10.494360">
                <time>2017-07-15T14:07:03Z</time>
            </trkpt>
            <trkpt lat="46.398480" lon="10.494380">
                <time>2017-07-15T14:07:04Z</time>
            </trkpt>
            <trkpt lat="46.398600" lon="10.494410">
                <time>2017-07-15T14:07:05Z</time>
            </trkpt>
            <trkpt lat="46.398730" lon="10.494440">
                <time>2017-07-15T14:07:06Z</time>
            </trkpt>
            <trkpt lat="46.398840" lon="10.494460">
                <time>2017-07-15T14:07:07Z</time>
            </trkpt>
            <trkpt lat="46.398960" lon="10.494480">
                <time>2017-07-15T14:07:08Z</time>
            </trkpt>
            <trkpt lat="46.399060" lon="10.494490">
                <time>2017-07-15T14:07:09Z</time>
            </trkpt>
            <trkpt lat="46.399140" lon="10.494500">
                <time>2017-07-15T14:07:10Z</time>
            </trkpt>
            <trkpt lat="46.399230" lon="10.494480">
                <time>2017-07-15T14:07:11Z</time>
            </trkpt>
            <trkpt lat="46.399300" lon="10.494430">
                <time>2017-07-15T14:07:12Z</time>
            </trkpt>
            <trkpt lat="46.399370" lon="10.494350">
                <time>2017-07-15T14:07:13Z</time>
            </trkpt>
            <trkpt lat="46.399450" lon="10.494230">
                <time>2017-07-15T14:07:14Z</time>
            </trkpt>
            <trkpt lat="46.399540" lon="10.494120">
                <time>2017-07-15T14:07:15Z</time>
            </trkpt>
            <trkpt lat="46.399630" lon="10.494000">
                <time>2017-07-15T14:07:16Z</time>
            </trkpt>
            <trkpt lat="46.399700" lon="10.493910">
                <time>2017-07-15T14:07:17Z</time>
            </trkpt>
            <trkpt lat="46.399760" lon="10.493820">
                <time>2017-07-15T14:07:18Z</time>
            </trkpt>
            <trkpt lat="46.399800" lon="10.493730">
                <time>2017-07-15T14:07:19Z</time>
            </trkpt>
            <trkpt lat="46.399820" lon="10.493670">
                <time>2017-07-15T14:07:20Z</time>
            </trkpt>
            <trkpt lat="46.399840" lon="10.493620">
                <time>2017-07-15T14:07:21Z</time>
            </trkpt>
            <trkpt lat="46.399860" lon="10.493580">
                <time>2017-07-15T14:07:22Z</time>
            </trkpt>
            <trkpt lat="46.399880" lon="10.493580">
                <time>2017-07-15T14:07:23Z</time>
            </trkpt>
            <trkpt lat="46.399910" lon="10.493610">
                <time>2017-07-15T14:07:24Z</time>
            </trkpt>
            <trkpt lat="46.399910" lon="10.493650">
                <time>2017-07-15T14:07:25Z</time>
            </trkpt>
            <trkpt lat="46.399890" lon="10.493710">
                <time>2017-07-15T14:07:26Z</time>
            </trkpt>
            <trkpt lat="46.399870" lon="10.493790">
                <time>2017-07-15T14:07:27Z</time>
            </trkpt>
            <trkpt lat="46.399840" lon="10.493880">
                <time>2017-07-15T14:07:28Z</time>
            </trkpt>
            <trkpt lat="46.399800" lon="10.493990">
                <time>2017-07-15T14:07:29Z</time>
            </trkpt>
            <trkpt lat="46.399770" lon="10.494110">
                <time>2017-07-15T14:07:30Z</time>
            </trkpt>
            <trkpt lat="46.399750" lon="10.494260">
                <time>2017-07-15T14:07:31Z</time>
            </trkpt>
            <trkpt lat="46.399720" lon="10.494400">
                <time>2017-07-15T14:07:32Z</time>
            </trkpt>
            <trkpt lat="46.399690" lon="10.494530">
                <time>2017-07-15T14:07:33Z</time>
            </trkpt>
            <trkpt lat="46.399650" lon="10.494650">
                <time>2017-07-15T14:07:34Z</time>
            </trkpt>
            <trkpt lat="46.399590" lon="10.494760">
                <time>2017-07-15T14:07:35Z</time>
            </trkpt>
            <trkpt lat="46.399520" lon="10.494840">
                <time>2017-07-15T14:07:36Z</time>
            </trkpt>
            <trkpt lat="46.399430" lon="10.494910">
                <time>2017-07-15T14:07:37Z</time>
            </trkpt>
            <trkpt lat="46.399330" lon="10.494990">
                <time>2017-07-15T14:07:38Z</time>
            </trkpt>
            <trkpt lat="46.399250" lon="10.495070">
                <time>2017-07-15T14:07:39Z</time>
            </trkpt>
            <trkpt lat="46.399160" lon="10.495150">
                <time>2017-07-15T14:07:40Z</time>
            </trkpt>
            <trkpt lat="46.399080" lon="10.495220">
                <time>2017-07-15T14:07:41Z</time>
            </trkpt>
            <trkpt lat="46.399010" lon="10.495250">
                <time>2017-07-15T14:07:42Z</time>
            </trkpt>
            <trkpt lat="46.398910" lon="10.495280">
                <time>2017-07-15T14:07:43Z</time>
            </trkpt>
            <trkpt lat="46.398830" lon="10.495330">
                <time>2017-07-15T14:07:44Z</time>
            </trkpt>
            <trkpt lat="46.398740" lon="10.495400">
                <time>2017-07-15T14:07:45Z</time>
            </trkpt>
            <trkpt lat="46.398660" lon="10.495480">
                <time>2017-07-15T14:07:46Z</time>
            </trkpt>
            <trkpt lat="46.398600" lon="10.495540">
                <time>2017-07-15T14:07:47Z</time>
            </trkpt>
            <trkpt lat="46.398550" lon="10.495600">
                <time>2017-07-15T14:07:48Z</time>
            </trkpt>
            <trkpt lat="46.398540" lon="10.495660">
                <time>2017-07-15T14:07:49Z</time>
            </trkpt>
            <trkpt lat="46.398540" lon="10.495710">
                <time>2017-07-15T14:07:50Z</time>
            </trkpt>
            <trkpt lat="46.398570" lon="10.495750">
                <time>2017-07-15T14:07:51Z</time>
            </trkpt>
            <trkpt lat="46.398620" lon="10.495740">
                <time>2017-07-15T14:07:52Z</time>
            </trkpt>
            <trkpt lat="46.398690" lon="10.495720">
                <time>2017-07-15T14:07:53Z</time>
            </trkpt>
            <trkpt lat="46.398790" lon="10.495670">
                <time>2017-07-15T14:07:54Z</time>
            </trkpt>
            <trkpt lat="46.398890" lon="10.495650">
                <time>2017-07-15T14:07:55Z</time>
            </trkpt>
            <trkpt lat="46.399020" lon="10.495650">
                <time>2017-07-15T14:07:56Z</time>
            </trkpt>
            <trkpt lat="46.399130" lon="10.495670">
                <time>2017-07-15T14:07:57Z</time>
            </trkpt>
            <trkpt lat="46.399250" lon="10.495710">
                <time>2017-07-15T14:07:58Z</time>
            </trkpt>
            <trkpt lat="46.399380" lon="10.495750">
                <time>2017-07-15T14:07:59Z</time>
            </trkpt>
            <trkpt lat="46.399480" lon="10.495780">
                <time>2017-07-15T14:08:00Z</time>
            </trkpt>
            <trkpt lat="46.399600" lon="10.495800">
                <time>2017-07-15T14:08:01Z</time>
            </trkpt>
            <trkpt lat="46.399720" lon="10.495770">
                <time>2017-07-15T14:08:02Z</time>
            </trkpt>
            <trkpt lat="46.399830" lon="10.495720">
                <time>2017-07-15T14:08:03Z</time>
            </trkpt>
            <trkpt lat="46.399940" lon="10.495650">
                <time>2017-07-15T14:08:04Z</time>
            </trkpt>
            <trkpt lat="46.400020" lon="10.495550">
                <time>2017-07-15T14:08:05Z</time>
            </trkpt>
            <trkpt lat="46.400090" lon="10.495420">
                <time>2017-07-15T14:08:06Z</time>
            </trkpt>
            <trkpt lat="46.400140" lon="10.495250">
                <time>2017-07-15T14:08:07Z</time>
            </trkpt>
            <trkpt lat="46.400190" lon="10.495080">
                <time>2017-07-15T14:08:08Z</time>
            </trkpt>
            <trkpt lat="46.400250" lon="10.494900">
                <time>2017-07-15T14:08:09Z</time>
            </trkpt>
            <trkpt lat="46.400340" lon="10.494710">
                <time>2017-07-15T14:08:10Z</time>
            </trkpt>
            <trkpt lat="46.400410" lon="10.494560">
                <time>2017-07-15T14:08:11Z</time>
            </trkpt>
            <trkpt lat="46.400490" lon="10.494370">
                <time>2017-07-15T14:08:12Z</time>
            </trkpt>
            <trkpt lat="46.400540" lon="10.494210">
                <time>2017-07-15T14:08:13Z</time>
            </trkpt>
            <trkpt lat="46.400600" lon="10.494030">
                <time>2017-07-15T14:08:14Z</time>
            </trkpt>
            <trkpt lat="46.400650" lon="10.493850">
                <time>2017-07-15T14:08:15Z</time>
            </trkpt>
            <trkpt lat="46.400710" lon="10.493690">
                <time>2017-07-15T14:08:16Z</time>
            </trkpt>
            <trkpt lat="46.400770" lon="10.493520">
                <time>2017-07-15T14:08:17Z</time>
            </trkpt>
            <trkpt lat="46.400830" lon="10.493340">
                <time>2017-07-15T14:08:18Z</time>
            </trkpt>
            <trkpt lat="46.400880" lon="10.493170">
                <time>2017-07-15T14:08:19Z</time>
            </trkpt>
            <trkpt lat="46.400950" lon="10.493000">
                <time>2017-07-15T14:08:20Z</time>
            </trkpt>
            <trkpt lat="46.401020" lon="10.492870">
                <time>2017-07-15T14:08:21Z</time>
            </trkpt>
            <trkpt lat="46.401110" lon="10.492750">
                <time>2017-07-15T14:08:22Z</time>
            </trkpt>
            <trkpt lat="46.401200" lon="10.492630">
                <time>2017-07-15T14:08:23Z</time>
            </trkpt>
            <trkpt lat="46.401270" lon="10.492520">
                <time>2017-07-15T14:08:24Z</time>
            </trkpt>
            <trkpt lat="46.401360" lon="10.492410">
                <time>2017-07-15T14:08:25Z</time>
            </trkpt>
            <trkpt lat="46.401460" lon="10.492280">
                <time>2017-07-15T14:08:26Z</time>
            </trkpt>
            <trkpt lat="46.401550" lon="10.492160">
                <time>2017-07-15T14:08:27Z</time>
            </trkpt>
            <trkpt lat="46.401630" lon="10.492030">
                <time>2017-07-15T14:08:28Z</time>
            </trkpt>
            <trkpt lat="46.401670" lon="10.491940">
                <time>2017-07-15T14:08:29Z</time>
            </trkpt>
            <trkpt lat="46.401700" lon="10.491840">
                <time>2017-07-15T14:08:30Z</time>
            </trkpt>
            <trkpt lat="46.401720" lon="10.491760">
                <time>2017-07-15T14:08:31Z</time>
            </trkpt>
            <trkpt lat="46.401740" lon="10.491720">
                <time>2017-07-15T14:08:32Z</time>
            </trkpt>
            <trkpt lat="46.401780" lon="10.491700">
                <time>2017-07-15T14:08:33Z</time>
            </trkpt>
            <trkpt lat="46.401810" lon="10.491730">
                <time>2017-07-15T14:08:34Z</time>
            </trkpt>
            <trkpt lat="46.401830" lon="10.491790">
                <time>2017-07-15T14:08:35Z</time>
            </trkpt>
            <trkpt lat="46.401830" lon="10.491900">
                <time>2017-07-15T14:08:36Z</time>
            </trkpt>
            <trkpt lat="46.401820" lon="10.492010">
                <time>2017-07-15T14:08:37Z</time>
            </trkpt>
            <trkpt lat="46.401810" lon="10.492150">
                <time>2017-07-15T14:08:38Z</time>
            </trkpt>
            <trkpt lat="46.401800" lon="10.492310">
                <time>2017-07-15T14:08:39Z</time>
            </trkpt>
            <trkpt lat="46.401780" lon="10.492480">
                <time>2017-07-15T14:08:40Z</time>
            </trkpt>
            <trkpt lat="46.401750" lon="10.492660">
                <time>2017-07-15T14:08:41Z</time>
            </trkpt>
            <trkpt lat="46.401720" lon="10.492840">
                <time>2017-07-15T14:08:42Z</time>
            </trkpt>
            <trkpt lat="46.401690" lon="10.492990">
                <time>2017-07-15T14:08:43Z</time>
            </trkpt>
            <trkpt lat="46.401640" lon="10.493150">
                <time>2017-07-15T14:08:44Z</time>
            </trkpt>
            <trkpt lat="46.401600" lon="10.493270">
                <time>2017-07-15T14:08:45Z</time>
            </trkpt>
            <trkpt lat="46.401530" lon="10.493390">
                <time>2017-07-15T14:08:46Z</time>
            </trkpt>
            <trkpt lat="46.401470" lon="10.493540">
                <time>2017-07-15T14:08:47Z</time>
            </trkpt>
            <trkpt lat="46.401420" lon="10.493690">
                <time>2017-07-15T14:08:48Z</time>
            </trkpt>
            <trkpt lat="46.401380" lon="10.493850">
                <time>2017-07-15T14:08:49Z</time>
            </trkpt>
            <trkpt lat="46.401330" lon="10.494000">
                <time>2017-07-15T14:08:50Z</time>
            </trkpt>
            <trkpt lat="46.401270" lon="10.494130">
                <time>2017-07-15T14:08:51Z</time>
            </trkpt>
            <trkpt lat="46.401220" lon="10.494270">
                <time>2017-07-15T14:08:52Z</time>
            </trkpt>
            <trkpt lat="46.401190" lon="10.494410">
                <time>2017-07-15T14:08:53Z</time>
            </trkpt>
            <trkpt lat="46.401160" lon="10.494560">
                <time>2017-07-15T14:08:54Z</time>
            </trkpt>
            <trkpt lat="46.401140" lon="10.494720">
                <time>2017-07-15T14:08:55Z</time>
            </trkpt>
            <trkpt lat="46.401150" lon="10.494850">
                <time>2017-07-15T14:08:56Z</time>
            </trkpt>
            <trkpt lat="46.401170" lon="10.495000">
                <time>2017-07-15T14:08:57Z</time>
            </trkpt>
            <trkpt lat="46.401190" lon="10.495150">
                <time>2017-07-15T14:08:58Z</time>
            </trkpt>
            <trkpt lat="46.401190" lon="10.495290">
                <time>2017-07-15T14:08:59Z</time>
            </trkpt>
            <trkpt lat="46.401170" lon="10.495450">
                <time>2017-07-15T14:09:00Z</time>
            </trkpt>
            <trkpt lat="46.401150" lon="10.495590">
                <time>2017-07-15T14:09:01Z</time>
            </trkpt>
            <trkpt lat="46.401110" lon="10.495720">
                <time>2017-07-15T14:09:02Z</time>
            </trkpt>
            <trkpt lat="46.401060" lon="10.495860">
                <time>2017-07-15T14:09:03Z</time>
            </trkpt>
            <trkpt lat="46.401000" lon="10.495980">
                <time>2017-07-15T14:09:04Z</time>
            </trkpt>
            <trkpt lat="46.400940" lon="10.496110">
                <time>2017-07-15T14:09:05Z</time>
            </trkpt>
            <trkpt lat="46.400890" lon="10.496250">
                <time>2017-07-15T14:09:06Z</time>
            </trkpt>
            <trkpt lat="46.400830" lon="10.496400">
                <time>2017-07-15T14:09:07Z</time>
            </trkpt>
            <trkpt lat="46.400760" lon="10.496550">
                <time>2017-07-15T14:09:08Z</time>
            </trkpt>
            <trkpt lat="46.400690" lon="10.496670">
                <time>2017-07-15T14:09:09Z</time>
            </trkpt>
            <trkpt lat="46.400610" lon="10.496820">
                <time>2017-07-15T14:09:10Z</time>
            </trkpt>
            <trkpt lat="46.400530" lon="10.496980">
                <time>2017-07-15T14:09:11Z</time>
            </trkpt>
            <trkpt lat="46.400460" lon="10.497120">
                <time>2017-07-15T14:09:12Z</time>
            </trkpt>
            <trkpt lat="46.400370" lon="10.497250">
                <time>2017-07-15T14:09:13Z</time>
            </trkpt>
            <trkpt lat="46.400280" lon="10.497400">
                <time>2017-07-15T14:09:14Z</time>
            </trkpt>
            <trkpt lat="46.400200" lon="10.497520">
                <time>2017-07-15T14:09:15Z</time>
            </trkpt>
            <trkpt lat="46.400120" lon="10.497670">
                <time>2017-07-15T14:09:16Z</time>
            </trkpt>
            <trkpt lat="46.400030" lon="10.497760">
                <time>2017-07-15T14:09:17Z</time>
            </trkpt>
            <trkpt lat="46.399930" lon="10.497850">
                <time>2017-07-15T14:09:18Z</time>
            </trkpt>
            <trkpt lat="46.399810" lon="10.497930">
                <time>2017-07-15T14:09:19Z</time>
            </trkpt>
            <trkpt lat="46.399700" lon="10.497980">
                <time>2017-07-15T14:09:20Z</time>
            </trkpt>
            <trkpt lat="46.399580" lon="10.498020">
                <time>2017-07-15T14:09:21Z</time>
            </trkpt>
            <trkpt lat="46.399470" lon="10.498080">
                <time>2017-07-15T14:09:22Z</time>
            </trkpt>
            <trkpt lat="46.399370" lon="10.498160">
                <time>2017-07-15T14:09:23Z</time>
            </trkpt>
            <trkpt lat="46.399270" lon="10.498250">
                <time>2017-07-15T14:09:24Z</time>
            </trkpt>
            <trkpt lat="46.399190" lon="10.498340">
                <time>2017-07-15T14:09:25Z</time>
            </trkpt>
            <trkpt lat="46.399100" lon="10.498420">
                <time>2017-07-15T14:09:26Z</time>
            </trkpt>
            <trkpt lat="46.399010" lon="10.498500">
                <time>2017-07-15T14:09:27Z</time>
            </trkpt>
            <trkpt lat="46.398930" lon="10.498580">
                <time>2017-07-15T14:09:28Z</time>
            </trkpt>
            <trkpt lat="46.398850" lon="10.498670">
                <time>2017-07-15T14:09:29Z</time>
            </trkpt>
            <trkpt lat="46.398780" lon="10.498770">
                <time>2017-07-15T14:09:30Z</time>
            </trkpt>
            <trkpt lat="46.398720" lon="10.498830">
                <time>2017-07-15T14:09:31Z</time>
            </trkpt>
            <trkpt lat="46.398670" lon="10.498900">
                <time>2017-07-15T14:09:32Z</time>
            </trkpt>
            <trkpt lat="46.398650" lon="10.498970">
                <time>2017-07-15T14:09:33Z</time>
            </trkpt>
            <trkpt lat="46.398660" lon="10.499040">
                <time>2017-07-15T14:09:34Z</time>
            </trkpt>
            <trkpt lat="46.398700" lon="10.499090">
                <time>2017-07-15T14:09:35Z</time>
            </trkpt>
            <trkpt lat="46.398760" lon="10.499100">
                <time>2017-07-15T14:09:36Z</time>
            </trkpt>
            <trkpt lat="46.398830" lon="10.499080">
                <time>2017-07-15T14:09:37Z</time>
            </trkpt>
            <trkpt lat="46.398920" lon="10.499030">
                <time>2017-07-15T14:09:38Z</time>
            </trkpt>
            <trkpt lat="46.399010" lon="10.498960">
                <time>2017-07-15T14:09:39Z</time>
            </trkpt>
            <trkpt lat="46.399110" lon="10.498890">
                <time>2017-07-15T14:09:40Z</time>
            </trkpt>
            <trkpt lat="46.399200" lon="10.498860">
                <time>2017-07-15T14:09:41Z</time>
            </trkpt>
            <trkpt lat="46.399280" lon="10.498830">
                <time>2017-07-15T14:09:42Z</time>
            </trkpt>
            <trkpt lat="46.399370" lon="10.498800">
                <time>2017-07-15T14:09:43Z</time>
            </trkpt>
            <trkpt lat="46.399450" lon="10.498760">
                <time>2017-07-15T14:09:44Z</time>
            </trkpt>
            <trkpt lat="46.399550" lon="10.498710">
                <time>2017-07-15T14:09:45Z</time>
            </trkpt>
            <trkpt lat="46.399650" lon="10.498660">
                <time>2017-07-15T14:09:46Z</time>
            </trkpt>
            <trkpt lat="46.399740" lon="10.498650">
                <time>2017-07-15T14:09:47Z</time>
            </trkpt>
            <trkpt lat="46.399860" lon="10.498650">
                <time>2017-07-15T14:09:48Z</time>
            </trkpt>
            <trkpt lat="46.399970" lon="10.498640">
                <time>2017-07-15T14:09:49Z</time>
            </trkpt>
            <trkpt lat="46.400090" lon="10.498630">
                <time>2017-07-15T14:09:50Z</time>
            </trkpt>
            <trkpt lat="46.400220" lon="10.498610">
                <time>2017-07-15T14:09:51Z</time>
            </trkpt>
            <trkpt lat="46.400330" lon="10.498570">
                <time>2017-07-15T14:09:52Z</time>
            </trkpt>
            <trkpt lat="46.400460" lon="10.498500">
                <time>2017-07-15T14:09:53Z</time>
            </trkpt>
            <trkpt lat="46.400580" lon="10.498410">
                <time>2017-07-15T14:09:54Z</time>
            </trkpt>
            <trkpt lat="46.400700" lon="10.498350">
                <time>2017-07-15T14:09:55Z</time>
            </trkpt>
            <trkpt lat="46.400820" lon="10.498270">
                <time>2017-07-15T14:09:56Z</time>
            </trkpt>
            <trkpt lat="46.400930" lon="10.498230">
                <time>2017-07-15T14:09:57Z</time>
            </trkpt>
            <trkpt lat="46.401050" lon="10.498200">
                <time>2017-07-15T14:09:58Z</time>
            </trkpt>
            <trkpt lat="46.401180" lon="10.498170">
                <time>2017-07-15T14:09:59Z</time>
            </trkpt>
            <trkpt lat="46.401300" lon="10.498160">
                <time>2017-07-15T14:10:00Z</time>
            </trkpt>
            <trkpt lat="46.401420" lon="10.498120">
                <time>2017-07-15T14:10:01Z</time>
            </trkpt>
            <trkpt lat="46.401560" lon="10.498060">
                <time>2017-07-15T14:10:02Z</time>
            </trkpt>
            <trkpt lat="46.401670" lon="10.498000">
                <time>2017-07-15T14:10:03Z</time>
            </trkpt>
            <trkpt lat="46.401810" lon="10.497910">
                <time>2017-07-15T14:10:04Z</time>
            </trkpt>
            <trkpt lat="46.401930" lon="10.497840">
                <time>2017-07-15T14:10:05Z</time>
            </trkpt>
            <trkpt lat="46.402050" lon="10.497770">
                <time>2017-07-15T14:10:06Z</time>
            </trkpt>
            <trkpt lat="46.402180" lon="10.497650">
                <time>2017-07-15T14:10:07Z</time>
            </trkpt>
            <trkpt lat="46.402280" lon="10.497540">
                <time>2017-07-15T14:10:08Z</time>
            </trkpt>
            <trkpt lat="46.402390" lon="10.497420">
                <time>2017-07-15T14:10:09Z</time>
            </trkpt>
            <trkpt lat="46.402500" lon="10.497300">
                <time>2017-07-15T14:10:10Z</time>
            </trkpt>
            <trkpt lat="46.402600" lon="10.497220">
                <time>2017-07-15T14:10:11Z</time>
            </trkpt>
            <trkpt lat="46.402720" lon="10.497150">
                <time>2017-07-15T14:10:12Z</time>
            </trkpt>
            <trkpt lat="46.402800" lon="10.497060">
                <time>2017-07-15T14:10:13Z</time>
            </trkpt>
            <trkpt lat="46.402870" lon="10.496940">
                <time>2017-07-15T14:10:14Z</time>
            </trkpt>
            <trkpt lat="46.402940" lon="10.496780">
                <time>2017-07-15T14:10:15Z</time>
            </trkpt>
            <trkpt lat="46.403020" lon="10.496650">
                <time>2017-07-15T14:10:16Z</time>
            </trkpt>
            <trkpt lat="46.403090" lon="10.496520">
                <time>2017-07-15T14:10:17Z</time>
            </trkpt>
            <trkpt lat="46.403180" lon="10.496410">
                <time>2017-07-15T14:10:18Z</time>
            </trkpt>
            <trkpt lat="46.403250" lon="10.496290">
                <time>2017-07-15T14:10:19Z</time>
            </trkpt>
            <trkpt lat="46.403340" lon="10.496210">
                <time>2017-07-15T14:10:20Z</time>
            </trkpt>
            <trkpt lat="46.403420" lon="10.496160">
                <time>2017-07-15T14:10:21Z</time>
            </trkpt>
            <trkpt lat="46.403510" lon="10.496120">
                <time>2017-07-15T14:10:22Z</time>
            </trkpt>
            <trkpt lat="46.403620" lon="10.496120">
                <time>2017-07-15T14:10:23Z</time>
            </trkpt>
            <trkpt lat="46.403710" lon="10.496120">
                <time>2017-07-15T14:10:24Z</time>
            </trkpt>
            <trkpt lat="46.403800" lon="10.496100">
                <time>2017-07-15T14:10:25Z</time>
            </trkpt>
            <trkpt lat="46.403880" lon="10.496030">
                <time>2017-07-15T14:10:26Z</time>
            </trkpt>
            <trkpt lat="46.403980" lon="10.495950">
                <time>2017-07-15T14:10:27Z</time>
            </trkpt>
            <trkpt lat="46.404090" lon="10.495820">
                <time>2017-07-15T14:10:28Z</time>
            </trkpt>
            <trkpt lat="46.404170" lon="10.495690">
                <time>2017-07-15T14:10:29Z</time>
            </trkpt>
            <trkpt lat="46.404260" lon="10.495550">
                <time>2017-07-15T14:10:30Z</time>
            </trkpt>
            <trkpt lat="46.404360" lon="10.495410">
                <time>2017-07-15T14:10:31Z</time>
            </trkpt>
            <trkpt lat="46.404450" lon="10.495310">
                <time>2017-07-15T14:10:32Z</time>
            </trkpt>
            <trkpt lat="46.404540" lon="10.495210">
                <time>2017-07-15T14:10:33Z</time>
            </trkpt>
            <trkpt lat="46.404630" lon="10.495110">
                <time>2017-07-15T14:10:34Z</time>
            </trkpt>
            <trkpt lat="46.404700" lon="10.495020">
                <time>2017-07-15T14:10:35Z</time>
            </trkpt>
            <trkpt lat="46.404800" lon="10.494950">
                <time>2017-07-15T14:10:36Z</time>
            </trkpt>
            <trkpt lat="46.404890" lon="10.494920">
                <time>2017-07-15T14:10:37Z</time>
            </trkpt>
            <trkpt lat="46.405000" lon="10.494880">
                <time>2017-07-15T14:10:38Z</time>
            </trkpt>
            <trkpt lat="46.405100" lon="10.494850">
                <time>2017-07-15T14:10:39Z</time>
            </trkpt>
            <trkpt lat="46.405180" lon="10.494800">
                <time>2017-07-15T14:10:40Z</time>
            </trkpt>
            <trkpt lat="46.405250" lon="10.494720">
                <time>2017-07-15T14:10:41Z</time>
            </trkpt>
            <trkpt lat="46.405340" lon="10.494640">
                <time>2017-07-15T14:10:42Z</time>
            </trkpt>
            <trkpt lat="46.405430" lon="10.494580">
                <time>2017-07-15T14:10:43Z</time>
            </trkpt>
            <trkpt lat="46.405530" lon="10.494510">
                <time>2017-07-15T14:10:44Z</time>
            </trkpt>
            <trkpt lat="46.405600" lon="10.494440">
                <time>2017-07-15T14:10:45Z</time>
            </trkpt>
            <trkpt lat="46.405670" lon="10.494360">
                <time>2017-07-15T14:10:46Z</time>
            </trkpt>
            <trkpt lat="46.405730" lon="10.494270">
                <time>2017-07-15T14:10:47Z</time>
            </trkpt>
            <trkpt lat="46.405750" lon="10.494180">
                <time>2017-07-15T14:10:48Z</time>
            </trkpt>
            <trkpt lat="46.405790" lon="10.494130">
                <time>2017-07-15T14:10:49Z</time>
            </trkpt>
            <trkpt lat="46.405820" lon="10.494100">
                <time>2017-07-15T14:10:50Z</time>
            </trkpt>
            <trkpt lat="46.405850" lon="10.494110">
                <time>2017-07-15T14:10:51Z</time>
            </trkpt>
            <trkpt lat="46.405860" lon="10.494170">
                <time>2017-07-15T14:10:52Z</time>
            </trkpt>
            <trkpt lat="46.405840" lon="10.494220">
                <time>2017-07-15T14:10:53Z</time>
            </trkpt>
            <trkpt lat="46.405800" lon="10.494290">
                <time>2017-07-15T14:10:54Z</time>
            </trkpt>
            <trkpt lat="46.405750" lon="10.494410">
                <time>2017-07-15T14:10:55Z</time>
            </trkpt>
            <trkpt lat="46.405690" lon="10.494520">
                <time>2017-07-15T14:10:56Z</time>
            </trkpt>
            <trkpt lat="46.405610" lon="10.494640">
                <time>2017-07-15T14:10:57Z</time>
            </trkpt>
            <trkpt lat="46.405530" lon="10.494760">
                <time>2017-07-15T14:10:58Z</time>
            </trkpt>
            <trkpt lat="46.405440" lon="10.494880">
                <time>2017-07-15T14:10:59Z</time>
            </trkpt>
            <trkpt lat="46.405340" lon="10.495010">
                <time>2017-07-15T14:11:00Z</time>
            </trkpt>
            <trkpt lat="46.405240" lon="10.495110">
                <time>2017-07-15T14:11:01Z</time>
            </trkpt>
            <trkpt lat="46.405150" lon="10.495210">
                <time>2017-07-15T14:11:02Z</time>
            </trkpt>
            <trkpt lat="46.405050" lon="10.495290">
                <time>2017-07-15T14:11:03Z</time>
            </trkpt>
            <trkpt lat="46.404990" lon="10.495370">
                <time>2017-07-15T14:11:04Z</time>
            </trkpt>
            <trkpt lat="46.404940" lon="10.495480">
                <time>2017-07-15T14:11:05Z</time>
            </trkpt>
            <trkpt lat="46.404900" lon="10.495620">
                <time>2017-07-15T14:11:06Z</time>
            </trkpt>
            <trkpt lat="46.404890" lon="10.495760">
                <time>2017-07-15T14:11:07Z</time>
            </trkpt>
            <trkpt lat="46.404880" lon="10.495930">
                <time>2017-07-15T14:11:08Z</time>
            </trkpt>
            <trkpt lat="46.404860" lon="10.496070">
                <time>2017-07-15T14:11:09Z</time>
            </trkpt>
            <trkpt lat="46.404810" lon="10.496210">
                <time>2017-07-15T14:11:10Z</time>
            </trkpt>
            <trkpt lat="46.404750" lon="10.496360">
                <time>2017-07-15T14:11:11Z</time>
            </trkpt>
            <trkpt lat="46.404700" lon="10.496500">
                <time>2017-07-15T14:11:12Z</time>
            </trkpt>
            <trkpt lat="46.404650" lon="10.496650">
                <time>2017-07-15T14:11:13Z</time>
            </trkpt>
            <trkpt lat="46.404590" lon="10.496800">
                <time>2017-07-15T14:11:14Z</time>
            </trkpt>
            <trkpt lat="46.404510" lon="10.496930">
                <time>2017-07-15T14:11:15Z</time>
            </trkpt>
            <trkpt lat="46.404420" lon="10.497060">
                <time>2017-07-15T14:11:16Z</time>
            </trkpt>
            <trkpt lat="46.404340" lon="10.497160">
                <time>2017-07-15T14:11:17Z</time>
            </trkpt>
            <trkpt lat="46.404260" lon="10.497270">
                <time>2017-07-15T14:11:18Z</time>
            </trkpt>
            <trkpt lat="46.404190" lon="10.497400">
                <time>2017-07-15T14:11:19Z</time>
            </trkpt>
            <trkpt lat="46.404140" lon="10.497540">
                <time>2017-07-15T14:11:20Z</time>
            </trkpt>
            <trkpt lat="46.404110" lon="10.497690">
                <time>2017-07-15T14:11:21Z</time>
            </trkpt>
            <trkpt lat="46.404060" lon="10.497850">
                <time>2017-07-15T14:11:22Z</time>
            </trkpt>
            <trkpt lat="46.403990" lon="10.497990">
                <time>2017-07-15T14:11:23Z</time>
            </trkpt>
            <trkpt lat="46.403920" lon="10.498140">
                <time>2017-07-15T14:11:24Z</time>
            </trkpt>
            <trkpt lat="46.403860" lon="10.498280">
                <time>2017-07-15T14:11:25Z</time>
            </trkpt>
            <trkpt lat="46.403810" lon="10.498430">
                <time>2017-07-15T14:11:26Z</time>
            </trkpt>
            <trkpt lat="46.403730" lon="10.498590">
                <time>2017-07-15T14:11:27Z</time>
            </trkpt>
            <trkpt lat="46.403660" lon="10.498710">
                <time>2017-07-15T14:11:28Z</time>
            </trkpt>
            <trkpt lat="46.403590" lon="10.498820">
                <time>2017-07-15T14:11:29Z</time>
            </trkpt>
            <trkpt lat="46.403520" lon="10.498890">
                <time>2017-07-15T14:11:30Z</time>
            </trkpt>
            <trkpt lat="46.403460" lon="10.498950">
                <time>2017-07-15T14:11:31Z</time>
            </trkpt>
            <trkpt lat="46.403450" lon="10.499020">
                <time>2017-07-15T14:11:32Z</time>
            </trkpt>
            <trkpt lat="46.403470" lon="10.499080">
                <time>2017-07-15T14:11:33Z</time>
            </trkpt>
            <trkpt lat="46.403500" lon="10.499110">
                <time>2017-07-15T14:11:34Z</time>
            </trkpt>
            <trkpt lat="46.403550" lon="10.499070">
                <time>2017-07-15T14:11:35Z</time>
            </trkpt>
            <trkpt lat="46.403610" lon="10.499000">
                <time>2017-07-15T14:11:36Z</time>
            </trkpt>
            <trkpt lat="46.403690" lon="10.498900">
                <time>2017-07-15T14:11:37Z</time>
            </trkpt>
            <trkpt lat="46.403790" lon="10.498780">
                <time>2017-07-15T14:11:38Z</time>
            </trkpt>
            <trkpt lat="46.403890" lon="10.498660">
                <time>2017-07-15T14:11:39Z</time>
            </trkpt>
            <trkpt lat="46.404010" lon="10.498520">
                <time>2017-07-15T14:11:40Z</time>
            </trkpt>
            <trkpt lat="46.404120" lon="10.498400">
                <time>2017-07-15T14:11:41Z</time>
            </trkpt>
            <trkpt lat="46.404240" lon="10.498270">
                <time>2017-07-15T14:11:42Z</time>
            </trkpt>
            <trkpt lat="46.404360" lon="10.498120">
                <time>2017-07-15T14:11:43Z</time>
            </trkpt>
            <trkpt lat="46.404470" lon="10.497990">
                <time>2017-07-15T14:11:44Z</time>
            </trkpt>
            <trkpt lat="46.404580" lon="10.497840">
                <time>2017-07-15T14:11:45Z</time>
            </trkpt>
            <trkpt lat="46.404690" lon="10.497700">
                <time>2017-07-15T14:11:46Z</time>
            </trkpt>
            <trkpt lat="46.404800" lon="10.497560">
                <time>2017-07-15T14:11:47Z</time>
            </trkpt>
            <trkpt lat="46.404940" lon="10.497460">
                <time>2017-07-15T14:11:48Z</time>
            </trkpt>
            <trkpt lat="46.405070" lon="10.497390">
                <time>2017-07-15T14:11:49Z</time>
            </trkpt>
            <trkpt lat="46.405210" lon="10.497330">
                <time>2017-07-15T14:11:50Z</time>
            </trkpt>
            <trkpt lat="46.405340" lon="10.497250">
                <time>2017-07-15T14:11:51Z</time>
            </trkpt>
            <trkpt lat="46.405450" lon="10.497170">
                <time>2017-07-15T14:11:52Z</time>
            </trkpt>
            <trkpt lat="46.405540" lon="10.497060">
                <time>2017-07-15T14:11:53Z</time>
            </trkpt>
            <trkpt lat="46.405610" lon="10.496930">
                <time>2017-07-15T14:11:54Z</time>
            </trkpt>
            <trkpt lat="46.405660" lon="10.496830">
                <time>2017-07-15T14:11:55Z</time>
            </trkpt>
            <trkpt lat="46.405700" lon="10.496740">
                <time>2017-07-15T14:11:56Z</time>
            </trkpt>
            <trkpt lat="46.405740" lon="10.496710">
                <time>2017-07-15T14:11:57Z</time>
            </trkpt>
            <trkpt lat="46.405770" lon="10.496720">
                <time>2017-07-15T14:11:58Z</time>
            </trkpt>
            <trkpt lat="46.405790" lon="10.496760">
                <time>2017-07-15T14:11:59Z</time>
            </trkpt>
            <trkpt lat="46.405780" lon="10.496820">
                <time>2017-07-15T14:12:00Z</time>
            </trkpt>
            <trkpt lat="46.405740" lon="10.496910">
                <time>2017-07-15T14:12:01Z</time>
            </trkpt>
            <trkpt lat="46.405690" lon="10.497010">
                <time>2017-07-15T14:12:02Z</time>
            </trkpt>
            <trkpt lat="46.405630" lon="10.497150">
                <time>2017-07-15T14:12:03Z</time>
            </trkpt>
            <trkpt lat="46.405570" lon="10.497300">
                <time>2017-07-15T14:12:04Z</time>
            </trkpt>
            <trkpt lat="46.405490" lon="10.497420">
                <time>2017-07-15T14:12:05Z</time>
            </trkpt>
            <trkpt lat="46.405410" lon="10.497540">
                <time>2017-07-15T14:12:06Z</time>
            </trkpt>
            <trkpt lat="46.405300" lon="10.497640">
                <time>2017-07-15T14:12:07Z</time>
            </trkpt>
            <trkpt lat="46.405200" lon="10.497740">
                <time>2017-07-15T14:12:08Z</time>
            </trkpt>
            <trkpt lat="46.405110" lon="10.497870">
                <time>2017-07-15T14:12:09Z</time>
            </trkpt>
            <trkpt lat="46.405030" lon="10.498050">
                <time>2017-07-15T14:12:10Z</time>
            </trkpt>
            <trkpt lat="46.404970" lon="10.498220">
                <time>2017-07-15T14:12:11Z</time>
            </trkpt>
            <trkpt lat="46.404870" lon="10.498400">
                <time>2017-07-15T14:12:12Z</time>
            </trkpt>
            <trkpt lat="46.404780" lon="10.498550">
                <time>2017-07-15T14:12:13Z</time>
            </trkpt>
            <trkpt lat="46.404670" lon="10.498690">
                <time>2017-07-15T14:12:14Z</time>
            </trkpt>
            <trkpt lat="46.404580" lon="10.498850">
                <time>2017-07-15T14:12:15Z</time>
            </trkpt>
            <trkpt lat="46.404510" lon="10.499010">
                <time>2017-07-15T14:12:16Z</time>
            </trkpt>
            <trkpt lat="46.404450" lon="10.499190">
                <time>2017-07-15T14:12:17Z</time>
            </trkpt>
            <trkpt lat="46.404410" lon="10.499360">
                <time>2017-07-15T14:12:18Z</time>
            </trkpt>
            <trkpt lat="46.404360" lon="10.499500">
                <time>2017-07-15T14:12:19Z</time>
            </trkpt>
            <trkpt lat="46.404310" lon="10.499640">
                <time>2017-07-15T14:12:20Z</time>
            </trkpt>
            <trkpt lat="46.404220" lon="10.499720">
                <time>2017-07-15T14:12:21Z</time>
            </trkpt>
            <trkpt lat="46.404120" lon="10.499800">
                <time>2017-07-15T14:12:22Z</time>
            </trkpt>
            <trkpt lat="46.404010" lon="10.499910">
                <time>2017-07-15T14:12:23Z</time>
            </trkpt>
            <trkpt lat="46.403910" lon="10.499990">
                <time>2017-07-15T14:12:24Z</time>
            </trkpt>
            <trkpt lat="46.403810" lon="10.500070">
                <time>2017-07-15T14:12:25Z</time>
            </trkpt>
            <trkpt lat="46.403710" lon="10.500130">
                <time>2017-07-15T14:12:26Z</time>
            </trkpt>
            <trkpt lat="46.403640" lon="10.500180">
                <time>2017-07-15T14:12:27Z</time>
            </trkpt>
            <trkpt lat="46.403580" lon="10.500240">
                <time>2017-07-15T14:12:28Z</time>
            </trkpt>
            <trkpt lat="46.403550" lon="10.500300">
                <time>2017-07-15T14:12:29Z</time>
            </trkpt>
            <trkpt lat="46.403550" lon="10.500360">
                <time>2017-07-15T14:12:30Z</time>
            </trkpt>
            <trkpt lat="46.403580" lon="10.500400">
                <time>2017-07-15T14:12:31Z</time>
            </trkpt>
            <trkpt lat="46.403630" lon="10.500380">
                <time>2017-07-15T14:12:32Z</time>
            </trkpt>
            <trkpt lat="46.403700" lon="10.500330">
                <time>2017-07-15T14:12:33Z</time>
            </trkpt>
            <trkpt lat="46.403790" lon="10.500260">
                <time>2017-07-15T14:12:34Z</time>
            </trkpt>
            <trkpt lat="46.403900" lon="10.500180">
                <time>2017-07-15T14:12:35Z</time>
            </trkpt>
            <trkpt lat="46.404030" lon="10.500100">
                <time>2017-07-15T14:12:36Z</time>
            </trkpt>
            <trkpt lat="46.404170" lon="10.500030">
                <time>2017-07-15T14:12:37Z</time>
            </trkpt>
            <trkpt lat="46.404300" lon="10.499990">
                <time>2017-07-15T14:12:38Z</time>
            </trkpt>
            <trkpt lat="46.404430" lon="10.499940">
                <time>2017-07-15T14:12:39Z</time>
            </trkpt>
            <trkpt lat="46.404540" lon="10.499890">
                <time>2017-07-15T14:12:40Z</time>
            </trkpt>
            <trkpt lat="46.404650" lon="10.499810">
                <time>2017-07-15T14:12:41Z</time>
            </trkpt>
            <trkpt lat="46.404730" lon="10.499680">
                <time>2017-07-15T14:12:42Z</time>
            </trkpt>
            <trkpt lat="46.404780" lon="10.499540">
                <time>2017-07-15T14:12:43Z</time>
            </trkpt>
            <trkpt lat="46.404830" lon="10.499380">
                <time>2017-07-15T14:12:44Z</time>
            </trkpt>
            <trkpt lat="46.404890" lon="10.499270">
                <time>2017-07-15T14:12:45Z</time>
            </trkpt>
            <trkpt lat="46.404970" lon="10.499160">
                <time>2017-07-15T14:12:46Z</time>
            </trkpt>
            <trkpt lat="46.405080" lon="10.499080">
                <time>2017-07-15T14:12:47Z</time>
            </trkpt>
            <trkpt lat="46.405190" lon="10.499020">
                <time>2017-07-15T14:12:48Z</time>
            </trkpt>
            <trkpt lat="46.405320" lon="10.498950">
                <time>2017-07-15T14:12:49Z</time>
            </trkpt>
            <trkpt lat="46.405450" lon="10.498870">
                <time>2017-07-15T14:12:50Z</time>
            </trkpt>
            <trkpt lat="46.405590" lon="10.498790">
                <time>2017-07-15T14:12:51Z</time>
            </trkpt>
            <trkpt lat="46.405720" lon="10.498710">
                <time>2017-07-15T14:12:52Z</time>
            </trkpt>
            <trkpt lat="46.405820" lon="10.498630">
                <time>2017-07-15T14:12:53Z</time>
            </trkpt>
            <trkpt lat="46.405910" lon="10.498500">
                <time>2017-07-15T14:12:54Z</time>
            </trkpt>
            <trkpt lat="46.406010" lon="10.498380">
                <time>2017-07-15T14:12:55Z</time>
            </trkpt>
            <trkpt lat="46.406110" lon="10.498280">
                <time>2017-07-15T14:12:56Z</time>
            </trkpt>
            <trkpt lat="46.406220" lon="10.498180">
                <time>2017-07-15T14:12:57Z</time>
            </trkpt>
            <trkpt lat="46.406340" lon="10.498040">
                <time>2017-07-15T14:12:58Z</time>
            </trkpt>
            <trkpt lat="46.406460" lon="10.497900">
                <time>2017-07-15T14:12:59Z</time>
            </trkpt>
            <trkpt lat="46.406580" lon="10.497750">
                <time>2017-07-15T14:13:00Z</time>
            </trkpt>
            <trkpt lat="46.406690" lon="10.497620">
                <time>2017-07-15T14:13:01Z</time>
            </trkpt>
            <trkpt lat="46.406780" lon="10.497490">
                <time>2017-07-15T14:13:02Z</time>
            </trkpt>
            <trkpt lat="46.406850" lon="10.497370">
                <time>2017-07-15T14:13:03Z</time>
            </trkpt>
            <trkpt lat="46.406910" lon="10.497280">
                <time>2017-07-15T14:13:04Z</time>
            </trkpt>
            <trkpt lat="46.406950" lon="10.497180">
                <time>2017-07-15T14:13:05Z</time>
            </trkpt>
            <trkpt lat="46.406960" lon="10.497080">
                <time>2017-07-15T14:13:06Z</time>
            </trkpt>
            <trkpt lat="46.406930" lon="10.496970">
                <time>2017-07-15T14:13:07Z</time>
            </trkpt>
            <trkpt lat="46.406900" lon="10.496860">
                <time>2017-07-15T14:13:08Z</time>
            </trkpt>
            <trkpt lat="46.406900" lon="10.496770">
                <time>2017-07-15T14:13:09Z</time>
            </trkpt>
            <trkpt lat="46.406920" lon="10.496700">
                <time>2017-07-15T14:13:10Z</time>
            </trkpt>
            <trkpt lat="46.406970" lon="10.496640">
                <time>2017-07-15T14:13:11Z</time>
            </trkpt>
            <trkpt lat="46.407040" lon="10.496610">
                <time>2017-07-15T14:13:12Z</time>
            </trkpt>
            <trkpt lat="46.407140" lon="10.496590">
                <time>2017-07-15T14:13:13Z</time>
            </trkpt>
            <trkpt lat="46.407270" lon="10.496570">
                <time>2017-07-15T14:13:14Z</time>
            </trkpt>
            <trkpt lat="46.407400" lon="10.496570">
                <time>2017-07-15T14:13:15Z</time>
            </trkpt>
            <trkpt lat="46.407560" lon="10.496530">
                <time>2017-07-15T14:13:16Z</time>
            </trkpt>
            <trkpt lat="46.407690" lon="10.496490">
                <time>2017-07-15T14:13:17Z</time>
            </trkpt>
            <trkpt lat="46.407830" lon="10.496410">
                <time>2017-07-15T14:13:18Z</time>
            </trkpt>
            <trkpt lat="46.407970" lon="10.496330">
                <time>2017-07-15T14:13:19Z</time>
            </trkpt>
            <trkpt lat="46.408080" lon="10.496220">
                <time>2017-07-15T14:13:20Z</time>
            </trkpt>
            <trkpt lat="46.408190" lon="10.496080">
                <time>2017-07-15T14:13:21Z</time>
            </trkpt>
            <trkpt lat="46.408300" lon="10.495950">
                <time>2017-07-15T14:13:22Z</time>
            </trkpt>
            <trkpt lat="46.408410" lon="10.495850">
                <time>2017-07-15T14:13:23Z</time>
            </trkpt>
            <trkpt lat="46.408530" lon="10.495770">
                <time>2017-07-15T14:13:24Z</time>
            </trkpt>
            <trkpt lat="46.408620" lon="10.495690">
                <time>2017-07-15T14:13:25Z</time>
            </trkpt>
            <trkpt lat="46.408710" lon="10.495570">
                <time>2017-07-15T14:13:26Z</time>
            </trkpt>
            <trkpt lat="46.408780" lon="10.495400">
                <time>2017-07-15T14:13:27Z</time>
            </trkpt>
            <trkpt lat="46.408830" lon="10.495220">
                <time>2017-07-15T14:13:28Z</time>
            </trkpt>
            <trkpt lat="46.408860" lon="10.495040">
                <time>2017-07-15T14:13:29Z</time>
            </trkpt>
            <trkpt lat="46.408900" lon="10.494860">
                <time>2017-07-15T14:13:30Z</time>
            </trkpt>
            <trkpt lat="46.408950" lon="10.494720">
                <time>2017-07-15T14:13:31Z</time>
            </trkpt>
            <trkpt lat="46.409020" lon="10.494570">
                <time>2017-07-15T14:13:32Z</time>
            </trkpt>
            <trkpt lat="46.409090" lon="10.494460">
                <time>2017-07-15T14:13:33Z</time>
            </trkpt>
            <trkpt lat="46.409170" lon="10.494330">
                <time>2017-07-15T14:13:34Z</time>
            </trkpt>
            <trkpt lat="46.409260" lon="10.494200">
                <time>2017-07-15T14:13:35Z</time>
            </trkpt>
            <trkpt lat="46.409360" lon="10.494070">
                <time>2017-07-15T14:13:36Z</time>
            </trkpt>
            <trkpt lat="46.409480" lon="10.493950">
                <time>2017-07-15T14:13:37Z</time>
            </trkpt>
            <trkpt lat="46.409600" lon="10.493850">
                <time>2017-07-15T14:13:38Z</time>
            </trkpt>
            <trkpt lat="46.409690" lon="10.493750">
                <time>2017-07-15T14:13:39Z</time>
            </trkpt>
            <trkpt lat="46.409760" lon="10.493690">
                <time>2017-07-15T14:13:40Z</time>
            </trkpt>
            <trkpt lat="46.409810" lon="10.493680">
                <time>2017-07-15T14:13:41Z</time>
            </trkpt>
            <trkpt lat="46.409850" lon="10.493710">
                <time>2017-07-15T14:13:42Z</time>
            </trkpt>
            <trkpt lat="46.409860" lon="10.493770">
                <time>2017-07-15T14:13:43Z</time>
            </trkpt>
            <trkpt lat="46.409830" lon="10.493820">
                <time>2017-07-15T14:13:44Z</time>
            </trkpt>
            <trkpt lat="46.409770" lon="10.493890">
                <time>2017-07-15T14:13:45Z</time>
            </trkpt>
            <trkpt lat="46.409690" lon="10.493990">
                <time>2017-07-15T14:13:46Z</time>
            </trkpt>
            <trkpt lat="46.409610" lon="10.494130">
                <time>2017-07-15T14:13:47Z</time>
            </trkpt>
            <trkpt lat="46.409520" lon="10.494300">
                <time>2017-07-15T14:13:48Z</time>
            </trkpt>
            <trkpt lat="46.409440" lon="10.494450">
                <time>2017-07-15T14:13:49Z</time>
            </trkpt>
            <trkpt lat="46.409370" lon="10.494610">
                <time>2017-07-15T14:13:50Z</time>
            </trkpt>
            <trkpt lat="46.409330" lon="10.494780">
                <time>2017-07-15T14:13:51Z</time>
            </trkpt>
            <trkpt lat="46.409300" lon="10.494950">
                <time>2017-07-15T14:13:52Z</time>
            </trkpt>
            <trkpt lat="46.409290" lon="10.495130">
                <time>2017-07-15T14:13:53Z</time>
            </trkpt>
            <trkpt lat="46.409280" lon="10.495330">
                <time>2017-07-15T14:13:54Z</time>
            </trkpt>
            <trkpt lat="46.409280" lon="10.495520">
                <time>2017-07-15T14:13:55Z</time>
            </trkpt>
            <trkpt lat="46.409270" lon="10.495710">
                <time>2017-07-15T14:13:56Z</time>
            </trkpt>
            <trkpt lat="46.409270" lon="10.495850">
                <time>2017-07-15T14:13:57Z</time>
            </trkpt>
            <trkpt lat="46.409230" lon="10.496000">
                <time>2017-07-15T14:13:58Z</time>
            </trkpt>
            <trkpt lat="46.409160" lon="10.496150">
                <time>2017-07-15T14:13:59Z</time>
            </trkpt>
            <trkpt lat="46.409080" lon="10.496280">
                <time>2017-07-15T14:14:00Z</time>
            </trkpt>
            <trkpt lat="46.409000" lon="10.496440">
                <time>2017-07-15T14:14:01Z</time>
            </trkpt>
            <trkpt lat="46.408900" lon="10.496610">
                <time>2017-07-15T14:14:02Z</time>
            </trkpt>
            <trkpt lat="46.408820" lon="10.496740">
                <time>2017-07-15T14:14:03Z</time>
            </trkpt>
            <trkpt lat="46.408760" lon="10.496910">
                <time>2017-07-15T14:14:04Z</time>
            </trkpt>
            <trkpt lat="46.408730" lon="10.497060">
                <time>2017-07-15T14:14:05Z</time>
            </trkpt>
            <trkpt lat="46.408700" lon="10.497220">
                <time>2017-07-15T14:14:06Z</time>
            </trkpt>
            <trkpt lat="46.408640" lon="10.497360">
                <time>2017-07-15T14:14:07Z</time>
            </trkpt>
            <trkpt lat="46.408580" lon="10.497470">
                <time>2017-07-15T14:14:08Z</time>
            </trkpt>
            <trkpt lat="46.408500" lon="10.497620">
                <time>2017-07-15T14:14:09Z</time>
            </trkpt>
            <trkpt lat="46.408440" lon="10.497780">
                <time>2017-07-15T14:14:10Z</time>
            </trkpt>
            <trkpt lat="46.408400" lon="10.497940">
                <time>2017-07-15T14:14:11Z</time>
            </trkpt>
            <trkpt lat="46.408370" lon="10.498110">
                <time>2017-07-15T14:14:12Z</time>
            </trkpt>
            <trkpt lat="46.408340" lon="10.498220">
                <time>2017-07-15T14:14:13Z</time>
            </trkpt>
            <trkpt lat="46.408320" lon="10.498320">
                <time>2017-07-15T14:14:14Z</time>
            </trkpt>
            <trkpt lat="46.408340" lon="10.498400">
                <time>2017-07-15T14:14:15Z</time>
            </trkpt>
            <trkpt lat="46.408390" lon="10.498420">
                <time>2017-07-15T14:14:16Z</time>
            </trkpt>
            <trkpt lat="46.408470" lon="10.498400">
                <time>2017-07-15T14:14:17Z</time>
            </trkpt>
            <trkpt lat="46.408560" lon="10.498320">
                <time>2017-07-15T14:14:18Z</time>
            </trkpt>
            <trkpt lat="46.408650" lon="10.498230">
                <time>2017-07-15T14:14:19Z</time>
            </trkpt>
            <trkpt lat="46.408750" lon="10.498130">
                <time>2017-07-15T14:14:20Z</time>
            </trkpt>
            <trkpt lat="46.408840" lon="10.498030">
                <time>2017-07-15T14:14:21Z</time>
            </trkpt>
            <trkpt lat="46.408930" lon="10.497920">
                <time>2017-07-15T14:14:22Z</time>
            </trkpt>
            <trkpt lat="46.409010" lon="10.497800">
                <time>2017-07-15T14:14:23Z</time>
            </trkpt>
            <trkpt lat="46.409090" lon="10.497690">
                <time>2017-07-15T14:14:24Z</time>
            </trkpt>
            <trkpt lat="46.409170" lon="10.497580">
                <time>2017-07-15T14:14:25Z</time>
            </trkpt>
            <trkpt lat="46.409260" lon="10.497480">
                <time>2017-07-15T14:14:26Z</time>
            </trkpt>
            <trkpt lat="46.409350" lon="10.497390">
                <time>2017-07-15T14:14:27Z</time>
            </trkpt>
            <trkpt lat="46.409450" lon="10.497320">
                <time>2017-07-15T14:14:28Z</time>
            </trkpt>
            <trkpt lat="46.409550" lon="10.497270">
                <time>2017-07-15T14:14:29Z</time>
            </trkpt>
            <trkpt lat="46.409650" lon="10.497220">
                <time>2017-07-15T14:14:30Z</time>
            </trkpt>
            <trkpt lat="46.409740" lon="10.497160">
                <time>2017-07-15T14:14:31Z</time>
            </trkpt>
            <trkpt lat="46.409810" lon="10.497090">
                <time>2017-07-15T14:14:32Z</time>
            </trkpt>
            <trkpt lat="46.409880" lon="10.497000">
                <time>2017-07-15T14:14:33Z</time>
            </trkpt>
            <trkpt lat="46.409920" lon="10.496870">
                <time>2017-07-15T14:14:34Z</time>
            </trkpt>
            <trkpt lat="46.409950" lon="10.496750">
                <time>2017-07-15T14:14:35Z</time>
            </trkpt>
            <trkpt lat="46.409980" lon="10.496600">
                <time>2017-07-15T14:14:36Z</time>
            </trkpt>
            <trkpt lat="46.410000" lon="10.496480">
                <time>2017-07-15T14:14:37Z</time>
            </trkpt>
            <trkpt lat="46.410040" lon="10.496360">
                <time>2017-07-15T14:14:38Z</time>
            </trkpt>
            <trkpt lat="46.410090" lon="10.496220">
                <time>2017-07-15T14:14:39Z</time>
            </trkpt>
            <trkpt lat="46.410140" lon="10.496120">
                <time>2017-07-15T14:14:40Z</time>
            </trkpt>
            <trkpt lat="46.410210" lon="10.496020">
                <time>2017-07-15T14:14:41Z</time>
            </trkpt>
            <trkpt lat="46.410280" lon="10.495920">
                <time>2017-07-15T14:14:42Z</time>
            </trkpt>
            <trkpt lat="46.410360" lon="10.495830">
                <time>2017-07-15T14:14:43Z</time>
            </trkpt>
            <trkpt lat="46.410450" lon="10.495750">
                <time>2017-07-15T14:14:44Z</time>
            </trkpt>
            <trkpt lat="46.410530" lon="10.495670">
                <time>2017-07-15T14:14:45Z</time>
            </trkpt>
            <trkpt lat="46.410780" lon="10.495420">
                <time>2017-07-15T14:14:48Z</time>
            </trkpt>
            <trkpt lat="46.410920" lon="10.495370">
                <time>2017-07-15T14:14:49Z</time>
            </trkpt>
            <trkpt lat="46.411010" lon="10.495280">
                <time>2017-07-15T14:14:50Z</time>
            </trkpt>
            <trkpt lat="46.411080" lon="10.495210">
                <time>2017-07-15T14:14:51Z</time>
            </trkpt>
            <trkpt lat="46.411170" lon="10.495140">
                <time>2017-07-15T14:14:52Z</time>
            </trkpt>
            <trkpt lat="46.411250" lon="10.495070">
                <time>2017-07-15T14:14:53Z</time>
            </trkpt>
            <trkpt lat="46.411330" lon="10.494990">
                <time>2017-07-15T14:14:54Z</time>
            </trkpt>
            <trkpt lat="46.411420" lon="10.494900">
                <time>2017-07-15T14:14:55Z</time>
            </trkpt>
            <trkpt lat="46.411500" lon="10.494830">
                <time>2017-07-15T14:14:56Z</time>
            </trkpt>
            <trkpt lat="46.411580" lon="10.494750">
                <time>2017-07-15T14:14:57Z</time>
            </trkpt>
            <trkpt lat="46.411650" lon="10.494680">
                <time>2017-07-15T14:14:58Z</time>
            </trkpt>
            <trkpt lat="46.411720" lon="10.494610">
                <time>2017-07-15T14:14:59Z</time>
            </trkpt>
            <trkpt lat="46.411790" lon="10.494550">
                <time>2017-07-15T14:15:00Z</time>
            </trkpt>
            <trkpt lat="46.411850" lon="10.494480">
                <time>2017-07-15T14:15:01Z</time>
            </trkpt>
            <trkpt lat="46.411900" lon="10.494400">
                <time>2017-07-15T14:15:02Z</time>
            </trkpt>
            <trkpt lat="46.411940" lon="10.494330">
                <time>2017-07-15T14:15:03Z</time>
            </trkpt>
            <trkpt lat="46.411980" lon="10.494270">
                <time>2017-07-15T14:15:04Z</time>
            </trkpt>
            <trkpt lat="46.412030" lon="10.494200">
                <time>2017-07-15T14:15:05Z</time>
            </trkpt>
            <trkpt lat="46.412100" lon="10.494110">
                <time>2017-07-15T14:15:06Z</time>
            </trkpt>
            <trkpt lat="46.412150" lon="10.494020">
                <time>2017-07-15T14:15:07Z</time>
            </trkpt>
            <trkpt lat="46.412200" lon="10.493900">
                <time>2017-07-15T14:15:08Z</time>
            </trkpt>
            <trkpt lat="46.412240" lon="10.493790">
                <time>2017-07-15T14:15:09Z</time>
            </trkpt>
            <trkpt lat="46.412290" lon="10.493670">
                <time>2017-07-15T14:15:10Z</time>
            </trkpt>
            <trkpt lat="46.412350" lon="10.493550">
                <time>2017-07-15T14:15:11Z</time>
            </trkpt>
            <trkpt lat="46.412400" lon="10.493450">
                <time>2017-07-15T14:15:12Z</time>
            </trkpt>
            <trkpt lat="46.412450" lon="10.493340">
                <time>2017-07-15T14:15:13Z</time>
            </trkpt>
            <trkpt lat="46.412500" lon="10.493240">
                <time>2017-07-15T14:15:14Z</time>
            </trkpt>
            <trkpt lat="46.412540" lon="10.493140">
                <time>2017-07-15T14:15:15Z</time>
            </trkpt>
            <trkpt lat="46.412570" lon="10.493020">
                <time>2017-07-15T14:15:16Z</time>
            </trkpt>
            <trkpt lat="46.412600" lon="10.492930">
                <time>2017-07-15T14:15:17Z</time>
            </trkpt>
            <trkpt lat="46.412620" lon="10.492830">
                <time>2017-07-15T14:15:18Z</time>
            </trkpt>
            <trkpt lat="46.412650" lon="10.492740">
                <time>2017-07-15T14:15:19Z</time>
            </trkpt>
            <trkpt lat="46.412670" lon="10.492660">
                <time>2017-07-15T14:15:20Z</time>
            </trkpt>
            <trkpt lat="46.412700" lon="10.492590">
                <time>2017-07-15T14:15:21Z</time>
            </trkpt>
            <trkpt lat="46.412710" lon="10.492520">
                <time>2017-07-15T14:15:22Z</time>
            </trkpt>
            <trkpt lat="46.412730" lon="10.492470">
                <time>2017-07-15T14:15:23Z</time>
            </trkpt>
            <trkpt lat="46.412750" lon="10.492400">
                <time>2017-07-15T14:15:24Z</time>
            </trkpt>
            <trkpt lat="46.412770" lon="10.492340">
                <time>2017-07-15T14:15:25Z</time>
            </trkpt>
            <trkpt lat="46.412790" lon="10.492280">
                <time>2017-07-15T14:15:26Z</time>
            </trkpt>
            <trkpt lat="46.412810" lon="10.492210">
                <time>2017-07-15T14:15:27Z</time>
            </trkpt>
            <trkpt lat="46.412810" lon="10.492160">
                <time>2017-07-15T14:15:28Z</time>
            </trkpt>
            <trkpt lat="46.412800" lon="10.492120">
                <time>2017-07-15T14:15:29Z</time>
            </trkpt>
            <trkpt lat="46.412770" lon="10.492100">
                <time>2017-07-15T14:15:30Z</time>
            </trkpt>
            <trkpt lat="46.412740" lon="10.492100">
                <time>2017-07-15T14:15:31Z</time>
            </trkpt>
            <trkpt lat="46.412740" lon="10.492130">
                <time>2017-07-15T14:15:32Z</time>
            </trkpt>
            <trkpt lat="46.412740" lon="10.492140">
                <time>2017-07-15T14:15:33Z</time>
            </trkpt>
            <trkpt lat="46.412750" lon="10.492150">
                <time>2017-07-15T14:15:34Z</time>
            </trkpt>
            <trkpt lat="46.412750" lon="10.492160">
                <time>2017-07-15T14:15:35Z</time>
            </trkpt>
            <trkpt lat="46.412750" lon="10.492170">
                <time>2017-07-15T14:15:36Z</time>
            </trkpt>
            <trkpt lat="46.412760" lon="10.492170">
                <time>2017-07-15T14:15:37Z</time>
            </trkpt>
            <trkpt lat="46.412760" lon="10.492190">
                <time>2017-07-15T14:15:38Z</time>
            </trkpt>
            <trkpt lat="46.412750" lon="10.492220">
                <time>2017-07-15T14:15:39Z</time>
            </trkpt>
            <trkpt lat="46.412750" lon="10.492270">
                <time>2017-07-15T14:15:40Z</time>
            </trkpt>
            <trkpt lat="46.412730" lon="10.492330">
                <time>2017-07-15T14:15:41Z</time>
            </trkpt>
            <trkpt lat="46.412710" lon="10.492400">
                <time>2017-07-15T14:15:42Z</time>
            </trkpt>
            <trkpt lat="46.412680" lon="10.492490">
                <time>2017-07-15T14:15:43Z</time>
            </trkpt>
            <trkpt lat="46.412660" lon="10.492560">
                <time>2017-07-15T14:15:44Z</time>
            </trkpt>
            <trkpt lat="46.412640" lon="10.492630">
                <time>2017-07-15T14:15:45Z</time>
            </trkpt>
            <trkpt lat="46.412610" lon="10.492710">
                <time>2017-07-15T14:15:46Z</time>
            </trkpt>
            <trkpt lat="46.412580" lon="10.492800">
                <time>2017-07-15T14:15:47Z</time>
            </trkpt>
            <trkpt lat="46.412560" lon="10.492900">
                <time>2017-07-15T14:15:48Z</time>
            </trkpt>
            <trkpt lat="46.412530" lon="10.492990">
                <time>2017-07-15T14:15:49Z</time>
            </trkpt>
            <trkpt lat="46.412510" lon="10.493080">
                <time>2017-07-15T14:15:50Z</time>
            </trkpt>
            <trkpt lat="46.412470" lon="10.493190">
                <time>2017-07-15T14:15:51Z</time>
            </trkpt>
            <trkpt lat="46.412440" lon="10.493290">
                <time>2017-07-15T14:15:52Z</time>
            </trkpt>
            <trkpt lat="46.412390" lon="10.493380">
                <time>2017-07-15T14:15:53Z</time>
            </trkpt>
            <trkpt lat="46.412350" lon="10.493480">
                <time>2017-07-15T14:15:54Z</time>
            </trkpt>
            <trkpt lat="46.412300" lon="10.493570">
                <time>2017-07-15T14:15:55Z</time>
            </trkpt>
            <trkpt lat="46.412260" lon="10.493690">
                <time>2017-07-15T14:15:56Z</time>
            </trkpt>
            <trkpt lat="46.412220" lon="10.493780">
                <time>2017-07-15T14:15:57Z</time>
            </trkpt>
            <trkpt lat="46.412180" lon="10.493890">
                <time>2017-07-15T14:15:58Z</time>
            </trkpt>
            <trkpt lat="46.412130" lon="10.493990">
                <time>2017-07-15T14:15:59Z</time>
            </trkpt>
            <trkpt lat="46.412090" lon="10.494080">
                <time>2017-07-15T14:16:00Z</time>
            </trkpt>
            <trkpt lat="46.412030" lon="10.494160">
                <time>2017-07-15T14:16:01Z</time>
            </trkpt>
            <trkpt lat="46.411980" lon="10.494230">
                <time>2017-07-15T14:16:02Z</time>
            </trkpt>
            <trkpt lat="46.411930" lon="10.494290">
                <time>2017-07-15T14:16:03Z</time>
            </trkpt>
            <trkpt lat="46.411890" lon="10.494350">
                <time>2017-07-15T14:16:04Z</time>
            </trkpt>
            <trkpt lat="46.411860" lon="10.494400">
                <time>2017-07-15T14:16:05Z</time>
            </trkpt>
            <trkpt lat="46.411850" lon="10.494420">
                <time>2017-07-15T14:16:06Z</time>
            </trkpt>
            <trkpt lat="46.411840" lon="10.494450">
                <time>2017-07-15T14:16:07Z</time>
            </trkpt>
            <trkpt lat="46.411830" lon="10.494470">
                <time>2017-07-15T14:16:08Z</time>
            </trkpt>
            <trkpt lat="46.411840" lon="10.494500">
                <time>2017-07-15T14:16:09Z</time>
            </trkpt>
            <trkpt lat="46.411870" lon="10.494530">
                <time>2017-07-15T14:16:10Z</time>
            </trkpt>
            <trkpt lat="46.411900" lon="10.494540">
                <time>2017-07-15T14:16:11Z</time>
            </trkpt>
            <trkpt lat="46.411940" lon="10.494540">
                <time>2017-07-15T14:16:12Z</time>
            </trkpt>
            <trkpt lat="46.411990" lon="10.494530">
                <time>2017-07-15T14:16:13Z</time>
            </trkpt>
            <trkpt lat="46.412040" lon="10.494500">
                <time>2017-07-15T14:16:14Z</time>
            </trkpt>
            <trkpt lat="46.412100" lon="10.494480">
                <time>2017-07-15T14:16:15Z</time>
            </trkpt>
            <trkpt lat="46.412160" lon="10.494470">
                <time>2017-07-15T14:16:16Z</time>
            </trkpt>
            <trkpt lat="46.412220" lon="10.494440">
                <time>2017-07-15T14:16:17Z</time>
            </trkpt>
            <trkpt lat="46.412280" lon="10.494420">
                <time>2017-07-15T14:16:18Z</time>
            </trkpt>
            <trkpt lat="46.412340" lon="10.494380">
                <time>2017-07-15T14:16:19Z</time>
            </trkpt>
            <trkpt lat="46.412410" lon="10.494320">
                <time>2017-07-15T14:16:20Z</time>
            </trkpt>
            <trkpt lat="46.412460" lon="10.494250">
                <time>2017-07-15T14:16:21Z</time>
            </trkpt>
            <trkpt lat="46.412510" lon="10.494170">
                <time>2017-07-15T14:16:22Z</time>
            </trkpt>
            <trkpt lat="46.412570" lon="10.494080">
                <time>2017-07-15T14:16:23Z</time>
            </trkpt>
            <trkpt lat="46.412620" lon="10.494000">
                <time>2017-07-15T14:16:24Z</time>
            </trkpt>
            <trkpt lat="46.412670" lon="10.493910">
                <time>2017-07-15T14:16:25Z</time>
            </trkpt>
            <trkpt lat="46.412730" lon="10.493810">
                <time>2017-07-15T14:16:26Z</time>
            </trkpt>
            <trkpt lat="46.412780" lon="10.493700">
                <time>2017-07-15T14:16:27Z</time>
            </trkpt>
            <trkpt lat="46.412840" lon="10.493590">
                <time>2017-07-15T14:16:28Z</time>
            </trkpt>
            <trkpt lat="46.412890" lon="10.493470">
                <time>2017-07-15T14:16:29Z</time>
            </trkpt>
            <trkpt lat="46.412950" lon="10.493360">
                <time>2017-07-15T14:16:30Z</time>
            </trkpt>
            <trkpt lat="46.413020" lon="10.493220">
                <time>2017-07-15T14:16:31Z</time>
            </trkpt>
            <trkpt lat="46.413090" lon="10.493110">
                <time>2017-07-15T14:16:32Z</time>
            </trkpt>
            <trkpt lat="46.413160" lon="10.492970">
                <time>2017-07-15T14:16:33Z</time>
            </trkpt>
            <trkpt lat="46.413220" lon="10.492840">
                <time>2017-07-15T14:16:34Z</time>
            </trkpt>
            <trkpt lat="46.413300" lon="10.492700">
                <time>2017-07-15T14:16:35Z</time>
            </trkpt>
            <trkpt lat="46.413380" lon="10.492550">
                <time>2017-07-15T14:16:36Z</time>
            </trkpt>
            <trkpt lat="46.413450" lon="10.492410">
                <time>2017-07-15T14:16:37Z</time>
            </trkpt>
            <trkpt lat="46.413530" lon="10.492250">
                <time>2017-07-15T14:16:38Z</time>
            </trkpt>
            <trkpt lat="46.413620" lon="10.492090">
                <time>2017-07-15T14:16:39Z</time>
            </trkpt>
            <trkpt lat="46.413690" lon="10.491940">
                <time>2017-07-15T14:16:40Z</time>
            </trkpt>
            <trkpt lat="46.413780" lon="10.491770">
                <time>2017-07-15T14:16:41Z</time>
            </trkpt>
            <trkpt lat="46.413870" lon="10.491600">
                <time>2017-07-15T14:16:42Z</time>
            </trkpt>
            <trkpt lat="46.413950" lon="10.491450">
                <time>2017-07-15T14:16:43Z</time>
            </trkpt>
            <trkpt lat="46.414050" lon="10.491280">
                <time>2017-07-15T14:16:44Z</time>
            </trkpt>
            <trkpt lat="46.414120" lon="10.491140">
                <time>2017-07-15T14:16:45Z</time>
            </trkpt>
            <trkpt lat="46.414190" lon="10.490990">
                <time>2017-07-15T14:16:46Z</time>
            </trkpt>
            <trkpt lat="46.414270" lon="10.490850">
                <time>2017-07-15T14:16:47Z</time>
            </trkpt>
            <trkpt lat="46.414320" lon="10.490710">
                <time>2017-07-15T14:16:48Z</time>
            </trkpt>
            <trkpt lat="46.414370" lon="10.490550">
                <time>2017-07-15T14:16:49Z</time>
            </trkpt>
            <trkpt lat="46.414400" lon="10.490380">
                <time>2017-07-15T14:16:50Z</time>
            </trkpt>
            <trkpt lat="46.414410" lon="10.490190">
                <time>2017-07-15T14:16:51Z</time>
            </trkpt>
            <trkpt lat="46.414420" lon="10.489980">
                <time>2017-07-15T14:16:52Z</time>
            </trkpt>
            <trkpt lat="46.414430" lon="10.489800">
                <time>2017-07-15T14:16:53Z</time>
            </trkpt>
            <trkpt lat="46.414430" lon="10.489610">
                <time>2017-07-15T14:16:54Z</time>
            </trkpt>
            <trkpt lat="46.414440" lon="10.489410">
                <time>2017-07-15T14:16:55Z</time>
            </trkpt>
            <trkpt lat="46.414470" lon="10.489230">
                <time>2017-07-15T14:16:56Z</time>
            </trkpt>
            <trkpt lat="46.414510" lon="10.489070">
                <time>2017-07-15T14:16:57Z</time>
            </trkpt>
            <trkpt lat="46.414570" lon="10.488900">
                <time>2017-07-15T14:16:58Z</time>
            </trkpt>
            <trkpt lat="46.414630" lon="10.488770">
                <time>2017-07-15T14:16:59Z</time>
            </trkpt>
            <trkpt lat="46.414720" lon="10.488630">
                <time>2017-07-15T14:17:00Z</time>
            </trkpt>
            <trkpt lat="46.414800" lon="10.488530">
                <time>2017-07-15T14:17:01Z</time>
            </trkpt>
            <trkpt lat="46.414880" lon="10.488450">
                <time>2017-07-15T14:17:02Z</time>
            </trkpt>
            <trkpt lat="46.414970" lon="10.488380">
                <time>2017-07-15T14:17:03Z</time>
            </trkpt>
            <trkpt lat="46.415060" lon="10.488310">
                <time>2017-07-15T14:17:04Z</time>
            </trkpt>
            <trkpt lat="46.415140" lon="10.488230">
                <time>2017-07-15T14:17:05Z</time>
            </trkpt>
            <trkpt lat="46.415220" lon="10.488140">
                <time>2017-07-15T14:17:06Z</time>
            </trkpt>
            <trkpt lat="46.415290" lon="10.488050">
                <time>2017-07-15T14:17:07Z</time>
            </trkpt>
            <trkpt lat="46.415380" lon="10.487940">
                <time>2017-07-15T14:17:08Z</time>
            </trkpt>
            <trkpt lat="46.415470" lon="10.487870">
                <time>2017-07-15T14:17:09Z</time>
            </trkpt>
            <trkpt lat="46.415570" lon="10.487800">
                <time>2017-07-15T14:17:10Z</time>
            </trkpt>
            <trkpt lat="46.415670" lon="10.487740">
                <time>2017-07-15T14:17:11Z</time>
            </trkpt>
            <trkpt lat="46.415760" lon="10.487660">
                <time>2017-07-15T14:17:12Z</time>
            </trkpt>
            <trkpt lat="46.415850" lon="10.487570">
                <time>2017-07-15T14:17:13Z</time>
            </trkpt>
            <trkpt lat="46.415930" lon="10.487440">
                <time>2017-07-15T14:17:14Z</time>
            </trkpt>
            <trkpt lat="46.415990" lon="10.487330">
                <time>2017-07-15T14:17:15Z</time>
            </trkpt>
            <trkpt lat="46.416050" lon="10.487190">
                <time>2017-07-15T14:17:16Z</time>
            </trkpt>
            <trkpt lat="46.416110" lon="10.487050">
                <time>2017-07-15T14:17:17Z</time>
            </trkpt>
            <trkpt lat="46.416160" lon="10.486900">
                <time>2017-07-15T14:17:18Z</time>
            </trkpt>
            <trkpt lat="46.416210" lon="10.486720">
                <time>2017-07-15T14:17:19Z</time>
            </trkpt>
            <trkpt lat="46.416260" lon="10.486560">
                <time>2017-07-15T14:17:20Z</time>
            </trkpt>
            <trkpt lat="46.416300" lon="10.486380">
                <time>2017-07-15T14:17:21Z</time>
            </trkpt>
            <trkpt lat="46.416340" lon="10.486200">
                <time>2017-07-15T14:17:22Z</time>
            </trkpt>
            <trkpt lat="46.416380" lon="10.486020">
                <time>2017-07-15T14:17:23Z</time>
            </trkpt>
            <trkpt lat="46.416420" lon="10.485840">
                <time>2017-07-15T14:17:24Z</time>
            </trkpt>
            <trkpt lat="46.416460" lon="10.485680">
                <time>2017-07-15T14:17:25Z</time>
            </trkpt>
            <trkpt lat="46.416520" lon="10.485550">
                <time>2017-07-15T14:17:26Z</time>
            </trkpt>
            <trkpt lat="46.416600" lon="10.485410">
                <time>2017-07-15T14:17:27Z</time>
            </trkpt>
            <trkpt lat="46.416690" lon="10.485290">
                <time>2017-07-15T14:17:28Z</time>
            </trkpt>
            <trkpt lat="46.416780" lon="10.485160">
                <time>2017-07-15T14:17:29Z</time>
            </trkpt>
            <trkpt lat="46.416870" lon="10.485030">
                <time>2017-07-15T14:17:30Z</time>
            </trkpt>
            <trkpt lat="46.416950" lon="10.484900">
                <time>2017-07-15T14:17:31Z</time>
            </trkpt>
            <trkpt lat="46.417030" lon="10.484780">
                <time>2017-07-15T14:17:32Z</time>
            </trkpt>
            <trkpt lat="46.417120" lon="10.484670">
                <time>2017-07-15T14:17:33Z</time>
            </trkpt>
            <trkpt lat="46.417230" lon="10.484560">
                <time>2017-07-15T14:17:34Z</time>
            </trkpt>
            <trkpt lat="46.417350" lon="10.484460">
                <time>2017-07-15T14:17:35Z</time>
            </trkpt>
            <trkpt lat="46.417450" lon="10.484350">
                <time>2017-07-15T14:17:36Z</time>
            </trkpt>
            <trkpt lat="46.417530" lon="10.484210">
                <time>2017-07-15T14:17:37Z</time>
            </trkpt>
            <trkpt lat="46.417600" lon="10.484050">
                <time>2017-07-15T14:17:38Z</time>
            </trkpt>
            <trkpt lat="46.417650" lon="10.483870">
                <time>2017-07-15T14:17:39Z</time>
            </trkpt>
            <trkpt lat="46.417710" lon="10.483680">
                <time>2017-07-15T14:17:40Z</time>
            </trkpt>
            <trkpt lat="46.417760" lon="10.483530">
                <time>2017-07-15T14:17:41Z</time>
            </trkpt>
            <trkpt lat="46.417840" lon="10.483410">
                <time>2017-07-15T14:17:42Z</time>
            </trkpt>
            <trkpt lat="46.417920" lon="10.483280">
                <time>2017-07-15T14:17:43Z</time>
            </trkpt>
            <trkpt lat="46.418000" lon="10.483180">
                <time>2017-07-15T14:17:44Z</time>
            </trkpt>
            <trkpt lat="46.418080" lon="10.483060">
                <time>2017-07-15T14:17:45Z</time>
            </trkpt>
            <trkpt lat="46.418150" lon="10.482950">
                <time>2017-07-15T14:17:46Z</time>
            </trkpt>
            <trkpt lat="46.418190" lon="10.482870">
                <time>2017-07-15T14:17:47Z</time>
            </trkpt>
            <trkpt lat="46.418240" lon="10.482780">
                <time>2017-07-15T14:17:48Z</time>
            </trkpt>
            <trkpt lat="46.418280" lon="10.482710">
                <time>2017-07-15T14:17:49Z</time>
            </trkpt>
            <trkpt lat="46.418310" lon="10.482630">
                <time>2017-07-15T14:17:50Z</time>
            </trkpt>
            <trkpt lat="46.418340" lon="10.482550">
                <time>2017-07-15T14:17:51Z</time>
            </trkpt>
            <trkpt lat="46.418370" lon="10.482480">
                <time>2017-07-15T14:17:52Z</time>
            </trkpt>
            <trkpt lat="46.418410" lon="10.482390">
                <time>2017-07-15T14:17:53Z</time>
            </trkpt>
            <trkpt lat="46.418450" lon="10.482300">
                <time>2017-07-15T14:17:54Z</time>
            </trkpt>
            <trkpt lat="46.418500" lon="10.482210">
                <time>2017-07-15T14:17:55Z</time>
            </trkpt>
            <trkpt lat="46.418550" lon="10.482110">
                <time>2017-07-15T14:17:56Z</time>
            </trkpt>
            <trkpt lat="46.418600" lon="10.482020">
                <time>2017-07-15T14:17:57Z</time>
            </trkpt>
            <trkpt lat="46.418650" lon="10.481920">
                <time>2017-07-15T14:17:58Z</time>
            </trkpt>
            <trkpt lat="46.418690" lon="10.481810">
                <time>2017-07-15T14:17:59Z</time>
            </trkpt>
            <trkpt lat="46.418720" lon="10.481710">
                <time>2017-07-15T14:18:00Z</time>
            </trkpt>
            <trkpt lat="46.418740" lon="10.481560">
                <time>2017-07-15T14:18:01Z</time>
            </trkpt>
            <trkpt lat="46.418750" lon="10.481370">
                <time>2017-07-15T14:18:02Z</time>
            </trkpt>
            <trkpt lat="46.418750" lon="10.481160">
                <time>2017-07-15T14:18:03Z</time>
            </trkpt>
            <trkpt lat="46.418740" lon="10.480880">
                <time>2017-07-15T14:18:04Z</time>
            </trkpt>
            <trkpt lat="46.418740" lon="10.480600">
                <time>2017-07-15T14:18:05Z</time>
            </trkpt>
            <trkpt lat="46.418740" lon="10.480280">
                <time>2017-07-15T14:18:06Z</time>
            </trkpt>
            <trkpt lat="46.418760" lon="10.479970">
                <time>2017-07-15T14:18:07Z</time>
            </trkpt>
            <trkpt lat="46.418780" lon="10.479730">
                <time>2017-07-15T14:18:08Z</time>
            </trkpt>
            <trkpt lat="46.418800" lon="10.479500">
                <time>2017-07-15T14:18:09Z</time>
            </trkpt>
            <trkpt lat="46.418810" lon="10.479280">
                <time>2017-07-15T14:18:10Z</time>
            </trkpt>
            <trkpt lat="46.418830" lon="10.479090">
                <time>2017-07-15T14:18:11Z</time>
            </trkpt>
            <trkpt lat="46.418840" lon="10.478890">
                <time>2017-07-15T14:18:12Z</time>
            </trkpt>
            <trkpt lat="46.418860" lon="10.478740">
                <time>2017-07-15T14:18:13Z</time>
            </trkpt>
            <trkpt lat="46.418890" lon="10.478590">
                <time>2017-07-15T14:18:14Z</time>
            </trkpt>
            <trkpt lat="46.418920" lon="10.478450">
                <time>2017-07-15T14:18:15Z</time>
            </trkpt>
            <trkpt lat="46.418950" lon="10.478330">
                <time>2017-07-15T14:18:16Z</time>
            </trkpt>
            <trkpt lat="46.418980" lon="10.478210">
                <time>2017-07-15T14:18:17Z</time>
            </trkpt>
            <trkpt lat="46.419030" lon="10.478090">
                <time>2017-07-15T14:18:18Z</time>
            </trkpt>
            <trkpt lat="46.419080" lon="10.477980">
                <time>2017-07-15T14:18:19Z</time>
            </trkpt>
            <trkpt lat="46.419140" lon="10.477850">
                <time>2017-07-15T14:18:20Z</time>
            </trkpt>
            <trkpt lat="46.419200" lon="10.477740">
                <time>2017-07-15T14:18:21Z</time>
            </trkpt>
            <trkpt lat="46.419250" lon="10.477620">
                <time>2017-07-15T14:18:22Z</time>
            </trkpt>
            <trkpt lat="46.419290" lon="10.477480">
                <time>2017-07-15T14:18:23Z</time>
            </trkpt>
            <trkpt lat="46.419330" lon="10.477350">
                <time>2017-07-15T14:18:24Z</time>
            </trkpt>
            <trkpt lat="46.419380" lon="10.477220">
                <time>2017-07-15T14:18:25Z</time>
            </trkpt>
            <trkpt lat="46.419420" lon="10.477080">
                <time>2017-07-15T14:18:26Z</time>
            </trkpt>
            <trkpt lat="46.419460" lon="10.476940">
                <time>2017-07-15T14:18:27Z</time>
            </trkpt>
            <trkpt lat="46.419500" lon="10.476800">
                <time>2017-07-15T14:18:28Z</time>
            </trkpt>
            <trkpt lat="46.419550" lon="10.476680">
                <time>2017-07-15T14:18:29Z</time>
            </trkpt>
            <trkpt lat="46.419600" lon="10.476540">
                <time>2017-07-15T14:18:30Z</time>
            </trkpt>
            <trkpt lat="46.419650" lon="10.476400">
                <time>2017-07-15T14:18:31Z</time>
            </trkpt>
            <trkpt lat="46.419690" lon="10.476270">
                <time>2017-07-15T14:18:32Z</time>
            </trkpt>
            <trkpt lat="46.419750" lon="10.476110">
                <time>2017-07-15T14:18:33Z</time>
            </trkpt>
            <trkpt lat="46.419820" lon="10.475940">
                <time>2017-07-15T14:18:34Z</time>
            </trkpt>
            <trkpt lat="46.419880" lon="10.475790">
                <time>2017-07-15T14:18:35Z</time>
            </trkpt>
            <trkpt lat="46.419960" lon="10.475600">
                <time>2017-07-15T14:18:36Z</time>
            </trkpt>
            <trkpt lat="46.420020" lon="10.475440">
                <time>2017-07-15T14:18:37Z</time>
            </trkpt>
            <trkpt lat="46.420100" lon="10.475260">
                <time>2017-07-15T14:18:38Z</time>
            </trkpt>
            <trkpt lat="46.420190" lon="10.475080">
                <time>2017-07-15T14:18:39Z</time>
            </trkpt>
            <trkpt lat="46.420290" lon="10.474920">
                <time>2017-07-15T14:18:40Z</time>
            </trkpt>
            <trkpt lat="46.420390" lon="10.474750">
                <time>2017-07-15T14:18:41Z</time>
            </trkpt>
            <trkpt lat="46.420490" lon="10.474570">
                <time>2017-07-15T14:18:42Z</time>
            </trkpt>
            <trkpt lat="46.420580" lon="10.474370">
                <time>2017-07-15T14:18:43Z</time>
            </trkpt>
            <trkpt lat="46.420660" lon="10.474140">
                <time>2017-07-15T14:18:44Z</time>
            </trkpt>
            <trkpt lat="46.420740" lon="10.473950">
                <time>2017-07-15T14:18:45Z</time>
            </trkpt>
            <trkpt lat="46.420820" lon="10.473750">
                <time>2017-07-15T14:18:46Z</time>
            </trkpt>
            <trkpt lat="46.420900" lon="10.473560">
                <time>2017-07-15T14:18:47Z</time>
            </trkpt>
            <trkpt lat="46.420980" lon="10.473390">
                <time>2017-07-15T14:18:48Z</time>
            </trkpt>
            <trkpt lat="46.421060" lon="10.473210">
                <time>2017-07-15T14:18:49Z</time>
            </trkpt>
            <trkpt lat="46.421140" lon="10.473020">
                <time>2017-07-15T14:18:50Z</time>
            </trkpt>
            <trkpt lat="46.421210" lon="10.472860">
                <time>2017-07-15T14:18:51Z</time>
            </trkpt>
            <trkpt lat="46.421280" lon="10.472670">
                <time>2017-07-15T14:18:52Z</time>
            </trkpt>
            <trkpt lat="46.421340" lon="10.472510">
                <time>2017-07-15T14:18:53Z</time>
            </trkpt>
            <trkpt lat="46.421420" lon="10.472350">
                <time>2017-07-15T14:18:54Z</time>
            </trkpt>
            <trkpt lat="46.421490" lon="10.472180">
                <time>2017-07-15T14:18:55Z</time>
            </trkpt>
            <trkpt lat="46.421550" lon="10.472040">
                <time>2017-07-15T14:18:56Z</time>
            </trkpt>
            <trkpt lat="46.421610" lon="10.471890">
                <time>2017-07-15T14:18:57Z</time>
            </trkpt>
            <trkpt lat="46.421660" lon="10.471750">
                <time>2017-07-15T14:18:58Z</time>
            </trkpt>
            <trkpt lat="46.421720" lon="10.471610">
                <time>2017-07-15T14:18:59Z</time>
            </trkpt>
            <trkpt lat="46.421800" lon="10.471470">
                <time>2017-07-15T14:19:00Z</time>
            </trkpt>
            <trkpt lat="46.421890" lon="10.471360">
                <time>2017-07-15T14:19:01Z</time>
            </trkpt>
            <trkpt lat="46.422000" lon="10.471240">
                <time>2017-07-15T14:19:02Z</time>
            </trkpt>
            <trkpt lat="46.422130" lon="10.471100">
                <time>2017-07-15T14:19:03Z</time>
            </trkpt>
            <trkpt lat="46.422240" lon="10.470960">
                <time>2017-07-15T14:19:04Z</time>
            </trkpt>
            <trkpt lat="46.422350" lon="10.470780">
                <time>2017-07-15T14:19:05Z</time>
            </trkpt>
            <trkpt lat="46.422450" lon="10.470550">
                <time>2017-07-15T14:19:06Z</time>
            </trkpt>
            <trkpt lat="46.422530" lon="10.470350">
                <time>2017-07-15T14:19:07Z</time>
            </trkpt>
            <trkpt lat="46.422620" lon="10.470120">
                <time>2017-07-15T14:19:08Z</time>
            </trkpt>
            <trkpt lat="46.422700" lon="10.469920">
                <time>2017-07-15T14:19:09Z</time>
            </trkpt>
            <trkpt lat="46.422790" lon="10.469710">
                <time>2017-07-15T14:19:10Z</time>
            </trkpt>
            <trkpt lat="46.422890" lon="10.469510">
                <time>2017-07-15T14:19:11Z</time>
            </trkpt>
            <trkpt lat="46.422970" lon="10.469350">
                <time>2017-07-15T14:19:12Z</time>
            </trkpt>
            <trkpt lat="46.423070" lon="10.469190">
                <time>2017-07-15T14:19:13Z</time>
            </trkpt>
            <trkpt lat="46.423200" lon="10.469080">
                <time>2017-07-15T14:19:14Z</time>
            </trkpt>
            <trkpt lat="46.423340" lon="10.468970">
                <time>2017-07-15T14:19:15Z</time>
            </trkpt>
            <trkpt lat="46.423490" lon="10.468840">
                <time>2017-07-15T14:19:16Z</time>
            </trkpt>
            <trkpt lat="46.423620" lon="10.468700">
                <time>2017-07-15T14:19:17Z</time>
            </trkpt>
            <trkpt lat="46.423750" lon="10.468520">
                <time>2017-07-15T14:19:18Z</time>
            </trkpt>
            <trkpt lat="46.423870" lon="10.468330">
                <time>2017-07-15T14:19:19Z</time>
            </trkpt>
            <trkpt lat="46.423950" lon="10.468140">
                <time>2017-07-15T14:19:20Z</time>
            </trkpt>
            <trkpt lat="46.424000" lon="10.467930">
                <time>2017-07-15T14:19:21Z</time>
            </trkpt>
            <trkpt lat="46.424030" lon="10.467680">
                <time>2017-07-15T14:19:22Z</time>
            </trkpt>
            <trkpt lat="46.424040" lon="10.467450">
                <time>2017-07-15T14:19:23Z</time>
            </trkpt>
            <trkpt lat="46.424060" lon="10.467190">
                <time>2017-07-15T14:19:24Z</time>
            </trkpt>
            <trkpt lat="46.424100" lon="10.466960">
                <time>2017-07-15T14:19:25Z</time>
            </trkpt>
            <trkpt lat="46.424170" lon="10.466710">
                <time>2017-07-15T14:19:26Z</time>
            </trkpt>
            <trkpt lat="46.424250" lon="10.466450">
                <time>2017-07-15T14:19:27Z</time>
            </trkpt>
            <trkpt lat="46.424320" lon="10.466220">
                <time>2017-07-15T14:19:28Z</time>
            </trkpt>
            <trkpt lat="46.424400" lon="10.465960">
                <time>2017-07-15T14:19:29Z</time>
            </trkpt>
            <trkpt lat="46.424480" lon="10.465710">
                <time>2017-07-15T14:19:30Z</time>
            </trkpt>
            <trkpt lat="46.424570" lon="10.465460">
                <time>2017-07-15T14:19:31Z</time>
            </trkpt>
            <trkpt lat="46.424690" lon="10.465200">
                <time>2017-07-15T14:19:32Z</time>
            </trkpt>
            <trkpt lat="46.424800" lon="10.465000">
                <time>2017-07-15T14:19:33Z</time>
            </trkpt>
            <trkpt lat="46.424920" lon="10.464770">
                <time>2017-07-15T14:19:34Z</time>
            </trkpt>
            <trkpt lat="46.425050" lon="10.464530">
                <time>2017-07-15T14:19:35Z</time>
            </trkpt>
            <trkpt lat="46.425160" lon="10.464320">
                <time>2017-07-15T14:19:36Z</time>
            </trkpt>
            <trkpt lat="46.425270" lon="10.464080">
                <time>2017-07-15T14:19:37Z</time>
            </trkpt>
            <trkpt lat="46.425380" lon="10.463830">
                <time>2017-07-15T14:19:38Z</time>
            </trkpt>
            <trkpt lat="46.425470" lon="10.463620">
                <time>2017-07-15T14:19:39Z</time>
            </trkpt>
            <trkpt lat="46.425580" lon="10.463380">
                <time>2017-07-15T14:19:40Z</time>
            </trkpt>
            <trkpt lat="46.425680" lon="10.463180">
                <time>2017-07-15T14:19:41Z</time>
            </trkpt>
            <trkpt lat="46.425790" lon="10.462980">
                <time>2017-07-15T14:19:42Z</time>
            </trkpt>
            <trkpt lat="46.425910" lon="10.462780">
                <time>2017-07-15T14:19:43Z</time>
            </trkpt>
            <trkpt lat="46.426020" lon="10.462620">
                <time>2017-07-15T14:19:44Z</time>
            </trkpt>
            <trkpt lat="46.426130" lon="10.462440">
                <time>2017-07-15T14:19:45Z</time>
            </trkpt>
            <trkpt lat="46.426230" lon="10.462260">
                <time>2017-07-15T14:19:46Z</time>
            </trkpt>
            <trkpt lat="46.426340" lon="10.462080">
                <time>2017-07-15T14:19:47Z</time>
            </trkpt>
            <trkpt lat="46.426470" lon="10.461900">
                <time>2017-07-15T14:19:48Z</time>
            </trkpt>
            <trkpt lat="46.426580" lon="10.461740">
                <time>2017-07-15T14:19:49Z</time>
            </trkpt>
            <trkpt lat="46.426700" lon="10.461570">
                <time>2017-07-15T14:19:50Z</time>
            </trkpt>
            <trkpt lat="46.426830" lon="10.461400">
                <time>2017-07-15T14:19:51Z</time>
            </trkpt>
            <trkpt lat="46.426950" lon="10.461260">
                <time>2017-07-15T14:19:52Z</time>
            </trkpt>
            <trkpt lat="46.427060" lon="10.461120">
                <time>2017-07-15T14:19:53Z</time>
            </trkpt>
            <trkpt lat="46.427190" lon="10.460960">
                <time>2017-07-15T14:19:54Z</time>
            </trkpt>
            <trkpt lat="46.427290" lon="10.460810">
                <time>2017-07-15T14:19:55Z</time>
            </trkpt>
            <trkpt lat="46.427410" lon="10.460630">
                <time>2017-07-15T14:19:56Z</time>
            </trkpt>
            <trkpt lat="46.427500" lon="10.460490">
                <time>2017-07-15T14:19:57Z</time>
            </trkpt>
            <trkpt lat="46.427610" lon="10.460340">
                <time>2017-07-15T14:19:58Z</time>
            </trkpt>
            <trkpt lat="46.427740" lon="10.460180">
                <time>2017-07-15T14:19:59Z</time>
            </trkpt>
            <trkpt lat="46.427850" lon="10.460050">
                <time>2017-07-15T14:20:00Z</time>
            </trkpt>
            <trkpt lat="46.427990" lon="10.459920">
                <time>2017-07-15T14:20:01Z</time>
            </trkpt>
            <trkpt lat="46.428120" lon="10.459780">
                <time>2017-07-15T14:20:02Z</time>
            </trkpt>
            <trkpt lat="46.428260" lon="10.459640">
                <time>2017-07-15T14:20:03Z</time>
            </trkpt>
            <trkpt lat="46.428400" lon="10.459490">
                <time>2017-07-15T14:20:04Z</time>
            </trkpt>
            <trkpt lat="46.428510" lon="10.459360">
                <time>2017-07-15T14:20:05Z</time>
            </trkpt>
            <trkpt lat="46.428620" lon="10.459220">
                <time>2017-07-15T14:20:06Z</time>
            </trkpt>
            <trkpt lat="46.428750" lon="10.459080">
                <time>2017-07-15T14:20:07Z</time>
            </trkpt>
            <trkpt lat="46.428860" lon="10.458950">
                <time>2017-07-15T14:20:08Z</time>
            </trkpt>
            <trkpt lat="46.428970" lon="10.458830">
                <time>2017-07-15T14:20:09Z</time>
            </trkpt>
            <trkpt lat="46.429100" lon="10.458720">
                <time>2017-07-15T14:20:10Z</time>
            </trkpt>
            <trkpt lat="46.429220" lon="10.458630">
                <time>2017-07-15T14:20:11Z</time>
            </trkpt>
            <trkpt lat="46.429350" lon="10.458530">
                <time>2017-07-15T14:20:12Z</time>
            </trkpt>
            <trkpt lat="46.429470" lon="10.458440">
                <time>2017-07-15T14:20:13Z</time>
            </trkpt>
            <trkpt lat="46.429610" lon="10.458350">
                <time>2017-07-15T14:20:14Z</time>
            </trkpt>
            <trkpt lat="46.429760" lon="10.458260">
                <time>2017-07-15T14:20:15Z</time>
            </trkpt>
            <trkpt lat="46.429900" lon="10.458190">
                <time>2017-07-15T14:20:16Z</time>
            </trkpt>
            <trkpt lat="46.430050" lon="10.458120">
                <time>2017-07-15T14:20:17Z</time>
            </trkpt>
            <trkpt lat="46.430210" lon="10.458050">
                <time>2017-07-15T14:20:18Z</time>
            </trkpt>
            <trkpt lat="46.430360" lon="10.457970">
                <time>2017-07-15T14:20:19Z</time>
            </trkpt>
            <trkpt lat="46.430510" lon="10.457860">
                <time>2017-07-15T14:20:20Z</time>
            </trkpt>
            <trkpt lat="46.430640" lon="10.457740">
                <time>2017-07-15T14:20:21Z</time>
            </trkpt>
            <trkpt lat="46.430760" lon="10.457590">
                <time>2017-07-15T14:20:22Z</time>
            </trkpt>
            <trkpt lat="46.430900" lon="10.457430">
                <time>2017-07-15T14:20:23Z</time>
            </trkpt>
            <trkpt lat="46.431020" lon="10.457320">
                <time>2017-07-15T14:20:24Z</time>
            </trkpt>
            <trkpt lat="46.431170" lon="10.457200">
                <time>2017-07-15T14:20:25Z</time>
            </trkpt>
            <trkpt lat="46.431320" lon="10.457080">
                <time>2017-07-15T14:20:26Z</time>
            </trkpt>
            <trkpt lat="46.431450" lon="10.456970">
                <time>2017-07-15T14:20:27Z</time>
            </trkpt>
            <trkpt lat="46.431610" lon="10.456830">
                <time>2017-07-15T14:20:28Z</time>
            </trkpt>
            <trkpt lat="46.431740" lon="10.456700">
                <time>2017-07-15T14:20:29Z</time>
            </trkpt>
            <trkpt lat="46.431870" lon="10.456540">
                <time>2017-07-15T14:20:30Z</time>
            </trkpt>
            <trkpt lat="46.432020" lon="10.456380">
                <time>2017-07-15T14:20:31Z</time>
            </trkpt>
            <trkpt lat="46.432150" lon="10.456260">
                <time>2017-07-15T14:20:32Z</time>
            </trkpt>
            <trkpt lat="46.432280" lon="10.456130">
                <time>2017-07-15T14:20:33Z</time>
            </trkpt>
            <trkpt lat="46.432430" lon="10.456020">
                <time>2017-07-15T14:20:34Z</time>
            </trkpt>
            <trkpt lat="46.432580" lon="10.455920">
                <time>2017-07-15T14:20:35Z</time>
            </trkpt>
            <trkpt lat="46.432750" lon="10.455830">
                <time>2017-07-15T14:20:36Z</time>
            </trkpt>
            <trkpt lat="46.432900" lon="10.455750">
                <time>2017-07-15T14:20:37Z</time>
            </trkpt>
            <trkpt lat="46.433060" lon="10.455680">
                <time>2017-07-15T14:20:38Z</time>
            </trkpt>
            <trkpt lat="46.433230" lon="10.455620">
                <time>2017-07-15T14:20:39Z</time>
            </trkpt>
            <trkpt lat="46.433390" lon="10.455590">
                <time>2017-07-15T14:20:40Z</time>
            </trkpt>
            <trkpt lat="46.433540" lon="10.455560">
                <time>2017-07-15T14:20:41Z</time>
            </trkpt>
            <trkpt lat="46.433690" lon="10.455520">
                <time>2017-07-15T14:20:42Z</time>
            </trkpt>
            <trkpt lat="46.433810" lon="10.455470">
                <time>2017-07-15T14:20:43Z</time>
            </trkpt>
            <trkpt lat="46.433950" lon="10.455410">
                <time>2017-07-15T14:20:44Z</time>
            </trkpt>
            <trkpt lat="46.434060" lon="10.455350">
                <time>2017-07-15T14:20:45Z</time>
            </trkpt>
            <trkpt lat="46.434190" lon="10.455300">
                <time>2017-07-15T14:20:46Z</time>
            </trkpt>
            <trkpt lat="46.434420" lon="10.455160">
                <time>2017-07-15T14:20:48Z</time>
            </trkpt>
            <trkpt lat="46.434530" lon="10.455070">
                <time>2017-07-15T14:20:49Z</time>
            </trkpt>
            <trkpt lat="46.434640" lon="10.454980">
                <time>2017-07-15T14:20:50Z</time>
            </trkpt>
            <trkpt lat="46.434730" lon="10.454850">
                <time>2017-07-15T14:20:51Z</time>
            </trkpt>
            <trkpt lat="46.434860" lon="10.454800">
                <time>2017-07-15T14:20:52Z</time>
            </trkpt>
            <trkpt lat="46.434990" lon="10.454790">
                <time>2017-07-15T14:20:53Z</time>
            </trkpt>
            <trkpt lat="46.435150" lon="10.454820">
                <time>2017-07-15T14:20:54Z</time>
            </trkpt>
            <trkpt lat="46.435280" lon="10.454710">
                <time>2017-07-15T14:20:55Z</time>
            </trkpt>
            <trkpt lat="46.435400" lon="10.454630">
                <time>2017-07-15T14:20:56Z</time>
            </trkpt>
            <trkpt lat="46.435550" lon="10.454550">
                <time>2017-07-15T14:20:57Z</time>
            </trkpt>
            <trkpt lat="46.435740" lon="10.454490">
                <time>2017-07-15T14:20:58Z</time>
            </trkpt>
            <trkpt lat="46.435860" lon="10.454390">
                <time>2017-07-15T14:20:59Z</time>
            </trkpt>
            <trkpt lat="46.435970" lon="10.454260">
                <time>2017-07-15T14:21:00Z</time>
            </trkpt>
            <trkpt lat="46.436090" lon="10.454150">
                <time>2017-07-15T14:21:01Z</time>
            </trkpt>
            <trkpt lat="46.436200" lon="10.453980">
                <time>2017-07-15T14:21:02Z</time>
            </trkpt>
            <trkpt lat="46.436330" lon="10.453790">
                <time>2017-07-15T14:21:03Z</time>
            </trkpt>
            <trkpt lat="46.436430" lon="10.453600">
                <time>2017-07-15T14:21:04Z</time>
            </trkpt>
            <trkpt lat="46.436540" lon="10.453420">
                <time>2017-07-15T14:21:05Z</time>
            </trkpt>
            <trkpt lat="46.436650" lon="10.453220">
                <time>2017-07-15T14:21:06Z</time>
            </trkpt>
            <trkpt lat="46.436750" lon="10.453030">
                <time>2017-07-15T14:21:07Z</time>
            </trkpt>
            <trkpt lat="46.436870" lon="10.452830">
                <time>2017-07-15T14:21:08Z</time>
            </trkpt>
            <trkpt lat="46.436980" lon="10.452670">
                <time>2017-07-15T14:21:09Z</time>
            </trkpt>
            <trkpt lat="46.437100" lon="10.452480">
                <time>2017-07-15T14:21:10Z</time>
            </trkpt>
            <trkpt lat="46.437240" lon="10.452300">
                <time>2017-07-15T14:21:11Z</time>
            </trkpt>
            <trkpt lat="46.437360" lon="10.452120">
                <time>2017-07-15T14:21:12Z</time>
            </trkpt>
            <trkpt lat="46.437490" lon="10.451940">
                <time>2017-07-15T14:21:13Z</time>
            </trkpt>
            <trkpt lat="46.437620" lon="10.451750">
                <time>2017-07-15T14:21:14Z</time>
            </trkpt>
            <trkpt lat="46.437740" lon="10.451590">
                <time>2017-07-15T14:21:15Z</time>
            </trkpt>
            <trkpt lat="46.437910" lon="10.451410">
                <time>2017-07-15T14:21:16Z</time>
            </trkpt>
            <trkpt lat="46.438070" lon="10.451300">
                <time>2017-07-15T14:21:17Z</time>
            </trkpt>
            <trkpt lat="46.438240" lon="10.451170">
                <time>2017-07-15T14:21:18Z</time>
            </trkpt>
            <trkpt lat="46.438430" lon="10.451020">
                <time>2017-07-15T14:21:19Z</time>
            </trkpt>
            <trkpt lat="46.438590" lon="10.450900">
                <time>2017-07-15T14:21:20Z</time>
            </trkpt>
            <trkpt lat="46.438750" lon="10.450750">
                <time>2017-07-15T14:21:21Z</time>
            </trkpt>
            <trkpt lat="46.438900" lon="10.450590">
                <time>2017-07-15T14:21:22Z</time>
            </trkpt>
            <trkpt lat="46.439030" lon="10.450410">
                <time>2017-07-15T14:21:23Z</time>
            </trkpt>
            <trkpt lat="46.439170" lon="10.450230">
                <time>2017-07-15T14:21:24Z</time>
            </trkpt>
            <trkpt lat="46.439300" lon="10.450060">
                <time>2017-07-15T14:21:25Z</time>
            </trkpt>
            <trkpt lat="46.439430" lon="10.449900">
                <time>2017-07-15T14:21:26Z</time>
            </trkpt>
            <trkpt lat="46.439560" lon="10.449710">
                <time>2017-07-15T14:21:27Z</time>
            </trkpt>
            <trkpt lat="46.439670" lon="10.449530">
                <time>2017-07-15T14:21:28Z</time>
            </trkpt>
            <trkpt lat="46.439780" lon="10.449340">
                <time>2017-07-15T14:21:29Z</time>
            </trkpt>
            <trkpt lat="46.439890" lon="10.449130">
                <time>2017-07-15T14:21:30Z</time>
            </trkpt>
            <trkpt lat="46.439970" lon="10.448940">
                <time>2017-07-15T14:21:31Z</time>
            </trkpt>
            <trkpt lat="46.440050" lon="10.448710">
                <time>2017-07-15T14:21:32Z</time>
            </trkpt>
            <trkpt lat="46.440120" lon="10.448510">
                <time>2017-07-15T14:21:33Z</time>
            </trkpt>
            <trkpt lat="46.440210" lon="10.448310">
                <time>2017-07-15T14:21:34Z</time>
            </trkpt>
            <trkpt lat="46.440320" lon="10.448110">
                <time>2017-07-15T14:21:35Z</time>
            </trkpt>
            <trkpt lat="46.440440" lon="10.447950">
                <time>2017-07-15T14:21:36Z</time>
            </trkpt>
            <trkpt lat="46.440580" lon="10.447790">
                <time>2017-07-15T14:21:37Z</time>
            </trkpt>
            <trkpt lat="46.440740" lon="10.447620">
                <time>2017-07-15T14:21:38Z</time>
            </trkpt>
            <trkpt lat="46.440880" lon="10.447470">
                <time>2017-07-15T14:21:39Z</time>
            </trkpt>
            <trkpt lat="46.441020" lon="10.447300">
                <time>2017-07-15T14:21:40Z</time>
            </trkpt>
            <trkpt lat="46.441120" lon="10.447130">
                <time>2017-07-15T14:21:41Z</time>
            </trkpt>
            <trkpt lat="46.441220" lon="10.446930">
                <time>2017-07-15T14:21:42Z</time>
            </trkpt>
            <trkpt lat="46.441310" lon="10.446680">
                <time>2017-07-15T14:21:43Z</time>
            </trkpt>
            <trkpt lat="46.441380" lon="10.446460">
                <time>2017-07-15T14:21:44Z</time>
            </trkpt>
            <trkpt lat="46.441470" lon="10.446230">
                <time>2017-07-15T14:21:45Z</time>
            </trkpt>
            <trkpt lat="46.441570" lon="10.446000">
                <time>2017-07-15T14:21:46Z</time>
            </trkpt>
            <trkpt lat="46.441680" lon="10.445820">
                <time>2017-07-15T14:21:47Z</time>
            </trkpt>
            <trkpt lat="46.441820" lon="10.445610">
                <time>2017-07-15T14:21:48Z</time>
            </trkpt>
            <trkpt lat="46.441950" lon="10.445450">
                <time>2017-07-15T14:21:49Z</time>
            </trkpt>
            <trkpt lat="46.442100" lon="10.445270">
                <time>2017-07-15T14:21:50Z</time>
            </trkpt>
            <trkpt lat="46.442260" lon="10.445060">
                <time>2017-07-15T14:21:51Z</time>
            </trkpt>
            <trkpt lat="46.442390" lon="10.444860">
                <time>2017-07-15T14:21:52Z</time>
            </trkpt>
            <trkpt lat="46.442530" lon="10.444630">
                <time>2017-07-15T14:21:53Z</time>
            </trkpt>
            <trkpt lat="46.442680" lon="10.444410">
                <time>2017-07-15T14:21:54Z</time>
            </trkpt>
            <trkpt lat="46.442820" lon="10.444210">
                <time>2017-07-15T14:21:55Z</time>
            </trkpt>
            <trkpt lat="46.442970" lon="10.443970">
                <time>2017-07-15T14:21:56Z</time>
            </trkpt>
            <trkpt lat="46.443100" lon="10.443780">
                <time>2017-07-15T14:21:57Z</time>
            </trkpt>
            <trkpt lat="46.443250" lon="10.443610">
                <time>2017-07-15T14:21:58Z</time>
            </trkpt>
            <trkpt lat="46.443420" lon="10.443440">
                <time>2017-07-15T14:21:59Z</time>
            </trkpt>
            <trkpt lat="46.443580" lon="10.443290">
                <time>2017-07-15T14:22:00Z</time>
            </trkpt>
            <trkpt lat="46.443750" lon="10.443130">
                <time>2017-07-15T14:22:01Z</time>
            </trkpt>
            <trkpt lat="46.443920" lon="10.442930">
                <time>2017-07-15T14:22:02Z</time>
            </trkpt>
            <trkpt lat="46.444060" lon="10.442740">
                <time>2017-07-15T14:22:03Z</time>
            </trkpt>
            <trkpt lat="46.444220" lon="10.442520">
                <time>2017-07-15T14:22:04Z</time>
            </trkpt>
            <trkpt lat="46.444350" lon="10.442320">
                <time>2017-07-15T14:22:05Z</time>
            </trkpt>
            <trkpt lat="46.444490" lon="10.442130">
                <time>2017-07-15T14:22:06Z</time>
            </trkpt>
            <trkpt lat="46.444640" lon="10.441940">
                <time>2017-07-15T14:22:07Z</time>
            </trkpt>
            <trkpt lat="46.444780" lon="10.441780">
                <time>2017-07-15T14:22:08Z</time>
            </trkpt>
            <trkpt lat="46.444920" lon="10.441640">
                <time>2017-07-15T14:22:09Z</time>
            </trkpt>
            <trkpt lat="46.445070" lon="10.441510">
                <time>2017-07-15T14:22:10Z</time>
            </trkpt>
            <trkpt lat="46.445230" lon="10.441380">
                <time>2017-07-15T14:22:11Z</time>
            </trkpt>
            <trkpt lat="46.445410" lon="10.441250">
                <time>2017-07-15T14:22:12Z</time>
            </trkpt>
            <trkpt lat="46.445570" lon="10.441140">
                <time>2017-07-15T14:22:13Z</time>
            </trkpt>
            <trkpt lat="46.445750" lon="10.441020">
                <time>2017-07-15T14:22:14Z</time>
            </trkpt>
            <trkpt lat="46.445940" lon="10.440890">
                <time>2017-07-15T14:22:15Z</time>
            </trkpt>
            <trkpt lat="46.446100" lon="10.440790">
                <time>2017-07-15T14:22:16Z</time>
            </trkpt>
            <trkpt lat="46.446270" lon="10.440670">
                <time>2017-07-15T14:22:17Z</time>
            </trkpt>
            <trkpt lat="46.446450" lon="10.440550">
                <time>2017-07-15T14:22:18Z</time>
            </trkpt>
            <trkpt lat="46.446610" lon="10.440440">
                <time>2017-07-15T14:22:19Z</time>
            </trkpt>
            <trkpt lat="46.446790" lon="10.440320">
                <time>2017-07-15T14:22:20Z</time>
            </trkpt>
            <trkpt lat="46.446940" lon="10.440230">
                <time>2017-07-15T14:22:21Z</time>
            </trkpt>
            <trkpt lat="46.447100" lon="10.440130">
                <time>2017-07-15T14:22:22Z</time>
            </trkpt>
            <trkpt lat="46.447270" lon="10.440040">
                <time>2017-07-15T14:22:23Z</time>
            </trkpt>
            <trkpt lat="46.447430" lon="10.439960">
                <time>2017-07-15T14:22:24Z</time>
            </trkpt>
            <trkpt lat="46.447620" lon="10.439900">
                <time>2017-07-15T14:22:25Z</time>
            </trkpt>
            <trkpt lat="46.447790" lon="10.439850">
                <time>2017-07-15T14:22:26Z</time>
            </trkpt>
            <trkpt lat="46.447960" lon="10.439780">
                <time>2017-07-15T14:22:27Z</time>
            </trkpt>
            <trkpt lat="46.448150" lon="10.439680">
                <time>2017-07-15T14:22:28Z</time>
            </trkpt>
            <trkpt lat="46.448320" lon="10.439560">
                <time>2017-07-15T14:22:29Z</time>
            </trkpt>
            <trkpt lat="46.448490" lon="10.439400">
                <time>2017-07-15T14:22:30Z</time>
            </trkpt>
            <trkpt lat="46.448670" lon="10.439220">
                <time>2017-07-15T14:22:31Z</time>
            </trkpt>
            <trkpt lat="46.448820" lon="10.439050">
                <time>2017-07-15T14:22:32Z</time>
            </trkpt>
            <trkpt lat="46.448970" lon="10.438880">
                <time>2017-07-15T14:22:33Z</time>
            </trkpt>
            <trkpt lat="46.449120" lon="10.438690">
                <time>2017-07-15T14:22:34Z</time>
            </trkpt>
            <trkpt lat="46.449260" lon="10.438530">
                <time>2017-07-15T14:22:35Z</time>
            </trkpt>
            <trkpt lat="46.449410" lon="10.438360">
                <time>2017-07-15T14:22:36Z</time>
            </trkpt>
            <trkpt lat="46.449560" lon="10.438220">
                <time>2017-07-15T14:22:37Z</time>
            </trkpt>
            <trkpt lat="46.449720" lon="10.438090">
                <time>2017-07-15T14:22:38Z</time>
            </trkpt>
            <trkpt lat="46.449890" lon="10.437960">
                <time>2017-07-15T14:22:39Z</time>
            </trkpt>
            <trkpt lat="46.450030" lon="10.437840">
                <time>2017-07-15T14:22:40Z</time>
            </trkpt>
            <trkpt lat="46.450160" lon="10.437700">
                <time>2017-07-15T14:22:41Z</time>
            </trkpt>
            <trkpt lat="46.450280" lon="10.437540">
                <time>2017-07-15T14:22:42Z</time>
            </trkpt>
            <trkpt lat="46.450400" lon="10.437370">
                <time>2017-07-15T14:22:43Z</time>
            </trkpt>
            <trkpt lat="46.450520" lon="10.437180">
                <time>2017-07-15T14:22:44Z</time>
            </trkpt>
            <trkpt lat="46.450620" lon="10.437010">
                <time>2017-07-15T14:22:45Z</time>
            </trkpt>
            <trkpt lat="46.450750" lon="10.436850">
                <time>2017-07-15T14:22:46Z</time>
            </trkpt>
            <trkpt lat="46.450900" lon="10.436690">
                <time>2017-07-15T14:22:47Z</time>
            </trkpt>
            <trkpt lat="46.451030" lon="10.436550">
                <time>2017-07-15T14:22:48Z</time>
            </trkpt>
            <trkpt lat="46.451170" lon="10.436400">
                <time>2017-07-15T14:22:49Z</time>
            </trkpt>
            <trkpt lat="46.451320" lon="10.436260">
                <time>2017-07-15T14:22:50Z</time>
            </trkpt>
            <trkpt lat="46.451450" lon="10.436140">
                <time>2017-07-15T14:22:51Z</time>
            </trkpt>
            <trkpt lat="46.451590" lon="10.436030">
                <time>2017-07-15T14:22:52Z</time>
            </trkpt>
            <trkpt lat="46.451720" lon="10.435950">
                <time>2017-07-15T14:22:53Z</time>
            </trkpt>
            <trkpt lat="46.451860" lon="10.435870">
                <time>2017-07-15T14:22:54Z</time>
            </trkpt>
            <trkpt lat="46.452010" lon="10.435770">
                <time>2017-07-15T14:22:55Z</time>
            </trkpt>
            <trkpt lat="46.452140" lon="10.435670">
                <time>2017-07-15T14:22:56Z</time>
            </trkpt>
            <trkpt lat="46.452270" lon="10.435540">
                <time>2017-07-15T14:22:57Z</time>
            </trkpt>
            <trkpt lat="46.452390" lon="10.435380">
                <time>2017-07-15T14:22:58Z</time>
            </trkpt>
            <trkpt lat="46.452490" lon="10.435190">
                <time>2017-07-15T14:22:59Z</time>
            </trkpt>
            <trkpt lat="46.452570" lon="10.434960">
                <time>2017-07-15T14:23:00Z</time>
            </trkpt>
            <trkpt lat="46.452630" lon="10.434730">
                <time>2017-07-15T14:23:01Z</time>
            </trkpt>
            <trkpt lat="46.452680" lon="10.434480">
                <time>2017-07-15T14:23:02Z</time>
            </trkpt>
            <trkpt lat="46.452720" lon="10.434230">
                <time>2017-07-15T14:23:03Z</time>
            </trkpt>
            <trkpt lat="46.452770" lon="10.434020">
                <time>2017-07-15T14:23:04Z</time>
            </trkpt>
            <trkpt lat="46.452830" lon="10.433810">
                <time>2017-07-15T14:23:05Z</time>
            </trkpt>
            <trkpt lat="46.452910" lon="10.433600">
                <time>2017-07-15T14:23:06Z</time>
            </trkpt>
            <trkpt lat="46.452990" lon="10.433420">
                <time>2017-07-15T14:23:07Z</time>
            </trkpt>
            <trkpt lat="46.453090" lon="10.433210">
                <time>2017-07-15T14:23:08Z</time>
            </trkpt>
            <trkpt lat="46.453180" lon="10.433030">
                <time>2017-07-15T14:23:09Z</time>
            </trkpt>
            <trkpt lat="46.453270" lon="10.432820">
                <time>2017-07-15T14:23:10Z</time>
            </trkpt>
            <trkpt lat="46.453370" lon="10.432610">
                <time>2017-07-15T14:23:11Z</time>
            </trkpt>
            <trkpt lat="46.453470" lon="10.432440">
                <time>2017-07-15T14:23:12Z</time>
            </trkpt>
            <trkpt lat="46.453560" lon="10.432270">
                <time>2017-07-15T14:23:13Z</time>
            </trkpt>
            <trkpt lat="46.453670" lon="10.432120">
                <time>2017-07-15T14:23:14Z</time>
            </trkpt>
            <trkpt lat="46.453780" lon="10.432020">
                <time>2017-07-15T14:23:15Z</time>
            </trkpt>
            <trkpt lat="46.453890" lon="10.431910">
                <time>2017-07-15T14:23:16Z</time>
            </trkpt>
            <trkpt lat="46.454010" lon="10.431830">
                <time>2017-07-15T14:23:17Z</time>
            </trkpt>
            <trkpt lat="46.454130" lon="10.431760">
                <time>2017-07-15T14:23:18Z</time>
            </trkpt>
            <trkpt lat="46.454270" lon="10.431720">
                <time>2017-07-15T14:23:19Z</time>
            </trkpt>
            <trkpt lat="46.454410" lon="10.431680">
                <time>2017-07-15T14:23:20Z</time>
            </trkpt>
            <trkpt lat="46.454550" lon="10.431630">
                <time>2017-07-15T14:23:21Z</time>
            </trkpt>
            <trkpt lat="46.454690" lon="10.431590">
                <time>2017-07-15T14:23:22Z</time>
            </trkpt>
            <trkpt lat="46.454810" lon="10.431540">
                <time>2017-07-15T14:23:23Z</time>
            </trkpt>
            <trkpt lat="46.454950" lon="10.431490">
                <time>2017-07-15T14:23:24Z</time>
            </trkpt>
            <trkpt lat="46.455060" lon="10.431440">
                <time>2017-07-15T14:23:25Z</time>
            </trkpt>
            <trkpt lat="46.455180" lon="10.431390">
                <time>2017-07-15T14:23:26Z</time>
            </trkpt>
            <trkpt lat="46.455310" lon="10.431340">
                <time>2017-07-15T14:23:27Z</time>
            </trkpt>
            <trkpt lat="46.455400" lon="10.431290">
                <time>2017-07-15T14:23:28Z</time>
            </trkpt>
            <trkpt lat="46.455500" lon="10.431210">
                <time>2017-07-15T14:23:29Z</time>
            </trkpt>
            <trkpt lat="46.455610" lon="10.431120">
                <time>2017-07-15T14:23:30Z</time>
            </trkpt>
            <trkpt lat="46.455710" lon="10.431020">
                <time>2017-07-15T14:23:31Z</time>
            </trkpt>
            <trkpt lat="46.455800" lon="10.430890">
                <time>2017-07-15T14:23:32Z</time>
            </trkpt>
            <trkpt lat="46.455880" lon="10.430760">
                <time>2017-07-15T14:23:33Z</time>
            </trkpt>
            <trkpt lat="46.455950" lon="10.430610">
                <time>2017-07-15T14:23:34Z</time>
            </trkpt>
            <trkpt lat="46.456030" lon="10.430440">
                <time>2017-07-15T14:23:35Z</time>
            </trkpt>
            <trkpt lat="46.456090" lon="10.430280">
                <time>2017-07-15T14:23:36Z</time>
            </trkpt>
            <trkpt lat="46.456160" lon="10.430110">
                <time>2017-07-15T14:23:37Z</time>
            </trkpt>
            <trkpt lat="46.456230" lon="10.429930">
                <time>2017-07-15T14:23:38Z</time>
            </trkpt>
            <trkpt lat="46.456290" lon="10.429760">
                <time>2017-07-15T14:23:39Z</time>
            </trkpt>
            <trkpt lat="46.456350" lon="10.429580">
                <time>2017-07-15T14:23:40Z</time>
            </trkpt>
            <trkpt lat="46.456410" lon="10.429420">
                <time>2017-07-15T14:23:41Z</time>
            </trkpt>
            <trkpt lat="46.456480" lon="10.429250">
                <time>2017-07-15T14:23:42Z</time>
            </trkpt>
            <trkpt lat="46.456550" lon="10.429060">
                <time>2017-07-15T14:23:43Z</time>
            </trkpt>
            <trkpt lat="46.456600" lon="10.428900">
                <time>2017-07-15T14:23:44Z</time>
            </trkpt>
            <trkpt lat="46.456670" lon="10.428720">
                <time>2017-07-15T14:23:45Z</time>
            </trkpt>
            <trkpt lat="46.456740" lon="10.428550">
                <time>2017-07-15T14:23:46Z</time>
            </trkpt>
            <trkpt lat="46.456800" lon="10.428390">
                <time>2017-07-15T14:23:47Z</time>
            </trkpt>
            <trkpt lat="46.456870" lon="10.428210">
                <time>2017-07-15T14:23:48Z</time>
            </trkpt>
            <trkpt lat="46.456920" lon="10.428070">
                <time>2017-07-15T14:23:49Z</time>
            </trkpt>
            <trkpt lat="46.456980" lon="10.427910">
                <time>2017-07-15T14:23:50Z</time>
            </trkpt>
            <trkpt lat="46.457040" lon="10.427760">
                <time>2017-07-15T14:23:51Z</time>
            </trkpt>
            <trkpt lat="46.457090" lon="10.427630">
                <time>2017-07-15T14:23:52Z</time>
            </trkpt>
            <trkpt lat="46.457150" lon="10.427480">
                <time>2017-07-15T14:23:53Z</time>
            </trkpt>
            <trkpt lat="46.457210" lon="10.427320">
                <time>2017-07-15T14:23:54Z</time>
            </trkpt>
            <trkpt lat="46.457260" lon="10.427190">
                <time>2017-07-15T14:23:55Z</time>
            </trkpt>
            <trkpt lat="46.457330" lon="10.427030">
                <time>2017-07-15T14:23:56Z</time>
            </trkpt>
            <trkpt lat="46.457380" lon="10.426890">
                <time>2017-07-15T14:23:57Z</time>
            </trkpt>
            <trkpt lat="46.457440" lon="10.426740">
                <time>2017-07-15T14:23:58Z</time>
            </trkpt>
            <trkpt lat="46.457500" lon="10.426590">
                <time>2017-07-15T14:23:59Z</time>
            </trkpt>
            <trkpt lat="46.457550" lon="10.426470">
                <time>2017-07-15T14:24:00Z</time>
            </trkpt>
            <trkpt lat="46.457620" lon="10.426350">
                <time>2017-07-15T14:24:01Z</time>
            </trkpt>
            <trkpt lat="46.457690" lon="10.426240">
                <time>2017-07-15T14:24:02Z</time>
            </trkpt>
            <trkpt lat="46.457770" lon="10.426150">
                <time>2017-07-15T14:24:03Z</time>
            </trkpt>
            <trkpt lat="46.457870" lon="10.426070">
                <time>2017-07-15T14:24:04Z</time>
            </trkpt>
            <trkpt lat="46.457950" lon="10.426020">
                <time>2017-07-15T14:24:05Z</time>
            </trkpt>
            <trkpt lat="46.458040" lon="10.425970">
                <time>2017-07-15T14:24:06Z</time>
            </trkpt>
            <trkpt lat="46.458120" lon="10.425930">
                <time>2017-07-15T14:24:07Z</time>
            </trkpt>
            <trkpt lat="46.458180" lon="10.425900">
                <time>2017-07-15T14:24:08Z</time>
            </trkpt>
            <trkpt lat="46.458240" lon="10.425850">
                <time>2017-07-15T14:24:09Z</time>
            </trkpt>
            <trkpt lat="46.458300" lon="10.425800">
                <time>2017-07-15T14:24:10Z</time>
            </trkpt>
            <trkpt lat="46.458340" lon="10.425760">
                <time>2017-07-15T14:24:11Z</time>
            </trkpt>
            <trkpt lat="46.458370" lon="10.425710">
                <time>2017-07-15T14:24:12Z</time>
            </trkpt>
            <trkpt lat="46.458390" lon="10.425650">
                <time>2017-07-15T14:24:13Z</time>
            </trkpt>
            <trkpt lat="46.458400" lon="10.425570">
                <time>2017-07-15T14:24:14Z</time>
            </trkpt>
            <trkpt lat="46.458420" lon="10.425470">
                <time>2017-07-15T14:24:15Z</time>
            </trkpt>
            <trkpt lat="46.458430" lon="10.425370">
                <time>2017-07-15T14:24:16Z</time>
            </trkpt>
            <trkpt lat="46.458440" lon="10.425250">
                <time>2017-07-15T14:24:17Z</time>
            </trkpt>
            <trkpt lat="46.458450" lon="10.425150">
                <time>2017-07-15T14:24:18Z</time>
            </trkpt>
            <trkpt lat="46.458460" lon="10.425050">
                <time>2017-07-15T14:24:19Z</time>
            </trkpt>
            <trkpt lat="46.458460" lon="10.424950">
                <time>2017-07-15T14:24:20Z</time>
            </trkpt>
            <trkpt lat="46.458440" lon="10.424860">
                <time>2017-07-15T14:24:21Z</time>
            </trkpt>
            <trkpt lat="46.458420" lon="10.424750">
                <time>2017-07-15T14:24:22Z</time>
            </trkpt>
            <trkpt lat="46.458400" lon="10.424660">
                <time>2017-07-15T14:24:23Z</time>
            </trkpt>
            <trkpt lat="46.458380" lon="10.424580">
                <time>2017-07-15T14:24:24Z</time>
            </trkpt>
            <trkpt lat="46.458370" lon="10.424490">
                <time>2017-07-15T14:24:25Z</time>
            </trkpt>
            <trkpt lat="46.458370" lon="10.424400">
                <time>2017-07-15T14:24:26Z</time>
            </trkpt>
            <trkpt lat="46.458370" lon="10.424320">
                <time>2017-07-15T14:24:27Z</time>
            </trkpt>
            <trkpt lat="46.458390" lon="10.424220">
                <time>2017-07-15T14:24:28Z</time>
            </trkpt>
            <trkpt lat="46.458400" lon="10.424130">
                <time>2017-07-15T14:24:29Z</time>
            </trkpt>
            <trkpt lat="46.458410" lon="10.424020">
                <time>2017-07-15T14:24:30Z</time>
            </trkpt>
            <trkpt lat="46.458420" lon="10.423910">
                <time>2017-07-15T14:24:31Z</time>
            </trkpt>
            <trkpt lat="46.458440" lon="10.423820">
                <time>2017-07-15T14:24:32Z</time>
            </trkpt>
            <trkpt lat="46.458460" lon="10.423730">
                <time>2017-07-15T14:24:33Z</time>
            </trkpt>
            <trkpt lat="46.458470" lon="10.423640">
                <time>2017-07-15T14:24:34Z</time>
            </trkpt>
            <trkpt lat="46.458490" lon="10.423550">
                <time>2017-07-15T14:24:35Z</time>
            </trkpt>
            <trkpt lat="46.458510" lon="10.423460">
                <time>2017-07-15T14:24:36Z</time>
            </trkpt>
            <trkpt lat="46.458540" lon="10.423380">
                <time>2017-07-15T14:24:37Z</time>
            </trkpt>
            <trkpt lat="46.458580" lon="10.423310">
                <time>2017-07-15T14:24:38Z</time>
            </trkpt>
            <trkpt lat="46.458620" lon="10.423230">
                <time>2017-07-15T14:24:39Z</time>
            </trkpt>
            <trkpt lat="46.458660" lon="10.423160">
                <time>2017-07-15T14:24:40Z</time>
            </trkpt>
            <trkpt lat="46.458710" lon="10.423080">
                <time>2017-07-15T14:24:41Z</time>
            </trkpt>
            <trkpt lat="46.458760" lon="10.422980">
                <time>2017-07-15T14:24:42Z</time>
            </trkpt>
            <trkpt lat="46.458800" lon="10.422900">
                <time>2017-07-15T14:24:43Z</time>
            </trkpt>
            <trkpt lat="46.458860" lon="10.422810">
                <time>2017-07-15T14:24:44Z</time>
            </trkpt>
            <trkpt lat="46.458900" lon="10.422740">
                <time>2017-07-15T14:24:45Z</time>
            </trkpt>
            <trkpt lat="46.458950" lon="10.422660">
                <time>2017-07-15T14:24:46Z</time>
            </trkpt>
            <trkpt lat="46.459010" lon="10.422590">
                <time>2017-07-15T14:24:47Z</time>
            </trkpt>
            <trkpt lat="46.459070" lon="10.422530">
                <time>2017-07-15T14:24:48Z</time>
            </trkpt>
            <trkpt lat="46.459130" lon="10.422470">
                <time>2017-07-15T14:24:49Z</time>
            </trkpt>
            <trkpt lat="46.459190" lon="10.422410">
                <time>2017-07-15T14:24:50Z</time>
            </trkpt>
            <trkpt lat="46.459260" lon="10.422340">
                <time>2017-07-15T14:24:51Z</time>
            </trkpt>
            <trkpt lat="46.459330" lon="10.422270">
                <time>2017-07-15T14:24:52Z</time>
            </trkpt>
            <trkpt lat="46.459400" lon="10.422210">
                <time>2017-07-15T14:24:53Z</time>
            </trkpt>
            <trkpt lat="46.459470" lon="10.422130">
                <time>2017-07-15T14:24:54Z</time>
            </trkpt>
            <trkpt lat="46.459560" lon="10.422040">
                <time>2017-07-15T14:24:55Z</time>
            </trkpt>
            <trkpt lat="46.459630" lon="10.421970">
                <time>2017-07-15T14:24:56Z</time>
            </trkpt>
            <trkpt lat="46.459710" lon="10.421900">
                <time>2017-07-15T14:24:57Z</time>
            </trkpt>
            <trkpt lat="46.459800" lon="10.421820">
                <time>2017-07-15T14:24:58Z</time>
            </trkpt>
            <trkpt lat="46.459870" lon="10.421740">
                <time>2017-07-15T14:24:59Z</time>
            </trkpt>
            <trkpt lat="46.459960" lon="10.421640">
                <time>2017-07-15T14:25:00Z</time>
            </trkpt>
            <trkpt lat="46.460040" lon="10.421560">
                <time>2017-07-15T14:25:01Z</time>
            </trkpt>
            <trkpt lat="46.460120" lon="10.421460">
                <time>2017-07-15T14:25:02Z</time>
            </trkpt>
            <trkpt lat="46.460200" lon="10.421360">
                <time>2017-07-15T14:25:03Z</time>
            </trkpt>
            <trkpt lat="46.460270" lon="10.421280">
                <time>2017-07-15T14:25:04Z</time>
            </trkpt>
            <trkpt lat="46.460350" lon="10.421190">
                <time>2017-07-15T14:25:05Z</time>
            </trkpt>
            <trkpt lat="46.460410" lon="10.421120">
                <time>2017-07-15T14:25:06Z</time>
            </trkpt>
            <trkpt lat="46.460480" lon="10.421040">
                <time>2017-07-15T14:25:07Z</time>
            </trkpt>
            <trkpt lat="46.460540" lon="10.420940">
                <time>2017-07-15T14:25:08Z</time>
            </trkpt>
            <trkpt lat="46.460590" lon="10.420850">
                <time>2017-07-15T14:25:09Z</time>
            </trkpt>
            <trkpt lat="46.460640" lon="10.420750">
                <time>2017-07-15T14:25:10Z</time>
            </trkpt>
            <trkpt lat="46.460690" lon="10.420640">
                <time>2017-07-15T14:25:11Z</time>
            </trkpt>
            <trkpt lat="46.460730" lon="10.420540">
                <time>2017-07-15T14:25:12Z</time>
            </trkpt>
            <trkpt lat="46.460770" lon="10.420430">
                <time>2017-07-15T14:25:13Z</time>
            </trkpt>
            <trkpt lat="46.460800" lon="10.420310">
                <time>2017-07-15T14:25:14Z</time>
            </trkpt>
            <trkpt lat="46.460830" lon="10.420200">
                <time>2017-07-15T14:25:15Z</time>
            </trkpt>
            <trkpt lat="46.460850" lon="10.420080">
                <time>2017-07-15T14:25:16Z</time>
            </trkpt>
            <trkpt lat="46.460880" lon="10.419960">
                <time>2017-07-15T14:25:17Z</time>
            </trkpt>
            <trkpt lat="46.460900" lon="10.419840">
                <time>2017-07-15T14:25:18Z</time>
            </trkpt>
            <trkpt lat="46.460940" lon="10.419700">
                <time>2017-07-15T14:25:19Z</time>
            </trkpt>
            <trkpt lat="46.460960" lon="10.419580">
                <time>2017-07-15T14:25:20Z</time>
            </trkpt>
            <trkpt lat="46.461000" lon="10.419440">
                <time>2017-07-15T14:25:21Z</time>
            </trkpt>
            <trkpt lat="46.461030" lon="10.419300">
                <time>2017-07-15T14:25:22Z</time>
            </trkpt>
            <trkpt lat="46.461060" lon="10.419160">
                <time>2017-07-15T14:25:23Z</time>
            </trkpt>
            <trkpt lat="46.461100" lon="10.419020">
                <time>2017-07-15T14:25:24Z</time>
            </trkpt>
            <trkpt lat="46.461120" lon="10.418900">
                <time>2017-07-15T14:25:25Z</time>
            </trkpt>
            <trkpt lat="46.461140" lon="10.418760">
                <time>2017-07-15T14:25:26Z</time>
            </trkpt>
            <trkpt lat="46.461170" lon="10.418620">
                <time>2017-07-15T14:25:27Z</time>
            </trkpt>
            <trkpt lat="46.461180" lon="10.418510">
                <time>2017-07-15T14:25:28Z</time>
            </trkpt>
            <trkpt lat="46.461200" lon="10.418390">
                <time>2017-07-15T14:25:29Z</time>
            </trkpt>
            <trkpt lat="46.461220" lon="10.418260">
                <time>2017-07-15T14:25:30Z</time>
            </trkpt>
            <trkpt lat="46.461230" lon="10.418150">
                <time>2017-07-15T14:25:31Z</time>
            </trkpt>
            <trkpt lat="46.461240" lon="10.418020">
                <time>2017-07-15T14:25:32Z</time>
            </trkpt>
            <trkpt lat="46.461260" lon="10.417910">
                <time>2017-07-15T14:25:33Z</time>
            </trkpt>
            <trkpt lat="46.461290" lon="10.417800">
                <time>2017-07-15T14:25:34Z</time>
            </trkpt>
            <trkpt lat="46.461310" lon="10.417680">
                <time>2017-07-15T14:25:35Z</time>
            </trkpt>
            <trkpt lat="46.461330" lon="10.417570">
                <time>2017-07-15T14:25:36Z</time>
            </trkpt>
            <trkpt lat="46.461350" lon="10.417450">
                <time>2017-07-15T14:25:37Z</time>
            </trkpt>
            <trkpt lat="46.461370" lon="10.417330">
                <time>2017-07-15T14:25:38Z</time>
            </trkpt>
            <trkpt lat="46.461390" lon="10.417230">
                <time>2017-07-15T14:25:39Z</time>
            </trkpt>
            <trkpt lat="46.461410" lon="10.417100">
                <time>2017-07-15T14:25:40Z</time>
            </trkpt>
            <trkpt lat="46.461430" lon="10.416990">
                <time>2017-07-15T14:25:41Z</time>
            </trkpt>
            <trkpt lat="46.461450" lon="10.416890">
                <time>2017-07-15T14:25:42Z</time>
            </trkpt>
            <trkpt lat="46.461470" lon="10.416780">
                <time>2017-07-15T14:25:43Z</time>
            </trkpt>
            <trkpt lat="46.461490" lon="10.416670">
                <time>2017-07-15T14:25:44Z</time>
            </trkpt>
            <trkpt lat="46.461510" lon="10.416560">
                <time>2017-07-15T14:25:45Z</time>
            </trkpt>
            <trkpt lat="46.461530" lon="10.416430">
                <time>2017-07-15T14:25:46Z</time>
            </trkpt>
            <trkpt lat="46.461560" lon="10.416310">
                <time>2017-07-15T14:25:47Z</time>
            </trkpt>
            <trkpt lat="46.461580" lon="10.416180">
                <time>2017-07-15T14:25:48Z</time>
            </trkpt>
            <trkpt lat="46.461600" lon="10.416050">
                <time>2017-07-15T14:25:49Z</time>
            </trkpt>
            <trkpt lat="46.461620" lon="10.415920">
                <time>2017-07-15T14:25:50Z</time>
            </trkpt>
            <trkpt lat="46.461650" lon="10.415780">
                <time>2017-07-15T14:25:51Z</time>
            </trkpt>
            <trkpt lat="46.461670" lon="10.415650">
                <time>2017-07-15T14:25:52Z</time>
            </trkpt>
            <trkpt lat="46.461690" lon="10.415510">
                <time>2017-07-15T14:25:53Z</time>
            </trkpt>
            <trkpt lat="46.461720" lon="10.415370">
                <time>2017-07-15T14:25:54Z</time>
            </trkpt>
            <trkpt lat="46.461760" lon="10.415210">
                <time>2017-07-15T14:25:55Z</time>
            </trkpt>
            <trkpt lat="46.461790" lon="10.415040">
                <time>2017-07-15T14:25:56Z</time>
            </trkpt>
            <trkpt lat="46.461810" lon="10.414900">
                <time>2017-07-15T14:25:57Z</time>
            </trkpt>
            <trkpt lat="46.461830" lon="10.414760">
                <time>2017-07-15T14:25:58Z</time>
            </trkpt>
            <trkpt lat="46.461850" lon="10.414610">
                <time>2017-07-15T14:25:59Z</time>
            </trkpt>
            <trkpt lat="46.461860" lon="10.414480">
                <time>2017-07-15T14:26:00Z</time>
            </trkpt>
            <trkpt lat="46.461880" lon="10.414330">
                <time>2017-07-15T14:26:01Z</time>
            </trkpt>
            <trkpt lat="46.461910" lon="10.414170">
                <time>2017-07-15T14:26:02Z</time>
            </trkpt>
            <trkpt lat="46.461930" lon="10.414040">
                <time>2017-07-15T14:26:03Z</time>
            </trkpt>
            <trkpt lat="46.461960" lon="10.413890">
                <time>2017-07-15T14:26:04Z</time>
            </trkpt>
            <trkpt lat="46.461990" lon="10.413760">
                <time>2017-07-15T14:26:05Z</time>
            </trkpt>
            <trkpt lat="46.462030" lon="10.413630">
                <time>2017-07-15T14:26:06Z</time>
            </trkpt>
            <trkpt lat="46.462070" lon="10.413470">
                <time>2017-07-15T14:26:07Z</time>
            </trkpt>
            <trkpt lat="46.462100" lon="10.413350">
                <time>2017-07-15T14:26:08Z</time>
            </trkpt>
            <trkpt lat="46.462120" lon="10.413210">
                <time>2017-07-15T14:26:09Z</time>
            </trkpt>
            <trkpt lat="46.462140" lon="10.413070">
                <time>2017-07-15T14:26:10Z</time>
            </trkpt>
            <trkpt lat="46.462150" lon="10.412930">
                <time>2017-07-15T14:26:11Z</time>
            </trkpt>
            <trkpt lat="46.462160" lon="10.412780">
                <time>2017-07-15T14:26:12Z</time>
            </trkpt>
            <trkpt lat="46.462170" lon="10.412630">
                <time>2017-07-15T14:26:13Z</time>
            </trkpt>
            <trkpt lat="46.462180" lon="10.412480">
                <time>2017-07-15T14:26:14Z</time>
            </trkpt>
            <trkpt lat="46.462210" lon="10.412330">
                <time>2017-07-15T14:26:15Z</time>
            </trkpt>
            <trkpt lat="46.462220" lon="10.412210">
                <time>2017-07-15T14:26:16Z</time>
            </trkpt>
            <trkpt lat="46.462250" lon="10.412080">
                <time>2017-07-15T14:26:17Z</time>
            </trkpt>
            <trkpt lat="46.462270" lon="10.411950">
                <time>2017-07-15T14:26:18Z</time>
            </trkpt>
            <trkpt lat="46.462290" lon="10.411830">
                <time>2017-07-15T14:26:19Z</time>
            </trkpt>
            <trkpt lat="46.462330" lon="10.411690">
                <time>2017-07-15T14:26:20Z</time>
            </trkpt>
            <trkpt lat="46.462370" lon="10.411580">
                <time>2017-07-15T14:26:21Z</time>
            </trkpt>
            <trkpt lat="46.462410" lon="10.411460">
                <time>2017-07-15T14:26:22Z</time>
            </trkpt>
            <trkpt lat="46.462460" lon="10.411320">
                <time>2017-07-15T14:26:23Z</time>
            </trkpt>
            <trkpt lat="46.462490" lon="10.411200">
                <time>2017-07-15T14:26:24Z</time>
            </trkpt>
            <trkpt lat="46.462540" lon="10.411070">
                <time>2017-07-15T14:26:25Z</time>
            </trkpt>
            <trkpt lat="46.462580" lon="10.410930">
                <time>2017-07-15T14:26:26Z</time>
            </trkpt>
            <trkpt lat="46.462620" lon="10.410790">
                <time>2017-07-15T14:26:27Z</time>
            </trkpt>
            <trkpt lat="46.462650" lon="10.410650">
                <time>2017-07-15T14:26:28Z</time>
            </trkpt>
            <trkpt lat="46.462660" lon="10.410520">
                <time>2017-07-15T14:26:29Z</time>
            </trkpt>
            <trkpt lat="46.462690" lon="10.410380">
                <time>2017-07-15T14:26:30Z</time>
            </trkpt>
            <trkpt lat="46.462700" lon="10.410230">
                <time>2017-07-15T14:26:31Z</time>
            </trkpt>
            <trkpt lat="46.462710" lon="10.410090">
                <time>2017-07-15T14:26:32Z</time>
            </trkpt>
            <trkpt lat="46.462720" lon="10.409940">
                <time>2017-07-15T14:26:33Z</time>
            </trkpt>
            <trkpt lat="46.462730" lon="10.409780">
                <time>2017-07-15T14:26:34Z</time>
            </trkpt>
            <trkpt lat="46.462740" lon="10.409640">
                <time>2017-07-15T14:26:35Z</time>
            </trkpt>
            <trkpt lat="46.462750" lon="10.409480">
                <time>2017-07-15T14:26:36Z</time>
            </trkpt>
            <trkpt lat="46.462760" lon="10.409340">
                <time>2017-07-15T14:26:37Z</time>
            </trkpt>
            <trkpt lat="46.462770" lon="10.409200">
                <time>2017-07-15T14:26:38Z</time>
            </trkpt>
            <trkpt lat="46.462780" lon="10.409050">
                <time>2017-07-15T14:26:39Z</time>
            </trkpt>
            <trkpt lat="46.462790" lon="10.408910">
                <time>2017-07-15T14:26:40Z</time>
            </trkpt>
            <trkpt lat="46.462800" lon="10.408770">
                <time>2017-07-15T14:26:41Z</time>
            </trkpt>
            <trkpt lat="46.462800" lon="10.408640">
                <time>2017-07-15T14:26:42Z</time>
            </trkpt>
            <trkpt lat="46.462790" lon="10.408510">
                <time>2017-07-15T14:26:43Z</time>
            </trkpt>
            <trkpt lat="46.462790" lon="10.408370">
                <time>2017-07-15T14:26:44Z</time>
            </trkpt>
            <trkpt lat="46.462780" lon="10.408250">
                <time>2017-07-15T14:26:45Z</time>
            </trkpt>
            <trkpt lat="46.462780" lon="10.408110">
                <time>2017-07-15T14:26:46Z</time>
            </trkpt>
            <trkpt lat="46.462790" lon="10.407960">
                <time>2017-07-15T14:26:47Z</time>
            </trkpt>
            <trkpt lat="46.462810" lon="10.407830">
                <time>2017-07-15T14:26:48Z</time>
            </trkpt>
            <trkpt lat="46.462840" lon="10.407710">
                <time>2017-07-15T14:26:49Z</time>
            </trkpt>
            <trkpt lat="46.462890" lon="10.407600">
                <time>2017-07-15T14:26:50Z</time>
            </trkpt>
            <trkpt lat="46.462960" lon="10.407500">
                <time>2017-07-15T14:26:51Z</time>
            </trkpt>
            <trkpt lat="46.463030" lon="10.407370">
                <time>2017-07-15T14:26:52Z</time>
            </trkpt>
            <trkpt lat="46.463100" lon="10.407250">
                <time>2017-07-15T14:26:53Z</time>
            </trkpt>
            <trkpt lat="46.463170" lon="10.407120">
                <time>2017-07-15T14:26:54Z</time>
            </trkpt>
            <trkpt lat="46.463260" lon="10.406990">
                <time>2017-07-15T14:26:55Z</time>
            </trkpt>
            <trkpt lat="46.463320" lon="10.406860">
                <time>2017-07-15T14:26:56Z</time>
            </trkpt>
            <trkpt lat="46.463380" lon="10.406730">
                <time>2017-07-15T14:26:57Z</time>
            </trkpt>
            <trkpt lat="46.463430" lon="10.406580">
                <time>2017-07-15T14:26:58Z</time>
            </trkpt>
            <trkpt lat="46.463470" lon="10.406420">
                <time>2017-07-15T14:26:59Z</time>
            </trkpt>
            <trkpt lat="46.463490" lon="10.406250">
                <time>2017-07-15T14:27:00Z</time>
            </trkpt>
            <trkpt lat="46.463500" lon="10.406090">
                <time>2017-07-15T14:27:01Z</time>
            </trkpt>
            <trkpt lat="46.463510" lon="10.405920">
                <time>2017-07-15T14:27:02Z</time>
            </trkpt>
            <trkpt lat="46.463520" lon="10.405750">
                <time>2017-07-15T14:27:03Z</time>
            </trkpt>
            <trkpt lat="46.463530" lon="10.405590">
                <time>2017-07-15T14:27:04Z</time>
            </trkpt>
            <trkpt lat="46.463550" lon="10.405410">
                <time>2017-07-15T14:27:05Z</time>
            </trkpt>
            <trkpt lat="46.463560" lon="10.405220">
                <time>2017-07-15T14:27:06Z</time>
            </trkpt>
            <trkpt lat="46.463560" lon="10.405040">
                <time>2017-07-15T14:27:07Z</time>
            </trkpt>
            <trkpt lat="46.463550" lon="10.404850">
                <time>2017-07-15T14:27:08Z</time>
            </trkpt>
            <trkpt lat="46.463520" lon="10.404680">
                <time>2017-07-15T14:27:09Z</time>
            </trkpt>
            <trkpt lat="46.463470" lon="10.404510">
                <time>2017-07-15T14:27:10Z</time>
            </trkpt>
            <trkpt lat="46.463420" lon="10.404330">
                <time>2017-07-15T14:27:11Z</time>
            </trkpt>
            <trkpt lat="46.463370" lon="10.404180">
                <time>2017-07-15T14:27:12Z</time>
            </trkpt>
            <trkpt lat="46.463300" lon="10.404020">
                <time>2017-07-15T14:27:13Z</time>
            </trkpt>
            <trkpt lat="46.463240" lon="10.403880">
                <time>2017-07-15T14:27:14Z</time>
            </trkpt>
            <trkpt lat="46.463160" lon="10.403750">
                <time>2017-07-15T14:27:15Z</time>
            </trkpt>
            <trkpt lat="46.463080" lon="10.403620">
                <time>2017-07-15T14:27:16Z</time>
            </trkpt>
            <trkpt lat="46.463010" lon="10.403520">
                <time>2017-07-15T14:27:17Z</time>
            </trkpt>
            <trkpt lat="46.462960" lon="10.403400">
                <time>2017-07-15T14:27:18Z</time>
            </trkpt>
            <trkpt lat="46.462940" lon="10.403270">
                <time>2017-07-15T14:27:19Z</time>
            </trkpt>
            <trkpt lat="46.462940" lon="10.403140">
                <time>2017-07-15T14:27:20Z</time>
            </trkpt>
            <trkpt lat="46.462950" lon="10.402990">
                <time>2017-07-15T14:27:21Z</time>
            </trkpt>
            <trkpt lat="46.462980" lon="10.402820">
                <time>2017-07-15T14:27:22Z</time>
            </trkpt>
            <trkpt lat="46.463020" lon="10.402660">
                <time>2017-07-15T14:27:23Z</time>
            </trkpt>
            <trkpt lat="46.463070" lon="10.402470">
                <time>2017-07-15T14:27:24Z</time>
            </trkpt>
            <trkpt lat="46.463110" lon="10.402310">
                <time>2017-07-15T14:27:25Z</time>
            </trkpt>
            <trkpt lat="46.463150" lon="10.402150">
                <time>2017-07-15T14:27:26Z</time>
            </trkpt>
            <trkpt lat="46.463190" lon="10.401970">
                <time>2017-07-15T14:27:27Z</time>
            </trkpt>
            <trkpt lat="46.463210" lon="10.401810">
                <time>2017-07-15T14:27:28Z</time>
            </trkpt>
            <trkpt lat="46.463240" lon="10.401650">
                <time>2017-07-15T14:27:29Z</time>
            </trkpt>
            <trkpt lat="46.463290" lon="10.401490">
                <time>2017-07-15T14:27:30Z</time>
            </trkpt>
            <trkpt lat="46.463330" lon="10.401340">
                <time>2017-07-15T14:27:31Z</time>
            </trkpt>
            <trkpt lat="46.463390" lon="10.401190">
                <time>2017-07-15T14:27:32Z</time>
            </trkpt>
            <trkpt lat="46.463440" lon="10.401070">
                <time>2017-07-15T14:27:33Z</time>
            </trkpt>
            <trkpt lat="46.463510" lon="10.400950">
                <time>2017-07-15T14:27:34Z</time>
            </trkpt>
            <trkpt lat="46.463590" lon="10.400830">
                <time>2017-07-15T14:27:35Z</time>
            </trkpt>
            <trkpt lat="46.463660" lon="10.400740">
                <time>2017-07-15T14:27:36Z</time>
            </trkpt>
            <trkpt lat="46.463740" lon="10.400650">
                <time>2017-07-15T14:27:37Z</time>
            </trkpt>
            <trkpt lat="46.463850" lon="10.400570">
                <time>2017-07-15T14:27:38Z</time>
            </trkpt>
            <trkpt lat="46.463920" lon="10.400520">
                <time>2017-07-15T14:27:39Z</time>
            </trkpt>
            <trkpt lat="46.464000" lon="10.400430">
                <time>2017-07-15T14:27:40Z</time>
            </trkpt>
            <trkpt lat="46.464080" lon="10.400340">
                <time>2017-07-15T14:27:41Z</time>
            </trkpt>
            <trkpt lat="46.464140" lon="10.400240">
                <time>2017-07-15T14:27:42Z</time>
            </trkpt>
            <trkpt lat="46.464210" lon="10.400130">
                <time>2017-07-15T14:27:43Z</time>
            </trkpt>
            <trkpt lat="46.464260" lon="10.400030">
                <time>2017-07-15T14:27:44Z</time>
            </trkpt>
            <trkpt lat="46.464330" lon="10.399910">
                <time>2017-07-15T14:27:45Z</time>
            </trkpt>
            <trkpt lat="46.464390" lon="10.399790">
                <time>2017-07-15T14:27:46Z</time>
            </trkpt>
            <trkpt lat="46.464450" lon="10.399680">
                <time>2017-07-15T14:27:47Z</time>
            </trkpt>
            <trkpt lat="46.464520" lon="10.399560">
                <time>2017-07-15T14:27:48Z</time>
            </trkpt>
            <trkpt lat="46.464580" lon="10.399480">
                <time>2017-07-15T14:27:49Z</time>
            </trkpt>
            <trkpt lat="46.464630" lon="10.399400">
                <time>2017-07-15T14:27:50Z</time>
            </trkpt>
            <trkpt lat="46.464670" lon="10.399320">
                <time>2017-07-15T14:27:51Z</time>
            </trkpt>
            <trkpt lat="46.464710" lon="10.399260">
                <time>2017-07-15T14:27:52Z</time>
            </trkpt>
            <trkpt lat="46.464760" lon="10.399190">
                <time>2017-07-15T14:27:53Z</time>
            </trkpt>
            <trkpt lat="46.464810" lon="10.399110">
                <time>2017-07-15T14:27:54Z</time>
            </trkpt>
            <trkpt lat="46.464850" lon="10.399030">
                <time>2017-07-15T14:27:55Z</time>
            </trkpt>
            <trkpt lat="46.464900" lon="10.398950">
                <time>2017-07-15T14:27:56Z</time>
            </trkpt>
            <trkpt lat="46.464950" lon="10.398880">
                <time>2017-07-15T14:27:57Z</time>
            </trkpt>
            <trkpt lat="46.464990" lon="10.398800">
                <time>2017-07-15T14:27:58Z</time>
            </trkpt>
            <trkpt lat="46.465040" lon="10.398720">
                <time>2017-07-15T14:27:59Z</time>
            </trkpt>
            <trkpt lat="46.465080" lon="10.398660">
                <time>2017-07-15T14:28:00Z</time>
            </trkpt>
            <trkpt lat="46.465130" lon="10.398600">
                <time>2017-07-15T14:28:01Z</time>
            </trkpt>
            <trkpt lat="46.465180" lon="10.398550">
                <time>2017-07-15T14:28:02Z</time>
            </trkpt>
            <trkpt lat="46.465230" lon="10.398500">
                <time>2017-07-15T14:28:03Z</time>
            </trkpt>
            <trkpt lat="46.465290" lon="10.398450">
                <time>2017-07-15T14:28:04Z</time>
            </trkpt>
            <trkpt lat="46.465350" lon="10.398420">
                <time>2017-07-15T14:28:05Z</time>
            </trkpt>
            <trkpt lat="46.465420" lon="10.398380">
                <time>2017-07-15T14:28:06Z</time>
            </trkpt>
            <trkpt lat="46.465490" lon="10.398320">
                <time>2017-07-15T14:28:07Z</time>
            </trkpt>
            <trkpt lat="46.465550" lon="10.398260">
                <time>2017-07-15T14:28:08Z</time>
            </trkpt>
            <trkpt lat="46.465620" lon="10.398210">
                <time>2017-07-15T14:28:09Z</time>
            </trkpt>
            <trkpt lat="46.465690" lon="10.398160">
                <time>2017-07-15T14:28:10Z</time>
            </trkpt>
            <trkpt lat="46.465750" lon="10.398100">
                <time>2017-07-15T14:28:11Z</time>
            </trkpt>
            <trkpt lat="46.465820" lon="10.398040">
                <time>2017-07-15T14:28:12Z</time>
            </trkpt>
            <trkpt lat="46.465870" lon="10.397950">
                <time>2017-07-15T14:28:13Z</time>
            </trkpt>
            <trkpt lat="46.465900" lon="10.397840">
                <time>2017-07-15T14:28:14Z</time>
            </trkpt>
            <trkpt lat="46.465930" lon="10.397720">
                <time>2017-07-15T14:28:15Z</time>
            </trkpt>
            <trkpt lat="46.465940" lon="10.397590">
                <time>2017-07-15T14:28:16Z</time>
            </trkpt>
            <trkpt lat="46.465950" lon="10.397460">
                <time>2017-07-15T14:28:17Z</time>
            </trkpt>
            <trkpt lat="46.465960" lon="10.397310">
                <time>2017-07-15T14:28:18Z</time>
            </trkpt>
            <trkpt lat="46.465960" lon="10.397160">
                <time>2017-07-15T14:28:19Z</time>
            </trkpt>
            <trkpt lat="46.465950" lon="10.397000">
                <time>2017-07-15T14:28:20Z</time>
            </trkpt>
            <trkpt lat="46.465940" lon="10.396840">
                <time>2017-07-15T14:28:21Z</time>
            </trkpt>
            <trkpt lat="46.465920" lon="10.396690">
                <time>2017-07-15T14:28:22Z</time>
            </trkpt>
            <trkpt lat="46.465910" lon="10.396510">
                <time>2017-07-15T14:28:23Z</time>
            </trkpt>
            <trkpt lat="46.465900" lon="10.396350">
                <time>2017-07-15T14:28:24Z</time>
            </trkpt>
            <trkpt lat="46.465910" lon="10.396160">
                <time>2017-07-15T14:28:25Z</time>
            </trkpt>
            <trkpt lat="46.465910" lon="10.395980">
                <time>2017-07-15T14:28:26Z</time>
            </trkpt>
            <trkpt lat="46.465920" lon="10.395810">
                <time>2017-07-15T14:28:27Z</time>
            </trkpt>
            <trkpt lat="46.465940" lon="10.395630">
                <time>2017-07-15T14:28:28Z</time>
            </trkpt>
            <trkpt lat="46.465950" lon="10.395470">
                <time>2017-07-15T14:28:29Z</time>
            </trkpt>
            <trkpt lat="46.465970" lon="10.395300">
                <time>2017-07-15T14:28:30Z</time>
            </trkpt>
            <trkpt lat="46.466000" lon="10.395120">
                <time>2017-07-15T14:28:31Z</time>
            </trkpt>
            <trkpt lat="46.466020" lon="10.394970">
                <time>2017-07-15T14:28:32Z</time>
            </trkpt>
            <trkpt lat="46.466040" lon="10.394800">
                <time>2017-07-15T14:28:33Z</time>
            </trkpt>
            <trkpt lat="46.466070" lon="10.394640">
                <time>2017-07-15T14:28:34Z</time>
            </trkpt>
            <trkpt lat="46.466100" lon="10.394480">
                <time>2017-07-15T14:28:35Z</time>
            </trkpt>
            <trkpt lat="46.466130" lon="10.394310">
                <time>2017-07-15T14:28:36Z</time>
            </trkpt>
            <trkpt lat="46.466160" lon="10.394160">
                <time>2017-07-15T14:28:37Z</time>
            </trkpt>
            <trkpt lat="46.466190" lon="10.394000">
                <time>2017-07-15T14:28:38Z</time>
            </trkpt>
            <trkpt lat="46.466210" lon="10.393830">
                <time>2017-07-15T14:28:39Z</time>
            </trkpt>
            <trkpt lat="46.466230" lon="10.393670">
                <time>2017-07-15T14:28:40Z</time>
            </trkpt>
            <trkpt lat="46.466250" lon="10.393500">
                <time>2017-07-15T14:28:41Z</time>
            </trkpt>
            <trkpt lat="46.466270" lon="10.393310">
                <time>2017-07-15T14:28:42Z</time>
            </trkpt>
            <trkpt lat="46.466290" lon="10.393150">
                <time>2017-07-15T14:28:43Z</time>
            </trkpt>
            <trkpt lat="46.466310" lon="10.392960">
                <time>2017-07-15T14:28:44Z</time>
            </trkpt>
            <trkpt lat="46.466310" lon="10.392790">
                <time>2017-07-15T14:28:45Z</time>
            </trkpt>
            <trkpt lat="46.466300" lon="10.392610">
                <time>2017-07-15T14:28:46Z</time>
            </trkpt>
            <trkpt lat="46.466280" lon="10.392420">
                <time>2017-07-15T14:28:47Z</time>
            </trkpt>
            <trkpt lat="46.466250" lon="10.392230">
                <time>2017-07-15T14:28:48Z</time>
            </trkpt>
            <trkpt lat="46.466220" lon="10.392020">
                <time>2017-07-15T14:28:49Z</time>
            </trkpt>
            <trkpt lat="46.466190" lon="10.391790">
                <time>2017-07-15T14:28:50Z</time>
            </trkpt>
            <trkpt lat="46.466160" lon="10.391570">
                <time>2017-07-15T14:28:51Z</time>
            </trkpt>
            <trkpt lat="46.466120" lon="10.391350">
                <time>2017-07-15T14:28:52Z</time>
            </trkpt>
            <trkpt lat="46.466090" lon="10.391150">
                <time>2017-07-15T14:28:53Z</time>
            </trkpt>
            <trkpt lat="46.466090" lon="10.390940">
                <time>2017-07-15T14:28:54Z</time>
            </trkpt>
            <trkpt lat="46.466110" lon="10.390720">
                <time>2017-07-15T14:28:55Z</time>
            </trkpt>
            <trkpt lat="46.466150" lon="10.390530">
                <time>2017-07-15T14:28:56Z</time>
            </trkpt>
            <trkpt lat="46.466200" lon="10.390330">
                <time>2017-07-15T14:28:57Z</time>
            </trkpt>
            <trkpt lat="46.466240" lon="10.390110">
                <time>2017-07-15T14:28:58Z</time>
            </trkpt>
            <trkpt lat="46.466270" lon="10.389920">
                <time>2017-07-15T14:28:59Z</time>
            </trkpt>
            <trkpt lat="46.466290" lon="10.389700">
                <time>2017-07-15T14:29:00Z</time>
            </trkpt>
            <trkpt lat="46.466290" lon="10.389510">
                <time>2017-07-15T14:29:01Z</time>
            </trkpt>
            <trkpt lat="46.466280" lon="10.389300">
                <time>2017-07-15T14:29:02Z</time>
            </trkpt>
            <trkpt lat="46.466260" lon="10.389090">
                <time>2017-07-15T14:29:03Z</time>
            </trkpt>
            <trkpt lat="46.466250" lon="10.388890">
                <time>2017-07-15T14:29:04Z</time>
            </trkpt>
            <trkpt lat="46.466240" lon="10.388690">
                <time>2017-07-15T14:29:05Z</time>
            </trkpt>
            <trkpt lat="46.466220" lon="10.388490">
                <time>2017-07-15T14:29:06Z</time>
            </trkpt>
            <trkpt lat="46.466220" lon="10.388290">
                <time>2017-07-15T14:29:07Z</time>
            </trkpt>
            <trkpt lat="46.466230" lon="10.388090">
                <time>2017-07-15T14:29:08Z</time>
            </trkpt>
            <trkpt lat="46.466240" lon="10.387910">
                <time>2017-07-15T14:29:09Z</time>
            </trkpt>
            <trkpt lat="46.466250" lon="10.387730">
                <time>2017-07-15T14:29:10Z</time>
            </trkpt>
            <trkpt lat="46.466260" lon="10.387540">
                <time>2017-07-15T14:29:11Z</time>
            </trkpt>
            <trkpt lat="46.466260" lon="10.387370">
                <time>2017-07-15T14:29:12Z</time>
            </trkpt>
            <trkpt lat="46.466250" lon="10.387190">
                <time>2017-07-15T14:29:13Z</time>
            </trkpt>
            <trkpt lat="46.466240" lon="10.386980">
                <time>2017-07-15T14:29:14Z</time>
            </trkpt>
            <trkpt lat="46.466230" lon="10.386800">
                <time>2017-07-15T14:29:15Z</time>
            </trkpt>
            <trkpt lat="46.466220" lon="10.386570">
                <time>2017-07-15T14:29:16Z</time>
            </trkpt>
            <trkpt lat="46.466210" lon="10.386360">
                <time>2017-07-15T14:29:17Z</time>
            </trkpt>
            <trkpt lat="46.466190" lon="10.386120">
                <time>2017-07-15T14:29:18Z</time>
            </trkpt>
            <trkpt lat="46.466160" lon="10.385880">
                <time>2017-07-15T14:29:19Z</time>
            </trkpt>
            <trkpt lat="46.466150" lon="10.385670">
                <time>2017-07-15T14:29:20Z</time>
            </trkpt>
            <trkpt lat="46.466160" lon="10.385460">
                <time>2017-07-15T14:29:21Z</time>
            </trkpt>
            <trkpt lat="46.466180" lon="10.385260">
                <time>2017-07-15T14:29:22Z</time>
            </trkpt>
            <trkpt lat="46.466210" lon="10.385050">
                <time>2017-07-15T14:29:23Z</time>
            </trkpt>
            <trkpt lat="46.466250" lon="10.384840">
                <time>2017-07-15T14:29:24Z</time>
            </trkpt>
            <trkpt lat="46.466280" lon="10.384650">
                <time>2017-07-15T14:29:25Z</time>
            </trkpt>
            <trkpt lat="46.466320" lon="10.384450">
                <time>2017-07-15T14:29:26Z</time>
            </trkpt>
            <trkpt lat="46.466370" lon="10.384260">
                <time>2017-07-15T14:29:27Z</time>
            </trkpt>
            <trkpt lat="46.466420" lon="10.384100">
                <time>2017-07-15T14:29:28Z</time>
            </trkpt>
            <trkpt lat="46.466480" lon="10.383920">
                <time>2017-07-15T14:29:29Z</time>
            </trkpt>
            <trkpt lat="46.466530" lon="10.383730">
                <time>2017-07-15T14:29:30Z</time>
            </trkpt>
            <trkpt lat="46.466580" lon="10.383560">
                <time>2017-07-15T14:29:31Z</time>
            </trkpt>
            <trkpt lat="46.466630" lon="10.383380">
                <time>2017-07-15T14:29:32Z</time>
            </trkpt>
            <trkpt lat="46.466680" lon="10.383220">
                <time>2017-07-15T14:29:33Z</time>
            </trkpt>
            <trkpt lat="46.466710" lon="10.383050">
                <time>2017-07-15T14:29:34Z</time>
            </trkpt>
            <trkpt lat="46.466750" lon="10.382880">
                <time>2017-07-15T14:29:35Z</time>
            </trkpt>
            <trkpt lat="46.466780" lon="10.382730">
                <time>2017-07-15T14:29:36Z</time>
            </trkpt>
            <trkpt lat="46.466820" lon="10.382550">
                <time>2017-07-15T14:29:37Z</time>
            </trkpt>
            <trkpt lat="46.466850" lon="10.382380">
                <time>2017-07-15T14:29:38Z</time>
            </trkpt>
            <trkpt lat="46.466870" lon="10.382220">
                <time>2017-07-15T14:29:39Z</time>
            </trkpt>
            <trkpt lat="46.466900" lon="10.382030">
                <time>2017-07-15T14:29:40Z</time>
            </trkpt>
            <trkpt lat="46.466910" lon="10.381870">
                <time>2017-07-15T14:29:41Z</time>
            </trkpt>
            <trkpt lat="46.466930" lon="10.381700">
                <time>2017-07-15T14:29:42Z</time>
            </trkpt>
            <trkpt lat="46.466950" lon="10.381520">
                <time>2017-07-15T14:29:43Z</time>
            </trkpt>
            <trkpt lat="46.466960" lon="10.381370">
                <time>2017-07-15T14:29:44Z</time>
            </trkpt>
            <trkpt lat="46.466970" lon="10.381210">
                <time>2017-07-15T14:29:45Z</time>
            </trkpt>
            <trkpt lat="46.466970" lon="10.381030">
                <time>2017-07-15T14:29:46Z</time>
            </trkpt>
            <trkpt lat="46.466980" lon="10.380870">
                <time>2017-07-15T14:29:47Z</time>
            </trkpt>
            <trkpt lat="46.466980" lon="10.380700">
                <time>2017-07-15T14:29:48Z</time>
            </trkpt>
            <trkpt lat="46.466970" lon="10.380550">
                <time>2017-07-15T14:29:49Z</time>
            </trkpt>
            <trkpt lat="46.466970" lon="10.380410">
                <time>2017-07-15T14:29:50Z</time>
            </trkpt>
            <trkpt lat="46.466950" lon="10.380260">
                <time>2017-07-15T14:29:51Z</time>
            </trkpt>
            <trkpt lat="46.466920" lon="10.380130">
                <time>2017-07-15T14:29:52Z</time>
            </trkpt>
            <trkpt lat="46.466900" lon="10.379980">
                <time>2017-07-15T14:29:53Z</time>
            </trkpt>
            <trkpt lat="46.466880" lon="10.379830">
                <time>2017-07-15T14:29:54Z</time>
            </trkpt>
            <trkpt lat="46.466860" lon="10.379690">
                <time>2017-07-15T14:29:55Z</time>
            </trkpt>
            <trkpt lat="46.466840" lon="10.379550">
                <time>2017-07-15T14:29:56Z</time>
            </trkpt>
            <trkpt lat="46.466810" lon="10.379460">
                <time>2017-07-15T14:29:57Z</time>
            </trkpt>
            <trkpt lat="46.466780" lon="10.379370">
                <time>2017-07-15T14:29:58Z</time>
            </trkpt>
            <trkpt lat="46.466760" lon="10.379280">
                <time>2017-07-15T14:29:59Z</time>
            </trkpt>
            <trkpt lat="46.466740" lon="10.379210">
                <time>2017-07-15T14:30:00Z</time>
            </trkpt>
            <trkpt lat="46.466720" lon="10.379110">
                <time>2017-07-15T14:30:01Z</time>
            </trkpt>
            <trkpt lat="46.466690" lon="10.379000">
                <time>2017-07-15T14:30:02Z</time>
            </trkpt>
            <trkpt lat="46.466670" lon="10.378890">
                <time>2017-07-15T14:30:03Z</time>
            </trkpt>
            <trkpt lat="46.466640" lon="10.378760">
                <time>2017-07-15T14:30:04Z</time>
            </trkpt>
            <trkpt lat="46.466620" lon="10.378640">
                <time>2017-07-15T14:30:05Z</time>
            </trkpt>
            <trkpt lat="46.466590" lon="10.378510">
                <time>2017-07-15T14:30:06Z</time>
            </trkpt>
            <trkpt lat="46.466570" lon="10.378380">
                <time>2017-07-15T14:30:07Z</time>
            </trkpt>
            <trkpt lat="46.466550" lon="10.378270">
                <time>2017-07-15T14:30:08Z</time>
            </trkpt>
            <trkpt lat="46.466520" lon="10.378150">
                <time>2017-07-15T14:30:09Z</time>
            </trkpt>
            <trkpt lat="46.466500" lon="10.378020">
                <time>2017-07-15T14:30:10Z</time>
            </trkpt>
            <trkpt lat="46.466480" lon="10.377880">
                <time>2017-07-15T14:30:11Z</time>
            </trkpt>
            <trkpt lat="46.466450" lon="10.377740">
                <time>2017-07-15T14:30:12Z</time>
            </trkpt>
            <trkpt lat="46.466420" lon="10.377610">
                <time>2017-07-15T14:30:13Z</time>
            </trkpt>
            <trkpt lat="46.466390" lon="10.377470">
                <time>2017-07-15T14:30:14Z</time>
            </trkpt>
            <trkpt lat="46.466340" lon="10.377310">
                <time>2017-07-15T14:30:15Z</time>
            </trkpt>
            <trkpt lat="46.466310" lon="10.377170">
                <time>2017-07-15T14:30:16Z</time>
            </trkpt>
            <trkpt lat="46.466280" lon="10.377020">
                <time>2017-07-15T14:30:17Z</time>
            </trkpt>
            <trkpt lat="46.466240" lon="10.376870">
                <time>2017-07-15T14:30:18Z</time>
            </trkpt>
            <trkpt lat="46.466210" lon="10.376740">
                <time>2017-07-15T14:30:19Z</time>
            </trkpt>
            <trkpt lat="46.466180" lon="10.376600">
                <time>2017-07-15T14:30:20Z</time>
            </trkpt>
            <trkpt lat="46.466140" lon="10.376480">
                <time>2017-07-15T14:30:21Z</time>
            </trkpt>
            <trkpt lat="46.466100" lon="10.376350">
                <time>2017-07-15T14:30:22Z</time>
            </trkpt>
            <trkpt lat="46.466080" lon="10.376190">
                <time>2017-07-15T14:30:23Z</time>
            </trkpt>
            <trkpt lat="46.466050" lon="10.376060">
                <time>2017-07-15T14:30:24Z</time>
            </trkpt>
            <trkpt lat="46.466010" lon="10.375910">
                <time>2017-07-15T14:30:25Z</time>
            </trkpt>
            <trkpt lat="46.465970" lon="10.375750">
                <time>2017-07-15T14:30:26Z</time>
            </trkpt>
            <trkpt lat="46.465930" lon="10.375600">
                <time>2017-07-15T14:30:27Z</time>
            </trkpt>
            <trkpt lat="46.465890" lon="10.375440">
                <time>2017-07-15T14:30:28Z</time>
            </trkpt>
            <trkpt lat="46.465850" lon="10.375300">
                <time>2017-07-15T14:30:29Z</time>
            </trkpt>
            <trkpt lat="46.465810" lon="10.375160">
                <time>2017-07-15T14:30:30Z</time>
            </trkpt>
            <trkpt lat="46.465770" lon="10.375010">
                <time>2017-07-15T14:30:31Z</time>
            </trkpt>
            <trkpt lat="46.465740" lon="10.374870">
                <time>2017-07-15T14:30:32Z</time>
            </trkpt>
            <trkpt lat="46.465710" lon="10.374730">
                <time>2017-07-15T14:30:33Z</time>
            </trkpt>
            <trkpt lat="46.465670" lon="10.374570">
                <time>2017-07-15T14:30:34Z</time>
            </trkpt>
            <trkpt lat="46.465640" lon="10.374440">
                <time>2017-07-15T14:30:35Z</time>
            </trkpt>
            <trkpt lat="46.465600" lon="10.374290">
                <time>2017-07-15T14:30:36Z</time>
            </trkpt>
            <trkpt lat="46.465560" lon="10.374160">
                <time>2017-07-15T14:30:37Z</time>
            </trkpt>
            <trkpt lat="46.465530" lon="10.374020">
                <time>2017-07-15T14:30:38Z</time>
            </trkpt>
            <trkpt lat="46.465480" lon="10.373880">
                <time>2017-07-15T14:30:39Z</time>
            </trkpt>
            <trkpt lat="46.465450" lon="10.373760">
                <time>2017-07-15T14:30:40Z</time>
            </trkpt>
            <trkpt lat="46.465420" lon="10.373650">
                <time>2017-07-15T14:30:41Z</time>
            </trkpt>
            <trkpt lat="46.465410" lon="10.373540">
                <time>2017-07-15T14:30:42Z</time>
            </trkpt>
            <trkpt lat="46.465390" lon="10.373470">
                <time>2017-07-15T14:30:43Z</time>
            </trkpt>
            <trkpt lat="46.465380" lon="10.373400">
                <time>2017-07-15T14:30:44Z</time>
            </trkpt>
            <trkpt lat="46.465390" lon="10.373370">
                <time>2017-07-15T14:30:45Z</time>
            </trkpt>
            <trkpt lat="46.465400" lon="10.373340">
                <time>2017-07-15T14:30:46Z</time>
            </trkpt>
            <trkpt lat="46.465420" lon="10.373350">
                <time>2017-07-15T14:30:47Z</time>
            </trkpt>
            <trkpt lat="46.465420" lon="10.373340">
                <time>2017-07-15T14:30:48Z</time>
            </trkpt>
            <trkpt lat="46.465420" lon="10.373340">
                <time>2017-07-15T14:30:49Z</time>
            </trkpt>
            <trkpt lat="46.465420" lon="10.373340">
                <time>2017-07-15T14:30:50Z</time>
            </trkpt>
            <trkpt lat="46.465420" lon="10.373340">
                <time>2017-07-15T14:30:51Z</time>
            </trkpt>
            <trkpt lat="46.465420" lon="10.373350">
                <time>2017-07-15T14:30:52Z</time>
            </trkpt>
            <trkpt lat="46.465430" lon="10.373350">
                <time>2017-07-15T14:30:53Z</time>
            </trkpt>
            <trkpt lat="46.465420" lon="10.373350">
                <time>2017-07-15T14:30:54Z</time>
            </trkpt>
            <trkpt lat="46.465420" lon="10.373350">
                <time>2017-07-15T14:30:55Z</time>
            </trkpt>
            <trkpt lat="46.465420" lon="10.373350">
                <time>2017-07-15T14:30:56Z</time>
            </trkpt>
            <trkpt lat="46.465420" lon="10.373350">
                <time>2017-07-15T14:30:57Z</time>
            </trkpt>
            <trkpt lat="46.465420" lon="10.373350">
                <time>2017-07-15T14:30:58Z</time>
            </trkpt>
            <trkpt lat="46.465420" lon="10.373350">
                <time>2017-07-15T14:30:59Z</time>
            </trkpt>
            <trkpt lat="46.465410" lon="10.373340">
                <time>2017-07-15T14:31:00Z</time>
            </trkpt>
            <trkpt lat="46.465410" lon="10.373340">
                <time>2017-07-15T14:31:01Z</time>
            </trkpt>
            <trkpt lat="46.465410" lon="10.373340">
                <time>2017-07-15T14:31:02Z</time>
            </trkpt>
            <trkpt lat="46.465410" lon="10.373340">
                <time>2017-07-15T14:31:03Z</time>
            </trkpt>
            <trkpt lat="46.465410" lon="10.373340">
                <time>2017-07-15T14:31:04Z</time>
            </trkpt>
            <trkpt lat="46.465410" lon="10.373340">
                <time>2017-07-15T14:31:05Z</time>
            </trkpt>
            <trkpt lat="46.465410" lon="10.373340">
                <time>2017-07-15T14:31:06Z</time>
            </trkpt>
            <trkpt lat="46.465410" lon="10.373340">
                <time>2017-07-15T14:31:07Z</time>
            </trkpt>
            <trkpt lat="46.465410" lon="10.373340">
                <time>2017-07-15T14:31:08Z</time>
            </trkpt>
            <trkpt lat="46.465410" lon="10.373340">
                <time>2017-07-15T14:31:09Z</time>
            </trkpt>
            <trkpt lat="46.465410" lon="10.373340">
                <time>2017-07-15T14:31:10Z</time>
            </trkpt>
            <trkpt lat="46.465410" lon="10.373340">
                <time>2017-07-15T14:31:11Z</time>
            </trkpt>
            <trkpt lat="46.465410" lon="10.373340">
                <time>2017-07-15T14:31:12Z</time>
            </trkpt>
            <trkpt lat="46.465410" lon="10.373340">
                <time>2017-07-15T14:31:13Z</time>
            </trkpt>
            <trkpt lat="46.465410" lon="10.373340">
                <time>2017-07-15T14:31:14Z</time>
            </trkpt>
            <trkpt lat="46.465410" lon="10.373340">
                <time>2017-07-15T14:31:15Z</time>
            </trkpt>
            <trkpt lat="46.465410" lon="10.373340">
                <time>2017-07-15T14:31:16Z</time>
            </trkpt>
            <trkpt lat="46.465410" lon="10.373340">
                <time>2017-07-15T14:31:17Z</time>
            </trkpt>
            <trkpt lat="46.465410" lon="10.373340">
                <time>2017-07-15T14:31:18Z</time>
            </trkpt>
            <trkpt lat="46.465410" lon="10.373340">
                <time>2017-07-15T14:31:19Z</time>
            </trkpt>
            <trkpt lat="46.465410" lon="10.373340">
                <time>2017-07-15T14:31:20Z</time>
            </trkpt>
            <trkpt lat="46.465410" lon="10.373340">
                <time>2017-07-15T14:31:21Z</time>
            </trkpt>
            <trkpt lat="46.465410" lon="10.373340">
                <time>2017-07-15T14:31:22Z</time>
            </trkpt>
            <trkpt lat="46.465410" lon="10.373340">
                <time>2017-07-15T14:31:23Z</time>
            </trkpt>
            <trkpt lat="46.465410" lon="10.373340">
                <time>2017-07-15T14:31:24Z</time>
            </trkpt>
            <trkpt lat="46.465410" lon="10.373340">
                <time>2017-07-15T14:31:25Z</time>
            </trkpt>
            <trkpt lat="46.465410" lon="10.373340">
                <time>2017-07-15T14:31:26Z</time>
            </trkpt>
            <trkpt lat="46.465410" lon="10.373340">
                <time>2017-07-15T14:31:27Z</time>
            </trkpt>
            <trkpt lat="46.465410" lon="10.373340">
                <time>2017-07-15T14:31:28Z</time>
            </trkpt>
            <trkpt lat="46.465410" lon="10.373340">
                <time>2017-07-15T14:31:29Z</time>
            </trkpt>
            <trkpt lat="46.465410" lon="10.373340">
                <time>2017-07-15T14:31:30Z</time>
            </trkpt>
            <trkpt lat="46.465410" lon="10.373340">
                <time>2017-07-15T14:31:31Z</time>
            </trkpt>
            <trkpt lat="46.465410" lon="10.373340">
                <time>2017-07-15T14:31:32Z</time>
            </trkpt>
            <trkpt lat="46.465410" lon="10.373340">
                <time>2017-07-15T14:31:33Z</time>
            </trkpt>
            <trkpt lat="46.465410" lon="10.373340">
                <time>2017-07-15T14:31:34Z</time>
            </trkpt>
            <trkpt lat="46.465410" lon="10.373340">
                <time>2017-07-15T14:31:35Z</time>
            </trkpt>
            <trkpt lat="46.465410" lon="10.373340">
                <time>2017-07-15T14:31:36Z</time>
            </trkpt>
            <trkpt lat="46.465410" lon="10.373340">
                <time>2017-07-15T14:31:37Z</time>
            </trkpt>
            <trkpt lat="46.465410" lon="10.373340">
                <time>2017-07-15T14:31:38Z</time>
            </trkpt>
            <trkpt lat="46.465410" lon="10.373340">
                <time>2017-07-15T14:31:39Z</time>
            </trkpt>
            <trkpt lat="46.465410" lon="10.373340">
                <time>2017-07-15T14:31:40Z</time>
            </trkpt>
            <trkpt lat="46.465410" lon="10.373340">
                <time>2017-07-15T14:31:41Z</time>
            </trkpt>
            <trkpt lat="46.465410" lon="10.373340">
                <time>2017-07-15T14:31:42Z</time>
            </trkpt>
            <trkpt lat="46.465410" lon="10.373340">
                <time>2017-07-15T14:31:43Z</time>
            </trkpt>
            <trkpt lat="46.465410" lon="10.373340">
                <time>2017-07-15T14:31:44Z</time>
            </trkpt>
            <trkpt lat="46.465410" lon="10.373340">
                <time>2017-07-15T14:31:45Z</time>
            </trkpt>
            <trkpt lat="46.465410" lon="10.373340">
                <time>2017-07-15T14:31:46Z</time>
            </trkpt>
            <trkpt lat="46.465410" lon="10.373340">
                <time>2017-07-15T14:31:47Z</time>
            </trkpt>
            <trkpt lat="46.465410" lon="10.373340">
                <time>2017-07-15T14:31:48Z</time>
            </trkpt>
            <trkpt lat="46.465410" lon="10.373340">
                <time>2017-07-15T14:31:49Z</time>
            </trkpt>
            <trkpt lat="46.465400" lon="10.373340">
                <time>2017-07-15T14:31:50Z</time>
            </trkpt>
            <trkpt lat="46.465400" lon="10.373340">
                <time>2017-07-15T14:31:51Z</time>
            </trkpt>
            <trkpt lat="46.465400" lon="10.373350">
                <time>2017-07-15T14:31:52Z</time>
            </trkpt>
            <trkpt lat="46.465400" lon="10.373350">
                <time>2017-07-15T14:31:53Z</time>
            </trkpt>
            <trkpt lat="46.465390" lon="10.373350">
                <time>2017-07-15T14:31:54Z</time>
            </trkpt>
            <trkpt lat="46.465390" lon="10.373360">
                <time>2017-07-15T14:31:55Z</time>
            </trkpt>
            <trkpt lat="46.465390" lon="10.373370">
                <time>2017-07-15T14:31:56Z</time>
            </trkpt>
            <trkpt lat="46.465380" lon="10.373370">
                <time>2017-07-15T14:31:57Z</time>
            </trkpt>
            <trkpt lat="46.465380" lon="10.373370">
                <time>2017-07-15T14:31:58Z</time>
            </trkpt>
            <trkpt lat="46.465380" lon="10.373370">
                <time>2017-07-15T14:31:59Z</time>
            </trkpt>
            <trkpt lat="46.465370" lon="10.373350">
                <time>2017-07-15T14:32:00Z</time>
            </trkpt>
            <trkpt lat="46.465370" lon="10.373330">
                <time>2017-07-15T14:32:01Z</time>
            </trkpt>
            <trkpt lat="46.465360" lon="10.373310">
                <time>2017-07-15T14:32:02Z</time>
            </trkpt>
            <trkpt lat="46.465360" lon="10.373290">
                <time>2017-07-15T14:32:03Z</time>
            </trkpt>
            <trkpt lat="46.465360" lon="10.373290">
                <time>2017-07-15T14:32:04Z</time>
            </trkpt>
            <trkpt lat="46.465360" lon="10.373290">
                <time>2017-07-15T14:32:05Z</time>
            </trkpt>
            <trkpt lat="46.465360" lon="10.373290">
                <time>2017-07-15T14:32:06Z</time>
            </trkpt>
            <trkpt lat="46.465360" lon="10.373290">
                <time>2017-07-15T14:32:07Z</time>
            </trkpt>
            <trkpt lat="46.465360" lon="10.373290">
                <time>2017-07-15T14:32:08Z</time>
            </trkpt>
            <trkpt lat="46.465360" lon="10.373290">
                <time>2017-07-15T14:32:09Z</time>
            </trkpt>
            <trkpt lat="46.465360" lon="10.373280">
                <time>2017-07-15T14:32:10Z</time>
            </trkpt>
            <trkpt lat="46.465350" lon="10.373260">
                <time>2017-07-15T14:32:11Z</time>
            </trkpt>
            <trkpt lat="46.465340" lon="10.373240">
                <time>2017-07-15T14:32:12Z</time>
            </trkpt>
            <trkpt lat="46.465330" lon="10.373210">
                <time>2017-07-15T14:32:13Z</time>
            </trkpt>
            <trkpt lat="46.465310" lon="10.373190">
                <time>2017-07-15T14:32:14Z</time>
            </trkpt>
            <trkpt lat="46.465300" lon="10.373160">
                <time>2017-07-15T14:32:15Z</time>
            </trkpt>
            <trkpt lat="46.465290" lon="10.373130">
                <time>2017-07-15T14:32:16Z</time>
            </trkpt>
            <trkpt lat="46.465290" lon="10.373100">
                <time>2017-07-15T14:32:17Z</time>
            </trkpt>
            <trkpt lat="46.465280" lon="10.373070">
                <time>2017-07-15T14:32:18Z</time>
            </trkpt>
            <trkpt lat="46.465270" lon="10.373040">
                <time>2017-07-15T14:32:19Z</time>
            </trkpt>
            <trkpt lat="46.465270" lon="10.373000">
                <time>2017-07-15T14:32:20Z</time>
            </trkpt>
            <trkpt lat="46.465260" lon="10.372960">
                <time>2017-07-15T14:32:21Z</time>
            </trkpt>
            <trkpt lat="46.465260" lon="10.372930">
                <time>2017-07-15T14:32:22Z</time>
            </trkpt>
            <trkpt lat="46.465260" lon="10.372910">
                <time>2017-07-15T14:32:23Z</time>
            </trkpt>
            <trkpt lat="46.465260" lon="10.372910">
                <time>2017-07-15T14:32:24Z</time>
            </trkpt>
            <trkpt lat="46.465270" lon="10.372910">
                <time>2017-07-15T14:32:25Z</time>
            </trkpt>
            <trkpt lat="46.465280" lon="10.372890">
                <time>2017-07-15T14:32:26Z</time>
            </trkpt>
            <trkpt lat="46.465290" lon="10.372860">
                <time>2017-07-15T14:32:27Z</time>
            </trkpt>
            <trkpt lat="46.465320" lon="10.372830">
                <time>2017-07-15T14:32:28Z</time>
            </trkpt>
            <trkpt lat="46.465360" lon="10.372810">
                <time>2017-07-15T14:32:29Z</time>
            </trkpt>
            <trkpt lat="46.465400" lon="10.372790">
                <time>2017-07-15T14:32:30Z</time>
            </trkpt>
            <trkpt lat="46.465450" lon="10.372780">
                <time>2017-07-15T14:32:31Z</time>
            </trkpt>
            <trkpt lat="46.465490" lon="10.372770">
                <time>2017-07-15T14:32:32Z</time>
            </trkpt>
            <trkpt lat="46.465530" lon="10.372770">
                <time>2017-07-15T14:32:33Z</time>
            </trkpt>
            <trkpt lat="46.465570" lon="10.372760">
                <time>2017-07-15T14:32:34Z</time>
            </trkpt>
            <trkpt lat="46.465610" lon="10.372750">
                <time>2017-07-15T14:32:35Z</time>
            </trkpt>
            <trkpt lat="46.465650" lon="10.372740">
                <time>2017-07-15T14:32:36Z</time>
            </trkpt>
            <trkpt lat="46.465690" lon="10.372720">
                <time>2017-07-15T14:32:37Z</time>
            </trkpt>
            <trkpt lat="46.465730" lon="10.372710">
                <time>2017-07-15T14:32:38Z</time>
            </trkpt>
            <trkpt lat="46.465780" lon="10.372690">
                <time>2017-07-15T14:32:39Z</time>
            </trkpt>
            <trkpt lat="46.465820" lon="10.372670">
                <time>2017-07-15T14:32:40Z</time>
            </trkpt>
            <trkpt lat="46.465860" lon="10.372650">
                <time>2017-07-15T14:32:41Z</time>
            </trkpt>
            <trkpt lat="46.465910" lon="10.372640">
                <time>2017-07-15T14:32:42Z</time>
            </trkpt>
            <trkpt lat="46.465950" lon="10.372620">
                <time>2017-07-15T14:32:43Z</time>
            </trkpt>
            <trkpt lat="46.466020" lon="10.372600">
                <time>2017-07-15T14:32:44Z</time>
            </trkpt>
            <trkpt lat="46.466080" lon="10.372580">
                <time>2017-07-15T14:32:45Z</time>
            </trkpt>
            <trkpt lat="46.466130" lon="10.372570">
                <time>2017-07-15T14:32:46Z</time>
            </trkpt>
            <trkpt lat="46.466180" lon="10.372550">
                <time>2017-07-15T14:32:47Z</time>
            </trkpt>
            <trkpt lat="46.466210" lon="10.372530">
                <time>2017-07-15T14:32:48Z</time>
            </trkpt>
            <trkpt lat="46.466260" lon="10.372510">
                <time>2017-07-15T14:32:49Z</time>
            </trkpt>
            <trkpt lat="46.466290" lon="10.372480">
                <time>2017-07-15T14:32:50Z</time>
            </trkpt>
            <trkpt lat="46.466330" lon="10.372430">
                <time>2017-07-15T14:32:51Z</time>
            </trkpt>
            <trkpt lat="46.466370" lon="10.372370">
                <time>2017-07-15T14:32:52Z</time>
            </trkpt>
            <trkpt lat="46.466400" lon="10.372300">
                <time>2017-07-15T14:32:53Z</time>
            </trkpt>
            <trkpt lat="46.466420" lon="10.372230">
                <time>2017-07-15T14:32:54Z</time>
            </trkpt>
            <trkpt lat="46.466440" lon="10.372160">
                <time>2017-07-15T14:32:55Z</time>
            </trkpt>
            <trkpt lat="46.466460" lon="10.372090">
                <time>2017-07-15T14:32:56Z</time>
            </trkpt>
            <trkpt lat="46.466470" lon="10.372010">
                <time>2017-07-15T14:32:57Z</time>
            </trkpt>
            <trkpt lat="46.466500" lon="10.371920">
                <time>2017-07-15T14:32:58Z</time>
            </trkpt>
            <trkpt lat="46.466530" lon="10.371830">
                <time>2017-07-15T14:32:59Z</time>
            </trkpt>
            <trkpt lat="46.466550" lon="10.371740">
                <time>2017-07-15T14:33:00Z</time>
            </trkpt>
            <trkpt lat="46.466570" lon="10.371660">
                <time>2017-07-15T14:33:01Z</time>
            </trkpt>
            <trkpt lat="46.466590" lon="10.371590">
                <time>2017-07-15T14:33:02Z</time>
            </trkpt>
            <trkpt lat="46.466610" lon="10.371520">
                <time>2017-07-15T14:33:03Z</time>
            </trkpt>
            <trkpt lat="46.466610" lon="10.371480">
                <time>2017-07-15T14:33:04Z</time>
            </trkpt>
            <trkpt lat="46.466630" lon="10.371430">
                <time>2017-07-15T14:33:05Z</time>
            </trkpt>
            <trkpt lat="46.466630" lon="10.371380">
                <time>2017-07-15T14:33:06Z</time>
            </trkpt>
            <trkpt lat="46.466620" lon="10.371330">
                <time>2017-07-15T14:33:07Z</time>
            </trkpt>
            <trkpt lat="46.466610" lon="10.371250">
                <time>2017-07-15T14:33:08Z</time>
            </trkpt>
            <trkpt lat="46.466590" lon="10.371190">
                <time>2017-07-15T14:33:09Z</time>
            </trkpt>
            <trkpt lat="46.466560" lon="10.371140">
                <time>2017-07-15T14:33:10Z</time>
            </trkpt>
            <trkpt lat="46.466530" lon="10.371090">
                <time>2017-07-15T14:33:11Z</time>
            </trkpt>
            <trkpt lat="46.466520" lon="10.371070">
                <time>2017-07-15T14:33:12Z</time>
            </trkpt>
            <trkpt lat="46.466510" lon="10.371050">
                <time>2017-07-15T14:33:13Z</time>
            </trkpt>
            <trkpt lat="46.466500" lon="10.371030">
                <time>2017-07-15T14:33:14Z</time>
            </trkpt>
            <trkpt lat="46.466500" lon="10.371020">
                <time>2017-07-15T14:33:15Z</time>
            </trkpt>
            <trkpt lat="46.466490" lon="10.371010">
                <time>2017-07-15T14:33:16Z</time>
            </trkpt>
            <trkpt lat="46.466470" lon="10.370990">
                <time>2017-07-15T14:33:17Z</time>
            </trkpt>
            <trkpt lat="46.466460" lon="10.370950">
                <time>2017-07-15T14:33:18Z</time>
            </trkpt>
            <trkpt lat="46.466440" lon="10.370910">
                <time>2017-07-15T14:33:19Z</time>
            </trkpt>
            <trkpt lat="46.466430" lon="10.370880">
                <time>2017-07-15T14:33:20Z</time>
            </trkpt>
            <trkpt lat="46.466420" lon="10.370840">
                <time>2017-07-15T14:33:21Z</time>
            </trkpt>
            <trkpt lat="46.466420" lon="10.370800">
                <time>2017-07-15T14:33:22Z</time>
            </trkpt>
            <trkpt lat="46.466430" lon="10.370760">
                <time>2017-07-15T14:33:23Z</time>
            </trkpt>
            <trkpt lat="46.466440" lon="10.370720">
                <time>2017-07-15T14:33:24Z</time>
            </trkpt>
            <trkpt lat="46.466450" lon="10.370690">
                <time>2017-07-15T14:33:25Z</time>
            </trkpt>
            <trkpt lat="46.466460" lon="10.370680">
                <time>2017-07-15T14:33:26Z</time>
            </trkpt>
            <trkpt lat="46.466460" lon="10.370680">
                <time>2017-07-15T14:33:27Z</time>
            </trkpt>
            <trkpt lat="46.466470" lon="10.370690">
                <time>2017-07-15T14:33:28Z</time>
            </trkpt>
            <trkpt lat="46.466470" lon="10.370690">
                <time>2017-07-15T14:33:29Z</time>
            </trkpt>
            <trkpt lat="46.466470" lon="10.370690">
                <time>2017-07-15T14:33:30Z</time>
            </trkpt>
            <trkpt lat="46.466470" lon="10.370700">
                <time>2017-07-15T14:33:31Z</time>
            </trkpt>
            <trkpt lat="46.466470" lon="10.370700">
                <time>2017-07-15T14:33:32Z</time>
            </trkpt>
            <trkpt lat="46.466470" lon="10.370700">
                <time>2017-07-15T14:33:33Z</time>
            </trkpt>
            <trkpt lat="46.466470" lon="10.370700">
                <time>2017-07-15T14:33:34Z</time>
            </trkpt>
            <trkpt lat="46.466470" lon="10.370700">
                <time>2017-07-15T14:33:35Z</time>
            </trkpt>
            <trkpt lat="46.466480" lon="10.370700">
                <time>2017-07-15T14:33:36Z</time>
            </trkpt>
            <trkpt lat="46.466500" lon="10.370720">
                <time>2017-07-15T14:33:37Z</time>
            </trkpt>
            <trkpt lat="46.466520" lon="10.370740">
                <time>2017-07-15T14:33:38Z</time>
            </trkpt>
            <trkpt lat="46.466540" lon="10.370760">
                <time>2017-07-15T14:33:39Z</time>
            </trkpt>
            <trkpt lat="46.466560" lon="10.370780">
                <time>2017-07-15T14:33:40Z</time>
            </trkpt>
            <trkpt lat="46.466570" lon="10.370800">
                <time>2017-07-15T14:33:41Z</time>
            </trkpt>
            <trkpt lat="46.466580" lon="10.370810">
                <time>2017-07-15T14:33:42Z</time>
            </trkpt>
            <trkpt lat="46.466590" lon="10.370810">
                <time>2017-07-15T14:33:43Z</time>
            </trkpt>
            <trkpt lat="46.466600" lon="10.370810">
                <time>2017-07-15T14:33:44Z</time>
            </trkpt>
            <trkpt lat="46.466610" lon="10.370800">
                <time>2017-07-15T14:33:45Z</time>
            </trkpt>
            <trkpt lat="46.466630" lon="10.370780">
                <time>2017-07-15T14:33:46Z</time>
            </trkpt>
            <trkpt lat="46.466640" lon="10.370770">
                <time>2017-07-15T14:33:47Z</time>
            </trkpt>
            <trkpt lat="46.466640" lon="10.370740">
                <time>2017-07-15T14:33:48Z</time>
            </trkpt>
            <trkpt lat="46.466650" lon="10.370730">
                <time>2017-07-15T14:33:49Z</time>
            </trkpt>
            <trkpt lat="46.466650" lon="10.370710">
                <time>2017-07-15T14:33:50Z</time>
            </trkpt>
            <trkpt lat="46.466650" lon="10.370700">
                <time>2017-07-15T14:33:51Z</time>
            </trkpt>
            <trkpt lat="46.466650" lon="10.370700">
                <time>2017-07-15T14:33:52Z</time>
            </trkpt>
            <trkpt lat="46.466650" lon="10.370700">
                <time>2017-07-15T14:33:53Z</time>
            </trkpt>
            <trkpt lat="46.466640" lon="10.370700">
                <time>2017-07-15T14:33:54Z</time>
            </trkpt>
            <trkpt lat="46.466640" lon="10.370700">
                <time>2017-07-15T14:33:55Z</time>
            </trkpt>
            <trkpt lat="46.466640" lon="10.370700">
                <time>2017-07-15T14:33:56Z</time>
            </trkpt>
            <trkpt lat="46.466640" lon="10.370700">
                <time>2017-07-15T14:33:57Z</time>
            </trkpt>
            <trkpt lat="46.466640" lon="10.370700">
                <time>2017-07-15T14:33:58Z</time>
            </trkpt>
            <trkpt lat="46.466640" lon="10.370700">
                <time>2017-07-15T14:33:59Z</time>
            </trkpt>
            <trkpt lat="46.466640" lon="10.370700">
                <time>2017-07-15T14:34:00Z</time>
            </trkpt>
            <trkpt lat="46.466640" lon="10.370700">
                <time>2017-07-15T14:34:01Z</time>
            </trkpt>
            <trkpt lat="46.466640" lon="10.370690">
                <time>2017-07-15T14:34:02Z</time>
            </trkpt>
            <trkpt lat="46.466630" lon="10.370690">
                <time>2017-07-15T14:34:03Z</time>
            </trkpt>
            <trkpt lat="46.466630" lon="10.370690">
                <time>2017-07-15T14:34:04Z</time>
            </trkpt>
            <trkpt lat="46.466630" lon="10.370690">
                <time>2017-07-15T14:34:05Z</time>
            </trkpt>
            <trkpt lat="46.466630" lon="10.370690">
                <time>2017-07-15T14:34:06Z</time>
            </trkpt>
            <trkpt lat="46.466630" lon="10.370690">
                <time>2017-07-15T14:34:07Z</time>
            </trkpt>
            <trkpt lat="46.466630" lon="10.370690">
                <time>2017-07-15T14:34:08Z</time>
            </trkpt>
            <trkpt lat="46.466630" lon="10.370690">
                <time>2017-07-15T14:34:09Z</time>
            </trkpt>
            <trkpt lat="46.466630" lon="10.370690">
                <time>2017-07-15T14:34:10Z</time>
            </trkpt>
            <trkpt lat="46.466630" lon="10.370690">
                <time>2017-07-15T14:34:11Z</time>
            </trkpt>
            <trkpt lat="46.466630" lon="10.370690">
                <time>2017-07-15T14:34:12Z</time>
            </trkpt>
            <trkpt lat="46.466630" lon="10.370690">
                <time>2017-07-15T14:34:13Z</time>
            </trkpt>
            <trkpt lat="46.466630" lon="10.370690">
                <time>2017-07-15T14:34:14Z</time>
            </trkpt>
            <trkpt lat="46.466630" lon="10.370690">
                <time>2017-07-15T14:34:15Z</time>
            </trkpt>
            <trkpt lat="46.466630" lon="10.370690">
                <time>2017-07-15T14:34:16Z</time>
            </trkpt>
            <trkpt lat="46.466630" lon="10.370690">
                <time>2017-07-15T14:34:17Z</time>
            </trkpt>
            <trkpt lat="46.466630" lon="10.370690">
                <time>2017-07-15T14:34:18Z</time>
            </trkpt>
            <trkpt lat="46.466630" lon="10.370690">
                <time>2017-07-15T14:34:19Z</time>
            </trkpt>
            <trkpt lat="46.466630" lon="10.370690">
                <time>2017-07-15T14:34:20Z</time>
            </trkpt>
            <trkpt lat="46.466630" lon="10.370690">
                <time>2017-07-15T14:34:21Z</time>
            </trkpt>
            <trkpt lat="46.466630" lon="10.370690">
                <time>2017-07-15T14:34:22Z</time>
            </trkpt>
            <trkpt lat="46.466630" lon="10.370690">
                <time>2017-07-15T14:34:23Z</time>
            </trkpt>
            <trkpt lat="46.466630" lon="10.370690">
                <time>2017-07-15T14:34:24Z</time>
            </trkpt>
            <trkpt lat="46.466630" lon="10.370690">
                <time>2017-07-15T14:34:25Z</time>
            </trkpt>
            <trkpt lat="46.466630" lon="10.370690">
                <time>2017-07-15T14:34:26Z</time>
            </trkpt>
            <trkpt lat="46.466630" lon="10.370690">
                <time>2017-07-15T14:34:27Z</time>
            </trkpt>
            <trkpt lat="46.466630" lon="10.370690">
                <time>2017-07-15T14:34:28Z</time>
            </trkpt>
            <trkpt lat="46.466630" lon="10.370690">
                <time>2017-07-15T14:34:29Z</time>
            </trkpt>
            <trkpt lat="46.466630" lon="10.370690">
                <time>2017-07-15T14:34:30Z</time>
            </trkpt>
            <trkpt lat="46.466630" lon="10.370690">
                <time>2017-07-15T14:34:31Z</time>
            </trkpt>
            <trkpt lat="46.466630" lon="10.370690">
                <time>2017-07-15T14:34:32Z</time>
            </trkpt>
            <trkpt lat="46.466630" lon="10.370690">
                <time>2017-07-15T14:34:33Z</time>
            </trkpt>
            <trkpt lat="46.466630" lon="10.370690">
                <time>2017-07-15T14:34:34Z</time>
            </trkpt>
            <trkpt lat="46.466630" lon="10.370690">
                <time>2017-07-15T14:34:35Z</time>
            </trkpt>
            <trkpt lat="46.466630" lon="10.370690">
                <time>2017-07-15T14:34:36Z</time>
            </trkpt>
            <trkpt lat="46.466630" lon="10.370690">
                <time>2017-07-15T14:34:37Z</time>
            </trkpt>
            <trkpt lat="46.466630" lon="10.370690">
                <time>2017-07-15T14:34:38Z</time>
            </trkpt>
            <trkpt lat="46.466630" lon="10.370690">
                <time>2017-07-15T14:34:39Z</time>
            </trkpt>
            <trkpt lat="46.466630" lon="10.370690">
                <time>2017-07-15T14:34:40Z</time>
            </trkpt>
            <trkpt lat="46.466630" lon="10.370690">
                <time>2017-07-15T14:34:41Z</time>
            </trkpt>
            <trkpt lat="46.466630" lon="10.370690">
                <time>2017-07-15T14:34:42Z</time>
            </trkpt>
            <trkpt lat="46.466630" lon="10.370690">
                <time>2017-07-15T14:34:43Z</time>
            </trkpt>
            <trkpt lat="46.466630" lon="10.370690">
                <time>2017-07-15T14:34:44Z</time>
            </trkpt>
            <trkpt lat="46.466630" lon="10.370690">
                <time>2017-07-15T14:34:45Z</time>
            </trkpt>
            <trkpt lat="46.466630" lon="10.370690">
                <time>2017-07-15T14:34:46Z</time>
            </trkpt>
            <trkpt lat="46.466630" lon="10.370690">
                <time>2017-07-15T14:34:47Z</time>
            </trkpt>
            <trkpt lat="46.466630" lon="10.370690">
                <time>2017-07-15T14:34:48Z</time>
            </trkpt>
            <trkpt lat="46.466630" lon="10.370690">
                <time>2017-07-15T14:34:49Z</time>
            </trkpt>
            <trkpt lat="46.466630" lon="10.370690">
                <time>2017-07-15T14:34:50Z</time>
            </trkpt>
            <trkpt lat="46.466630" lon="10.370690">
                <time>2017-07-15T14:34:51Z</time>
            </trkpt>
            <trkpt lat="46.466630" lon="10.370690">
                <time>2017-07-15T14:34:52Z</time>
            </trkpt>
            <trkpt lat="46.466530" lon="10.370670">
                <time>2017-07-15T14:40:09Z</time>
            </trkpt>
            <trkpt lat="46.466520" lon="10.370730">
                <time>2017-07-15T14:40:10Z</time>
            </trkpt>
            <trkpt lat="46.466560" lon="10.370770">
                <time>2017-07-15T14:40:11Z</time>
            </trkpt>
            <trkpt lat="46.466540" lon="10.370680">
                <time>2017-07-15T14:40:12Z</time>
            </trkpt>
            <trkpt lat="46.466640" lon="10.370680">
                <time>2017-07-15T14:40:14Z</time>
            </trkpt>
            <trkpt lat="46.466640" lon="10.370680">
                <time>2017-07-15T14:40:15Z</time>
            </trkpt>
            <trkpt lat="46.466640" lon="10.370680">
                <time>2017-07-15T14:40:16Z</time>
            </trkpt>
            <trkpt lat="46.466590" lon="10.370720">
                <time>2017-07-15T14:40:17Z</time>
            </trkpt>
            <trkpt lat="46.466570" lon="10.370730">
                <time>2017-07-15T14:40:18Z</time>
            </trkpt>
            <trkpt lat="46.466560" lon="10.370740">
                <time>2017-07-15T14:40:19Z</time>
            </trkpt>
            <trkpt lat="46.466550" lon="10.370740">
                <time>2017-07-15T14:40:20Z</time>
            </trkpt>
            <trkpt lat="46.466540" lon="10.370730">
                <time>2017-07-15T14:40:21Z</time>
            </trkpt>
            <trkpt lat="46.466530" lon="10.370730">
                <time>2017-07-15T14:40:22Z</time>
            </trkpt>
            <trkpt lat="46.466520" lon="10.370720">
                <time>2017-07-15T14:40:23Z</time>
            </trkpt>
            <trkpt lat="46.466510" lon="10.370700">
                <time>2017-07-15T14:40:24Z</time>
            </trkpt>
            <trkpt lat="46.466490" lon="10.370680">
                <time>2017-07-15T14:40:25Z</time>
            </trkpt>
            <trkpt lat="46.466480" lon="10.370660">
                <time>2017-07-15T14:40:26Z</time>
            </trkpt>
            <trkpt lat="46.466470" lon="10.370640">
                <time>2017-07-15T14:40:27Z</time>
            </trkpt>
            <trkpt lat="46.466460" lon="10.370630">
                <time>2017-07-15T14:40:28Z</time>
            </trkpt>
            <trkpt lat="46.466460" lon="10.370620">
                <time>2017-07-15T14:40:29Z</time>
            </trkpt>
            <trkpt lat="46.466460" lon="10.370610">
                <time>2017-07-15T14:40:30Z</time>
            </trkpt>
            <trkpt lat="46.466460" lon="10.370610">
                <time>2017-07-15T14:40:31Z</time>
            </trkpt>
            <trkpt lat="46.466460" lon="10.370610">
                <time>2017-07-15T14:40:32Z</time>
            </trkpt>
            <trkpt lat="46.466460" lon="10.370610">
                <time>2017-07-15T14:40:33Z</time>
            </trkpt>
            <trkpt lat="46.466460" lon="10.370610">
                <time>2017-07-15T14:40:34Z</time>
            </trkpt>
            <trkpt lat="46.466460" lon="10.370610">
                <time>2017-07-15T14:40:35Z</time>
            </trkpt>
            <trkpt lat="46.466460" lon="10.370610">
                <time>2017-07-15T14:40:36Z</time>
            </trkpt>
            <trkpt lat="46.466460" lon="10.370610">
                <time>2017-07-15T14:40:37Z</time>
            </trkpt>
            <trkpt lat="46.466460" lon="10.370600">
                <time>2017-07-15T14:40:38Z</time>
            </trkpt>
            <trkpt lat="46.466460" lon="10.370600">
                <time>2017-07-15T14:40:39Z</time>
            </trkpt>
            <trkpt lat="46.466460" lon="10.370590">
                <time>2017-07-15T14:40:40Z</time>
            </trkpt>
            <trkpt lat="46.466450" lon="10.370590">
                <time>2017-07-15T14:40:41Z</time>
            </trkpt>
            <trkpt lat="46.466450" lon="10.370580">
                <time>2017-07-15T14:40:42Z</time>
            </trkpt>
            <trkpt lat="46.466440" lon="10.370580">
                <time>2017-07-15T14:40:43Z</time>
            </trkpt>
            <trkpt lat="46.466440" lon="10.370570">
                <time>2017-07-15T14:40:44Z</time>
            </trkpt>
            <trkpt lat="46.466420" lon="10.370570">
                <time>2017-07-15T14:40:45Z</time>
            </trkpt>
            <trkpt lat="46.466410" lon="10.370570">
                <time>2017-07-15T14:40:46Z</time>
            </trkpt>
            <trkpt lat="46.466380" lon="10.370580">
                <time>2017-07-15T14:40:47Z</time>
            </trkpt>
            <trkpt lat="46.466350" lon="10.370620">
                <time>2017-07-15T14:40:48Z</time>
            </trkpt>
            <trkpt lat="46.466340" lon="10.370690">
                <time>2017-07-15T14:40:49Z</time>
            </trkpt>
            <trkpt lat="46.466360" lon="10.370800">
                <time>2017-07-15T14:40:50Z</time>
            </trkpt>
            <trkpt lat="46.466380" lon="10.370860">
                <time>2017-07-15T14:40:51Z</time>
            </trkpt>
            <trkpt lat="46.466410" lon="10.370920">
                <time>2017-07-15T14:40:52Z</time>
            </trkpt>
            <trkpt lat="46.466440" lon="10.370960">
                <time>2017-07-15T14:40:53Z</time>
            </trkpt>
            <trkpt lat="46.466460" lon="10.371010">
                <time>2017-07-15T14:40:54Z</time>
            </trkpt>
            <trkpt lat="46.466490" lon="10.371070">
                <time>2017-07-15T14:40:55Z</time>
            </trkpt>
            <trkpt lat="46.466520" lon="10.371130">
                <time>2017-07-15T14:40:56Z</time>
            </trkpt>
            <trkpt lat="46.466550" lon="10.371180">
                <time>2017-07-15T14:40:57Z</time>
            </trkpt>
            <trkpt lat="46.466580" lon="10.371240">
                <time>2017-07-15T14:40:58Z</time>
            </trkpt>
            <trkpt lat="46.466590" lon="10.371290">
                <time>2017-07-15T14:40:59Z</time>
            </trkpt>
            <trkpt lat="46.466600" lon="10.371350">
                <time>2017-07-15T14:41:00Z</time>
            </trkpt>
            <trkpt lat="46.466610" lon="10.371400">
                <time>2017-07-15T14:41:01Z</time>
            </trkpt>
            <trkpt lat="46.466600" lon="10.371450">
                <time>2017-07-15T14:41:02Z</time>
            </trkpt>
            <trkpt lat="46.466590" lon="10.371510">
                <time>2017-07-15T14:41:03Z</time>
            </trkpt>
            <trkpt lat="46.466580" lon="10.371570">
                <time>2017-07-15T14:41:04Z</time>
            </trkpt>
            <trkpt lat="46.466560" lon="10.371630">
                <time>2017-07-15T14:41:05Z</time>
            </trkpt>
            <trkpt lat="46.466540" lon="10.371710">
                <time>2017-07-15T14:41:06Z</time>
            </trkpt>
            <trkpt lat="46.466520" lon="10.371790">
                <time>2017-07-15T14:41:07Z</time>
            </trkpt>
            <trkpt lat="46.466500" lon="10.371890">
                <time>2017-07-15T14:41:08Z</time>
            </trkpt>
            <trkpt lat="46.466480" lon="10.371960">
                <time>2017-07-15T14:41:09Z</time>
            </trkpt>
            <trkpt lat="46.466450" lon="10.372040">
                <time>2017-07-15T14:41:10Z</time>
            </trkpt>
            <trkpt lat="46.466440" lon="10.372120">
                <time>2017-07-15T14:41:11Z</time>
            </trkpt>
            <trkpt lat="46.466430" lon="10.372190">
                <time>2017-07-15T14:41:12Z</time>
            </trkpt>
            <trkpt lat="46.466420" lon="10.372260">
                <time>2017-07-15T14:41:13Z</time>
            </trkpt>
            <trkpt lat="46.466410" lon="10.372320">
                <time>2017-07-15T14:41:14Z</time>
            </trkpt>
            <trkpt lat="46.466410" lon="10.372380">
                <time>2017-07-15T14:41:15Z</time>
            </trkpt>
            <trkpt lat="46.466410" lon="10.372450">
                <time>2017-07-15T14:41:16Z</time>
            </trkpt>
            <trkpt lat="46.466420" lon="10.372490">
                <time>2017-07-15T14:41:17Z</time>
            </trkpt>
            <trkpt lat="46.466430" lon="10.372540">
                <time>2017-07-15T14:41:18Z</time>
            </trkpt>
            <trkpt lat="46.466440" lon="10.372590">
                <time>2017-07-15T14:41:19Z</time>
            </trkpt>
            <trkpt lat="46.466460" lon="10.372630">
                <time>2017-07-15T14:41:20Z</time>
            </trkpt>
            <trkpt lat="46.466470" lon="10.372660">
                <time>2017-07-15T14:41:21Z</time>
            </trkpt>
            <trkpt lat="46.466480" lon="10.372700">
                <time>2017-07-15T14:41:22Z</time>
            </trkpt>
            <trkpt lat="46.466490" lon="10.372730">
                <time>2017-07-15T14:41:23Z</time>
            </trkpt>
            <trkpt lat="46.466490" lon="10.372760">
                <time>2017-07-15T14:41:24Z</time>
            </trkpt>
            <trkpt lat="46.466490" lon="10.372780">
                <time>2017-07-15T14:41:25Z</time>
            </trkpt>
            <trkpt lat="46.466490" lon="10.372810">
                <time>2017-07-15T14:41:26Z</time>
            </trkpt>
            <trkpt lat="46.466490" lon="10.372840">
                <time>2017-07-15T14:41:27Z</time>
            </trkpt>
            <trkpt lat="46.466490" lon="10.372870">
                <time>2017-07-15T14:41:28Z</time>
            </trkpt>
            <trkpt lat="46.466490" lon="10.372920">
                <time>2017-07-15T14:41:29Z</time>
            </trkpt>
            <trkpt lat="46.466480" lon="10.372970">
                <time>2017-07-15T14:41:30Z</time>
            </trkpt>
            <trkpt lat="46.466480" lon="10.373020">
                <time>2017-07-15T14:41:31Z</time>
            </trkpt>
            <trkpt lat="46.466480" lon="10.373080">
                <time>2017-07-15T14:41:32Z</time>
            </trkpt>
            <trkpt lat="46.466470" lon="10.373130">
                <time>2017-07-15T14:41:33Z</time>
            </trkpt>
            <trkpt lat="46.466460" lon="10.373170">
                <time>2017-07-15T14:41:34Z</time>
            </trkpt>
            <trkpt lat="46.466460" lon="10.373210">
                <time>2017-07-15T14:41:35Z</time>
            </trkpt>
            <trkpt lat="46.466460" lon="10.373240">
                <time>2017-07-15T14:41:36Z</time>
            </trkpt>
            <trkpt lat="46.466460" lon="10.373270">
                <time>2017-07-15T14:41:37Z</time>
            </trkpt>
            <trkpt lat="46.466460" lon="10.373320">
                <time>2017-07-15T14:41:38Z</time>
            </trkpt>
            <trkpt lat="46.466470" lon="10.373370">
                <time>2017-07-15T14:41:39Z</time>
            </trkpt>
            <trkpt lat="46.466470" lon="10.373430">
                <time>2017-07-15T14:41:40Z</time>
            </trkpt>
            <trkpt lat="46.466470" lon="10.373480">
                <time>2017-07-15T14:41:41Z</time>
            </trkpt>
            <trkpt lat="46.466470" lon="10.373540">
                <time>2017-07-15T14:41:42Z</time>
            </trkpt>
            <trkpt lat="46.466470" lon="10.373600">
                <time>2017-07-15T14:41:43Z</time>
            </trkpt>
            <trkpt lat="46.466460" lon="10.373650">
                <time>2017-07-15T14:41:44Z</time>
            </trkpt>
            <trkpt lat="46.466450" lon="10.373700">
                <time>2017-07-15T14:41:45Z</time>
            </trkpt>
            <trkpt lat="46.466420" lon="10.373740">
                <time>2017-07-15T14:41:46Z</time>
            </trkpt>
            <trkpt lat="46.466390" lon="10.373770">
                <time>2017-07-15T14:41:47Z</time>
            </trkpt>
            <trkpt lat="46.466340" lon="10.373800">
                <time>2017-07-15T14:41:48Z</time>
            </trkpt>
            <trkpt lat="46.466280" lon="10.373800">
                <time>2017-07-15T14:41:49Z</time>
            </trkpt>
            <trkpt lat="46.466240" lon="10.373810">
                <time>2017-07-15T14:41:50Z</time>
            </trkpt>
            <trkpt lat="46.466190" lon="10.373810">
                <time>2017-07-15T14:41:51Z</time>
            </trkpt>
            <trkpt lat="46.466140" lon="10.373810">
                <time>2017-07-15T14:41:52Z</time>
            </trkpt>
            <trkpt lat="46.466080" lon="10.373800">
                <time>2017-07-15T14:41:53Z</time>
            </trkpt>
            <trkpt lat="46.466010" lon="10.373780">
                <time>2017-07-15T14:41:54Z</time>
            </trkpt>
            <trkpt lat="46.465940" lon="10.373740">
                <time>2017-07-15T14:41:55Z</time>
            </trkpt>
            <trkpt lat="46.465860" lon="10.373710">
                <time>2017-07-15T14:41:56Z</time>
            </trkpt>
            <trkpt lat="46.465800" lon="10.373680">
                <time>2017-07-15T14:41:57Z</time>
            </trkpt>
            <trkpt lat="46.465740" lon="10.373650">
                <time>2017-07-15T14:41:58Z</time>
            </trkpt>
            <trkpt lat="46.465680" lon="10.373640">
                <time>2017-07-15T14:41:59Z</time>
            </trkpt>
            <trkpt lat="46.465620" lon="10.373630">
                <time>2017-07-15T14:42:00Z</time>
            </trkpt>
            <trkpt lat="46.465570" lon="10.373620">
                <time>2017-07-15T14:42:01Z</time>
            </trkpt>
            <trkpt lat="46.465520" lon="10.373610">
                <time>2017-07-15T14:42:02Z</time>
            </trkpt>
            <trkpt lat="46.465480" lon="10.373600">
                <time>2017-07-15T14:42:03Z</time>
            </trkpt>
            <trkpt lat="46.465460" lon="10.373600">
                <time>2017-07-15T14:42:04Z</time>
            </trkpt>
            <trkpt lat="46.465440" lon="10.373580">
                <time>2017-07-15T14:42:05Z</time>
            </trkpt>
            <trkpt lat="46.465420" lon="10.373550">
                <time>2017-07-15T14:42:06Z</time>
            </trkpt>
            <trkpt lat="46.465400" lon="10.373480">
                <time>2017-07-15T14:42:07Z</time>
            </trkpt>
            <trkpt lat="46.465380" lon="10.373400">
                <time>2017-07-15T14:42:08Z</time>
            </trkpt>
            <trkpt lat="46.465350" lon="10.373310">
                <time>2017-07-15T14:42:09Z</time>
            </trkpt>
            <trkpt lat="46.465330" lon="10.373210">
                <time>2017-07-15T14:42:10Z</time>
            </trkpt>
            <trkpt lat="46.465300" lon="10.373120">
                <time>2017-07-15T14:42:11Z</time>
            </trkpt>
            <trkpt lat="46.465280" lon="10.373030">
                <time>2017-07-15T14:42:12Z</time>
            </trkpt>
            <trkpt lat="46.465270" lon="10.372980">
                <time>2017-07-15T14:42:13Z</time>
            </trkpt>
            <trkpt lat="46.465270" lon="10.372930">
                <time>2017-07-15T14:42:14Z</time>
            </trkpt>
            <trkpt lat="46.465270" lon="10.372900">
                <time>2017-07-15T14:42:15Z</time>
            </trkpt>
            <trkpt lat="46.465260" lon="10.372900">
                <time>2017-07-15T14:42:16Z</time>
            </trkpt>
            <trkpt lat="46.465260" lon="10.372900">
                <time>2017-07-15T14:42:17Z</time>
            </trkpt>
            <trkpt lat="46.465260" lon="10.372900">
                <time>2017-07-15T14:42:18Z</time>
            </trkpt>
            <trkpt lat="46.465260" lon="10.372900">
                <time>2017-07-15T14:42:19Z</time>
            </trkpt>
            <trkpt lat="46.465260" lon="10.372900">
                <time>2017-07-15T14:42:20Z</time>
            </trkpt>
            <trkpt lat="46.465280" lon="10.372870">
                <time>2017-07-15T14:42:21Z</time>
            </trkpt>
            <trkpt lat="46.465310" lon="10.372840">
                <time>2017-07-15T14:42:22Z</time>
            </trkpt>
            <trkpt lat="46.465350" lon="10.372820">
                <time>2017-07-15T14:42:23Z</time>
            </trkpt>
            <trkpt lat="46.465390" lon="10.372810">
                <time>2017-07-15T14:42:24Z</time>
            </trkpt>
            <trkpt lat="46.465440" lon="10.372800">
                <time>2017-07-15T14:42:25Z</time>
            </trkpt>
            <trkpt lat="46.465500" lon="10.372790">
                <time>2017-07-15T14:42:26Z</time>
            </trkpt>
            <trkpt lat="46.465570" lon="10.372760">
                <time>2017-07-15T14:42:27Z</time>
            </trkpt>
            <trkpt lat="46.465630" lon="10.372740">
                <time>2017-07-15T14:42:28Z</time>
            </trkpt>
            <trkpt lat="46.465690" lon="10.372720">
                <time>2017-07-15T14:42:29Z</time>
            </trkpt>
            <trkpt lat="46.465770" lon="10.372690">
                <time>2017-07-15T14:42:30Z</time>
            </trkpt>
            <trkpt lat="46.465850" lon="10.372670">
                <time>2017-07-15T14:42:31Z</time>
            </trkpt>
            <trkpt lat="46.465920" lon="10.372650">
                <time>2017-07-15T14:42:32Z</time>
            </trkpt>
            <trkpt lat="46.466000" lon="10.372630">
                <time>2017-07-15T14:42:33Z</time>
            </trkpt>
            <trkpt lat="46.466090" lon="10.372610">
                <time>2017-07-15T14:42:34Z</time>
            </trkpt>
            <trkpt lat="46.466160" lon="10.372580">
                <time>2017-07-15T14:42:35Z</time>
            </trkpt>
            <trkpt lat="46.466230" lon="10.372550">
                <time>2017-07-15T14:42:36Z</time>
            </trkpt>
            <trkpt lat="46.466290" lon="10.372510">
                <time>2017-07-15T14:42:37Z</time>
            </trkpt>
            <trkpt lat="46.466330" lon="10.372460">
                <time>2017-07-15T14:42:38Z</time>
            </trkpt>
            <trkpt lat="46.466370" lon="10.372390">
                <time>2017-07-15T14:42:39Z</time>
            </trkpt>
            <trkpt lat="46.466400" lon="10.372310">
                <time>2017-07-15T14:42:40Z</time>
            </trkpt>
            <trkpt lat="46.466430" lon="10.372210">
                <time>2017-07-15T14:42:41Z</time>
            </trkpt>
            <trkpt lat="46.466460" lon="10.372110">
                <time>2017-07-15T14:42:42Z</time>
            </trkpt>
            <trkpt lat="46.466480" lon="10.372000">
                <time>2017-07-15T14:42:43Z</time>
            </trkpt>
            <trkpt lat="46.466510" lon="10.371900">
                <time>2017-07-15T14:42:44Z</time>
            </trkpt>
            <trkpt lat="46.466540" lon="10.371800">
                <time>2017-07-15T14:42:45Z</time>
            </trkpt>
            <trkpt lat="46.466560" lon="10.371720">
                <time>2017-07-15T14:42:46Z</time>
            </trkpt>
            <trkpt lat="46.466580" lon="10.371650">
                <time>2017-07-15T14:42:47Z</time>
            </trkpt>
            <trkpt lat="46.466590" lon="10.371610">
                <time>2017-07-15T14:42:48Z</time>
            </trkpt>
            <trkpt lat="46.466600" lon="10.371560">
                <time>2017-07-15T14:42:49Z</time>
            </trkpt>
            <trkpt lat="46.466620" lon="10.371510">
                <time>2017-07-15T14:42:50Z</time>
            </trkpt>
            <trkpt lat="46.466650" lon="10.371460">
                <time>2017-07-15T14:42:51Z</time>
            </trkpt>
            <trkpt lat="46.466670" lon="10.371420">
                <time>2017-07-15T14:42:52Z</time>
            </trkpt>
            <trkpt lat="46.466700" lon="10.371400">
                <time>2017-07-15T14:42:53Z</time>
            </trkpt>
            <trkpt lat="46.466740" lon="10.371370">
                <time>2017-07-15T14:42:54Z</time>
            </trkpt>
            <trkpt lat="46.466790" lon="10.371360">
                <time>2017-07-15T14:42:55Z</time>
            </trkpt>
            <trkpt lat="46.466810" lon="10.371340">
                <time>2017-07-15T14:42:56Z</time>
            </trkpt>
            <trkpt lat="46.466820" lon="10.371340">
                <time>2017-07-15T14:42:57Z</time>
            </trkpt>
            <trkpt lat="46.466810" lon="10.371340">
                <time>2017-07-15T14:42:58Z</time>
            </trkpt>
            <trkpt lat="46.466810" lon="10.371340">
                <time>2017-07-15T14:42:59Z</time>
            </trkpt>
            <trkpt lat="46.466810" lon="10.371340">
                <time>2017-07-15T14:43:00Z</time>
            </trkpt>
            <trkpt lat="46.466810" lon="10.371340">
                <time>2017-07-15T14:43:01Z</time>
            </trkpt>
            <trkpt lat="46.466820" lon="10.371330">
                <time>2017-07-15T14:43:02Z</time>
            </trkpt>
            <trkpt lat="46.466860" lon="10.371320">
                <time>2017-07-15T14:43:03Z</time>
            </trkpt>
            <trkpt lat="46.466900" lon="10.371310">
                <time>2017-07-15T14:43:04Z</time>
            </trkpt>
            <trkpt lat="46.466940" lon="10.371300">
                <time>2017-07-15T14:43:05Z</time>
            </trkpt>
            <trkpt lat="46.466970" lon="10.371300">
                <time>2017-07-15T14:43:06Z</time>
            </trkpt>
            <trkpt lat="46.466990" lon="10.371300">
                <time>2017-07-15T14:43:07Z</time>
            </trkpt>
            <trkpt lat="46.467010" lon="10.371290">
                <time>2017-07-15T14:43:08Z</time>
            </trkpt>
            <trkpt lat="46.467010" lon="10.371290">
                <time>2017-07-15T14:43:09Z</time>
            </trkpt>
            <trkpt lat="46.467020" lon="10.371290">
                <time>2017-07-15T14:43:10Z</time>
            </trkpt>
            <trkpt lat="46.467020" lon="10.371290">
                <time>2017-07-15T14:43:11Z</time>
            </trkpt>
            <trkpt lat="46.467050" lon="10.371290">
                <time>2017-07-15T14:43:12Z</time>
            </trkpt>
            <trkpt lat="46.467080" lon="10.371290">
                <time>2017-07-15T14:43:13Z</time>
            </trkpt>
            <trkpt lat="46.467120" lon="10.371310">
                <time>2017-07-15T14:43:14Z</time>
            </trkpt>
            <trkpt lat="46.467170" lon="10.371340">
                <time>2017-07-15T14:43:15Z</time>
            </trkpt>
            <trkpt lat="46.467230" lon="10.371370">
                <time>2017-07-15T14:43:16Z</time>
            </trkpt>
            <trkpt lat="46.467290" lon="10.371400">
                <time>2017-07-15T14:43:17Z</time>
            </trkpt>
            <trkpt lat="46.467360" lon="10.371440">
                <time>2017-07-15T14:43:18Z</time>
            </trkpt>
            <trkpt lat="46.467420" lon="10.371480">
                <time>2017-07-15T14:43:19Z</time>
            </trkpt>
            <trkpt lat="46.467490" lon="10.371530">
                <time>2017-07-15T14:43:20Z</time>
            </trkpt>
            <trkpt lat="46.467550" lon="10.371570">
                <time>2017-07-15T14:43:21Z</time>
            </trkpt>
            <trkpt lat="46.467610" lon="10.371610">
                <time>2017-07-15T14:43:22Z</time>
            </trkpt>
            <trkpt lat="46.467670" lon="10.371640">
                <time>2017-07-15T14:43:23Z</time>
            </trkpt>
            <trkpt lat="46.467730" lon="10.371670">
                <time>2017-07-15T14:43:24Z</time>
            </trkpt>
            <trkpt lat="46.467780" lon="10.371710">
                <time>2017-07-15T14:43:25Z</time>
            </trkpt>
            <trkpt lat="46.467840" lon="10.371750">
                <time>2017-07-15T14:43:26Z</time>
            </trkpt>
            <trkpt lat="46.467910" lon="10.371790">
                <time>2017-07-15T14:43:27Z</time>
            </trkpt>
            <trkpt lat="46.467970" lon="10.371810">
                <time>2017-07-15T14:43:28Z</time>
            </trkpt>
            <trkpt lat="46.468030" lon="10.371850">
                <time>2017-07-15T14:43:29Z</time>
            </trkpt>
            <trkpt lat="46.468100" lon="10.371870">
                <time>2017-07-15T14:43:30Z</time>
            </trkpt>
            <trkpt lat="46.468160" lon="10.371880">
                <time>2017-07-15T14:43:31Z</time>
            </trkpt>
            <trkpt lat="46.468240" lon="10.371890">
                <time>2017-07-15T14:43:32Z</time>
            </trkpt>
            <trkpt lat="46.468290" lon="10.371880">
                <time>2017-07-15T14:43:33Z</time>
            </trkpt>
            <trkpt lat="46.468340" lon="10.371870">
                <time>2017-07-15T14:43:34Z</time>
            </trkpt>
            <trkpt lat="46.468370" lon="10.371860">
                <time>2017-07-15T14:43:35Z</time>
            </trkpt>
            <trkpt lat="46.468380" lon="10.371860">
                <time>2017-07-15T14:43:36Z</time>
            </trkpt>
            <trkpt lat="46.468380" lon="10.371860">
                <time>2017-07-15T14:43:37Z</time>
            </trkpt>
            <trkpt lat="46.468370" lon="10.371870">
                <time>2017-07-15T14:43:38Z</time>
            </trkpt>
            <trkpt lat="46.468370" lon="10.371870">
                <time>2017-07-15T14:43:39Z</time>
            </trkpt>
            <trkpt lat="46.468380" lon="10.371870">
                <time>2017-07-15T14:43:40Z</time>
            </trkpt>
            <trkpt lat="46.468380" lon="10.371870">
                <time>2017-07-15T14:43:41Z</time>
            </trkpt>
            <trkpt lat="46.468380" lon="10.371870">
                <time>2017-07-15T14:43:42Z</time>
            </trkpt>
            <trkpt lat="46.468380" lon="10.371870">
                <time>2017-07-15T14:43:43Z</time>
            </trkpt>
            <trkpt lat="46.468380" lon="10.371870">
                <time>2017-07-15T14:43:44Z</time>
            </trkpt>
            <trkpt lat="46.468380" lon="10.371870">
                <time>2017-07-15T14:43:45Z</time>
            </trkpt>
            <trkpt lat="46.468380" lon="10.371870">
                <time>2017-07-15T14:43:46Z</time>
            </trkpt>
            <trkpt lat="46.468380" lon="10.371870">
                <time>2017-07-15T14:43:47Z</time>
            </trkpt>
            <trkpt lat="46.468380" lon="10.371870">
                <time>2017-07-15T14:43:48Z</time>
            </trkpt>
            <trkpt lat="46.468380" lon="10.371870">
                <time>2017-07-15T14:43:49Z</time>
            </trkpt>
            <trkpt lat="46.468380" lon="10.371870">
                <time>2017-07-15T14:43:50Z</time>
            </trkpt>
            <trkpt lat="46.468380" lon="10.371870">
                <time>2017-07-15T14:43:51Z</time>
            </trkpt>
            <trkpt lat="46.468380" lon="10.371870">
                <time>2017-07-15T14:43:52Z</time>
            </trkpt>
            <trkpt lat="46.468380" lon="10.371870">
                <time>2017-07-15T14:43:53Z</time>
            </trkpt>
            <trkpt lat="46.468380" lon="10.371870">
                <time>2017-07-15T14:43:54Z</time>
            </trkpt>
            <trkpt lat="46.468380" lon="10.371870">
                <time>2017-07-15T14:43:55Z</time>
            </trkpt>
            <trkpt lat="46.468380" lon="10.371870">
                <time>2017-07-15T14:43:56Z</time>
            </trkpt>
            <trkpt lat="46.468380" lon="10.371870">
                <time>2017-07-15T14:43:57Z</time>
            </trkpt>
            <trkpt lat="46.468380" lon="10.371870">
                <time>2017-07-15T14:43:58Z</time>
            </trkpt>
            <trkpt lat="46.468380" lon="10.371870">
                <time>2017-07-15T14:43:59Z</time>
            </trkpt>
            <trkpt lat="46.468380" lon="10.371870">
                <time>2017-07-15T14:44:00Z</time>
            </trkpt>
            <trkpt lat="46.468380" lon="10.371870">
                <time>2017-07-15T14:44:01Z</time>
            </trkpt>
            <trkpt lat="46.468380" lon="10.371870">
                <time>2017-07-15T14:44:02Z</time>
            </trkpt>
            <trkpt lat="46.468380" lon="10.371870">
                <time>2017-07-15T14:44:03Z</time>
            </trkpt>
            <trkpt lat="46.468380" lon="10.371870">
                <time>2017-07-15T14:44:04Z</time>
            </trkpt>
            <trkpt lat="46.468380" lon="10.371870">
                <time>2017-07-15T14:44:05Z</time>
            </trkpt>
            <trkpt lat="46.468380" lon="10.371870">
                <time>2017-07-15T14:44:06Z</time>
            </trkpt>
            <trkpt lat="46.468380" lon="10.371870">
                <time>2017-07-15T14:44:07Z</time>
            </trkpt>
            <trkpt lat="46.468380" lon="10.371870">
                <time>2017-07-15T14:44:08Z</time>
            </trkpt>
            <trkpt lat="46.468380" lon="10.371870">
                <time>2017-07-15T14:44:09Z</time>
            </trkpt>
            <trkpt lat="46.468380" lon="10.371870">
                <time>2017-07-15T14:44:10Z</time>
            </trkpt>
            <trkpt lat="46.468380" lon="10.371870">
                <time>2017-07-15T14:44:11Z</time>
            </trkpt>
            <trkpt lat="46.468380" lon="10.371870">
                <time>2017-07-15T14:44:12Z</time>
            </trkpt>
            <trkpt lat="46.468380" lon="10.371870">
                <time>2017-07-15T14:44:13Z</time>
            </trkpt>
            <trkpt lat="46.468380" lon="10.371870">
                <time>2017-07-15T14:44:14Z</time>
            </trkpt>
            <trkpt lat="46.468380" lon="10.371870">
                <time>2017-07-15T14:44:15Z</time>
            </trkpt>
            <trkpt lat="46.468380" lon="10.371870">
                <time>2017-07-15T14:44:16Z</time>
            </trkpt>
            <trkpt lat="46.468380" lon="10.371870">
                <time>2017-07-15T14:44:17Z</time>
            </trkpt>
            <trkpt lat="46.468380" lon="10.371870">
                <time>2017-07-15T14:44:18Z</time>
            </trkpt>
            <trkpt lat="46.468380" lon="10.371870">
                <time>2017-07-15T14:44:19Z</time>
            </trkpt>
            <trkpt lat="46.468380" lon="10.371870">
                <time>2017-07-15T14:44:20Z</time>
            </trkpt>
            <trkpt lat="46.468380" lon="10.371870">
                <time>2017-07-15T14:44:21Z</time>
            </trkpt>
            <trkpt lat="46.468380" lon="10.371870">
                <time>2017-07-15T14:44:22Z</time>
            </trkpt>
            <trkpt lat="46.468380" lon="10.371870">
                <time>2017-07-15T14:44:23Z</time>
            </trkpt>
            <trkpt lat="46.468380" lon="10.371870">
                <time>2017-07-15T14:44:24Z</time>
            </trkpt>
            <trkpt lat="46.468380" lon="10.371870">
                <time>2017-07-15T14:44:25Z</time>
            </trkpt>
            <trkpt lat="46.468380" lon="10.371870">
                <time>2017-07-15T14:44:26Z</time>
            </trkpt>
            <trkpt lat="46.468380" lon="10.371870">
                <time>2017-07-15T14:44:27Z</time>
            </trkpt>
            <trkpt lat="46.468380" lon="10.371870">
                <time>2017-07-15T14:44:28Z</time>
            </trkpt>
            <trkpt lat="46.468380" lon="10.371870">
                <time>2017-07-15T14:44:29Z</time>
            </trkpt>
            <trkpt lat="46.468380" lon="10.371870">
                <time>2017-07-15T14:44:30Z</time>
            </trkpt>
            <trkpt lat="46.468380" lon="10.371870">
                <time>2017-07-15T14:44:31Z</time>
            </trkpt>
            <trkpt lat="46.468380" lon="10.371870">
                <time>2017-07-15T14:44:32Z</time>
            </trkpt>
            <trkpt lat="46.468380" lon="10.371870">
                <time>2017-07-15T14:44:33Z</time>
            </trkpt>
            <trkpt lat="46.468380" lon="10.371870">
                <time>2017-07-15T14:44:34Z</time>
            </trkpt>
            <trkpt lat="46.468380" lon="10.371870">
                <time>2017-07-15T14:44:35Z</time>
            </trkpt>
            <trkpt lat="46.468380" lon="10.371870">
                <time>2017-07-15T14:44:36Z</time>
            </trkpt>
            <trkpt lat="46.468380" lon="10.371870">
                <time>2017-07-15T14:44:37Z</time>
            </trkpt>
            <trkpt lat="46.468380" lon="10.371870">
                <time>2017-07-15T14:44:38Z</time>
            </trkpt>
            <trkpt lat="46.468380" lon="10.371870">
                <time>2017-07-15T14:44:39Z</time>
            </trkpt>
            <trkpt lat="46.468380" lon="10.371870">
                <time>2017-07-15T14:44:40Z</time>
            </trkpt>
            <trkpt lat="46.468380" lon="10.371870">
                <time>2017-07-15T14:44:41Z</time>
            </trkpt>
            <trkpt lat="46.468380" lon="10.371870">
                <time>2017-07-15T14:44:42Z</time>
            </trkpt>
            <trkpt lat="46.468380" lon="10.371870">
                <time>2017-07-15T14:44:43Z</time>
            </trkpt>
            <trkpt lat="46.468380" lon="10.371870">
                <time>2017-07-15T14:44:44Z</time>
            </trkpt>
            <trkpt lat="46.468380" lon="10.371870">
                <time>2017-07-15T14:44:45Z</time>
            </trkpt>
            <trkpt lat="46.468380" lon="10.371870">
                <time>2017-07-15T14:44:46Z</time>
            </trkpt>
            <trkpt lat="46.468380" lon="10.371870">
                <time>2017-07-15T14:44:47Z</time>
            </trkpt>
            <trkpt lat="46.468380" lon="10.371870">
                <time>2017-07-15T14:44:48Z</time>
            </trkpt>
            <trkpt lat="46.468380" lon="10.371870">
                <time>2017-07-15T14:44:49Z</time>
            </trkpt>
            <trkpt lat="46.468380" lon="10.371870">
                <time>2017-07-15T14:44:50Z</time>
            </trkpt>
            <trkpt lat="46.468380" lon="10.371870">
                <time>2017-07-15T14:44:51Z</time>
            </trkpt>
            <trkpt lat="46.468380" lon="10.371870">
                <time>2017-07-15T14:44:52Z</time>
            </trkpt>
            <trkpt lat="46.468380" lon="10.371870">
                <time>2017-07-15T14:44:53Z</time>
            </trkpt>
            <trkpt lat="46.468380" lon="10.371870">
                <time>2017-07-15T14:44:54Z</time>
            </trkpt>
            <trkpt lat="46.468380" lon="10.371870">
                <time>2017-07-15T14:44:55Z</time>
            </trkpt>
            <trkpt lat="46.468380" lon="10.371870">
                <time>2017-07-15T14:44:56Z</time>
            </trkpt>
            <trkpt lat="46.468380" lon="10.371870">
                <time>2017-07-15T14:44:57Z</time>
            </trkpt>
            <trkpt lat="46.468380" lon="10.371870">
                <time>2017-07-15T14:44:58Z</time>
            </trkpt>
            <trkpt lat="46.468380" lon="10.371870">
                <time>2017-07-15T14:44:59Z</time>
            </trkpt>
            <trkpt lat="46.468370" lon="10.371860">
                <time>2017-07-15T14:45:00Z</time>
            </trkpt>
            <trkpt lat="46.468380" lon="10.371860">
                <time>2017-07-15T14:45:01Z</time>
            </trkpt>
            <trkpt lat="46.468420" lon="10.371850">
                <time>2017-07-15T14:45:02Z</time>
            </trkpt>
            <trkpt lat="46.468480" lon="10.371840">
                <time>2017-07-15T14:45:03Z</time>
            </trkpt>
            <trkpt lat="46.468540" lon="10.371830">
                <time>2017-07-15T14:45:04Z</time>
            </trkpt>
            <trkpt lat="46.468610" lon="10.371810">
                <time>2017-07-15T14:45:05Z</time>
            </trkpt>
            <trkpt lat="46.468690" lon="10.371760">
                <time>2017-07-15T14:45:06Z</time>
            </trkpt>
            <trkpt lat="46.468780" lon="10.371700">
                <time>2017-07-15T14:45:07Z</time>
            </trkpt>
            <trkpt lat="46.468860" lon="10.371620">
                <time>2017-07-15T14:45:08Z</time>
            </trkpt>
            <trkpt lat="46.468940" lon="10.371540">
                <time>2017-07-15T14:45:09Z</time>
            </trkpt>
            <trkpt lat="46.469020" lon="10.371460">
                <time>2017-07-15T14:45:10Z</time>
            </trkpt>
            <trkpt lat="46.469090" lon="10.371380">
                <time>2017-07-15T14:45:11Z</time>
            </trkpt>
            <trkpt lat="46.469150" lon="10.371310">
                <time>2017-07-15T14:45:12Z</time>
            </trkpt>
            <trkpt lat="46.469210" lon="10.371240">
                <time>2017-07-15T14:45:13Z</time>
            </trkpt>
            <trkpt lat="46.469270" lon="10.371160">
                <time>2017-07-15T14:45:14Z</time>
            </trkpt>
            <trkpt lat="46.469320" lon="10.371070">
                <time>2017-07-15T14:45:15Z</time>
            </trkpt>
            <trkpt lat="46.469360" lon="10.370970">
                <time>2017-07-15T14:45:16Z</time>
            </trkpt>
            <trkpt lat="46.469410" lon="10.370880">
                <time>2017-07-15T14:45:17Z</time>
            </trkpt>
            <trkpt lat="46.469450" lon="10.370780">
                <time>2017-07-15T14:45:18Z</time>
            </trkpt>
            <trkpt lat="46.469490" lon="10.370660">
                <time>2017-07-15T14:45:19Z</time>
            </trkpt>
            <trkpt lat="46.469520" lon="10.370560">
                <time>2017-07-15T14:45:20Z</time>
            </trkpt>
            <trkpt lat="46.469540" lon="10.370430">
                <time>2017-07-15T14:45:21Z</time>
            </trkpt>
            <trkpt lat="46.469570" lon="10.370310">
                <time>2017-07-15T14:45:22Z</time>
            </trkpt>
            <trkpt lat="46.469590" lon="10.370180">
                <time>2017-07-15T14:45:23Z</time>
            </trkpt>
            <trkpt lat="46.469600" lon="10.370040">
                <time>2017-07-15T14:45:24Z</time>
            </trkpt>
            <trkpt lat="46.469610" lon="10.369910">
                <time>2017-07-15T14:45:25Z</time>
            </trkpt>
            <trkpt lat="46.469610" lon="10.369780">
                <time>2017-07-15T14:45:26Z</time>
            </trkpt>
            <trkpt lat="46.469620" lon="10.369640">
                <time>2017-07-15T14:45:27Z</time>
            </trkpt>
            <trkpt lat="46.469640" lon="10.369520">
                <time>2017-07-15T14:45:28Z</time>
            </trkpt>
            <trkpt lat="46.469650" lon="10.369380">
                <time>2017-07-15T14:45:29Z</time>
            </trkpt>
            <trkpt lat="46.469670" lon="10.369240">
                <time>2017-07-15T14:45:30Z</time>
            </trkpt>
            <trkpt lat="46.469700" lon="10.369100">
                <time>2017-07-15T14:45:31Z</time>
            </trkpt>
            <trkpt lat="46.469740" lon="10.368950">
                <time>2017-07-15T14:45:32Z</time>
            </trkpt>
            <trkpt lat="46.469790" lon="10.368820">
                <time>2017-07-15T14:45:33Z</time>
            </trkpt>
            <trkpt lat="46.469850" lon="10.368700">
                <time>2017-07-15T14:45:34Z</time>
            </trkpt>
            <trkpt lat="46.469920" lon="10.368580">
                <time>2017-07-15T14:45:35Z</time>
            </trkpt>
            <trkpt lat="46.470000" lon="10.368490">
                <time>2017-07-15T14:45:36Z</time>
            </trkpt>
            <trkpt lat="46.470080" lon="10.368390">
                <time>2017-07-15T14:45:37Z</time>
            </trkpt>
            <trkpt lat="46.470160" lon="10.368280">
                <time>2017-07-15T14:45:38Z</time>
            </trkpt>
            <trkpt lat="46.470250" lon="10.368160">
                <time>2017-07-15T14:45:39Z</time>
            </trkpt>
            <trkpt lat="46.470340" lon="10.368030">
                <time>2017-07-15T14:45:40Z</time>
            </trkpt>
            <trkpt lat="46.470430" lon="10.367920">
                <time>2017-07-15T14:45:41Z</time>
            </trkpt>
            <trkpt lat="46.470520" lon="10.367790">
                <time>2017-07-15T14:45:42Z</time>
            </trkpt>
            <trkpt lat="46.470620" lon="10.367650">
                <time>2017-07-15T14:45:43Z</time>
            </trkpt>
            <trkpt lat="46.470710" lon="10.367540">
                <time>2017-07-15T14:45:44Z</time>
            </trkpt>
            <trkpt lat="46.470800" lon="10.367400">
                <time>2017-07-15T14:45:45Z</time>
            </trkpt>
            <trkpt lat="46.470910" lon="10.367260">
                <time>2017-07-15T14:45:46Z</time>
            </trkpt>
            <trkpt lat="46.470990" lon="10.367140">
                <time>2017-07-15T14:45:47Z</time>
            </trkpt>
            <trkpt lat="46.471100" lon="10.367010">
                <time>2017-07-15T14:45:48Z</time>
            </trkpt>
            <trkpt lat="46.471180" lon="10.366890">
                <time>2017-07-15T14:45:49Z</time>
            </trkpt>
            <trkpt lat="46.471280" lon="10.366770">
                <time>2017-07-15T14:45:50Z</time>
            </trkpt>
            <trkpt lat="46.471380" lon="10.366650">
                <time>2017-07-15T14:45:51Z</time>
            </trkpt>
            <trkpt lat="46.471490" lon="10.366560">
                <time>2017-07-15T14:45:52Z</time>
            </trkpt>
            <trkpt lat="46.471620" lon="10.366480">
                <time>2017-07-15T14:45:53Z</time>
            </trkpt>
            <trkpt lat="46.471740" lon="10.366400">
                <time>2017-07-15T14:45:54Z</time>
            </trkpt>
            <trkpt lat="46.471860" lon="10.366330">
                <time>2017-07-15T14:45:55Z</time>
            </trkpt>
            <trkpt lat="46.472000" lon="10.366260">
                <time>2017-07-15T14:45:56Z</time>
            </trkpt>
            <trkpt lat="46.472120" lon="10.366210">
                <time>2017-07-15T14:45:57Z</time>
            </trkpt>
            <trkpt lat="46.472240" lon="10.366140">
                <time>2017-07-15T14:45:58Z</time>
            </trkpt>
            <trkpt lat="46.472370" lon="10.366070">
                <time>2017-07-15T14:45:59Z</time>
            </trkpt>
            <trkpt lat="46.472480" lon="10.366000">
                <time>2017-07-15T14:46:00Z</time>
            </trkpt>
            <trkpt lat="46.472600" lon="10.365950">
                <time>2017-07-15T14:46:01Z</time>
            </trkpt>
            <trkpt lat="46.472700" lon="10.365900">
                <time>2017-07-15T14:46:02Z</time>
            </trkpt>
            <trkpt lat="46.472790" lon="10.365880">
                <time>2017-07-15T14:46:03Z</time>
            </trkpt>
            <trkpt lat="46.472880" lon="10.365920">
                <time>2017-07-15T14:46:04Z</time>
            </trkpt>
            <trkpt lat="46.472940" lon="10.366000">
                <time>2017-07-15T14:46:05Z</time>
            </trkpt>
            <trkpt lat="46.472970" lon="10.366120">
                <time>2017-07-15T14:46:06Z</time>
            </trkpt>
            <trkpt lat="46.472960" lon="10.366250">
                <time>2017-07-15T14:46:07Z</time>
            </trkpt>
            <trkpt lat="46.472910" lon="10.366380">
                <time>2017-07-15T14:46:08Z</time>
            </trkpt>
            <trkpt lat="46.472850" lon="10.366520">
                <time>2017-07-15T14:46:09Z</time>
            </trkpt>
            <trkpt lat="46.472790" lon="10.366690">
                <time>2017-07-15T14:46:10Z</time>
            </trkpt>
            <trkpt lat="46.472720" lon="10.366870">
                <time>2017-07-15T14:46:11Z</time>
            </trkpt>
            <trkpt lat="46.472650" lon="10.367070">
                <time>2017-07-15T14:46:12Z</time>
            </trkpt>
            <trkpt lat="46.472580" lon="10.367230">
                <time>2017-07-15T14:46:13Z</time>
            </trkpt>
            <trkpt lat="46.472510" lon="10.367390">
                <time>2017-07-15T14:46:14Z</time>
            </trkpt>
            <trkpt lat="46.472450" lon="10.367550">
                <time>2017-07-15T14:46:15Z</time>
            </trkpt>
            <trkpt lat="46.472400" lon="10.367680">
                <time>2017-07-15T14:46:16Z</time>
            </trkpt>
            <trkpt lat="46.472360" lon="10.367810">
                <time>2017-07-15T14:46:17Z</time>
            </trkpt>
            <trkpt lat="46.472340" lon="10.367960">
                <time>2017-07-15T14:46:18Z</time>
            </trkpt>
            <trkpt lat="46.472370" lon="10.368070">
                <time>2017-07-15T14:46:19Z</time>
            </trkpt>
            <trkpt lat="46.472430" lon="10.368160">
                <time>2017-07-15T14:46:20Z</time>
            </trkpt>
            <trkpt lat="46.472500" lon="10.368200">
                <time>2017-07-15T14:46:21Z</time>
            </trkpt>
            <trkpt lat="46.472590" lon="10.368200">
                <time>2017-07-15T14:46:22Z</time>
            </trkpt>
            <trkpt lat="46.472690" lon="10.368130">
                <time>2017-07-15T14:46:23Z</time>
            </trkpt>
            <trkpt lat="46.472780" lon="10.368040">
                <time>2017-07-15T14:46:24Z</time>
            </trkpt>
            <trkpt lat="46.472880" lon="10.367940">
                <time>2017-07-15T14:46:25Z</time>
            </trkpt>
            <trkpt lat="46.472980" lon="10.367840">
                <time>2017-07-15T14:46:26Z</time>
            </trkpt>
            <trkpt lat="46.473100" lon="10.367730">
                <time>2017-07-15T14:46:27Z</time>
            </trkpt>
            <trkpt lat="46.473220" lon="10.367600">
                <time>2017-07-15T14:46:28Z</time>
            </trkpt>
            <trkpt lat="46.473330" lon="10.367500">
                <time>2017-07-15T14:46:29Z</time>
            </trkpt>
            <trkpt lat="46.473450" lon="10.367380">
                <time>2017-07-15T14:46:30Z</time>
            </trkpt>
            <trkpt lat="46.473600" lon="10.367270">
                <time>2017-07-15T14:46:31Z</time>
            </trkpt>
            <trkpt lat="46.473730" lon="10.367200">
                <time>2017-07-15T14:46:32Z</time>
            </trkpt>
            <trkpt lat="46.473880" lon="10.367120">
                <time>2017-07-15T14:46:33Z</time>
            </trkpt>
            <trkpt lat="46.474040" lon="10.367050">
                <time>2017-07-15T14:46:34Z</time>
            </trkpt>
            <trkpt lat="46.474190" lon="10.367000">
                <time>2017-07-15T14:46:35Z</time>
            </trkpt>
            <trkpt lat="46.474360" lon="10.366950">
                <time>2017-07-15T14:46:36Z</time>
            </trkpt>
            <trkpt lat="46.474520" lon="10.366920">
                <time>2017-07-15T14:46:37Z</time>
            </trkpt>
            <trkpt lat="46.474690" lon="10.366910">
                <time>2017-07-15T14:46:38Z</time>
            </trkpt>
            <trkpt lat="46.474870" lon="10.366920">
                <time>2017-07-15T14:46:39Z</time>
            </trkpt>
            <trkpt lat="46.475020" lon="10.366940">
                <time>2017-07-15T14:46:40Z</time>
            </trkpt>
            <trkpt lat="46.475180" lon="10.366960">
                <time>2017-07-15T14:46:41Z</time>
            </trkpt>
            <trkpt lat="46.475340" lon="10.366990">
                <time>2017-07-15T14:46:42Z</time>
            </trkpt>
            <trkpt lat="46.475500" lon="10.367020">
                <time>2017-07-15T14:46:43Z</time>
            </trkpt>
            <trkpt lat="46.475670" lon="10.367050">
                <time>2017-07-15T14:46:44Z</time>
            </trkpt>
            <trkpt lat="46.475820" lon="10.367070">
                <time>2017-07-15T14:46:45Z</time>
            </trkpt>
            <trkpt lat="46.475990" lon="10.367090">
                <time>2017-07-15T14:46:46Z</time>
            </trkpt>
            <trkpt lat="46.476150" lon="10.367110">
                <time>2017-07-15T14:46:47Z</time>
            </trkpt>
            <trkpt lat="46.476290" lon="10.367130">
                <time>2017-07-15T14:46:48Z</time>
            </trkpt>
            <trkpt lat="46.476430" lon="10.367150">
                <time>2017-07-15T14:46:49Z</time>
            </trkpt>
            <trkpt lat="46.476590" lon="10.367190">
                <time>2017-07-15T14:46:50Z</time>
            </trkpt>
            <trkpt lat="46.476720" lon="10.367220">
                <time>2017-07-15T14:46:51Z</time>
            </trkpt>
            <trkpt lat="46.476880" lon="10.367250">
                <time>2017-07-15T14:46:52Z</time>
            </trkpt>
            <trkpt lat="46.477020" lon="10.367260">
                <time>2017-07-15T14:46:53Z</time>
            </trkpt>
            <trkpt lat="46.477160" lon="10.367280">
                <time>2017-07-15T14:46:54Z</time>
            </trkpt>
            <trkpt lat="46.477310" lon="10.367310">
                <time>2017-07-15T14:46:55Z</time>
            </trkpt>
            <trkpt lat="46.477420" lon="10.367330">
                <time>2017-07-15T14:46:56Z</time>
            </trkpt>
            <trkpt lat="46.477530" lon="10.367350">
                <time>2017-07-15T14:46:57Z</time>
            </trkpt>
            <trkpt lat="46.477620" lon="10.367380">
                <time>2017-07-15T14:46:58Z</time>
            </trkpt>
            <trkpt lat="46.477680" lon="10.367420">
                <time>2017-07-15T14:46:59Z</time>
            </trkpt>
            <trkpt lat="46.477710" lon="10.367500">
                <time>2017-07-15T14:47:00Z</time>
            </trkpt>
            <trkpt lat="46.477700" lon="10.367570">
                <time>2017-07-15T14:47:01Z</time>
            </trkpt>
            <trkpt lat="46.477660" lon="10.367620">
                <time>2017-07-15T14:47:02Z</time>
            </trkpt>
            <trkpt lat="46.477590" lon="10.367650">
                <time>2017-07-15T14:47:03Z</time>
            </trkpt>
            <trkpt lat="46.477510" lon="10.367670">
                <time>2017-07-15T14:47:04Z</time>
            </trkpt>
            <trkpt lat="46.477410" lon="10.367700">
                <time>2017-07-15T14:47:05Z</time>
            </trkpt>
            <trkpt lat="46.477300" lon="10.367750">
                <time>2017-07-15T14:47:06Z</time>
            </trkpt>
            <trkpt lat="46.477190" lon="10.367810">
                <time>2017-07-15T14:47:07Z</time>
            </trkpt>
            <trkpt lat="46.477060" lon="10.367880">
                <time>2017-07-15T14:47:08Z</time>
            </trkpt>
            <trkpt lat="46.476930" lon="10.367970">
                <time>2017-07-15T14:47:09Z</time>
            </trkpt>
            <trkpt lat="46.476810" lon="10.368060">
                <time>2017-07-15T14:47:10Z</time>
            </trkpt>
            <trkpt lat="46.476670" lon="10.368140">
                <time>2017-07-15T14:47:11Z</time>
            </trkpt>
            <trkpt lat="46.476560" lon="10.368210">
                <time>2017-07-15T14:47:12Z</time>
            </trkpt>
            <trkpt lat="46.476460" lon="10.368280">
                <time>2017-07-15T14:47:13Z</time>
            </trkpt>
            <trkpt lat="46.476380" lon="10.368360">
                <time>2017-07-15T14:47:14Z</time>
            </trkpt>
            <trkpt lat="46.476340" lon="10.368440">
                <time>2017-07-15T14:47:15Z</time>
            </trkpt>
            <trkpt lat="46.476340" lon="10.368540">
                <time>2017-07-15T14:47:16Z</time>
            </trkpt>
            <trkpt lat="46.476370" lon="10.368600">
                <time>2017-07-15T14:47:17Z</time>
            </trkpt>
            <trkpt lat="46.476440" lon="10.368640">
                <time>2017-07-15T14:47:18Z</time>
            </trkpt>
            <trkpt lat="46.476530" lon="10.368670">
                <time>2017-07-15T14:47:19Z</time>
            </trkpt>
            <trkpt lat="46.476630" lon="10.368670">
                <time>2017-07-15T14:47:20Z</time>
            </trkpt>
            <trkpt lat="46.476730" lon="10.368690">
                <time>2017-07-15T14:47:21Z</time>
            </trkpt>
            <trkpt lat="46.476860" lon="10.368720">
                <time>2017-07-15T14:47:22Z</time>
            </trkpt>
            <trkpt lat="46.476980" lon="10.368750">
                <time>2017-07-15T14:47:23Z</time>
            </trkpt>
            <trkpt lat="46.477120" lon="10.368780">
                <time>2017-07-15T14:47:24Z</time>
            </trkpt>
            <trkpt lat="46.477240" lon="10.368820">
                <time>2017-07-15T14:47:25Z</time>
            </trkpt>
            <trkpt lat="46.477380" lon="10.368860">
                <time>2017-07-15T14:47:26Z</time>
            </trkpt>
            <trkpt lat="46.477520" lon="10.368910">
                <time>2017-07-15T14:47:27Z</time>
            </trkpt>
            <trkpt lat="46.477630" lon="10.368940">
                <time>2017-07-15T14:47:28Z</time>
            </trkpt>
            <trkpt lat="46.477730" lon="10.369010">
                <time>2017-07-15T14:47:29Z</time>
            </trkpt>
            <trkpt lat="46.477810" lon="10.369100">
                <time>2017-07-15T14:47:30Z</time>
            </trkpt>
            <trkpt lat="46.477880" lon="10.369250">
                <time>2017-07-15T14:47:31Z</time>
            </trkpt>
            <trkpt lat="46.477970" lon="10.369420">
                <time>2017-07-15T14:47:32Z</time>
            </trkpt>
            <trkpt lat="46.478060" lon="10.369530">
                <time>2017-07-15T14:47:33Z</time>
            </trkpt>
            <trkpt lat="46.478180" lon="10.369590">
                <time>2017-07-15T14:47:34Z</time>
            </trkpt>
            <trkpt lat="46.478320" lon="10.369600">
                <time>2017-07-15T14:47:35Z</time>
            </trkpt>
            <trkpt lat="46.478440" lon="10.369560">
                <time>2017-07-15T14:47:36Z</time>
            </trkpt>
            <trkpt lat="46.478580" lon="10.369490">
                <time>2017-07-15T14:47:37Z</time>
            </trkpt>
            <trkpt lat="46.478740" lon="10.369390">
                <time>2017-07-15T14:47:38Z</time>
            </trkpt>
            <trkpt lat="46.478880" lon="10.369280">
                <time>2017-07-15T14:47:39Z</time>
            </trkpt>
            <trkpt lat="46.479040" lon="10.369170">
                <time>2017-07-15T14:47:40Z</time>
            </trkpt>
            <trkpt lat="46.479200" lon="10.369060">
                <time>2017-07-15T14:47:41Z</time>
            </trkpt>
            <trkpt lat="46.479360" lon="10.368940">
                <time>2017-07-15T14:47:42Z</time>
            </trkpt>
            <trkpt lat="46.479520" lon="10.368800">
                <time>2017-07-15T14:47:43Z</time>
            </trkpt>
            <trkpt lat="46.479660" lon="10.368690">
                <time>2017-07-15T14:47:44Z</time>
            </trkpt>
            <trkpt lat="46.479790" lon="10.368580">
                <time>2017-07-15T14:47:45Z</time>
            </trkpt>
            <trkpt lat="46.479910" lon="10.368500">
                <time>2017-07-15T14:47:46Z</time>
            </trkpt>
            <trkpt lat="46.480040" lon="10.368450">
                <time>2017-07-15T14:47:47Z</time>
            </trkpt>
            <trkpt lat="46.480200" lon="10.368430">
                <time>2017-07-15T14:47:48Z</time>
            </trkpt>
            <trkpt lat="46.480350" lon="10.368440">
                <time>2017-07-15T14:47:49Z</time>
            </trkpt>
            <trkpt lat="46.480500" lon="10.368430">
                <time>2017-07-15T14:47:50Z</time>
            </trkpt>
            <trkpt lat="46.480670" lon="10.368400">
                <time>2017-07-15T14:47:51Z</time>
            </trkpt>
            <trkpt lat="46.480820" lon="10.368380">
                <time>2017-07-15T14:47:52Z</time>
            </trkpt>
            <trkpt lat="46.480970" lon="10.368390">
                <time>2017-07-15T14:47:53Z</time>
            </trkpt>
            <trkpt lat="46.481130" lon="10.368410">
                <time>2017-07-15T14:47:54Z</time>
            </trkpt>
            <trkpt lat="46.481260" lon="10.368440">
                <time>2017-07-15T14:47:55Z</time>
            </trkpt>
            <trkpt lat="46.481390" lon="10.368480">
                <time>2017-07-15T14:47:56Z</time>
            </trkpt>
            <trkpt lat="46.481510" lon="10.368490">
                <time>2017-07-15T14:47:57Z</time>
            </trkpt>
            <trkpt lat="46.481630" lon="10.368490">
                <time>2017-07-15T14:47:58Z</time>
            </trkpt>
            <trkpt lat="46.481760" lon="10.368420">
                <time>2017-07-15T14:47:59Z</time>
            </trkpt>
            <trkpt lat="46.481870" lon="10.368350">
                <time>2017-07-15T14:48:00Z</time>
            </trkpt>
            <trkpt lat="46.481980" lon="10.368270">
                <time>2017-07-15T14:48:01Z</time>
            </trkpt>
            <trkpt lat="46.482080" lon="10.368190">
                <time>2017-07-15T14:48:02Z</time>
            </trkpt>
            <trkpt lat="46.482190" lon="10.368100">
                <time>2017-07-15T14:48:03Z</time>
            </trkpt>
            <trkpt lat="46.482280" lon="10.367990">
                <time>2017-07-15T14:48:04Z</time>
            </trkpt>
            <trkpt lat="46.482360" lon="10.367890">
                <time>2017-07-15T14:48:05Z</time>
            </trkpt>
            <trkpt lat="46.482420" lon="10.367750">
                <time>2017-07-15T14:48:06Z</time>
            </trkpt>
            <trkpt lat="46.482470" lon="10.367600">
                <time>2017-07-15T14:48:07Z</time>
            </trkpt>
            <trkpt lat="46.482520" lon="10.367460">
                <time>2017-07-15T14:48:08Z</time>
            </trkpt>
            <trkpt lat="46.482590" lon="10.367320">
                <time>2017-07-15T14:48:09Z</time>
            </trkpt>
            <trkpt lat="46.482700" lon="10.367200">
                <time>2017-07-15T14:48:10Z</time>
            </trkpt>
            <trkpt lat="46.482800" lon="10.367100">
                <time>2017-07-15T14:48:11Z</time>
            </trkpt>
            <trkpt lat="46.482910" lon="10.366990">
                <time>2017-07-15T14:48:12Z</time>
            </trkpt>
            <trkpt lat="46.483010" lon="10.366900">
                <time>2017-07-15T14:48:13Z</time>
            </trkpt>
            <trkpt lat="46.483120" lon="10.366830">
                <time>2017-07-15T14:48:14Z</time>
            </trkpt>
            <trkpt lat="46.483250" lon="10.366750">
                <time>2017-07-15T14:48:15Z</time>
            </trkpt>
            <trkpt lat="46.483360" lon="10.366700">
                <time>2017-07-15T14:48:16Z</time>
            </trkpt>
            <trkpt lat="46.483480" lon="10.366650">
                <time>2017-07-15T14:48:17Z</time>
            </trkpt>
            <trkpt lat="46.483590" lon="10.366610">
                <time>2017-07-15T14:48:18Z</time>
            </trkpt>
            <trkpt lat="46.483690" lon="10.366540">
                <time>2017-07-15T14:48:19Z</time>
            </trkpt>
            <trkpt lat="46.483790" lon="10.366430">
                <time>2017-07-15T14:48:20Z</time>
            </trkpt>
            <trkpt lat="46.483850" lon="10.366320">
                <time>2017-07-15T14:48:21Z</time>
            </trkpt>
            <trkpt lat="46.483920" lon="10.366170">
                <time>2017-07-15T14:48:22Z</time>
            </trkpt>
            <trkpt lat="46.483980" lon="10.366020">
                <time>2017-07-15T14:48:23Z</time>
            </trkpt>
            <trkpt lat="46.484040" lon="10.365890">
                <time>2017-07-15T14:48:24Z</time>
            </trkpt>
            <trkpt lat="46.484110" lon="10.365780">
                <time>2017-07-15T14:48:25Z</time>
            </trkpt>
            <trkpt lat="46.484210" lon="10.365680">
                <time>2017-07-15T14:48:26Z</time>
            </trkpt>
            <trkpt lat="46.484300" lon="10.365630">
                <time>2017-07-15T14:48:27Z</time>
            </trkpt>
            <trkpt lat="46.484430" lon="10.365610">
                <time>2017-07-15T14:48:28Z</time>
            </trkpt>
            <trkpt lat="46.484550" lon="10.365620">
                <time>2017-07-15T14:48:29Z</time>
            </trkpt>
            <trkpt lat="46.484690" lon="10.365660">
                <time>2017-07-15T14:48:30Z</time>
            </trkpt>
            <trkpt lat="46.484870" lon="10.365710">
                <time>2017-07-15T14:48:31Z</time>
            </trkpt>
            <trkpt lat="46.485020" lon="10.365760">
                <time>2017-07-15T14:48:32Z</time>
            </trkpt>
            <trkpt lat="46.485200" lon="10.365830">
                <time>2017-07-15T14:48:33Z</time>
            </trkpt>
            <trkpt lat="46.485360" lon="10.365930">
                <time>2017-07-15T14:48:34Z</time>
            </trkpt>
            <trkpt lat="46.485510" lon="10.366050">
                <time>2017-07-15T14:48:35Z</time>
            </trkpt>
            <trkpt lat="46.485660" lon="10.366180">
                <time>2017-07-15T14:48:36Z</time>
            </trkpt>
            <trkpt lat="46.485760" lon="10.366270">
                <time>2017-07-15T14:48:37Z</time>
            </trkpt>
            <trkpt lat="46.485860" lon="10.366340">
                <time>2017-07-15T14:48:38Z</time>
            </trkpt>
            <trkpt lat="46.485980" lon="10.366340">
                <time>2017-07-15T14:48:39Z</time>
            </trkpt>
            <trkpt lat="46.486090" lon="10.366330">
                <time>2017-07-15T14:48:40Z</time>
            </trkpt>
            <trkpt lat="46.486220" lon="10.366210">
                <time>2017-07-15T14:48:41Z</time>
            </trkpt>
            <trkpt lat="46.486360" lon="10.366080">
                <time>2017-07-15T14:48:42Z</time>
            </trkpt>
            <trkpt lat="46.486490" lon="10.365960">
                <time>2017-07-15T14:48:43Z</time>
            </trkpt>
            <trkpt lat="46.486650" lon="10.365810">
                <time>2017-07-15T14:48:44Z</time>
            </trkpt>
            <trkpt lat="46.486790" lon="10.365670">
                <time>2017-07-15T14:48:45Z</time>
            </trkpt>
            <trkpt lat="46.486950" lon="10.365540">
                <time>2017-07-15T14:48:46Z</time>
            </trkpt>
            <trkpt lat="46.487110" lon="10.365370">
                <time>2017-07-15T14:48:47Z</time>
            </trkpt>
            <trkpt lat="46.487270" lon="10.365250">
                <time>2017-07-15T14:48:48Z</time>
            </trkpt>
            <trkpt lat="46.487450" lon="10.365150">
                <time>2017-07-15T14:48:49Z</time>
            </trkpt>
            <trkpt lat="46.487630" lon="10.365040">
                <time>2017-07-15T14:48:50Z</time>
            </trkpt>
            <trkpt lat="46.487800" lon="10.364930">
                <time>2017-07-15T14:48:51Z</time>
            </trkpt>
            <trkpt lat="46.487960" lon="10.364820">
                <time>2017-07-15T14:48:52Z</time>
            </trkpt>
            <trkpt lat="46.488080" lon="10.364760">
                <time>2017-07-15T14:48:53Z</time>
            </trkpt>
            <trkpt lat="46.488200" lon="10.364730">
                <time>2017-07-15T14:48:54Z</time>
            </trkpt>
            <trkpt lat="46.488350" lon="10.364730">
                <time>2017-07-15T14:48:55Z</time>
            </trkpt>
            <trkpt lat="46.488490" lon="10.364730">
                <time>2017-07-15T14:48:56Z</time>
            </trkpt>
            <trkpt lat="46.488640" lon="10.364750">
                <time>2017-07-15T14:48:57Z</time>
            </trkpt>
            <trkpt lat="46.488820" lon="10.364740">
                <time>2017-07-15T14:48:58Z</time>
            </trkpt>
            <trkpt lat="46.488970" lon="10.364690">
                <time>2017-07-15T14:48:59Z</time>
            </trkpt>
            <trkpt lat="46.489160" lon="10.364620">
                <time>2017-07-15T14:49:00Z</time>
            </trkpt>
            <trkpt lat="46.489330" lon="10.364550">
                <time>2017-07-15T14:49:01Z</time>
            </trkpt>
            <trkpt lat="46.489510" lon="10.364520">
                <time>2017-07-15T14:49:02Z</time>
            </trkpt>
            <trkpt lat="46.489690" lon="10.364480">
                <time>2017-07-15T14:49:03Z</time>
            </trkpt>
            <trkpt lat="46.489850" lon="10.364450">
                <time>2017-07-15T14:49:04Z</time>
            </trkpt>
            <trkpt lat="46.490020" lon="10.364400">
                <time>2017-07-15T14:49:05Z</time>
            </trkpt>
            <trkpt lat="46.490180" lon="10.364350">
                <time>2017-07-15T14:49:06Z</time>
            </trkpt>
            <trkpt lat="46.490330" lon="10.364300">
                <time>2017-07-15T14:49:07Z</time>
            </trkpt>
            <trkpt lat="46.490490" lon="10.364240">
                <time>2017-07-15T14:49:08Z</time>
            </trkpt>
            <trkpt lat="46.490610" lon="10.364190">
                <time>2017-07-15T14:49:09Z</time>
            </trkpt>
            <trkpt lat="46.490730" lon="10.364140">
                <time>2017-07-15T14:49:10Z</time>
            </trkpt>
            <trkpt lat="46.490840" lon="10.364060">
                <time>2017-07-15T14:49:11Z</time>
            </trkpt>
            <trkpt lat="46.490930" lon="10.363960">
                <time>2017-07-15T14:49:12Z</time>
            </trkpt>
            <trkpt lat="46.491030" lon="10.363820">
                <time>2017-07-15T14:49:13Z</time>
            </trkpt>
            <trkpt lat="46.491130" lon="10.363660">
                <time>2017-07-15T14:49:14Z</time>
            </trkpt>
            <trkpt lat="46.491230" lon="10.363510">
                <time>2017-07-15T14:49:15Z</time>
            </trkpt>
            <trkpt lat="46.491340" lon="10.363350">
                <time>2017-07-15T14:49:16Z</time>
            </trkpt>
            <trkpt lat="46.491430" lon="10.363200">
                <time>2017-07-15T14:49:17Z</time>
            </trkpt>
            <trkpt lat="46.491560" lon="10.363070">
                <time>2017-07-15T14:49:18Z</time>
            </trkpt>
            <trkpt lat="46.491660" lon="10.362860">
                <time>2017-07-15T14:49:19Z</time>
            </trkpt>
            <trkpt lat="46.491760" lon="10.362720">
                <time>2017-07-15T14:49:20Z</time>
            </trkpt>
            <trkpt lat="46.491850" lon="10.362560">
                <time>2017-07-15T14:49:21Z</time>
            </trkpt>
            <trkpt lat="46.491930" lon="10.362410">
                <time>2017-07-15T14:49:22Z</time>
            </trkpt>
            <trkpt lat="46.492010" lon="10.362320">
                <time>2017-07-15T14:49:23Z</time>
            </trkpt>
            <trkpt lat="46.492110" lon="10.362260">
                <time>2017-07-15T14:49:24Z</time>
            </trkpt>
            <trkpt lat="46.492190" lon="10.362260">
                <time>2017-07-15T14:49:25Z</time>
            </trkpt>
            <trkpt lat="46.492290" lon="10.362290">
                <time>2017-07-15T14:49:26Z</time>
            </trkpt>
            <trkpt lat="46.492390" lon="10.362320">
                <time>2017-07-15T14:49:27Z</time>
            </trkpt>
            <trkpt lat="46.492480" lon="10.362320">
                <time>2017-07-15T14:49:28Z</time>
            </trkpt>
            <trkpt lat="46.492570" lon="10.362280">
                <time>2017-07-15T14:49:29Z</time>
            </trkpt>
            <trkpt lat="46.492710" lon="10.362220">
                <time>2017-07-15T14:49:30Z</time>
            </trkpt>
            <trkpt lat="46.492780" lon="10.362000">
                <time>2017-07-15T14:49:31Z</time>
            </trkpt>
            <trkpt lat="46.492890" lon="10.361820">
                <time>2017-07-15T14:49:32Z</time>
            </trkpt>
            <trkpt lat="46.492990" lon="10.361670">
                <time>2017-07-15T14:49:33Z</time>
            </trkpt>
            <trkpt lat="46.493090" lon="10.361500">
                <time>2017-07-15T14:49:34Z</time>
            </trkpt>
            <trkpt lat="46.493170" lon="10.361340">
                <time>2017-07-15T14:49:35Z</time>
            </trkpt>
            <trkpt lat="46.493210" lon="10.361200">
                <time>2017-07-15T14:49:36Z</time>
            </trkpt>
            <trkpt lat="46.493210" lon="10.361050">
                <time>2017-07-15T14:49:37Z</time>
            </trkpt>
            <trkpt lat="46.493190" lon="10.360900">
                <time>2017-07-15T14:49:38Z</time>
            </trkpt>
            <trkpt lat="46.493170" lon="10.360760">
                <time>2017-07-15T14:49:39Z</time>
            </trkpt>
            <trkpt lat="46.493170" lon="10.360600">
                <time>2017-07-15T14:49:40Z</time>
            </trkpt>
            <trkpt lat="46.493210" lon="10.360470">
                <time>2017-07-15T14:49:41Z</time>
            </trkpt>
            <trkpt lat="46.493280" lon="10.360360">
                <time>2017-07-15T14:49:42Z</time>
            </trkpt>
            <trkpt lat="46.493390" lon="10.360270">
                <time>2017-07-15T14:49:43Z</time>
            </trkpt>
            <trkpt lat="46.493500" lon="10.360170">
                <time>2017-07-15T14:49:44Z</time>
            </trkpt>
            <trkpt lat="46.493640" lon="10.360080">
                <time>2017-07-15T14:49:45Z</time>
            </trkpt>
            <trkpt lat="46.493800" lon="10.359970">
                <time>2017-07-15T14:49:46Z</time>
            </trkpt>
            <trkpt lat="46.493940" lon="10.359860">
                <time>2017-07-15T14:49:47Z</time>
            </trkpt>
            <trkpt lat="46.494110" lon="10.359740">
                <time>2017-07-15T14:49:48Z</time>
            </trkpt>
            <trkpt lat="46.494240" lon="10.359610">
                <time>2017-07-15T14:49:49Z</time>
            </trkpt>
            <trkpt lat="46.494390" lon="10.359480">
                <time>2017-07-15T14:49:50Z</time>
            </trkpt>
            <trkpt lat="46.494530" lon="10.359320">
                <time>2017-07-15T14:49:51Z</time>
            </trkpt>
            <trkpt lat="46.494660" lon="10.359180">
                <time>2017-07-15T14:49:52Z</time>
            </trkpt>
            <trkpt lat="46.494780" lon="10.359050">
                <time>2017-07-15T14:49:53Z</time>
            </trkpt>
            <trkpt lat="46.494890" lon="10.358910">
                <time>2017-07-15T14:49:54Z</time>
            </trkpt>
            <trkpt lat="46.495000" lon="10.358780">
                <time>2017-07-15T14:49:55Z</time>
            </trkpt>
            <trkpt lat="46.495110" lon="10.358690">
                <time>2017-07-15T14:49:56Z</time>
            </trkpt>
            <trkpt lat="46.495210" lon="10.358640">
                <time>2017-07-15T14:49:57Z</time>
            </trkpt>
            <trkpt lat="46.495330" lon="10.358620">
                <time>2017-07-15T14:49:58Z</time>
            </trkpt>
            <trkpt lat="46.495470" lon="10.358590">
                <time>2017-07-15T14:49:59Z</time>
            </trkpt>
            <trkpt lat="46.495590" lon="10.358520">
                <time>2017-07-15T14:50:00Z</time>
            </trkpt>
            <trkpt lat="46.495710" lon="10.358410">
                <time>2017-07-15T14:50:01Z</time>
            </trkpt>
            <trkpt lat="46.495830" lon="10.358280">
                <time>2017-07-15T14:50:02Z</time>
            </trkpt>
            <trkpt lat="46.495920" lon="10.358160">
                <time>2017-07-15T14:50:03Z</time>
            </trkpt>
            <trkpt lat="46.496020" lon="10.358060">
                <time>2017-07-15T14:50:04Z</time>
            </trkpt>
            <trkpt lat="46.496120" lon="10.358020">
                <time>2017-07-15T14:50:05Z</time>
            </trkpt>
            <trkpt lat="46.496240" lon="10.358030">
                <time>2017-07-15T14:50:06Z</time>
            </trkpt>
            <trkpt lat="46.496370" lon="10.358070">
                <time>2017-07-15T14:50:07Z</time>
            </trkpt>
            <trkpt lat="46.496490" lon="10.358100">
                <time>2017-07-15T14:50:08Z</time>
            </trkpt>
            <trkpt lat="46.496600" lon="10.358090">
                <time>2017-07-15T14:50:09Z</time>
            </trkpt>
            <trkpt lat="46.496700" lon="10.358040">
                <time>2017-07-15T14:50:10Z</time>
            </trkpt>
            <trkpt lat="46.496770" lon="10.357950">
                <time>2017-07-15T14:50:11Z</time>
            </trkpt>
            <trkpt lat="46.496850" lon="10.357840">
                <time>2017-07-15T14:50:12Z</time>
            </trkpt>
            <trkpt lat="46.496940" lon="10.357790">
                <time>2017-07-15T14:50:13Z</time>
            </trkpt>
            <trkpt lat="46.497060" lon="10.357770">
                <time>2017-07-15T14:50:14Z</time>
            </trkpt>
            <trkpt lat="46.497200" lon="10.357780">
                <time>2017-07-15T14:50:15Z</time>
            </trkpt>
            <trkpt lat="46.497340" lon="10.357810">
                <time>2017-07-15T14:50:16Z</time>
            </trkpt>
            <trkpt lat="46.497500" lon="10.357820">
                <time>2017-07-15T14:50:17Z</time>
            </trkpt>
            <trkpt lat="46.497660" lon="10.357810">
                <time>2017-07-15T14:50:18Z</time>
            </trkpt>
            <trkpt lat="46.497800" lon="10.357800">
                <time>2017-07-15T14:50:19Z</time>
            </trkpt>
            <trkpt lat="46.497950" lon="10.357790">
                <time>2017-07-15T14:50:20Z</time>
            </trkpt>
            <trkpt lat="46.498080" lon="10.357780">
                <time>2017-07-15T14:50:21Z</time>
            </trkpt>
            <trkpt lat="46.498200" lon="10.357770">
                <time>2017-07-15T14:50:22Z</time>
            </trkpt>
            <trkpt lat="46.498330" lon="10.357760">
                <time>2017-07-15T14:50:23Z</time>
            </trkpt>
            <trkpt lat="46.498450" lon="10.357750">
                <time>2017-07-15T14:50:24Z</time>
            </trkpt>
            <trkpt lat="46.498580" lon="10.357740">
                <time>2017-07-15T14:50:25Z</time>
            </trkpt>
            <trkpt lat="46.498690" lon="10.357720">
                <time>2017-07-15T14:50:26Z</time>
            </trkpt>
            <trkpt lat="46.498810" lon="10.357710">
                <time>2017-07-15T14:50:27Z</time>
            </trkpt>
            <trkpt lat="46.498940" lon="10.357700">
                <time>2017-07-15T14:50:28Z</time>
            </trkpt>
            <trkpt lat="46.499050" lon="10.357670">
                <time>2017-07-15T14:50:29Z</time>
            </trkpt>
            <trkpt lat="46.499150" lon="10.357630">
                <time>2017-07-15T14:50:30Z</time>
            </trkpt>
            <trkpt lat="46.499260" lon="10.357550">
                <time>2017-07-15T14:50:31Z</time>
            </trkpt>
            <trkpt lat="46.499340" lon="10.357450">
                <time>2017-07-15T14:50:32Z</time>
            </trkpt>
            <trkpt lat="46.499440" lon="10.357320">
                <time>2017-07-15T14:50:33Z</time>
            </trkpt>
            <trkpt lat="46.499550" lon="10.357190">
                <time>2017-07-15T14:50:34Z</time>
            </trkpt>
            <trkpt lat="46.499660" lon="10.357080">
                <time>2017-07-15T14:50:35Z</time>
            </trkpt>
            <trkpt lat="46.499790" lon="10.356970">
                <time>2017-07-15T14:50:36Z</time>
            </trkpt>
            <trkpt lat="46.499910" lon="10.356890">
                <time>2017-07-15T14:50:37Z</time>
            </trkpt>
            <trkpt lat="46.500050" lon="10.356820">
                <time>2017-07-15T14:50:38Z</time>
            </trkpt>
            <trkpt lat="46.500190" lon="10.356770">
                <time>2017-07-15T14:50:39Z</time>
            </trkpt>
            <trkpt lat="46.500310" lon="10.356720">
                <time>2017-07-15T14:50:40Z</time>
            </trkpt>
            <trkpt lat="46.500440" lon="10.356690">
                <time>2017-07-15T14:50:41Z</time>
            </trkpt>
            <trkpt lat="46.500590" lon="10.356670">
                <time>2017-07-15T14:50:42Z</time>
            </trkpt>
            <trkpt lat="46.500730" lon="10.356670">
                <time>2017-07-15T14:50:43Z</time>
            </trkpt>
            <trkpt lat="46.500910" lon="10.356680">
                <time>2017-07-15T14:50:44Z</time>
            </trkpt>
            <trkpt lat="46.501060" lon="10.356710">
                <time>2017-07-15T14:50:45Z</time>
            </trkpt>
            <trkpt lat="46.501210" lon="10.356740">
                <time>2017-07-15T14:50:46Z</time>
            </trkpt>
            <trkpt lat="46.501380" lon="10.356770">
                <time>2017-07-15T14:50:47Z</time>
            </trkpt>
            <trkpt lat="46.501510" lon="10.356790">
                <time>2017-07-15T14:50:48Z</time>
            </trkpt>
            <trkpt lat="46.501650" lon="10.356800">
                <time>2017-07-15T14:50:49Z</time>
            </trkpt>
            <trkpt lat="46.501800" lon="10.356790">
                <time>2017-07-15T14:50:50Z</time>
            </trkpt>
            <trkpt lat="46.501940" lon="10.356760">
                <time>2017-07-15T14:50:51Z</time>
            </trkpt>
            <trkpt lat="46.502100" lon="10.356700">
                <time>2017-07-15T14:50:52Z</time>
            </trkpt>
            <trkpt lat="46.502230" lon="10.356620">
                <time>2017-07-15T14:50:53Z</time>
            </trkpt>
            <trkpt lat="46.502360" lon="10.356530">
                <time>2017-07-15T14:50:54Z</time>
            </trkpt>
            <trkpt lat="46.502480" lon="10.356440">
                <time>2017-07-15T14:50:55Z</time>
            </trkpt>
            <trkpt lat="46.502580" lon="10.356380">
                <time>2017-07-15T14:50:56Z</time>
            </trkpt>
            <trkpt lat="46.502700" lon="10.356350">
                <time>2017-07-15T14:50:57Z</time>
            </trkpt>
            <trkpt lat="46.502840" lon="10.356360">
                <time>2017-07-15T14:50:58Z</time>
            </trkpt>
            <trkpt lat="46.502960" lon="10.356400">
                <time>2017-07-15T14:50:59Z</time>
            </trkpt>
            <trkpt lat="46.503080" lon="10.356450">
                <time>2017-07-15T14:51:00Z</time>
            </trkpt>
            <trkpt lat="46.503170" lon="10.356520">
                <time>2017-07-15T14:51:01Z</time>
            </trkpt>
            <trkpt lat="46.503240" lon="10.356630">
                <time>2017-07-15T14:51:02Z</time>
            </trkpt>
            <trkpt lat="46.503290" lon="10.356790">
                <time>2017-07-15T14:51:03Z</time>
            </trkpt>
            <trkpt lat="46.503320" lon="10.356950">
                <time>2017-07-15T14:51:04Z</time>
            </trkpt>
            <trkpt lat="46.503370" lon="10.357130">
                <time>2017-07-15T14:51:05Z</time>
            </trkpt>
            <trkpt lat="46.503450" lon="10.357300">
                <time>2017-07-15T14:51:06Z</time>
            </trkpt>
            <trkpt lat="46.503520" lon="10.357460">
                <time>2017-07-15T14:51:07Z</time>
            </trkpt>
            <trkpt lat="46.503600" lon="10.357640">
                <time>2017-07-15T14:51:08Z</time>
            </trkpt>
            <trkpt lat="46.503680" lon="10.357790">
                <time>2017-07-15T14:51:09Z</time>
            </trkpt>
            <trkpt lat="46.503760" lon="10.357970">
                <time>2017-07-15T14:51:10Z</time>
            </trkpt>
            <trkpt lat="46.503850" lon="10.358150">
                <time>2017-07-15T14:51:11Z</time>
            </trkpt>
            <trkpt lat="46.503930" lon="10.358310">
                <time>2017-07-15T14:51:12Z</time>
            </trkpt>
            <trkpt lat="46.504010" lon="10.358470">
                <time>2017-07-15T14:51:13Z</time>
            </trkpt>
            <trkpt lat="46.504090" lon="10.358630">
                <time>2017-07-15T14:51:14Z</time>
            </trkpt>
            <trkpt lat="46.504180" lon="10.358790">
                <time>2017-07-15T14:51:15Z</time>
            </trkpt>
            <trkpt lat="46.504270" lon="10.358980">
                <time>2017-07-15T14:51:16Z</time>
            </trkpt>
            <trkpt lat="46.504360" lon="10.359160">
                <time>2017-07-15T14:51:17Z</time>
            </trkpt>
            <trkpt lat="46.504470" lon="10.359360">
                <time>2017-07-15T14:51:18Z</time>
            </trkpt>
            <trkpt lat="46.504580" lon="10.359560">
                <time>2017-07-15T14:51:19Z</time>
            </trkpt>
            <trkpt lat="46.504670" lon="10.359740">
                <time>2017-07-15T14:51:20Z</time>
            </trkpt>
            <trkpt lat="46.504780" lon="10.359930">
                <time>2017-07-15T14:51:21Z</time>
            </trkpt>
            <trkpt lat="46.504900" lon="10.360110">
                <time>2017-07-15T14:51:22Z</time>
            </trkpt>
            <trkpt lat="46.505000" lon="10.360250">
                <time>2017-07-15T14:51:23Z</time>
            </trkpt>
            <trkpt lat="46.505110" lon="10.360410">
                <time>2017-07-15T14:51:24Z</time>
            </trkpt>
            <trkpt lat="46.505210" lon="10.360550">
                <time>2017-07-15T14:51:25Z</time>
            </trkpt>
            <trkpt lat="46.505300" lon="10.360680">
                <time>2017-07-15T14:51:26Z</time>
            </trkpt>
            <trkpt lat="46.505380" lon="10.360800">
                <time>2017-07-15T14:51:27Z</time>
            </trkpt>
            <trkpt lat="46.505440" lon="10.360880">
                <time>2017-07-15T14:51:28Z</time>
            </trkpt>
            <trkpt lat="46.505490" lon="10.360960">
                <time>2017-07-15T14:51:29Z</time>
            </trkpt>
            <trkpt lat="46.505540" lon="10.361030">
                <time>2017-07-15T14:51:30Z</time>
            </trkpt>
            <trkpt lat="46.505580" lon="10.361080">
                <time>2017-07-15T14:51:31Z</time>
            </trkpt>
            <trkpt lat="46.505620" lon="10.361130">
                <time>2017-07-15T14:51:32Z</time>
            </trkpt>
            <trkpt lat="46.505650" lon="10.361170">
                <time>2017-07-15T14:51:33Z</time>
            </trkpt>
            <trkpt lat="46.505660" lon="10.361210">
                <time>2017-07-15T14:51:34Z</time>
            </trkpt>
            <trkpt lat="46.505650" lon="10.361250">
                <time>2017-07-15T14:51:35Z</time>
            </trkpt>
            <trkpt lat="46.505620" lon="10.361260">
                <time>2017-07-15T14:51:36Z</time>
            </trkpt>
            <trkpt lat="46.505570" lon="10.361220">
                <time>2017-07-15T14:51:37Z</time>
            </trkpt>
            <trkpt lat="46.505510" lon="10.361170">
                <time>2017-07-15T14:51:38Z</time>
            </trkpt>
            <trkpt lat="46.505440" lon="10.361080">
                <time>2017-07-15T14:51:39Z</time>
            </trkpt>
            <trkpt lat="46.505340" lon="10.360960">
                <time>2017-07-15T14:51:40Z</time>
            </trkpt>
            <trkpt lat="46.505250" lon="10.360830">
                <time>2017-07-15T14:51:41Z</time>
            </trkpt>
            <trkpt lat="46.505150" lon="10.360710">
                <time>2017-07-15T14:51:42Z</time>
            </trkpt>
            <trkpt lat="46.505050" lon="10.360580">
                <time>2017-07-15T14:51:43Z</time>
            </trkpt>
            <trkpt lat="46.504950" lon="10.360480">
                <time>2017-07-15T14:51:44Z</time>
            </trkpt>
            <trkpt lat="46.504850" lon="10.360360">
                <time>2017-07-15T14:51:45Z</time>
            </trkpt>
            <trkpt lat="46.504770" lon="10.360270">
                <time>2017-07-15T14:51:46Z</time>
            </trkpt>
            <trkpt lat="46.504700" lon="10.360190">
                <time>2017-07-15T14:51:47Z</time>
            </trkpt>
            <trkpt lat="46.504660" lon="10.360130">
                <time>2017-07-15T14:51:48Z</time>
            </trkpt>
            <trkpt lat="46.504620" lon="10.360100">
                <time>2017-07-15T14:51:49Z</time>
            </trkpt>
            <trkpt lat="46.504570" lon="10.360110">
                <time>2017-07-15T14:51:50Z</time>
            </trkpt>
            <trkpt lat="46.504520" lon="10.360160">
                <time>2017-07-15T14:51:51Z</time>
            </trkpt>
            <trkpt lat="46.504510" lon="10.360230">
                <time>2017-07-15T14:51:52Z</time>
            </trkpt>
            <trkpt lat="46.504540" lon="10.360310">
                <time>2017-07-15T14:51:53Z</time>
            </trkpt>
            <trkpt lat="46.504580" lon="10.360360">
                <time>2017-07-15T14:51:54Z</time>
            </trkpt>
            <trkpt lat="46.504620" lon="10.360390">
                <time>2017-07-15T14:51:55Z</time>
            </trkpt>
            <trkpt lat="46.504640" lon="10.360430">
                <time>2017-07-15T14:51:56Z</time>
            </trkpt>
            <trkpt lat="46.504650" lon="10.360450">
                <time>2017-07-15T14:51:57Z</time>
            </trkpt>
            <trkpt lat="46.504670" lon="10.360470">
                <time>2017-07-15T14:51:58Z</time>
            </trkpt>
            <trkpt lat="46.504690" lon="10.360500">
                <time>2017-07-15T14:51:59Z</time>
            </trkpt>
            <trkpt lat="46.504710" lon="10.360530">
                <time>2017-07-15T14:52:00Z</time>
            </trkpt>
            <trkpt lat="46.504730" lon="10.360550">
                <time>2017-07-15T14:52:01Z</time>
            </trkpt>
            <trkpt lat="46.504750" lon="10.360590">
                <time>2017-07-15T14:52:02Z</time>
            </trkpt>
            <trkpt lat="46.504780" lon="10.360620">
                <time>2017-07-15T14:52:03Z</time>
            </trkpt>
            <trkpt lat="46.504820" lon="10.360670">
                <time>2017-07-15T14:52:04Z</time>
            </trkpt>
            <trkpt lat="46.504860" lon="10.360730">
                <time>2017-07-15T14:52:05Z</time>
            </trkpt>
            <trkpt lat="46.504920" lon="10.360830">
                <time>2017-07-15T14:52:06Z</time>
            </trkpt>
            <trkpt lat="46.505000" lon="10.360960">
                <time>2017-07-15T14:52:07Z</time>
            </trkpt>
            <trkpt lat="46.505080" lon="10.361110">
                <time>2017-07-15T14:52:08Z</time>
            </trkpt>
            <trkpt lat="46.505170" lon="10.361290">
                <time>2017-07-15T14:52:09Z</time>
            </trkpt>
            <trkpt lat="46.505270" lon="10.361490">
                <time>2017-07-15T14:52:10Z</time>
            </trkpt>
            <trkpt lat="46.505360" lon="10.361660">
                <time>2017-07-15T14:52:11Z</time>
            </trkpt>
            <trkpt lat="46.505440" lon="10.361850">
                <time>2017-07-15T14:52:12Z</time>
            </trkpt>
            <trkpt lat="46.505520" lon="10.362010">
                <time>2017-07-15T14:52:13Z</time>
            </trkpt>
            <trkpt lat="46.505600" lon="10.362210">
                <time>2017-07-15T14:52:14Z</time>
            </trkpt>
            <trkpt lat="46.505680" lon="10.362420">
                <time>2017-07-15T14:52:15Z</time>
            </trkpt>
            <trkpt lat="46.505750" lon="10.362620">
                <time>2017-07-15T14:52:16Z</time>
            </trkpt>
            <trkpt lat="46.505820" lon="10.362830">
                <time>2017-07-15T14:52:17Z</time>
            </trkpt>
            <trkpt lat="46.505890" lon="10.363040">
                <time>2017-07-15T14:52:18Z</time>
            </trkpt>
            <trkpt lat="46.505960" lon="10.363240">
                <time>2017-07-15T14:52:19Z</time>
            </trkpt>
            <trkpt lat="46.506030" lon="10.363460">
                <time>2017-07-15T14:52:20Z</time>
            </trkpt>
            <trkpt lat="46.506100" lon="10.363650">
                <time>2017-07-15T14:52:21Z</time>
            </trkpt>
            <trkpt lat="46.506170" lon="10.363850">
                <time>2017-07-15T14:52:22Z</time>
            </trkpt>
            <trkpt lat="46.506240" lon="10.364060">
                <time>2017-07-15T14:52:23Z</time>
            </trkpt>
            <trkpt lat="46.506300" lon="10.364250">
                <time>2017-07-15T14:52:24Z</time>
            </trkpt>
            <trkpt lat="46.506380" lon="10.364440">
                <time>2017-07-15T14:52:25Z</time>
            </trkpt>
            <trkpt lat="46.506470" lon="10.364620">
                <time>2017-07-15T14:52:26Z</time>
            </trkpt>
            <trkpt lat="46.506570" lon="10.364780">
                <time>2017-07-15T14:52:27Z</time>
            </trkpt>
            <trkpt lat="46.506680" lon="10.364950">
                <time>2017-07-15T14:52:28Z</time>
            </trkpt>
            <trkpt lat="46.506770" lon="10.365130">
                <time>2017-07-15T14:52:29Z</time>
            </trkpt>
            <trkpt lat="46.506870" lon="10.365330">
                <time>2017-07-15T14:52:30Z</time>
            </trkpt>
            <trkpt lat="46.506970" lon="10.365540">
                <time>2017-07-15T14:52:31Z</time>
            </trkpt>
            <trkpt lat="46.507060" lon="10.365730">
                <time>2017-07-15T14:52:32Z</time>
            </trkpt>
            <trkpt lat="46.507150" lon="10.365920">
                <time>2017-07-15T14:52:33Z</time>
            </trkpt>
            <trkpt lat="46.507250" lon="10.366100">
                <time>2017-07-15T14:52:34Z</time>
            </trkpt>
            <trkpt lat="46.507340" lon="10.366270">
                <time>2017-07-15T14:52:35Z</time>
            </trkpt>
            <trkpt lat="46.507430" lon="10.366430">
                <time>2017-07-15T14:52:36Z</time>
            </trkpt>
            <trkpt lat="46.507500" lon="10.366550">
                <time>2017-07-15T14:52:37Z</time>
            </trkpt>
            <trkpt lat="46.507580" lon="10.366660">
                <time>2017-07-15T14:52:38Z</time>
            </trkpt>
            <trkpt lat="46.507650" lon="10.366750">
                <time>2017-07-15T14:52:39Z</time>
            </trkpt>
            <trkpt lat="46.507700" lon="10.366800">
                <time>2017-07-15T14:52:40Z</time>
            </trkpt>
            <trkpt lat="46.507720" lon="10.366870">
                <time>2017-07-15T14:52:41Z</time>
            </trkpt>
            <trkpt lat="46.507700" lon="10.366930">
                <time>2017-07-15T14:52:42Z</time>
            </trkpt>
            <trkpt lat="46.507670" lon="10.366950">
                <time>2017-07-15T14:52:43Z</time>
            </trkpt>
            <trkpt lat="46.507610" lon="10.366920">
                <time>2017-07-15T14:52:44Z</time>
            </trkpt>
            <trkpt lat="46.507560" lon="10.366830">
                <time>2017-07-15T14:52:45Z</time>
            </trkpt>
            <trkpt lat="46.507480" lon="10.366710">
                <time>2017-07-15T14:52:46Z</time>
            </trkpt>
            <trkpt lat="46.507370" lon="10.366570">
                <time>2017-07-15T14:52:47Z</time>
            </trkpt>
            <trkpt lat="46.507270" lon="10.366430">
                <time>2017-07-15T14:52:48Z</time>
            </trkpt>
            <trkpt lat="46.507160" lon="10.366280">
                <time>2017-07-15T14:52:49Z</time>
            </trkpt>
            <trkpt lat="46.507040" lon="10.366120">
                <time>2017-07-15T14:52:50Z</time>
            </trkpt>
            <trkpt lat="46.506940" lon="10.365970">
                <time>2017-07-15T14:52:51Z</time>
            </trkpt>
            <trkpt lat="46.506870" lon="10.365820">
                <time>2017-07-15T14:52:52Z</time>
            </trkpt>
            <trkpt lat="46.506810" lon="10.365740">
                <time>2017-07-15T14:52:53Z</time>
            </trkpt>
            <trkpt lat="46.506750" lon="10.365690">
                <time>2017-07-15T14:52:54Z</time>
            </trkpt>
            <trkpt lat="46.506690" lon="10.365710">
                <time>2017-07-15T14:52:55Z</time>
            </trkpt>
            <trkpt lat="46.506670" lon="10.365770">
                <time>2017-07-15T14:52:56Z</time>
            </trkpt>
            <trkpt lat="46.506700" lon="10.365860">
                <time>2017-07-15T14:52:57Z</time>
            </trkpt>
            <trkpt lat="46.506760" lon="10.365950">
                <time>2017-07-15T14:52:58Z</time>
            </trkpt>
            <trkpt lat="46.506830" lon="10.366060">
                <time>2017-07-15T14:52:59Z</time>
            </trkpt>
            <trkpt lat="46.506930" lon="10.366230">
                <time>2017-07-15T14:53:00Z</time>
            </trkpt>
            <trkpt lat="46.507010" lon="10.366390">
                <time>2017-07-15T14:53:01Z</time>
            </trkpt>
            <trkpt lat="46.507100" lon="10.366580">
                <time>2017-07-15T14:53:02Z</time>
            </trkpt>
            <trkpt lat="46.507210" lon="10.366790">
                <time>2017-07-15T14:53:03Z</time>
            </trkpt>
            <trkpt lat="46.507300" lon="10.366970">
                <time>2017-07-15T14:53:04Z</time>
            </trkpt>
            <trkpt lat="46.507390" lon="10.367170">
                <time>2017-07-15T14:53:05Z</time>
            </trkpt>
            <trkpt lat="46.507480" lon="10.367350">
                <time>2017-07-15T14:53:06Z</time>
            </trkpt>
            <trkpt lat="46.507550" lon="10.367520">
                <time>2017-07-15T14:53:07Z</time>
            </trkpt>
            <trkpt lat="46.507600" lon="10.367700">
                <time>2017-07-15T14:53:08Z</time>
            </trkpt>
            <trkpt lat="46.507610" lon="10.367870">
                <time>2017-07-15T14:53:09Z</time>
            </trkpt>
            <trkpt lat="46.507610" lon="10.368080">
                <time>2017-07-15T14:53:10Z</time>
            </trkpt>
            <trkpt lat="46.507600" lon="10.368310">
                <time>2017-07-15T14:53:11Z</time>
            </trkpt>
            <trkpt lat="46.507600" lon="10.368510">
                <time>2017-07-15T14:53:12Z</time>
            </trkpt>
            <trkpt lat="46.507630" lon="10.368710">
                <time>2017-07-15T14:53:13Z</time>
            </trkpt>
            <trkpt lat="46.507690" lon="10.368930">
                <time>2017-07-15T14:53:14Z</time>
            </trkpt>
            <trkpt lat="46.507750" lon="10.369130">
                <time>2017-07-15T14:53:15Z</time>
            </trkpt>
            <trkpt lat="46.507820" lon="10.369360">
                <time>2017-07-15T14:53:16Z</time>
            </trkpt>
            <trkpt lat="46.507880" lon="10.369530">
                <time>2017-07-15T14:53:17Z</time>
            </trkpt>
            <trkpt lat="46.507930" lon="10.369690">
                <time>2017-07-15T14:53:18Z</time>
            </trkpt>
            <trkpt lat="46.507960" lon="10.369840">
                <time>2017-07-15T14:53:19Z</time>
            </trkpt>
            <trkpt lat="46.507970" lon="10.369960">
                <time>2017-07-15T14:53:20Z</time>
            </trkpt>
            <trkpt lat="46.507990" lon="10.370090">
                <time>2017-07-15T14:53:21Z</time>
            </trkpt>
            <trkpt lat="46.508000" lon="10.370230">
                <time>2017-07-15T14:53:22Z</time>
            </trkpt>
            <trkpt lat="46.508740" lon="10.371340">
                <time>2017-07-15T14:53:34Z</time>
            </trkpt>
            <trkpt lat="46.508880" lon="10.371400">
                <time>2017-07-15T14:53:35Z</time>
            </trkpt>
            <trkpt lat="46.508980" lon="10.371500">
                <time>2017-07-15T14:53:36Z</time>
            </trkpt>
            <trkpt lat="46.509090" lon="10.371640">
                <time>2017-07-15T14:53:37Z</time>
            </trkpt>
            <trkpt lat="46.509190" lon="10.371790">
                <time>2017-07-15T14:53:38Z</time>
            </trkpt>
            <trkpt lat="46.509290" lon="10.371940">
                <time>2017-07-15T14:53:39Z</time>
            </trkpt>
            <trkpt lat="46.509390" lon="10.372080">
                <time>2017-07-15T14:53:40Z</time>
            </trkpt>
            <trkpt lat="46.509470" lon="10.372210">
                <time>2017-07-15T14:53:41Z</time>
            </trkpt>
            <trkpt lat="46.509550" lon="10.372330">
                <time>2017-07-15T14:53:42Z</time>
            </trkpt>
            <trkpt lat="46.509620" lon="10.372460">
                <time>2017-07-15T14:53:43Z</time>
            </trkpt>
            <trkpt lat="46.509650" lon="10.372590">
                <time>2017-07-15T14:53:44Z</time>
            </trkpt>
            <trkpt lat="46.509670" lon="10.372760">
                <time>2017-07-15T14:53:45Z</time>
            </trkpt>
            <trkpt lat="46.509670" lon="10.372960">
                <time>2017-07-15T14:53:46Z</time>
            </trkpt>
            <trkpt lat="46.509670" lon="10.373150">
                <time>2017-07-15T14:53:47Z</time>
            </trkpt>
            <trkpt lat="46.509680" lon="10.373370">
                <time>2017-07-15T14:53:48Z</time>
            </trkpt>
            <trkpt lat="46.509690" lon="10.373580">
                <time>2017-07-15T14:53:49Z</time>
            </trkpt>
            <trkpt lat="46.509710" lon="10.373790">
                <time>2017-07-15T14:53:50Z</time>
            </trkpt>
            <trkpt lat="46.509750" lon="10.374030">
                <time>2017-07-15T14:53:51Z</time>
            </trkpt>
            <trkpt lat="46.509820" lon="10.374250">
                <time>2017-07-15T14:53:52Z</time>
            </trkpt>
            <trkpt lat="46.509900" lon="10.374480">
                <time>2017-07-15T14:53:53Z</time>
            </trkpt>
            <trkpt lat="46.510000" lon="10.374690">
                <time>2017-07-15T14:53:54Z</time>
            </trkpt>
            <trkpt lat="46.510110" lon="10.374910">
                <time>2017-07-15T14:53:55Z</time>
            </trkpt>
            <trkpt lat="46.510210" lon="10.375110">
                <time>2017-07-15T14:53:56Z</time>
            </trkpt>
            <trkpt lat="46.510290" lon="10.375280">
                <time>2017-07-15T14:53:57Z</time>
            </trkpt>
            <trkpt lat="46.510360" lon="10.375470">
                <time>2017-07-15T14:53:58Z</time>
            </trkpt>
            <trkpt lat="46.510410" lon="10.375680">
                <time>2017-07-15T14:53:59Z</time>
            </trkpt>
            <trkpt lat="46.510440" lon="10.375880">
                <time>2017-07-15T14:54:00Z</time>
            </trkpt>
            <trkpt lat="46.510460" lon="10.376080">
                <time>2017-07-15T14:54:01Z</time>
            </trkpt>
            <trkpt lat="46.510500" lon="10.376260">
                <time>2017-07-15T14:54:02Z</time>
            </trkpt>
            <trkpt lat="46.510530" lon="10.376380">
                <time>2017-07-15T14:54:03Z</time>
            </trkpt>
            <trkpt lat="46.510550" lon="10.376480">
                <time>2017-07-15T14:54:04Z</time>
            </trkpt>
            <trkpt lat="46.510530" lon="10.376550">
                <time>2017-07-15T14:54:05Z</time>
            </trkpt>
            <trkpt lat="46.510490" lon="10.376560">
                <time>2017-07-15T14:54:06Z</time>
            </trkpt>
            <trkpt lat="46.510450" lon="10.376520">
                <time>2017-07-15T14:54:07Z</time>
            </trkpt>
            <trkpt lat="46.510410" lon="10.376420">
                <time>2017-07-15T14:54:08Z</time>
            </trkpt>
            <trkpt lat="46.510380" lon="10.376290">
                <time>2017-07-15T14:54:09Z</time>
            </trkpt>
            <trkpt lat="46.510340" lon="10.376120">
                <time>2017-07-15T14:54:10Z</time>
            </trkpt>
            <trkpt lat="46.510280" lon="10.375930">
                <time>2017-07-15T14:54:11Z</time>
            </trkpt>
            <trkpt lat="46.510210" lon="10.375730">
                <time>2017-07-15T14:54:12Z</time>
            </trkpt>
            <trkpt lat="46.510150" lon="10.375590">
                <time>2017-07-15T14:54:13Z</time>
            </trkpt>
            <trkpt lat="46.510090" lon="10.375480">
                <time>2017-07-15T14:54:14Z</time>
            </trkpt>
            <trkpt lat="46.510030" lon="10.375390">
                <time>2017-07-15T14:54:15Z</time>
            </trkpt>
            <trkpt lat="46.509970" lon="10.375370">
                <time>2017-07-15T14:54:16Z</time>
            </trkpt>
            <trkpt lat="46.509940" lon="10.375460">
                <time>2017-07-15T14:54:17Z</time>
            </trkpt>
            <trkpt lat="46.509990" lon="10.375590">
                <time>2017-07-15T14:54:18Z</time>
            </trkpt>
            <trkpt lat="46.510050" lon="10.375720">
                <time>2017-07-15T14:54:19Z</time>
            </trkpt>
            <trkpt lat="46.510110" lon="10.375860">
                <time>2017-07-15T14:54:20Z</time>
            </trkpt>
            <trkpt lat="46.510160" lon="10.376030">
                <time>2017-07-15T14:54:21Z</time>
            </trkpt>
            <trkpt lat="46.510210" lon="10.376210">
                <time>2017-07-15T14:54:22Z</time>
            </trkpt>
            <trkpt lat="46.510260" lon="10.376370">
                <time>2017-07-15T14:54:23Z</time>
            </trkpt>
            <trkpt lat="46.510290" lon="10.376480">
                <time>2017-07-15T14:54:24Z</time>
            </trkpt>
            <trkpt lat="46.510300" lon="10.376570">
                <time>2017-07-15T14:54:25Z</time>
            </trkpt>
            <trkpt lat="46.510290" lon="10.376640">
                <time>2017-07-15T14:54:26Z</time>
            </trkpt>
            <trkpt lat="46.510250" lon="10.376660">
                <time>2017-07-15T14:54:27Z</time>
            </trkpt>
            <trkpt lat="46.510220" lon="10.376570">
                <time>2017-07-15T14:54:28Z</time>
            </trkpt>
            <trkpt lat="46.510190" lon="10.376470">
                <time>2017-07-15T14:54:29Z</time>
            </trkpt>
            <trkpt lat="46.510150" lon="10.376330">
                <time>2017-07-15T14:54:30Z</time>
            </trkpt>
            <trkpt lat="46.510090" lon="10.376160">
                <time>2017-07-15T14:54:31Z</time>
            </trkpt>
            <trkpt lat="46.510010" lon="10.376020">
                <time>2017-07-15T14:54:32Z</time>
            </trkpt>
            <trkpt lat="46.509910" lon="10.375870">
                <time>2017-07-15T14:54:33Z</time>
            </trkpt>
            <trkpt lat="46.509820" lon="10.375730">
                <time>2017-07-15T14:54:34Z</time>
            </trkpt>
            <trkpt lat="46.509770" lon="10.375610">
                <time>2017-07-15T14:54:35Z</time>
            </trkpt>
            <trkpt lat="46.509730" lon="10.375510">
                <time>2017-07-15T14:54:36Z</time>
            </trkpt>
            <trkpt lat="46.509690" lon="10.375460">
                <time>2017-07-15T14:54:37Z</time>
            </trkpt>
            <trkpt lat="46.509640" lon="10.375450">
                <time>2017-07-15T14:54:38Z</time>
            </trkpt>
            <trkpt lat="46.509600" lon="10.375480">
                <time>2017-07-15T14:54:39Z</time>
            </trkpt>
            <trkpt lat="46.509570" lon="10.375540">
                <time>2017-07-15T14:54:40Z</time>
            </trkpt>
            <trkpt lat="46.509610" lon="10.375640">
                <time>2017-07-15T14:54:41Z</time>
            </trkpt>
            <trkpt lat="46.509660" lon="10.375760">
                <time>2017-07-15T14:54:42Z</time>
            </trkpt>
            <trkpt lat="46.509740" lon="10.375900">
                <time>2017-07-15T14:54:43Z</time>
            </trkpt>
            <trkpt lat="46.509810" lon="10.376090">
                <time>2017-07-15T14:54:44Z</time>
            </trkpt>
            <trkpt lat="46.509880" lon="10.376280">
                <time>2017-07-15T14:54:45Z</time>
            </trkpt>
            <trkpt lat="46.509950" lon="10.376480">
                <time>2017-07-15T14:54:46Z</time>
            </trkpt>
            <trkpt lat="46.510000" lon="10.376680">
                <time>2017-07-15T14:54:47Z</time>
            </trkpt>
            <trkpt lat="46.510010" lon="10.376850">
                <time>2017-07-15T14:54:48Z</time>
            </trkpt>
            <trkpt lat="46.510010" lon="10.377040">
                <time>2017-07-15T14:54:49Z</time>
            </trkpt>
            <trkpt lat="46.510030" lon="10.377230">
                <time>2017-07-15T14:54:50Z</time>
            </trkpt>
            <trkpt lat="46.510050" lon="10.377410">
                <time>2017-07-15T14:54:51Z</time>
            </trkpt>
            <trkpt lat="46.510070" lon="10.377620">
                <time>2017-07-15T14:54:52Z</time>
            </trkpt>
            <trkpt lat="46.510080" lon="10.377800">
                <time>2017-07-15T14:54:53Z</time>
            </trkpt>
            <trkpt lat="46.510100" lon="10.378000">
                <time>2017-07-15T14:54:54Z</time>
            </trkpt>
            <trkpt lat="46.510120" lon="10.378220">
                <time>2017-07-15T14:54:55Z</time>
            </trkpt>
            <trkpt lat="46.510130" lon="10.378690">
                <time>2017-07-15T14:54:58Z</time>
            </trkpt>
            <trkpt lat="46.510110" lon="10.378790">
                <time>2017-07-15T14:54:59Z</time>
            </trkpt>
            <trkpt lat="46.509540" lon="10.380410">
                <time>2017-07-15T14:55:10Z</time>
            </trkpt>
            <trkpt lat="46.509540" lon="10.380640">
                <time>2017-07-15T14:55:11Z</time>
            </trkpt>
            <trkpt lat="46.509520" lon="10.380820">
                <time>2017-07-15T14:55:12Z</time>
            </trkpt>
            <trkpt lat="46.509510" lon="10.381040">
                <time>2017-07-15T14:55:13Z</time>
            </trkpt>
            <trkpt lat="46.509490" lon="10.381260">
                <time>2017-07-15T14:55:14Z</time>
            </trkpt>
            <trkpt lat="46.509470" lon="10.381490">
                <time>2017-07-15T14:55:15Z</time>
            </trkpt>
            <trkpt lat="46.509450" lon="10.381730">
                <time>2017-07-15T14:55:16Z</time>
            </trkpt>
            <trkpt lat="46.509430" lon="10.381920">
                <time>2017-07-15T14:55:17Z</time>
            </trkpt>
            <trkpt lat="46.509390" lon="10.382130">
                <time>2017-07-15T14:55:18Z</time>
            </trkpt>
            <trkpt lat="46.509340" lon="10.382350">
                <time>2017-07-15T14:55:19Z</time>
            </trkpt>
            <trkpt lat="46.509280" lon="10.382530">
                <time>2017-07-15T14:55:20Z</time>
            </trkpt>
            <trkpt lat="46.509220" lon="10.382740">
                <time>2017-07-15T14:55:21Z</time>
            </trkpt>
            <trkpt lat="46.509170" lon="10.382950">
                <time>2017-07-15T14:55:22Z</time>
            </trkpt>
            <trkpt lat="46.509120" lon="10.383120">
                <time>2017-07-15T14:55:23Z</time>
            </trkpt>
            <trkpt lat="46.509070" lon="10.383330">
                <time>2017-07-15T14:55:24Z</time>
            </trkpt>
            <trkpt lat="46.509160" lon="10.384720">
                <time>2017-07-15T14:55:34Z</time>
            </trkpt>
            <trkpt lat="46.509160" lon="10.384940">
                <time>2017-07-15T14:55:35Z</time>
            </trkpt>
            <trkpt lat="46.509180" lon="10.385140">
                <time>2017-07-15T14:55:36Z</time>
            </trkpt>
            <trkpt lat="46.509190" lon="10.385340">
                <time>2017-07-15T14:55:37Z</time>
            </trkpt>
            <trkpt lat="46.509140" lon="10.385540">
                <time>2017-07-15T14:55:38Z</time>
            </trkpt>
            <trkpt lat="46.509120" lon="10.385710">
                <time>2017-07-15T14:55:39Z</time>
            </trkpt>
            <trkpt lat="46.509070" lon="10.385900">
                <time>2017-07-15T14:55:40Z</time>
            </trkpt>
            <trkpt lat="46.509040" lon="10.386070">
                <time>2017-07-15T14:55:41Z</time>
            </trkpt>
            <trkpt lat="46.509000" lon="10.386240">
                <time>2017-07-15T14:55:42Z</time>
            </trkpt>
            <trkpt lat="46.509120" lon="10.387690">
                <time>2017-07-15T14:55:50Z</time>
            </trkpt>
            <trkpt lat="46.509270" lon="10.387880">
                <time>2017-07-15T14:55:51Z</time>
            </trkpt>
            <trkpt lat="46.509350" lon="10.388090">
                <time>2017-07-15T14:55:52Z</time>
            </trkpt>
            <trkpt lat="46.509410" lon="10.388310">
                <time>2017-07-15T14:55:53Z</time>
            </trkpt>
            <trkpt lat="46.509470" lon="10.388540">
                <time>2017-07-15T14:55:54Z</time>
            </trkpt>
            <trkpt lat="46.509510" lon="10.388740">
                <time>2017-07-15T14:55:55Z</time>
            </trkpt>
            <trkpt lat="46.509540" lon="10.388970">
                <time>2017-07-15T14:55:56Z</time>
            </trkpt>
            <trkpt lat="46.509570" lon="10.389180">
                <time>2017-07-15T14:55:57Z</time>
            </trkpt>
            <trkpt lat="46.509600" lon="10.389380">
                <time>2017-07-15T14:55:58Z</time>
            </trkpt>
            <trkpt lat="46.509610" lon="10.389570">
                <time>2017-07-15T14:55:59Z</time>
            </trkpt>
            <trkpt lat="46.509620" lon="10.389720">
                <time>2017-07-15T14:56:00Z</time>
            </trkpt>
            <trkpt lat="46.509630" lon="10.389870">
                <time>2017-07-15T14:56:01Z</time>
            </trkpt>
            <trkpt lat="46.509620" lon="10.390010">
                <time>2017-07-15T14:56:02Z</time>
            </trkpt>
            <trkpt lat="46.509590" lon="10.390140">
                <time>2017-07-15T14:56:03Z</time>
            </trkpt>
            <trkpt lat="46.509550" lon="10.390300">
                <time>2017-07-15T14:56:04Z</time>
            </trkpt>
            <trkpt lat="46.509510" lon="10.390430">
                <time>2017-07-15T14:56:05Z</time>
            </trkpt>
            <trkpt lat="46.509730" lon="10.391840">
                <time>2017-07-15T14:56:15Z</time>
            </trkpt>
            <trkpt lat="46.509800" lon="10.392000">
                <time>2017-07-15T14:56:16Z</time>
            </trkpt>
            <trkpt lat="46.509830" lon="10.392200">
                <time>2017-07-15T14:56:17Z</time>
            </trkpt>
            <trkpt lat="46.509860" lon="10.392430">
                <time>2017-07-15T14:56:18Z</time>
            </trkpt>
            <trkpt lat="46.509920" lon="10.392650">
                <time>2017-07-15T14:56:19Z</time>
            </trkpt>
            <trkpt lat="46.509990" lon="10.392890">
                <time>2017-07-15T14:56:20Z</time>
            </trkpt>
            <trkpt lat="46.510060" lon="10.393090">
                <time>2017-07-15T14:56:21Z</time>
            </trkpt>
            <trkpt lat="46.510130" lon="10.393320">
                <time>2017-07-15T14:56:22Z</time>
            </trkpt>
            <trkpt lat="46.510200" lon="10.393550">
                <time>2017-07-15T14:56:23Z</time>
            </trkpt>
            <trkpt lat="46.510270" lon="10.393750">
                <time>2017-07-15T14:56:24Z</time>
            </trkpt>
            <trkpt lat="46.510350" lon="10.393950">
                <time>2017-07-15T14:56:25Z</time>
            </trkpt>
            <trkpt lat="46.510430" lon="10.394150">
                <time>2017-07-15T14:56:26Z</time>
            </trkpt>
            <trkpt lat="46.510490" lon="10.394320">
                <time>2017-07-15T14:56:27Z</time>
            </trkpt>
            <trkpt lat="46.510540" lon="10.394540">
                <time>2017-07-15T14:56:28Z</time>
            </trkpt>
            <trkpt lat="46.510640" lon="10.394960">
                <time>2017-07-15T14:56:30Z</time>
            </trkpt>
            <trkpt lat="46.510620" lon="10.395220">
                <time>2017-07-15T14:56:31Z</time>
            </trkpt>
            <trkpt lat="46.510640" lon="10.395470">
                <time>2017-07-15T14:56:32Z</time>
            </trkpt>
            <trkpt lat="46.510660" lon="10.395690">
                <time>2017-07-15T14:56:33Z</time>
            </trkpt>
            <trkpt lat="46.510680" lon="10.395900">
                <time>2017-07-15T14:56:34Z</time>
            </trkpt>
            <trkpt lat="46.510730" lon="10.396070">
                <time>2017-07-15T14:56:35Z</time>
            </trkpt>
            <trkpt lat="46.510750" lon="10.396250">
                <time>2017-07-15T14:56:36Z</time>
            </trkpt>
            <trkpt lat="46.510820" lon="10.396370">
                <time>2017-07-15T14:56:37Z</time>
            </trkpt>
            <trkpt lat="46.510810" lon="10.396480">
                <time>2017-07-15T14:56:38Z</time>
            </trkpt>
            <trkpt lat="46.511040" lon="10.396600">
                <time>2017-07-15T14:56:39Z</time>
            </trkpt>
            <trkpt lat="46.511150" lon="10.396660">
                <time>2017-07-15T14:56:40Z</time>
            </trkpt>
            <trkpt lat="46.511270" lon="10.396760">
                <time>2017-07-15T14:56:41Z</time>
            </trkpt>
            <trkpt lat="46.511370" lon="10.396900">
                <time>2017-07-15T14:56:42Z</time>
            </trkpt>
            <trkpt lat="46.511450" lon="10.397030">
                <time>2017-07-15T14:56:43Z</time>
            </trkpt>
            <trkpt lat="46.511530" lon="10.397220">
                <time>2017-07-15T14:56:44Z</time>
            </trkpt>
            <trkpt lat="46.511590" lon="10.397400">
                <time>2017-07-15T14:56:45Z</time>
            </trkpt>
            <trkpt lat="46.511680" lon="10.397600">
                <time>2017-07-15T14:56:46Z</time>
            </trkpt>
            <trkpt lat="46.511770" lon="10.397810">
                <time>2017-07-15T14:56:47Z</time>
            </trkpt>
            <trkpt lat="46.511860" lon="10.398000">
                <time>2017-07-15T14:56:48Z</time>
            </trkpt>
            <trkpt lat="46.511950" lon="10.398170">
                <time>2017-07-15T14:56:49Z</time>
            </trkpt>
            <trkpt lat="46.512060" lon="10.398300">
                <time>2017-07-15T14:56:50Z</time>
            </trkpt>
            <trkpt lat="46.512180" lon="10.398430">
                <time>2017-07-15T14:56:51Z</time>
            </trkpt>
            <trkpt lat="46.512310" lon="10.398580">
                <time>2017-07-15T14:56:52Z</time>
            </trkpt>
            <trkpt lat="46.512420" lon="10.398740">
                <time>2017-07-15T14:56:53Z</time>
            </trkpt>
            <trkpt lat="46.512530" lon="10.398940">
                <time>2017-07-15T14:56:54Z</time>
            </trkpt>
            <trkpt lat="46.512630" lon="10.399170">
                <time>2017-07-15T14:56:55Z</time>
            </trkpt>
            <trkpt lat="46.512720" lon="10.399380">
                <time>2017-07-15T14:56:56Z</time>
            </trkpt>
            <trkpt lat="46.512820" lon="10.399600">
                <time>2017-07-15T14:56:57Z</time>
            </trkpt>
            <trkpt lat="46.512920" lon="10.399840">
                <time>2017-07-15T14:56:58Z</time>
            </trkpt>
            <trkpt lat="46.513000" lon="10.400040">
                <time>2017-07-15T14:56:59Z</time>
            </trkpt>
            <trkpt lat="46.513090" lon="10.400280">
                <time>2017-07-15T14:57:00Z</time>
            </trkpt>
            <trkpt lat="46.513150" lon="10.400510">
                <time>2017-07-15T14:57:01Z</time>
            </trkpt>
            <trkpt lat="46.513210" lon="10.400760">
                <time>2017-07-15T14:57:02Z</time>
            </trkpt>
            <trkpt lat="46.513280" lon="10.401000">
                <time>2017-07-15T14:57:03Z</time>
            </trkpt>
            <trkpt lat="46.513350" lon="10.401190">
                <time>2017-07-15T14:57:04Z</time>
            </trkpt>
            <trkpt lat="46.513470" lon="10.401380">
                <time>2017-07-15T14:57:05Z</time>
            </trkpt>
            <trkpt lat="46.513600" lon="10.401560">
                <time>2017-07-15T14:57:06Z</time>
            </trkpt>
            <trkpt lat="46.513730" lon="10.401730">
                <time>2017-07-15T14:57:07Z</time>
            </trkpt>
            <trkpt lat="46.513870" lon="10.401900">
                <time>2017-07-15T14:57:08Z</time>
            </trkpt>
            <trkpt lat="46.513980" lon="10.402050">
                <time>2017-07-15T14:57:09Z</time>
            </trkpt>
            <trkpt lat="46.514090" lon="10.402210">
                <time>2017-07-15T14:57:10Z</time>
            </trkpt>
            <trkpt lat="46.514180" lon="10.402350">
                <time>2017-07-15T14:57:11Z</time>
            </trkpt>
            <trkpt lat="46.514250" lon="10.402440">
                <time>2017-07-15T14:57:12Z</time>
            </trkpt>
            <trkpt lat="46.514330" lon="10.402530">
                <time>2017-07-15T14:57:13Z</time>
            </trkpt>
            <trkpt lat="46.514410" lon="10.402610">
                <time>2017-07-15T14:57:14Z</time>
            </trkpt>
            <trkpt lat="46.514460" lon="10.402670">
                <time>2017-07-15T14:57:15Z</time>
            </trkpt>
            <trkpt lat="46.514480" lon="10.402750">
                <time>2017-07-15T14:57:16Z</time>
            </trkpt>
            <trkpt lat="46.514470" lon="10.402820">
                <time>2017-07-15T14:57:17Z</time>
            </trkpt>
            <trkpt lat="46.514380" lon="10.402830">
                <time>2017-07-15T14:57:18Z</time>
            </trkpt>
            <trkpt lat="46.514290" lon="10.402800">
                <time>2017-07-15T14:57:19Z</time>
            </trkpt>
            <trkpt lat="46.514190" lon="10.402760">
                <time>2017-07-15T14:57:20Z</time>
            </trkpt>
            <trkpt lat="46.514070" lon="10.402690">
                <time>2017-07-15T14:57:21Z</time>
            </trkpt>
            <trkpt lat="46.513940" lon="10.402600">
                <time>2017-07-15T14:57:22Z</time>
            </trkpt>
            <trkpt lat="46.513820" lon="10.402480">
                <time>2017-07-15T14:57:23Z</time>
            </trkpt>
            <trkpt lat="46.513690" lon="10.402360">
                <time>2017-07-15T14:57:24Z</time>
            </trkpt>
            <trkpt lat="46.513590" lon="10.402260">
                <time>2017-07-15T14:57:25Z</time>
            </trkpt>
            <trkpt lat="46.513490" lon="10.402150">
                <time>2017-07-15T14:57:26Z</time>
            </trkpt>
            <trkpt lat="46.513400" lon="10.402060">
                <time>2017-07-15T14:57:27Z</time>
            </trkpt>
            <trkpt lat="46.513340" lon="10.402000">
                <time>2017-07-15T14:57:28Z</time>
            </trkpt>
            <trkpt lat="46.513280" lon="10.401970">
                <time>2017-07-15T14:57:29Z</time>
            </trkpt>
            <trkpt lat="46.513230" lon="10.402000">
                <time>2017-07-15T14:57:30Z</time>
            </trkpt>
            <trkpt lat="46.513210" lon="10.402050">
                <time>2017-07-15T14:57:31Z</time>
            </trkpt>
            <trkpt lat="46.513220" lon="10.402130">
                <time>2017-07-15T14:57:32Z</time>
            </trkpt>
            <trkpt lat="46.513270" lon="10.402210">
                <time>2017-07-15T14:57:33Z</time>
            </trkpt>
            <trkpt lat="46.513340" lon="10.402300">
                <time>2017-07-15T14:57:34Z</time>
            </trkpt>
            <trkpt lat="46.513440" lon="10.402410">
                <time>2017-07-15T14:57:35Z</time>
            </trkpt>
            <trkpt lat="46.513550" lon="10.402530">
                <time>2017-07-15T14:57:36Z</time>
            </trkpt>
            <trkpt lat="46.513660" lon="10.402670">
                <time>2017-07-15T14:57:37Z</time>
            </trkpt>
            <trkpt lat="46.513760" lon="10.402810">
                <time>2017-07-15T14:57:38Z</time>
            </trkpt>
            <trkpt lat="46.513850" lon="10.402970">
                <time>2017-07-15T14:57:39Z</time>
            </trkpt>
            <trkpt lat="46.513930" lon="10.403160">
                <time>2017-07-15T14:57:40Z</time>
            </trkpt>
            <trkpt lat="46.514000" lon="10.403340">
                <time>2017-07-15T14:57:41Z</time>
            </trkpt>
            <trkpt lat="46.514090" lon="10.403510">
                <time>2017-07-15T14:57:42Z</time>
            </trkpt>
            <trkpt lat="46.514210" lon="10.403670">
                <time>2017-07-15T14:57:43Z</time>
            </trkpt>
            <trkpt lat="46.514320" lon="10.403770">
                <time>2017-07-15T14:57:44Z</time>
            </trkpt>
            <trkpt lat="46.514440" lon="10.403880">
                <time>2017-07-15T14:57:45Z</time>
            </trkpt>
            <trkpt lat="46.514540" lon="10.403940">
                <time>2017-07-15T14:57:46Z</time>
            </trkpt>
            <trkpt lat="46.514610" lon="10.403960">
                <time>2017-07-15T14:57:47Z</time>
            </trkpt>
            <trkpt lat="46.514670" lon="10.404000">
                <time>2017-07-15T14:57:48Z</time>
            </trkpt>
            <trkpt lat="46.514680" lon="10.404060">
                <time>2017-07-15T14:57:49Z</time>
            </trkpt>
            <trkpt lat="46.514680" lon="10.404130">
                <time>2017-07-15T14:57:50Z</time>
            </trkpt>
            <trkpt lat="46.514650" lon="10.404150">
                <time>2017-07-15T14:57:51Z</time>
            </trkpt>
            <trkpt lat="46.514580" lon="10.404130">
                <time>2017-07-15T14:57:52Z</time>
            </trkpt>
            <trkpt lat="46.514410" lon="10.404020">
                <time>2017-07-15T14:57:53Z</time>
            </trkpt>
            <trkpt lat="46.514280" lon="10.403940">
                <time>2017-07-15T14:57:54Z</time>
            </trkpt>
            <trkpt lat="46.514130" lon="10.403860">
                <time>2017-07-15T14:57:55Z</time>
            </trkpt>
            <trkpt lat="46.513990" lon="10.403750">
                <time>2017-07-15T14:57:56Z</time>
            </trkpt>
            <trkpt lat="46.513890" lon="10.403630">
                <time>2017-07-15T14:57:57Z</time>
            </trkpt>
            <trkpt lat="46.513800" lon="10.403490">
                <time>2017-07-15T14:57:58Z</time>
            </trkpt>
            <trkpt lat="46.513730" lon="10.403350">
                <time>2017-07-15T14:57:59Z</time>
            </trkpt>
            <trkpt lat="46.513670" lon="10.403260">
                <time>2017-07-15T14:58:00Z</time>
            </trkpt>
            <trkpt lat="46.513620" lon="10.403210">
                <time>2017-07-15T14:58:01Z</time>
            </trkpt>
            <trkpt lat="46.513560" lon="10.403170">
                <time>2017-07-15T14:58:02Z</time>
            </trkpt>
            <trkpt lat="46.513510" lon="10.403230">
                <time>2017-07-15T14:58:03Z</time>
            </trkpt>
            <trkpt lat="46.513500" lon="10.403330">
                <time>2017-07-15T14:58:04Z</time>
            </trkpt>
            <trkpt lat="46.513620" lon="10.403450">
                <time>2017-07-15T14:58:05Z</time>
            </trkpt>
            <trkpt lat="46.513700" lon="10.403570">
                <time>2017-07-15T14:58:06Z</time>
            </trkpt>
            <trkpt lat="46.513820" lon="10.403720">
                <time>2017-07-15T14:58:07Z</time>
            </trkpt>
            <trkpt lat="46.513920" lon="10.403860">
                <time>2017-07-15T14:58:08Z</time>
            </trkpt>
            <trkpt lat="46.514030" lon="10.404030">
                <time>2017-07-15T14:58:09Z</time>
            </trkpt>
            <trkpt lat="46.514140" lon="10.404210">
                <time>2017-07-15T14:58:10Z</time>
            </trkpt>
            <trkpt lat="46.514250" lon="10.404390">
                <time>2017-07-15T14:58:11Z</time>
            </trkpt>
            <trkpt lat="46.514350" lon="10.404580">
                <time>2017-07-15T14:58:12Z</time>
            </trkpt>
            <trkpt lat="46.514440" lon="10.404730">
                <time>2017-07-15T14:58:13Z</time>
            </trkpt>
            <trkpt lat="46.514520" lon="10.404890">
                <time>2017-07-15T14:58:14Z</time>
            </trkpt>
            <trkpt lat="46.514610" lon="10.405060">
                <time>2017-07-15T14:58:15Z</time>
            </trkpt>
            <trkpt lat="46.514680" lon="10.405210">
                <time>2017-07-15T14:58:16Z</time>
            </trkpt>
            <trkpt lat="46.514760" lon="10.405370">
                <time>2017-07-15T14:58:17Z</time>
            </trkpt>
            <trkpt lat="46.514850" lon="10.405520">
                <time>2017-07-15T14:58:18Z</time>
            </trkpt>
            <trkpt lat="46.514950" lon="10.405630">
                <time>2017-07-15T14:58:19Z</time>
            </trkpt>
            <trkpt lat="46.515080" lon="10.405700">
                <time>2017-07-15T14:58:20Z</time>
            </trkpt>
            <trkpt lat="46.515200" lon="10.405720">
                <time>2017-07-15T14:58:21Z</time>
            </trkpt>
            <trkpt lat="46.515340" lon="10.405720">
                <time>2017-07-15T14:58:22Z</time>
            </trkpt>
            <trkpt lat="46.515470" lon="10.405700">
                <time>2017-07-15T14:58:23Z</time>
            </trkpt>
            <trkpt lat="46.515570" lon="10.405670">
                <time>2017-07-15T14:58:24Z</time>
            </trkpt>
            <trkpt lat="46.515670" lon="10.405650">
                <time>2017-07-15T14:58:25Z</time>
            </trkpt>
            <trkpt lat="46.515750" lon="10.405650">
                <time>2017-07-15T14:58:26Z</time>
            </trkpt>
            <trkpt lat="46.515810" lon="10.405680">
                <time>2017-07-15T14:58:27Z</time>
            </trkpt>
            <trkpt lat="46.515840" lon="10.405730">
                <time>2017-07-15T14:58:28Z</time>
            </trkpt>
            <trkpt lat="46.515830" lon="10.405780">
                <time>2017-07-15T14:58:29Z</time>
            </trkpt>
            <trkpt lat="46.515800" lon="10.405830">
                <time>2017-07-15T14:58:30Z</time>
            </trkpt>
            <trkpt lat="46.515720" lon="10.405880">
                <time>2017-07-15T14:58:31Z</time>
            </trkpt>
            <trkpt lat="46.515630" lon="10.405920">
                <time>2017-07-15T14:58:32Z</time>
            </trkpt>
            <trkpt lat="46.515510" lon="10.405970">
                <time>2017-07-15T14:58:33Z</time>
            </trkpt>
            <trkpt lat="46.515390" lon="10.406020">
                <time>2017-07-15T14:58:34Z</time>
            </trkpt>
            <trkpt lat="46.515300" lon="10.406060">
                <time>2017-07-15T14:58:35Z</time>
            </trkpt>
            <trkpt lat="46.515220" lon="10.406110">
                <time>2017-07-15T14:58:36Z</time>
            </trkpt>
            <trkpt lat="46.515180" lon="10.406170">
                <time>2017-07-15T14:58:37Z</time>
            </trkpt>
            <trkpt lat="46.515190" lon="10.406250">
                <time>2017-07-15T14:58:38Z</time>
            </trkpt>
            <trkpt lat="46.515250" lon="10.406300">
                <time>2017-07-15T14:58:39Z</time>
            </trkpt>
            <trkpt lat="46.515330" lon="10.406300">
                <time>2017-07-15T14:58:40Z</time>
            </trkpt>
            <trkpt lat="46.515420" lon="10.406270">
                <time>2017-07-15T14:58:41Z</time>
            </trkpt>
            <trkpt lat="46.515530" lon="10.406240">
                <time>2017-07-15T14:58:42Z</time>
            </trkpt>
            <trkpt lat="46.515650" lon="10.406210">
                <time>2017-07-15T14:58:43Z</time>
            </trkpt>
            <trkpt lat="46.515780" lon="10.406180">
                <time>2017-07-15T14:58:44Z</time>
            </trkpt>
            <trkpt lat="46.515900" lon="10.406140">
                <time>2017-07-15T14:58:45Z</time>
            </trkpt>
            <trkpt lat="46.516000" lon="10.406110">
                <time>2017-07-15T14:58:46Z</time>
            </trkpt>
            <trkpt lat="46.516100" lon="10.406060">
                <time>2017-07-15T14:58:47Z</time>
            </trkpt>
            <trkpt lat="46.516190" lon="10.406020">
                <time>2017-07-15T14:58:48Z</time>
            </trkpt>
            <trkpt lat="46.516260" lon="10.406000">
                <time>2017-07-15T14:58:49Z</time>
            </trkpt>
            <trkpt lat="46.516300" lon="10.406030">
                <time>2017-07-15T14:58:50Z</time>
            </trkpt>
            <trkpt lat="46.516310" lon="10.406090">
                <time>2017-07-15T14:58:51Z</time>
            </trkpt>
            <trkpt lat="46.516280" lon="10.406140">
                <time>2017-07-15T14:58:52Z</time>
            </trkpt>
            <trkpt lat="46.516230" lon="10.406170">
                <time>2017-07-15T14:58:53Z</time>
            </trkpt>
            <trkpt lat="46.516180" lon="10.406180">
                <time>2017-07-15T14:58:54Z</time>
            </trkpt>
            <trkpt lat="46.516130" lon="10.406170">
                <time>2017-07-15T14:58:55Z</time>
            </trkpt>
            <trkpt lat="46.516110" lon="10.406170">
                <time>2017-07-15T14:58:56Z</time>
            </trkpt>
            <trkpt lat="46.516120" lon="10.406170">
                <time>2017-07-15T14:58:57Z</time>
            </trkpt>
            <trkpt lat="46.516120" lon="10.406180">
                <time>2017-07-15T14:58:58Z</time>
            </trkpt>
            <trkpt lat="46.516120" lon="10.406170">
                <time>2017-07-15T14:58:59Z</time>
            </trkpt>
            <trkpt lat="46.516120" lon="10.406170">
                <time>2017-07-15T14:59:00Z</time>
            </trkpt>
            <trkpt lat="46.516120" lon="10.406170">
                <time>2017-07-15T14:59:01Z</time>
            </trkpt>
            <trkpt lat="46.516120" lon="10.406170">
                <time>2017-07-15T14:59:02Z</time>
            </trkpt>
            <trkpt lat="46.516120" lon="10.406170">
                <time>2017-07-15T14:59:03Z</time>
            </trkpt>
            <trkpt lat="46.516120" lon="10.406170">
                <time>2017-07-15T14:59:04Z</time>
            </trkpt>
            <trkpt lat="46.516120" lon="10.406170">
                <time>2017-07-15T14:59:05Z</time>
            </trkpt>
            <trkpt lat="46.516120" lon="10.406170">
                <time>2017-07-15T14:59:06Z</time>
            </trkpt>
            <trkpt lat="46.516120" lon="10.406170">
                <time>2017-07-15T14:59:07Z</time>
            </trkpt>
            <trkpt lat="46.516120" lon="10.406170">
                <time>2017-07-15T14:59:08Z</time>
            </trkpt>
            <trkpt lat="46.516120" lon="10.406170">
                <time>2017-07-15T14:59:09Z</time>
            </trkpt>
            <trkpt lat="46.516120" lon="10.406170">
                <time>2017-07-15T14:59:10Z</time>
            </trkpt>
            <trkpt lat="46.516120" lon="10.406170">
                <time>2017-07-15T14:59:11Z</time>
            </trkpt>
            <trkpt lat="46.516120" lon="10.406170">
                <time>2017-07-15T14:59:12Z</time>
            </trkpt>
            <trkpt lat="46.516120" lon="10.406170">
                <time>2017-07-15T14:59:13Z</time>
            </trkpt>
            <trkpt lat="46.516120" lon="10.406170">
                <time>2017-07-15T14:59:14Z</time>
            </trkpt>
            <trkpt lat="46.516120" lon="10.406170">
                <time>2017-07-15T14:59:15Z</time>
            </trkpt>
            <trkpt lat="46.516120" lon="10.406170">
                <time>2017-07-15T14:59:16Z</time>
            </trkpt>
            <trkpt lat="46.516120" lon="10.406170">
                <time>2017-07-15T14:59:17Z</time>
            </trkpt>
            <trkpt lat="46.516120" lon="10.406170">
                <time>2017-07-15T14:59:18Z</time>
            </trkpt>
            <trkpt lat="46.516120" lon="10.406170">
                <time>2017-07-15T14:59:19Z</time>
            </trkpt>
            <trkpt lat="46.516120" lon="10.406170">
                <time>2017-07-15T14:59:20Z</time>
            </trkpt>
            <trkpt lat="46.516250" lon="10.406130">
                <time>2017-07-15T15:02:42Z</time>
            </trkpt>
            <trkpt lat="46.516250" lon="10.406140">
                <time>2017-07-15T15:02:43Z</time>
            </trkpt>
            <trkpt lat="46.516250" lon="10.406180">
                <time>2017-07-15T15:02:44Z</time>
            </trkpt>
            <trkpt lat="46.516090" lon="10.406150">
                <time>2017-07-15T15:02:45Z</time>
            </trkpt>
            <trkpt lat="46.516120" lon="10.406150">
                <time>2017-07-15T15:02:46Z</time>
            </trkpt>
            <trkpt lat="46.516100" lon="10.406190">
                <time>2017-07-15T15:02:47Z</time>
            </trkpt>
            <trkpt lat="46.516030" lon="10.406230">
                <time>2017-07-15T15:02:48Z</time>
            </trkpt>
            <trkpt lat="46.515990" lon="10.406250">
                <time>2017-07-15T15:02:49Z</time>
            </trkpt>
            <trkpt lat="46.516100" lon="10.406180">
                <time>2017-07-15T15:02:50Z</time>
            </trkpt>
            <trkpt lat="46.516100" lon="10.406180">
                <time>2017-07-15T15:02:51Z</time>
            </trkpt>
            <trkpt lat="46.516100" lon="10.406180">
                <time>2017-07-15T15:02:52Z</time>
            </trkpt>
            <trkpt lat="46.516100" lon="10.406220">
                <time>2017-07-15T15:02:53Z</time>
            </trkpt>
            <trkpt lat="46.516080" lon="10.406260">
                <time>2017-07-15T15:02:54Z</time>
            </trkpt>
            <trkpt lat="46.516030" lon="10.406300">
                <time>2017-07-15T15:02:55Z</time>
            </trkpt>
            <trkpt lat="46.515960" lon="10.406360">
                <time>2017-07-15T15:02:56Z</time>
            </trkpt>
            <trkpt lat="46.515890" lon="10.406420">
                <time>2017-07-15T15:02:57Z</time>
            </trkpt>
            <trkpt lat="46.515820" lon="10.406490">
                <time>2017-07-15T15:02:58Z</time>
            </trkpt>
            <trkpt lat="46.515740" lon="10.406560">
                <time>2017-07-15T15:02:59Z</time>
            </trkpt>
            <trkpt lat="46.515650" lon="10.406640">
                <time>2017-07-15T15:03:00Z</time>
            </trkpt>
            <trkpt lat="46.515570" lon="10.406730">
                <time>2017-07-15T15:03:01Z</time>
            </trkpt>
            <trkpt lat="46.515470" lon="10.406820">
                <time>2017-07-15T15:03:02Z</time>
            </trkpt>
            <trkpt lat="46.515350" lon="10.406920">
                <time>2017-07-15T15:03:03Z</time>
            </trkpt>
            <trkpt lat="46.515260" lon="10.406980">
                <time>2017-07-15T15:03:04Z</time>
            </trkpt>
            <trkpt lat="46.515160" lon="10.407030">
                <time>2017-07-15T15:03:05Z</time>
            </trkpt>
            <trkpt lat="46.515080" lon="10.407070">
                <time>2017-07-15T15:03:06Z</time>
            </trkpt>
            <trkpt lat="46.515030" lon="10.407120">
                <time>2017-07-15T15:03:07Z</time>
            </trkpt>
            <trkpt lat="46.515010" lon="10.407200">
                <time>2017-07-15T15:03:08Z</time>
            </trkpt>
            <trkpt lat="46.515040" lon="10.407260">
                <time>2017-07-15T15:03:09Z</time>
            </trkpt>
            <trkpt lat="46.515090" lon="10.407290">
                <time>2017-07-15T15:03:10Z</time>
            </trkpt>
            <trkpt lat="46.515180" lon="10.407280">
                <time>2017-07-15T15:03:11Z</time>
            </trkpt>
            <trkpt lat="46.515280" lon="10.407240">
                <time>2017-07-15T15:03:12Z</time>
            </trkpt>
            <trkpt lat="46.515410" lon="10.407200">
                <time>2017-07-15T15:03:13Z</time>
            </trkpt>
            <trkpt lat="46.515560" lon="10.407150">
                <time>2017-07-15T15:03:14Z</time>
            </trkpt>
            <trkpt lat="46.515720" lon="10.407100">
                <time>2017-07-15T15:03:15Z</time>
            </trkpt>
            <trkpt lat="46.515890" lon="10.407070">
                <time>2017-07-15T15:03:16Z</time>
            </trkpt>
            <trkpt lat="46.516030" lon="10.407040">
                <time>2017-07-15T15:03:17Z</time>
            </trkpt>
            <trkpt lat="46.516170" lon="10.407010">
                <time>2017-07-15T15:03:18Z</time>
            </trkpt>
            <trkpt lat="46.516310" lon="10.406950">
                <time>2017-07-15T15:03:19Z</time>
            </trkpt>
            <trkpt lat="46.516420" lon="10.406890">
                <time>2017-07-15T15:03:20Z</time>
            </trkpt>
            <trkpt lat="46.516540" lon="10.406790">
                <time>2017-07-15T15:03:21Z</time>
            </trkpt>
            <trkpt lat="46.516650" lon="10.406680">
                <time>2017-07-15T15:03:22Z</time>
            </trkpt>
            <trkpt lat="46.516740" lon="10.406590">
                <time>2017-07-15T15:03:23Z</time>
            </trkpt>
            <trkpt lat="46.516810" lon="10.406490">
                <time>2017-07-15T15:03:24Z</time>
            </trkpt>
            <trkpt lat="46.516870" lon="10.406430">
                <time>2017-07-15T15:03:25Z</time>
            </trkpt>
            <trkpt lat="46.516930" lon="10.406410">
                <time>2017-07-15T15:03:26Z</time>
            </trkpt>
            <trkpt lat="46.516950" lon="10.406450">
                <time>2017-07-15T15:03:27Z</time>
            </trkpt>
            <trkpt lat="46.516950" lon="10.406520">
                <time>2017-07-15T15:03:28Z</time>
            </trkpt>
            <trkpt lat="46.516910" lon="10.406590">
                <time>2017-07-15T15:03:29Z</time>
            </trkpt>
            <trkpt lat="46.516840" lon="10.406680">
                <time>2017-07-15T15:03:30Z</time>
            </trkpt>
            <trkpt lat="46.516760" lon="10.406800">
                <time>2017-07-15T15:03:31Z</time>
            </trkpt>
            <trkpt lat="46.516660" lon="10.406970">
                <time>2017-07-15T15:03:32Z</time>
            </trkpt>
            <trkpt lat="46.516560" lon="10.407120">
                <time>2017-07-15T15:03:33Z</time>
            </trkpt>
            <trkpt lat="46.516450" lon="10.407280">
                <time>2017-07-15T15:03:34Z</time>
            </trkpt>
            <trkpt lat="46.516290" lon="10.407420">
                <time>2017-07-15T15:03:35Z</time>
            </trkpt>
            <trkpt lat="46.516150" lon="10.407520">
                <time>2017-07-15T15:03:36Z</time>
            </trkpt>
            <trkpt lat="46.515990" lon="10.407630">
                <time>2017-07-15T15:03:37Z</time>
            </trkpt>
            <trkpt lat="46.515840" lon="10.407730">
                <time>2017-07-15T15:03:38Z</time>
            </trkpt>
            <trkpt lat="46.515730" lon="10.407810">
                <time>2017-07-15T15:03:39Z</time>
            </trkpt>
            <trkpt lat="46.515620" lon="10.407880">
                <time>2017-07-15T15:03:40Z</time>
            </trkpt>
            <trkpt lat="46.515540" lon="10.407930">
                <time>2017-07-15T15:03:41Z</time>
            </trkpt>
            <trkpt lat="46.515490" lon="10.408000">
                <time>2017-07-15T15:03:42Z</time>
            </trkpt>
            <trkpt lat="46.515470" lon="10.408080">
                <time>2017-07-15T15:03:43Z</time>
            </trkpt>
            <trkpt lat="46.515490" lon="10.408130">
                <time>2017-07-15T15:03:44Z</time>
            </trkpt>
            <trkpt lat="46.515540" lon="10.408150">
                <time>2017-07-15T15:03:45Z</time>
            </trkpt>
            <trkpt lat="46.515620" lon="10.408110">
                <time>2017-07-15T15:03:46Z</time>
            </trkpt>
            <trkpt lat="46.515700" lon="10.408050">
                <time>2017-07-15T15:03:47Z</time>
            </trkpt>
            <trkpt lat="46.515830" lon="10.407980">
                <time>2017-07-15T15:03:48Z</time>
            </trkpt>
            <trkpt lat="46.515950" lon="10.407940">
                <time>2017-07-15T15:03:49Z</time>
            </trkpt>
            <trkpt lat="46.516090" lon="10.407910">
                <time>2017-07-15T15:03:50Z</time>
            </trkpt>
            <trkpt lat="46.516250" lon="10.407880">
                <time>2017-07-15T15:03:51Z</time>
            </trkpt>
            <trkpt lat="46.516390" lon="10.407850">
                <time>2017-07-15T15:03:52Z</time>
            </trkpt>
            <trkpt lat="46.516550" lon="10.407820">
                <time>2017-07-15T15:03:53Z</time>
            </trkpt>
            <trkpt lat="46.516700" lon="10.407790">
                <time>2017-07-15T15:03:54Z</time>
            </trkpt>
            <trkpt lat="46.516810" lon="10.407760">
                <time>2017-07-15T15:03:55Z</time>
            </trkpt>
            <trkpt lat="46.516910" lon="10.407700">
                <time>2017-07-15T15:03:56Z</time>
            </trkpt>
            <trkpt lat="46.516990" lon="10.407600">
                <time>2017-07-15T15:03:57Z</time>
            </trkpt>
            <trkpt lat="46.517070" lon="10.407470">
                <time>2017-07-15T15:03:58Z</time>
            </trkpt>
            <trkpt lat="46.517170" lon="10.407300">
                <time>2017-07-15T15:03:59Z</time>
            </trkpt>
            <trkpt lat="46.517260" lon="10.407150">
                <time>2017-07-15T15:04:00Z</time>
            </trkpt>
            <trkpt lat="46.517360" lon="10.406990">
                <time>2017-07-15T15:04:01Z</time>
            </trkpt>
            <trkpt lat="46.517440" lon="10.406830">
                <time>2017-07-15T15:04:02Z</time>
            </trkpt>
            <trkpt lat="46.517500" lon="10.406680">
                <time>2017-07-15T15:04:03Z</time>
            </trkpt>
            <trkpt lat="46.517530" lon="10.406560">
                <time>2017-07-15T15:04:04Z</time>
            </trkpt>
            <trkpt lat="46.517560" lon="10.406490">
                <time>2017-07-15T15:04:05Z</time>
            </trkpt>
            <trkpt lat="46.517610" lon="10.406450">
                <time>2017-07-15T15:04:06Z</time>
            </trkpt>
            <trkpt lat="46.517650" lon="10.406460">
                <time>2017-07-15T15:04:07Z</time>
            </trkpt>
            <trkpt lat="46.517690" lon="10.406530">
                <time>2017-07-15T15:04:08Z</time>
            </trkpt>
            <trkpt lat="46.517690" lon="10.406630">
                <time>2017-07-15T15:04:09Z</time>
            </trkpt>
            <trkpt lat="46.517550" lon="10.406820">
                <time>2017-07-15T15:04:10Z</time>
            </trkpt>
            <trkpt lat="46.517470" lon="10.406980">
                <time>2017-07-15T15:04:11Z</time>
            </trkpt>
            <trkpt lat="46.517380" lon="10.407180">
                <time>2017-07-15T15:04:12Z</time>
            </trkpt>
            <trkpt lat="46.517320" lon="10.407370">
                <time>2017-07-15T15:04:13Z</time>
            </trkpt>
            <trkpt lat="46.517270" lon="10.407580">
                <time>2017-07-15T15:04:14Z</time>
            </trkpt>
            <trkpt lat="46.517210" lon="10.407800">
                <time>2017-07-15T15:04:15Z</time>
            </trkpt>
            <trkpt lat="46.517170" lon="10.407980">
                <time>2017-07-15T15:04:16Z</time>
            </trkpt>
            <trkpt lat="46.517110" lon="10.408130">
                <time>2017-07-15T15:04:17Z</time>
            </trkpt>
            <trkpt lat="46.517040" lon="10.408270">
                <time>2017-07-15T15:04:18Z</time>
            </trkpt>
            <trkpt lat="46.516950" lon="10.408350">
                <time>2017-07-15T15:04:19Z</time>
            </trkpt>
            <trkpt lat="46.516840" lon="10.408430">
                <time>2017-07-15T15:04:20Z</time>
            </trkpt>
            <trkpt lat="46.516750" lon="10.408480">
                <time>2017-07-15T15:04:21Z</time>
            </trkpt>
            <trkpt lat="46.516630" lon="10.408550">
                <time>2017-07-15T15:04:22Z</time>
            </trkpt>
            <trkpt lat="46.516510" lon="10.408640">
                <time>2017-07-15T15:04:23Z</time>
            </trkpt>
            <trkpt lat="46.516400" lon="10.408720">
                <time>2017-07-15T15:04:24Z</time>
            </trkpt>
            <trkpt lat="46.516270" lon="10.408810">
                <time>2017-07-15T15:04:25Z</time>
            </trkpt>
            <trkpt lat="46.516150" lon="10.408890">
                <time>2017-07-15T15:04:26Z</time>
            </trkpt>
            <trkpt lat="46.516050" lon="10.408950">
                <time>2017-07-15T15:04:27Z</time>
            </trkpt>
            <trkpt lat="46.515960" lon="10.409010">
                <time>2017-07-15T15:04:28Z</time>
            </trkpt>
            <trkpt lat="46.515890" lon="10.409040">
                <time>2017-07-15T15:04:29Z</time>
            </trkpt>
            <trkpt lat="46.515830" lon="10.409080">
                <time>2017-07-15T15:04:30Z</time>
            </trkpt>
            <trkpt lat="46.515800" lon="10.409120">
                <time>2017-07-15T15:04:31Z</time>
            </trkpt>
            <trkpt lat="46.515780" lon="10.409160">
                <time>2017-07-15T15:04:32Z</time>
            </trkpt>
            <trkpt lat="46.515780" lon="10.409200">
                <time>2017-07-15T15:04:33Z</time>
            </trkpt>
            <trkpt lat="46.515780" lon="10.409230">
                <time>2017-07-15T15:04:34Z</time>
            </trkpt>
            <trkpt lat="46.515780" lon="10.409250">
                <time>2017-07-15T15:04:35Z</time>
            </trkpt>
            <trkpt lat="46.515800" lon="10.409270">
                <time>2017-07-15T15:04:36Z</time>
            </trkpt>
            <trkpt lat="46.515800" lon="10.409280">
                <time>2017-07-15T15:04:37Z</time>
            </trkpt>
            <trkpt lat="46.515800" lon="10.409280">
                <time>2017-07-15T15:04:38Z</time>
            </trkpt>
            <trkpt lat="46.515800" lon="10.409280">
                <time>2017-07-15T15:04:39Z</time>
            </trkpt>
            <trkpt lat="46.515800" lon="10.409280">
                <time>2017-07-15T15:04:40Z</time>
            </trkpt>
            <trkpt lat="46.515800" lon="10.409280">
                <time>2017-07-15T15:04:41Z</time>
            </trkpt>
            <trkpt lat="46.515800" lon="10.409280">
                <time>2017-07-15T15:04:42Z</time>
            </trkpt>
            <trkpt lat="46.515800" lon="10.409280">
                <time>2017-07-15T15:04:43Z</time>
            </trkpt>
            <trkpt lat="46.515800" lon="10.409280">
                <time>2017-07-15T15:04:44Z</time>
            </trkpt>
            <trkpt lat="46.515800" lon="10.409280">
                <time>2017-07-15T15:04:45Z</time>
            </trkpt>
            <trkpt lat="46.515800" lon="10.409280">
                <time>2017-07-15T15:04:46Z</time>
            </trkpt>
            <trkpt lat="46.515800" lon="10.409280">
                <time>2017-07-15T15:04:47Z</time>
            </trkpt>
            <trkpt lat="46.515800" lon="10.409280">
                <time>2017-07-15T15:04:48Z</time>
            </trkpt>
            <trkpt lat="46.515800" lon="10.409280">
                <time>2017-07-15T15:04:49Z</time>
            </trkpt>
            <trkpt lat="46.515800" lon="10.409280">
                <time>2017-07-15T15:04:50Z</time>
            </trkpt>
            <trkpt lat="46.515800" lon="10.409280">
                <time>2017-07-15T15:04:51Z</time>
            </trkpt>
            <trkpt lat="46.515800" lon="10.409280">
                <time>2017-07-15T15:04:52Z</time>
            </trkpt>
            <trkpt lat="46.515800" lon="10.409280">
                <time>2017-07-15T15:04:53Z</time>
            </trkpt>
            <trkpt lat="46.515800" lon="10.409280">
                <time>2017-07-15T15:04:54Z</time>
            </trkpt>
            <trkpt lat="46.515800" lon="10.409280">
                <time>2017-07-15T15:04:55Z</time>
            </trkpt>
            <trkpt lat="46.515800" lon="10.409280">
                <time>2017-07-15T15:04:56Z</time>
            </trkpt>
            <trkpt lat="46.515800" lon="10.409280">
                <time>2017-07-15T15:04:57Z</time>
            </trkpt>
            <trkpt lat="46.515800" lon="10.409280">
                <time>2017-07-15T15:04:58Z</time>
            </trkpt>
            <trkpt lat="46.515800" lon="10.409280">
                <time>2017-07-15T15:04:59Z</time>
            </trkpt>
            <trkpt lat="46.515800" lon="10.409280">
                <time>2017-07-15T15:05:00Z</time>
            </trkpt>
            <trkpt lat="46.515800" lon="10.409280">
                <time>2017-07-15T15:05:01Z</time>
            </trkpt>
            <trkpt lat="46.515800" lon="10.409280">
                <time>2017-07-15T15:05:02Z</time>
            </trkpt>
            <trkpt lat="46.515800" lon="10.409280">
                <time>2017-07-15T15:05:03Z</time>
            </trkpt>
            <trkpt lat="46.515800" lon="10.409280">
                <time>2017-07-15T15:05:04Z</time>
            </trkpt>
            <trkpt lat="46.515800" lon="10.409280">
                <time>2017-07-15T15:05:05Z</time>
            </trkpt>
            <trkpt lat="46.515800" lon="10.409280">
                <time>2017-07-15T15:05:06Z</time>
            </trkpt>
            <trkpt lat="46.515800" lon="10.409280">
                <time>2017-07-15T15:05:07Z</time>
            </trkpt>
            <trkpt lat="46.515800" lon="10.409280">
                <time>2017-07-15T15:05:08Z</time>
            </trkpt>
            <trkpt lat="46.515800" lon="10.409280">
                <time>2017-07-15T15:05:09Z</time>
            </trkpt>
            <trkpt lat="46.515800" lon="10.409280">
                <time>2017-07-15T15:05:10Z</time>
            </trkpt>
            <trkpt lat="46.515800" lon="10.409280">
                <time>2017-07-15T15:05:11Z</time>
            </trkpt>
            <trkpt lat="46.515800" lon="10.409280">
                <time>2017-07-15T15:05:12Z</time>
            </trkpt>
            <trkpt lat="46.515800" lon="10.409280">
                <time>2017-07-15T15:05:13Z</time>
            </trkpt>
            <trkpt lat="46.515800" lon="10.409280">
                <time>2017-07-15T15:05:14Z</time>
            </trkpt>
            <trkpt lat="46.515800" lon="10.409280">
                <time>2017-07-15T15:05:15Z</time>
            </trkpt>
            <trkpt lat="46.515800" lon="10.409280">
                <time>2017-07-15T15:05:16Z</time>
            </trkpt>
            <trkpt lat="46.515800" lon="10.409280">
                <time>2017-07-15T15:05:17Z</time>
            </trkpt>
            <trkpt lat="46.515800" lon="10.409280">
                <time>2017-07-15T15:05:18Z</time>
            </trkpt>
            <trkpt lat="46.515800" lon="10.409280">
                <time>2017-07-15T15:05:19Z</time>
            </trkpt>
            <trkpt lat="46.515800" lon="10.409280">
                <time>2017-07-15T15:05:20Z</time>
            </trkpt>
            <trkpt lat="46.515800" lon="10.409280">
                <time>2017-07-15T15:05:21Z</time>
            </trkpt>
            <trkpt lat="46.515800" lon="10.409280">
                <time>2017-07-15T15:05:22Z</time>
            </trkpt>
            <trkpt lat="46.515800" lon="10.409280">
                <time>2017-07-15T15:05:23Z</time>
            </trkpt>
            <trkpt lat="46.515800" lon="10.409280">
                <time>2017-07-15T15:05:24Z</time>
            </trkpt>
            <trkpt lat="46.515800" lon="10.409280">
                <time>2017-07-15T15:05:25Z</time>
            </trkpt>
            <trkpt lat="46.515800" lon="10.409280">
                <time>2017-07-15T15:05:26Z</time>
            </trkpt>
            <trkpt lat="46.515800" lon="10.409280">
                <time>2017-07-15T15:05:27Z</time>
            </trkpt>
            <trkpt lat="46.515800" lon="10.409280">
                <time>2017-07-15T15:05:28Z</time>
            </trkpt>
            <trkpt lat="46.515800" lon="10.409280">
                <time>2017-07-15T15:05:29Z</time>
            </trkpt>
            <trkpt lat="46.515800" lon="10.409280">
                <time>2017-07-15T15:05:30Z</time>
            </trkpt>
            <trkpt lat="46.515800" lon="10.409280">
                <time>2017-07-15T15:05:31Z</time>
            </trkpt>
            <trkpt lat="46.515800" lon="10.409280">
                <time>2017-07-15T15:05:32Z</time>
            </trkpt>
            <trkpt lat="46.515800" lon="10.409280">
                <time>2017-07-15T15:05:33Z</time>
            </trkpt>
            <trkpt lat="46.515800" lon="10.409280">
                <time>2017-07-15T15:05:34Z</time>
            </trkpt>
            <trkpt lat="46.515800" lon="10.409280">
                <time>2017-07-15T15:05:35Z</time>
            </trkpt>
            <trkpt lat="46.515800" lon="10.409280">
                <time>2017-07-15T15:05:36Z</time>
            </trkpt>
            <trkpt lat="46.515800" lon="10.409280">
                <time>2017-07-15T15:05:37Z</time>
            </trkpt>
            <trkpt lat="46.515800" lon="10.409280">
                <time>2017-07-15T15:05:38Z</time>
            </trkpt>
            <trkpt lat="46.515800" lon="10.409280">
                <time>2017-07-15T15:05:39Z</time>
            </trkpt>
            <trkpt lat="46.515800" lon="10.409280">
                <time>2017-07-15T15:05:40Z</time>
            </trkpt>
            <trkpt lat="46.515800" lon="10.409280">
                <time>2017-07-15T15:05:41Z</time>
            </trkpt>
            <trkpt lat="46.515800" lon="10.409280">
                <time>2017-07-15T15:05:42Z</time>
            </trkpt>
            <trkpt lat="46.515800" lon="10.409280">
                <time>2017-07-15T15:05:43Z</time>
            </trkpt>
            <trkpt lat="46.515800" lon="10.409280">
                <time>2017-07-15T15:05:44Z</time>
            </trkpt>
            <trkpt lat="46.515800" lon="10.409280">
                <time>2017-07-15T15:05:45Z</time>
            </trkpt>
            <trkpt lat="46.515800" lon="10.409280">
                <time>2017-07-15T15:05:46Z</time>
            </trkpt>
            <trkpt lat="46.515800" lon="10.409280">
                <time>2017-07-15T15:05:47Z</time>
            </trkpt>
            <trkpt lat="46.515800" lon="10.409280">
                <time>2017-07-15T15:05:48Z</time>
            </trkpt>
            <trkpt lat="46.515800" lon="10.409280">
                <time>2017-07-15T15:05:49Z</time>
            </trkpt>
            <trkpt lat="46.515800" lon="10.409280">
                <time>2017-07-15T15:05:50Z</time>
            </trkpt>
            <trkpt lat="46.515800" lon="10.409280">
                <time>2017-07-15T15:05:51Z</time>
            </trkpt>
            <trkpt lat="46.515800" lon="10.409280">
                <time>2017-07-15T15:05:52Z</time>
            </trkpt>
            <trkpt lat="46.515800" lon="10.409280">
                <time>2017-07-15T15:05:53Z</time>
            </trkpt>
            <trkpt lat="46.515800" lon="10.409280">
                <time>2017-07-15T15:05:54Z</time>
            </trkpt>
            <trkpt lat="46.515800" lon="10.409280">
                <time>2017-07-15T15:05:55Z</time>
            </trkpt>
            <trkpt lat="46.515800" lon="10.409280">
                <time>2017-07-15T15:05:56Z</time>
            </trkpt>
            <trkpt lat="46.515800" lon="10.409280">
                <time>2017-07-15T15:05:57Z</time>
            </trkpt>
            <trkpt lat="46.515800" lon="10.409280">
                <time>2017-07-15T15:05:58Z</time>
            </trkpt>
            <trkpt lat="46.515800" lon="10.409280">
                <time>2017-07-15T15:05:59Z</time>
            </trkpt>
            <trkpt lat="46.515800" lon="10.409280">
                <time>2017-07-15T15:06:00Z</time>
            </trkpt>
            <trkpt lat="46.515800" lon="10.409280">
                <time>2017-07-15T15:06:01Z</time>
            </trkpt>
            <trkpt lat="46.515800" lon="10.409280">
                <time>2017-07-15T15:06:02Z</time>
            </trkpt>
            <trkpt lat="46.515800" lon="10.409280">
                <time>2017-07-15T15:06:03Z</time>
            </trkpt>
            <trkpt lat="46.515800" lon="10.409280">
                <time>2017-07-15T15:06:04Z</time>
            </trkpt>
            <trkpt lat="46.515800" lon="10.409280">
                <time>2017-07-15T15:06:05Z</time>
            </trkpt>
            <trkpt lat="46.515800" lon="10.409280">
                <time>2017-07-15T15:06:06Z</time>
            </trkpt>
            <trkpt lat="46.515800" lon="10.409280">
                <time>2017-07-15T15:06:07Z</time>
            </trkpt>
            <trkpt lat="46.515800" lon="10.409280">
                <time>2017-07-15T15:06:08Z</time>
            </trkpt>
            <trkpt lat="46.515800" lon="10.409280">
                <time>2017-07-15T15:06:09Z</time>
            </trkpt>
            <trkpt lat="46.515800" lon="10.409280">
                <time>2017-07-15T15:06:10Z</time>
            </trkpt>
            <trkpt lat="46.515800" lon="10.409280">
                <time>2017-07-15T15:06:11Z</time>
            </trkpt>
            <trkpt lat="46.515800" lon="10.409280">
                <time>2017-07-15T15:06:12Z</time>
            </trkpt>
            <trkpt lat="46.515800" lon="10.409280">
                <time>2017-07-15T15:06:13Z</time>
            </trkpt>
            <trkpt lat="46.515800" lon="10.409280">
                <time>2017-07-15T15:06:14Z</time>
            </trkpt>
            <trkpt lat="46.515800" lon="10.409280">
                <time>2017-07-15T15:06:15Z</time>
            </trkpt>
            <trkpt lat="46.515800" lon="10.409280">
                <time>2017-07-15T15:06:16Z</time>
            </trkpt>
            <trkpt lat="46.515800" lon="10.409280">
                <time>2017-07-15T15:06:17Z</time>
            </trkpt>
            <trkpt lat="46.515800" lon="10.409280">
                <time>2017-07-15T15:06:18Z</time>
            </trkpt>
            <trkpt lat="46.515800" lon="10.409280">
                <time>2017-07-15T15:06:19Z</time>
            </trkpt>
            <trkpt lat="46.515800" lon="10.409280">
                <time>2017-07-15T15:06:20Z</time>
            </trkpt>
            <trkpt lat="46.515800" lon="10.409280">
                <time>2017-07-15T15:06:21Z</time>
            </trkpt>
            <trkpt lat="46.515800" lon="10.409280">
                <time>2017-07-15T15:06:22Z</time>
            </trkpt>
            <trkpt lat="46.515800" lon="10.409280">
                <time>2017-07-15T15:06:23Z</time>
            </trkpt>
            <trkpt lat="46.515800" lon="10.409280">
                <time>2017-07-15T15:06:24Z</time>
            </trkpt>
            <trkpt lat="46.515800" lon="10.409280">
                <time>2017-07-15T15:06:25Z</time>
            </trkpt>
            <trkpt lat="46.515800" lon="10.409280">
                <time>2017-07-15T15:06:26Z</time>
            </trkpt>
            <trkpt lat="46.515800" lon="10.409280">
                <time>2017-07-15T15:06:27Z</time>
            </trkpt>
            <trkpt lat="46.515800" lon="10.409280">
                <time>2017-07-15T15:06:28Z</time>
            </trkpt>
            <trkpt lat="46.515800" lon="10.409280">
                <time>2017-07-15T15:06:29Z</time>
            </trkpt>
            <trkpt lat="46.515800" lon="10.409280">
                <time>2017-07-15T15:06:30Z</time>
            </trkpt>
            <trkpt lat="46.515800" lon="10.409280">
                <time>2017-07-15T15:06:31Z</time>
            </trkpt>
            <trkpt lat="46.515800" lon="10.409280">
                <time>2017-07-15T15:06:32Z</time>
            </trkpt>
            <trkpt lat="46.515800" lon="10.409280">
                <time>2017-07-15T15:06:33Z</time>
            </trkpt>
            <trkpt lat="46.515800" lon="10.409280">
                <time>2017-07-15T15:06:34Z</time>
            </trkpt>
            <trkpt lat="46.515800" lon="10.409280">
                <time>2017-07-15T15:06:35Z</time>
            </trkpt>
            <trkpt lat="46.515800" lon="10.409280">
                <time>2017-07-15T15:06:36Z</time>
            </trkpt>
            <trkpt lat="46.515800" lon="10.409280">
                <time>2017-07-15T15:06:37Z</time>
            </trkpt>
            <trkpt lat="46.515800" lon="10.409280">
                <time>2017-07-15T15:06:38Z</time>
            </trkpt>
            <trkpt lat="46.515800" lon="10.409280">
                <time>2017-07-15T15:06:39Z</time>
            </trkpt>
            <trkpt lat="46.515800" lon="10.409280">
                <time>2017-07-15T15:06:40Z</time>
            </trkpt>
            <trkpt lat="46.515800" lon="10.409280">
                <time>2017-07-15T15:06:41Z</time>
            </trkpt>
            <trkpt lat="46.515800" lon="10.409280">
                <time>2017-07-15T15:06:42Z</time>
            </trkpt>
            <trkpt lat="46.515800" lon="10.409280">
                <time>2017-07-15T15:06:43Z</time>
            </trkpt>
            <trkpt lat="46.515800" lon="10.409280">
                <time>2017-07-15T15:06:44Z</time>
            </trkpt>
            <trkpt lat="46.515800" lon="10.409280">
                <time>2017-07-15T15:06:45Z</time>
            </trkpt>
            <trkpt lat="46.515800" lon="10.409280">
                <time>2017-07-15T15:06:46Z</time>
            </trkpt>
            <trkpt lat="46.515800" lon="10.409280">
                <time>2017-07-15T15:06:47Z</time>
            </trkpt>
            <trkpt lat="46.515800" lon="10.409280">
                <time>2017-07-15T15:06:48Z</time>
            </trkpt>
            <trkpt lat="46.515800" lon="10.409280">
                <time>2017-07-15T15:06:49Z</time>
            </trkpt>
            <trkpt lat="46.515800" lon="10.409280">
                <time>2017-07-15T15:06:50Z</time>
            </trkpt>
            <trkpt lat="46.515800" lon="10.409280">
                <time>2017-07-15T15:06:51Z</time>
            </trkpt>
            <trkpt lat="46.515800" lon="10.409280">
                <time>2017-07-15T15:06:52Z</time>
            </trkpt>
            <trkpt lat="46.515800" lon="10.409280">
                <time>2017-07-15T15:06:53Z</time>
            </trkpt>
            <trkpt lat="46.515800" lon="10.409280">
                <time>2017-07-15T15:06:54Z</time>
            </trkpt>
            <trkpt lat="46.515800" lon="10.409280">
                <time>2017-07-15T15:06:55Z</time>
            </trkpt>
            <trkpt lat="46.515800" lon="10.409280">
                <time>2017-07-15T15:06:56Z</time>
            </trkpt>
            <trkpt lat="46.515800" lon="10.409280">
                <time>2017-07-15T15:06:57Z</time>
            </trkpt>
            <trkpt lat="46.515800" lon="10.409280">
                <time>2017-07-15T15:06:58Z</time>
            </trkpt>
            <trkpt lat="46.515800" lon="10.409280">
                <time>2017-07-15T15:06:59Z</time>
            </trkpt>
            <trkpt lat="46.515800" lon="10.409280">
                <time>2017-07-15T15:07:00Z</time>
            </trkpt>
            <trkpt lat="46.515800" lon="10.409280">
                <time>2017-07-15T15:07:01Z</time>
            </trkpt>
            <trkpt lat="46.515800" lon="10.409280">
                <time>2017-07-15T15:07:02Z</time>
            </trkpt>
            <trkpt lat="46.515800" lon="10.409280">
                <time>2017-07-15T15:07:03Z</time>
            </trkpt>
            <trkpt lat="46.515800" lon="10.409280">
                <time>2017-07-15T15:07:04Z</time>
            </trkpt>
            <trkpt lat="46.515800" lon="10.409280">
                <time>2017-07-15T15:07:05Z</time>
            </trkpt>
            <trkpt lat="46.515800" lon="10.409280">
                <time>2017-07-15T15:07:06Z</time>
            </trkpt>
            <trkpt lat="46.515800" lon="10.409280">
                <time>2017-07-15T15:07:07Z</time>
            </trkpt>
            <trkpt lat="46.515800" lon="10.409280">
                <time>2017-07-15T15:07:08Z</time>
            </trkpt>
            <trkpt lat="46.515800" lon="10.409280">
                <time>2017-07-15T15:07:09Z</time>
            </trkpt>
            <trkpt lat="46.515800" lon="10.409280">
                <time>2017-07-15T15:07:10Z</time>
            </trkpt>
            <trkpt lat="46.515800" lon="10.409280">
                <time>2017-07-15T15:07:11Z</time>
            </trkpt>
            <trkpt lat="46.515800" lon="10.409280">
                <time>2017-07-15T15:07:12Z</time>
            </trkpt>
            <trkpt lat="46.515800" lon="10.409280">
                <time>2017-07-15T15:07:13Z</time>
            </trkpt>
            <trkpt lat="46.515800" lon="10.409280">
                <time>2017-07-15T15:07:14Z</time>
            </trkpt>
            <trkpt lat="46.515800" lon="10.409280">
                <time>2017-07-15T15:07:15Z</time>
            </trkpt>
            <trkpt lat="46.515800" lon="10.409280">
                <time>2017-07-15T15:07:16Z</time>
            </trkpt>
            <trkpt lat="46.515800" lon="10.409280">
                <time>2017-07-15T15:07:17Z</time>
            </trkpt>
            <trkpt lat="46.515800" lon="10.409280">
                <time>2017-07-15T15:07:18Z</time>
            </trkpt>
            <trkpt lat="46.515800" lon="10.409280">
                <time>2017-07-15T15:07:19Z</time>
            </trkpt>
            <trkpt lat="46.515800" lon="10.409280">
                <time>2017-07-15T15:07:20Z</time>
            </trkpt>
            <trkpt lat="46.515800" lon="10.409280">
                <time>2017-07-15T15:07:21Z</time>
            </trkpt>
            <trkpt lat="46.515800" lon="10.409280">
                <time>2017-07-15T15:07:22Z</time>
            </trkpt>
            <trkpt lat="46.515800" lon="10.409280">
                <time>2017-07-15T15:07:23Z</time>
            </trkpt>
            <trkpt lat="46.515800" lon="10.409280">
                <time>2017-07-15T15:07:24Z</time>
            </trkpt>
            <trkpt lat="46.515800" lon="10.409280">
                <time>2017-07-15T15:07:25Z</time>
            </trkpt>
            <trkpt lat="46.515800" lon="10.409280">
                <time>2017-07-15T15:07:26Z</time>
            </trkpt>
            <trkpt lat="46.515800" lon="10.409280">
                <time>2017-07-15T15:07:27Z</time>
            </trkpt>
            <trkpt lat="46.515800" lon="10.409280">
                <time>2017-07-15T15:07:28Z</time>
            </trkpt>
            <trkpt lat="46.515800" lon="10.409280">
                <time>2017-07-15T15:07:29Z</time>
            </trkpt>
            <trkpt lat="46.515800" lon="10.409280">
                <time>2017-07-15T15:07:30Z</time>
            </trkpt>
            <trkpt lat="46.515800" lon="10.409280">
                <time>2017-07-15T15:07:31Z</time>
            </trkpt>
            <trkpt lat="46.515800" lon="10.409280">
                <time>2017-07-15T15:07:32Z</time>
            </trkpt>
            <trkpt lat="46.515800" lon="10.409280">
                <time>2017-07-15T15:07:33Z</time>
            </trkpt>
            <trkpt lat="46.515800" lon="10.409280">
                <time>2017-07-15T15:07:34Z</time>
            </trkpt>
            <trkpt lat="46.515800" lon="10.409280">
                <time>2017-07-15T15:07:35Z</time>
            </trkpt>
            <trkpt lat="46.515800" lon="10.409280">
                <time>2017-07-15T15:07:36Z</time>
            </trkpt>
            <trkpt lat="46.515800" lon="10.409280">
                <time>2017-07-15T15:07:37Z</time>
            </trkpt>
            <trkpt lat="46.515800" lon="10.409280">
                <time>2017-07-15T15:07:38Z</time>
            </trkpt>
            <trkpt lat="46.515800" lon="10.409280">
                <time>2017-07-15T15:07:39Z</time>
            </trkpt>
            <trkpt lat="46.515800" lon="10.409280">
                <time>2017-07-15T15:07:40Z</time>
            </trkpt>
            <trkpt lat="46.515800" lon="10.409280">
                <time>2017-07-15T15:07:41Z</time>
            </trkpt>
            <trkpt lat="46.515800" lon="10.409280">
                <time>2017-07-15T15:07:42Z</time>
            </trkpt>
            <trkpt lat="46.515800" lon="10.409270">
                <time>2017-07-15T15:07:43Z</time>
            </trkpt>
            <trkpt lat="46.515820" lon="10.409260">
                <time>2017-07-15T15:07:44Z</time>
            </trkpt>
            <trkpt lat="46.515850" lon="10.409270">
                <time>2017-07-15T15:07:45Z</time>
            </trkpt>
            <trkpt lat="46.515900" lon="10.409260">
                <time>2017-07-15T15:07:46Z</time>
            </trkpt>
            <trkpt lat="46.515960" lon="10.409240">
                <time>2017-07-15T15:07:47Z</time>
            </trkpt>
            <trkpt lat="46.516030" lon="10.409180">
                <time>2017-07-15T15:07:48Z</time>
            </trkpt>
            <trkpt lat="46.516100" lon="10.409130">
                <time>2017-07-15T15:07:49Z</time>
            </trkpt>
            <trkpt lat="46.516200" lon="10.409080">
                <time>2017-07-15T15:07:50Z</time>
            </trkpt>
            <trkpt lat="46.516300" lon="10.409040">
                <time>2017-07-15T15:07:51Z</time>
            </trkpt>
            <trkpt lat="46.516410" lon="10.409020">
                <time>2017-07-15T15:07:52Z</time>
            </trkpt>
            <trkpt lat="46.516540" lon="10.408990">
                <time>2017-07-15T15:07:53Z</time>
            </trkpt>
            <trkpt lat="46.516690" lon="10.408950">
                <time>2017-07-15T15:07:54Z</time>
            </trkpt>
            <trkpt lat="46.516830" lon="10.408940">
                <time>2017-07-15T15:07:55Z</time>
            </trkpt>
            <trkpt lat="46.516990" lon="10.408900">
                <time>2017-07-15T15:07:56Z</time>
            </trkpt>
            <trkpt lat="46.517130" lon="10.408850">
                <time>2017-07-15T15:07:57Z</time>
            </trkpt>
            <trkpt lat="46.517280" lon="10.408760">
                <time>2017-07-15T15:07:58Z</time>
            </trkpt>
            <trkpt lat="46.517410" lon="10.408650">
                <time>2017-07-15T15:07:59Z</time>
            </trkpt>
            <trkpt lat="46.517500" lon="10.408520">
                <time>2017-07-15T15:08:00Z</time>
            </trkpt>
            <trkpt lat="46.517580" lon="10.408360">
                <time>2017-07-15T15:08:01Z</time>
            </trkpt>
            <trkpt lat="46.517660" lon="10.408210">
                <time>2017-07-15T15:08:02Z</time>
            </trkpt>
            <trkpt lat="46.517730" lon="10.408080">
                <time>2017-07-15T15:08:03Z</time>
            </trkpt>
            <trkpt lat="46.517830" lon="10.407970">
                <time>2017-07-15T15:08:04Z</time>
            </trkpt>
            <trkpt lat="46.517930" lon="10.407890">
                <time>2017-07-15T15:08:05Z</time>
            </trkpt>
            <trkpt lat="46.518070" lon="10.407820">
                <time>2017-07-15T15:08:06Z</time>
            </trkpt>
            <trkpt lat="46.518220" lon="10.407730">
                <time>2017-07-15T15:08:07Z</time>
            </trkpt>
            <trkpt lat="46.518360" lon="10.407630">
                <time>2017-07-15T15:08:08Z</time>
            </trkpt>
            <trkpt lat="46.518500" lon="10.407510">
                <time>2017-07-15T15:08:09Z</time>
            </trkpt>
            <trkpt lat="46.518630" lon="10.407390">
                <time>2017-07-15T15:08:10Z</time>
            </trkpt>
            <trkpt lat="46.518730" lon="10.407280">
                <time>2017-07-15T15:08:11Z</time>
            </trkpt>
            <trkpt lat="46.518830" lon="10.407180">
                <time>2017-07-15T15:08:12Z</time>
            </trkpt>
            <trkpt lat="46.518910" lon="10.407110">
                <time>2017-07-15T15:08:13Z</time>
            </trkpt>
            <trkpt lat="46.518980" lon="10.407060">
                <time>2017-07-15T15:08:14Z</time>
            </trkpt>
            <trkpt lat="46.519050" lon="10.407060">
                <time>2017-07-15T15:08:15Z</time>
            </trkpt>
            <trkpt lat="46.519080" lon="10.407110">
                <time>2017-07-15T15:08:16Z</time>
            </trkpt>
            <trkpt lat="46.519090" lon="10.407200">
                <time>2017-07-15T15:08:17Z</time>
            </trkpt>
            <trkpt lat="46.519070" lon="10.407300">
                <time>2017-07-15T15:08:18Z</time>
            </trkpt>
            <trkpt lat="46.519020" lon="10.407400">
                <time>2017-07-15T15:08:19Z</time>
            </trkpt>
            <trkpt lat="46.518950" lon="10.407530">
                <time>2017-07-15T15:08:20Z</time>
            </trkpt>
            <trkpt lat="46.518900" lon="10.407670">
                <time>2017-07-15T15:08:21Z</time>
            </trkpt>
            <trkpt lat="46.518880" lon="10.407860">
                <time>2017-07-15T15:08:22Z</time>
            </trkpt>
            <trkpt lat="46.518850" lon="10.408080">
                <time>2017-07-15T15:08:23Z</time>
            </trkpt>
            <trkpt lat="46.518820" lon="10.408270">
                <time>2017-07-15T15:08:24Z</time>
            </trkpt>
            <trkpt lat="46.518760" lon="10.408450">
                <time>2017-07-15T15:08:25Z</time>
            </trkpt>
            <trkpt lat="46.518680" lon="10.408630">
                <time>2017-07-15T15:08:26Z</time>
            </trkpt>
            <trkpt lat="46.518580" lon="10.408750">
                <time>2017-07-15T15:08:27Z</time>
            </trkpt>
            <trkpt lat="46.518450" lon="10.408850">
                <time>2017-07-15T15:08:28Z</time>
            </trkpt>
            <trkpt lat="46.518320" lon="10.408910">
                <time>2017-07-15T15:08:29Z</time>
            </trkpt>
            <trkpt lat="46.518190" lon="10.408970">
                <time>2017-07-15T15:08:30Z</time>
            </trkpt>
            <trkpt lat="46.518060" lon="10.409020">
                <time>2017-07-15T15:08:31Z</time>
            </trkpt>
            <trkpt lat="46.517960" lon="10.409040">
                <time>2017-07-15T15:08:32Z</time>
            </trkpt>
            <trkpt lat="46.517880" lon="10.409070">
                <time>2017-07-15T15:08:33Z</time>
            </trkpt>
            <trkpt lat="46.517810" lon="10.409120">
                <time>2017-07-15T15:08:34Z</time>
            </trkpt>
            <trkpt lat="46.517780" lon="10.409200">
                <time>2017-07-15T15:08:35Z</time>
            </trkpt>
            <trkpt lat="46.517760" lon="10.409290">
                <time>2017-07-15T15:08:36Z</time>
            </trkpt>
            <trkpt lat="46.517770" lon="10.409360">
                <time>2017-07-15T15:08:37Z</time>
            </trkpt>
            <trkpt lat="46.517830" lon="10.409380">
                <time>2017-07-15T15:08:38Z</time>
            </trkpt>
            <trkpt lat="46.518030" lon="10.409300">
                <time>2017-07-15T15:08:39Z</time>
            </trkpt>
            <trkpt lat="46.518160" lon="10.409260">
                <time>2017-07-15T15:08:40Z</time>
            </trkpt>
            <trkpt lat="46.518320" lon="10.409220">
                <time>2017-07-15T15:08:41Z</time>
            </trkpt>
            <trkpt lat="46.518490" lon="10.409180">
                <time>2017-07-15T15:08:42Z</time>
            </trkpt>
            <trkpt lat="46.518650" lon="10.409140">
                <time>2017-07-15T15:08:43Z</time>
            </trkpt>
            <trkpt lat="46.518830" lon="10.409090">
                <time>2017-07-15T15:08:44Z</time>
            </trkpt>
            <trkpt lat="46.518990" lon="10.409030">
                <time>2017-07-15T15:08:45Z</time>
            </trkpt>
            <trkpt lat="46.519150" lon="10.408960">
                <time>2017-07-15T15:08:46Z</time>
            </trkpt>
            <trkpt lat="46.519310" lon="10.408880">
                <time>2017-07-15T15:08:47Z</time>
            </trkpt>
            <trkpt lat="46.519440" lon="10.408820">
                <time>2017-07-15T15:08:48Z</time>
            </trkpt>
            <trkpt lat="46.519580" lon="10.408740">
                <time>2017-07-15T15:08:49Z</time>
            </trkpt>
            <trkpt lat="46.519720" lon="10.408670">
                <time>2017-07-15T15:08:50Z</time>
            </trkpt>
            <trkpt lat="46.519860" lon="10.408650">
                <time>2017-07-15T15:08:51Z</time>
            </trkpt>
            <trkpt lat="46.520010" lon="10.408660">
                <time>2017-07-15T15:08:52Z</time>
            </trkpt>
            <trkpt lat="46.520140" lon="10.408710">
                <time>2017-07-15T15:08:53Z</time>
            </trkpt>
            <trkpt lat="46.520280" lon="10.408780">
                <time>2017-07-15T15:08:54Z</time>
            </trkpt>
            <trkpt lat="46.520440" lon="10.408860">
                <time>2017-07-15T15:08:55Z</time>
            </trkpt>
            <trkpt lat="46.520590" lon="10.408920">
                <time>2017-07-15T15:08:56Z</time>
            </trkpt>
            <trkpt lat="46.520760" lon="10.408970">
                <time>2017-07-15T15:08:57Z</time>
            </trkpt>
            <trkpt lat="46.520930" lon="10.409000">
                <time>2017-07-15T15:08:58Z</time>
            </trkpt>
            <trkpt lat="46.521080" lon="10.409030">
                <time>2017-07-15T15:08:59Z</time>
            </trkpt>
            <trkpt lat="46.521240" lon="10.409060">
                <time>2017-07-15T15:09:00Z</time>
            </trkpt>
            <trkpt lat="46.521380" lon="10.409090">
                <time>2017-07-15T15:09:01Z</time>
            </trkpt>
            <trkpt lat="46.521530" lon="10.409110">
                <time>2017-07-15T15:09:02Z</time>
            </trkpt>
            <trkpt lat="46.521690" lon="10.409140">
                <time>2017-07-15T15:09:03Z</time>
            </trkpt>
            <trkpt lat="46.521830" lon="10.409170">
                <time>2017-07-15T15:09:04Z</time>
            </trkpt>
            <trkpt lat="46.521980" lon="10.409180">
                <time>2017-07-15T15:09:05Z</time>
            </trkpt>
            <trkpt lat="46.522120" lon="10.409220">
                <time>2017-07-15T15:09:06Z</time>
            </trkpt>
            <trkpt lat="46.522250" lon="10.409280">
                <time>2017-07-15T15:09:07Z</time>
            </trkpt>
            <trkpt lat="46.522390" lon="10.409380">
                <time>2017-07-15T15:09:08Z</time>
            </trkpt>
            <trkpt lat="46.522490" lon="10.409490">
                <time>2017-07-15T15:09:09Z</time>
            </trkpt>
            <trkpt lat="46.522580" lon="10.409580">
                <time>2017-07-15T15:09:10Z</time>
            </trkpt>
            <trkpt lat="46.522690" lon="10.409630">
                <time>2017-07-15T15:09:11Z</time>
            </trkpt>
            <trkpt lat="46.522790" lon="10.409630">
                <time>2017-07-15T15:09:12Z</time>
            </trkpt>
            <trkpt lat="46.522910" lon="10.409570">
                <time>2017-07-15T15:09:13Z</time>
            </trkpt>
            <trkpt lat="46.523030" lon="10.409450">
                <time>2017-07-15T15:09:14Z</time>
            </trkpt>
            <trkpt lat="46.523140" lon="10.409300">
                <time>2017-07-15T15:09:15Z</time>
            </trkpt>
            <trkpt lat="46.523270" lon="10.409140">
                <time>2017-07-15T15:09:16Z</time>
            </trkpt>
            <trkpt lat="46.523380" lon="10.409020">
                <time>2017-07-15T15:09:17Z</time>
            </trkpt>
            <trkpt lat="46.523510" lon="10.408930">
                <time>2017-07-15T15:09:18Z</time>
            </trkpt>
            <trkpt lat="46.523650" lon="10.408850">
                <time>2017-07-15T15:09:19Z</time>
            </trkpt>
            <trkpt lat="46.523770" lon="10.408830">
                <time>2017-07-15T15:09:20Z</time>
            </trkpt>
            <trkpt lat="46.523890" lon="10.408820">
                <time>2017-07-15T15:09:21Z</time>
            </trkpt>
            <trkpt lat="46.524010" lon="10.408850">
                <time>2017-07-15T15:09:22Z</time>
            </trkpt>
            <trkpt lat="46.524140" lon="10.408980">
                <time>2017-07-15T15:09:23Z</time>
            </trkpt>
            <trkpt lat="46.524290" lon="10.409070">
                <time>2017-07-15T15:09:24Z</time>
            </trkpt>
            <trkpt lat="46.524420" lon="10.409090">
                <time>2017-07-15T15:09:25Z</time>
            </trkpt>
            <trkpt lat="46.524570" lon="10.409070">
                <time>2017-07-15T15:09:26Z</time>
            </trkpt>
            <trkpt lat="46.524740" lon="10.409020">
                <time>2017-07-15T15:09:27Z</time>
            </trkpt>
            <trkpt lat="46.524890" lon="10.408980">
                <time>2017-07-15T15:09:28Z</time>
            </trkpt>
            <trkpt lat="46.525060" lon="10.408930">
                <time>2017-07-15T15:09:29Z</time>
            </trkpt>
            <trkpt lat="46.525250" lon="10.408890">
                <time>2017-07-15T15:09:30Z</time>
            </trkpt>
            <trkpt lat="46.525420" lon="10.408840">
                <time>2017-07-15T15:09:31Z</time>
            </trkpt>
            <trkpt lat="46.525610" lon="10.408790">
                <time>2017-07-15T15:09:32Z</time>
            </trkpt>
            <trkpt lat="46.525770" lon="10.408730">
                <time>2017-07-15T15:09:33Z</time>
            </trkpt>
            <trkpt lat="46.525960" lon="10.408670">
                <time>2017-07-15T15:09:34Z</time>
            </trkpt>
            <trkpt lat="46.526150" lon="10.408620">
                <time>2017-07-15T15:09:35Z</time>
            </trkpt>
            <trkpt lat="46.526320" lon="10.408570">
                <time>2017-07-15T15:09:36Z</time>
            </trkpt>
            <trkpt lat="46.526490" lon="10.408540">
                <time>2017-07-15T15:09:37Z</time>
            </trkpt>
            <trkpt lat="46.526640" lon="10.408520">
                <time>2017-07-15T15:09:38Z</time>
            </trkpt>
            <trkpt lat="46.526790" lon="10.408530">
                <time>2017-07-15T15:09:39Z</time>
            </trkpt>
            <trkpt lat="46.526950" lon="10.408580">
                <time>2017-07-15T15:09:40Z</time>
            </trkpt>
            <trkpt lat="46.527090" lon="10.408670">
                <time>2017-07-15T15:09:41Z</time>
            </trkpt>
            <trkpt lat="46.527220" lon="10.408820">
                <time>2017-07-15T15:09:42Z</time>
            </trkpt>
            <trkpt lat="46.527370" lon="10.408980">
                <time>2017-07-15T15:09:43Z</time>
            </trkpt>
            <trkpt lat="46.527500" lon="10.409130">
                <time>2017-07-15T15:09:44Z</time>
            </trkpt>
            <trkpt lat="46.527630" lon="10.409270">
                <time>2017-07-15T15:09:45Z</time>
            </trkpt>
            <trkpt lat="46.527790" lon="10.409410">
                <time>2017-07-15T15:09:46Z</time>
            </trkpt>
            <trkpt lat="46.527930" lon="10.409490">
                <time>2017-07-15T15:09:47Z</time>
            </trkpt>
            <trkpt lat="46.528100" lon="10.409530">
                <time>2017-07-15T15:09:48Z</time>
            </trkpt>
            <trkpt lat="46.528270" lon="10.409560">
                <time>2017-07-15T15:09:49Z</time>
            </trkpt>
            <trkpt lat="46.528440" lon="10.409590">
                <time>2017-07-15T15:09:50Z</time>
            </trkpt>
            <trkpt lat="46.528640" lon="10.409620">
                <time>2017-07-15T15:09:51Z</time>
            </trkpt>
            <trkpt lat="46.528810" lon="10.409620">
                <time>2017-07-15T15:09:52Z</time>
            </trkpt>
            <trkpt lat="46.529010" lon="10.409580">
                <time>2017-07-15T15:09:53Z</time>
            </trkpt>
            <trkpt lat="46.529200" lon="10.409520">
                <time>2017-07-15T15:09:54Z</time>
            </trkpt>
            <trkpt lat="46.529390" lon="10.409440">
                <time>2017-07-15T15:09:55Z</time>
            </trkpt>
            <trkpt lat="46.529590" lon="10.409350">
                <time>2017-07-15T15:09:56Z</time>
            </trkpt>
            <trkpt lat="46.529760" lon="10.409280">
                <time>2017-07-15T15:09:57Z</time>
            </trkpt>
            <trkpt lat="46.529940" lon="10.409240">
                <time>2017-07-15T15:09:58Z</time>
            </trkpt>
            <trkpt lat="46.530140" lon="10.409240">
                <time>2017-07-15T15:09:59Z</time>
            </trkpt>
            <trkpt lat="46.530320" lon="10.409260">
                <time>2017-07-15T15:10:00Z</time>
            </trkpt>
            <trkpt lat="46.530520" lon="10.409290">
                <time>2017-07-15T15:10:01Z</time>
            </trkpt>
            <trkpt lat="46.530730" lon="10.409320">
                <time>2017-07-15T15:10:02Z</time>
            </trkpt>
            <trkpt lat="46.530910" lon="10.409350">
                <time>2017-07-15T15:10:03Z</time>
            </trkpt>
            <trkpt lat="46.531080" lon="10.409360">
                <time>2017-07-15T15:10:04Z</time>
            </trkpt>
            <trkpt lat="46.531230" lon="10.409380">
                <time>2017-07-15T15:10:05Z</time>
            </trkpt>
            <trkpt lat="46.531370" lon="10.409400">
                <time>2017-07-15T15:10:06Z</time>
            </trkpt>
            <trkpt lat="46.531530" lon="10.409420">
                <time>2017-07-15T15:10:07Z</time>
            </trkpt>
            <trkpt lat="46.531670" lon="10.409440">
                <time>2017-07-15T15:10:08Z</time>
            </trkpt>
            <trkpt lat="46.531830" lon="10.409470">
                <time>2017-07-15T15:10:09Z</time>
            </trkpt>
            <trkpt lat="46.531990" lon="10.409500">
                <time>2017-07-15T15:10:10Z</time>
            </trkpt>
            <trkpt lat="46.532160" lon="10.409570">
                <time>2017-07-15T15:10:11Z</time>
            </trkpt>
            <trkpt lat="46.532340" lon="10.409680">
                <time>2017-07-15T15:10:12Z</time>
            </trkpt>
            <trkpt lat="46.532510" lon="10.409780">
                <time>2017-07-15T15:10:13Z</time>
            </trkpt>
            <trkpt lat="46.532680" lon="10.409880">
                <time>2017-07-15T15:10:14Z</time>
            </trkpt>
            <trkpt lat="46.532880" lon="10.409990">
                <time>2017-07-15T15:10:15Z</time>
            </trkpt>
            <trkpt lat="46.533050" lon="10.410090">
                <time>2017-07-15T15:10:16Z</time>
            </trkpt>
            <trkpt lat="46.533230" lon="10.410190">
                <time>2017-07-15T15:10:17Z</time>
            </trkpt>
            <trkpt lat="46.533400" lon="10.410290">
                <time>2017-07-15T15:10:18Z</time>
            </trkpt>
            <trkpt lat="46.533530" lon="10.410370">
                <time>2017-07-15T15:10:19Z</time>
            </trkpt>
            <trkpt lat="46.533690" lon="10.410450">
                <time>2017-07-15T15:10:20Z</time>
            </trkpt>
            <trkpt lat="46.533820" lon="10.410530">
                <time>2017-07-15T15:10:21Z</time>
            </trkpt>
            <trkpt lat="46.533950" lon="10.410640">
                <time>2017-07-15T15:10:22Z</time>
            </trkpt>
            <trkpt lat="46.534080" lon="10.410790">
                <time>2017-07-15T15:10:23Z</time>
            </trkpt>
            <trkpt lat="46.534190" lon="10.410960">
                <time>2017-07-15T15:10:24Z</time>
            </trkpt>
            <trkpt lat="46.534300" lon="10.411150">
                <time>2017-07-15T15:10:25Z</time>
            </trkpt>
            <trkpt lat="46.534400" lon="10.411310">
                <time>2017-07-15T15:10:26Z</time>
            </trkpt>
            <trkpt lat="46.534480" lon="10.411460">
                <time>2017-07-15T15:10:27Z</time>
            </trkpt>
            <trkpt lat="46.534550" lon="10.411580">
                <time>2017-07-15T15:10:28Z</time>
            </trkpt>
            <trkpt lat="46.534610" lon="10.411680">
                <time>2017-07-15T15:10:29Z</time>
            </trkpt>
            <trkpt lat="46.534680" lon="10.411760">
                <time>2017-07-15T15:10:30Z</time>
            </trkpt>
            <trkpt lat="46.534760" lon="10.411830">
                <time>2017-07-15T15:10:31Z</time>
            </trkpt>
            <trkpt lat="46.534860" lon="10.411860">
                <time>2017-07-15T15:10:32Z</time>
            </trkpt>
            <trkpt lat="46.534960" lon="10.411900">
                <time>2017-07-15T15:10:33Z</time>
            </trkpt>
            <trkpt lat="46.535080" lon="10.411930">
                <time>2017-07-15T15:10:34Z</time>
            </trkpt>
            <trkpt lat="46.535210" lon="10.411940">
                <time>2017-07-15T15:10:35Z</time>
            </trkpt>
            <trkpt lat="46.535360" lon="10.411940">
                <time>2017-07-15T15:10:36Z</time>
            </trkpt>
            <trkpt lat="46.535500" lon="10.411930">
                <time>2017-07-15T15:10:37Z</time>
            </trkpt>
            <trkpt lat="46.535650" lon="10.411910">
                <time>2017-07-15T15:10:38Z</time>
            </trkpt>
            <trkpt lat="46.535800" lon="10.411900">
                <time>2017-07-15T15:10:39Z</time>
            </trkpt>
            <trkpt lat="46.535920" lon="10.411910">
                <time>2017-07-15T15:10:40Z</time>
            </trkpt>
            <trkpt lat="46.536040" lon="10.411950">
                <time>2017-07-15T15:10:41Z</time>
            </trkpt>
            <trkpt lat="46.536150" lon="10.412030">
                <time>2017-07-15T15:10:42Z</time>
            </trkpt>
            <trkpt lat="46.536260" lon="10.412160">
                <time>2017-07-15T15:10:43Z</time>
            </trkpt>
            <trkpt lat="46.536380" lon="10.412320">
                <time>2017-07-15T15:10:44Z</time>
            </trkpt>
            <trkpt lat="46.536480" lon="10.412470">
                <time>2017-07-15T15:10:45Z</time>
            </trkpt>
            <trkpt lat="46.536600" lon="10.412620">
                <time>2017-07-15T15:10:46Z</time>
            </trkpt>
            <trkpt lat="46.536720" lon="10.412750">
                <time>2017-07-15T15:10:47Z</time>
            </trkpt>
            <trkpt lat="46.536840" lon="10.412850">
                <time>2017-07-15T15:10:48Z</time>
            </trkpt>
            <trkpt lat="46.537000" lon="10.412930">
                <time>2017-07-15T15:10:49Z</time>
            </trkpt>
            <trkpt lat="46.537160" lon="10.412960">
                <time>2017-07-15T15:10:50Z</time>
            </trkpt>
            <trkpt lat="46.537310" lon="10.412980">
                <time>2017-07-15T15:10:51Z</time>
            </trkpt>
            <trkpt lat="46.537470" lon="10.412990">
                <time>2017-07-15T15:10:52Z</time>
            </trkpt>
            <trkpt lat="46.537610" lon="10.413010">
                <time>2017-07-15T15:10:53Z</time>
            </trkpt>
            <trkpt lat="46.537740" lon="10.413050">
                <time>2017-07-15T15:10:54Z</time>
            </trkpt>
            <trkpt lat="46.537880" lon="10.413130">
                <time>2017-07-15T15:10:55Z</time>
            </trkpt>
            <trkpt lat="46.538000" lon="10.413240">
                <time>2017-07-15T15:10:56Z</time>
            </trkpt>
            <trkpt lat="46.538110" lon="10.413400">
                <time>2017-07-15T15:10:57Z</time>
            </trkpt>
            <trkpt lat="46.538230" lon="10.413580">
                <time>2017-07-15T15:10:58Z</time>
            </trkpt>
            <trkpt lat="46.538360" lon="10.413780">
                <time>2017-07-15T15:10:59Z</time>
            </trkpt>
            <trkpt lat="46.538500" lon="10.413990">
                <time>2017-07-15T15:11:00Z</time>
            </trkpt>
            <trkpt lat="46.538620" lon="10.414190">
                <time>2017-07-15T15:11:01Z</time>
            </trkpt>
            <trkpt lat="46.538760" lon="10.414400">
                <time>2017-07-15T15:11:02Z</time>
            </trkpt>
            <trkpt lat="46.538900" lon="10.414630">
                <time>2017-07-15T15:11:03Z</time>
            </trkpt>
            <trkpt lat="46.539030" lon="10.414830">
                <time>2017-07-15T15:11:04Z</time>
            </trkpt>
            <trkpt lat="46.539170" lon="10.415040">
                <time>2017-07-15T15:11:05Z</time>
            </trkpt>
            <trkpt lat="46.539310" lon="10.415260">
                <time>2017-07-15T15:11:06Z</time>
            </trkpt>
            <trkpt lat="46.539440" lon="10.415450">
                <time>2017-07-15T15:11:07Z</time>
            </trkpt>
            <trkpt lat="46.539590" lon="10.415680">
                <time>2017-07-15T15:11:08Z</time>
            </trkpt>
            <trkpt lat="46.539710" lon="10.415870">
                <time>2017-07-15T15:11:09Z</time>
            </trkpt>
            <trkpt lat="46.539840" lon="10.416070">
                <time>2017-07-15T15:11:10Z</time>
            </trkpt>
            <trkpt lat="46.539970" lon="10.416290">
                <time>2017-07-15T15:11:11Z</time>
            </trkpt>
            <trkpt lat="46.540070" lon="10.416490">
                <time>2017-07-15T15:11:12Z</time>
            </trkpt>
            <trkpt lat="46.540170" lon="10.416740">
                <time>2017-07-15T15:11:13Z</time>
            </trkpt>
            <trkpt lat="46.540240" lon="10.417000">
                <time>2017-07-15T15:11:14Z</time>
            </trkpt>
            <trkpt lat="46.540300" lon="10.417300">
                <time>2017-07-15T15:11:15Z</time>
            </trkpt>
            <trkpt lat="46.540330" lon="10.417610">
                <time>2017-07-15T15:11:16Z</time>
            </trkpt>
            <trkpt lat="46.540360" lon="10.417900">
                <time>2017-07-15T15:11:17Z</time>
            </trkpt>
            <trkpt lat="46.540390" lon="10.418210">
                <time>2017-07-15T15:11:18Z</time>
            </trkpt>
            <trkpt lat="46.540420" lon="10.418550">
                <time>2017-07-15T15:11:19Z</time>
            </trkpt>
            <trkpt lat="46.540440" lon="10.418840">
                <time>2017-07-15T15:11:20Z</time>
            </trkpt>
            <trkpt lat="46.540470" lon="10.419170">
                <time>2017-07-15T15:11:21Z</time>
            </trkpt>
            <trkpt lat="46.540500" lon="10.419510">
                <time>2017-07-15T15:11:22Z</time>
            </trkpt>
            <trkpt lat="46.540520" lon="10.419810">
                <time>2017-07-15T15:11:23Z</time>
            </trkpt>
            <trkpt lat="46.540550" lon="10.420140">
                <time>2017-07-15T15:11:24Z</time>
            </trkpt>
            <trkpt lat="46.540570" lon="10.420440">
                <time>2017-07-15T15:11:25Z</time>
            </trkpt>
            <trkpt lat="46.540600" lon="10.420740">
                <time>2017-07-15T15:11:26Z</time>
            </trkpt>
            <trkpt lat="46.540620" lon="10.421060">
                <time>2017-07-15T15:11:27Z</time>
            </trkpt>
            <trkpt lat="46.540650" lon="10.421320">
                <time>2017-07-15T15:11:28Z</time>
            </trkpt>
            <trkpt lat="46.540670" lon="10.421610">
                <time>2017-07-15T15:11:29Z</time>
            </trkpt>
            <trkpt lat="46.540700" lon="10.421900">
                <time>2017-07-15T15:11:30Z</time>
            </trkpt>
            <trkpt lat="46.540720" lon="10.422170">
                <time>2017-07-15T15:11:31Z</time>
            </trkpt>
            <trkpt lat="46.540750" lon="10.422470">
                <time>2017-07-15T15:11:32Z</time>
            </trkpt>
            <trkpt lat="46.540770" lon="10.422730">
                <time>2017-07-15T15:11:33Z</time>
            </trkpt>
            <trkpt lat="46.540800" lon="10.423000">
                <time>2017-07-15T15:11:34Z</time>
            </trkpt>
            <trkpt lat="46.540820" lon="10.423300">
                <time>2017-07-15T15:11:35Z</time>
            </trkpt>
            <trkpt lat="46.540840" lon="10.423550">
                <time>2017-07-15T15:11:36Z</time>
            </trkpt>
            <trkpt lat="46.540870" lon="10.423820">
                <time>2017-07-15T15:11:37Z</time>
            </trkpt>
            <trkpt lat="46.540890" lon="10.424100">
                <time>2017-07-15T15:11:38Z</time>
            </trkpt>
            <trkpt lat="46.540910" lon="10.424350">
                <time>2017-07-15T15:11:39Z</time>
            </trkpt>
            <trkpt lat="46.540930" lon="10.424620">
                <time>2017-07-15T15:11:40Z</time>
            </trkpt>
            <trkpt lat="46.540960" lon="10.424870">
                <time>2017-07-15T15:11:41Z</time>
            </trkpt>
            <trkpt lat="46.540980" lon="10.425140">
                <time>2017-07-15T15:11:42Z</time>
            </trkpt>
            <trkpt lat="46.541010" lon="10.425430">
                <time>2017-07-15T15:11:43Z</time>
            </trkpt>
            <trkpt lat="46.541030" lon="10.425700">
                <time>2017-07-15T15:11:44Z</time>
            </trkpt>
            <trkpt lat="46.541030" lon="10.425980">
                <time>2017-07-15T15:11:45Z</time>
            </trkpt>
            <trkpt lat="46.541040" lon="10.426290">
                <time>2017-07-15T15:11:46Z</time>
            </trkpt>
            <trkpt lat="46.541020" lon="10.426600">
                <time>2017-07-15T15:11:47Z</time>
            </trkpt>
            <trkpt lat="46.541000" lon="10.426930">
                <time>2017-07-15T15:11:48Z</time>
            </trkpt>
            <trkpt lat="46.540970" lon="10.427220">
                <time>2017-07-15T15:11:49Z</time>
            </trkpt>
            <trkpt lat="46.540940" lon="10.427530">
                <time>2017-07-15T15:11:50Z</time>
            </trkpt>
            <trkpt lat="46.540900" lon="10.427840">
                <time>2017-07-15T15:11:51Z</time>
            </trkpt>
            <trkpt lat="46.540870" lon="10.428110">
                <time>2017-07-15T15:11:52Z</time>
            </trkpt>
            <trkpt lat="46.540820" lon="10.428390">
                <time>2017-07-15T15:11:53Z</time>
            </trkpt>
            <trkpt lat="46.540750" lon="10.428690">
                <time>2017-07-15T15:11:54Z</time>
            </trkpt>
            <trkpt lat="46.540680" lon="10.428950">
                <time>2017-07-15T15:11:55Z</time>
            </trkpt>
            <trkpt lat="46.540590" lon="10.429240">
                <time>2017-07-15T15:11:56Z</time>
            </trkpt>
            <trkpt lat="46.540510" lon="10.429480">
                <time>2017-07-15T15:11:57Z</time>
            </trkpt>
            <trkpt lat="46.540410" lon="10.429750">
                <time>2017-07-15T15:11:58Z</time>
            </trkpt>
            <trkpt lat="46.540280" lon="10.430010">
                <time>2017-07-15T15:11:59Z</time>
            </trkpt>
            <trkpt lat="46.540180" lon="10.430230">
                <time>2017-07-15T15:12:00Z</time>
            </trkpt>
            <trkpt lat="46.540060" lon="10.430470">
                <time>2017-07-15T15:12:01Z</time>
            </trkpt>
            <trkpt lat="46.539930" lon="10.430690">
                <time>2017-07-15T15:12:02Z</time>
            </trkpt>
            <trkpt lat="46.539770" lon="10.430890">
                <time>2017-07-15T15:12:03Z</time>
            </trkpt>
            <trkpt lat="46.539600" lon="10.431100">
                <time>2017-07-15T15:12:04Z</time>
            </trkpt>
            <trkpt lat="46.539440" lon="10.431280">
                <time>2017-07-15T15:12:05Z</time>
            </trkpt>
            <trkpt lat="46.539290" lon="10.431450">
                <time>2017-07-15T15:12:06Z</time>
            </trkpt>
            <trkpt lat="46.539160" lon="10.431600">
                <time>2017-07-15T15:12:07Z</time>
            </trkpt>
            <trkpt lat="46.539060" lon="10.431700">
                <time>2017-07-15T15:12:08Z</time>
            </trkpt>
            <trkpt lat="46.538990" lon="10.431780">
                <time>2017-07-15T15:12:09Z</time>
            </trkpt>
            <trkpt lat="46.538910" lon="10.431860">
                <time>2017-07-15T15:12:10Z</time>
            </trkpt>
            <trkpt lat="46.538830" lon="10.431950">
                <time>2017-07-15T15:12:11Z</time>
            </trkpt>
            <trkpt lat="46.538720" lon="10.432040">
                <time>2017-07-15T15:12:12Z</time>
            </trkpt>
            <trkpt lat="46.538610" lon="10.432110">
                <time>2017-07-15T15:12:13Z</time>
            </trkpt>
            <trkpt lat="46.538490" lon="10.432170">
                <time>2017-07-15T15:12:14Z</time>
            </trkpt>
            <trkpt lat="46.538400" lon="10.432230">
                <time>2017-07-15T15:12:15Z</time>
            </trkpt>
            <trkpt lat="46.538340" lon="10.432290">
                <time>2017-07-15T15:12:16Z</time>
            </trkpt>
            <trkpt lat="46.538340" lon="10.432370">
                <time>2017-07-15T15:12:17Z</time>
            </trkpt>
            <trkpt lat="46.538380" lon="10.432410">
                <time>2017-07-15T15:12:18Z</time>
            </trkpt>
            <trkpt lat="46.538440" lon="10.432410">
                <time>2017-07-15T15:12:19Z</time>
            </trkpt>
            <trkpt lat="46.538540" lon="10.432360">
                <time>2017-07-15T15:12:20Z</time>
            </trkpt>
            <trkpt lat="46.538650" lon="10.432310">
                <time>2017-07-15T15:12:21Z</time>
            </trkpt>
            <trkpt lat="46.538790" lon="10.432240">
                <time>2017-07-15T15:12:22Z</time>
            </trkpt>
            <trkpt lat="46.538950" lon="10.432170">
                <time>2017-07-15T15:12:23Z</time>
            </trkpt>
            <trkpt lat="46.539110" lon="10.432100">
                <time>2017-07-15T15:12:24Z</time>
            </trkpt>
            <trkpt lat="46.539280" lon="10.432020">
                <time>2017-07-15T15:12:25Z</time>
            </trkpt>
            <trkpt lat="46.539450" lon="10.431950">
                <time>2017-07-15T15:12:26Z</time>
            </trkpt>
            <trkpt lat="46.539580" lon="10.431890">
                <time>2017-07-15T15:12:27Z</time>
            </trkpt>
            <trkpt lat="46.539680" lon="10.431840">
                <time>2017-07-15T15:12:28Z</time>
            </trkpt>
            <trkpt lat="46.539750" lon="10.431830">
                <time>2017-07-15T15:12:29Z</time>
            </trkpt>
            <trkpt lat="46.539780" lon="10.431870">
                <time>2017-07-15T15:12:30Z</time>
            </trkpt>
            <trkpt lat="46.539780" lon="10.431950">
                <time>2017-07-15T15:12:31Z</time>
            </trkpt>
            <trkpt lat="46.539730" lon="10.432000">
                <time>2017-07-15T15:12:32Z</time>
            </trkpt>
            <trkpt lat="46.539640" lon="10.432060">
                <time>2017-07-15T15:12:33Z</time>
            </trkpt>
            <trkpt lat="46.539540" lon="10.432150">
                <time>2017-07-15T15:12:34Z</time>
            </trkpt>
            <trkpt lat="46.539420" lon="10.432260">
                <time>2017-07-15T15:12:35Z</time>
            </trkpt>
            <trkpt lat="46.539280" lon="10.432410">
                <time>2017-07-15T15:12:36Z</time>
            </trkpt>
            <trkpt lat="46.539150" lon="10.432560">
                <time>2017-07-15T15:12:37Z</time>
            </trkpt>
            <trkpt lat="46.539000" lon="10.432720">
                <time>2017-07-15T15:12:38Z</time>
            </trkpt>
            <trkpt lat="46.538850" lon="10.432900">
                <time>2017-07-15T15:12:39Z</time>
            </trkpt>
            <trkpt lat="46.538710" lon="10.433060">
                <time>2017-07-15T15:12:40Z</time>
            </trkpt>
            <trkpt lat="46.538570" lon="10.433220">
                <time>2017-07-15T15:12:41Z</time>
            </trkpt>
            <trkpt lat="46.538440" lon="10.433380">
                <time>2017-07-15T15:12:42Z</time>
            </trkpt>
            <trkpt lat="46.538320" lon="10.433510">
                <time>2017-07-15T15:12:43Z</time>
            </trkpt>
            <trkpt lat="46.538200" lon="10.433630">
                <time>2017-07-15T15:12:44Z</time>
            </trkpt>
            <trkpt lat="46.538110" lon="10.433700">
                <time>2017-07-15T15:12:45Z</time>
            </trkpt>
            <trkpt lat="46.538040" lon="10.433760">
                <time>2017-07-15T15:12:46Z</time>
            </trkpt>
            <trkpt lat="46.537990" lon="10.433830">
                <time>2017-07-15T15:12:47Z</time>
            </trkpt>
            <trkpt lat="46.537980" lon="10.433910">
                <time>2017-07-15T15:12:48Z</time>
            </trkpt>
            <trkpt lat="46.538010" lon="10.433970">
                <time>2017-07-15T15:12:49Z</time>
            </trkpt>
            <trkpt lat="46.538090" lon="10.433970">
                <time>2017-07-15T15:12:50Z</time>
            </trkpt>
            <trkpt lat="46.538180" lon="10.433950">
                <time>2017-07-15T15:12:51Z</time>
            </trkpt>
            <trkpt lat="46.538300" lon="10.433900">
                <time>2017-07-15T15:12:52Z</time>
            </trkpt>
            <trkpt lat="46.538440" lon="10.433870">
                <time>2017-07-15T15:12:53Z</time>
            </trkpt>
            <trkpt lat="46.538590" lon="10.433830">
                <time>2017-07-15T15:12:54Z</time>
            </trkpt>
            <trkpt lat="46.538750" lon="10.433800">
                <time>2017-07-15T15:12:55Z</time>
            </trkpt>
            <trkpt lat="46.538900" lon="10.433760">
                <time>2017-07-15T15:12:56Z</time>
            </trkpt>
            <trkpt lat="46.539060" lon="10.433690">
                <time>2017-07-15T15:12:57Z</time>
            </trkpt>
            <trkpt lat="46.539220" lon="10.433620">
                <time>2017-07-15T15:12:58Z</time>
            </trkpt>
            <trkpt lat="46.539340" lon="10.433550">
                <time>2017-07-15T15:12:59Z</time>
            </trkpt>
            <trkpt lat="46.539460" lon="10.433460">
                <time>2017-07-15T15:13:00Z</time>
            </trkpt>
            <trkpt lat="46.539530" lon="10.433380">
                <time>2017-07-15T15:13:01Z</time>
            </trkpt>
            <trkpt lat="46.539600" lon="10.433310">
                <time>2017-07-15T15:13:02Z</time>
            </trkpt>
            <trkpt lat="46.539650" lon="10.433270">
                <time>2017-07-15T15:13:03Z</time>
            </trkpt>
            <trkpt lat="46.539700" lon="10.433260">
                <time>2017-07-15T15:13:04Z</time>
            </trkpt>
            <trkpt lat="46.539720" lon="10.433290">
                <time>2017-07-15T15:13:05Z</time>
            </trkpt>
            <trkpt lat="46.539720" lon="10.433340">
                <time>2017-07-15T15:13:06Z</time>
            </trkpt>
            <trkpt lat="46.539700" lon="10.433400">
                <time>2017-07-15T15:13:07Z</time>
            </trkpt>
            <trkpt lat="46.539660" lon="10.433480">
                <time>2017-07-15T15:13:08Z</time>
            </trkpt>
            <trkpt lat="46.539620" lon="10.433560">
                <time>2017-07-15T15:13:09Z</time>
            </trkpt>
            <trkpt lat="46.539570" lon="10.433670">
                <time>2017-07-15T15:13:10Z</time>
            </trkpt>
            <trkpt lat="46.539500" lon="10.433810">
                <time>2017-07-15T15:13:11Z</time>
            </trkpt>
            <trkpt lat="46.539430" lon="10.433930">
                <time>2017-07-15T15:13:12Z</time>
            </trkpt>
            <trkpt lat="46.539350" lon="10.434070">
                <time>2017-07-15T15:13:13Z</time>
            </trkpt>
            <trkpt lat="46.539260" lon="10.434210">
                <time>2017-07-15T15:13:14Z</time>
            </trkpt>
            <trkpt lat="46.539180" lon="10.434310">
                <time>2017-07-15T15:13:15Z</time>
            </trkpt>
            <trkpt lat="46.539090" lon="10.434390">
                <time>2017-07-15T15:13:16Z</time>
            </trkpt>
            <trkpt lat="46.538980" lon="10.434460">
                <time>2017-07-15T15:13:17Z</time>
            </trkpt>
            <trkpt lat="46.538880" lon="10.434530">
                <time>2017-07-15T15:13:18Z</time>
            </trkpt>
            <trkpt lat="46.538790" lon="10.434600">
                <time>2017-07-15T15:13:19Z</time>
            </trkpt>
            <trkpt lat="46.538700" lon="10.434650">
                <time>2017-07-15T15:13:20Z</time>
            </trkpt>
            <trkpt lat="46.538610" lon="10.434700">
                <time>2017-07-15T15:13:21Z</time>
            </trkpt>
            <trkpt lat="46.538510" lon="10.434770">
                <time>2017-07-15T15:13:22Z</time>
            </trkpt>
            <trkpt lat="46.538410" lon="10.434830">
                <time>2017-07-15T15:13:23Z</time>
            </trkpt>
            <trkpt lat="46.538300" lon="10.434910">
                <time>2017-07-15T15:13:24Z</time>
            </trkpt>
            <trkpt lat="46.538200" lon="10.434970">
                <time>2017-07-15T15:13:25Z</time>
            </trkpt>
            <trkpt lat="46.538080" lon="10.435040">
                <time>2017-07-15T15:13:26Z</time>
            </trkpt>
            <trkpt lat="46.537970" lon="10.435110">
                <time>2017-07-15T15:13:27Z</time>
            </trkpt>
            <trkpt lat="46.537860" lon="10.435180">
                <time>2017-07-15T15:13:28Z</time>
            </trkpt>
            <trkpt lat="46.537760" lon="10.435280">
                <time>2017-07-15T15:13:29Z</time>
            </trkpt>
            <trkpt lat="46.537660" lon="10.435410">
                <time>2017-07-15T15:13:30Z</time>
            </trkpt>
            <trkpt lat="46.537590" lon="10.435540">
                <time>2017-07-15T15:13:31Z</time>
            </trkpt>
            <trkpt lat="46.537520" lon="10.435720">
                <time>2017-07-15T15:13:32Z</time>
            </trkpt>
            <trkpt lat="46.537460" lon="10.435870">
                <time>2017-07-15T15:13:33Z</time>
            </trkpt>
            <trkpt lat="46.537390" lon="10.436050">
                <time>2017-07-15T15:13:34Z</time>
            </trkpt>
            <trkpt lat="46.537330" lon="10.436230">
                <time>2017-07-15T15:13:35Z</time>
            </trkpt>
            <trkpt lat="46.537270" lon="10.436390">
                <time>2017-07-15T15:13:36Z</time>
            </trkpt>
            <trkpt lat="46.537190" lon="10.436530">
                <time>2017-07-15T15:13:37Z</time>
            </trkpt>
            <trkpt lat="46.537080" lon="10.436640">
                <time>2017-07-15T15:13:38Z</time>
            </trkpt>
            <trkpt lat="46.536960" lon="10.436730">
                <time>2017-07-15T15:13:39Z</time>
            </trkpt>
            <trkpt lat="46.536810" lon="10.436810">
                <time>2017-07-15T15:13:40Z</time>
            </trkpt>
            <trkpt lat="46.536680" lon="10.436880">
                <time>2017-07-15T15:13:41Z</time>
            </trkpt>
            <trkpt lat="46.536540" lon="10.436970">
                <time>2017-07-15T15:13:42Z</time>
            </trkpt>
            <trkpt lat="46.536400" lon="10.437120">
                <time>2017-07-15T15:13:43Z</time>
            </trkpt>
            <trkpt lat="46.536280" lon="10.437260">
                <time>2017-07-15T15:13:44Z</time>
            </trkpt>
            <trkpt lat="46.536160" lon="10.437390">
                <time>2017-07-15T15:13:45Z</time>
            </trkpt>
            <trkpt lat="46.536050" lon="10.437510">
                <time>2017-07-15T15:13:46Z</time>
            </trkpt>
            <trkpt lat="46.535970" lon="10.437600">
                <time>2017-07-15T15:13:47Z</time>
            </trkpt>
            <trkpt lat="46.535900" lon="10.437700">
                <time>2017-07-15T15:13:48Z</time>
            </trkpt>
            <trkpt lat="46.535880" lon="10.437780">
                <time>2017-07-15T15:13:49Z</time>
            </trkpt>
            <trkpt lat="46.535900" lon="10.437880">
                <time>2017-07-15T15:13:50Z</time>
            </trkpt>
            <trkpt lat="46.535980" lon="10.437990">
                <time>2017-07-15T15:13:51Z</time>
            </trkpt>
            <trkpt lat="46.536050" lon="10.438090">
                <time>2017-07-15T15:13:52Z</time>
            </trkpt>
            <trkpt lat="46.536120" lon="10.438180">
                <time>2017-07-15T15:13:53Z</time>
            </trkpt>
            <trkpt lat="46.536150" lon="10.438270">
                <time>2017-07-15T15:13:54Z</time>
            </trkpt>
            <trkpt lat="46.536140" lon="10.438330">
                <time>2017-07-15T15:13:55Z</time>
            </trkpt>
            <trkpt lat="46.536090" lon="10.438350">
                <time>2017-07-15T15:13:56Z</time>
            </trkpt>
            <trkpt lat="46.536010" lon="10.438350">
                <time>2017-07-15T15:13:57Z</time>
            </trkpt>
            <trkpt lat="46.535900" lon="10.438350">
                <time>2017-07-15T15:13:58Z</time>
            </trkpt>
            <trkpt lat="46.535760" lon="10.438370">
                <time>2017-07-15T15:13:59Z</time>
            </trkpt>
            <trkpt lat="46.535630" lon="10.438400">
                <time>2017-07-15T15:14:00Z</time>
            </trkpt>
            <trkpt lat="46.535470" lon="10.438440">
                <time>2017-07-15T15:14:01Z</time>
            </trkpt>
            <trkpt lat="46.535300" lon="10.438500">
                <time>2017-07-15T15:14:02Z</time>
            </trkpt>
            <trkpt lat="46.535150" lon="10.438540">
                <time>2017-07-15T15:14:03Z</time>
            </trkpt>
            <trkpt lat="46.534970" lon="10.438580">
                <time>2017-07-15T15:14:04Z</time>
            </trkpt>
            <trkpt lat="46.534820" lon="10.438630">
                <time>2017-07-15T15:14:05Z</time>
            </trkpt>
            <trkpt lat="46.534650" lon="10.438670">
                <time>2017-07-15T15:14:06Z</time>
            </trkpt>
            <trkpt lat="46.534470" lon="10.438710">
                <time>2017-07-15T15:14:07Z</time>
            </trkpt>
            <trkpt lat="46.534300" lon="10.438720">
                <time>2017-07-15T15:14:08Z</time>
            </trkpt>
            <trkpt lat="46.534130" lon="10.438750">
                <time>2017-07-15T15:14:09Z</time>
            </trkpt>
            <trkpt lat="46.533960" lon="10.438770">
                <time>2017-07-15T15:14:10Z</time>
            </trkpt>
            <trkpt lat="46.533780" lon="10.438790">
                <time>2017-07-15T15:14:11Z</time>
            </trkpt>
            <trkpt lat="46.533590" lon="10.438850">
                <time>2017-07-15T15:14:12Z</time>
            </trkpt>
            <trkpt lat="46.533430" lon="10.438930">
                <time>2017-07-15T15:14:13Z</time>
            </trkpt>
            <trkpt lat="46.533250" lon="10.439020">
                <time>2017-07-15T15:14:14Z</time>
            </trkpt>
            <trkpt lat="46.533060" lon="10.439130">
                <time>2017-07-15T15:14:15Z</time>
            </trkpt>
            <trkpt lat="46.532900" lon="10.439220">
                <time>2017-07-15T15:14:16Z</time>
            </trkpt>
            <trkpt lat="46.532730" lon="10.439330">
                <time>2017-07-15T15:14:17Z</time>
            </trkpt>
            <trkpt lat="46.532570" lon="10.439420">
                <time>2017-07-15T15:14:18Z</time>
            </trkpt>
            <trkpt lat="46.532440" lon="10.439490">
                <time>2017-07-15T15:14:19Z</time>
            </trkpt>
            <trkpt lat="46.532330" lon="10.439550">
                <time>2017-07-15T15:14:20Z</time>
            </trkpt>
            <trkpt lat="46.532250" lon="10.439600">
                <time>2017-07-15T15:14:21Z</time>
            </trkpt>
            <trkpt lat="46.532210" lon="10.439670">
                <time>2017-07-15T15:14:22Z</time>
            </trkpt>
            <trkpt lat="46.532210" lon="10.439770">
                <time>2017-07-15T15:14:23Z</time>
            </trkpt>
            <trkpt lat="46.532260" lon="10.439870">
                <time>2017-07-15T15:14:24Z</time>
            </trkpt>
            <trkpt lat="46.532330" lon="10.440000">
                <time>2017-07-15T15:14:25Z</time>
            </trkpt>
            <trkpt lat="46.532410" lon="10.440160">
                <time>2017-07-15T15:14:26Z</time>
            </trkpt>
            <trkpt lat="46.532520" lon="10.440340">
                <time>2017-07-15T15:14:27Z</time>
            </trkpt>
            <trkpt lat="46.532640" lon="10.440560">
                <time>2017-07-15T15:14:28Z</time>
            </trkpt>
            <trkpt lat="46.532750" lon="10.440760">
                <time>2017-07-15T15:14:29Z</time>
            </trkpt>
            <trkpt lat="46.532870" lon="10.440990">
                <time>2017-07-15T15:14:30Z</time>
            </trkpt>
            <trkpt lat="46.533000" lon="10.441220">
                <time>2017-07-15T15:14:31Z</time>
            </trkpt>
            <trkpt lat="46.533110" lon="10.441410">
                <time>2017-07-15T15:14:32Z</time>
            </trkpt>
            <trkpt lat="46.533220" lon="10.441600">
                <time>2017-07-15T15:14:33Z</time>
            </trkpt>
            <trkpt lat="46.533320" lon="10.441780">
                <time>2017-07-15T15:14:34Z</time>
            </trkpt>
            <trkpt lat="46.533380" lon="10.441960">
                <time>2017-07-15T15:14:35Z</time>
            </trkpt>
            <trkpt lat="46.533410" lon="10.442160">
                <time>2017-07-15T15:14:36Z</time>
            </trkpt>
            <trkpt lat="46.533400" lon="10.442340">
                <time>2017-07-15T15:14:37Z</time>
            </trkpt>
            <trkpt lat="46.533360" lon="10.442530">
                <time>2017-07-15T15:14:38Z</time>
            </trkpt>
            <trkpt lat="46.533270" lon="10.442740">
                <time>2017-07-15T15:14:39Z</time>
            </trkpt>
            <trkpt lat="46.533160" lon="10.442910">
                <time>2017-07-15T15:14:40Z</time>
            </trkpt>
            <trkpt lat="46.533040" lon="10.443070">
                <time>2017-07-15T15:14:41Z</time>
            </trkpt>
            <trkpt lat="46.532910" lon="10.443200">
                <time>2017-07-15T15:14:42Z</time>
            </trkpt>
            <trkpt lat="46.532740" lon="10.443300">
                <time>2017-07-15T15:14:43Z</time>
            </trkpt>
            <trkpt lat="46.532550" lon="10.443400">
                <time>2017-07-15T15:14:44Z</time>
            </trkpt>
            <trkpt lat="46.532370" lon="10.443480">
                <time>2017-07-15T15:14:45Z</time>
            </trkpt>
            <trkpt lat="46.532180" lon="10.443570">
                <time>2017-07-15T15:14:46Z</time>
            </trkpt>
            <trkpt lat="46.532010" lon="10.443670">
                <time>2017-07-15T15:14:47Z</time>
            </trkpt>
            <trkpt lat="46.531880" lon="10.443790">
                <time>2017-07-15T15:14:48Z</time>
            </trkpt>
            <trkpt lat="46.531770" lon="10.443960">
                <time>2017-07-15T15:14:49Z</time>
            </trkpt>
            <trkpt lat="46.531660" lon="10.444160">
                <time>2017-07-15T15:14:50Z</time>
            </trkpt>
            <trkpt lat="46.531590" lon="10.444330">
                <time>2017-07-15T15:14:51Z</time>
            </trkpt>
            <trkpt lat="46.531520" lon="10.444500">
                <time>2017-07-15T15:14:52Z</time>
            </trkpt>
            <trkpt lat="46.531490" lon="10.444630">
                <time>2017-07-15T15:14:53Z</time>
            </trkpt>
            <trkpt lat="46.531500" lon="10.444760">
                <time>2017-07-15T15:14:54Z</time>
            </trkpt>
            <trkpt lat="46.531560" lon="10.444890">
                <time>2017-07-15T15:14:55Z</time>
            </trkpt>
            <trkpt lat="46.531660" lon="10.444950">
                <time>2017-07-15T15:14:56Z</time>
            </trkpt>
            <trkpt lat="46.531800" lon="10.444970">
                <time>2017-07-15T15:14:57Z</time>
            </trkpt>
            <trkpt lat="46.531970" lon="10.444950">
                <time>2017-07-15T15:14:58Z</time>
            </trkpt>
            <trkpt lat="46.532150" lon="10.444920">
                <time>2017-07-15T15:14:59Z</time>
            </trkpt>
            <trkpt lat="46.532350" lon="10.444860">
                <time>2017-07-15T15:15:00Z</time>
            </trkpt>
            <trkpt lat="46.532540" lon="10.444790">
                <time>2017-07-15T15:15:01Z</time>
            </trkpt>
            <trkpt lat="46.532710" lon="10.444730">
                <time>2017-07-15T15:15:02Z</time>
            </trkpt>
            <trkpt lat="46.532880" lon="10.444690">
                <time>2017-07-15T15:15:03Z</time>
            </trkpt>
            <trkpt lat="46.533010" lon="10.444690">
                <time>2017-07-15T15:15:04Z</time>
            </trkpt>
            <trkpt lat="46.533130" lon="10.444710">
                <time>2017-07-15T15:15:05Z</time>
            </trkpt>
            <trkpt lat="46.533200" lon="10.444750">
                <time>2017-07-15T15:15:06Z</time>
            </trkpt>
            <trkpt lat="46.533240" lon="10.444820">
                <time>2017-07-15T15:15:07Z</time>
            </trkpt>
            <trkpt lat="46.533250" lon="10.444940">
                <time>2017-07-15T15:15:08Z</time>
            </trkpt>
            <trkpt lat="46.533220" lon="10.445080">
                <time>2017-07-15T15:15:09Z</time>
            </trkpt>
            <trkpt lat="46.533170" lon="10.445240">
                <time>2017-07-15T15:15:10Z</time>
            </trkpt>
            <trkpt lat="46.533110" lon="10.445430">
                <time>2017-07-15T15:15:11Z</time>
            </trkpt>
            <trkpt lat="46.533030" lon="10.445620">
                <time>2017-07-15T15:15:12Z</time>
            </trkpt>
            <trkpt lat="46.532930" lon="10.445820">
                <time>2017-07-15T15:15:13Z</time>
            </trkpt>
            <trkpt lat="46.532820" lon="10.446020">
                <time>2017-07-15T15:15:14Z</time>
            </trkpt>
            <trkpt lat="46.532700" lon="10.446220">
                <time>2017-07-15T15:15:15Z</time>
            </trkpt>
            <trkpt lat="46.532580" lon="10.446450">
                <time>2017-07-15T15:15:16Z</time>
            </trkpt>
            <trkpt lat="46.532480" lon="10.446640">
                <time>2017-07-15T15:15:17Z</time>
            </trkpt>
            <trkpt lat="46.532390" lon="10.446830">
                <time>2017-07-15T15:15:18Z</time>
            </trkpt>
            <trkpt lat="46.532320" lon="10.447020">
                <time>2017-07-15T15:15:19Z</time>
            </trkpt>
            <trkpt lat="46.532310" lon="10.447200">
                <time>2017-07-15T15:15:20Z</time>
            </trkpt>
            <trkpt lat="46.532310" lon="10.447420">
                <time>2017-07-15T15:15:21Z</time>
            </trkpt>
            <trkpt lat="46.532310" lon="10.447650">
                <time>2017-07-15T15:15:22Z</time>
            </trkpt>
            <trkpt lat="46.532300" lon="10.447830">
                <time>2017-07-15T15:15:23Z</time>
            </trkpt>
            <trkpt lat="46.532270" lon="10.448020">
                <time>2017-07-15T15:15:24Z</time>
            </trkpt>
            <trkpt lat="46.532220" lon="10.448140">
                <time>2017-07-15T15:15:25Z</time>
            </trkpt>
            <trkpt lat="46.532140" lon="10.448230">
                <time>2017-07-15T15:15:26Z</time>
            </trkpt>
            <trkpt lat="46.532040" lon="10.448270">
                <time>2017-07-15T15:15:27Z</time>
            </trkpt>
            <trkpt lat="46.531920" lon="10.448260">
                <time>2017-07-15T15:15:28Z</time>
            </trkpt>
            <trkpt lat="46.531770" lon="10.448220">
                <time>2017-07-15T15:15:29Z</time>
            </trkpt>
            <trkpt lat="46.531600" lon="10.448180">
                <time>2017-07-15T15:15:30Z</time>
            </trkpt>
            <trkpt lat="46.531430" lon="10.448130">
                <time>2017-07-15T15:15:31Z</time>
            </trkpt>
            <trkpt lat="46.531240" lon="10.448080">
                <time>2017-07-15T15:15:32Z</time>
            </trkpt>
            <trkpt lat="46.531100" lon="10.448020">
                <time>2017-07-15T15:15:33Z</time>
            </trkpt>
            <trkpt lat="46.530960" lon="10.447910">
                <time>2017-07-15T15:15:34Z</time>
            </trkpt>
            <trkpt lat="46.530820" lon="10.447750">
                <time>2017-07-15T15:15:35Z</time>
            </trkpt>
            <trkpt lat="46.530730" lon="10.447600">
                <time>2017-07-15T15:15:36Z</time>
            </trkpt>
            <trkpt lat="46.530640" lon="10.447460">
                <time>2017-07-15T15:15:37Z</time>
            </trkpt>
            <trkpt lat="46.530560" lon="10.447340">
                <time>2017-07-15T15:15:38Z</time>
            </trkpt>
            <trkpt lat="46.530480" lon="10.447270">
                <time>2017-07-15T15:15:39Z</time>
            </trkpt>
            <trkpt lat="46.530370" lon="10.447210">
                <time>2017-07-15T15:15:40Z</time>
            </trkpt>
            <trkpt lat="46.530290" lon="10.447250">
                <time>2017-07-15T15:15:41Z</time>
            </trkpt>
            <trkpt lat="46.530200" lon="10.447340">
                <time>2017-07-15T15:15:42Z</time>
            </trkpt>
            <trkpt lat="46.530230" lon="10.447530">
                <time>2017-07-15T15:15:43Z</time>
            </trkpt>
            <trkpt lat="46.530260" lon="10.447690">
                <time>2017-07-15T15:15:44Z</time>
            </trkpt>
            <trkpt lat="46.530320" lon="10.447870">
                <time>2017-07-15T15:15:45Z</time>
            </trkpt>
            <trkpt lat="46.530400" lon="10.448050">
                <time>2017-07-15T15:15:46Z</time>
            </trkpt>
            <trkpt lat="46.530480" lon="10.448190">
                <time>2017-07-15T15:15:47Z</time>
            </trkpt>
            <trkpt lat="46.530560" lon="10.448320">
                <time>2017-07-15T15:15:48Z</time>
            </trkpt>
            <trkpt lat="46.530610" lon="10.448430">
                <time>2017-07-15T15:15:49Z</time>
            </trkpt>
            <trkpt lat="46.530660" lon="10.448530">
                <time>2017-07-15T15:15:50Z</time>
            </trkpt>
            <trkpt lat="46.530640" lon="10.448640">
                <time>2017-07-15T15:15:51Z</time>
            </trkpt>
            <trkpt lat="46.530600" lon="10.448710">
                <time>2017-07-15T15:15:52Z</time>
            </trkpt>
            <trkpt lat="46.530500" lon="10.448760">
                <time>2017-07-15T15:15:53Z</time>
            </trkpt>
            <trkpt lat="46.530380" lon="10.448780">
                <time>2017-07-15T15:15:54Z</time>
            </trkpt>
            <trkpt lat="46.530250" lon="10.448800">
                <time>2017-07-15T15:15:55Z</time>
            </trkpt>
            <trkpt lat="46.530090" lon="10.448810">
                <time>2017-07-15T15:15:56Z</time>
            </trkpt>
            <trkpt lat="46.529930" lon="10.448830">
                <time>2017-07-15T15:15:57Z</time>
            </trkpt>
            <trkpt lat="46.529750" lon="10.448860">
                <time>2017-07-15T15:15:58Z</time>
            </trkpt>
            <trkpt lat="46.529580" lon="10.448870">
                <time>2017-07-15T15:15:59Z</time>
            </trkpt>
            <trkpt lat="46.529460" lon="10.448900">
                <time>2017-07-15T15:16:00Z</time>
            </trkpt>
            <trkpt lat="46.529360" lon="10.448940">
                <time>2017-07-15T15:16:01Z</time>
            </trkpt>
            <trkpt lat="46.529280" lon="10.449040">
                <time>2017-07-15T15:16:02Z</time>
            </trkpt>
            <trkpt lat="46.529230" lon="10.449170">
                <time>2017-07-15T15:16:03Z</time>
            </trkpt>
            <trkpt lat="46.529220" lon="10.449340">
                <time>2017-07-15T15:16:04Z</time>
            </trkpt>
            <trkpt lat="46.529240" lon="10.449480">
                <time>2017-07-15T15:16:05Z</time>
            </trkpt>
            <trkpt lat="46.529270" lon="10.449640">
                <time>2017-07-15T15:16:06Z</time>
            </trkpt>
            <trkpt lat="46.529310" lon="10.449800">
                <time>2017-07-15T15:16:07Z</time>
            </trkpt>
            <trkpt lat="46.529340" lon="10.449930">
                <time>2017-07-15T15:16:08Z</time>
            </trkpt>
            <trkpt lat="46.529370" lon="10.450060">
                <time>2017-07-15T15:16:09Z</time>
            </trkpt>
            <trkpt lat="46.529400" lon="10.450150">
                <time>2017-07-15T15:16:10Z</time>
            </trkpt>
            <trkpt lat="46.529440" lon="10.450210">
                <time>2017-07-15T15:16:11Z</time>
            </trkpt>
            <trkpt lat="46.529490" lon="10.450250">
                <time>2017-07-15T15:16:12Z</time>
            </trkpt>
            <trkpt lat="46.529550" lon="10.450280">
                <time>2017-07-15T15:16:13Z</time>
            </trkpt>
            <trkpt lat="46.529620" lon="10.450290">
                <time>2017-07-15T15:16:14Z</time>
            </trkpt>
            <trkpt lat="46.529680" lon="10.450300">
                <time>2017-07-15T15:16:15Z</time>
            </trkpt>
            <trkpt lat="46.529720" lon="10.450280">
                <time>2017-07-15T15:16:16Z</time>
            </trkpt>
            <trkpt lat="46.529760" lon="10.450260">
                <time>2017-07-15T15:16:17Z</time>
            </trkpt>
            <trkpt lat="46.529790" lon="10.450250">
                <time>2017-07-15T15:16:18Z</time>
            </trkpt>
            <trkpt lat="46.529830" lon="10.450230">
                <time>2017-07-15T15:16:19Z</time>
            </trkpt>
            <trkpt lat="46.529850" lon="10.450210">
                <time>2017-07-15T15:16:20Z</time>
            </trkpt>
            <trkpt lat="46.529880" lon="10.450180">
                <time>2017-07-15T15:16:21Z</time>
            </trkpt>
            <trkpt lat="46.529900" lon="10.450140">
                <time>2017-07-15T15:16:22Z</time>
            </trkpt>
            <trkpt lat="46.529920" lon="10.450110">
                <time>2017-07-15T15:16:23Z</time>
            </trkpt>
            <trkpt lat="46.529930" lon="10.450080">
                <time>2017-07-15T15:16:24Z</time>
            </trkpt>
            <trkpt lat="46.529940" lon="10.450070">
                <time>2017-07-15T15:16:25Z</time>
            </trkpt>
            <trkpt lat="46.529960" lon="10.450060">
                <time>2017-07-15T15:16:26Z</time>
            </trkpt>
            <trkpt lat="46.529970" lon="10.450050">
                <time>2017-07-15T15:16:27Z</time>
            </trkpt>
            <trkpt lat="46.529990" lon="10.450040">
                <time>2017-07-15T15:16:28Z</time>
            </trkpt>
            <trkpt lat="46.530000" lon="10.450030">
                <time>2017-07-15T15:16:29Z</time>
            </trkpt>
            <trkpt lat="46.530000" lon="10.450020">
                <time>2017-07-15T15:16:30Z</time>
            </trkpt>
            <trkpt lat="46.530010" lon="10.450020">
                <time>2017-07-15T15:16:31Z</time>
            </trkpt>
            <trkpt lat="46.530000" lon="10.450020">
                <time>2017-07-15T15:16:32Z</time>
            </trkpt>
            <trkpt lat="46.530010" lon="10.450020">
                <time>2017-07-15T15:16:33Z</time>
            </trkpt>
            <trkpt lat="46.530010" lon="10.450020">
                <time>2017-07-15T15:16:34Z</time>
            </trkpt>
            <trkpt lat="46.530010" lon="10.450020">
                <time>2017-07-15T15:16:35Z</time>
            </trkpt>
            <trkpt lat="46.530000" lon="10.450020">
                <time>2017-07-15T15:16:36Z</time>
            </trkpt>
            <trkpt lat="46.530000" lon="10.450020">
                <time>2017-07-15T15:16:37Z</time>
            </trkpt>
            <trkpt lat="46.530000" lon="10.450020">
                <time>2017-07-15T15:16:38Z</time>
            </trkpt>
            <trkpt lat="46.530000" lon="10.450020">
                <time>2017-07-15T15:16:39Z</time>
            </trkpt>
            <trkpt lat="46.530000" lon="10.450020">
                <time>2017-07-15T15:16:40Z</time>
            </trkpt>
            <trkpt lat="46.530000" lon="10.450020">
                <time>2017-07-15T15:16:41Z</time>
            </trkpt>
            <trkpt lat="46.530000" lon="10.450020">
                <time>2017-07-15T15:16:42Z</time>
            </trkpt>
            <trkpt lat="46.530000" lon="10.450020">
                <time>2017-07-15T15:16:43Z</time>
            </trkpt>
            <trkpt lat="46.530000" lon="10.450020">
                <time>2017-07-15T15:16:44Z</time>
            </trkpt>
            <trkpt lat="46.530000" lon="10.450020">
                <time>2017-07-15T15:16:45Z</time>
            </trkpt>
            <trkpt lat="46.530000" lon="10.450020">
                <time>2017-07-15T15:16:46Z</time>
            </trkpt>
            <trkpt lat="46.530000" lon="10.450020">
                <time>2017-07-15T15:16:47Z</time>
            </trkpt>
            <trkpt lat="46.530000" lon="10.450020">
                <time>2017-07-15T15:16:48Z</time>
            </trkpt>
            <trkpt lat="46.530000" lon="10.450020">
                <time>2017-07-15T15:16:49Z</time>
            </trkpt>
            <trkpt lat="46.530000" lon="10.450020">
                <time>2017-07-15T15:16:50Z</time>
            </trkpt>
            <trkpt lat="46.530000" lon="10.450020">
                <time>2017-07-15T15:16:51Z</time>
            </trkpt>
            <trkpt lat="46.530000" lon="10.450020">
                <time>2017-07-15T15:16:52Z</time>
            </trkpt>
            <trkpt lat="46.530000" lon="10.450020">
                <time>2017-07-15T15:16:53Z</time>
            </trkpt>
            <trkpt lat="46.530000" lon="10.450020">
                <time>2017-07-15T15:16:54Z</time>
            </trkpt>
            <trkpt lat="46.530000" lon="10.450020">
                <time>2017-07-15T15:17:56Z</time>
            </trkpt>
            <trkpt lat="46.530000" lon="10.450020">
                <time>2017-07-15T15:17:57Z</time>
            </trkpt>
            <trkpt lat="46.530000" lon="10.450010">
                <time>2017-07-15T15:17:58Z</time>
            </trkpt>
            <trkpt lat="46.530000" lon="10.450010">
                <time>2017-07-15T15:17:59Z</time>
            </trkpt>
            <trkpt lat="46.530000" lon="10.450010">
                <time>2017-07-15T15:18:00Z</time>
            </trkpt>
            <trkpt lat="46.530000" lon="10.450010">
                <time>2017-07-15T15:18:01Z</time>
            </trkpt>
            <trkpt lat="46.530000" lon="10.450010">
                <time>2017-07-15T15:18:02Z</time>
            </trkpt>
            <trkpt lat="46.530000" lon="10.450010">
                <time>2017-07-15T15:18:03Z</time>
            </trkpt>
            <trkpt lat="46.530000" lon="10.450010">
                <time>2017-07-15T15:18:04Z</time>
            </trkpt>
            <trkpt lat="46.530000" lon="10.450010">
                <time>2017-07-15T15:18:05Z</time>
            </trkpt>
            <trkpt lat="46.530000" lon="10.450010">
                <time>2017-07-15T15:18:06Z</time>
            </trkpt>
            <trkpt lat="46.530000" lon="10.450010">
                <time>2017-07-15T15:18:07Z</time>
            </trkpt>
            <trkpt lat="46.530000" lon="10.450010">
                <time>2017-07-15T15:18:08Z</time>
            </trkpt>
            <trkpt lat="46.530000" lon="10.450010">
                <time>2017-07-15T15:18:09Z</time>
            </trkpt>
            <trkpt lat="46.530000" lon="10.450010">
                <time>2017-07-15T15:18:10Z</time>
            </trkpt>
            <trkpt lat="46.530000" lon="10.450010">
                <time>2017-07-15T15:18:11Z</time>
            </trkpt>
            <trkpt lat="46.530000" lon="10.450010">
                <time>2017-07-15T15:18:12Z</time>
            </trkpt>
            <trkpt lat="46.530000" lon="10.450010">
                <time>2017-07-15T15:18:13Z</time>
            </trkpt>
            <trkpt lat="46.530000" lon="10.450010">
                <time>2017-07-15T15:18:14Z</time>
            </trkpt>
            <trkpt lat="46.530000" lon="10.450010">
                <time>2017-07-15T15:18:15Z</time>
            </trkpt>
            <trkpt lat="46.530000" lon="10.450010">
                <time>2017-07-15T15:18:16Z</time>
            </trkpt>
            <trkpt lat="46.530000" lon="10.450010">
                <time>2017-07-15T15:18:17Z</time>
            </trkpt>
            <trkpt lat="46.530000" lon="10.450010">
                <time>2017-07-15T15:18:18Z</time>
            </trkpt>
            <trkpt lat="46.530000" lon="10.450010">
                <time>2017-07-15T15:18:19Z</time>
            </trkpt>
            <trkpt lat="46.530000" lon="10.450010">
                <time>2017-07-15T15:18:20Z</time>
            </trkpt>
            <trkpt lat="46.530000" lon="10.450010">
                <time>2017-07-15T15:18:21Z</time>
            </trkpt>
            <trkpt lat="46.530000" lon="10.450010">
                <time>2017-07-15T15:18:22Z</time>
            </trkpt>
            <trkpt lat="46.530000" lon="10.450010">
                <time>2017-07-15T15:18:23Z</time>
            </trkpt>
            <trkpt lat="46.530000" lon="10.450010">
                <time>2017-07-15T15:18:24Z</time>
            </trkpt>
            <trkpt lat="46.530000" lon="10.450010">
                <time>2017-07-15T15:18:25Z</time>
            </trkpt>
            <trkpt lat="46.530000" lon="10.450010">
                <time>2017-07-15T15:18:26Z</time>
            </trkpt>
            <trkpt lat="46.530000" lon="10.450010">
                <time>2017-07-15T15:18:27Z</time>
            </trkpt>
            <trkpt lat="46.530000" lon="10.450010">
                <time>2017-07-15T15:18:28Z</time>
            </trkpt>
            <trkpt lat="46.530000" lon="10.450010">
                <time>2017-07-15T15:18:29Z</time>
            </trkpt>
            <trkpt lat="46.530000" lon="10.450010">
                <time>2017-07-15T15:18:30Z</time>
            </trkpt>
            <trkpt lat="46.530000" lon="10.450010">
                <time>2017-07-15T15:18:31Z</time>
            </trkpt>
            <trkpt lat="46.530000" lon="10.450010">
                <time>2017-07-15T15:18:32Z</time>
            </trkpt>
            <trkpt lat="46.530000" lon="10.450010">
                <time>2017-07-15T15:18:33Z</time>
            </trkpt>
            <trkpt lat="46.530000" lon="10.450010">
                <time>2017-07-15T15:18:34Z</time>
            </trkpt>
            <trkpt lat="46.530000" lon="10.450010">
                <time>2017-07-15T15:18:35Z</time>
            </trkpt>
            <trkpt lat="46.530000" lon="10.450010">
                <time>2017-07-15T15:18:36Z</time>
            </trkpt>
            <trkpt lat="46.530010" lon="10.450000">
                <time>2017-07-15T15:18:37Z</time>
            </trkpt>
            <trkpt lat="46.530010" lon="10.450000">
                <time>2017-07-15T15:18:38Z</time>
            </trkpt>
            <trkpt lat="46.530010" lon="10.450000">
                <time>2017-07-15T15:18:39Z</time>
            </trkpt>
            <trkpt lat="46.530010" lon="10.450000">
                <time>2017-07-15T15:18:40Z</time>
            </trkpt>
            <trkpt lat="46.530010" lon="10.450000">
                <time>2017-07-15T15:18:41Z</time>
            </trkpt>
            <trkpt lat="46.530010" lon="10.450000">
                <time>2017-07-15T15:18:42Z</time>
            </trkpt>
            <trkpt lat="46.530010" lon="10.450000">
                <time>2017-07-15T15:18:43Z</time>
            </trkpt>
            <trkpt lat="46.530010" lon="10.450000">
                <time>2017-07-15T15:18:44Z</time>
            </trkpt>
            <trkpt lat="46.530010" lon="10.450000">
                <time>2017-07-15T15:18:45Z</time>
            </trkpt>
            <trkpt lat="46.530010" lon="10.450000">
                <time>2017-07-15T15:18:46Z</time>
            </trkpt>
            <trkpt lat="46.530010" lon="10.450000">
                <time>2017-07-15T15:18:47Z</time>
            </trkpt>
            <trkpt lat="46.530010" lon="10.450000">
                <time>2017-07-15T15:18:48Z</time>
            </trkpt>
            <trkpt lat="46.530010" lon="10.450000">
                <time>2017-07-15T15:18:49Z</time>
            </trkpt>
            <trkpt lat="46.530010" lon="10.450000">
                <time>2017-07-15T15:18:50Z</time>
            </trkpt>
            <trkpt lat="46.530010" lon="10.450000">
                <time>2017-07-15T15:18:51Z</time>
            </trkpt>
            <trkpt lat="46.530010" lon="10.450000">
                <time>2017-07-15T15:18:52Z</time>
            </trkpt>
            <trkpt lat="46.530010" lon="10.450000">
                <time>2017-07-15T15:18:53Z</time>
            </trkpt>
            <trkpt lat="46.530010" lon="10.450000">
                <time>2017-07-15T15:18:54Z</time>
            </trkpt>
            <trkpt lat="46.530010" lon="10.450000">
                <time>2017-07-15T15:18:55Z</time>
            </trkpt>
            <trkpt lat="46.530010" lon="10.450000">
                <time>2017-07-15T15:18:56Z</time>
            </trkpt>
            <trkpt lat="46.530010" lon="10.450000">
                <time>2017-07-15T15:18:57Z</time>
            </trkpt>
            <trkpt lat="46.530010" lon="10.450000">
                <time>2017-07-15T15:18:58Z</time>
            </trkpt>
            <trkpt lat="46.530010" lon="10.450000">
                <time>2017-07-15T15:18:59Z</time>
            </trkpt>
            <trkpt lat="46.530010" lon="10.450000">
                <time>2017-07-15T15:19:00Z</time>
            </trkpt>
            <trkpt lat="46.530010" lon="10.450000">
                <time>2017-07-15T15:19:01Z</time>
            </trkpt>
            <trkpt lat="46.530010" lon="10.450000">
                <time>2017-07-15T15:19:02Z</time>
            </trkpt>
            <trkpt lat="46.529960" lon="10.449910">
                <time>2017-07-15T15:44:32Z</time>
            </trkpt>
            <trkpt lat="46.530010" lon="10.450000">
                <time>2017-07-15T15:44:33Z</time>
            </trkpt>
            <trkpt lat="46.530000" lon="10.449970">
                <time>2017-07-15T15:44:34Z</time>
            </trkpt>
            <trkpt lat="46.529980" lon="10.450000">
                <time>2017-07-15T15:44:35Z</time>
            </trkpt>
            <trkpt lat="46.530040" lon="10.449980">
                <time>2017-07-15T15:44:36Z</time>
            </trkpt>
            <trkpt lat="46.529870" lon="10.449970">
                <time>2017-07-15T15:44:38Z</time>
            </trkpt>
            <trkpt lat="46.529920" lon="10.449960">
                <time>2017-07-15T15:44:39Z</time>
            </trkpt>
            <trkpt lat="46.529920" lon="10.449970">
                <time>2017-07-15T15:44:40Z</time>
            </trkpt>
            <trkpt lat="46.529920" lon="10.449970">
                <time>2017-07-15T15:44:41Z</time>
            </trkpt>
            <trkpt lat="46.529940" lon="10.449960">
                <time>2017-07-15T15:44:42Z</time>
            </trkpt>
            <trkpt lat="46.529990" lon="10.449980">
                <time>2017-07-15T15:44:43Z</time>
            </trkpt>
            <trkpt lat="46.529990" lon="10.449960">
                <time>2017-07-15T15:44:44Z</time>
            </trkpt>
            <trkpt lat="46.530000" lon="10.449960">
                <time>2017-07-15T15:44:45Z</time>
            </trkpt>
            <trkpt lat="46.529990" lon="10.449960">
                <time>2017-07-15T15:44:47Z</time>
            </trkpt>
            <trkpt lat="46.530000" lon="10.449960">
                <time>2017-07-15T15:44:48Z</time>
            </trkpt>
            <trkpt lat="46.530000" lon="10.449950">
                <time>2017-07-15T15:44:49Z</time>
            </trkpt>
            <trkpt lat="46.530000" lon="10.449950">
                <time>2017-07-15T15:44:50Z</time>
            </trkpt>
            <trkpt lat="46.529990" lon="10.449950">
                <time>2017-07-15T15:44:51Z</time>
            </trkpt>
            <trkpt lat="46.529990" lon="10.449930">
                <time>2017-07-15T15:44:52Z</time>
            </trkpt>
            <trkpt lat="46.529990" lon="10.449920">
                <time>2017-07-15T15:44:53Z</time>
            </trkpt>
            <trkpt lat="46.529980" lon="10.449910">
                <time>2017-07-15T15:44:54Z</time>
            </trkpt>
            <trkpt lat="46.529970" lon="10.449910">
                <time>2017-07-15T15:44:55Z</time>
            </trkpt>
            <trkpt lat="46.529970" lon="10.449900">
                <time>2017-07-15T15:44:56Z</time>
            </trkpt>
            <trkpt lat="46.529970" lon="10.449910">
                <time>2017-07-15T15:44:57Z</time>
            </trkpt>
            <trkpt lat="46.529970" lon="10.449920">
                <time>2017-07-15T15:44:58Z</time>
            </trkpt>
            <trkpt lat="46.529970" lon="10.449920">
                <time>2017-07-15T15:44:59Z</time>
            </trkpt>
            <trkpt lat="46.529970" lon="10.449920">
                <time>2017-07-15T15:45:00Z</time>
            </trkpt>
            <trkpt lat="46.529970" lon="10.449930">
                <time>2017-07-15T15:45:01Z</time>
            </trkpt>
            <trkpt lat="46.529960" lon="10.449940">
                <time>2017-07-15T15:45:02Z</time>
            </trkpt>
            <trkpt lat="46.529950" lon="10.449970">
                <time>2017-07-15T15:45:03Z</time>
            </trkpt>
            <trkpt lat="46.529930" lon="10.450000">
                <time>2017-07-15T15:45:04Z</time>
            </trkpt>
            <trkpt lat="46.529910" lon="10.450030">
                <time>2017-07-15T15:45:05Z</time>
            </trkpt>
            <trkpt lat="46.529890" lon="10.450070">
                <time>2017-07-15T15:45:06Z</time>
            </trkpt>
            <trkpt lat="46.529850" lon="10.450110">
                <time>2017-07-15T15:45:07Z</time>
            </trkpt>
            <trkpt lat="46.529820" lon="10.450140">
                <time>2017-07-15T15:45:08Z</time>
            </trkpt>
            <trkpt lat="46.529780" lon="10.450170">
                <time>2017-07-15T15:45:09Z</time>
            </trkpt>
            <trkpt lat="46.529740" lon="10.450210">
                <time>2017-07-15T15:45:10Z</time>
            </trkpt>
            <trkpt lat="46.529690" lon="10.450230">
                <time>2017-07-15T15:45:11Z</time>
            </trkpt>
            <trkpt lat="46.529650" lon="10.450230">
                <time>2017-07-15T15:45:12Z</time>
            </trkpt>
            <trkpt lat="46.529610" lon="10.450230">
                <time>2017-07-15T15:45:13Z</time>
            </trkpt>
            <trkpt lat="46.529570" lon="10.450230">
                <time>2017-07-15T15:45:14Z</time>
            </trkpt>
            <trkpt lat="46.529540" lon="10.450220">
                <time>2017-07-15T15:45:15Z</time>
            </trkpt>
            <trkpt lat="46.529490" lon="10.450220">
                <time>2017-07-15T15:45:16Z</time>
            </trkpt>
            <trkpt lat="46.529460" lon="10.450230">
                <time>2017-07-15T15:45:17Z</time>
            </trkpt>
            <trkpt lat="46.529440" lon="10.450260">
                <time>2017-07-15T15:45:18Z</time>
            </trkpt>
            <trkpt lat="46.529430" lon="10.450290">
                <time>2017-07-15T15:45:19Z</time>
            </trkpt>
            <trkpt lat="46.529430" lon="10.450350">
                <time>2017-07-15T15:45:20Z</time>
            </trkpt>
            <trkpt lat="46.529440" lon="10.450410">
                <time>2017-07-15T15:45:21Z</time>
            </trkpt>
            <trkpt lat="46.529450" lon="10.450480">
                <time>2017-07-15T15:45:22Z</time>
            </trkpt>
            <trkpt lat="46.529460" lon="10.450550">
                <time>2017-07-15T15:45:23Z</time>
            </trkpt>
            <trkpt lat="46.529470" lon="10.450650">
                <time>2017-07-15T15:45:24Z</time>
            </trkpt>
            <trkpt lat="46.529490" lon="10.450730">
                <time>2017-07-15T15:45:25Z</time>
            </trkpt>
            <trkpt lat="46.529510" lon="10.450830">
                <time>2017-07-15T15:45:26Z</time>
            </trkpt>
            <trkpt lat="46.529540" lon="10.450950">
                <time>2017-07-15T15:45:27Z</time>
            </trkpt>
            <trkpt lat="46.529570" lon="10.451050">
                <time>2017-07-15T15:45:28Z</time>
            </trkpt>
            <trkpt lat="46.529600" lon="10.451150">
                <time>2017-07-15T15:45:29Z</time>
            </trkpt>
            <trkpt lat="46.529660" lon="10.451230">
                <time>2017-07-15T15:45:30Z</time>
            </trkpt>
            <trkpt lat="46.529720" lon="10.451270">
                <time>2017-07-15T15:45:31Z</time>
            </trkpt>
            <trkpt lat="46.529790" lon="10.451280">
                <time>2017-07-15T15:45:32Z</time>
            </trkpt>
            <trkpt lat="46.529860" lon="10.451250">
                <time>2017-07-15T15:45:33Z</time>
            </trkpt>
            <trkpt lat="46.529920" lon="10.451210">
                <time>2017-07-15T15:45:34Z</time>
            </trkpt>
            <trkpt lat="46.529970" lon="10.451190">
                <time>2017-07-15T15:45:35Z</time>
            </trkpt>
            <trkpt lat="46.530020" lon="10.451200">
                <time>2017-07-15T15:45:36Z</time>
            </trkpt>
            <trkpt lat="46.530050" lon="10.451240">
                <time>2017-07-15T15:45:37Z</time>
            </trkpt>
            <trkpt lat="46.530040" lon="10.451300">
                <time>2017-07-15T15:45:38Z</time>
            </trkpt>
            <trkpt lat="46.530010" lon="10.451360">
                <time>2017-07-15T15:45:39Z</time>
            </trkpt>
            <trkpt lat="46.529970" lon="10.451430">
                <time>2017-07-15T15:45:40Z</time>
            </trkpt>
            <trkpt lat="46.529920" lon="10.451500">
                <time>2017-07-15T15:45:41Z</time>
            </trkpt>
            <trkpt lat="46.529870" lon="10.451580">
                <time>2017-07-15T15:45:42Z</time>
            </trkpt>
            <trkpt lat="46.529810" lon="10.451680">
                <time>2017-07-15T15:45:43Z</time>
            </trkpt>
            <trkpt lat="46.529750" lon="10.451770">
                <time>2017-07-15T15:45:44Z</time>
            </trkpt>
            <trkpt lat="46.529690" lon="10.451860">
                <time>2017-07-15T15:45:45Z</time>
            </trkpt>
            <trkpt lat="46.529620" lon="10.451960">
                <time>2017-07-15T15:45:46Z</time>
            </trkpt>
            <trkpt lat="46.529550" lon="10.452030">
                <time>2017-07-15T15:45:47Z</time>
            </trkpt>
            <trkpt lat="46.529470" lon="10.452110">
                <time>2017-07-15T15:45:48Z</time>
            </trkpt>
            <trkpt lat="46.529400" lon="10.452180">
                <time>2017-07-15T15:45:49Z</time>
            </trkpt>
            <trkpt lat="46.529320" lon="10.452250">
                <time>2017-07-15T15:45:50Z</time>
            </trkpt>
            <trkpt lat="46.529240" lon="10.452330">
                <time>2017-07-15T15:45:51Z</time>
            </trkpt>
            <trkpt lat="46.529170" lon="10.452390">
                <time>2017-07-15T15:45:52Z</time>
            </trkpt>
            <trkpt lat="46.529100" lon="10.452460">
                <time>2017-07-15T15:45:53Z</time>
            </trkpt>
            <trkpt lat="46.529020" lon="10.452530">
                <time>2017-07-15T15:45:54Z</time>
            </trkpt>
            <trkpt lat="46.528960" lon="10.452600">
                <time>2017-07-15T15:45:55Z</time>
            </trkpt>
            <trkpt lat="46.528900" lon="10.452680">
                <time>2017-07-15T15:45:56Z</time>
            </trkpt>
            <trkpt lat="46.528850" lon="10.452730">
                <time>2017-07-15T15:45:57Z</time>
            </trkpt>
            <trkpt lat="46.528810" lon="10.452780">
                <time>2017-07-15T15:45:58Z</time>
            </trkpt>
            <trkpt lat="46.528770" lon="10.452840">
                <time>2017-07-15T15:45:59Z</time>
            </trkpt>
            <trkpt lat="46.528730" lon="10.452880">
                <time>2017-07-15T15:46:00Z</time>
            </trkpt>
            <trkpt lat="46.528700" lon="10.452940">
                <time>2017-07-15T15:46:01Z</time>
            </trkpt>
            <trkpt lat="46.528670" lon="10.453000">
                <time>2017-07-15T15:46:02Z</time>
            </trkpt>
            <trkpt lat="46.528640" lon="10.453050">
                <time>2017-07-15T15:46:03Z</time>
            </trkpt>
            <trkpt lat="46.528630" lon="10.453110">
                <time>2017-07-15T15:46:04Z</time>
            </trkpt>
            <trkpt lat="46.528620" lon="10.453160">
                <time>2017-07-15T15:46:05Z</time>
            </trkpt>
            <trkpt lat="46.528610" lon="10.453190">
                <time>2017-07-15T15:46:06Z</time>
            </trkpt>
            <trkpt lat="46.528610" lon="10.453240">
                <time>2017-07-15T15:46:07Z</time>
            </trkpt>
            <trkpt lat="46.528610" lon="10.453290">
                <time>2017-07-15T15:46:08Z</time>
            </trkpt>
            <trkpt lat="46.528620" lon="10.453330">
                <time>2017-07-15T15:46:09Z</time>
            </trkpt>
            <trkpt lat="46.528620" lon="10.453370">
                <time>2017-07-15T15:46:10Z</time>
            </trkpt>
            <trkpt lat="46.528620" lon="10.453400">
                <time>2017-07-15T15:46:11Z</time>
            </trkpt>
            <trkpt lat="46.528620" lon="10.453420">
                <time>2017-07-15T15:46:12Z</time>
            </trkpt>
            <trkpt lat="46.528630" lon="10.453440">
                <time>2017-07-15T15:46:13Z</time>
            </trkpt>
            <trkpt lat="46.528640" lon="10.453470">
                <time>2017-07-15T15:46:14Z</time>
            </trkpt>
            <trkpt lat="46.528650" lon="10.453500">
                <time>2017-07-15T15:46:15Z</time>
            </trkpt>
            <trkpt lat="46.528660" lon="10.453530">
                <time>2017-07-15T15:46:16Z</time>
            </trkpt>
            <trkpt lat="46.528680" lon="10.453560">
                <time>2017-07-15T15:46:17Z</time>
            </trkpt>
            <trkpt lat="46.528700" lon="10.453600">
                <time>2017-07-15T15:46:18Z</time>
            </trkpt>
            <trkpt lat="46.528710" lon="10.453630">
                <time>2017-07-15T15:46:19Z</time>
            </trkpt>
            <trkpt lat="46.528730" lon="10.453660">
                <time>2017-07-15T15:46:20Z</time>
            </trkpt>
            <trkpt lat="46.528750" lon="10.453690">
                <time>2017-07-15T15:46:21Z</time>
            </trkpt>
            <trkpt lat="46.528760" lon="10.453720">
                <time>2017-07-15T15:46:22Z</time>
            </trkpt>
            <trkpt lat="46.528780" lon="10.453750">
                <time>2017-07-15T15:46:23Z</time>
            </trkpt>
            <trkpt lat="46.528790" lon="10.453780">
                <time>2017-07-15T15:46:24Z</time>
            </trkpt>
            <trkpt lat="46.528800" lon="10.453800">
                <time>2017-07-15T15:46:25Z</time>
            </trkpt>
            <trkpt lat="46.528790" lon="10.453800">
                <time>2017-07-15T15:46:26Z</time>
            </trkpt>
            <trkpt lat="46.528790" lon="10.453810">
                <time>2017-07-15T15:46:27Z</time>
            </trkpt>
            <trkpt lat="46.528790" lon="10.453810">
                <time>2017-07-15T15:46:28Z</time>
            </trkpt>
            <trkpt lat="46.528790" lon="10.453810">
                <time>2017-07-15T15:46:29Z</time>
            </trkpt>
            <trkpt lat="46.528780" lon="10.453820">
                <time>2017-07-15T15:46:30Z</time>
            </trkpt>
            <trkpt lat="46.528780" lon="10.453820">
                <time>2017-07-15T15:46:31Z</time>
            </trkpt>
            <trkpt lat="46.528780" lon="10.453820">
                <time>2017-07-15T15:46:32Z</time>
            </trkpt>
            <trkpt lat="46.528780" lon="10.453820">
                <time>2017-07-15T15:46:33Z</time>
            </trkpt>
            <trkpt lat="46.528780" lon="10.453820">
                <time>2017-07-15T15:46:34Z</time>
            </trkpt>
            <trkpt lat="46.528780" lon="10.453820">
                <time>2017-07-15T15:46:35Z</time>
            </trkpt>
            <trkpt lat="46.528780" lon="10.453820">
                <time>2017-07-15T15:46:36Z</time>
            </trkpt>
            <trkpt lat="46.528780" lon="10.453820">
                <time>2017-07-15T15:46:37Z</time>
            </trkpt>
            <trkpt lat="46.528780" lon="10.453820">
                <time>2017-07-15T15:46:38Z</time>
            </trkpt>
            <trkpt lat="46.528780" lon="10.453820">
                <time>2017-07-15T15:46:39Z</time>
            </trkpt>
            <trkpt lat="46.528780" lon="10.453820">
                <time>2017-07-15T15:46:40Z</time>
            </trkpt>
            <trkpt lat="46.528780" lon="10.453820">
                <time>2017-07-15T15:46:41Z</time>
            </trkpt>
            <trkpt lat="46.528780" lon="10.453820">
                <time>2017-07-15T15:46:42Z</time>
            </trkpt>
            <trkpt lat="46.528780" lon="10.453820">
                <time>2017-07-15T15:46:43Z</time>
            </trkpt>
            <trkpt lat="46.528780" lon="10.453820">
                <time>2017-07-15T15:46:44Z</time>
            </trkpt>
            <trkpt lat="46.528780" lon="10.453820">
                <time>2017-07-15T15:46:45Z</time>
            </trkpt>
            <trkpt lat="46.528780" lon="10.453820">
                <time>2017-07-15T15:46:46Z</time>
            </trkpt>
            <trkpt lat="46.528780" lon="10.453820">
                <time>2017-07-15T15:46:47Z</time>
            </trkpt>
            <trkpt lat="46.528780" lon="10.453820">
                <time>2017-07-15T15:46:48Z</time>
            </trkpt>
            <trkpt lat="46.528780" lon="10.453820">
                <time>2017-07-15T15:46:49Z</time>
            </trkpt>
            <trkpt lat="46.528780" lon="10.453820">
                <time>2017-07-15T15:46:50Z</time>
            </trkpt>
            <trkpt lat="46.528780" lon="10.453820">
                <time>2017-07-15T15:46:51Z</time>
            </trkpt>
            <trkpt lat="46.528780" lon="10.453820">
                <time>2017-07-15T15:46:52Z</time>
            </trkpt>
            <trkpt lat="46.528780" lon="10.453820">
                <time>2017-07-15T15:46:53Z</time>
            </trkpt>
            <trkpt lat="46.528780" lon="10.453820">
                <time>2017-07-15T15:46:54Z</time>
            </trkpt>
            <trkpt lat="46.528780" lon="10.453820">
                <time>2017-07-15T15:46:55Z</time>
            </trkpt>
            <trkpt lat="46.528780" lon="10.453820">
                <time>2017-07-15T15:46:56Z</time>
            </trkpt>
            <trkpt lat="46.528780" lon="10.453820">
                <time>2017-07-15T15:46:57Z</time>
            </trkpt>
            <trkpt lat="46.528780" lon="10.453820">
                <time>2017-07-15T15:46:58Z</time>
            </trkpt>
            <trkpt lat="46.528780" lon="10.453820">
                <time>2017-07-15T15:46:59Z</time>
            </trkpt>
            <trkpt lat="46.528780" lon="10.453820">
                <time>2017-07-15T15:47:00Z</time>
            </trkpt>
            <trkpt lat="46.528780" lon="10.453820">
                <time>2017-07-15T15:47:01Z</time>
            </trkpt>
            <trkpt lat="46.528780" lon="10.453820">
                <time>2017-07-15T15:47:02Z</time>
            </trkpt>
            <trkpt lat="46.528780" lon="10.453820">
                <time>2017-07-15T15:47:03Z</time>
            </trkpt>
            <trkpt lat="46.528790" lon="10.453820">
                <time>2017-07-15T15:47:04Z</time>
            </trkpt>
            <trkpt lat="46.528790" lon="10.453820">
                <time>2017-07-15T15:47:05Z</time>
            </trkpt>
            <trkpt lat="46.528790" lon="10.453820">
                <time>2017-07-15T15:47:06Z</time>
            </trkpt>
            <trkpt lat="46.528790" lon="10.453820">
                <time>2017-07-15T15:47:07Z</time>
            </trkpt>
            <trkpt lat="46.528800" lon="10.453830">
                <time>2017-07-15T15:47:08Z</time>
            </trkpt>
            <trkpt lat="46.528800" lon="10.453840">
                <time>2017-07-15T15:47:09Z</time>
            </trkpt>
            <trkpt lat="46.528800" lon="10.453840">
                <time>2017-07-15T15:47:10Z</time>
            </trkpt>
            <trkpt lat="46.528800" lon="10.453840">
                <time>2017-07-15T15:47:11Z</time>
            </trkpt>
            <trkpt lat="46.528810" lon="10.453840">
                <time>2017-07-15T15:47:12Z</time>
            </trkpt>
            <trkpt lat="46.528810" lon="10.453840">
                <time>2017-07-15T15:47:13Z</time>
            </trkpt>
            <trkpt lat="46.528810" lon="10.453840">
                <time>2017-07-15T15:47:14Z</time>
            </trkpt>
            <trkpt lat="46.528810" lon="10.453840">
                <time>2017-07-15T15:47:15Z</time>
            </trkpt>
            <trkpt lat="46.528810" lon="10.453840">
                <time>2017-07-15T15:47:16Z</time>
            </trkpt>
            <trkpt lat="46.528810" lon="10.453840">
                <time>2017-07-15T15:47:17Z</time>
            </trkpt>
            <trkpt lat="46.528810" lon="10.453830">
                <time>2017-07-15T15:47:18Z</time>
            </trkpt>
            <trkpt lat="46.528810" lon="10.453830">
                <time>2017-07-15T15:47:19Z</time>
            </trkpt>
            <trkpt lat="46.528810" lon="10.453830">
                <time>2017-07-15T15:47:20Z</time>
            </trkpt>
            <trkpt lat="46.528810" lon="10.453830">
                <time>2017-07-15T15:47:21Z</time>
            </trkpt>
            <trkpt lat="46.528810" lon="10.453830">
                <time>2017-07-15T15:47:22Z</time>
            </trkpt>
            <trkpt lat="46.528820" lon="10.453830">
                <time>2017-07-15T15:47:23Z</time>
            </trkpt>
            <trkpt lat="46.528820" lon="10.453830">
                <time>2017-07-15T15:47:24Z</time>
            </trkpt>
            <trkpt lat="46.528820" lon="10.453830">
                <time>2017-07-15T15:47:25Z</time>
            </trkpt>
            <trkpt lat="46.528820" lon="10.453830">
                <time>2017-07-15T15:47:26Z</time>
            </trkpt>
            <trkpt lat="46.528820" lon="10.453830">
                <time>2017-07-15T15:47:27Z</time>
            </trkpt>
            <trkpt lat="46.528820" lon="10.453820">
                <time>2017-07-15T15:47:28Z</time>
            </trkpt>
            <trkpt lat="46.528830" lon="10.453820">
                <time>2017-07-15T15:47:29Z</time>
            </trkpt>
            <trkpt lat="46.528830" lon="10.453820">
                <time>2017-07-15T15:47:30Z</time>
            </trkpt>
            <trkpt lat="46.528830" lon="10.453820">
                <time>2017-07-15T15:47:31Z</time>
            </trkpt>
            <trkpt lat="46.528830" lon="10.453820">
                <time>2017-07-15T15:47:32Z</time>
            </trkpt>
            <trkpt lat="46.528830" lon="10.453820">
                <time>2017-07-15T15:47:33Z</time>
            </trkpt>
            <trkpt lat="46.528830" lon="10.453820">
                <time>2017-07-15T15:47:34Z</time>
            </trkpt>
            <trkpt lat="46.528830" lon="10.453820">
                <time>2017-07-15T15:47:35Z</time>
            </trkpt>
            <trkpt lat="46.528830" lon="10.453820">
                <time>2017-07-15T15:47:36Z</time>
            </trkpt>
            <trkpt lat="46.528830" lon="10.453820">
                <time>2017-07-15T15:47:37Z</time>
            </trkpt>
            <trkpt lat="46.528830" lon="10.453820">
                <time>2017-07-15T15:47:38Z</time>
            </trkpt>
            <trkpt lat="46.528830" lon="10.453820">
                <time>2017-07-15T15:47:39Z</time>
            </trkpt>
            <trkpt lat="46.528830" lon="10.453820">
                <time>2017-07-15T15:47:40Z</time>
            </trkpt>
            <trkpt lat="46.528830" lon="10.453820">
                <time>2017-07-15T15:47:41Z</time>
            </trkpt>
            <trkpt lat="46.528830" lon="10.453810">
                <time>2017-07-15T15:47:42Z</time>
            </trkpt>
            <trkpt lat="46.528830" lon="10.453810">
                <time>2017-07-15T15:47:43Z</time>
            </trkpt>
            <trkpt lat="46.528830" lon="10.453810">
                <time>2017-07-15T15:47:44Z</time>
            </trkpt>
            <trkpt lat="46.528830" lon="10.453800">
                <time>2017-07-15T15:47:45Z</time>
            </trkpt>
            <trkpt lat="46.528830" lon="10.453780">
                <time>2017-07-15T15:47:46Z</time>
            </trkpt>
            <trkpt lat="46.528830" lon="10.453750">
                <time>2017-07-15T15:47:47Z</time>
            </trkpt>
            <trkpt lat="46.528820" lon="10.453720">
                <time>2017-07-15T15:47:48Z</time>
            </trkpt>
            <trkpt lat="46.528800" lon="10.453700">
                <time>2017-07-15T15:47:49Z</time>
            </trkpt>
            <trkpt lat="46.528780" lon="10.453670">
                <time>2017-07-15T15:47:50Z</time>
            </trkpt>
            <trkpt lat="46.528760" lon="10.453650">
                <time>2017-07-15T15:47:51Z</time>
            </trkpt>
            <trkpt lat="46.528750" lon="10.453620">
                <time>2017-07-15T15:47:52Z</time>
            </trkpt>
            <trkpt lat="46.528730" lon="10.453600">
                <time>2017-07-15T15:47:53Z</time>
            </trkpt>
            <trkpt lat="46.528710" lon="10.453560">
                <time>2017-07-15T15:47:54Z</time>
            </trkpt>
            <trkpt lat="46.528700" lon="10.453530">
                <time>2017-07-15T15:47:55Z</time>
            </trkpt>
            <trkpt lat="46.528680" lon="10.453490">
                <time>2017-07-15T15:47:56Z</time>
            </trkpt>
            <trkpt lat="46.528670" lon="10.453450">
                <time>2017-07-15T15:47:57Z</time>
            </trkpt>
            <trkpt lat="46.528660" lon="10.453400">
                <time>2017-07-15T15:47:58Z</time>
            </trkpt>
            <trkpt lat="46.528650" lon="10.453340">
                <time>2017-07-15T15:47:59Z</time>
            </trkpt>
            <trkpt lat="46.528640" lon="10.453300">
                <time>2017-07-15T15:48:00Z</time>
            </trkpt>
            <trkpt lat="46.528640" lon="10.453260">
                <time>2017-07-15T15:48:01Z</time>
            </trkpt>
            <trkpt lat="46.528650" lon="10.453230">
                <time>2017-07-15T15:48:02Z</time>
            </trkpt>
            <trkpt lat="46.528650" lon="10.453220">
                <time>2017-07-15T15:48:03Z</time>
            </trkpt>
            <trkpt lat="46.528650" lon="10.453210">
                <time>2017-07-15T15:48:04Z</time>
            </trkpt>
            <trkpt lat="46.528650" lon="10.453210">
                <time>2017-07-15T15:48:05Z</time>
            </trkpt>
            <trkpt lat="46.528650" lon="10.453210">
                <time>2017-07-15T15:48:06Z</time>
            </trkpt>
            <trkpt lat="46.528650" lon="10.453210">
                <time>2017-07-15T15:48:07Z</time>
            </trkpt>
            <trkpt lat="46.528650" lon="10.453210">
                <time>2017-07-15T15:48:08Z</time>
            </trkpt>
            <trkpt lat="46.528650" lon="10.453200">
                <time>2017-07-15T15:48:09Z</time>
            </trkpt>
            <trkpt lat="46.528650" lon="10.453190">
                <time>2017-07-15T15:48:10Z</time>
            </trkpt>
            <trkpt lat="46.528650" lon="10.453180">
                <time>2017-07-15T15:48:11Z</time>
            </trkpt>
            <trkpt lat="46.528640" lon="10.453170">
                <time>2017-07-15T15:48:12Z</time>
            </trkpt>
            <trkpt lat="46.528640" lon="10.453160">
                <time>2017-07-15T15:48:13Z</time>
            </trkpt>
            <trkpt lat="46.528620" lon="10.453130">
                <time>2017-07-15T15:48:14Z</time>
            </trkpt>
            <trkpt lat="46.528600" lon="10.453100">
                <time>2017-07-15T15:48:15Z</time>
            </trkpt>
            <trkpt lat="46.528580" lon="10.453090">
                <time>2017-07-15T15:48:16Z</time>
            </trkpt>
            <trkpt lat="46.528550" lon="10.453080">
                <time>2017-07-15T15:48:17Z</time>
            </trkpt>
            <trkpt lat="46.528520" lon="10.453080">
                <time>2017-07-15T15:48:18Z</time>
            </trkpt>
            <trkpt lat="46.528490" lon="10.453080">
                <time>2017-07-15T15:48:19Z</time>
            </trkpt>
            <trkpt lat="46.528460" lon="10.453080">
                <time>2017-07-15T15:48:20Z</time>
            </trkpt>
            <trkpt lat="46.528430" lon="10.453080">
                <time>2017-07-15T15:48:21Z</time>
            </trkpt>
            <trkpt lat="46.528400" lon="10.453070">
                <time>2017-07-15T15:48:22Z</time>
            </trkpt>
            <trkpt lat="46.528370" lon="10.453070">
                <time>2017-07-15T15:48:23Z</time>
            </trkpt>
            <trkpt lat="46.528320" lon="10.453060">
                <time>2017-07-15T15:48:24Z</time>
            </trkpt>
            <trkpt lat="46.528260" lon="10.453050">
                <time>2017-07-15T15:48:25Z</time>
            </trkpt>
            <trkpt lat="46.528210" lon="10.453030">
                <time>2017-07-15T15:48:26Z</time>
            </trkpt>
            <trkpt lat="46.528170" lon="10.453010">
                <time>2017-07-15T15:48:27Z</time>
            </trkpt>
            <trkpt lat="46.528110" lon="10.452980">
                <time>2017-07-15T15:48:28Z</time>
            </trkpt>
            <trkpt lat="46.528060" lon="10.452960">
                <time>2017-07-15T15:48:29Z</time>
            </trkpt>
            <trkpt lat="46.527990" lon="10.452930">
                <time>2017-07-15T15:48:30Z</time>
            </trkpt>
            <trkpt lat="46.527920" lon="10.452890">
                <time>2017-07-15T15:48:31Z</time>
            </trkpt>
            <trkpt lat="46.527860" lon="10.452850">
                <time>2017-07-15T15:48:32Z</time>
            </trkpt>
            <trkpt lat="46.527800" lon="10.452810">
                <time>2017-07-15T15:48:33Z</time>
            </trkpt>
            <trkpt lat="46.527720" lon="10.452800">
                <time>2017-07-15T15:48:34Z</time>
            </trkpt>
            <trkpt lat="46.527650" lon="10.452840">
                <time>2017-07-15T15:48:35Z</time>
            </trkpt>
            <trkpt lat="46.527590" lon="10.452910">
                <time>2017-07-15T15:48:36Z</time>
            </trkpt>
            <trkpt lat="46.527550" lon="10.452980">
                <time>2017-07-15T15:48:37Z</time>
            </trkpt>
            <trkpt lat="46.527510" lon="10.453050">
                <time>2017-07-15T15:48:38Z</time>
            </trkpt>
            <trkpt lat="46.527470" lon="10.453090">
                <time>2017-07-15T15:48:39Z</time>
            </trkpt>
            <trkpt lat="46.527440" lon="10.453090">
                <time>2017-07-15T15:48:40Z</time>
            </trkpt>
            <trkpt lat="46.527400" lon="10.453060">
                <time>2017-07-15T15:48:41Z</time>
            </trkpt>
            <trkpt lat="46.527350" lon="10.453010">
                <time>2017-07-15T15:48:42Z</time>
            </trkpt>
            <trkpt lat="46.527300" lon="10.452950">
                <time>2017-07-15T15:48:43Z</time>
            </trkpt>
            <trkpt lat="46.527250" lon="10.452880">
                <time>2017-07-15T15:48:44Z</time>
            </trkpt>
            <trkpt lat="46.527200" lon="10.452820">
                <time>2017-07-15T15:48:45Z</time>
            </trkpt>
            <trkpt lat="46.527170" lon="10.452760">
                <time>2017-07-15T15:48:46Z</time>
            </trkpt>
            <trkpt lat="46.527150" lon="10.452700">
                <time>2017-07-15T15:48:47Z</time>
            </trkpt>
            <trkpt lat="46.527160" lon="10.452650">
                <time>2017-07-15T15:48:48Z</time>
            </trkpt>
            <trkpt lat="46.527180" lon="10.452580">
                <time>2017-07-15T15:48:49Z</time>
            </trkpt>
            <trkpt lat="46.527220" lon="10.452510">
                <time>2017-07-15T15:48:50Z</time>
            </trkpt>
            <trkpt lat="46.527270" lon="10.452440">
                <time>2017-07-15T15:48:51Z</time>
            </trkpt>
            <trkpt lat="46.527310" lon="10.452390">
                <time>2017-07-15T15:48:52Z</time>
            </trkpt>
            <trkpt lat="46.527350" lon="10.452360">
                <time>2017-07-15T15:48:53Z</time>
            </trkpt>
            <trkpt lat="46.527400" lon="10.452340">
                <time>2017-07-15T15:48:54Z</time>
            </trkpt>
            <trkpt lat="46.527430" lon="10.452320">
                <time>2017-07-15T15:48:55Z</time>
            </trkpt>
            <trkpt lat="46.527460" lon="10.452300">
                <time>2017-07-15T15:48:56Z</time>
            </trkpt>
            <trkpt lat="46.527480" lon="10.452260">
                <time>2017-07-15T15:48:57Z</time>
            </trkpt>
            <trkpt lat="46.527500" lon="10.452200">
                <time>2017-07-15T15:48:58Z</time>
            </trkpt>
            <trkpt lat="46.527520" lon="10.452130">
                <time>2017-07-15T15:48:59Z</time>
            </trkpt>
            <trkpt lat="46.527550" lon="10.452050">
                <time>2017-07-15T15:49:00Z</time>
            </trkpt>
            <trkpt lat="46.527570" lon="10.451980">
                <time>2017-07-15T15:49:01Z</time>
            </trkpt>
            <trkpt lat="46.527590" lon="10.451920">
                <time>2017-07-15T15:49:02Z</time>
            </trkpt>
            <trkpt lat="46.527620" lon="10.451860">
                <time>2017-07-15T15:49:03Z</time>
            </trkpt>
            <trkpt lat="46.527650" lon="10.451810">
                <time>2017-07-15T15:49:04Z</time>
            </trkpt>
            <trkpt lat="46.527680" lon="10.451750">
                <time>2017-07-15T15:49:05Z</time>
            </trkpt>
            <trkpt lat="46.527720" lon="10.451710">
                <time>2017-07-15T15:49:06Z</time>
            </trkpt>
            <trkpt lat="46.527760" lon="10.451670">
                <time>2017-07-15T15:49:07Z</time>
            </trkpt>
            <trkpt lat="46.527800" lon="10.451630">
                <time>2017-07-15T15:49:08Z</time>
            </trkpt>
            <trkpt lat="46.527840" lon="10.451600">
                <time>2017-07-15T15:49:09Z</time>
            </trkpt>
            <trkpt lat="46.527880" lon="10.451570">
                <time>2017-07-15T15:49:10Z</time>
            </trkpt>
            <trkpt lat="46.527920" lon="10.451530">
                <time>2017-07-15T15:49:11Z</time>
            </trkpt>
            <trkpt lat="46.527950" lon="10.451490">
                <time>2017-07-15T15:49:12Z</time>
            </trkpt>
            <trkpt lat="46.527980" lon="10.451440">
                <time>2017-07-15T15:49:13Z</time>
            </trkpt>
            <trkpt lat="46.527990" lon="10.451400">
                <time>2017-07-15T15:49:14Z</time>
            </trkpt>
            <trkpt lat="46.527990" lon="10.451360">
                <time>2017-07-15T15:49:15Z</time>
            </trkpt>
            <trkpt lat="46.527990" lon="10.451320">
                <time>2017-07-15T15:49:16Z</time>
            </trkpt>
            <trkpt lat="46.527980" lon="10.451300">
                <time>2017-07-15T15:49:17Z</time>
            </trkpt>
            <trkpt lat="46.527980" lon="10.451290">
                <time>2017-07-15T15:49:18Z</time>
            </trkpt>
            <trkpt lat="46.527980" lon="10.451290">
                <time>2017-07-15T15:49:19Z</time>
            </trkpt>
            <trkpt lat="46.527980" lon="10.451290">
                <time>2017-07-15T15:49:20Z</time>
            </trkpt>
            <trkpt lat="46.527980" lon="10.451290">
                <time>2017-07-15T15:49:21Z</time>
            </trkpt>
            <trkpt lat="46.527980" lon="10.451290">
                <time>2017-07-15T15:49:22Z</time>
            </trkpt>
            <trkpt lat="46.527980" lon="10.451290">
                <time>2017-07-15T15:49:23Z</time>
            </trkpt>
            <trkpt lat="46.527980" lon="10.451290">
                <time>2017-07-15T15:49:24Z</time>
            </trkpt>
            <trkpt lat="46.527990" lon="10.451280">
                <time>2017-07-15T15:49:25Z</time>
            </trkpt>
            <trkpt lat="46.527980" lon="10.451260">
                <time>2017-07-15T15:49:26Z</time>
            </trkpt>
            <trkpt lat="46.527970" lon="10.451230">
                <time>2017-07-15T15:49:27Z</time>
            </trkpt>
            <trkpt lat="46.527950" lon="10.451200">
                <time>2017-07-15T15:49:28Z</time>
            </trkpt>
            <trkpt lat="46.527930" lon="10.451190">
                <time>2017-07-15T15:49:29Z</time>
            </trkpt>
            <trkpt lat="46.527910" lon="10.451210">
                <time>2017-07-15T15:49:30Z</time>
            </trkpt>
            <trkpt lat="46.527900" lon="10.451240">
                <time>2017-07-15T15:49:31Z</time>
            </trkpt>
            <trkpt lat="46.527910" lon="10.451280">
                <time>2017-07-15T15:49:32Z</time>
            </trkpt>
            <trkpt lat="46.527930" lon="10.451320">
                <time>2017-07-15T15:49:33Z</time>
            </trkpt>
            <trkpt lat="46.527950" lon="10.451350">
                <time>2017-07-15T15:49:34Z</time>
            </trkpt>
            <trkpt lat="46.527970" lon="10.451390">
                <time>2017-07-15T15:49:35Z</time>
            </trkpt>
            <trkpt lat="46.527980" lon="10.451430">
                <time>2017-07-15T15:49:36Z</time>
            </trkpt>
            <trkpt lat="46.528000" lon="10.451470">
                <time>2017-07-15T15:49:37Z</time>
            </trkpt>
            <trkpt lat="46.528020" lon="10.451490">
                <time>2017-07-15T15:49:38Z</time>
            </trkpt>
            <trkpt lat="46.528040" lon="10.451510">
                <time>2017-07-15T15:49:39Z</time>
            </trkpt>
            <trkpt lat="46.528080" lon="10.451510">
                <time>2017-07-15T15:49:40Z</time>
            </trkpt>
            <trkpt lat="46.528120" lon="10.451500">
                <time>2017-07-15T15:49:41Z</time>
            </trkpt>
            <trkpt lat="46.528200" lon="10.451470">
                <time>2017-07-15T15:49:42Z</time>
            </trkpt>
            <trkpt lat="46.528250" lon="10.451450">
                <time>2017-07-15T15:49:43Z</time>
            </trkpt>
            <trkpt lat="46.528300" lon="10.451430">
                <time>2017-07-15T15:49:44Z</time>
            </trkpt>
            <trkpt lat="46.528340" lon="10.451400">
                <time>2017-07-15T15:49:45Z</time>
            </trkpt>
            <trkpt lat="46.528380" lon="10.451380">
                <time>2017-07-15T15:49:46Z</time>
            </trkpt>
            <trkpt lat="46.528400" lon="10.451370">
                <time>2017-07-15T15:49:47Z</time>
            </trkpt>
            <trkpt lat="46.528420" lon="10.451340">
                <time>2017-07-15T15:49:48Z</time>
            </trkpt>
            <trkpt lat="46.528430" lon="10.451340">
                <time>2017-07-15T15:49:49Z</time>
            </trkpt>
            <trkpt lat="46.528430" lon="10.451330">
                <time>2017-07-15T15:49:50Z</time>
            </trkpt>
            <trkpt lat="46.528430" lon="10.451330">
                <time>2017-07-15T15:49:51Z</time>
            </trkpt>
            <trkpt lat="46.528430" lon="10.451330">
                <time>2017-07-15T15:49:52Z</time>
            </trkpt>
            <trkpt lat="46.528430" lon="10.451330">
                <time>2017-07-15T15:49:53Z</time>
            </trkpt>
            <trkpt lat="46.528430" lon="10.451330">
                <time>2017-07-15T15:49:54Z</time>
            </trkpt>
            <trkpt lat="46.528430" lon="10.451330">
                <time>2017-07-15T15:49:55Z</time>
            </trkpt>
            <trkpt lat="46.528450" lon="10.451320">
                <time>2017-07-15T15:49:56Z</time>
            </trkpt>
            <trkpt lat="46.528470" lon="10.451320">
                <time>2017-07-15T15:49:57Z</time>
            </trkpt>
            <trkpt lat="46.528490" lon="10.451330">
                <time>2017-07-15T15:49:58Z</time>
            </trkpt>
            <trkpt lat="46.528520" lon="10.451340">
                <time>2017-07-15T15:49:59Z</time>
            </trkpt>
            <trkpt lat="46.528540" lon="10.451350">
                <time>2017-07-15T15:50:00Z</time>
            </trkpt>
            <trkpt lat="46.528580" lon="10.451370">
                <time>2017-07-15T15:50:01Z</time>
            </trkpt>
            <trkpt lat="46.528620" lon="10.451400">
                <time>2017-07-15T15:50:02Z</time>
            </trkpt>
            <trkpt lat="46.528660" lon="10.451430">
                <time>2017-07-15T15:50:03Z</time>
            </trkpt>
            <trkpt lat="46.528710" lon="10.451490">
                <time>2017-07-15T15:50:04Z</time>
            </trkpt>
            <trkpt lat="46.528750" lon="10.451530">
                <time>2017-07-15T15:50:05Z</time>
            </trkpt>
            <trkpt lat="46.528790" lon="10.451570">
                <time>2017-07-15T15:50:06Z</time>
            </trkpt>
            <trkpt lat="46.528840" lon="10.451630">
                <time>2017-07-15T15:50:07Z</time>
            </trkpt>
            <trkpt lat="46.528880" lon="10.451680">
                <time>2017-07-15T15:50:08Z</time>
            </trkpt>
            <trkpt lat="46.528930" lon="10.451750">
                <time>2017-07-15T15:50:09Z</time>
            </trkpt>
            <trkpt lat="46.528970" lon="10.451820">
                <time>2017-07-15T15:50:10Z</time>
            </trkpt>
            <trkpt lat="46.529020" lon="10.451880">
                <time>2017-07-15T15:50:11Z</time>
            </trkpt>
            <trkpt lat="46.529060" lon="10.451940">
                <time>2017-07-15T15:50:12Z</time>
            </trkpt>
            <trkpt lat="46.529090" lon="10.452000">
                <time>2017-07-15T15:50:13Z</time>
            </trkpt>
            <trkpt lat="46.529130" lon="10.452060">
                <time>2017-07-15T15:50:14Z</time>
            </trkpt>
            <trkpt lat="46.529160" lon="10.452110">
                <time>2017-07-15T15:50:15Z</time>
            </trkpt>
            <trkpt lat="46.529190" lon="10.452160">
                <time>2017-07-15T15:50:16Z</time>
            </trkpt>
            <trkpt lat="46.529210" lon="10.452200">
                <time>2017-07-15T15:50:17Z</time>
            </trkpt>
            <trkpt lat="46.529220" lon="10.452230">
                <time>2017-07-15T15:50:18Z</time>
            </trkpt>
            <trkpt lat="46.529230" lon="10.452240">
                <time>2017-07-15T15:50:19Z</time>
            </trkpt>
            <trkpt lat="46.529220" lon="10.452240">
                <time>2017-07-15T15:50:20Z</time>
            </trkpt>
            <trkpt lat="46.529220" lon="10.452240">
                <time>2017-07-15T15:50:21Z</time>
            </trkpt>
            <trkpt lat="46.529220" lon="10.452240">
                <time>2017-07-15T15:50:22Z</time>
            </trkpt>
            <trkpt lat="46.529230" lon="10.452260">
                <time>2017-07-15T15:50:23Z</time>
            </trkpt>
            <trkpt lat="46.529230" lon="10.452290">
                <time>2017-07-15T15:50:24Z</time>
            </trkpt>
            <trkpt lat="46.529220" lon="10.452320">
                <time>2017-07-15T15:50:25Z</time>
            </trkpt>
            <trkpt lat="46.529190" lon="10.452350">
                <time>2017-07-15T15:50:26Z</time>
            </trkpt>
            <trkpt lat="46.529150" lon="10.452390">
                <time>2017-07-15T15:50:27Z</time>
            </trkpt>
            <trkpt lat="46.529080" lon="10.452460">
                <time>2017-07-15T15:50:28Z</time>
            </trkpt>
            <trkpt lat="46.529020" lon="10.452510">
                <time>2017-07-15T15:50:29Z</time>
            </trkpt>
            <trkpt lat="46.528970" lon="10.452560">
                <time>2017-07-15T15:50:30Z</time>
            </trkpt>
            <trkpt lat="46.528920" lon="10.452610">
                <time>2017-07-15T15:50:31Z</time>
            </trkpt>
            <trkpt lat="46.528890" lon="10.452650">
                <time>2017-07-15T15:50:32Z</time>
            </trkpt>
            <trkpt lat="46.528850" lon="10.452700">
                <time>2017-07-15T15:50:33Z</time>
            </trkpt>
            <trkpt lat="46.528810" lon="10.452740">
                <time>2017-07-15T15:50:34Z</time>
            </trkpt>
            <trkpt lat="46.528790" lon="10.452770">
                <time>2017-07-15T15:50:35Z</time>
            </trkpt>
            <trkpt lat="46.528760" lon="10.452790">
                <time>2017-07-15T15:50:36Z</time>
            </trkpt>
            <trkpt lat="46.528740" lon="10.452830">
                <time>2017-07-15T15:50:37Z</time>
            </trkpt>
            <trkpt lat="46.528720" lon="10.452870">
                <time>2017-07-15T15:50:38Z</time>
            </trkpt>
            <trkpt lat="46.528690" lon="10.452920">
                <time>2017-07-15T15:50:39Z</time>
            </trkpt>
            <trkpt lat="46.528660" lon="10.452950">
                <time>2017-07-15T15:50:40Z</time>
            </trkpt>
            <trkpt lat="46.528640" lon="10.452990">
                <time>2017-07-15T15:50:41Z</time>
            </trkpt>
            <trkpt lat="46.528630" lon="10.453040">
                <time>2017-07-15T15:50:42Z</time>
            </trkpt>
            <trkpt lat="46.528620" lon="10.453080">
                <time>2017-07-15T15:50:43Z</time>
            </trkpt>
            <trkpt lat="46.528610" lon="10.453130">
                <time>2017-07-15T15:50:44Z</time>
            </trkpt>
            <trkpt lat="46.528610" lon="10.453170">
                <time>2017-07-15T15:50:45Z</time>
            </trkpt>
            <trkpt lat="46.528610" lon="10.453210">
                <time>2017-07-15T15:50:46Z</time>
            </trkpt>
            <trkpt lat="46.528610" lon="10.453260">
                <time>2017-07-15T15:50:47Z</time>
            </trkpt>
            <trkpt lat="46.528610" lon="10.453290">
                <time>2017-07-15T15:50:48Z</time>
            </trkpt>
            <trkpt lat="46.528610" lon="10.453330">
                <time>2017-07-15T15:50:49Z</time>
            </trkpt>
            <trkpt lat="46.528610" lon="10.453370">
                <time>2017-07-15T15:50:50Z</time>
            </trkpt>
            <trkpt lat="46.528610" lon="10.453400">
                <time>2017-07-15T15:50:51Z</time>
            </trkpt>
            <trkpt lat="46.528620" lon="10.453440">
                <time>2017-07-15T15:50:52Z</time>
            </trkpt>
            <trkpt lat="46.528630" lon="10.453480">
                <time>2017-07-15T15:50:53Z</time>
            </trkpt>
            <trkpt lat="46.528650" lon="10.453520">
                <time>2017-07-15T15:50:54Z</time>
            </trkpt>
            <trkpt lat="46.528670" lon="10.453560">
                <time>2017-07-15T15:50:55Z</time>
            </trkpt>
            <trkpt lat="46.528690" lon="10.453600">
                <time>2017-07-15T15:50:56Z</time>
            </trkpt>
            <trkpt lat="46.528710" lon="10.453640">
                <time>2017-07-15T15:50:57Z</time>
            </trkpt>
            <trkpt lat="46.528740" lon="10.453670">
                <time>2017-07-15T15:50:58Z</time>
            </trkpt>
            <trkpt lat="46.528760" lon="10.453710">
                <time>2017-07-15T15:50:59Z</time>
            </trkpt>
            <trkpt lat="46.528780" lon="10.453740">
                <time>2017-07-15T15:51:00Z</time>
            </trkpt>
            <trkpt lat="46.528800" lon="10.453770">
                <time>2017-07-15T15:51:01Z</time>
            </trkpt>
            <trkpt lat="46.528820" lon="10.453800">
                <time>2017-07-15T15:51:02Z</time>
            </trkpt>
            <trkpt lat="46.528840" lon="10.453830">
                <time>2017-07-15T15:51:03Z</time>
            </trkpt>
            <trkpt lat="46.528860" lon="10.453860">
                <time>2017-07-15T15:51:04Z</time>
            </trkpt>
            <trkpt lat="46.528880" lon="10.453870">
                <time>2017-07-15T15:51:05Z</time>
            </trkpt>
            <trkpt lat="46.528900" lon="10.453870">
                <time>2017-07-15T15:51:06Z</time>
            </trkpt>
            <trkpt lat="46.528900" lon="10.453860">
                <time>2017-07-15T15:51:07Z</time>
            </trkpt>
            <trkpt lat="46.528910" lon="10.453840">
                <time>2017-07-15T15:51:08Z</time>
            </trkpt>
            <trkpt lat="46.528910" lon="10.453830">
                <time>2017-07-15T15:51:09Z</time>
            </trkpt>
            <trkpt lat="46.528910" lon="10.453820">
                <time>2017-07-15T15:51:10Z</time>
            </trkpt>
            <trkpt lat="46.528910" lon="10.453810">
                <time>2017-07-15T15:51:11Z</time>
            </trkpt>
            <trkpt lat="46.528910" lon="10.453800">
                <time>2017-07-15T15:51:12Z</time>
            </trkpt>
            <trkpt lat="46.528910" lon="10.453800">
                <time>2017-07-15T15:51:13Z</time>
            </trkpt>
            <trkpt lat="46.528900" lon="10.453810">
                <time>2017-07-15T15:51:14Z</time>
            </trkpt>
            <trkpt lat="46.528900" lon="10.453820">
                <time>2017-07-15T15:51:15Z</time>
            </trkpt>
            <trkpt lat="46.528900" lon="10.453830">
                <time>2017-07-15T15:51:16Z</time>
            </trkpt>
            <trkpt lat="46.528900" lon="10.453830">
                <time>2017-07-15T15:51:17Z</time>
            </trkpt>
            <trkpt lat="46.528900" lon="10.453840">
                <time>2017-07-15T15:51:18Z</time>
            </trkpt>
            <trkpt lat="46.528890" lon="10.453830">
                <time>2017-07-15T15:51:19Z</time>
            </trkpt>
            <trkpt lat="46.528890" lon="10.453820">
                <time>2017-07-15T15:51:20Z</time>
            </trkpt>
            <trkpt lat="46.528890" lon="10.453810">
                <time>2017-07-15T15:51:21Z</time>
            </trkpt>
            <trkpt lat="46.528900" lon="10.453790">
                <time>2017-07-15T15:51:22Z</time>
            </trkpt>
            <trkpt lat="46.528900" lon="10.453790">
                <time>2017-07-15T15:51:23Z</time>
            </trkpt>
            <trkpt lat="46.528900" lon="10.453790">
                <time>2017-07-15T15:51:24Z</time>
            </trkpt>
            <trkpt lat="46.528900" lon="10.453790">
                <time>2017-07-15T15:51:25Z</time>
            </trkpt>
            <trkpt lat="46.528900" lon="10.453790">
                <time>2017-07-15T15:51:26Z</time>
            </trkpt>
            <trkpt lat="46.528900" lon="10.453780">
                <time>2017-07-15T15:51:27Z</time>
            </trkpt>
            <trkpt lat="46.528900" lon="10.453780">
                <time>2017-07-15T15:51:28Z</time>
            </trkpt>
            <trkpt lat="46.528900" lon="10.453780">
                <time>2017-07-15T15:51:29Z</time>
            </trkpt>
            <trkpt lat="46.528900" lon="10.453780">
                <time>2017-07-15T15:51:30Z</time>
            </trkpt>
            <trkpt lat="46.528900" lon="10.453780">
                <time>2017-07-15T15:51:31Z</time>
            </trkpt>
            <trkpt lat="46.528900" lon="10.453780">
                <time>2017-07-15T15:51:32Z</time>
            </trkpt>
            <trkpt lat="46.528900" lon="10.453780">
                <time>2017-07-15T15:51:33Z</time>
            </trkpt>
            <trkpt lat="46.528900" lon="10.453780">
                <time>2017-07-15T15:51:34Z</time>
            </trkpt>
            <trkpt lat="46.528900" lon="10.453780">
                <time>2017-07-15T15:51:35Z</time>
            </trkpt>
            <trkpt lat="46.528900" lon="10.453780">
                <time>2017-07-15T15:51:36Z</time>
            </trkpt>
            <trkpt lat="46.528900" lon="10.453780">
                <time>2017-07-15T15:51:37Z</time>
            </trkpt>
            <trkpt lat="46.528900" lon="10.453780">
                <time>2017-07-15T15:51:38Z</time>
            </trkpt>
            <trkpt lat="46.528900" lon="10.453780">
                <time>2017-07-15T15:51:39Z</time>
            </trkpt>
            <trkpt lat="46.528900" lon="10.453780">
                <time>2017-07-15T15:51:40Z</time>
            </trkpt>
            <trkpt lat="46.528900" lon="10.453780">
                <time>2017-07-15T15:51:41Z</time>
            </trkpt>
            <trkpt lat="46.528900" lon="10.453780">
                <time>2017-07-15T15:51:42Z</time>
            </trkpt>
            <trkpt lat="46.528900" lon="10.453780">
                <time>2017-07-15T15:51:43Z</time>
            </trkpt>
            <trkpt lat="46.528900" lon="10.453780">
                <time>2017-07-15T15:51:44Z</time>
            </trkpt>
            <trkpt lat="46.528890" lon="10.453780">
                <time>2017-07-15T15:51:45Z</time>
            </trkpt>
            <trkpt lat="46.528890" lon="10.453780">
                <time>2017-07-15T15:51:46Z</time>
            </trkpt>
            <trkpt lat="46.528890" lon="10.453780">
                <time>2017-07-15T15:51:47Z</time>
            </trkpt>
            <trkpt lat="46.528890" lon="10.453780">
                <time>2017-07-15T15:51:48Z</time>
            </trkpt>
            <trkpt lat="46.528890" lon="10.453780">
                <time>2017-07-15T15:51:49Z</time>
            </trkpt>
            <trkpt lat="46.528890" lon="10.453780">
                <time>2017-07-15T15:51:50Z</time>
            </trkpt>
            <trkpt lat="46.528890" lon="10.453780">
                <time>2017-07-15T15:51:51Z</time>
            </trkpt>
            <trkpt lat="46.528890" lon="10.453780">
                <time>2017-07-15T15:51:52Z</time>
            </trkpt>
            <trkpt lat="46.528890" lon="10.453780">
                <time>2017-07-15T15:51:53Z</time>
            </trkpt>
            <trkpt lat="46.528890" lon="10.453780">
                <time>2017-07-15T15:51:54Z</time>
            </trkpt>
            <trkpt lat="46.528890" lon="10.453780">
                <time>2017-07-15T15:51:55Z</time>
            </trkpt>
            <trkpt lat="46.528890" lon="10.453780">
                <time>2017-07-15T15:51:56Z</time>
            </trkpt>
            <trkpt lat="46.528890" lon="10.453780">
                <time>2017-07-15T15:51:57Z</time>
            </trkpt>
            <trkpt lat="46.528890" lon="10.453780">
                <time>2017-07-15T15:51:58Z</time>
            </trkpt>
            <trkpt lat="46.528890" lon="10.453780">
                <time>2017-07-15T15:51:59Z</time>
            </trkpt>
            <trkpt lat="46.528890" lon="10.453780">
                <time>2017-07-15T15:52:00Z</time>
            </trkpt>
            <trkpt lat="46.528890" lon="10.453780">
                <time>2017-07-15T15:52:01Z</time>
            </trkpt>
            <trkpt lat="46.528890" lon="10.453780">
                <time>2017-07-15T15:52:02Z</time>
            </trkpt>
            <trkpt lat="46.528890" lon="10.453780">
                <time>2017-07-15T15:52:03Z</time>
            </trkpt>
            <trkpt lat="46.528890" lon="10.453780">
                <time>2017-07-15T15:52:04Z</time>
            </trkpt>
            <trkpt lat="46.528890" lon="10.453780">
                <time>2017-07-15T15:52:05Z</time>
            </trkpt>
            <trkpt lat="46.528890" lon="10.453780">
                <time>2017-07-15T15:52:06Z</time>
            </trkpt>
            <trkpt lat="46.528890" lon="10.453780">
                <time>2017-07-15T15:52:07Z</time>
            </trkpt>
            <trkpt lat="46.528890" lon="10.453780">
                <time>2017-07-15T15:52:08Z</time>
            </trkpt>
            <trkpt lat="46.528890" lon="10.453780">
                <time>2017-07-15T15:52:09Z</time>
            </trkpt>
            <trkpt lat="46.528890" lon="10.453780">
                <time>2017-07-15T15:52:10Z</time>
            </trkpt>
            <trkpt lat="46.528890" lon="10.453780">
                <time>2017-07-15T15:52:11Z</time>
            </trkpt>
            <trkpt lat="46.528890" lon="10.453780">
                <time>2017-07-15T15:52:12Z</time>
            </trkpt>
            <trkpt lat="46.528890" lon="10.453780">
                <time>2017-07-15T15:52:13Z</time>
            </trkpt>
            <trkpt lat="46.528890" lon="10.453780">
                <time>2017-07-15T15:52:14Z</time>
            </trkpt>
            <trkpt lat="46.528890" lon="10.453780">
                <time>2017-07-15T15:52:15Z</time>
            </trkpt>
            <trkpt lat="46.528890" lon="10.453780">
                <time>2017-07-15T15:52:16Z</time>
            </trkpt>
            <trkpt lat="46.528890" lon="10.453780">
                <time>2017-07-15T15:52:17Z</time>
            </trkpt>
            <trkpt lat="46.528890" lon="10.453780">
                <time>2017-07-15T15:52:18Z</time>
            </trkpt>
            <trkpt lat="46.528890" lon="10.453780">
                <time>2017-07-15T15:52:19Z</time>
            </trkpt>
            <trkpt lat="46.528890" lon="10.453780">
                <time>2017-07-15T15:52:20Z</time>
            </trkpt>
            <trkpt lat="46.528890" lon="10.453780">
                <time>2017-07-15T15:52:21Z</time>
            </trkpt>
            <trkpt lat="46.528890" lon="10.453780">
                <time>2017-07-15T15:52:22Z</time>
            </trkpt>
            <trkpt lat="46.528890" lon="10.453780">
                <time>2017-07-15T15:52:23Z</time>
            </trkpt>
            <trkpt lat="46.528890" lon="10.453790">
                <time>2017-07-15T15:52:24Z</time>
            </trkpt>
            <trkpt lat="46.528890" lon="10.453790">
                <time>2017-07-15T15:52:25Z</time>
            </trkpt>
            <trkpt lat="46.528890" lon="10.453790">
                <time>2017-07-15T15:52:26Z</time>
            </trkpt>
            <trkpt lat="46.528890" lon="10.453790">
                <time>2017-07-15T15:52:27Z</time>
            </trkpt>
            <trkpt lat="46.528890" lon="10.453790">
                <time>2017-07-15T15:52:28Z</time>
            </trkpt>
            <trkpt lat="46.528890" lon="10.453790">
                <time>2017-07-15T15:52:29Z</time>
            </trkpt>
            <trkpt lat="46.528890" lon="10.453790">
                <time>2017-07-15T15:52:30Z</time>
            </trkpt>
            <trkpt lat="46.528890" lon="10.453790">
                <time>2017-07-15T15:52:31Z</time>
            </trkpt>
            <trkpt lat="46.528890" lon="10.453790">
                <time>2017-07-15T15:52:32Z</time>
            </trkpt>
            <trkpt lat="46.528890" lon="10.453780">
                <time>2017-07-15T15:52:33Z</time>
            </trkpt>
            <trkpt lat="46.528890" lon="10.453780">
                <time>2017-07-15T15:52:34Z</time>
            </trkpt>
            <trkpt lat="46.528890" lon="10.453780">
                <time>2017-07-15T15:52:35Z</time>
            </trkpt>
            <trkpt lat="46.528890" lon="10.453780">
                <time>2017-07-15T15:52:36Z</time>
            </trkpt>
            <trkpt lat="46.528890" lon="10.453780">
                <time>2017-07-15T15:52:37Z</time>
            </trkpt>
            <trkpt lat="46.528890" lon="10.453780">
                <time>2017-07-15T15:52:38Z</time>
            </trkpt>
            <trkpt lat="46.528890" lon="10.453780">
                <time>2017-07-15T15:52:39Z</time>
            </trkpt>
            <trkpt lat="46.528890" lon="10.453780">
                <time>2017-07-15T15:52:40Z</time>
            </trkpt>
            <trkpt lat="46.528890" lon="10.453780">
                <time>2017-07-15T15:52:41Z</time>
            </trkpt>
            <trkpt lat="46.528890" lon="10.453780">
                <time>2017-07-15T15:52:42Z</time>
            </trkpt>
            <trkpt lat="46.528890" lon="10.453780">
                <time>2017-07-15T15:52:43Z</time>
            </trkpt>
            <trkpt lat="46.528890" lon="10.453780">
                <time>2017-07-15T15:52:44Z</time>
            </trkpt>
            <trkpt lat="46.528890" lon="10.453780">
                <time>2017-07-15T15:52:45Z</time>
            </trkpt>
            <trkpt lat="46.528890" lon="10.453780">
                <time>2017-07-15T15:52:46Z</time>
            </trkpt>
            <trkpt lat="46.528890" lon="10.453780">
                <time>2017-07-15T15:52:47Z</time>
            </trkpt>
            <trkpt lat="46.528890" lon="10.453780">
                <time>2017-07-15T15:52:48Z</time>
            </trkpt>
            <trkpt lat="46.528890" lon="10.453780">
                <time>2017-07-15T15:52:49Z</time>
            </trkpt>
            <trkpt lat="46.528890" lon="10.453780">
                <time>2017-07-15T15:52:50Z</time>
            </trkpt>
            <trkpt lat="46.528890" lon="10.453780">
                <time>2017-07-15T15:52:51Z</time>
            </trkpt>
            <trkpt lat="46.528890" lon="10.453780">
                <time>2017-07-15T15:52:52Z</time>
            </trkpt>
            <trkpt lat="46.528890" lon="10.453780">
                <time>2017-07-15T15:52:53Z</time>
            </trkpt>
            <trkpt lat="46.528890" lon="10.453780">
                <time>2017-07-15T15:52:54Z</time>
            </trkpt>
            <trkpt lat="46.528890" lon="10.453780">
                <time>2017-07-15T15:52:55Z</time>
            </trkpt>
            <trkpt lat="46.528890" lon="10.453780">
                <time>2017-07-15T15:52:56Z</time>
            </trkpt>
            <trkpt lat="46.528890" lon="10.453780">
                <time>2017-07-15T15:52:57Z</time>
            </trkpt>
            <trkpt lat="46.528890" lon="10.453780">
                <time>2017-07-15T15:52:58Z</time>
            </trkpt>
            <trkpt lat="46.528890" lon="10.453780">
                <time>2017-07-15T15:52:59Z</time>
            </trkpt>
            <trkpt lat="46.528890" lon="10.453780">
                <time>2017-07-15T15:53:00Z</time>
            </trkpt>
            <trkpt lat="46.528890" lon="10.453780">
                <time>2017-07-15T15:53:01Z</time>
            </trkpt>
            <trkpt lat="46.528890" lon="10.453780">
                <time>2017-07-15T15:53:02Z</time>
            </trkpt>
            <trkpt lat="46.528920" lon="10.453850">
                <time>2017-07-15T16:29:29Z</time>
            </trkpt>
            <trkpt lat="46.528870" lon="10.453760">
                <time>2017-07-15T16:29:30Z</time>
            </trkpt>
            <trkpt lat="46.528810" lon="10.453690">
                <time>2017-07-15T16:29:31Z</time>
            </trkpt>
            <trkpt lat="46.528900" lon="10.453780">
                <time>2017-07-15T16:29:32Z</time>
            </trkpt>
            <trkpt lat="46.528900" lon="10.453780">
                <time>2017-07-15T16:29:33Z</time>
            </trkpt>
            <trkpt lat="46.528880" lon="10.453790">
                <time>2017-07-15T16:29:34Z</time>
            </trkpt>
            <trkpt lat="46.528880" lon="10.453780">
                <time>2017-07-15T16:29:35Z</time>
            </trkpt>
            <trkpt lat="46.528880" lon="10.453780">
                <time>2017-07-15T16:29:36Z</time>
            </trkpt>
            <trkpt lat="46.528880" lon="10.453790">
                <time>2017-07-15T16:29:37Z</time>
            </trkpt>
            <trkpt lat="46.528890" lon="10.453800">
                <time>2017-07-15T16:29:38Z</time>
            </trkpt>
            <trkpt lat="46.528890" lon="10.453800">
                <time>2017-07-15T16:29:39Z</time>
            </trkpt>
            <trkpt lat="46.528890" lon="10.453800">
                <time>2017-07-15T16:29:40Z</time>
            </trkpt>
            <trkpt lat="46.528890" lon="10.453800">
                <time>2017-07-15T16:29:41Z</time>
            </trkpt>
            <trkpt lat="46.528880" lon="10.453800">
                <time>2017-07-15T16:29:42Z</time>
            </trkpt>
            <trkpt lat="46.528870" lon="10.453800">
                <time>2017-07-15T16:29:43Z</time>
            </trkpt>
            <trkpt lat="46.528870" lon="10.453800">
                <time>2017-07-15T16:29:44Z</time>
            </trkpt>
            <trkpt lat="46.528870" lon="10.453800">
                <time>2017-07-15T16:29:45Z</time>
            </trkpt>
            <trkpt lat="46.528880" lon="10.453810">
                <time>2017-07-15T16:29:46Z</time>
            </trkpt>
            <trkpt lat="46.528880" lon="10.453800">
                <time>2017-07-15T16:29:47Z</time>
            </trkpt>
            <trkpt lat="46.528880" lon="10.453800">
                <time>2017-07-15T16:29:48Z</time>
            </trkpt>
            <trkpt lat="46.528860" lon="10.453790">
                <time>2017-07-15T16:29:49Z</time>
            </trkpt>
            <trkpt lat="46.528830" lon="10.453770">
                <time>2017-07-15T16:29:50Z</time>
            </trkpt>
            <trkpt lat="46.528800" lon="10.453740">
                <time>2017-07-15T16:29:51Z</time>
            </trkpt>
            <trkpt lat="46.528780" lon="10.453700">
                <time>2017-07-15T16:29:52Z</time>
            </trkpt>
            <trkpt lat="46.528750" lon="10.453660">
                <time>2017-07-15T16:29:53Z</time>
            </trkpt>
            <trkpt lat="46.528720" lon="10.453610">
                <time>2017-07-15T16:29:54Z</time>
            </trkpt>
            <trkpt lat="46.528680" lon="10.453540">
                <time>2017-07-15T16:29:55Z</time>
            </trkpt>
            <trkpt lat="46.528660" lon="10.453460">
                <time>2017-07-15T16:29:56Z</time>
            </trkpt>
            <trkpt lat="46.528650" lon="10.453380">
                <time>2017-07-15T16:29:57Z</time>
            </trkpt>
            <trkpt lat="46.528640" lon="10.453300">
                <time>2017-07-15T16:29:58Z</time>
            </trkpt>
            <trkpt lat="46.528640" lon="10.453230">
                <time>2017-07-15T16:29:59Z</time>
            </trkpt>
            <trkpt lat="46.528640" lon="10.453190">
                <time>2017-07-15T16:30:00Z</time>
            </trkpt>
            <trkpt lat="46.528620" lon="10.453150">
                <time>2017-07-15T16:30:01Z</time>
            </trkpt>
            <trkpt lat="46.528590" lon="10.453120">
                <time>2017-07-15T16:30:02Z</time>
            </trkpt>
            <trkpt lat="46.528550" lon="10.453100">
                <time>2017-07-15T16:30:03Z</time>
            </trkpt>
            <trkpt lat="46.528500" lon="10.453100">
                <time>2017-07-15T16:30:04Z</time>
            </trkpt>
            <trkpt lat="46.528440" lon="10.453100">
                <time>2017-07-15T16:30:05Z</time>
            </trkpt>
            <trkpt lat="46.528370" lon="10.453090">
                <time>2017-07-15T16:30:06Z</time>
            </trkpt>
            <trkpt lat="46.528300" lon="10.453080">
                <time>2017-07-15T16:30:07Z</time>
            </trkpt>
            <trkpt lat="46.528230" lon="10.453060">
                <time>2017-07-15T16:30:08Z</time>
            </trkpt>
            <trkpt lat="46.528170" lon="10.453040">
                <time>2017-07-15T16:30:09Z</time>
            </trkpt>
            <trkpt lat="46.528110" lon="10.453030">
                <time>2017-07-15T16:30:10Z</time>
            </trkpt>
            <trkpt lat="46.528060" lon="10.453010">
                <time>2017-07-15T16:30:11Z</time>
            </trkpt>
            <trkpt lat="46.528020" lon="10.453000">
                <time>2017-07-15T16:30:12Z</time>
            </trkpt>
            <trkpt lat="46.527980" lon="10.452980">
                <time>2017-07-15T16:30:13Z</time>
            </trkpt>
            <trkpt lat="46.527940" lon="10.452960">
                <time>2017-07-15T16:30:14Z</time>
            </trkpt>
            <trkpt lat="46.527920" lon="10.452940">
                <time>2017-07-15T16:30:15Z</time>
            </trkpt>
            <trkpt lat="46.527900" lon="10.452930">
                <time>2017-07-15T16:30:16Z</time>
            </trkpt>
            <trkpt lat="46.527880" lon="10.452910">
                <time>2017-07-15T16:30:17Z</time>
            </trkpt>
            <trkpt lat="46.527870" lon="10.452890">
                <time>2017-07-15T16:30:18Z</time>
            </trkpt>
            <trkpt lat="46.527850" lon="10.452880">
                <time>2017-07-15T16:30:19Z</time>
            </trkpt>
            <trkpt lat="46.527820" lon="10.452860">
                <time>2017-07-15T16:30:20Z</time>
            </trkpt>
            <trkpt lat="46.527780" lon="10.452840">
                <time>2017-07-15T16:30:21Z</time>
            </trkpt>
            <trkpt lat="46.527750" lon="10.452840">
                <time>2017-07-15T16:30:22Z</time>
            </trkpt>
            <trkpt lat="46.527710" lon="10.452850">
                <time>2017-07-15T16:30:23Z</time>
            </trkpt>
            <trkpt lat="46.527670" lon="10.452860">
                <time>2017-07-15T16:30:24Z</time>
            </trkpt>
            <trkpt lat="46.527630" lon="10.452880">
                <time>2017-07-15T16:30:25Z</time>
            </trkpt>
            <trkpt lat="46.527600" lon="10.452910">
                <time>2017-07-15T16:30:26Z</time>
            </trkpt>
            <trkpt lat="46.527570" lon="10.452960">
                <time>2017-07-15T16:30:27Z</time>
            </trkpt>
            <trkpt lat="46.527540" lon="10.453040">
                <time>2017-07-15T16:30:28Z</time>
            </trkpt>
            <trkpt lat="46.527510" lon="10.453100">
                <time>2017-07-15T16:30:29Z</time>
            </trkpt>
            <trkpt lat="46.527470" lon="10.453150">
                <time>2017-07-15T16:30:30Z</time>
            </trkpt>
            <trkpt lat="46.527430" lon="10.453210">
                <time>2017-07-15T16:30:31Z</time>
            </trkpt>
            <trkpt lat="46.527420" lon="10.453280">
                <time>2017-07-15T16:30:32Z</time>
            </trkpt>
            <trkpt lat="46.527410" lon="10.453360">
                <time>2017-07-15T16:30:33Z</time>
            </trkpt>
            <trkpt lat="46.527410" lon="10.453450">
                <time>2017-07-15T16:30:34Z</time>
            </trkpt>
            <trkpt lat="46.527420" lon="10.453530">
                <time>2017-07-15T16:30:35Z</time>
            </trkpt>
            <trkpt lat="46.527440" lon="10.453630">
                <time>2017-07-15T16:30:36Z</time>
            </trkpt>
            <trkpt lat="46.527460" lon="10.453720">
                <time>2017-07-15T16:30:37Z</time>
            </trkpt>
            <trkpt lat="46.527480" lon="10.453820">
                <time>2017-07-15T16:30:38Z</time>
            </trkpt>
            <trkpt lat="46.527520" lon="10.453930">
                <time>2017-07-15T16:30:39Z</time>
            </trkpt>
            <trkpt lat="46.527570" lon="10.454010">
                <time>2017-07-15T16:30:40Z</time>
            </trkpt>
            <trkpt lat="46.527640" lon="10.454090">
                <time>2017-07-15T16:30:41Z</time>
            </trkpt>
            <trkpt lat="46.527690" lon="10.454160">
                <time>2017-07-15T16:30:42Z</time>
            </trkpt>
            <trkpt lat="46.527740" lon="10.454220">
                <time>2017-07-15T16:30:43Z</time>
            </trkpt>
            <trkpt lat="46.527760" lon="10.454300">
                <time>2017-07-15T16:30:44Z</time>
            </trkpt>
            <trkpt lat="46.527770" lon="10.454380">
                <time>2017-07-15T16:30:45Z</time>
            </trkpt>
            <trkpt lat="46.527760" lon="10.454470">
                <time>2017-07-15T16:30:46Z</time>
            </trkpt>
            <trkpt lat="46.527750" lon="10.454580">
                <time>2017-07-15T16:30:47Z</time>
            </trkpt>
            <trkpt lat="46.527730" lon="10.454690">
                <time>2017-07-15T16:30:48Z</time>
            </trkpt>
            <trkpt lat="46.527700" lon="10.454800">
                <time>2017-07-15T16:30:49Z</time>
            </trkpt>
            <trkpt lat="46.527670" lon="10.454920">
                <time>2017-07-15T16:30:50Z</time>
            </trkpt>
            <trkpt lat="46.527630" lon="10.455010">
                <time>2017-07-15T16:30:51Z</time>
            </trkpt>
            <trkpt lat="46.527580" lon="10.455130">
                <time>2017-07-15T16:30:52Z</time>
            </trkpt>
            <trkpt lat="46.527550" lon="10.455220">
                <time>2017-07-15T16:30:53Z</time>
            </trkpt>
            <trkpt lat="46.527520" lon="10.455320">
                <time>2017-07-15T16:30:54Z</time>
            </trkpt>
            <trkpt lat="46.527510" lon="10.455430">
                <time>2017-07-15T16:30:55Z</time>
            </trkpt>
            <trkpt lat="46.527500" lon="10.455530">
                <time>2017-07-15T16:30:56Z</time>
            </trkpt>
            <trkpt lat="46.527480" lon="10.455630">
                <time>2017-07-15T16:30:57Z</time>
            </trkpt>
            <trkpt lat="46.527470" lon="10.455720">
                <time>2017-07-15T16:30:58Z</time>
            </trkpt>
            <trkpt lat="46.527440" lon="10.455790">
                <time>2017-07-15T16:30:59Z</time>
            </trkpt>
            <trkpt lat="46.527410" lon="10.455860">
                <time>2017-07-15T16:31:00Z</time>
            </trkpt>
            <trkpt lat="46.527390" lon="10.455900">
                <time>2017-07-15T16:31:01Z</time>
            </trkpt>
            <trkpt lat="46.527370" lon="10.455930">
                <time>2017-07-15T16:31:02Z</time>
            </trkpt>
            <trkpt lat="46.527370" lon="10.455940">
                <time>2017-07-15T16:31:03Z</time>
            </trkpt>
            <trkpt lat="46.527360" lon="10.455950">
                <time>2017-07-15T16:31:04Z</time>
            </trkpt>
            <trkpt lat="46.527360" lon="10.455950">
                <time>2017-07-15T16:31:05Z</time>
            </trkpt>
            <trkpt lat="46.527360" lon="10.455960">
                <time>2017-07-15T16:31:06Z</time>
            </trkpt>
            <trkpt lat="46.527370" lon="10.455970">
                <time>2017-07-15T16:31:07Z</time>
            </trkpt>
            <trkpt lat="46.527360" lon="10.455980">
                <time>2017-07-15T16:31:08Z</time>
            </trkpt>
            <trkpt lat="46.527360" lon="10.456000">
                <time>2017-07-15T16:31:09Z</time>
            </trkpt>
            <trkpt lat="46.527350" lon="10.456020">
                <time>2017-07-15T16:31:10Z</time>
            </trkpt>
            <trkpt lat="46.527350" lon="10.456050">
                <time>2017-07-15T16:31:11Z</time>
            </trkpt>
            <trkpt lat="46.527340" lon="10.456090">
                <time>2017-07-15T16:31:12Z</time>
            </trkpt>
            <trkpt lat="46.527340" lon="10.456120">
                <time>2017-07-15T16:31:13Z</time>
            </trkpt>
            <trkpt lat="46.527350" lon="10.456160">
                <time>2017-07-15T16:31:14Z</time>
            </trkpt>
            <trkpt lat="46.527350" lon="10.456190">
                <time>2017-07-15T16:31:15Z</time>
            </trkpt>
            <trkpt lat="46.527360" lon="10.456230">
                <time>2017-07-15T16:31:16Z</time>
            </trkpt>
            <trkpt lat="46.527370" lon="10.456250">
                <time>2017-07-15T16:31:17Z</time>
            </trkpt>
            <trkpt lat="46.527380" lon="10.456270">
                <time>2017-07-15T16:31:18Z</time>
            </trkpt>
            <trkpt lat="46.527390" lon="10.456270">
                <time>2017-07-15T16:31:19Z</time>
            </trkpt>
            <trkpt lat="46.527390" lon="10.456270">
                <time>2017-07-15T16:31:20Z</time>
            </trkpt>
            <trkpt lat="46.527390" lon="10.456260">
                <time>2017-07-15T16:31:21Z</time>
            </trkpt>
            <trkpt lat="46.527390" lon="10.456260">
                <time>2017-07-15T16:31:22Z</time>
            </trkpt>
            <trkpt lat="46.527390" lon="10.456270">
                <time>2017-07-15T16:31:23Z</time>
            </trkpt>
            <trkpt lat="46.527400" lon="10.456280">
                <time>2017-07-15T16:31:24Z</time>
            </trkpt>
            <trkpt lat="46.527400" lon="10.456300">
                <time>2017-07-15T16:31:25Z</time>
            </trkpt>
            <trkpt lat="46.527400" lon="10.456310">
                <time>2017-07-15T16:31:26Z</time>
            </trkpt>
            <trkpt lat="46.527400" lon="10.456320">
                <time>2017-07-15T16:31:27Z</time>
            </trkpt>
            <trkpt lat="46.527400" lon="10.456330">
                <time>2017-07-15T16:31:28Z</time>
            </trkpt>
            <trkpt lat="46.527400" lon="10.456340">
                <time>2017-07-15T16:31:29Z</time>
            </trkpt>
            <trkpt lat="46.527400" lon="10.456340">
                <time>2017-07-15T16:31:30Z</time>
            </trkpt>
            <trkpt lat="46.527400" lon="10.456340">
                <time>2017-07-15T16:31:31Z</time>
            </trkpt>
            <trkpt lat="46.527400" lon="10.456340">
                <time>2017-07-15T16:31:32Z</time>
            </trkpt>
            <trkpt lat="46.527400" lon="10.456340">
                <time>2017-07-15T16:31:33Z</time>
            </trkpt>
            <trkpt lat="46.527400" lon="10.456340">
                <time>2017-07-15T16:31:34Z</time>
            </trkpt>
            <trkpt lat="46.527400" lon="10.456340">
                <time>2017-07-15T16:31:35Z</time>
            </trkpt>
            <trkpt lat="46.527400" lon="10.456340">
                <time>2017-07-15T16:31:36Z</time>
            </trkpt>
            <trkpt lat="46.527400" lon="10.456340">
                <time>2017-07-15T16:31:37Z</time>
            </trkpt>
            <trkpt lat="46.527400" lon="10.456340">
                <time>2017-07-15T16:31:38Z</time>
            </trkpt>
            <trkpt lat="46.527400" lon="10.456340">
                <time>2017-07-15T16:31:39Z</time>
            </trkpt>
            <trkpt lat="46.527400" lon="10.456340">
                <time>2017-07-15T16:31:40Z</time>
            </trkpt>
            <trkpt lat="46.527400" lon="10.456340">
                <time>2017-07-15T16:31:41Z</time>
            </trkpt>
            <trkpt lat="46.527400" lon="10.456340">
                <time>2017-07-15T16:31:42Z</time>
            </trkpt>
            <trkpt lat="46.527400" lon="10.456340">
                <time>2017-07-15T16:31:43Z</time>
            </trkpt>
            <trkpt lat="46.527400" lon="10.456340">
                <time>2017-07-15T16:31:44Z</time>
            </trkpt>
            <trkpt lat="46.527400" lon="10.456340">
                <time>2017-07-15T16:31:45Z</time>
            </trkpt>
            <trkpt lat="46.527400" lon="10.456340">
                <time>2017-07-15T16:31:46Z</time>
            </trkpt>
            <trkpt lat="46.527400" lon="10.456340">
                <time>2017-07-15T16:31:47Z</time>
            </trkpt>
            <trkpt lat="46.527400" lon="10.456340">
                <time>2017-07-15T16:31:48Z</time>
            </trkpt>
            <trkpt lat="46.527400" lon="10.456340">
                <time>2017-07-15T16:31:49Z</time>
            </trkpt>
            <trkpt lat="46.527400" lon="10.456340">
                <time>2017-07-15T16:31:50Z</time>
            </trkpt>
            <trkpt lat="46.527400" lon="10.456340">
                <time>2017-07-15T16:31:51Z</time>
            </trkpt>
            <trkpt lat="46.527400" lon="10.456340">
                <time>2017-07-15T16:31:52Z</time>
            </trkpt>
            <trkpt lat="46.527400" lon="10.456340">
                <time>2017-07-15T16:31:53Z</time>
            </trkpt>
            <trkpt lat="46.527400" lon="10.456340">
                <time>2017-07-15T16:31:54Z</time>
            </trkpt>
            <trkpt lat="46.527400" lon="10.456340">
                <time>2017-07-15T16:31:55Z</time>
            </trkpt>
            <trkpt lat="46.527400" lon="10.456340">
                <time>2017-07-15T16:31:56Z</time>
            </trkpt>
            <trkpt lat="46.527400" lon="10.456340">
                <time>2017-07-15T16:31:57Z</time>
            </trkpt>
            <trkpt lat="46.527400" lon="10.456340">
                <time>2017-07-15T16:31:58Z</time>
            </trkpt>
            <trkpt lat="46.527400" lon="10.456340">
                <time>2017-07-15T16:31:59Z</time>
            </trkpt>
            <trkpt lat="46.527400" lon="10.456340">
                <time>2017-07-15T16:32:00Z</time>
            </trkpt>
            <trkpt lat="46.527400" lon="10.456340">
                <time>2017-07-15T16:32:01Z</time>
            </trkpt>
            <trkpt lat="46.527400" lon="10.456340">
                <time>2017-07-15T16:32:02Z</time>
            </trkpt>
            <trkpt lat="46.527400" lon="10.456340">
                <time>2017-07-15T16:32:03Z</time>
            </trkpt>
            <trkpt lat="46.527400" lon="10.456340">
                <time>2017-07-15T16:32:04Z</time>
            </trkpt>
            <trkpt lat="46.527400" lon="10.456340">
                <time>2017-07-15T16:32:05Z</time>
            </trkpt>
            <trkpt lat="46.527400" lon="10.456340">
                <time>2017-07-15T16:32:06Z</time>
            </trkpt>
            <trkpt lat="46.527400" lon="10.456340">
                <time>2017-07-15T16:32:07Z</time>
            </trkpt>
            <trkpt lat="46.527400" lon="10.456340">
                <time>2017-07-15T16:32:08Z</time>
            </trkpt>
            <trkpt lat="46.527400" lon="10.456340">
                <time>2017-07-15T16:32:09Z</time>
            </trkpt>
            <trkpt lat="46.527400" lon="10.456340">
                <time>2017-07-15T16:32:10Z</time>
            </trkpt>
            <trkpt lat="46.527400" lon="10.456340">
                <time>2017-07-15T16:32:11Z</time>
            </trkpt>
            <trkpt lat="46.527400" lon="10.456340">
                <time>2017-07-15T16:32:12Z</time>
            </trkpt>
            <trkpt lat="46.527400" lon="10.456340">
                <time>2017-07-15T16:32:13Z</time>
            </trkpt>
            <trkpt lat="46.527400" lon="10.456340">
                <time>2017-07-15T16:32:14Z</time>
            </trkpt>
            <trkpt lat="46.527400" lon="10.456340">
                <time>2017-07-15T16:32:15Z</time>
            </trkpt>
            <trkpt lat="46.527400" lon="10.456340">
                <time>2017-07-15T16:32:16Z</time>
            </trkpt>
            <trkpt lat="46.527400" lon="10.456340">
                <time>2017-07-15T16:32:17Z</time>
            </trkpt>
            <trkpt lat="46.527400" lon="10.456340">
                <time>2017-07-15T16:32:18Z</time>
            </trkpt>
            <trkpt lat="46.527400" lon="10.456340">
                <time>2017-07-15T16:32:19Z</time>
            </trkpt>
            <trkpt lat="46.527400" lon="10.456340">
                <time>2017-07-15T16:32:20Z</time>
            </trkpt>
            <trkpt lat="46.527400" lon="10.456340">
                <time>2017-07-15T16:32:22Z</time>
            </trkpt>
            <trkpt lat="46.527400" lon="10.456340">
                <time>2017-07-15T16:32:23Z</time>
            </trkpt>
            <trkpt lat="46.527400" lon="10.456340">
                <time>2017-07-15T16:32:24Z</time>
            </trkpt>
            <trkpt lat="46.527400" lon="10.456340">
                <time>2017-07-15T16:32:25Z</time>
            </trkpt>
            <trkpt lat="46.527400" lon="10.456340">
                <time>2017-07-15T16:32:26Z</time>
            </trkpt>
            <trkpt lat="46.527400" lon="10.456340">
                <time>2017-07-15T16:32:27Z</time>
            </trkpt>
            <trkpt lat="46.527400" lon="10.456340">
                <time>2017-07-15T16:32:28Z</time>
            </trkpt>
            <trkpt lat="46.527400" lon="10.456340">
                <time>2017-07-15T16:32:29Z</time>
            </trkpt>
            <trkpt lat="46.527400" lon="10.456340">
                <time>2017-07-15T16:32:30Z</time>
            </trkpt>
            <trkpt lat="46.527400" lon="10.456340">
                <time>2017-07-15T16:32:31Z</time>
            </trkpt>
            <trkpt lat="46.527400" lon="10.456340">
                <time>2017-07-15T16:32:32Z</time>
            </trkpt>
            <trkpt lat="46.527400" lon="10.456340">
                <time>2017-07-15T16:32:33Z</time>
            </trkpt>
            <trkpt lat="46.527400" lon="10.456340">
                <time>2017-07-15T16:32:34Z</time>
            </trkpt>
            <trkpt lat="46.527400" lon="10.456340">
                <time>2017-07-15T16:32:35Z</time>
            </trkpt>
            <trkpt lat="46.527400" lon="10.456340">
                <time>2017-07-15T16:32:36Z</time>
            </trkpt>
            <trkpt lat="46.527410" lon="10.456330">
                <time>2017-07-15T16:33:16Z</time>
            </trkpt>
            <trkpt lat="46.527400" lon="10.456320">
                <time>2017-07-15T16:33:17Z</time>
            </trkpt>
            <trkpt lat="46.527400" lon="10.456310">
                <time>2017-07-15T16:33:18Z</time>
            </trkpt>
            <trkpt lat="46.527400" lon="10.456310">
                <time>2017-07-15T16:33:19Z</time>
            </trkpt>
            <trkpt lat="46.527400" lon="10.456310">
                <time>2017-07-15T16:33:20Z</time>
            </trkpt>
            <trkpt lat="46.527400" lon="10.456310">
                <time>2017-07-15T16:33:21Z</time>
            </trkpt>
            <trkpt lat="46.527390" lon="10.456300">
                <time>2017-07-15T16:33:22Z</time>
            </trkpt>
            <trkpt lat="46.527390" lon="10.456300">
                <time>2017-07-15T16:33:23Z</time>
            </trkpt>
            <trkpt lat="46.527390" lon="10.456300">
                <time>2017-07-15T16:33:24Z</time>
            </trkpt>
            <trkpt lat="46.527390" lon="10.456300">
                <time>2017-07-15T16:33:25Z</time>
            </trkpt>
            <trkpt lat="46.527390" lon="10.456290">
                <time>2017-07-15T16:33:26Z</time>
            </trkpt>
            <trkpt lat="46.527390" lon="10.456290">
                <time>2017-07-15T16:33:27Z</time>
            </trkpt>
            <trkpt lat="46.527390" lon="10.456280">
                <time>2017-07-15T16:33:28Z</time>
            </trkpt>
            <trkpt lat="46.527390" lon="10.456280">
                <time>2017-07-15T16:33:29Z</time>
            </trkpt>
            <trkpt lat="46.527390" lon="10.456280">
                <time>2017-07-15T16:33:30Z</time>
            </trkpt>
            <trkpt lat="46.527390" lon="10.456280">
                <time>2017-07-15T16:33:31Z</time>
            </trkpt>
            <trkpt lat="46.527390" lon="10.456280">
                <time>2017-07-15T16:33:32Z</time>
            </trkpt>
            <trkpt lat="46.527380" lon="10.456280">
                <time>2017-07-15T16:33:33Z</time>
            </trkpt>
            <trkpt lat="46.527380" lon="10.456280">
                <time>2017-07-15T16:33:34Z</time>
            </trkpt>
            <trkpt lat="46.527360" lon="10.456270">
                <time>2017-07-15T16:33:35Z</time>
            </trkpt>
            <trkpt lat="46.527350" lon="10.456260">
                <time>2017-07-15T16:33:36Z</time>
            </trkpt>
            <trkpt lat="46.527340" lon="10.456250">
                <time>2017-07-15T16:33:37Z</time>
            </trkpt>
            <trkpt lat="46.527340" lon="10.456230">
                <time>2017-07-15T16:33:38Z</time>
            </trkpt>
            <trkpt lat="46.527330" lon="10.456220">
                <time>2017-07-15T16:33:39Z</time>
            </trkpt>
            <trkpt lat="46.527330" lon="10.456210">
                <time>2017-07-15T16:33:40Z</time>
            </trkpt>
            <trkpt lat="46.527330" lon="10.456210">
                <time>2017-07-15T16:33:41Z</time>
            </trkpt>
            <trkpt lat="46.527330" lon="10.456210">
                <time>2017-07-15T16:33:42Z</time>
            </trkpt>
            <trkpt lat="46.527330" lon="10.456210">
                <time>2017-07-15T16:33:43Z</time>
            </trkpt>
            <trkpt lat="46.527330" lon="10.456210">
                <time>2017-07-15T16:33:44Z</time>
            </trkpt>
            <trkpt lat="46.527330" lon="10.456210">
                <time>2017-07-15T16:33:45Z</time>
            </trkpt>
            <trkpt lat="46.527330" lon="10.456200">
                <time>2017-07-15T16:33:46Z</time>
            </trkpt>
            <trkpt lat="46.527320" lon="10.456190">
                <time>2017-07-15T16:33:47Z</time>
            </trkpt>
            <trkpt lat="46.527310" lon="10.456160">
                <time>2017-07-15T16:33:48Z</time>
            </trkpt>
            <trkpt lat="46.527310" lon="10.456130">
                <time>2017-07-15T16:33:49Z</time>
            </trkpt>
            <trkpt lat="46.527300" lon="10.456090">
                <time>2017-07-15T16:33:50Z</time>
            </trkpt>
            <trkpt lat="46.527310" lon="10.456050">
                <time>2017-07-15T16:33:51Z</time>
            </trkpt>
            <trkpt lat="46.527320" lon="10.456010">
                <time>2017-07-15T16:33:52Z</time>
            </trkpt>
            <trkpt lat="46.527340" lon="10.455970">
                <time>2017-07-15T16:33:53Z</time>
            </trkpt>
            <trkpt lat="46.527360" lon="10.455940">
                <time>2017-07-15T16:33:54Z</time>
            </trkpt>
            <trkpt lat="46.527390" lon="10.455910">
                <time>2017-07-15T16:33:55Z</time>
            </trkpt>
            <trkpt lat="46.527420" lon="10.455880">
                <time>2017-07-15T16:33:56Z</time>
            </trkpt>
            <trkpt lat="46.527440" lon="10.455840">
                <time>2017-07-15T16:33:57Z</time>
            </trkpt>
            <trkpt lat="46.527450" lon="10.455790">
                <time>2017-07-15T16:33:58Z</time>
            </trkpt>
            <trkpt lat="46.527460" lon="10.455730">
                <time>2017-07-15T16:33:59Z</time>
            </trkpt>
            <trkpt lat="46.527470" lon="10.455680">
                <time>2017-07-15T16:34:00Z</time>
            </trkpt>
            <trkpt lat="46.527470" lon="10.455610">
                <time>2017-07-15T16:34:01Z</time>
            </trkpt>
            <trkpt lat="46.527480" lon="10.455550">
                <time>2017-07-15T16:34:02Z</time>
            </trkpt>
            <trkpt lat="46.527490" lon="10.455490">
                <time>2017-07-15T16:34:03Z</time>
            </trkpt>
            <trkpt lat="46.527500" lon="10.455420">
                <time>2017-07-15T16:34:04Z</time>
            </trkpt>
            <trkpt lat="46.527500" lon="10.455360">
                <time>2017-07-15T16:34:05Z</time>
            </trkpt>
            <trkpt lat="46.527510" lon="10.455300">
                <time>2017-07-15T16:34:06Z</time>
            </trkpt>
            <trkpt lat="46.527520" lon="10.455210">
                <time>2017-07-15T16:34:07Z</time>
            </trkpt>
            <trkpt lat="46.527540" lon="10.455150">
                <time>2017-07-15T16:34:08Z</time>
            </trkpt>
            <trkpt lat="46.527560" lon="10.455100">
                <time>2017-07-15T16:34:09Z</time>
            </trkpt>
            <trkpt lat="46.527580" lon="10.455050">
                <time>2017-07-15T16:34:10Z</time>
            </trkpt>
            <trkpt lat="46.527610" lon="10.455000">
                <time>2017-07-15T16:34:11Z</time>
            </trkpt>
            <trkpt lat="46.527630" lon="10.454960">
                <time>2017-07-15T16:34:12Z</time>
            </trkpt>
            <trkpt lat="46.527650" lon="10.454910">
                <time>2017-07-15T16:34:13Z</time>
            </trkpt>
            <trkpt lat="46.527660" lon="10.454870">
                <time>2017-07-15T16:34:14Z</time>
            </trkpt>
            <trkpt lat="46.527680" lon="10.454820">
                <time>2017-07-15T16:34:15Z</time>
            </trkpt>
            <trkpt lat="46.527690" lon="10.454790">
                <time>2017-07-15T16:34:16Z</time>
            </trkpt>
            <trkpt lat="46.527710" lon="10.454750">
                <time>2017-07-15T16:34:17Z</time>
            </trkpt>
            <trkpt lat="46.527710" lon="10.454730">
                <time>2017-07-15T16:34:18Z</time>
            </trkpt>
            <trkpt lat="46.527710" lon="10.454720">
                <time>2017-07-15T16:34:19Z</time>
            </trkpt>
            <trkpt lat="46.527710" lon="10.454720">
                <time>2017-07-15T16:34:20Z</time>
            </trkpt>
            <trkpt lat="46.527710" lon="10.454710">
                <time>2017-07-15T16:34:21Z</time>
            </trkpt>
            <trkpt lat="46.527710" lon="10.454710">
                <time>2017-07-15T16:34:22Z</time>
            </trkpt>
            <trkpt lat="46.527710" lon="10.454710">
                <time>2017-07-15T16:34:23Z</time>
            </trkpt>
            <trkpt lat="46.527710" lon="10.454710">
                <time>2017-07-15T16:34:24Z</time>
            </trkpt>
            <trkpt lat="46.527710" lon="10.454710">
                <time>2017-07-15T16:34:25Z</time>
            </trkpt>
            <trkpt lat="46.527710" lon="10.454710">
                <time>2017-07-15T16:34:26Z</time>
            </trkpt>
            <trkpt lat="46.527710" lon="10.454710">
                <time>2017-07-15T16:34:27Z</time>
            </trkpt>
            <trkpt lat="46.527720" lon="10.454720">
                <time>2017-07-15T16:34:28Z</time>
            </trkpt>
            <trkpt lat="46.527720" lon="10.454720">
                <time>2017-07-15T16:34:29Z</time>
            </trkpt>
            <trkpt lat="46.527720" lon="10.454720">
                <time>2017-07-15T16:34:30Z</time>
            </trkpt>
            <trkpt lat="46.527720" lon="10.454720">
                <time>2017-07-15T16:34:31Z</time>
            </trkpt>
            <trkpt lat="46.527720" lon="10.454720">
                <time>2017-07-15T16:34:32Z</time>
            </trkpt>
            <trkpt lat="46.527720" lon="10.454700">
                <time>2017-07-15T16:34:33Z</time>
            </trkpt>
            <trkpt lat="46.527730" lon="10.454650">
                <time>2017-07-15T16:34:34Z</time>
            </trkpt>
            <trkpt lat="46.527750" lon="10.454590">
                <time>2017-07-15T16:34:35Z</time>
            </trkpt>
            <trkpt lat="46.527760" lon="10.454520">
                <time>2017-07-15T16:34:36Z</time>
            </trkpt>
            <trkpt lat="46.527770" lon="10.454440">
                <time>2017-07-15T16:34:37Z</time>
            </trkpt>
            <trkpt lat="46.527780" lon="10.454370">
                <time>2017-07-15T16:34:38Z</time>
            </trkpt>
            <trkpt lat="46.527770" lon="10.454300">
                <time>2017-07-15T16:34:39Z</time>
            </trkpt>
            <trkpt lat="46.527750" lon="10.454240">
                <time>2017-07-15T16:34:40Z</time>
            </trkpt>
            <trkpt lat="46.527730" lon="10.454190">
                <time>2017-07-15T16:34:41Z</time>
            </trkpt>
            <trkpt lat="46.527700" lon="10.454150">
                <time>2017-07-15T16:34:42Z</time>
            </trkpt>
            <trkpt lat="46.527660" lon="10.454110">
                <time>2017-07-15T16:34:43Z</time>
            </trkpt>
            <trkpt lat="46.527630" lon="10.454060">
                <time>2017-07-15T16:34:44Z</time>
            </trkpt>
            <trkpt lat="46.527590" lon="10.454020">
                <time>2017-07-15T16:34:45Z</time>
            </trkpt>
            <trkpt lat="46.527550" lon="10.453970">
                <time>2017-07-15T16:34:46Z</time>
            </trkpt>
            <trkpt lat="46.527520" lon="10.453910">
                <time>2017-07-15T16:34:47Z</time>
            </trkpt>
            <trkpt lat="46.527500" lon="10.453860">
                <time>2017-07-15T16:34:48Z</time>
            </trkpt>
            <trkpt lat="46.527480" lon="10.453810">
                <time>2017-07-15T16:34:49Z</time>
            </trkpt>
            <trkpt lat="46.527470" lon="10.453750">
                <time>2017-07-15T16:34:50Z</time>
            </trkpt>
            <trkpt lat="46.527470" lon="10.453700">
                <time>2017-07-15T16:34:51Z</time>
            </trkpt>
            <trkpt lat="46.527460" lon="10.453640">
                <time>2017-07-15T16:34:52Z</time>
            </trkpt>
            <trkpt lat="46.527440" lon="10.453590">
                <time>2017-07-15T16:34:53Z</time>
            </trkpt>
            <trkpt lat="46.527430" lon="10.453530">
                <time>2017-07-15T16:34:54Z</time>
            </trkpt>
            <trkpt lat="46.527410" lon="10.453470">
                <time>2017-07-15T16:34:55Z</time>
            </trkpt>
            <trkpt lat="46.527400" lon="10.453410">
                <time>2017-07-15T16:34:56Z</time>
            </trkpt>
            <trkpt lat="46.527400" lon="10.453350">
                <time>2017-07-15T16:34:57Z</time>
            </trkpt>
            <trkpt lat="46.527410" lon="10.453280">
                <time>2017-07-15T16:34:58Z</time>
            </trkpt>
            <trkpt lat="46.527420" lon="10.453230">
                <time>2017-07-15T16:34:59Z</time>
            </trkpt>
            <trkpt lat="46.527440" lon="10.453170">
                <time>2017-07-15T16:35:00Z</time>
            </trkpt>
            <trkpt lat="46.527460" lon="10.453130">
                <time>2017-07-15T16:35:01Z</time>
            </trkpt>
            <trkpt lat="46.527490" lon="10.453080">
                <time>2017-07-15T16:35:02Z</time>
            </trkpt>
            <trkpt lat="46.527520" lon="10.453040">
                <time>2017-07-15T16:35:03Z</time>
            </trkpt>
            <trkpt lat="46.527560" lon="10.453000">
                <time>2017-07-15T16:35:04Z</time>
            </trkpt>
            <trkpt lat="46.527580" lon="10.452950">
                <time>2017-07-15T16:35:05Z</time>
            </trkpt>
            <trkpt lat="46.527620" lon="10.452890">
                <time>2017-07-15T16:35:06Z</time>
            </trkpt>
            <trkpt lat="46.527650" lon="10.452850">
                <time>2017-07-15T16:35:07Z</time>
            </trkpt>
            <trkpt lat="46.527690" lon="10.452820">
                <time>2017-07-15T16:35:08Z</time>
            </trkpt>
            <trkpt lat="46.527730" lon="10.452830">
                <time>2017-07-15T16:35:09Z</time>
            </trkpt>
            <trkpt lat="46.527780" lon="10.452850">
                <time>2017-07-15T16:35:10Z</time>
            </trkpt>
            <trkpt lat="46.527820" lon="10.452870">
                <time>2017-07-15T16:35:11Z</time>
            </trkpt>
            <trkpt lat="46.527870" lon="10.452890">
                <time>2017-07-15T16:35:12Z</time>
            </trkpt>
            <trkpt lat="46.527920" lon="10.452920">
                <time>2017-07-15T16:35:13Z</time>
            </trkpt>
            <trkpt lat="46.527980" lon="10.452940">
                <time>2017-07-15T16:35:14Z</time>
            </trkpt>
            <trkpt lat="46.528030" lon="10.452970">
                <time>2017-07-15T16:35:15Z</time>
            </trkpt>
            <trkpt lat="46.528090" lon="10.453000">
                <time>2017-07-15T16:35:16Z</time>
            </trkpt>
            <trkpt lat="46.528140" lon="10.453020">
                <time>2017-07-15T16:35:17Z</time>
            </trkpt>
            <trkpt lat="46.528190" lon="10.453040">
                <time>2017-07-15T16:35:18Z</time>
            </trkpt>
            <trkpt lat="46.528240" lon="10.453060">
                <time>2017-07-15T16:35:19Z</time>
            </trkpt>
            <trkpt lat="46.528290" lon="10.453080">
                <time>2017-07-15T16:35:20Z</time>
            </trkpt>
            <trkpt lat="46.528340" lon="10.453090">
                <time>2017-07-15T16:35:21Z</time>
            </trkpt>
            <trkpt lat="46.528400" lon="10.453100">
                <time>2017-07-15T16:35:22Z</time>
            </trkpt>
            <trkpt lat="46.528450" lon="10.453100">
                <time>2017-07-15T16:35:23Z</time>
            </trkpt>
            <trkpt lat="46.528500" lon="10.453100">
                <time>2017-07-15T16:35:24Z</time>
            </trkpt>
            <trkpt lat="46.528540" lon="10.453110">
                <time>2017-07-15T16:35:25Z</time>
            </trkpt>
            <trkpt lat="46.528570" lon="10.453110">
                <time>2017-07-15T16:35:26Z</time>
            </trkpt>
            <trkpt lat="46.528600" lon="10.453100">
                <time>2017-07-15T16:35:27Z</time>
            </trkpt>
            <trkpt lat="46.528620" lon="10.453090">
                <time>2017-07-15T16:35:28Z</time>
            </trkpt>
            <trkpt lat="46.528640" lon="10.453060">
                <time>2017-07-15T16:35:29Z</time>
            </trkpt>
            <trkpt lat="46.528670" lon="10.453020">
                <time>2017-07-15T16:35:30Z</time>
            </trkpt>
            <trkpt lat="46.528700" lon="10.452970">
                <time>2017-07-15T16:35:31Z</time>
            </trkpt>
            <trkpt lat="46.528730" lon="10.452910">
                <time>2017-07-15T16:35:32Z</time>
            </trkpt>
            <trkpt lat="46.528760" lon="10.452860">
                <time>2017-07-15T16:35:33Z</time>
            </trkpt>
            <trkpt lat="46.528790" lon="10.452820">
                <time>2017-07-15T16:35:34Z</time>
            </trkpt>
            <trkpt lat="46.528820" lon="10.452770">
                <time>2017-07-15T16:35:35Z</time>
            </trkpt>
            <trkpt lat="46.528860" lon="10.452740">
                <time>2017-07-15T16:35:36Z</time>
            </trkpt>
            <trkpt lat="46.528890" lon="10.452700">
                <time>2017-07-15T16:35:37Z</time>
            </trkpt>
            <trkpt lat="46.528920" lon="10.452660">
                <time>2017-07-15T16:35:38Z</time>
            </trkpt>
            <trkpt lat="46.528960" lon="10.452630">
                <time>2017-07-15T16:35:39Z</time>
            </trkpt>
            <trkpt lat="46.529010" lon="10.452590">
                <time>2017-07-15T16:35:40Z</time>
            </trkpt>
            <trkpt lat="46.529040" lon="10.452550">
                <time>2017-07-15T16:35:41Z</time>
            </trkpt>
            <trkpt lat="46.529090" lon="10.452500">
                <time>2017-07-15T16:35:42Z</time>
            </trkpt>
            <trkpt lat="46.529150" lon="10.452460">
                <time>2017-07-15T16:35:43Z</time>
            </trkpt>
            <trkpt lat="46.529200" lon="10.452410">
                <time>2017-07-15T16:35:44Z</time>
            </trkpt>
            <trkpt lat="46.529260" lon="10.452360">
                <time>2017-07-15T16:35:45Z</time>
            </trkpt>
            <trkpt lat="46.529320" lon="10.452310">
                <time>2017-07-15T16:35:46Z</time>
            </trkpt>
            <trkpt lat="46.529380" lon="10.452250">
                <time>2017-07-15T16:35:47Z</time>
            </trkpt>
            <trkpt lat="46.529450" lon="10.452200">
                <time>2017-07-15T16:35:48Z</time>
            </trkpt>
            <trkpt lat="46.529510" lon="10.452140">
                <time>2017-07-15T16:35:49Z</time>
            </trkpt>
            <trkpt lat="46.529570" lon="10.452080">
                <time>2017-07-15T16:35:50Z</time>
            </trkpt>
            <trkpt lat="46.529630" lon="10.452000">
                <time>2017-07-15T16:35:51Z</time>
            </trkpt>
            <trkpt lat="46.529680" lon="10.451920">
                <time>2017-07-15T16:35:52Z</time>
            </trkpt>
            <trkpt lat="46.529730" lon="10.451840">
                <time>2017-07-15T16:35:53Z</time>
            </trkpt>
            <trkpt lat="46.529790" lon="10.451740">
                <time>2017-07-15T16:35:54Z</time>
            </trkpt>
            <trkpt lat="46.529830" lon="10.451660">
                <time>2017-07-15T16:35:55Z</time>
            </trkpt>
            <trkpt lat="46.529880" lon="10.451580">
                <time>2017-07-15T16:35:56Z</time>
            </trkpt>
            <trkpt lat="46.529930" lon="10.451520">
                <time>2017-07-15T16:35:57Z</time>
            </trkpt>
            <trkpt lat="46.529980" lon="10.451460">
                <time>2017-07-15T16:35:58Z</time>
            </trkpt>
            <trkpt lat="46.530030" lon="10.451410">
                <time>2017-07-15T16:35:59Z</time>
            </trkpt>
            <trkpt lat="46.530060" lon="10.451370">
                <time>2017-07-15T16:36:00Z</time>
            </trkpt>
            <trkpt lat="46.530070" lon="10.451310">
                <time>2017-07-15T16:36:01Z</time>
            </trkpt>
            <trkpt lat="46.530070" lon="10.451260">
                <time>2017-07-15T16:36:02Z</time>
            </trkpt>
            <trkpt lat="46.530040" lon="10.451220">
                <time>2017-07-15T16:36:03Z</time>
            </trkpt>
            <trkpt lat="46.530000" lon="10.451190">
                <time>2017-07-15T16:36:04Z</time>
            </trkpt>
            <trkpt lat="46.529940" lon="10.451200">
                <time>2017-07-15T16:36:05Z</time>
            </trkpt>
            <trkpt lat="46.529880" lon="10.451240">
                <time>2017-07-15T16:36:06Z</time>
            </trkpt>
            <trkpt lat="46.529800" lon="10.451250">
                <time>2017-07-15T16:36:07Z</time>
            </trkpt>
            <trkpt lat="46.529740" lon="10.451240">
                <time>2017-07-15T16:36:08Z</time>
            </trkpt>
            <trkpt lat="46.529670" lon="10.451210">
                <time>2017-07-15T16:36:09Z</time>
            </trkpt>
            <trkpt lat="46.529620" lon="10.451140">
                <time>2017-07-15T16:36:10Z</time>
            </trkpt>
            <trkpt lat="46.529590" lon="10.451060">
                <time>2017-07-15T16:36:11Z</time>
            </trkpt>
            <trkpt lat="46.529570" lon="10.450950">
                <time>2017-07-15T16:36:12Z</time>
            </trkpt>
            <trkpt lat="46.529550" lon="10.450860">
                <time>2017-07-15T16:36:13Z</time>
            </trkpt>
            <trkpt lat="46.529530" lon="10.450750">
                <time>2017-07-15T16:36:14Z</time>
            </trkpt>
            <trkpt lat="46.529500" lon="10.450640">
                <time>2017-07-15T16:36:15Z</time>
            </trkpt>
            <trkpt lat="46.529490" lon="10.450550">
                <time>2017-07-15T16:36:16Z</time>
            </trkpt>
            <trkpt lat="46.529470" lon="10.450460">
                <time>2017-07-15T16:36:17Z</time>
            </trkpt>
            <trkpt lat="46.529480" lon="10.450390">
                <time>2017-07-15T16:36:18Z</time>
            </trkpt>
            <trkpt lat="46.529500" lon="10.450330">
                <time>2017-07-15T16:36:19Z</time>
            </trkpt>
            <trkpt lat="46.529530" lon="10.450290">
                <time>2017-07-15T16:36:20Z</time>
            </trkpt>
            <trkpt lat="46.529570" lon="10.450270">
                <time>2017-07-15T16:36:21Z</time>
            </trkpt>
            <trkpt lat="46.529610" lon="10.450270">
                <time>2017-07-15T16:36:22Z</time>
            </trkpt>
            <trkpt lat="46.529650" lon="10.450270">
                <time>2017-07-15T16:36:23Z</time>
            </trkpt>
            <trkpt lat="46.529690" lon="10.450270">
                <time>2017-07-15T16:36:24Z</time>
            </trkpt>
            <trkpt lat="46.529730" lon="10.450260">
                <time>2017-07-15T16:36:25Z</time>
            </trkpt>
            <trkpt lat="46.529780" lon="10.450240">
                <time>2017-07-15T16:36:26Z</time>
            </trkpt>
            <trkpt lat="46.529820" lon="10.450220">
                <time>2017-07-15T16:36:27Z</time>
            </trkpt>
            <trkpt lat="46.529860" lon="10.450190">
                <time>2017-07-15T16:36:28Z</time>
            </trkpt>
            <trkpt lat="46.529890" lon="10.450180">
                <time>2017-07-15T16:36:29Z</time>
            </trkpt>
            <trkpt lat="46.529920" lon="10.450170">
                <time>2017-07-15T16:36:30Z</time>
            </trkpt>
            <trkpt lat="46.529960" lon="10.450160">
                <time>2017-07-15T16:36:31Z</time>
            </trkpt>
            <trkpt lat="46.529990" lon="10.450140">
                <time>2017-07-15T16:36:32Z</time>
            </trkpt>
            <trkpt lat="46.530020" lon="10.450120">
                <time>2017-07-15T16:36:33Z</time>
            </trkpt>
            <trkpt lat="46.530040" lon="10.450100">
                <time>2017-07-15T16:36:34Z</time>
            </trkpt>
            <trkpt lat="46.530060" lon="10.450090">
                <time>2017-07-15T16:36:35Z</time>
            </trkpt>
            <trkpt lat="46.530070" lon="10.450070">
                <time>2017-07-15T16:36:36Z</time>
            </trkpt>
            <trkpt lat="46.530070" lon="10.450060">
                <time>2017-07-15T16:36:37Z</time>
            </trkpt>
            <trkpt lat="46.530070" lon="10.450050">
                <time>2017-07-15T16:36:38Z</time>
            </trkpt>
            <trkpt lat="46.530060" lon="10.450050">
                <time>2017-07-15T16:36:39Z</time>
            </trkpt>
            <trkpt lat="46.530060" lon="10.450050">
                <time>2017-07-15T16:36:40Z</time>
            </trkpt>
            <trkpt lat="46.530060" lon="10.450050">
                <time>2017-07-15T16:36:41Z</time>
            </trkpt>
            <trkpt lat="46.530060" lon="10.450050">
                <time>2017-07-15T16:36:42Z</time>
            </trkpt>
            <trkpt lat="46.530060" lon="10.450050">
                <time>2017-07-15T16:36:43Z</time>
            </trkpt>
            <trkpt lat="46.530060" lon="10.450050">
                <time>2017-07-15T16:36:44Z</time>
            </trkpt>
            <trkpt lat="46.530060" lon="10.450050">
                <time>2017-07-15T16:36:45Z</time>
            </trkpt>
            <trkpt lat="46.530060" lon="10.450050">
                <time>2017-07-15T16:36:46Z</time>
            </trkpt>
            <trkpt lat="46.530060" lon="10.450050">
                <time>2017-07-15T16:36:47Z</time>
            </trkpt>
            <trkpt lat="46.530060" lon="10.450060">
                <time>2017-07-15T16:36:48Z</time>
            </trkpt>
            <trkpt lat="46.530060" lon="10.450060">
                <time>2017-07-15T16:36:49Z</time>
            </trkpt>
            <trkpt lat="46.530060" lon="10.450060">
                <time>2017-07-15T16:36:50Z</time>
            </trkpt>
            <trkpt lat="46.530060" lon="10.450060">
                <time>2017-07-15T16:36:51Z</time>
            </trkpt>
            <trkpt lat="46.530060" lon="10.450060">
                <time>2017-07-15T16:36:52Z</time>
            </trkpt>
            <trkpt lat="46.530060" lon="10.450060">
                <time>2017-07-15T16:36:53Z</time>
            </trkpt>
            <trkpt lat="46.530060" lon="10.450060">
                <time>2017-07-15T16:36:54Z</time>
            </trkpt>
            <trkpt lat="46.530060" lon="10.450060">
                <time>2017-07-15T16:36:55Z</time>
            </trkpt>
            <trkpt lat="46.530060" lon="10.450060">
                <time>2017-07-15T16:36:56Z</time>
            </trkpt>
            <trkpt lat="46.530060" lon="10.450060">
                <time>2017-07-15T16:36:57Z</time>
            </trkpt>
            <trkpt lat="46.530060" lon="10.450060">
                <time>2017-07-15T16:36:58Z</time>
            </trkpt>
            <trkpt lat="46.530060" lon="10.450060">
                <time>2017-07-15T16:36:59Z</time>
            </trkpt>
            <trkpt lat="46.530060" lon="10.450060">
                <time>2017-07-15T16:37:00Z</time>
            </trkpt>
            <trkpt lat="46.530060" lon="10.450060">
                <time>2017-07-15T16:37:01Z</time>
            </trkpt>
            <trkpt lat="46.530060" lon="10.450060">
                <time>2017-07-15T16:37:02Z</time>
            </trkpt>
            <trkpt lat="46.530060" lon="10.450060">
                <time>2017-07-15T16:37:03Z</time>
            </trkpt>
            <trkpt lat="46.530060" lon="10.450060">
                <time>2017-07-15T16:37:04Z</time>
            </trkpt>
            <trkpt lat="46.530060" lon="10.450060">
                <time>2017-07-15T16:37:05Z</time>
            </trkpt>
            <trkpt lat="46.530060" lon="10.450060">
                <time>2017-07-15T16:37:06Z</time>
            </trkpt>
            <trkpt lat="46.530060" lon="10.450060">
                <time>2017-07-15T16:37:07Z</time>
            </trkpt>
            <trkpt lat="46.530050" lon="10.450040">
                <time>2017-07-15T16:38:17Z</time>
            </trkpt>
            <trkpt lat="46.530050" lon="10.450040">
                <time>2017-07-15T16:38:18Z</time>
            </trkpt>
            <trkpt lat="46.530050" lon="10.450040">
                <time>2017-07-15T16:38:19Z</time>
            </trkpt>
            <trkpt lat="46.530050" lon="10.450040">
                <time>2017-07-15T16:38:20Z</time>
            </trkpt>
            <trkpt lat="46.530050" lon="10.450040">
                <time>2017-07-15T16:38:21Z</time>
            </trkpt>
            <trkpt lat="46.530050" lon="10.450050">
                <time>2017-07-15T16:38:22Z</time>
            </trkpt>
            <trkpt lat="46.530050" lon="10.450060">
                <time>2017-07-15T16:38:23Z</time>
            </trkpt>
            <trkpt lat="46.530050" lon="10.450070">
                <time>2017-07-15T16:38:24Z</time>
            </trkpt>
            <trkpt lat="46.530050" lon="10.450080">
                <time>2017-07-15T16:38:25Z</time>
            </trkpt>
            <trkpt lat="46.530050" lon="10.450080">
                <time>2017-07-15T16:38:26Z</time>
            </trkpt>
            <trkpt lat="46.530050" lon="10.450080">
                <time>2017-07-15T16:38:27Z</time>
            </trkpt>
            <trkpt lat="46.530050" lon="10.450090">
                <time>2017-07-15T16:38:28Z</time>
            </trkpt>
            <trkpt lat="46.530040" lon="10.450090">
                <time>2017-07-15T16:38:29Z</time>
            </trkpt>
            <trkpt lat="46.530030" lon="10.450090">
                <time>2017-07-15T16:38:30Z</time>
            </trkpt>
            <trkpt lat="46.530010" lon="10.450090">
                <time>2017-07-15T16:38:31Z</time>
            </trkpt>
            <trkpt lat="46.529980" lon="10.450100">
                <time>2017-07-15T16:38:32Z</time>
            </trkpt>
            <trkpt lat="46.529950" lon="10.450100">
                <time>2017-07-15T16:38:33Z</time>
            </trkpt>
            <trkpt lat="46.529920" lon="10.450100">
                <time>2017-07-15T16:38:34Z</time>
            </trkpt>
            <trkpt lat="46.529900" lon="10.450110">
                <time>2017-07-15T16:38:35Z</time>
            </trkpt>
            <trkpt lat="46.529870" lon="10.450110">
                <time>2017-07-15T16:38:36Z</time>
            </trkpt>
            <trkpt lat="46.529840" lon="10.450110">
                <time>2017-07-15T16:38:37Z</time>
            </trkpt>
            <trkpt lat="46.529820" lon="10.450090">
                <time>2017-07-15T16:38:38Z</time>
            </trkpt>
            <trkpt lat="46.529800" lon="10.450060">
                <time>2017-07-15T16:38:39Z</time>
            </trkpt>
            <trkpt lat="46.529790" lon="10.450030">
                <time>2017-07-15T16:38:40Z</time>
            </trkpt>
            <trkpt lat="46.529790" lon="10.449980">
                <time>2017-07-15T16:38:41Z</time>
            </trkpt>
            <trkpt lat="46.529780" lon="10.449940">
                <time>2017-07-15T16:38:42Z</time>
            </trkpt>
            <trkpt lat="46.529780" lon="10.449900">
                <time>2017-07-15T16:38:43Z</time>
            </trkpt>
            <trkpt lat="46.529780" lon="10.449860">
                <time>2017-07-15T16:38:44Z</time>
            </trkpt>
            <trkpt lat="46.529780" lon="10.449820">
                <time>2017-07-15T16:38:45Z</time>
            </trkpt>
            <trkpt lat="46.529780" lon="10.449770">
                <time>2017-07-15T16:38:46Z</time>
            </trkpt>
            <trkpt lat="46.529800" lon="10.449730">
                <time>2017-07-15T16:38:47Z</time>
            </trkpt>
            <trkpt lat="46.529820" lon="10.449700">
                <time>2017-07-15T16:38:48Z</time>
            </trkpt>
            <trkpt lat="46.529850" lon="10.449690">
                <time>2017-07-15T16:38:49Z</time>
            </trkpt>
            <trkpt lat="46.529880" lon="10.449690">
                <time>2017-07-15T16:38:50Z</time>
            </trkpt>
            <trkpt lat="46.529900" lon="10.449700">
                <time>2017-07-15T16:38:51Z</time>
            </trkpt>
            <trkpt lat="46.529920" lon="10.449700">
                <time>2017-07-15T16:38:52Z</time>
            </trkpt>
            <trkpt lat="46.529920" lon="10.449700">
                <time>2017-07-15T16:38:53Z</time>
            </trkpt>
            <trkpt lat="46.529920" lon="10.449710">
                <time>2017-07-15T16:38:54Z</time>
            </trkpt>
            <trkpt lat="46.529920" lon="10.449710">
                <time>2017-07-15T16:38:55Z</time>
            </trkpt>
            <trkpt lat="46.529930" lon="10.449710">
                <time>2017-07-15T16:38:56Z</time>
            </trkpt>
            <trkpt lat="46.529930" lon="10.449720">
                <time>2017-07-15T16:38:57Z</time>
            </trkpt>
            <trkpt lat="46.529930" lon="10.449730">
                <time>2017-07-15T16:38:58Z</time>
            </trkpt>
            <trkpt lat="46.529940" lon="10.449730">
                <time>2017-07-15T16:38:59Z</time>
            </trkpt>
            <trkpt lat="46.529940" lon="10.449730">
                <time>2017-07-15T16:39:00Z</time>
            </trkpt>
            <trkpt lat="46.529940" lon="10.449730">
                <time>2017-07-15T16:39:01Z</time>
            </trkpt>
            <trkpt lat="46.529940" lon="10.449730">
                <time>2017-07-15T16:39:02Z</time>
            </trkpt>
            <trkpt lat="46.529940" lon="10.449730">
                <time>2017-07-15T16:39:03Z</time>
            </trkpt>
            <trkpt lat="46.529940" lon="10.449730">
                <time>2017-07-15T16:39:04Z</time>
            </trkpt>
            <trkpt lat="46.529940" lon="10.449730">
                <time>2017-07-15T16:39:05Z</time>
            </trkpt>
            <trkpt lat="46.529940" lon="10.449730">
                <time>2017-07-15T16:39:06Z</time>
            </trkpt>
            <trkpt lat="46.529940" lon="10.449730">
                <time>2017-07-15T16:39:07Z</time>
            </trkpt>
            <trkpt lat="46.529940" lon="10.449730">
                <time>2017-07-15T16:39:08Z</time>
            </trkpt>
            <trkpt lat="46.529940" lon="10.449730">
                <time>2017-07-15T16:39:09Z</time>
            </trkpt>
            <trkpt lat="46.529940" lon="10.449730">
                <time>2017-07-15T16:39:10Z</time>
            </trkpt>
            <trkpt lat="46.529940" lon="10.449730">
                <time>2017-07-15T16:39:11Z</time>
            </trkpt>
            <trkpt lat="46.529940" lon="10.449730">
                <time>2017-07-15T16:39:12Z</time>
            </trkpt>
            <trkpt lat="46.529940" lon="10.449730">
                <time>2017-07-15T16:39:13Z</time>
            </trkpt>
            <trkpt lat="46.529940" lon="10.449730">
                <time>2017-07-15T16:39:14Z</time>
            </trkpt>
            <trkpt lat="46.529940" lon="10.449730">
                <time>2017-07-15T16:39:15Z</time>
            </trkpt>
            <trkpt lat="46.529940" lon="10.449730">
                <time>2017-07-15T16:39:16Z</time>
            </trkpt>
            <trkpt lat="46.529940" lon="10.449730">
                <time>2017-07-15T16:39:17Z</time>
            </trkpt>
            <trkpt lat="46.529940" lon="10.449730">
                <time>2017-07-15T16:39:18Z</time>
            </trkpt>
            <trkpt lat="46.529940" lon="10.449730">
                <time>2017-07-15T16:39:19Z</time>
            </trkpt>
            <trkpt lat="46.529940" lon="10.449730">
                <time>2017-07-15T16:39:20Z</time>
            </trkpt>
            <trkpt lat="46.529940" lon="10.449730">
                <time>2017-07-15T16:39:21Z</time>
            </trkpt>
            <trkpt lat="46.529940" lon="10.449730">
                <time>2017-07-15T16:39:22Z</time>
            </trkpt>
            <trkpt lat="46.529940" lon="10.449730">
                <time>2017-07-15T16:39:23Z</time>
            </trkpt>
            <trkpt lat="46.529940" lon="10.449730">
                <time>2017-07-15T16:39:24Z</time>
            </trkpt>
            <trkpt lat="46.529940" lon="10.449730">
                <time>2017-07-15T16:39:25Z</time>
            </trkpt>
            <trkpt lat="46.529940" lon="10.449730">
                <time>2017-07-15T16:39:26Z</time>
            </trkpt>
            <trkpt lat="46.529940" lon="10.449730">
                <time>2017-07-15T16:39:27Z</time>
            </trkpt>
            <trkpt lat="46.529940" lon="10.449730">
                <time>2017-07-15T16:39:28Z</time>
            </trkpt>
            <trkpt lat="46.529940" lon="10.449730">
                <time>2017-07-15T16:39:29Z</time>
            </trkpt>
            <trkpt lat="46.529930" lon="10.449740">
                <time>2017-07-15T16:40:01Z</time>
            </trkpt>
        </trkseg>
    </trk>
</gpx>
